<?xml version="1.0" encoding="UTF-8" standalone="no" ?>
<gpx xmlns="http://www.topografix.com/GPX/1/1" xmlns:xsi="http://www.w3.org/2001/XMLSchema-instance" xsi:schemaLocation="http://www.topografix.com/GPX/1/1 http://www.topografix.com/GPX/1/1/gpx.xsd" version="1.1" creator="VisuGPX - https://www.visugpx.com">
  <metadata>
    <name>Buet (traveersée depuis Sixt)</name>
  </metadata>
  <trk>
    <name><![CDATA[2017-10-17 16:38:37-Course TT]]></name>
    <extensions>
      <line xmlns="http://www.topografix.com/GPX/gpx_style/0/2">
        <color>0000FF</color>
        <width>4</width>
      </line>
    </extensions>
    <trkseg>
      <trkpt lat="46.04121" lon="6.77434">
        <ele>885.99</ele>
        <time>2017-10-17T09:03:35Z</time>
      </trkpt>
      <trkpt lat="46.04122" lon="6.77435">
        <ele>975.39</ele>
        <time>2017-10-17T09:03:36Z</time>
      </trkpt>
      <trkpt lat="46.04123" lon="6.77435">
        <ele>975.39</ele>
        <time>2017-10-17T09:03:37Z</time>
      </trkpt>
      <trkpt lat="46.04129" lon="6.77436">
        <ele>885.99</ele>
        <time>2017-10-17T09:03:40Z</time>
      </trkpt>
      <trkpt lat="46.04131" lon="6.77436">
        <ele>886.47</ele>
        <time>2017-10-17T09:03:41Z</time>
      </trkpt>
      <trkpt lat="46.0414" lon="6.77434">
        <ele>886.47</ele>
        <time>2017-10-17T09:03:46Z</time>
      </trkpt>
      <trkpt lat="46.04141" lon="6.77433">
        <ele>886.95</ele>
        <time>2017-10-17T09:03:47Z</time>
      </trkpt>
      <trkpt lat="46.04142" lon="6.77432">
        <ele>886.95</ele>
        <time>2017-10-17T09:03:48Z</time>
      </trkpt>
      <trkpt lat="46.04145" lon="6.7743">
        <ele>887.43</ele>
        <time>2017-10-17T09:03:51Z</time>
      </trkpt>
      <trkpt lat="46.04147" lon="6.77429">
        <ele>887.91</ele>
        <time>2017-10-17T09:03:52Z</time>
      </trkpt>
      <trkpt lat="46.04148" lon="6.77429">
        <ele>888.4</ele>
        <time>2017-10-17T09:03:53Z</time>
      </trkpt>
      <trkpt lat="46.0417" lon="6.77425">
        <ele>890.32</ele>
        <time>2017-10-17T09:04:03Z</time>
      </trkpt>
      <trkpt lat="46.04183" lon="6.7742">
        <ele>892.72</ele>
        <time>2017-10-17T09:04:11Z</time>
      </trkpt>
      <trkpt lat="46.04184" lon="6.7742">
        <ele>893.2</ele>
        <time>2017-10-17T09:04:12Z</time>
      </trkpt>
      <trkpt lat="46.04185" lon="6.7742">
        <ele>893.2</ele>
        <time>2017-10-17T09:04:13Z</time>
      </trkpt>
      <trkpt lat="46.04187" lon="6.77421">
        <ele>893.68</ele>
        <time>2017-10-17T09:04:14Z</time>
      </trkpt>
      <trkpt lat="46.04187" lon="6.77422">
        <ele>893.68</ele>
        <time>2017-10-17T09:04:15Z</time>
      </trkpt>
      <trkpt lat="46.04189" lon="6.77424">
        <ele>894.16</ele>
        <time>2017-10-17T09:04:16Z</time>
      </trkpt>
      <trkpt lat="46.0419" lon="6.77426">
        <ele>894.16</ele>
        <time>2017-10-17T09:04:17Z</time>
      </trkpt>
      <trkpt lat="46.0419" lon="6.77428">
        <ele>894.64</ele>
        <time>2017-10-17T09:04:18Z</time>
      </trkpt>
      <trkpt lat="46.0419" lon="6.7743">
        <ele>895.12</ele>
        <time>2017-10-17T09:04:19Z</time>
      </trkpt>
      <trkpt lat="46.0419" lon="6.77432">
        <ele>895.61</ele>
        <time>2017-10-17T09:04:20Z</time>
      </trkpt>
      <trkpt lat="46.04191" lon="6.77434">
        <ele>895.61</ele>
        <time>2017-10-17T09:04:21Z</time>
      </trkpt>
      <trkpt lat="46.04192" lon="6.77436">
        <ele>896.09</ele>
        <time>2017-10-17T09:04:22Z</time>
      </trkpt>
      <trkpt lat="46.04193" lon="6.77438">
        <ele>896.09</ele>
        <time>2017-10-17T09:04:23Z</time>
      </trkpt>
      <trkpt lat="46.04193" lon="6.77441">
        <ele>896.57</ele>
        <time>2017-10-17T09:04:24Z</time>
      </trkpt>
      <trkpt lat="46.04194" lon="6.77443">
        <ele>896.57</ele>
        <time>2017-10-17T09:04:25Z</time>
      </trkpt>
      <trkpt lat="46.04195" lon="6.77445">
        <ele>897.05</ele>
        <time>2017-10-17T09:04:26Z</time>
      </trkpt>
      <trkpt lat="46.04196" lon="6.77448">
        <ele>897.53</ele>
        <time>2017-10-17T09:04:27Z</time>
      </trkpt>
      <trkpt lat="46.04199" lon="6.77454">
        <ele>898.01</ele>
        <time>2017-10-17T09:04:30Z</time>
      </trkpt>
      <trkpt lat="46.04206" lon="6.77476">
        <ele>901.37</ele>
        <time>2017-10-17T09:04:40Z</time>
      </trkpt>
      <trkpt lat="46.04209" lon="6.77484">
        <ele>902.82</ele>
        <time>2017-10-17T09:04:44Z</time>
      </trkpt>
      <trkpt lat="46.0421" lon="6.77486">
        <ele>903.3</ele>
        <time>2017-10-17T09:04:45Z</time>
      </trkpt>
      <trkpt lat="46.04211" lon="6.77488">
        <ele>903.3</ele>
        <time>2017-10-17T09:04:46Z</time>
      </trkpt>
      <trkpt lat="46.04212" lon="6.7749">
        <ele>903.78</ele>
        <time>2017-10-17T09:04:47Z</time>
      </trkpt>
      <trkpt lat="46.04212" lon="6.77492">
        <ele>903.78</ele>
        <time>2017-10-17T09:04:48Z</time>
      </trkpt>
      <trkpt lat="46.04213" lon="6.77494">
        <ele>904.26</ele>
        <time>2017-10-17T09:04:49Z</time>
      </trkpt>
      <trkpt lat="46.04214" lon="6.77496">
        <ele>904.74</ele>
        <time>2017-10-17T09:04:50Z</time>
      </trkpt>
      <trkpt lat="46.04214" lon="6.77498">
        <ele>905.22</ele>
        <time>2017-10-17T09:04:51Z</time>
      </trkpt>
      <trkpt lat="46.04215" lon="6.775">
        <ele>905.22</ele>
        <time>2017-10-17T09:04:52Z</time>
      </trkpt>
      <trkpt lat="46.04219" lon="6.7751">
        <ele>907.14</ele>
        <time>2017-10-17T09:04:58Z</time>
      </trkpt>
      <trkpt lat="46.04219" lon="6.77511">
        <ele>907.14</ele>
        <time>2017-10-17T09:04:59Z</time>
      </trkpt>
      <trkpt lat="46.04223" lon="6.7752">
        <ele>908.58</ele>
        <time>2017-10-17T09:05:04Z</time>
      </trkpt>
      <trkpt lat="46.04223" lon="6.77522">
        <ele>909.06</ele>
        <time>2017-10-17T09:05:05Z</time>
      </trkpt>
      <trkpt lat="46.04229" lon="6.77529">
        <ele>910.03</ele>
        <time>2017-10-17T09:05:11Z</time>
      </trkpt>
      <trkpt lat="46.04236" lon="6.77538">
        <ele>911.95</ele>
        <time>2017-10-17T09:05:20Z</time>
      </trkpt>
      <trkpt lat="46.04236" lon="6.7754">
        <ele>912.43</ele>
        <time>2017-10-17T09:05:21Z</time>
      </trkpt>
      <trkpt lat="46.0424" lon="6.77556">
        <ele>914.83</ele>
        <time>2017-10-17T09:05:32Z</time>
      </trkpt>
      <trkpt lat="46.0424" lon="6.77557">
        <ele>914.83</ele>
        <time>2017-10-17T09:05:33Z</time>
      </trkpt>
      <trkpt lat="46.04241" lon="6.77559">
        <ele>915.31</ele>
        <time>2017-10-17T09:05:34Z</time>
      </trkpt>
      <trkpt lat="46.04242" lon="6.77561">
        <ele>915.79</ele>
        <time>2017-10-17T09:05:35Z</time>
      </trkpt>
      <trkpt lat="46.04243" lon="6.77563">
        <ele>915.79</ele>
        <time>2017-10-17T09:05:36Z</time>
      </trkpt>
      <trkpt lat="46.04244" lon="6.77565">
        <ele>916.27</ele>
        <time>2017-10-17T09:05:37Z</time>
      </trkpt>
      <trkpt lat="46.04244" lon="6.77567">
        <ele>916.75</ele>
        <time>2017-10-17T09:05:38Z</time>
      </trkpt>
      <trkpt lat="46.04245" lon="6.77569">
        <ele>916.75</ele>
        <time>2017-10-17T09:05:39Z</time>
      </trkpt>
      <trkpt lat="46.04246" lon="6.77573">
        <ele>917.24</ele>
        <time>2017-10-17T09:05:41Z</time>
      </trkpt>
      <trkpt lat="46.04247" lon="6.77579">
        <ele>918.2</ele>
        <time>2017-10-17T09:05:45Z</time>
      </trkpt>
      <trkpt lat="46.04248" lon="6.77581">
        <ele>918.2</ele>
        <time>2017-10-17T09:05:46Z</time>
      </trkpt>
      <trkpt lat="46.04248" lon="6.77583">
        <ele>918.68</ele>
        <time>2017-10-17T09:05:47Z</time>
      </trkpt>
      <trkpt lat="46.04249" lon="6.77585">
        <ele>919.16</ele>
        <time>2017-10-17T09:05:48Z</time>
      </trkpt>
      <trkpt lat="46.0425" lon="6.77586">
        <ele>919.16</ele>
        <time>2017-10-17T09:05:49Z</time>
      </trkpt>
      <trkpt lat="46.04251" lon="6.77591">
        <ele>919.64</ele>
        <time>2017-10-17T09:05:52Z</time>
      </trkpt>
      <trkpt lat="46.04251" lon="6.77593">
        <ele>920.12</ele>
        <time>2017-10-17T09:05:53Z</time>
      </trkpt>
      <trkpt lat="46.04251" lon="6.77594">
        <ele>920.6</ele>
        <time>2017-10-17T09:05:54Z</time>
      </trkpt>
      <trkpt lat="46.04252" lon="6.77596">
        <ele>920.6</ele>
        <time>2017-10-17T09:05:55Z</time>
      </trkpt>
      <trkpt lat="46.04252" lon="6.77597">
        <ele>920.6</ele>
        <time>2017-10-17T09:05:56Z</time>
      </trkpt>
      <trkpt lat="46.04253" lon="6.77599">
        <ele>921.08</ele>
        <time>2017-10-17T09:05:57Z</time>
      </trkpt>
      <trkpt lat="46.04253" lon="6.776">
        <ele>921.56</ele>
        <time>2017-10-17T09:05:58Z</time>
      </trkpt>
      <trkpt lat="46.04254" lon="6.77602">
        <ele>921.56</ele>
        <time>2017-10-17T09:05:59Z</time>
      </trkpt>
      <trkpt lat="46.04254" lon="6.77603">
        <ele>921.56</ele>
        <time>2017-10-17T09:06:00Z</time>
      </trkpt>
      <trkpt lat="46.04258" lon="6.77615">
        <ele>923.96</ele>
        <time>2017-10-17T09:06:08Z</time>
      </trkpt>
      <trkpt lat="46.04259" lon="6.77616">
        <ele>923.96</ele>
        <time>2017-10-17T09:06:09Z</time>
      </trkpt>
      <trkpt lat="46.0426" lon="6.77618">
        <ele>924.45</ele>
        <time>2017-10-17T09:06:10Z</time>
      </trkpt>
      <trkpt lat="46.0426" lon="6.77619">
        <ele>924.45</ele>
        <time>2017-10-17T09:06:11Z</time>
      </trkpt>
      <trkpt lat="46.04262" lon="6.77621">
        <ele>924.93</ele>
        <time>2017-10-17T09:06:12Z</time>
      </trkpt>
      <trkpt lat="46.04263" lon="6.77623">
        <ele>925.41</ele>
        <time>2017-10-17T09:06:13Z</time>
      </trkpt>
      <trkpt lat="46.04263" lon="6.77624">
        <ele>925.41</ele>
        <time>2017-10-17T09:06:14Z</time>
      </trkpt>
      <trkpt lat="46.04264" lon="6.77626">
        <ele>925.89</ele>
        <time>2017-10-17T09:06:15Z</time>
      </trkpt>
      <trkpt lat="46.04265" lon="6.77632">
        <ele>926.85</ele>
        <time>2017-10-17T09:06:19Z</time>
      </trkpt>
      <trkpt lat="46.04265" lon="6.77633">
        <ele>927.33</ele>
        <time>2017-10-17T09:06:20Z</time>
      </trkpt>
      <trkpt lat="46.04266" lon="6.77635">
        <ele>927.33</ele>
        <time>2017-10-17T09:06:21Z</time>
      </trkpt>
      <trkpt lat="46.04266" lon="6.77637">
        <ele>927.81</ele>
        <time>2017-10-17T09:06:22Z</time>
      </trkpt>
      <trkpt lat="46.04267" lon="6.77644">
        <ele>929.25</ele>
        <time>2017-10-17T09:06:28Z</time>
      </trkpt>
      <trkpt lat="46.04268" lon="6.77645">
        <ele>929.25</ele>
        <time>2017-10-17T09:06:29Z</time>
      </trkpt>
      <trkpt lat="46.04268" lon="6.77646">
        <ele>929.73</ele>
        <time>2017-10-17T09:06:30Z</time>
      </trkpt>
      <trkpt lat="46.04269" lon="6.77651">
        <ele>930.69</ele>
        <time>2017-10-17T09:06:34Z</time>
      </trkpt>
      <trkpt lat="46.04273" lon="6.77666">
        <ele>934.06</ele>
        <time>2017-10-17T09:06:45Z</time>
      </trkpt>
      <trkpt lat="46.04278" lon="6.77675">
        <ele>936.46</ele>
        <time>2017-10-17T09:06:55Z</time>
      </trkpt>
      <trkpt lat="46.04279" lon="6.77676">
        <ele>936.94</ele>
        <time>2017-10-17T09:06:56Z</time>
      </trkpt>
      <trkpt lat="46.0428" lon="6.77676">
        <ele>937.42</ele>
        <time>2017-10-17T09:06:57Z</time>
      </trkpt>
      <trkpt lat="46.04281" lon="6.77676">
        <ele>937.42</ele>
        <time>2017-10-17T09:06:58Z</time>
      </trkpt>
      <trkpt lat="46.04282" lon="6.77677">
        <ele>937.9</ele>
        <time>2017-10-17T09:06:59Z</time>
      </trkpt>
      <trkpt lat="46.04283" lon="6.77678">
        <ele>937.9</ele>
        <time>2017-10-17T09:07:00Z</time>
      </trkpt>
      <trkpt lat="46.04284" lon="6.77679">
        <ele>938.38</ele>
        <time>2017-10-17T09:07:01Z</time>
      </trkpt>
      <trkpt lat="46.04285" lon="6.7768">
        <ele>938.86</ele>
        <time>2017-10-17T09:07:03Z</time>
      </trkpt>
      <trkpt lat="46.04286" lon="6.77682">
        <ele>938.86</ele>
        <time>2017-10-17T09:07:04Z</time>
      </trkpt>
      <trkpt lat="46.04287" lon="6.77684">
        <ele>939.35</ele>
        <time>2017-10-17T09:07:05Z</time>
      </trkpt>
      <trkpt lat="46.04288" lon="6.77685">
        <ele>939.83</ele>
        <time>2017-10-17T09:07:06Z</time>
      </trkpt>
      <trkpt lat="46.04289" lon="6.77687">
        <ele>939.83</ele>
        <time>2017-10-17T09:07:07Z</time>
      </trkpt>
      <trkpt lat="46.0429" lon="6.77688">
        <ele>939.83</ele>
        <time>2017-10-17T09:07:08Z</time>
      </trkpt>
      <trkpt lat="46.04293" lon="6.77694">
        <ele>940.79</ele>
        <time>2017-10-17T09:07:13Z</time>
      </trkpt>
      <trkpt lat="46.04294" lon="6.77695">
        <ele>941.27</ele>
        <time>2017-10-17T09:07:14Z</time>
      </trkpt>
      <trkpt lat="46.04295" lon="6.77697">
        <ele>941.75</ele>
        <time>2017-10-17T09:07:15Z</time>
      </trkpt>
      <trkpt lat="46.04298" lon="6.77702">
        <ele>942.71</ele>
        <time>2017-10-17T09:07:20Z</time>
      </trkpt>
      <trkpt lat="46.04298" lon="6.77704">
        <ele>943.19</ele>
        <time>2017-10-17T09:07:21Z</time>
      </trkpt>
      <trkpt lat="46.04299" lon="6.77705">
        <ele>943.19</ele>
        <time>2017-10-17T09:07:22Z</time>
      </trkpt>
      <trkpt lat="46.04301" lon="6.77707">
        <ele>943.67</ele>
        <time>2017-10-17T09:07:24Z</time>
      </trkpt>
      <trkpt lat="46.04303" lon="6.77709">
        <ele>944.15</ele>
        <time>2017-10-17T09:07:26Z</time>
      </trkpt>
      <trkpt lat="46.04303" lon="6.77711">
        <ele>944.63</ele>
        <time>2017-10-17T09:07:27Z</time>
      </trkpt>
      <trkpt lat="46.04307" lon="6.77728">
        <ele>946.56</ele>
        <time>2017-10-17T09:07:37Z</time>
      </trkpt>
      <trkpt lat="46.04308" lon="6.7773">
        <ele>947.04</ele>
        <time>2017-10-17T09:07:38Z</time>
      </trkpt>
      <trkpt lat="46.04308" lon="6.77732">
        <ele>947.04</ele>
        <time>2017-10-17T09:07:39Z</time>
      </trkpt>
      <trkpt lat="46.04309" lon="6.77734">
        <ele>948</ele>
        <time>2017-10-17T09:07:40Z</time>
      </trkpt>
      <trkpt lat="46.04309" lon="6.77736">
        <ele>948</ele>
        <time>2017-10-17T09:07:41Z</time>
      </trkpt>
      <trkpt lat="46.0431" lon="6.77738">
        <ele>948.48</ele>
        <time>2017-10-17T09:07:42Z</time>
      </trkpt>
      <trkpt lat="46.04311" lon="6.77739">
        <ele>948.96</ele>
        <time>2017-10-17T09:07:43Z</time>
      </trkpt>
      <trkpt lat="46.04315" lon="6.77746">
        <ele>948.96</ele>
        <time>2017-10-17T09:07:44Z</time>
      </trkpt>
      <trkpt lat="46.04315" lon="6.7775">
        <ele>949.44</ele>
        <time>2017-10-17T09:07:45Z</time>
      </trkpt>
      <trkpt lat="46.04317" lon="6.77752">
        <ele>949.44</ele>
        <time>2017-10-17T09:07:46Z</time>
      </trkpt>
      <trkpt lat="46.04318" lon="6.77754">
        <ele>949.92</ele>
        <time>2017-10-17T09:07:47Z</time>
      </trkpt>
      <trkpt lat="46.04319" lon="6.77756">
        <ele>950.4</ele>
        <time>2017-10-17T09:07:48Z</time>
      </trkpt>
      <trkpt lat="46.04321" lon="6.77758">
        <ele>950.4</ele>
        <time>2017-10-17T09:07:49Z</time>
      </trkpt>
      <trkpt lat="46.04323" lon="6.77762">
        <ele>950.88</ele>
        <time>2017-10-17T09:07:51Z</time>
      </trkpt>
      <trkpt lat="46.04324" lon="6.77766">
        <ele>951.36</ele>
        <time>2017-10-17T09:07:53Z</time>
      </trkpt>
      <trkpt lat="46.04324" lon="6.77769">
        <ele>951.84</ele>
        <time>2017-10-17T09:07:54Z</time>
      </trkpt>
      <trkpt lat="46.04323" lon="6.77784">
        <ele>955.21</ele>
        <time>2017-10-17T09:08:04Z</time>
      </trkpt>
      <trkpt lat="46.04322" lon="6.77804">
        <ele>958.09</ele>
        <time>2017-10-17T09:08:17Z</time>
      </trkpt>
      <trkpt lat="46.04318" lon="6.77824">
        <ele>960.98</ele>
        <time>2017-10-17T09:08:30Z</time>
      </trkpt>
      <trkpt lat="46.04317" lon="6.77843">
        <ele>964.34</ele>
        <time>2017-10-17T09:08:41Z</time>
      </trkpt>
      <trkpt lat="46.04318" lon="6.77858">
        <ele>967.7</ele>
        <time>2017-10-17T09:08:52Z</time>
      </trkpt>
      <trkpt lat="46.04319" lon="6.77872">
        <ele>970.59</ele>
        <time>2017-10-17T09:09:04Z</time>
      </trkpt>
      <trkpt lat="46.04324" lon="6.77885">
        <ele>973.95</ele>
        <time>2017-10-17T09:09:15Z</time>
      </trkpt>
      <trkpt lat="46.04321" lon="6.77894">
        <ele>976.36</ele>
        <time>2017-10-17T09:09:24Z</time>
      </trkpt>
      <trkpt lat="46.0432" lon="6.77896">
        <ele>976.36</ele>
        <time>2017-10-17T09:09:25Z</time>
      </trkpt>
      <trkpt lat="46.04317" lon="6.77915">
        <ele>979.24</ele>
        <time>2017-10-17T09:09:36Z</time>
      </trkpt>
      <trkpt lat="46.04317" lon="6.77918">
        <ele>979.72</ele>
        <time>2017-10-17T09:09:37Z</time>
      </trkpt>
      <trkpt lat="46.04317" lon="6.77931">
        <ele>981.64</ele>
        <time>2017-10-17T09:09:44Z</time>
      </trkpt>
      <trkpt lat="46.0432" lon="6.77938">
        <ele>983.09</ele>
        <time>2017-10-17T09:09:48Z</time>
      </trkpt>
      <trkpt lat="46.0432" lon="6.7794">
        <ele>983.57</ele>
        <time>2017-10-17T09:09:49Z</time>
      </trkpt>
      <trkpt lat="46.0432" lon="6.77941">
        <ele>984.05</ele>
        <time>2017-10-17T09:09:50Z</time>
      </trkpt>
      <trkpt lat="46.04321" lon="6.77943">
        <ele>984.53</ele>
        <time>2017-10-17T09:09:51Z</time>
      </trkpt>
      <trkpt lat="46.04321" lon="6.77945">
        <ele>985.01</ele>
        <time>2017-10-17T09:09:52Z</time>
      </trkpt>
      <trkpt lat="46.04321" lon="6.77947">
        <ele>985.01</ele>
        <time>2017-10-17T09:09:53Z</time>
      </trkpt>
      <trkpt lat="46.04321" lon="6.77949">
        <ele>985.01</ele>
        <time>2017-10-17T09:09:54Z</time>
      </trkpt>
      <trkpt lat="46.04321" lon="6.7795">
        <ele>985.49</ele>
        <time>2017-10-17T09:09:55Z</time>
      </trkpt>
      <trkpt lat="46.04322" lon="6.77952">
        <ele>985.97</ele>
        <time>2017-10-17T09:09:56Z</time>
      </trkpt>
      <trkpt lat="46.04322" lon="6.77956">
        <ele>986.45</ele>
        <time>2017-10-17T09:09:58Z</time>
      </trkpt>
      <trkpt lat="46.04322" lon="6.77958">
        <ele>986.45</ele>
        <time>2017-10-17T09:09:59Z</time>
      </trkpt>
      <trkpt lat="46.04323" lon="6.77962">
        <ele>986.93</ele>
        <time>2017-10-17T09:10:01Z</time>
      </trkpt>
      <trkpt lat="46.04323" lon="6.77964">
        <ele>987.41</ele>
        <time>2017-10-17T09:10:02Z</time>
      </trkpt>
      <trkpt lat="46.04324" lon="6.77966">
        <ele>987.89</ele>
        <time>2017-10-17T09:10:03Z</time>
      </trkpt>
      <trkpt lat="46.04325" lon="6.77971">
        <ele>988.37</ele>
        <time>2017-10-17T09:10:06Z</time>
      </trkpt>
      <trkpt lat="46.04326" lon="6.77973">
        <ele>988.85</ele>
        <time>2017-10-17T09:10:07Z</time>
      </trkpt>
      <trkpt lat="46.04326" lon="6.77975">
        <ele>988.85</ele>
        <time>2017-10-17T09:10:08Z</time>
      </trkpt>
      <trkpt lat="46.04326" lon="6.77977">
        <ele>988.85</ele>
        <time>2017-10-17T09:10:09Z</time>
      </trkpt>
      <trkpt lat="46.04326" lon="6.77979">
        <ele>989.33</ele>
        <time>2017-10-17T09:10:10Z</time>
      </trkpt>
      <trkpt lat="46.04326" lon="6.7798">
        <ele>989.81</ele>
        <time>2017-10-17T09:10:11Z</time>
      </trkpt>
      <trkpt lat="46.04326" lon="6.77982">
        <ele>989.81</ele>
        <time>2017-10-17T09:10:12Z</time>
      </trkpt>
      <trkpt lat="46.04327" lon="6.77983">
        <ele>990.3</ele>
        <time>2017-10-17T09:10:13Z</time>
      </trkpt>
      <trkpt lat="46.04327" lon="6.77985">
        <ele>990.3</ele>
        <time>2017-10-17T09:10:14Z</time>
      </trkpt>
      <trkpt lat="46.04327" lon="6.77987">
        <ele>990.78</ele>
        <time>2017-10-17T09:10:15Z</time>
      </trkpt>
      <trkpt lat="46.04328" lon="6.77989">
        <ele>990.78</ele>
        <time>2017-10-17T09:10:16Z</time>
      </trkpt>
      <trkpt lat="46.04328" lon="6.77991">
        <ele>991.26</ele>
        <time>2017-10-17T09:10:17Z</time>
      </trkpt>
      <trkpt lat="46.04328" lon="6.77992">
        <ele>991.26</ele>
        <time>2017-10-17T09:10:18Z</time>
      </trkpt>
      <trkpt lat="46.04329" lon="6.77994">
        <ele>991.74</ele>
        <time>2017-10-17T09:10:19Z</time>
      </trkpt>
      <trkpt lat="46.04329" lon="6.77996">
        <ele>992.22</ele>
        <time>2017-10-17T09:10:20Z</time>
      </trkpt>
      <trkpt lat="46.04329" lon="6.77998">
        <ele>992.22</ele>
        <time>2017-10-17T09:10:21Z</time>
      </trkpt>
      <trkpt lat="46.0433" lon="6.78">
        <ele>992.22</ele>
        <time>2017-10-17T09:10:22Z</time>
      </trkpt>
      <trkpt lat="46.0433" lon="6.78002">
        <ele>992.7</ele>
        <time>2017-10-17T09:10:23Z</time>
      </trkpt>
      <trkpt lat="46.04331" lon="6.78004">
        <ele>993.18</ele>
        <time>2017-10-17T09:10:24Z</time>
      </trkpt>
      <trkpt lat="46.04332" lon="6.78006">
        <ele>993.66</ele>
        <time>2017-10-17T09:10:25Z</time>
      </trkpt>
      <trkpt lat="46.04332" lon="6.78008">
        <ele>994.14</ele>
        <time>2017-10-17T09:10:26Z</time>
      </trkpt>
      <trkpt lat="46.04333" lon="6.78011">
        <ele>994.14</ele>
        <time>2017-10-17T09:10:27Z</time>
      </trkpt>
      <trkpt lat="46.04334" lon="6.78013">
        <ele>994.62</ele>
        <time>2017-10-17T09:10:28Z</time>
      </trkpt>
      <trkpt lat="46.04334" lon="6.78015">
        <ele>994.62</ele>
        <time>2017-10-17T09:10:29Z</time>
      </trkpt>
      <trkpt lat="46.04334" lon="6.78017">
        <ele>994.62</ele>
        <time>2017-10-17T09:10:30Z</time>
      </trkpt>
      <trkpt lat="46.04334" lon="6.78019">
        <ele>995.1</ele>
        <time>2017-10-17T09:10:31Z</time>
      </trkpt>
      <trkpt lat="46.04335" lon="6.78021">
        <ele>995.58</ele>
        <time>2017-10-17T09:10:32Z</time>
      </trkpt>
      <trkpt lat="46.04335" lon="6.78024">
        <ele>995.58</ele>
        <time>2017-10-17T09:10:33Z</time>
      </trkpt>
      <trkpt lat="46.04336" lon="6.78048">
        <ele>998.95</ele>
        <time>2017-10-17T09:10:45Z</time>
      </trkpt>
      <trkpt lat="46.04333" lon="6.78054">
        <ele>1000.39</ele>
        <time>2017-10-17T09:10:50Z</time>
      </trkpt>
      <trkpt lat="46.04332" lon="6.78055">
        <ele>1000.39</ele>
        <time>2017-10-17T09:10:51Z</time>
      </trkpt>
      <trkpt lat="46.04328" lon="6.78062">
        <ele>1001.83</ele>
        <time>2017-10-17T09:10:57Z</time>
      </trkpt>
      <trkpt lat="46.04328" lon="6.78063">
        <ele>1002.31</ele>
        <time>2017-10-17T09:10:58Z</time>
      </trkpt>
      <trkpt lat="46.04323" lon="6.78072">
        <ele>1005.68</ele>
        <time>2017-10-17T09:11:10Z</time>
      </trkpt>
      <trkpt lat="46.04324" lon="6.78073">
        <ele>1005.68</ele>
        <time>2017-10-17T09:11:11Z</time>
      </trkpt>
      <trkpt lat="46.04322" lon="6.78075">
        <ele>1006.64</ele>
        <time>2017-10-17T09:11:13Z</time>
      </trkpt>
      <trkpt lat="46.04322" lon="6.78076">
        <ele>1006.64</ele>
        <time>2017-10-17T09:11:14Z</time>
      </trkpt>
      <trkpt lat="46.04322" lon="6.78078">
        <ele>1007.12</ele>
        <time>2017-10-17T09:11:16Z</time>
      </trkpt>
      <trkpt lat="46.04323" lon="6.7808">
        <ele>1007.6</ele>
        <time>2017-10-17T09:11:17Z</time>
      </trkpt>
      <trkpt lat="46.04323" lon="6.78081">
        <ele>1008.08</ele>
        <time>2017-10-17T09:11:19Z</time>
      </trkpt>
      <trkpt lat="46.04322" lon="6.78083">
        <ele>1008.56</ele>
        <time>2017-10-17T09:11:21Z</time>
      </trkpt>
      <trkpt lat="46.04322" lon="6.78086">
        <ele>1010</ele>
        <time>2017-10-17T09:11:24Z</time>
      </trkpt>
      <trkpt lat="46.04323" lon="6.7809">
        <ele>1010.48</ele>
        <time>2017-10-17T09:11:27Z</time>
      </trkpt>
      <trkpt lat="46.04323" lon="6.78091">
        <ele>1010.96</ele>
        <time>2017-10-17T09:11:28Z</time>
      </trkpt>
      <trkpt lat="46.04323" lon="6.78097">
        <ele>1012.41</ele>
        <time>2017-10-17T09:11:34Z</time>
      </trkpt>
      <trkpt lat="46.04323" lon="6.78098">
        <ele>1012.41</ele>
        <time>2017-10-17T09:11:35Z</time>
      </trkpt>
      <trkpt lat="46.04323" lon="6.781">
        <ele>1012.89</ele>
        <time>2017-10-17T09:11:36Z</time>
      </trkpt>
      <trkpt lat="46.04322" lon="6.78104">
        <ele>1013.37</ele>
        <time>2017-10-17T09:11:39Z</time>
      </trkpt>
      <trkpt lat="46.04323" lon="6.78107">
        <ele>1014.33</ele>
        <time>2017-10-17T09:11:42Z</time>
      </trkpt>
      <trkpt lat="46.04323" lon="6.7811">
        <ele>1014.81</ele>
        <time>2017-10-17T09:11:44Z</time>
      </trkpt>
      <trkpt lat="46.04321" lon="6.78114">
        <ele>1015.77</ele>
        <time>2017-10-17T09:11:48Z</time>
      </trkpt>
      <trkpt lat="46.04322" lon="6.78115">
        <ele>1016.25</ele>
        <time>2017-10-17T09:11:49Z</time>
      </trkpt>
      <trkpt lat="46.04322" lon="6.78117">
        <ele>1016.25</ele>
        <time>2017-10-17T09:11:50Z</time>
      </trkpt>
      <trkpt lat="46.0432" lon="6.78119">
        <ele>1016.73</ele>
        <time>2017-10-17T09:11:52Z</time>
      </trkpt>
      <trkpt lat="46.04319" lon="6.7812">
        <ele>1017.21</ele>
        <time>2017-10-17T09:11:53Z</time>
      </trkpt>
      <trkpt lat="46.04319" lon="6.78126">
        <ele>1018.17</ele>
        <time>2017-10-17T09:11:57Z</time>
      </trkpt>
      <trkpt lat="46.0432" lon="6.78127">
        <ele>1018.17</ele>
        <time>2017-10-17T09:11:58Z</time>
      </trkpt>
      <trkpt lat="46.04324" lon="6.78144">
        <ele>1021.54</ele>
        <time>2017-10-17T09:12:13Z</time>
      </trkpt>
      <trkpt lat="46.04322" lon="6.78158">
        <ele>1024.42</ele>
        <time>2017-10-17T09:12:28Z</time>
      </trkpt>
      <trkpt lat="46.04322" lon="6.78173">
        <ele>1027.79</ele>
        <time>2017-10-17T09:12:40Z</time>
      </trkpt>
      <trkpt lat="46.0432" lon="6.78188">
        <ele>1031.15</ele>
        <time>2017-10-17T09:12:51Z</time>
      </trkpt>
      <trkpt lat="46.04319" lon="6.78198">
        <ele>1032.59</ele>
        <time>2017-10-17T09:12:57Z</time>
      </trkpt>
      <trkpt lat="46.0432" lon="6.78201">
        <ele>1033.07</ele>
        <time>2017-10-17T09:12:59Z</time>
      </trkpt>
      <trkpt lat="46.0432" lon="6.78203">
        <ele>1033.55</ele>
        <time>2017-10-17T09:13:00Z</time>
      </trkpt>
      <trkpt lat="46.0432" lon="6.78205">
        <ele>1034.04</ele>
        <time>2017-10-17T09:13:01Z</time>
      </trkpt>
      <trkpt lat="46.0432" lon="6.78206">
        <ele>1034.04</ele>
        <time>2017-10-17T09:13:02Z</time>
      </trkpt>
      <trkpt lat="46.0432" lon="6.78208">
        <ele>1034.04</ele>
        <time>2017-10-17T09:13:03Z</time>
      </trkpt>
      <trkpt lat="46.04319" lon="6.78209">
        <ele>1034.52</ele>
        <time>2017-10-17T09:13:04Z</time>
      </trkpt>
      <trkpt lat="46.0432" lon="6.78212">
        <ele>1035</ele>
        <time>2017-10-17T09:13:06Z</time>
      </trkpt>
      <trkpt lat="46.0432" lon="6.78214">
        <ele>1035</ele>
        <time>2017-10-17T09:13:07Z</time>
      </trkpt>
      <trkpt lat="46.0432" lon="6.78216">
        <ele>1035</ele>
        <time>2017-10-17T09:13:08Z</time>
      </trkpt>
      <trkpt lat="46.0432" lon="6.78217">
        <ele>1035.48</ele>
        <time>2017-10-17T09:13:09Z</time>
      </trkpt>
      <trkpt lat="46.04321" lon="6.7822">
        <ele>1035.96</ele>
        <time>2017-10-17T09:13:11Z</time>
      </trkpt>
      <trkpt lat="46.04322" lon="6.78222">
        <ele>1036.44</ele>
        <time>2017-10-17T09:13:12Z</time>
      </trkpt>
      <trkpt lat="46.04322" lon="6.78223">
        <ele>1036.44</ele>
        <time>2017-10-17T09:13:13Z</time>
      </trkpt>
      <trkpt lat="46.04322" lon="6.78235">
        <ele>1038.36</ele>
        <time>2017-10-17T09:13:21Z</time>
      </trkpt>
      <trkpt lat="46.04322" lon="6.78236">
        <ele>1038.84</ele>
        <time>2017-10-17T09:13:22Z</time>
      </trkpt>
      <trkpt lat="46.04322" lon="6.78237">
        <ele>1039.32</ele>
        <time>2017-10-17T09:13:23Z</time>
      </trkpt>
      <trkpt lat="46.04322" lon="6.78239">
        <ele>1039.32</ele>
        <time>2017-10-17T09:13:24Z</time>
      </trkpt>
      <trkpt lat="46.04322" lon="6.7824">
        <ele>1039.8</ele>
        <time>2017-10-17T09:13:25Z</time>
      </trkpt>
      <trkpt lat="46.04321" lon="6.78246">
        <ele>1041.25</ele>
        <time>2017-10-17T09:13:31Z</time>
      </trkpt>
      <trkpt lat="46.04319" lon="6.78247">
        <ele>1041.73</ele>
        <time>2017-10-17T09:13:32Z</time>
      </trkpt>
      <trkpt lat="46.04318" lon="6.78251">
        <ele>1042.69</ele>
        <time>2017-10-17T09:13:36Z</time>
      </trkpt>
      <trkpt lat="46.04315" lon="6.78252">
        <ele>1042.69</ele>
        <time>2017-10-17T09:13:37Z</time>
      </trkpt>
      <trkpt lat="46.04314" lon="6.78252">
        <ele>1043.17</ele>
        <time>2017-10-17T09:13:38Z</time>
      </trkpt>
      <trkpt lat="46.04313" lon="6.78256">
        <ele>1044.61</ele>
        <time>2017-10-17T09:13:43Z</time>
      </trkpt>
      <trkpt lat="46.04313" lon="6.78259">
        <ele>1045.09</ele>
        <time>2017-10-17T09:13:45Z</time>
      </trkpt>
      <trkpt lat="46.04312" lon="6.78264">
        <ele>1046.53</ele>
        <time>2017-10-17T09:13:50Z</time>
      </trkpt>
      <trkpt lat="46.04311" lon="6.78271">
        <ele>1047.97</ele>
        <time>2017-10-17T09:13:57Z</time>
      </trkpt>
      <trkpt lat="46.04312" lon="6.78273">
        <ele>1048.45</ele>
        <time>2017-10-17T09:13:58Z</time>
      </trkpt>
      <trkpt lat="46.04312" lon="6.78275">
        <ele>1048.94</ele>
        <time>2017-10-17T09:14:00Z</time>
      </trkpt>
      <trkpt lat="46.04313" lon="6.78279">
        <ele>1049.42</ele>
        <time>2017-10-17T09:14:02Z</time>
      </trkpt>
      <trkpt lat="46.04314" lon="6.7828">
        <ele>1049.9</ele>
        <time>2017-10-17T09:14:03Z</time>
      </trkpt>
      <trkpt lat="46.04314" lon="6.78282">
        <ele>1049.9</ele>
        <time>2017-10-17T09:14:04Z</time>
      </trkpt>
      <trkpt lat="46.04314" lon="6.78283">
        <ele>1050.38</ele>
        <time>2017-10-17T09:14:05Z</time>
      </trkpt>
      <trkpt lat="46.04315" lon="6.78285">
        <ele>1050.86</ele>
        <time>2017-10-17T09:14:08Z</time>
      </trkpt>
      <trkpt lat="46.04314" lon="6.78288">
        <ele>1051.82</ele>
        <time>2017-10-17T09:14:10Z</time>
      </trkpt>
      <trkpt lat="46.04313" lon="6.78293">
        <ele>1052.78</ele>
        <time>2017-10-17T09:14:15Z</time>
      </trkpt>
      <trkpt lat="46.04313" lon="6.78294">
        <ele>1053.26</ele>
        <time>2017-10-17T09:14:16Z</time>
      </trkpt>
      <trkpt lat="46.04309" lon="6.783">
        <ele>1055.18</ele>
        <time>2017-10-17T09:14:23Z</time>
      </trkpt>
      <trkpt lat="46.04304" lon="6.78308">
        <ele>1057.11</ele>
        <time>2017-10-17T09:14:31Z</time>
      </trkpt>
      <trkpt lat="46.04303" lon="6.7831">
        <ele>1057.11</ele>
        <time>2017-10-17T09:14:32Z</time>
      </trkpt>
      <trkpt lat="46.04302" lon="6.78311">
        <ele>1057.59</ele>
        <time>2017-10-17T09:14:33Z</time>
      </trkpt>
      <trkpt lat="46.043" lon="6.78312">
        <ele>1058.07</ele>
        <time>2017-10-17T09:14:35Z</time>
      </trkpt>
      <trkpt lat="46.04298" lon="6.78312">
        <ele>1058.07</ele>
        <time>2017-10-17T09:14:36Z</time>
      </trkpt>
      <trkpt lat="46.04297" lon="6.78314">
        <ele>1058.55</ele>
        <time>2017-10-17T09:14:38Z</time>
      </trkpt>
      <trkpt lat="46.04295" lon="6.78318">
        <ele>1059.51</ele>
        <time>2017-10-17T09:14:41Z</time>
      </trkpt>
      <trkpt lat="46.04293" lon="6.7832">
        <ele>1059.99</ele>
        <time>2017-10-17T09:14:43Z</time>
      </trkpt>
      <trkpt lat="46.04293" lon="6.78322">
        <ele>1059.99</ele>
        <time>2017-10-17T09:14:44Z</time>
      </trkpt>
      <trkpt lat="46.04294" lon="6.78324">
        <ele>1060.95</ele>
        <time>2017-10-17T09:14:47Z</time>
      </trkpt>
      <trkpt lat="46.04297" lon="6.78327">
        <ele>1061.43</ele>
        <time>2017-10-17T09:14:49Z</time>
      </trkpt>
      <trkpt lat="46.04297" lon="6.78329">
        <ele>1061.91</ele>
        <time>2017-10-17T09:14:50Z</time>
      </trkpt>
      <trkpt lat="46.04297" lon="6.7833">
        <ele>1062.39</ele>
        <time>2017-10-17T09:14:51Z</time>
      </trkpt>
      <trkpt lat="46.04293" lon="6.78334">
        <ele>1063.36</ele>
        <time>2017-10-17T09:14:57Z</time>
      </trkpt>
      <trkpt lat="46.04294" lon="6.78337">
        <ele>1064.32</ele>
        <time>2017-10-17T09:15:00Z</time>
      </trkpt>
      <trkpt lat="46.04293" lon="6.7834">
        <ele>1064.8</ele>
        <time>2017-10-17T09:15:02Z</time>
      </trkpt>
      <trkpt lat="46.04294" lon="6.78342">
        <ele>1066.72</ele>
        <time>2017-10-17T09:15:10Z</time>
      </trkpt>
      <trkpt lat="46.04297" lon="6.78343">
        <ele>1067.68</ele>
        <time>2017-10-17T09:15:13Z</time>
      </trkpt>
      <trkpt lat="46.04313" lon="6.78334">
        <ele>1069.6</ele>
        <time>2017-10-17T09:15:46Z</time>
      </trkpt>
      <trkpt lat="46.04309" lon="6.78329">
        <ele>1069.6</ele>
        <time>2017-10-17T09:15:53Z</time>
      </trkpt>
      <trkpt lat="46.04312" lon="6.78331">
        <ele>1070.57</ele>
        <time>2017-10-17T09:16:00Z</time>
      </trkpt>
      <trkpt lat="46.0431" lon="6.78332">
        <ele>1070.57</ele>
        <time>2017-10-17T09:16:01Z</time>
      </trkpt>
      <trkpt lat="46.04307" lon="6.78334">
        <ele>1070.57</ele>
        <time>2017-10-17T09:16:02Z</time>
      </trkpt>
      <trkpt lat="46.04306" lon="6.78336">
        <ele>1070.57</ele>
        <time>2017-10-17T09:16:03Z</time>
      </trkpt>
      <trkpt lat="46.04305" lon="6.78338">
        <ele>1071.05</ele>
        <time>2017-10-17T09:16:04Z</time>
      </trkpt>
      <trkpt lat="46.04304" lon="6.78341">
        <ele>1071.53</ele>
        <time>2017-10-17T09:16:05Z</time>
      </trkpt>
      <trkpt lat="46.043" lon="6.78343">
        <ele>1071.53</ele>
        <time>2017-10-17T09:16:07Z</time>
      </trkpt>
      <trkpt lat="46.04298" lon="6.78344">
        <ele>1072.01</ele>
        <time>2017-10-17T09:16:08Z</time>
      </trkpt>
      <trkpt lat="46.04298" lon="6.78346">
        <ele>1072.01</ele>
        <time>2017-10-17T09:16:09Z</time>
      </trkpt>
      <trkpt lat="46.04297" lon="6.78349">
        <ele>1072.49</ele>
        <time>2017-10-17T09:16:10Z</time>
      </trkpt>
      <trkpt lat="46.04296" lon="6.7835">
        <ele>1072.49</ele>
        <time>2017-10-17T09:16:11Z</time>
      </trkpt>
      <trkpt lat="46.04295" lon="6.78352">
        <ele>1072.97</ele>
        <time>2017-10-17T09:16:12Z</time>
      </trkpt>
      <trkpt lat="46.04295" lon="6.78354">
        <ele>1072.97</ele>
        <time>2017-10-17T09:16:13Z</time>
      </trkpt>
      <trkpt lat="46.04293" lon="6.7836">
        <ele>1073.93</ele>
        <time>2017-10-17T09:16:16Z</time>
      </trkpt>
      <trkpt lat="46.04292" lon="6.78363">
        <ele>1074.41</ele>
        <time>2017-10-17T09:16:17Z</time>
      </trkpt>
      <trkpt lat="46.04289" lon="6.78375">
        <ele>1075.85</ele>
        <time>2017-10-17T09:16:24Z</time>
      </trkpt>
      <trkpt lat="46.04289" lon="6.78376">
        <ele>1075.85</ele>
        <time>2017-10-17T09:16:25Z</time>
      </trkpt>
      <trkpt lat="46.04289" lon="6.78378">
        <ele>1076.33</ele>
        <time>2017-10-17T09:16:26Z</time>
      </trkpt>
      <trkpt lat="46.0429" lon="6.78379">
        <ele>1077.29</ele>
        <time>2017-10-17T09:16:30Z</time>
      </trkpt>
      <trkpt lat="46.04293" lon="6.78384">
        <ele>1079.22</ele>
        <time>2017-10-17T09:16:38Z</time>
      </trkpt>
      <trkpt lat="46.04292" lon="6.78385">
        <ele>1079.22</ele>
        <time>2017-10-17T09:16:39Z</time>
      </trkpt>
      <trkpt lat="46.04296" lon="6.78384">
        <ele>1081.14</ele>
        <time>2017-10-17T09:16:45Z</time>
      </trkpt>
      <trkpt lat="46.04296" lon="6.78382">
        <ele>1081.14</ele>
        <time>2017-10-17T09:16:46Z</time>
      </trkpt>
      <trkpt lat="46.04303" lon="6.78366">
        <ele>1084.02</ele>
        <time>2017-10-17T09:16:58Z</time>
      </trkpt>
      <trkpt lat="46.04311" lon="6.78358">
        <ele>1087.39</ele>
        <time>2017-10-17T09:17:09Z</time>
      </trkpt>
      <trkpt lat="46.04312" lon="6.7837">
        <ele>1089.79</ele>
        <time>2017-10-17T09:17:18Z</time>
      </trkpt>
      <trkpt lat="46.04307" lon="6.78394">
        <ele>1093.16</ele>
        <time>2017-10-17T09:17:32Z</time>
      </trkpt>
      <trkpt lat="46.043" lon="6.78409">
        <ele>1095.08</ele>
        <time>2017-10-17T09:17:40Z</time>
      </trkpt>
      <trkpt lat="46.043" lon="6.78412">
        <ele>1095.56</ele>
        <time>2017-10-17T09:17:41Z</time>
      </trkpt>
      <trkpt lat="46.04299" lon="6.78415">
        <ele>1095.56</ele>
        <time>2017-10-17T09:17:42Z</time>
      </trkpt>
      <trkpt lat="46.04298" lon="6.78418">
        <ele>1096.04</ele>
        <time>2017-10-17T09:17:43Z</time>
      </trkpt>
      <trkpt lat="46.04297" lon="6.7842">
        <ele>1096.04</ele>
        <time>2017-10-17T09:17:44Z</time>
      </trkpt>
      <trkpt lat="46.04294" lon="6.78435">
        <ele>1097.96</ele>
        <time>2017-10-17T09:17:51Z</time>
      </trkpt>
      <trkpt lat="46.04293" lon="6.78437">
        <ele>1097.96</ele>
        <time>2017-10-17T09:17:52Z</time>
      </trkpt>
      <trkpt lat="46.04293" lon="6.7844">
        <ele>1098.44</ele>
        <time>2017-10-17T09:17:53Z</time>
      </trkpt>
      <trkpt lat="46.04293" lon="6.78442">
        <ele>1098.44</ele>
        <time>2017-10-17T09:17:54Z</time>
      </trkpt>
      <trkpt lat="46.04292" lon="6.78444">
        <ele>1098.44</ele>
        <time>2017-10-17T09:17:55Z</time>
      </trkpt>
      <trkpt lat="46.04291" lon="6.78445">
        <ele>1098.92</ele>
        <time>2017-10-17T09:17:56Z</time>
      </trkpt>
      <trkpt lat="46.04289" lon="6.78456">
        <ele>1099.89</ele>
        <time>2017-10-17T09:18:01Z</time>
      </trkpt>
      <trkpt lat="46.04288" lon="6.78458">
        <ele>1100.37</ele>
        <time>2017-10-17T09:18:02Z</time>
      </trkpt>
      <trkpt lat="46.04283" lon="6.78473">
        <ele>1101.81</ele>
        <time>2017-10-17T09:18:10Z</time>
      </trkpt>
      <trkpt lat="46.04281" lon="6.78474">
        <ele>1102.29</ele>
        <time>2017-10-17T09:18:11Z</time>
      </trkpt>
      <trkpt lat="46.04281" lon="6.78476">
        <ele>1102.29</ele>
        <time>2017-10-17T09:18:12Z</time>
      </trkpt>
      <trkpt lat="46.0428" lon="6.78477">
        <ele>1102.77</ele>
        <time>2017-10-17T09:18:13Z</time>
      </trkpt>
      <trkpt lat="46.04279" lon="6.78479">
        <ele>1102.77</ele>
        <time>2017-10-17T09:18:14Z</time>
      </trkpt>
      <trkpt lat="46.04277" lon="6.78483">
        <ele>1103.25</ele>
        <time>2017-10-17T09:18:16Z</time>
      </trkpt>
      <trkpt lat="46.04276" lon="6.78484">
        <ele>1103.73</ele>
        <time>2017-10-17T09:18:17Z</time>
      </trkpt>
      <trkpt lat="46.04275" lon="6.78486">
        <ele>1103.73</ele>
        <time>2017-10-17T09:18:18Z</time>
      </trkpt>
      <trkpt lat="46.04272" lon="6.78492">
        <ele>1104.21</ele>
        <time>2017-10-17T09:18:21Z</time>
      </trkpt>
      <trkpt lat="46.04264" lon="6.78502">
        <ele>1105.65</ele>
        <time>2017-10-17T09:18:27Z</time>
      </trkpt>
      <trkpt lat="46.04263" lon="6.78503">
        <ele>1106.13</ele>
        <time>2017-10-17T09:18:28Z</time>
      </trkpt>
      <trkpt lat="46.04262" lon="6.78505">
        <ele>1106.13</ele>
        <time>2017-10-17T09:18:29Z</time>
      </trkpt>
      <trkpt lat="46.04261" lon="6.78507">
        <ele>1106.61</ele>
        <time>2017-10-17T09:18:30Z</time>
      </trkpt>
      <trkpt lat="46.04261" lon="6.78507">
        <ele>1107.58</ele>
        <time>2017-10-17T09:18:34Z</time>
      </trkpt>
      <trkpt lat="46.04263" lon="6.78507">
        <ele>1108.06</ele>
        <time>2017-10-17T09:18:35Z</time>
      </trkpt>
      <trkpt lat="46.04264" lon="6.78506">
        <ele>1108.06</ele>
        <time>2017-10-17T09:18:36Z</time>
      </trkpt>
      <trkpt lat="46.04264" lon="6.78505">
        <ele>1108.06</ele>
        <time>2017-10-17T09:18:37Z</time>
      </trkpt>
      <trkpt lat="46.04265" lon="6.78503">
        <ele>1108.54</ele>
        <time>2017-10-17T09:18:38Z</time>
      </trkpt>
      <trkpt lat="46.04267" lon="6.78494">
        <ele>1109.5</ele>
        <time>2017-10-17T09:18:42Z</time>
      </trkpt>
      <trkpt lat="46.04266" lon="6.78489">
        <ele>1109.98</ele>
        <time>2017-10-17T09:18:44Z</time>
      </trkpt>
      <trkpt lat="46.04267" lon="6.78487">
        <ele>1109.98</ele>
        <time>2017-10-17T09:18:45Z</time>
      </trkpt>
      <trkpt lat="46.04266" lon="6.78484">
        <ele>1109.98</ele>
        <time>2017-10-17T09:18:46Z</time>
      </trkpt>
      <trkpt lat="46.04266" lon="6.78481">
        <ele>1110.46</ele>
        <time>2017-10-17T09:18:47Z</time>
      </trkpt>
      <trkpt lat="46.04265" lon="6.78478">
        <ele>1110.46</ele>
        <time>2017-10-17T09:18:48Z</time>
      </trkpt>
      <trkpt lat="46.04266" lon="6.78477">
        <ele>1110.46</ele>
        <time>2017-10-17T09:18:49Z</time>
      </trkpt>
      <trkpt lat="46.04268" lon="6.78476">
        <ele>1110.94</ele>
        <time>2017-10-17T09:18:50Z</time>
      </trkpt>
      <trkpt lat="46.04269" lon="6.78475">
        <ele>1111.42</ele>
        <time>2017-10-17T09:18:51Z</time>
      </trkpt>
      <trkpt lat="46.0427" lon="6.78473">
        <ele>1111.9</ele>
        <time>2017-10-17T09:18:52Z</time>
      </trkpt>
      <trkpt lat="46.0427" lon="6.78471">
        <ele>1111.9</ele>
        <time>2017-10-17T09:18:53Z</time>
      </trkpt>
      <trkpt lat="46.04272" lon="6.7847">
        <ele>1111.9</ele>
        <time>2017-10-17T09:18:54Z</time>
      </trkpt>
      <trkpt lat="46.04274" lon="6.78468">
        <ele>1111.9</ele>
        <time>2017-10-17T09:18:55Z</time>
      </trkpt>
      <trkpt lat="46.04276" lon="6.78467">
        <ele>1111.9</ele>
        <time>2017-10-17T09:18:56Z</time>
      </trkpt>
      <trkpt lat="46.04277" lon="6.78465">
        <ele>1112.38</ele>
        <time>2017-10-17T09:18:57Z</time>
      </trkpt>
      <trkpt lat="46.04278" lon="6.78463">
        <ele>1112.38</ele>
        <time>2017-10-17T09:18:58Z</time>
      </trkpt>
      <trkpt lat="46.0428" lon="6.78462">
        <ele>1112.38</ele>
        <time>2017-10-17T09:18:59Z</time>
      </trkpt>
      <trkpt lat="46.04282" lon="6.7846">
        <ele>1112.86</ele>
        <time>2017-10-17T09:19:00Z</time>
      </trkpt>
      <trkpt lat="46.04283" lon="6.78459">
        <ele>1112.86</ele>
        <time>2017-10-17T09:19:01Z</time>
      </trkpt>
      <trkpt lat="46.04285" lon="6.78458">
        <ele>1112.86</ele>
        <time>2017-10-17T09:19:02Z</time>
      </trkpt>
      <trkpt lat="46.04286" lon="6.78457">
        <ele>1113.34</ele>
        <time>2017-10-17T09:19:03Z</time>
      </trkpt>
      <trkpt lat="46.04287" lon="6.78456">
        <ele>1113.82</ele>
        <time>2017-10-17T09:19:04Z</time>
      </trkpt>
      <trkpt lat="46.04288" lon="6.78455">
        <ele>1113.82</ele>
        <time>2017-10-17T09:19:05Z</time>
      </trkpt>
      <trkpt lat="46.04289" lon="6.78453">
        <ele>1113.82</ele>
        <time>2017-10-17T09:19:06Z</time>
      </trkpt>
      <trkpt lat="46.04302" lon="6.78434">
        <ele>1116.23</ele>
        <time>2017-10-17T09:19:19Z</time>
      </trkpt>
      <trkpt lat="46.04305" lon="6.7843">
        <ele>1117.19</ele>
        <time>2017-10-17T09:19:22Z</time>
      </trkpt>
      <trkpt lat="46.04306" lon="6.78428">
        <ele>1117.19</ele>
        <time>2017-10-17T09:19:23Z</time>
      </trkpt>
      <trkpt lat="46.04313" lon="6.78424">
        <ele>1118.63</ele>
        <time>2017-10-17T09:19:30Z</time>
      </trkpt>
      <trkpt lat="46.04312" lon="6.78425">
        <ele>1118.63</ele>
        <time>2017-10-17T09:19:31Z</time>
      </trkpt>
      <trkpt lat="46.04304" lon="6.78441">
        <ele>1120.07</ele>
        <time>2017-10-17T09:19:40Z</time>
      </trkpt>
      <trkpt lat="46.04303" lon="6.78444">
        <ele>1120.55</ele>
        <time>2017-10-17T09:19:41Z</time>
      </trkpt>
      <trkpt lat="46.04303" lon="6.78447">
        <ele>1121.03</ele>
        <time>2017-10-17T09:19:43Z</time>
      </trkpt>
      <trkpt lat="46.04302" lon="6.78449">
        <ele>1121.03</ele>
        <time>2017-10-17T09:19:44Z</time>
      </trkpt>
      <trkpt lat="46.04302" lon="6.78452">
        <ele>1121.52</ele>
        <time>2017-10-17T09:19:45Z</time>
      </trkpt>
      <trkpt lat="46.04301" lon="6.78453">
        <ele>1121.52</ele>
        <time>2017-10-17T09:19:46Z</time>
      </trkpt>
      <trkpt lat="46.04301" lon="6.78455">
        <ele>1122</ele>
        <time>2017-10-17T09:19:47Z</time>
      </trkpt>
      <trkpt lat="46.043" lon="6.78457">
        <ele>1122</ele>
        <time>2017-10-17T09:19:48Z</time>
      </trkpt>
      <trkpt lat="46.04296" lon="6.78479">
        <ele>1125.36</ele>
        <time>2017-10-17T09:19:58Z</time>
      </trkpt>
      <trkpt lat="46.0429" lon="6.78496">
        <ele>1127.28</ele>
        <time>2017-10-17T09:20:08Z</time>
      </trkpt>
      <trkpt lat="46.0429" lon="6.78498">
        <ele>1127.76</ele>
        <time>2017-10-17T09:20:09Z</time>
      </trkpt>
      <trkpt lat="46.04289" lon="6.78499">
        <ele>1127.76</ele>
        <time>2017-10-17T09:20:10Z</time>
      </trkpt>
      <trkpt lat="46.04289" lon="6.78501">
        <ele>1127.76</ele>
        <time>2017-10-17T09:20:11Z</time>
      </trkpt>
      <trkpt lat="46.04288" lon="6.78502">
        <ele>1128.24</ele>
        <time>2017-10-17T09:20:12Z</time>
      </trkpt>
      <trkpt lat="46.04288" lon="6.78504">
        <ele>1128.24</ele>
        <time>2017-10-17T09:20:13Z</time>
      </trkpt>
      <trkpt lat="46.04282" lon="6.78517">
        <ele>1130.17</ele>
        <time>2017-10-17T09:20:20Z</time>
      </trkpt>
      <trkpt lat="46.0428" lon="6.78518">
        <ele>1130.17</ele>
        <time>2017-10-17T09:20:21Z</time>
      </trkpt>
      <trkpt lat="46.04274" lon="6.78524">
        <ele>1131.13</ele>
        <time>2017-10-17T09:20:25Z</time>
      </trkpt>
      <trkpt lat="46.04273" lon="6.78525">
        <ele>1131.61</ele>
        <time>2017-10-17T09:20:26Z</time>
      </trkpt>
      <trkpt lat="46.04272" lon="6.78526">
        <ele>1131.61</ele>
        <time>2017-10-17T09:20:27Z</time>
      </trkpt>
      <trkpt lat="46.04271" lon="6.78528">
        <ele>1131.61</ele>
        <time>2017-10-17T09:20:29Z</time>
      </trkpt>
      <trkpt lat="46.04271" lon="6.7853">
        <ele>1132.09</ele>
        <time>2017-10-17T09:20:30Z</time>
      </trkpt>
      <trkpt lat="46.0427" lon="6.78531">
        <ele>1132.09</ele>
        <time>2017-10-17T09:20:31Z</time>
      </trkpt>
      <trkpt lat="46.0427" lon="6.78534">
        <ele>1132.57</ele>
        <time>2017-10-17T09:20:32Z</time>
      </trkpt>
      <trkpt lat="46.04269" lon="6.78535">
        <ele>1132.57</ele>
        <time>2017-10-17T09:20:33Z</time>
      </trkpt>
      <trkpt lat="46.04268" lon="6.78538">
        <ele>1133.05</ele>
        <time>2017-10-17T09:20:34Z</time>
      </trkpt>
      <trkpt lat="46.04261" lon="6.78551">
        <ele>1134.01</ele>
        <time>2017-10-17T09:20:41Z</time>
      </trkpt>
      <trkpt lat="46.0426" lon="6.78553">
        <ele>1134.49</ele>
        <time>2017-10-17T09:20:42Z</time>
      </trkpt>
      <trkpt lat="46.04261" lon="6.78557">
        <ele>1134.97</ele>
        <time>2017-10-17T09:20:43Z</time>
      </trkpt>
      <trkpt lat="46.04261" lon="6.78559">
        <ele>1134.97</ele>
        <time>2017-10-17T09:20:44Z</time>
      </trkpt>
      <trkpt lat="46.04262" lon="6.78563">
        <ele>1135.45</ele>
        <time>2017-10-17T09:20:46Z</time>
      </trkpt>
      <trkpt lat="46.04263" lon="6.78565">
        <ele>1135.94</ele>
        <time>2017-10-17T09:20:48Z</time>
      </trkpt>
      <trkpt lat="46.04266" lon="6.78566">
        <ele>1136.42</ele>
        <time>2017-10-17T09:20:50Z</time>
      </trkpt>
      <trkpt lat="46.04267" lon="6.78566">
        <ele>1136.9</ele>
        <time>2017-10-17T09:20:51Z</time>
      </trkpt>
      <trkpt lat="46.04268" lon="6.78566">
        <ele>1136.9</ele>
        <time>2017-10-17T09:20:52Z</time>
      </trkpt>
      <trkpt lat="46.04269" lon="6.78565">
        <ele>1137.38</ele>
        <time>2017-10-17T09:20:53Z</time>
      </trkpt>
      <trkpt lat="46.04271" lon="6.78564">
        <ele>1137.38</ele>
        <time>2017-10-17T09:20:54Z</time>
      </trkpt>
      <trkpt lat="46.04272" lon="6.78563">
        <ele>1137.86</ele>
        <time>2017-10-17T09:20:55Z</time>
      </trkpt>
      <trkpt lat="46.04273" lon="6.78561">
        <ele>1138.34</ele>
        <time>2017-10-17T09:20:56Z</time>
      </trkpt>
      <trkpt lat="46.04283" lon="6.78552">
        <ele>1139.3</ele>
        <time>2017-10-17T09:21:03Z</time>
      </trkpt>
      <trkpt lat="46.04284" lon="6.78545">
        <ele>1140.26</ele>
        <time>2017-10-17T09:21:07Z</time>
      </trkpt>
      <trkpt lat="46.04285" lon="6.78543">
        <ele>1140.74</ele>
        <time>2017-10-17T09:21:08Z</time>
      </trkpt>
      <trkpt lat="46.04286" lon="6.78542">
        <ele>1141.22</ele>
        <time>2017-10-17T09:21:09Z</time>
      </trkpt>
      <trkpt lat="46.04286" lon="6.78541">
        <ele>1141.22</ele>
        <time>2017-10-17T09:21:10Z</time>
      </trkpt>
      <trkpt lat="46.04287" lon="6.7854">
        <ele>1141.22</ele>
        <time>2017-10-17T09:21:11Z</time>
      </trkpt>
      <trkpt lat="46.04288" lon="6.78538">
        <ele>1141.22</ele>
        <time>2017-10-17T09:21:12Z</time>
      </trkpt>
      <trkpt lat="46.04289" lon="6.78537">
        <ele>1141.22</ele>
        <time>2017-10-17T09:21:13Z</time>
      </trkpt>
      <trkpt lat="46.0429" lon="6.78536">
        <ele>1141.22</ele>
        <time>2017-10-17T09:21:14Z</time>
      </trkpt>
      <trkpt lat="46.04291" lon="6.78535">
        <ele>1141.7</ele>
        <time>2017-10-17T09:21:15Z</time>
      </trkpt>
      <trkpt lat="46.04292" lon="6.78535">
        <ele>1141.7</ele>
        <time>2017-10-17T09:21:16Z</time>
      </trkpt>
      <trkpt lat="46.04291" lon="6.78536">
        <ele>1142.18</ele>
        <time>2017-10-17T09:21:18Z</time>
      </trkpt>
      <trkpt lat="46.04291" lon="6.78537">
        <ele>1142.66</ele>
        <time>2017-10-17T09:21:19Z</time>
      </trkpt>
      <trkpt lat="46.04291" lon="6.78538">
        <ele>1142.66</ele>
        <time>2017-10-17T09:21:20Z</time>
      </trkpt>
      <trkpt lat="46.0429" lon="6.78541">
        <ele>1142.66</ele>
        <time>2017-10-17T09:21:21Z</time>
      </trkpt>
      <trkpt lat="46.0429" lon="6.78542">
        <ele>1143.14</ele>
        <time>2017-10-17T09:21:22Z</time>
      </trkpt>
      <trkpt lat="46.04288" lon="6.78549">
        <ele>1144.11</ele>
        <time>2017-10-17T09:21:26Z</time>
      </trkpt>
      <trkpt lat="46.04287" lon="6.78551">
        <ele>1144.11</ele>
        <time>2017-10-17T09:21:27Z</time>
      </trkpt>
      <trkpt lat="46.04287" lon="6.78552">
        <ele>1144.11</ele>
        <time>2017-10-17T09:21:28Z</time>
      </trkpt>
      <trkpt lat="46.04286" lon="6.78553">
        <ele>1144.59</ele>
        <time>2017-10-17T09:21:29Z</time>
      </trkpt>
      <trkpt lat="46.04285" lon="6.78555">
        <ele>1145.07</ele>
        <time>2017-10-17T09:21:30Z</time>
      </trkpt>
      <trkpt lat="46.04285" lon="6.78556">
        <ele>1145.55</ele>
        <time>2017-10-17T09:21:31Z</time>
      </trkpt>
      <trkpt lat="46.04285" lon="6.78558">
        <ele>1145.55</ele>
        <time>2017-10-17T09:21:32Z</time>
      </trkpt>
      <trkpt lat="46.04284" lon="6.78559">
        <ele>1146.03</ele>
        <time>2017-10-17T09:21:33Z</time>
      </trkpt>
      <trkpt lat="46.04284" lon="6.78562">
        <ele>1146.51</ele>
        <time>2017-10-17T09:21:34Z</time>
      </trkpt>
      <trkpt lat="46.04281" lon="6.78576">
        <ele>1148.43</ele>
        <time>2017-10-17T09:21:42Z</time>
      </trkpt>
      <trkpt lat="46.04281" lon="6.78577">
        <ele>1148.43</ele>
        <time>2017-10-17T09:21:43Z</time>
      </trkpt>
      <trkpt lat="46.04281" lon="6.78579">
        <ele>1148.43</ele>
        <time>2017-10-17T09:21:44Z</time>
      </trkpt>
      <trkpt lat="46.04279" lon="6.78581">
        <ele>1148.91</ele>
        <time>2017-10-17T09:21:45Z</time>
      </trkpt>
      <trkpt lat="46.04279" lon="6.78583">
        <ele>1148.91</ele>
        <time>2017-10-17T09:21:46Z</time>
      </trkpt>
      <trkpt lat="46.04278" lon="6.78585">
        <ele>1149.39</ele>
        <time>2017-10-17T09:21:47Z</time>
      </trkpt>
      <trkpt lat="46.04279" lon="6.78586">
        <ele>1149.39</ele>
        <time>2017-10-17T09:21:48Z</time>
      </trkpt>
      <trkpt lat="46.04279" lon="6.78588">
        <ele>1149.87</ele>
        <time>2017-10-17T09:21:49Z</time>
      </trkpt>
      <trkpt lat="46.04282" lon="6.78591">
        <ele>1150.35</ele>
        <time>2017-10-17T09:21:50Z</time>
      </trkpt>
      <trkpt lat="46.04283" lon="6.78593">
        <ele>1150.84</ele>
        <time>2017-10-17T09:21:51Z</time>
      </trkpt>
      <trkpt lat="46.04283" lon="6.78594">
        <ele>1150.84</ele>
        <time>2017-10-17T09:21:52Z</time>
      </trkpt>
      <trkpt lat="46.04283" lon="6.78596">
        <ele>1150.84</ele>
        <time>2017-10-17T09:21:53Z</time>
      </trkpt>
      <trkpt lat="46.04282" lon="6.78598">
        <ele>1151.32</ele>
        <time>2017-10-17T09:21:54Z</time>
      </trkpt>
      <trkpt lat="46.04282" lon="6.786">
        <ele>1151.32</ele>
        <time>2017-10-17T09:21:55Z</time>
      </trkpt>
      <trkpt lat="46.04283" lon="6.78603">
        <ele>1151.32</ele>
        <time>2017-10-17T09:21:56Z</time>
      </trkpt>
      <trkpt lat="46.04283" lon="6.78605">
        <ele>1151.8</ele>
        <time>2017-10-17T09:21:57Z</time>
      </trkpt>
      <trkpt lat="46.04283" lon="6.78607">
        <ele>1151.8</ele>
        <time>2017-10-17T09:21:58Z</time>
      </trkpt>
      <trkpt lat="46.04283" lon="6.78609">
        <ele>1152.28</ele>
        <time>2017-10-17T09:21:59Z</time>
      </trkpt>
      <trkpt lat="46.04282" lon="6.78611">
        <ele>1152.76</ele>
        <time>2017-10-17T09:22:00Z</time>
      </trkpt>
      <trkpt lat="46.04281" lon="6.78614">
        <ele>1153.24</ele>
        <time>2017-10-17T09:22:02Z</time>
      </trkpt>
      <trkpt lat="46.0428" lon="6.78616">
        <ele>1153.24</ele>
        <time>2017-10-17T09:22:03Z</time>
      </trkpt>
      <trkpt lat="46.04281" lon="6.78619">
        <ele>1153.72</ele>
        <time>2017-10-17T09:22:04Z</time>
      </trkpt>
      <trkpt lat="46.0428" lon="6.78621">
        <ele>1153.72</ele>
        <time>2017-10-17T09:22:05Z</time>
      </trkpt>
      <trkpt lat="46.0428" lon="6.78622">
        <ele>1154.2</ele>
        <time>2017-10-17T09:22:06Z</time>
      </trkpt>
      <trkpt lat="46.0428" lon="6.78625">
        <ele>1154.2</ele>
        <time>2017-10-17T09:22:07Z</time>
      </trkpt>
      <trkpt lat="46.04279" lon="6.78628">
        <ele>1154.68</ele>
        <time>2017-10-17T09:22:09Z</time>
      </trkpt>
      <trkpt lat="46.0428" lon="6.7863">
        <ele>1155.16</ele>
        <time>2017-10-17T09:22:10Z</time>
      </trkpt>
      <trkpt lat="46.04283" lon="6.78628">
        <ele>1156.12</ele>
        <time>2017-10-17T09:22:14Z</time>
      </trkpt>
      <trkpt lat="46.04283" lon="6.78627">
        <ele>1156.6</ele>
        <time>2017-10-17T09:22:15Z</time>
      </trkpt>
      <trkpt lat="46.0429" lon="6.78606">
        <ele>1159.01</ele>
        <time>2017-10-17T09:22:29Z</time>
      </trkpt>
      <trkpt lat="46.04291" lon="6.78605">
        <ele>1159.01</ele>
        <time>2017-10-17T09:22:30Z</time>
      </trkpt>
      <trkpt lat="46.04292" lon="6.78601">
        <ele>1159.49</ele>
        <time>2017-10-17T09:22:33Z</time>
      </trkpt>
      <trkpt lat="46.04292" lon="6.78602">
        <ele>1159.49</ele>
        <time>2017-10-17T09:22:34Z</time>
      </trkpt>
      <trkpt lat="46.0429" lon="6.78604">
        <ele>1159.49</ele>
        <time>2017-10-17T09:22:35Z</time>
      </trkpt>
      <trkpt lat="46.04289" lon="6.78605">
        <ele>1159.49</ele>
        <time>2017-10-17T09:22:36Z</time>
      </trkpt>
      <trkpt lat="46.04288" lon="6.78606">
        <ele>1159.97</ele>
        <time>2017-10-17T09:22:37Z</time>
      </trkpt>
      <trkpt lat="46.04286" lon="6.78612">
        <ele>1160.45</ele>
        <time>2017-10-17T09:22:40Z</time>
      </trkpt>
      <trkpt lat="46.04285" lon="6.78613">
        <ele>1160.45</ele>
        <time>2017-10-17T09:22:41Z</time>
      </trkpt>
      <trkpt lat="46.04284" lon="6.78614">
        <ele>1160.93</ele>
        <time>2017-10-17T09:22:42Z</time>
      </trkpt>
      <trkpt lat="46.04283" lon="6.78615">
        <ele>1161.41</ele>
        <time>2017-10-17T09:22:43Z</time>
      </trkpt>
      <trkpt lat="46.04282" lon="6.78617">
        <ele>1161.41</ele>
        <time>2017-10-17T09:22:44Z</time>
      </trkpt>
      <trkpt lat="46.04281" lon="6.78619">
        <ele>1161.41</ele>
        <time>2017-10-17T09:22:45Z</time>
      </trkpt>
      <trkpt lat="46.04273" lon="6.78639">
        <ele>1164.29</ele>
        <time>2017-10-17T09:22:56Z</time>
      </trkpt>
      <trkpt lat="46.04273" lon="6.78647">
        <ele>1166.22</ele>
        <time>2017-10-17T09:23:02Z</time>
      </trkpt>
      <trkpt lat="46.04273" lon="6.78643">
        <ele>1167.18</ele>
        <time>2017-10-17T09:23:05Z</time>
      </trkpt>
      <trkpt lat="46.04274" lon="6.78642">
        <ele>1167.18</ele>
        <time>2017-10-17T09:23:06Z</time>
      </trkpt>
      <trkpt lat="46.04274" lon="6.78641">
        <ele>1167.66</ele>
        <time>2017-10-17T09:23:07Z</time>
      </trkpt>
      <trkpt lat="46.04275" lon="6.78639">
        <ele>1167.66</ele>
        <time>2017-10-17T09:23:08Z</time>
      </trkpt>
      <trkpt lat="46.04276" lon="6.78638">
        <ele>1167.66</ele>
        <time>2017-10-17T09:23:09Z</time>
      </trkpt>
      <trkpt lat="46.04278" lon="6.78637">
        <ele>1168.14</ele>
        <time>2017-10-17T09:23:10Z</time>
      </trkpt>
      <trkpt lat="46.0428" lon="6.78635">
        <ele>1168.14</ele>
        <time>2017-10-17T09:23:11Z</time>
      </trkpt>
      <trkpt lat="46.04293" lon="6.78621">
        <ele>1170.54</ele>
        <time>2017-10-17T09:23:26Z</time>
      </trkpt>
      <trkpt lat="46.04293" lon="6.78623">
        <ele>1171.02</ele>
        <time>2017-10-17T09:23:27Z</time>
      </trkpt>
      <trkpt lat="46.04293" lon="6.78624">
        <ele>1171.02</ele>
        <time>2017-10-17T09:23:28Z</time>
      </trkpt>
      <trkpt lat="46.04293" lon="6.78633">
        <ele>1172.47</ele>
        <time>2017-10-17T09:23:34Z</time>
      </trkpt>
      <trkpt lat="46.04283" lon="6.78646">
        <ele>1173.91</ele>
        <time>2017-10-17T09:23:44Z</time>
      </trkpt>
      <trkpt lat="46.04282" lon="6.78647">
        <ele>1174.39</ele>
        <time>2017-10-17T09:23:45Z</time>
      </trkpt>
      <trkpt lat="46.04281" lon="6.78648">
        <ele>1174.39</ele>
        <time>2017-10-17T09:23:46Z</time>
      </trkpt>
      <trkpt lat="46.0428" lon="6.78649">
        <ele>1174.39</ele>
        <time>2017-10-17T09:23:47Z</time>
      </trkpt>
      <trkpt lat="46.04279" lon="6.78652">
        <ele>1174.87</ele>
        <time>2017-10-17T09:23:49Z</time>
      </trkpt>
      <trkpt lat="46.04281" lon="6.78655">
        <ele>1175.83</ele>
        <time>2017-10-17T09:23:53Z</time>
      </trkpt>
      <trkpt lat="46.04283" lon="6.78655">
        <ele>1175.83</ele>
        <time>2017-10-17T09:23:54Z</time>
      </trkpt>
      <trkpt lat="46.04285" lon="6.78654">
        <ele>1176.31</ele>
        <time>2017-10-17T09:23:55Z</time>
      </trkpt>
      <trkpt lat="46.04286" lon="6.78653">
        <ele>1176.31</ele>
        <time>2017-10-17T09:23:56Z</time>
      </trkpt>
      <trkpt lat="46.04287" lon="6.78652">
        <ele>1176.31</ele>
        <time>2017-10-17T09:23:57Z</time>
      </trkpt>
      <trkpt lat="46.04288" lon="6.78652">
        <ele>1176.79</ele>
        <time>2017-10-17T09:23:58Z</time>
      </trkpt>
      <trkpt lat="46.04289" lon="6.78651">
        <ele>1176.79</ele>
        <time>2017-10-17T09:23:59Z</time>
      </trkpt>
      <trkpt lat="46.0429" lon="6.78649">
        <ele>1176.79</ele>
        <time>2017-10-17T09:24:00Z</time>
      </trkpt>
      <trkpt lat="46.04296" lon="6.78641">
        <ele>1178.71</ele>
        <time>2017-10-17T09:24:08Z</time>
      </trkpt>
      <trkpt lat="46.04298" lon="6.7864">
        <ele>1179.19</ele>
        <time>2017-10-17T09:24:09Z</time>
      </trkpt>
      <trkpt lat="46.04299" lon="6.7864">
        <ele>1179.19</ele>
        <time>2017-10-17T09:24:10Z</time>
      </trkpt>
      <trkpt lat="46.043" lon="6.78639">
        <ele>1179.19</ele>
        <time>2017-10-17T09:24:11Z</time>
      </trkpt>
      <trkpt lat="46.04301" lon="6.78637">
        <ele>1179.67</ele>
        <time>2017-10-17T09:24:12Z</time>
      </trkpt>
      <trkpt lat="46.04301" lon="6.78636">
        <ele>1180.16</ele>
        <time>2017-10-17T09:24:13Z</time>
      </trkpt>
      <trkpt lat="46.04302" lon="6.78634">
        <ele>1180.16</ele>
        <time>2017-10-17T09:24:14Z</time>
      </trkpt>
      <trkpt lat="46.04302" lon="6.78632">
        <ele>1180.64</ele>
        <time>2017-10-17T09:24:15Z</time>
      </trkpt>
      <trkpt lat="46.04303" lon="6.78631">
        <ele>1180.64</ele>
        <time>2017-10-17T09:24:16Z</time>
      </trkpt>
      <trkpt lat="46.04308" lon="6.78631">
        <ele>1184</ele>
        <time>2017-10-17T09:24:29Z</time>
      </trkpt>
      <trkpt lat="46.04305" lon="6.78648">
        <ele>1186.88</ele>
        <time>2017-10-17T09:24:46Z</time>
      </trkpt>
      <trkpt lat="46.04304" lon="6.78652">
        <ele>1187.37</ele>
        <time>2017-10-17T09:24:48Z</time>
      </trkpt>
      <trkpt lat="46.04304" lon="6.78653">
        <ele>1187.85</ele>
        <time>2017-10-17T09:24:49Z</time>
      </trkpt>
      <trkpt lat="46.04296" lon="6.7867">
        <ele>1190.73</ele>
        <time>2017-10-17T09:25:04Z</time>
      </trkpt>
      <trkpt lat="46.04295" lon="6.78671">
        <ele>1191.21</ele>
        <time>2017-10-17T09:25:05Z</time>
      </trkpt>
      <trkpt lat="46.04295" lon="6.78683">
        <ele>1194.09</ele>
        <time>2017-10-17T09:25:19Z</time>
      </trkpt>
      <trkpt lat="46.04298" lon="6.78681">
        <ele>1194.58</ele>
        <time>2017-10-17T09:25:22Z</time>
      </trkpt>
      <trkpt lat="46.04299" lon="6.78681">
        <ele>1195.06</ele>
        <time>2017-10-17T09:25:23Z</time>
      </trkpt>
      <trkpt lat="46.043" lon="6.7868">
        <ele>1195.54</ele>
        <time>2017-10-17T09:25:24Z</time>
      </trkpt>
      <trkpt lat="46.04312" lon="6.78667">
        <ele>1198.42</ele>
        <time>2017-10-17T09:25:37Z</time>
      </trkpt>
      <trkpt lat="46.04317" lon="6.78667">
        <ele>1201.3</ele>
        <time>2017-10-17T09:25:50Z</time>
      </trkpt>
      <trkpt lat="46.04316" lon="6.78668">
        <ele>1201.79</ele>
        <time>2017-10-17T09:25:51Z</time>
      </trkpt>
      <trkpt lat="46.04313" lon="6.78686">
        <ele>1204.67</ele>
        <time>2017-10-17T09:26:04Z</time>
      </trkpt>
      <trkpt lat="46.0431" lon="6.78703">
        <ele>1208.03</ele>
        <time>2017-10-17T09:26:16Z</time>
      </trkpt>
      <trkpt lat="46.04302" lon="6.78718">
        <ele>1210.92</ele>
        <time>2017-10-17T09:26:29Z</time>
      </trkpt>
      <trkpt lat="46.04305" lon="6.78717">
        <ele>1212.36</ele>
        <time>2017-10-17T09:26:36Z</time>
      </trkpt>
      <trkpt lat="46.04321" lon="6.787">
        <ele>1214.76</ele>
        <time>2017-10-17T09:26:49Z</time>
      </trkpt>
      <trkpt lat="46.0433" lon="6.78689">
        <ele>1217.65</ele>
        <time>2017-10-17T09:27:03Z</time>
      </trkpt>
      <trkpt lat="46.0433" lon="6.7869">
        <ele>1218.13</ele>
        <time>2017-10-17T09:27:04Z</time>
      </trkpt>
      <trkpt lat="46.0433" lon="6.78693">
        <ele>1218.61</ele>
        <time>2017-10-17T09:27:05Z</time>
      </trkpt>
      <trkpt lat="46.04329" lon="6.78695">
        <ele>1218.61</ele>
        <time>2017-10-17T09:27:06Z</time>
      </trkpt>
      <trkpt lat="46.04329" lon="6.78698">
        <ele>1219.09</ele>
        <time>2017-10-17T09:27:07Z</time>
      </trkpt>
      <trkpt lat="46.04328" lon="6.787">
        <ele>1219.57</ele>
        <time>2017-10-17T09:27:08Z</time>
      </trkpt>
      <trkpt lat="46.04327" lon="6.78703">
        <ele>1219.57</ele>
        <time>2017-10-17T09:27:09Z</time>
      </trkpt>
      <trkpt lat="46.04326" lon="6.78707">
        <ele>1220.53</ele>
        <time>2017-10-17T09:27:11Z</time>
      </trkpt>
      <trkpt lat="46.04319" lon="6.78735">
        <ele>1223.42</ele>
        <time>2017-10-17T09:27:23Z</time>
      </trkpt>
      <trkpt lat="46.04312" lon="6.78744">
        <ele>1223.9</ele>
        <time>2017-10-17T09:27:29Z</time>
      </trkpt>
      <trkpt lat="46.0431" lon="6.78747">
        <ele>1224.38</ele>
        <time>2017-10-17T09:27:31Z</time>
      </trkpt>
      <trkpt lat="46.04309" lon="6.78748">
        <ele>1224.86</ele>
        <time>2017-10-17T09:27:32Z</time>
      </trkpt>
      <trkpt lat="46.04308" lon="6.78749">
        <ele>1225.34</ele>
        <time>2017-10-17T09:27:33Z</time>
      </trkpt>
      <trkpt lat="46.04308" lon="6.78751">
        <ele>1225.34</ele>
        <time>2017-10-17T09:27:34Z</time>
      </trkpt>
      <trkpt lat="46.04307" lon="6.78753">
        <ele>1225.82</ele>
        <time>2017-10-17T09:27:35Z</time>
      </trkpt>
      <trkpt lat="46.04307" lon="6.78755">
        <ele>1225.82</ele>
        <time>2017-10-17T09:27:36Z</time>
      </trkpt>
      <trkpt lat="46.04307" lon="6.78757">
        <ele>1225.82</ele>
        <time>2017-10-17T09:27:37Z</time>
      </trkpt>
      <trkpt lat="46.04307" lon="6.78759">
        <ele>1225.82</ele>
        <time>2017-10-17T09:27:38Z</time>
      </trkpt>
      <trkpt lat="46.04306" lon="6.78761">
        <ele>1226.3</ele>
        <time>2017-10-17T09:27:39Z</time>
      </trkpt>
      <trkpt lat="46.04306" lon="6.78763">
        <ele>1226.78</ele>
        <time>2017-10-17T09:27:40Z</time>
      </trkpt>
      <trkpt lat="46.04305" lon="6.78765">
        <ele>1226.78</ele>
        <time>2017-10-17T09:27:41Z</time>
      </trkpt>
      <trkpt lat="46.04304" lon="6.78768">
        <ele>1227.74</ele>
        <time>2017-10-17T09:27:43Z</time>
      </trkpt>
      <trkpt lat="46.04302" lon="6.78768">
        <ele>1227.74</ele>
        <time>2017-10-17T09:27:44Z</time>
      </trkpt>
      <trkpt lat="46.04301" lon="6.78769">
        <ele>1228.22</ele>
        <time>2017-10-17T09:27:45Z</time>
      </trkpt>
      <trkpt lat="46.043" lon="6.7877">
        <ele>1228.22</ele>
        <time>2017-10-17T09:27:46Z</time>
      </trkpt>
      <trkpt lat="46.04299" lon="6.7877">
        <ele>1228.22</ele>
        <time>2017-10-17T09:27:47Z</time>
      </trkpt>
      <trkpt lat="46.04297" lon="6.78771">
        <ele>1228.7</ele>
        <time>2017-10-17T09:27:48Z</time>
      </trkpt>
      <trkpt lat="46.04297" lon="6.78773">
        <ele>1228.7</ele>
        <time>2017-10-17T09:27:49Z</time>
      </trkpt>
      <trkpt lat="46.04296" lon="6.78775">
        <ele>1229.18</ele>
        <time>2017-10-17T09:27:50Z</time>
      </trkpt>
      <trkpt lat="46.04294" lon="6.78777">
        <ele>1229.66</ele>
        <time>2017-10-17T09:27:51Z</time>
      </trkpt>
      <trkpt lat="46.04288" lon="6.78781">
        <ele>1229.66</ele>
        <time>2017-10-17T09:27:55Z</time>
      </trkpt>
      <trkpt lat="46.04286" lon="6.78782">
        <ele>1229.66</ele>
        <time>2017-10-17T09:27:56Z</time>
      </trkpt>
      <trkpt lat="46.04285" lon="6.78783">
        <ele>1230.14</ele>
        <time>2017-10-17T09:27:57Z</time>
      </trkpt>
      <trkpt lat="46.04268" lon="6.78797">
        <ele>1232.55</ele>
        <time>2017-10-17T09:28:09Z</time>
      </trkpt>
      <trkpt lat="46.04266" lon="6.78797">
        <ele>1233.03</ele>
        <time>2017-10-17T09:28:10Z</time>
      </trkpt>
      <trkpt lat="46.04265" lon="6.78797">
        <ele>1233.03</ele>
        <time>2017-10-17T09:28:11Z</time>
      </trkpt>
      <trkpt lat="46.04264" lon="6.78798">
        <ele>1233.03</ele>
        <time>2017-10-17T09:28:12Z</time>
      </trkpt>
      <trkpt lat="46.04263" lon="6.788">
        <ele>1233.03</ele>
        <time>2017-10-17T09:28:13Z</time>
      </trkpt>
      <trkpt lat="46.04262" lon="6.78801">
        <ele>1233.51</ele>
        <time>2017-10-17T09:28:14Z</time>
      </trkpt>
      <trkpt lat="46.04261" lon="6.78803">
        <ele>1233.99</ele>
        <time>2017-10-17T09:28:15Z</time>
      </trkpt>
      <trkpt lat="46.04243" lon="6.78812">
        <ele>1236.87</ele>
        <time>2017-10-17T09:28:28Z</time>
      </trkpt>
      <trkpt lat="46.04242" lon="6.78813">
        <ele>1236.87</ele>
        <time>2017-10-17T09:28:29Z</time>
      </trkpt>
      <trkpt lat="46.04241" lon="6.78815">
        <ele>1236.87</ele>
        <time>2017-10-17T09:28:30Z</time>
      </trkpt>
      <trkpt lat="46.04229" lon="6.78831">
        <ele>1240.24</ele>
        <time>2017-10-17T09:28:43Z</time>
      </trkpt>
      <trkpt lat="46.04225" lon="6.78834">
        <ele>1240.24</ele>
        <time>2017-10-17T09:28:48Z</time>
      </trkpt>
      <trkpt lat="46.04226" lon="6.78838">
        <ele>1242.16</ele>
        <time>2017-10-17T09:28:54Z</time>
      </trkpt>
      <trkpt lat="46.0423" lon="6.78838">
        <ele>1244.08</ele>
        <time>2017-10-17T09:29:02Z</time>
      </trkpt>
      <trkpt lat="46.04231" lon="6.78838">
        <ele>1244.08</ele>
        <time>2017-10-17T09:29:03Z</time>
      </trkpt>
      <trkpt lat="46.04232" lon="6.78837">
        <ele>1244.56</ele>
        <time>2017-10-17T09:29:04Z</time>
      </trkpt>
      <trkpt lat="46.04233" lon="6.78837">
        <ele>1244.56</ele>
        <time>2017-10-17T09:29:05Z</time>
      </trkpt>
      <trkpt lat="46.04234" lon="6.78836">
        <ele>1245.04</ele>
        <time>2017-10-17T09:29:06Z</time>
      </trkpt>
      <trkpt lat="46.04234" lon="6.78835">
        <ele>1245.04</ele>
        <time>2017-10-17T09:29:07Z</time>
      </trkpt>
      <trkpt lat="46.04238" lon="6.78832">
        <ele>1246.49</ele>
        <time>2017-10-17T09:29:13Z</time>
      </trkpt>
      <trkpt lat="46.04239" lon="6.78832">
        <ele>1246.97</ele>
        <time>2017-10-17T09:29:14Z</time>
      </trkpt>
      <trkpt lat="46.04248" lon="6.78826">
        <ele>1249.85</ele>
        <time>2017-10-17T09:29:25Z</time>
      </trkpt>
      <trkpt lat="46.04258" lon="6.78824">
        <ele>1251.29</ele>
        <time>2017-10-17T09:29:32Z</time>
      </trkpt>
      <trkpt lat="46.0426" lon="6.78822">
        <ele>1251.77</ele>
        <time>2017-10-17T09:29:33Z</time>
      </trkpt>
      <trkpt lat="46.04265" lon="6.78817">
        <ele>1252.25</ele>
        <time>2017-10-17T09:29:36Z</time>
      </trkpt>
      <trkpt lat="46.04267" lon="6.78816">
        <ele>1252.25</ele>
        <time>2017-10-17T09:29:37Z</time>
      </trkpt>
      <trkpt lat="46.04269" lon="6.78817">
        <ele>1252.25</ele>
        <time>2017-10-17T09:29:38Z</time>
      </trkpt>
      <trkpt lat="46.04273" lon="6.78817">
        <ele>1253.22</ele>
        <time>2017-10-17T09:29:41Z</time>
      </trkpt>
      <trkpt lat="46.04274" lon="6.78816">
        <ele>1253.22</ele>
        <time>2017-10-17T09:29:42Z</time>
      </trkpt>
      <trkpt lat="46.04276" lon="6.78816">
        <ele>1253.7</ele>
        <time>2017-10-17T09:29:43Z</time>
      </trkpt>
      <trkpt lat="46.04293" lon="6.78818">
        <ele>1256.58</ele>
        <time>2017-10-17T09:29:56Z</time>
      </trkpt>
      <trkpt lat="46.04294" lon="6.78824">
        <ele>1258.02</ele>
        <time>2017-10-17T09:30:01Z</time>
      </trkpt>
      <trkpt lat="46.04293" lon="6.78828">
        <ele>1259.46</ele>
        <time>2017-10-17T09:30:06Z</time>
      </trkpt>
      <trkpt lat="46.04276" lon="6.78844">
        <ele>1262.83</ele>
        <time>2017-10-17T09:30:25Z</time>
      </trkpt>
      <trkpt lat="46.04265" lon="6.78854">
        <ele>1265.71</ele>
        <time>2017-10-17T09:30:36Z</time>
      </trkpt>
      <trkpt lat="46.04253" lon="6.78873">
        <ele>1269.08</ele>
        <time>2017-10-17T09:30:49Z</time>
      </trkpt>
      <trkpt lat="46.04244" lon="6.78885">
        <ele>1271.96</ele>
        <time>2017-10-17T09:31:00Z</time>
      </trkpt>
      <trkpt lat="46.04241" lon="6.78889">
        <ele>1272.92</ele>
        <time>2017-10-17T09:31:03Z</time>
      </trkpt>
      <trkpt lat="46.0424" lon="6.7889">
        <ele>1273.4</ele>
        <time>2017-10-17T09:31:04Z</time>
      </trkpt>
      <trkpt lat="46.04239" lon="6.78891">
        <ele>1273.4</ele>
        <time>2017-10-17T09:31:05Z</time>
      </trkpt>
      <trkpt lat="46.04238" lon="6.78895">
        <ele>1274.85</ele>
        <time>2017-10-17T09:31:08Z</time>
      </trkpt>
      <trkpt lat="46.04236" lon="6.78898">
        <ele>1275.33</ele>
        <time>2017-10-17T09:31:10Z</time>
      </trkpt>
      <trkpt lat="46.04235" lon="6.789">
        <ele>1275.81</ele>
        <time>2017-10-17T09:31:12Z</time>
      </trkpt>
      <trkpt lat="46.04234" lon="6.78901">
        <ele>1275.81</ele>
        <time>2017-10-17T09:31:13Z</time>
      </trkpt>
      <trkpt lat="46.0423" lon="6.78904">
        <ele>1276.77</ele>
        <time>2017-10-17T09:31:16Z</time>
      </trkpt>
      <trkpt lat="46.04229" lon="6.78906">
        <ele>1277.73</ele>
        <time>2017-10-17T09:31:18Z</time>
      </trkpt>
      <trkpt lat="46.04219" lon="6.78916">
        <ele>1280.61</ele>
        <time>2017-10-17T09:31:31Z</time>
      </trkpt>
      <trkpt lat="46.04214" lon="6.78925">
        <ele>1281.57</ele>
        <time>2017-10-17T09:31:38Z</time>
      </trkpt>
      <trkpt lat="46.04214" lon="6.78926">
        <ele>1282.06</ele>
        <time>2017-10-17T09:31:39Z</time>
      </trkpt>
      <trkpt lat="46.04212" lon="6.78929">
        <ele>1282.06</ele>
        <time>2017-10-17T09:31:40Z</time>
      </trkpt>
      <trkpt lat="46.0421" lon="6.7893">
        <ele>1282.06</ele>
        <time>2017-10-17T09:31:41Z</time>
      </trkpt>
      <trkpt lat="46.04209" lon="6.78932">
        <ele>1282.06</ele>
        <time>2017-10-17T09:31:42Z</time>
      </trkpt>
      <trkpt lat="46.04207" lon="6.78934">
        <ele>1282.06</ele>
        <time>2017-10-17T09:31:44Z</time>
      </trkpt>
      <trkpt lat="46.04205" lon="6.78936">
        <ele>1283.02</ele>
        <time>2017-10-17T09:31:47Z</time>
      </trkpt>
      <trkpt lat="46.04204" lon="6.78939">
        <ele>1283.5</ele>
        <time>2017-10-17T09:31:49Z</time>
      </trkpt>
      <trkpt lat="46.04203" lon="6.78941">
        <ele>1283.98</ele>
        <time>2017-10-17T09:31:50Z</time>
      </trkpt>
      <trkpt lat="46.04202" lon="6.78943">
        <ele>1283.98</ele>
        <time>2017-10-17T09:31:51Z</time>
      </trkpt>
      <trkpt lat="46.04189" lon="6.78958">
        <ele>1287.34</ele>
        <time>2017-10-17T09:32:07Z</time>
      </trkpt>
      <trkpt lat="46.04187" lon="6.78959">
        <ele>1287.82</ele>
        <time>2017-10-17T09:32:08Z</time>
      </trkpt>
      <trkpt lat="46.04186" lon="6.78959">
        <ele>1287.82</ele>
        <time>2017-10-17T09:32:09Z</time>
      </trkpt>
      <trkpt lat="46.04181" lon="6.78968">
        <ele>1290.23</ele>
        <time>2017-10-17T09:32:18Z</time>
      </trkpt>
      <trkpt lat="46.04182" lon="6.78967">
        <ele>1290.23</ele>
        <time>2017-10-17T09:32:19Z</time>
      </trkpt>
      <trkpt lat="46.04183" lon="6.78967">
        <ele>1290.23</ele>
        <time>2017-10-17T09:32:20Z</time>
      </trkpt>
      <trkpt lat="46.04185" lon="6.78967">
        <ele>1290.23</ele>
        <time>2017-10-17T09:32:21Z</time>
      </trkpt>
      <trkpt lat="46.04187" lon="6.78968">
        <ele>1290.23</ele>
        <time>2017-10-17T09:32:22Z</time>
      </trkpt>
      <trkpt lat="46.0419" lon="6.78968">
        <ele>1290.71</ele>
        <time>2017-10-17T09:32:23Z</time>
      </trkpt>
      <trkpt lat="46.04192" lon="6.78968">
        <ele>1290.71</ele>
        <time>2017-10-17T09:32:24Z</time>
      </trkpt>
      <trkpt lat="46.04208" lon="6.78967">
        <ele>1293.59</ele>
        <time>2017-10-17T09:32:35Z</time>
      </trkpt>
      <trkpt lat="46.04208" lon="6.78968">
        <ele>1293.59</ele>
        <time>2017-10-17T09:32:36Z</time>
      </trkpt>
      <trkpt lat="46.04209" lon="6.7897">
        <ele>1294.55</ele>
        <time>2017-10-17T09:32:40Z</time>
      </trkpt>
      <trkpt lat="46.04209" lon="6.78971">
        <ele>1294.55</ele>
        <time>2017-10-17T09:32:41Z</time>
      </trkpt>
      <trkpt lat="46.04207" lon="6.78971">
        <ele>1295.03</ele>
        <time>2017-10-17T09:32:42Z</time>
      </trkpt>
      <trkpt lat="46.04206" lon="6.78972">
        <ele>1295.03</ele>
        <time>2017-10-17T09:32:43Z</time>
      </trkpt>
      <trkpt lat="46.04202" lon="6.78972">
        <ele>1295.03</ele>
        <time>2017-10-17T09:32:44Z</time>
      </trkpt>
      <trkpt lat="46.04201" lon="6.78972">
        <ele>1295.03</ele>
        <time>2017-10-17T09:32:45Z</time>
      </trkpt>
      <trkpt lat="46.04194" lon="6.78977">
        <ele>1297.44</ele>
        <time>2017-10-17T09:32:54Z</time>
      </trkpt>
      <trkpt lat="46.04198" lon="6.78977">
        <ele>1298.88</ele>
        <time>2017-10-17T09:32:57Z</time>
      </trkpt>
      <trkpt lat="46.04199" lon="6.78979">
        <ele>1299.36</ele>
        <time>2017-10-17T09:33:00Z</time>
      </trkpt>
      <trkpt lat="46.04199" lon="6.78982">
        <ele>1299.84</ele>
        <time>2017-10-17T09:33:03Z</time>
      </trkpt>
      <trkpt lat="46.04198" lon="6.78982">
        <ele>1300.32</ele>
        <time>2017-10-17T09:33:04Z</time>
      </trkpt>
      <trkpt lat="46.04197" lon="6.78983">
        <ele>1300.32</ele>
        <time>2017-10-17T09:33:05Z</time>
      </trkpt>
      <trkpt lat="46.04188" lon="6.78993">
        <ele>1302.24</ele>
        <time>2017-10-17T09:33:14Z</time>
      </trkpt>
      <trkpt lat="46.04188" lon="6.78995">
        <ele>1302.72</ele>
        <time>2017-10-17T09:33:15Z</time>
      </trkpt>
      <trkpt lat="46.04187" lon="6.78998">
        <ele>1302.72</ele>
        <time>2017-10-17T09:33:16Z</time>
      </trkpt>
      <trkpt lat="46.04186" lon="6.79">
        <ele>1303.2</ele>
        <time>2017-10-17T09:33:17Z</time>
      </trkpt>
      <trkpt lat="46.04185" lon="6.79002">
        <ele>1303.69</ele>
        <time>2017-10-17T09:33:18Z</time>
      </trkpt>
      <trkpt lat="46.04185" lon="6.79003">
        <ele>1304.17</ele>
        <time>2017-10-17T09:33:19Z</time>
      </trkpt>
      <trkpt lat="46.04179" lon="6.7901">
        <ele>1305.61</ele>
        <time>2017-10-17T09:33:23Z</time>
      </trkpt>
      <trkpt lat="46.04179" lon="6.79013">
        <ele>1307.53</ele>
        <time>2017-10-17T09:33:28Z</time>
      </trkpt>
      <trkpt lat="46.0418" lon="6.79013">
        <ele>1307.53</ele>
        <time>2017-10-17T09:33:29Z</time>
      </trkpt>
      <trkpt lat="46.0419" lon="6.79013">
        <ele>1310.9</ele>
        <time>2017-10-17T09:33:40Z</time>
      </trkpt>
      <trkpt lat="46.04191" lon="6.79013">
        <ele>1311.86</ele>
        <time>2017-10-17T09:33:45Z</time>
      </trkpt>
      <trkpt lat="46.04189" lon="6.79016">
        <ele>1312.82</ele>
        <time>2017-10-17T09:33:50Z</time>
      </trkpt>
      <trkpt lat="46.04188" lon="6.79017">
        <ele>1313.3</ele>
        <time>2017-10-17T09:33:51Z</time>
      </trkpt>
      <trkpt lat="46.04188" lon="6.79019">
        <ele>1313.3</ele>
        <time>2017-10-17T09:33:52Z</time>
      </trkpt>
      <trkpt lat="46.04173" lon="6.79035">
        <ele>1314.74</ele>
        <time>2017-10-17T09:34:04Z</time>
      </trkpt>
      <trkpt lat="46.04168" lon="6.79041">
        <ele>1315.22</ele>
        <time>2017-10-17T09:34:08Z</time>
      </trkpt>
      <trkpt lat="46.04164" lon="6.79042">
        <ele>1315.7</ele>
        <time>2017-10-17T09:34:09Z</time>
      </trkpt>
      <trkpt lat="46.04162" lon="6.79043">
        <ele>1315.7</ele>
        <time>2017-10-17T09:34:10Z</time>
      </trkpt>
      <trkpt lat="46.04157" lon="6.79053">
        <ele>1314.26</ele>
        <time>2017-10-17T09:34:14Z</time>
      </trkpt>
      <trkpt lat="46.04156" lon="6.79055">
        <ele>1314.26</ele>
        <time>2017-10-17T09:34:15Z</time>
      </trkpt>
      <trkpt lat="46.04155" lon="6.79057">
        <ele>1314.74</ele>
        <time>2017-10-17T09:34:16Z</time>
      </trkpt>
      <trkpt lat="46.04153" lon="6.79062">
        <ele>1315.7</ele>
        <time>2017-10-17T09:34:21Z</time>
      </trkpt>
      <trkpt lat="46.04153" lon="6.79064">
        <ele>1316.18</ele>
        <time>2017-10-17T09:34:22Z</time>
      </trkpt>
      <trkpt lat="46.04152" lon="6.79066">
        <ele>1316.18</ele>
        <time>2017-10-17T09:34:23Z</time>
      </trkpt>
      <trkpt lat="46.04151" lon="6.79074">
        <ele>1318.1</ele>
        <time>2017-10-17T09:34:29Z</time>
      </trkpt>
      <trkpt lat="46.0415" lon="6.79076">
        <ele>1318.59</ele>
        <time>2017-10-17T09:34:31Z</time>
      </trkpt>
      <trkpt lat="46.0415" lon="6.79077">
        <ele>1318.59</ele>
        <time>2017-10-17T09:34:32Z</time>
      </trkpt>
      <trkpt lat="46.04149" lon="6.79083">
        <ele>1319.55</ele>
        <time>2017-10-17T09:34:37Z</time>
      </trkpt>
      <trkpt lat="46.0415" lon="6.79086">
        <ele>1320.03</ele>
        <time>2017-10-17T09:34:39Z</time>
      </trkpt>
      <trkpt lat="46.04151" lon="6.79091">
        <ele>1321.47</ele>
        <time>2017-10-17T09:34:43Z</time>
      </trkpt>
      <trkpt lat="46.0415" lon="6.79092">
        <ele>1321.47</ele>
        <time>2017-10-17T09:34:44Z</time>
      </trkpt>
      <trkpt lat="46.04146" lon="6.79104">
        <ele>1322.43</ele>
        <time>2017-10-17T09:34:50Z</time>
      </trkpt>
      <trkpt lat="46.04143" lon="6.79114">
        <ele>1322.43</ele>
        <time>2017-10-17T09:34:55Z</time>
      </trkpt>
      <trkpt lat="46.04143" lon="6.79116">
        <ele>1322.91</ele>
        <time>2017-10-17T09:34:56Z</time>
      </trkpt>
      <trkpt lat="46.04143" lon="6.79118">
        <ele>1323.39</ele>
        <time>2017-10-17T09:34:57Z</time>
      </trkpt>
      <trkpt lat="46.04143" lon="6.7912">
        <ele>1323.39</ele>
        <time>2017-10-17T09:34:58Z</time>
      </trkpt>
      <trkpt lat="46.04142" lon="6.79122">
        <ele>1323.87</ele>
        <time>2017-10-17T09:34:59Z</time>
      </trkpt>
      <trkpt lat="46.04141" lon="6.79123">
        <ele>1323.87</ele>
        <time>2017-10-17T09:35:00Z</time>
      </trkpt>
      <trkpt lat="46.04141" lon="6.79126">
        <ele>1323.87</ele>
        <time>2017-10-17T09:35:01Z</time>
      </trkpt>
      <trkpt lat="46.0414" lon="6.79128">
        <ele>1323.87</ele>
        <time>2017-10-17T09:35:02Z</time>
      </trkpt>
      <trkpt lat="46.0414" lon="6.7913">
        <ele>1324.35</ele>
        <time>2017-10-17T09:35:03Z</time>
      </trkpt>
      <trkpt lat="46.0414" lon="6.79132">
        <ele>1324.35</ele>
        <time>2017-10-17T09:35:04Z</time>
      </trkpt>
      <trkpt lat="46.04139" lon="6.79134">
        <ele>1324.83</ele>
        <time>2017-10-17T09:35:05Z</time>
      </trkpt>
      <trkpt lat="46.04138" lon="6.79136">
        <ele>1324.83</ele>
        <time>2017-10-17T09:35:06Z</time>
      </trkpt>
      <trkpt lat="46.04138" lon="6.79137">
        <ele>1325.31</ele>
        <time>2017-10-17T09:35:07Z</time>
      </trkpt>
      <trkpt lat="46.04135" lon="6.79139">
        <ele>1324.83</ele>
        <time>2017-10-17T09:35:09Z</time>
      </trkpt>
      <trkpt lat="46.04127" lon="6.79137">
        <ele>1325.8</ele>
        <time>2017-10-17T09:35:13Z</time>
      </trkpt>
      <trkpt lat="46.04125" lon="6.79133">
        <ele>1325.8</ele>
        <time>2017-10-17T09:35:15Z</time>
      </trkpt>
      <trkpt lat="46.04124" lon="6.79129">
        <ele>1325.8</ele>
        <time>2017-10-17T09:35:17Z</time>
      </trkpt>
      <trkpt lat="46.04123" lon="6.79123">
        <ele>1326.76</ele>
        <time>2017-10-17T09:35:22Z</time>
      </trkpt>
      <trkpt lat="46.04124" lon="6.79121">
        <ele>1326.76</ele>
        <time>2017-10-17T09:35:23Z</time>
      </trkpt>
      <trkpt lat="46.04124" lon="6.7912">
        <ele>1327.24</ele>
        <time>2017-10-17T09:35:24Z</time>
      </trkpt>
      <trkpt lat="46.04123" lon="6.79118">
        <ele>1327.24</ele>
        <time>2017-10-17T09:35:25Z</time>
      </trkpt>
      <trkpt lat="46.04123" lon="6.79117">
        <ele>1327.72</ele>
        <time>2017-10-17T09:35:26Z</time>
      </trkpt>
      <trkpt lat="46.04122" lon="6.79116">
        <ele>1327.72</ele>
        <time>2017-10-17T09:35:27Z</time>
      </trkpt>
      <trkpt lat="46.04122" lon="6.79115">
        <ele>1328.2</ele>
        <time>2017-10-17T09:35:28Z</time>
      </trkpt>
      <trkpt lat="46.04122" lon="6.79114">
        <ele>1328.68</ele>
        <time>2017-10-17T09:35:29Z</time>
      </trkpt>
      <trkpt lat="46.04121" lon="6.79113">
        <ele>1328.68</ele>
        <time>2017-10-17T09:35:30Z</time>
      </trkpt>
      <trkpt lat="46.04121" lon="6.79111">
        <ele>1329.16</ele>
        <time>2017-10-17T09:35:31Z</time>
      </trkpt>
      <trkpt lat="46.04119" lon="6.79111">
        <ele>1329.16</ele>
        <time>2017-10-17T09:35:32Z</time>
      </trkpt>
      <trkpt lat="46.04118" lon="6.7911">
        <ele>1329.64</ele>
        <time>2017-10-17T09:35:33Z</time>
      </trkpt>
      <trkpt lat="46.04112" lon="6.79105">
        <ele>1331.56</ele>
        <time>2017-10-17T09:35:40Z</time>
      </trkpt>
      <trkpt lat="46.04111" lon="6.79104">
        <ele>1331.56</ele>
        <time>2017-10-17T09:35:41Z</time>
      </trkpt>
      <trkpt lat="46.0411" lon="6.79103">
        <ele>1332.04</ele>
        <time>2017-10-17T09:35:42Z</time>
      </trkpt>
      <trkpt lat="46.04088" lon="6.79107">
        <ele>1335.41</ele>
        <time>2017-10-17T09:35:55Z</time>
      </trkpt>
      <trkpt lat="46.04083" lon="6.79112">
        <ele>1336.85</ele>
        <time>2017-10-17T09:36:02Z</time>
      </trkpt>
      <trkpt lat="46.04085" lon="6.79112">
        <ele>1337.33</ele>
        <time>2017-10-17T09:36:04Z</time>
      </trkpt>
      <trkpt lat="46.04087" lon="6.79113">
        <ele>1337.81</ele>
        <time>2017-10-17T09:36:05Z</time>
      </trkpt>
      <trkpt lat="46.04088" lon="6.79113">
        <ele>1337.81</ele>
        <time>2017-10-17T09:36:06Z</time>
      </trkpt>
      <trkpt lat="46.04091" lon="6.79114">
        <ele>1338.77</ele>
        <time>2017-10-17T09:36:10Z</time>
      </trkpt>
      <trkpt lat="46.04092" lon="6.79114">
        <ele>1339.25</ele>
        <time>2017-10-17T09:36:11Z</time>
      </trkpt>
      <trkpt lat="46.04093" lon="6.79113">
        <ele>1339.25</ele>
        <time>2017-10-17T09:36:12Z</time>
      </trkpt>
      <trkpt lat="46.04094" lon="6.79112">
        <ele>1339.73</ele>
        <time>2017-10-17T09:36:13Z</time>
      </trkpt>
      <trkpt lat="46.04095" lon="6.79112">
        <ele>1339.73</ele>
        <time>2017-10-17T09:36:14Z</time>
      </trkpt>
      <trkpt lat="46.04096" lon="6.79112">
        <ele>1340.22</ele>
        <time>2017-10-17T09:36:16Z</time>
      </trkpt>
      <trkpt lat="46.04096" lon="6.79113">
        <ele>1340.22</ele>
        <time>2017-10-17T09:36:17Z</time>
      </trkpt>
      <trkpt lat="46.04093" lon="6.79113">
        <ele>1340.7</ele>
        <time>2017-10-17T09:36:19Z</time>
      </trkpt>
      <trkpt lat="46.04092" lon="6.79115">
        <ele>1341.66</ele>
        <time>2017-10-17T09:36:23Z</time>
      </trkpt>
      <trkpt lat="46.0409" lon="6.79117">
        <ele>1342.14</ele>
        <time>2017-10-17T09:36:26Z</time>
      </trkpt>
      <trkpt lat="46.04089" lon="6.79118">
        <ele>1342.62</ele>
        <time>2017-10-17T09:36:28Z</time>
      </trkpt>
      <trkpt lat="46.04088" lon="6.79119">
        <ele>1343.1</ele>
        <time>2017-10-17T09:36:29Z</time>
      </trkpt>
      <trkpt lat="46.04087" lon="6.79121">
        <ele>1343.1</ele>
        <time>2017-10-17T09:36:30Z</time>
      </trkpt>
      <trkpt lat="46.04078" lon="6.79127">
        <ele>1345.02</ele>
        <time>2017-10-17T09:36:41Z</time>
      </trkpt>
      <trkpt lat="46.0408" lon="6.79128">
        <ele>1345.5</ele>
        <time>2017-10-17T09:36:43Z</time>
      </trkpt>
      <trkpt lat="46.04081" lon="6.79129">
        <ele>1345.98</ele>
        <time>2017-10-17T09:36:44Z</time>
      </trkpt>
      <trkpt lat="46.04083" lon="6.79128">
        <ele>1345.98</ele>
        <time>2017-10-17T09:36:45Z</time>
      </trkpt>
      <trkpt lat="46.04084" lon="6.79128">
        <ele>1345.98</ele>
        <time>2017-10-17T09:36:46Z</time>
      </trkpt>
      <trkpt lat="46.04085" lon="6.79128">
        <ele>1346.46</ele>
        <time>2017-10-17T09:36:47Z</time>
      </trkpt>
      <trkpt lat="46.04086" lon="6.79128">
        <ele>1346.46</ele>
        <time>2017-10-17T09:36:48Z</time>
      </trkpt>
      <trkpt lat="46.04087" lon="6.79127">
        <ele>1347.43</ele>
        <time>2017-10-17T09:36:50Z</time>
      </trkpt>
      <trkpt lat="46.04091" lon="6.79126">
        <ele>1348.39</ele>
        <time>2017-10-17T09:36:54Z</time>
      </trkpt>
      <trkpt lat="46.04094" lon="6.79129">
        <ele>1348.87</ele>
        <time>2017-10-17T09:36:57Z</time>
      </trkpt>
      <trkpt lat="46.04094" lon="6.7913">
        <ele>1348.87</ele>
        <time>2017-10-17T09:36:58Z</time>
      </trkpt>
      <trkpt lat="46.04095" lon="6.79134">
        <ele>1350.31</ele>
        <time>2017-10-17T09:37:01Z</time>
      </trkpt>
      <trkpt lat="46.04096" lon="6.79136">
        <ele>1350.31</ele>
        <time>2017-10-17T09:37:02Z</time>
      </trkpt>
      <trkpt lat="46.04099" lon="6.79142">
        <ele>1351.27</ele>
        <time>2017-10-17T09:37:07Z</time>
      </trkpt>
      <trkpt lat="46.04101" lon="6.79143">
        <ele>1351.75</ele>
        <time>2017-10-17T09:37:08Z</time>
      </trkpt>
      <trkpt lat="46.04103" lon="6.79145">
        <ele>1352.23</ele>
        <time>2017-10-17T09:37:09Z</time>
      </trkpt>
      <trkpt lat="46.04106" lon="6.7915">
        <ele>1353.19</ele>
        <time>2017-10-17T09:37:15Z</time>
      </trkpt>
      <trkpt lat="46.04103" lon="6.7915">
        <ele>1354.15</ele>
        <time>2017-10-17T09:37:18Z</time>
      </trkpt>
      <trkpt lat="46.04102" lon="6.79151">
        <ele>1354.63</ele>
        <time>2017-10-17T09:37:20Z</time>
      </trkpt>
      <trkpt lat="46.04101" lon="6.79151">
        <ele>1354.63</ele>
        <time>2017-10-17T09:37:21Z</time>
      </trkpt>
      <trkpt lat="46.04096" lon="6.7915">
        <ele>1356.08</ele>
        <time>2017-10-17T09:37:27Z</time>
      </trkpt>
      <trkpt lat="46.04073" lon="6.79154">
        <ele>1358.96</ele>
        <time>2017-10-17T09:37:41Z</time>
      </trkpt>
      <trkpt lat="46.04075" lon="6.79154">
        <ele>1359.92</ele>
        <time>2017-10-17T09:37:47Z</time>
      </trkpt>
      <trkpt lat="46.04076" lon="6.79154">
        <ele>1360.4</ele>
        <time>2017-10-17T09:37:48Z</time>
      </trkpt>
      <trkpt lat="46.04077" lon="6.79154">
        <ele>1360.88</ele>
        <time>2017-10-17T09:37:49Z</time>
      </trkpt>
      <trkpt lat="46.04086" lon="6.79159">
        <ele>1363.77</ele>
        <time>2017-10-17T09:38:04Z</time>
      </trkpt>
      <trkpt lat="46.04085" lon="6.79161">
        <ele>1363.77</ele>
        <time>2017-10-17T09:38:05Z</time>
      </trkpt>
      <trkpt lat="46.04087" lon="6.79163">
        <ele>1364.25</ele>
        <time>2017-10-17T09:38:06Z</time>
      </trkpt>
      <trkpt lat="46.04087" lon="6.79164">
        <ele>1364.25</ele>
        <time>2017-10-17T09:38:07Z</time>
      </trkpt>
      <trkpt lat="46.04088" lon="6.79166">
        <ele>1364.73</ele>
        <time>2017-10-17T09:38:08Z</time>
      </trkpt>
      <trkpt lat="46.0409" lon="6.79176">
        <ele>1367.61</ele>
        <time>2017-10-17T09:38:20Z</time>
      </trkpt>
      <trkpt lat="46.0409" lon="6.79176">
        <ele>1367.61</ele>
        <time>2017-10-17T09:38:21Z</time>
      </trkpt>
      <trkpt lat="46.04089" lon="6.79176">
        <ele>1368.09</ele>
        <time>2017-10-17T09:38:23Z</time>
      </trkpt>
      <trkpt lat="46.04088" lon="6.79176">
        <ele>1368.57</ele>
        <time>2017-10-17T09:38:24Z</time>
      </trkpt>
      <trkpt lat="46.04084" lon="6.79177">
        <ele>1369.05</ele>
        <time>2017-10-17T09:38:29Z</time>
      </trkpt>
      <trkpt lat="46.04083" lon="6.79177">
        <ele>1369.05</ele>
        <time>2017-10-17T09:38:30Z</time>
      </trkpt>
      <trkpt lat="46.0408" lon="6.79177">
        <ele>1369.54</ele>
        <time>2017-10-17T09:38:31Z</time>
      </trkpt>
      <trkpt lat="46.04063" lon="6.79187">
        <ele>1371.94</ele>
        <time>2017-10-17T09:38:44Z</time>
      </trkpt>
      <trkpt lat="46.04056" lon="6.79192">
        <ele>1373.86</ele>
        <time>2017-10-17T09:38:54Z</time>
      </trkpt>
      <trkpt lat="46.04057" lon="6.79191">
        <ele>1375.78</ele>
        <time>2017-10-17T09:39:02Z</time>
      </trkpt>
      <trkpt lat="46.04066" lon="6.79195">
        <ele>1378.67</ele>
        <time>2017-10-17T09:39:16Z</time>
      </trkpt>
      <trkpt lat="46.04067" lon="6.79196">
        <ele>1378.67</ele>
        <time>2017-10-17T09:39:17Z</time>
      </trkpt>
      <trkpt lat="46.04068" lon="6.79197">
        <ele>1379.15</ele>
        <time>2017-10-17T09:39:18Z</time>
      </trkpt>
      <trkpt lat="46.0407" lon="6.79197">
        <ele>1379.15</ele>
        <time>2017-10-17T09:39:19Z</time>
      </trkpt>
      <trkpt lat="46.04072" lon="6.79198">
        <ele>1379.63</ele>
        <time>2017-10-17T09:39:20Z</time>
      </trkpt>
      <trkpt lat="46.04073" lon="6.79199">
        <ele>1379.63</ele>
        <time>2017-10-17T09:39:21Z</time>
      </trkpt>
      <trkpt lat="46.04074" lon="6.792">
        <ele>1380.11</ele>
        <time>2017-10-17T09:39:22Z</time>
      </trkpt>
      <trkpt lat="46.04078" lon="6.79205">
        <ele>1380.59</ele>
        <time>2017-10-17T09:39:26Z</time>
      </trkpt>
      <trkpt lat="46.04079" lon="6.79206">
        <ele>1380.59</ele>
        <time>2017-10-17T09:39:27Z</time>
      </trkpt>
      <trkpt lat="46.0408" lon="6.79207">
        <ele>1381.07</ele>
        <time>2017-10-17T09:39:28Z</time>
      </trkpt>
      <trkpt lat="46.04082" lon="6.79208">
        <ele>1381.55</ele>
        <time>2017-10-17T09:39:29Z</time>
      </trkpt>
      <trkpt lat="46.04084" lon="6.7921">
        <ele>1381.55</ele>
        <time>2017-10-17T09:39:30Z</time>
      </trkpt>
      <trkpt lat="46.04085" lon="6.79211">
        <ele>1382.03</ele>
        <time>2017-10-17T09:39:31Z</time>
      </trkpt>
      <trkpt lat="46.04087" lon="6.79212">
        <ele>1382.03</ele>
        <time>2017-10-17T09:39:32Z</time>
      </trkpt>
      <trkpt lat="46.0409" lon="6.79215">
        <ele>1382.99</ele>
        <time>2017-10-17T09:39:35Z</time>
      </trkpt>
      <trkpt lat="46.04089" lon="6.79217">
        <ele>1382.99</ele>
        <time>2017-10-17T09:39:36Z</time>
      </trkpt>
      <trkpt lat="46.04089" lon="6.79218">
        <ele>1382.99</ele>
        <time>2017-10-17T09:39:37Z</time>
      </trkpt>
      <trkpt lat="46.04072" lon="6.79222">
        <ele>1386.36</ele>
        <time>2017-10-17T09:39:51Z</time>
      </trkpt>
      <trkpt lat="46.04065" lon="6.79222">
        <ele>1387.8</ele>
        <time>2017-10-17T09:39:59Z</time>
      </trkpt>
      <trkpt lat="46.04058" lon="6.79224">
        <ele>1388.28</ele>
        <time>2017-10-17T09:40:04Z</time>
      </trkpt>
      <trkpt lat="46.04055" lon="6.79235">
        <ele>1390.2</ele>
        <time>2017-10-17T09:40:12Z</time>
      </trkpt>
      <trkpt lat="46.04055" lon="6.79237">
        <ele>1390.68</ele>
        <time>2017-10-17T09:40:13Z</time>
      </trkpt>
      <trkpt lat="46.04055" lon="6.79237">
        <ele>1390.68</ele>
        <time>2017-10-17T09:40:14Z</time>
      </trkpt>
      <trkpt lat="46.04054" lon="6.79238">
        <ele>1391.17</ele>
        <time>2017-10-17T09:40:15Z</time>
      </trkpt>
      <trkpt lat="46.04052" lon="6.79239">
        <ele>1391.17</ele>
        <time>2017-10-17T09:40:17Z</time>
      </trkpt>
      <trkpt lat="46.04052" lon="6.7924">
        <ele>1392.13</ele>
        <time>2017-10-17T09:40:20Z</time>
      </trkpt>
      <trkpt lat="46.04056" lon="6.79241">
        <ele>1393.57</ele>
        <time>2017-10-17T09:40:26Z</time>
      </trkpt>
      <trkpt lat="46.04057" lon="6.7924">
        <ele>1393.57</ele>
        <time>2017-10-17T09:40:27Z</time>
      </trkpt>
      <trkpt lat="46.04059" lon="6.7924">
        <ele>1394.05</ele>
        <time>2017-10-17T09:40:28Z</time>
      </trkpt>
      <trkpt lat="46.04061" lon="6.79241">
        <ele>1395.01</ele>
        <time>2017-10-17T09:40:32Z</time>
      </trkpt>
      <trkpt lat="46.04061" lon="6.79241">
        <ele>1395.01</ele>
        <time>2017-10-17T09:40:33Z</time>
      </trkpt>
      <trkpt lat="46.04064" lon="6.79239">
        <ele>1395.49</ele>
        <time>2017-10-17T09:40:38Z</time>
      </trkpt>
      <trkpt lat="46.04066" lon="6.79239">
        <ele>1395.97</ele>
        <time>2017-10-17T09:40:45Z</time>
      </trkpt>
      <trkpt lat="46.04067" lon="6.7924">
        <ele>1396.45</ele>
        <time>2017-10-17T09:40:46Z</time>
      </trkpt>
      <trkpt lat="46.04077" lon="6.79245">
        <ele>1398.86</ele>
        <time>2017-10-17T09:40:58Z</time>
      </trkpt>
      <trkpt lat="46.04083" lon="6.79249">
        <ele>1399.34</ele>
        <time>2017-10-17T09:41:02Z</time>
      </trkpt>
      <trkpt lat="46.04085" lon="6.79249">
        <ele>1399.82</ele>
        <time>2017-10-17T09:41:03Z</time>
      </trkpt>
      <trkpt lat="46.04087" lon="6.7925">
        <ele>1399.82</ele>
        <time>2017-10-17T09:41:04Z</time>
      </trkpt>
      <trkpt lat="46.04096" lon="6.79256">
        <ele>1401.26</ele>
        <time>2017-10-17T09:41:13Z</time>
      </trkpt>
      <trkpt lat="46.04097" lon="6.7926">
        <ele>1402.22</ele>
        <time>2017-10-17T09:41:17Z</time>
      </trkpt>
      <trkpt lat="46.04098" lon="6.79264">
        <ele>1402.7</ele>
        <time>2017-10-17T09:41:21Z</time>
      </trkpt>
      <trkpt lat="46.04097" lon="6.79265">
        <ele>1402.7</ele>
        <time>2017-10-17T09:41:22Z</time>
      </trkpt>
      <trkpt lat="46.04097" lon="6.79266">
        <ele>1403.18</ele>
        <time>2017-10-17T09:41:23Z</time>
      </trkpt>
      <trkpt lat="46.04096" lon="6.79268">
        <ele>1403.18</ele>
        <time>2017-10-17T09:41:24Z</time>
      </trkpt>
      <trkpt lat="46.04096" lon="6.79269">
        <ele>1403.18</ele>
        <time>2017-10-17T09:41:25Z</time>
      </trkpt>
      <trkpt lat="46.04098" lon="6.7927">
        <ele>1403.66</ele>
        <time>2017-10-17T09:41:26Z</time>
      </trkpt>
      <trkpt lat="46.04098" lon="6.79272">
        <ele>1403.66</ele>
        <time>2017-10-17T09:41:27Z</time>
      </trkpt>
      <trkpt lat="46.04099" lon="6.79273">
        <ele>1403.66</ele>
        <time>2017-10-17T09:41:28Z</time>
      </trkpt>
      <trkpt lat="46.041" lon="6.79275">
        <ele>1404.14</ele>
        <time>2017-10-17T09:41:29Z</time>
      </trkpt>
      <trkpt lat="46.041" lon="6.79276">
        <ele>1404.14</ele>
        <time>2017-10-17T09:41:30Z</time>
      </trkpt>
      <trkpt lat="46.041" lon="6.79278">
        <ele>1404.62</ele>
        <time>2017-10-17T09:41:31Z</time>
      </trkpt>
      <trkpt lat="46.04101" lon="6.79279">
        <ele>1404.62</ele>
        <time>2017-10-17T09:41:32Z</time>
      </trkpt>
      <trkpt lat="46.04101" lon="6.7928">
        <ele>1404.62</ele>
        <time>2017-10-17T09:41:33Z</time>
      </trkpt>
      <trkpt lat="46.04101" lon="6.79286">
        <ele>1405.58</ele>
        <time>2017-10-17T09:41:40Z</time>
      </trkpt>
      <trkpt lat="46.04101" lon="6.79285">
        <ele>1405.58</ele>
        <time>2017-10-17T09:41:41Z</time>
      </trkpt>
      <trkpt lat="46.04098" lon="6.79284">
        <ele>1405.58</ele>
        <time>2017-10-17T09:41:42Z</time>
      </trkpt>
      <trkpt lat="46.04075" lon="6.79273">
        <ele>1408.47</ele>
        <time>2017-10-17T09:41:55Z</time>
      </trkpt>
      <trkpt lat="46.04066" lon="6.79275">
        <ele>1410.87</ele>
        <time>2017-10-17T09:42:04Z</time>
      </trkpt>
      <trkpt lat="46.04065" lon="6.79276">
        <ele>1411.35</ele>
        <time>2017-10-17T09:42:05Z</time>
      </trkpt>
      <trkpt lat="46.04057" lon="6.79281">
        <ele>1412.79</ele>
        <time>2017-10-17T09:42:11Z</time>
      </trkpt>
      <trkpt lat="46.0405" lon="6.79288">
        <ele>1415.2</ele>
        <time>2017-10-17T09:42:22Z</time>
      </trkpt>
      <trkpt lat="46.04048" lon="6.79288">
        <ele>1415.2</ele>
        <time>2017-10-17T09:42:23Z</time>
      </trkpt>
      <trkpt lat="46.04037" lon="6.79297">
        <ele>1415.68</ele>
        <time>2017-10-17T09:42:51Z</time>
      </trkpt>
      <trkpt lat="46.04031" lon="6.79297">
        <ele>1415.68</ele>
        <time>2017-10-17T09:43:11Z</time>
      </trkpt>
      <trkpt lat="46.0403" lon="6.79297">
        <ele>1415.68</ele>
        <time>2017-10-17T09:43:12Z</time>
      </trkpt>
      <trkpt lat="46.04026" lon="6.79308">
        <ele>1415.2</ele>
        <time>2017-10-17T09:43:36Z</time>
      </trkpt>
      <trkpt lat="46.04024" lon="6.79309">
        <ele>1415.2</ele>
        <time>2017-10-17T09:43:37Z</time>
      </trkpt>
      <trkpt lat="46.04008" lon="6.79313">
        <ele>1412.79</ele>
        <time>2017-10-17T09:43:46Z</time>
      </trkpt>
      <trkpt lat="46.04006" lon="6.79313">
        <ele>1412.79</ele>
        <time>2017-10-17T09:43:47Z</time>
      </trkpt>
      <trkpt lat="46.04004" lon="6.79313">
        <ele>1412.31</ele>
        <time>2017-10-17T09:43:48Z</time>
      </trkpt>
      <trkpt lat="46.04002" lon="6.79314">
        <ele>1411.83</ele>
        <time>2017-10-17T09:43:49Z</time>
      </trkpt>
      <trkpt lat="46.04" lon="6.79315">
        <ele>1411.83</ele>
        <time>2017-10-17T09:43:50Z</time>
      </trkpt>
      <trkpt lat="46.03988" lon="6.79318">
        <ele>1412.31</ele>
        <time>2017-10-17T09:43:55Z</time>
      </trkpt>
      <trkpt lat="46.03987" lon="6.79318">
        <ele>1412.79</ele>
        <time>2017-10-17T09:43:56Z</time>
      </trkpt>
      <trkpt lat="46.03986" lon="6.79318">
        <ele>1412.79</ele>
        <time>2017-10-17T09:43:57Z</time>
      </trkpt>
      <trkpt lat="46.03982" lon="6.79315">
        <ele>1412.31</ele>
        <time>2017-10-17T09:43:58Z</time>
      </trkpt>
      <trkpt lat="46.0398" lon="6.79313">
        <ele>1411.83</ele>
        <time>2017-10-17T09:43:59Z</time>
      </trkpt>
      <trkpt lat="46.03979" lon="6.79311">
        <ele>1411.83</ele>
        <time>2017-10-17T09:44:00Z</time>
      </trkpt>
      <trkpt lat="46.03978" lon="6.7931">
        <ele>1411.35</ele>
        <time>2017-10-17T09:44:01Z</time>
      </trkpt>
      <trkpt lat="46.03974" lon="6.79287">
        <ele>1409.43</ele>
        <time>2017-10-17T09:44:09Z</time>
      </trkpt>
      <trkpt lat="46.03974" lon="6.79285">
        <ele>1409.91</ele>
        <time>2017-10-17T09:44:10Z</time>
      </trkpt>
      <trkpt lat="46.03974" lon="6.79284">
        <ele>1409.91</ele>
        <time>2017-10-17T09:44:11Z</time>
      </trkpt>
      <trkpt lat="46.03973" lon="6.79282">
        <ele>1410.39</ele>
        <time>2017-10-17T09:44:12Z</time>
      </trkpt>
      <trkpt lat="46.0397" lon="6.79275">
        <ele>1412.31</ele>
        <time>2017-10-17T09:44:17Z</time>
      </trkpt>
      <trkpt lat="46.0397" lon="6.79273">
        <ele>1412.79</ele>
        <time>2017-10-17T09:44:18Z</time>
      </trkpt>
      <trkpt lat="46.0397" lon="6.7927">
        <ele>1412.79</ele>
        <time>2017-10-17T09:44:19Z</time>
      </trkpt>
      <trkpt lat="46.03969" lon="6.79268">
        <ele>1412.79</ele>
        <time>2017-10-17T09:44:20Z</time>
      </trkpt>
      <trkpt lat="46.03968" lon="6.79267">
        <ele>1413.28</ele>
        <time>2017-10-17T09:44:21Z</time>
      </trkpt>
      <trkpt lat="46.0396" lon="6.79248">
        <ele>1416.64</ele>
        <time>2017-10-17T09:44:32Z</time>
      </trkpt>
      <trkpt lat="46.03959" lon="6.79247">
        <ele>1416.64</ele>
        <time>2017-10-17T09:44:33Z</time>
      </trkpt>
      <trkpt lat="46.03958" lon="6.7925">
        <ele>1420</ele>
        <time>2017-10-17T09:44:42Z</time>
      </trkpt>
      <trkpt lat="46.03958" lon="6.79251">
        <ele>1420</ele>
        <time>2017-10-17T09:44:43Z</time>
      </trkpt>
      <trkpt lat="46.03958" lon="6.79252">
        <ele>1420</ele>
        <time>2017-10-17T09:44:44Z</time>
      </trkpt>
      <trkpt lat="46.03959" lon="6.79272">
        <ele>1421.45</ele>
        <time>2017-10-17T09:44:54Z</time>
      </trkpt>
      <trkpt lat="46.03959" lon="6.79274">
        <ele>1421.45</ele>
        <time>2017-10-17T09:44:55Z</time>
      </trkpt>
      <trkpt lat="46.03959" lon="6.79275">
        <ele>1421.93</ele>
        <time>2017-10-17T09:44:56Z</time>
      </trkpt>
      <trkpt lat="46.03958" lon="6.79277">
        <ele>1422.41</ele>
        <time>2017-10-17T09:44:57Z</time>
      </trkpt>
      <trkpt lat="46.03958" lon="6.79279">
        <ele>1422.41</ele>
        <time>2017-10-17T09:44:58Z</time>
      </trkpt>
      <trkpt lat="46.03957" lon="6.7928">
        <ele>1422.89</ele>
        <time>2017-10-17T09:44:59Z</time>
      </trkpt>
      <trkpt lat="46.03957" lon="6.79282">
        <ele>1423.37</ele>
        <time>2017-10-17T09:45:00Z</time>
      </trkpt>
      <trkpt lat="46.03956" lon="6.79284">
        <ele>1423.85</ele>
        <time>2017-10-17T09:45:01Z</time>
      </trkpt>
      <trkpt lat="46.03955" lon="6.79286">
        <ele>1424.81</ele>
        <time>2017-10-17T09:45:03Z</time>
      </trkpt>
      <trkpt lat="46.03954" lon="6.79287">
        <ele>1425.29</ele>
        <time>2017-10-17T09:45:04Z</time>
      </trkpt>
      <trkpt lat="46.03953" lon="6.79287">
        <ele>1425.77</ele>
        <time>2017-10-17T09:45:05Z</time>
      </trkpt>
      <trkpt lat="46.03953" lon="6.79286">
        <ele>1425.77</ele>
        <time>2017-10-17T09:45:06Z</time>
      </trkpt>
      <trkpt lat="46.03949" lon="6.79275">
        <ele>1429.14</ele>
        <time>2017-10-17T09:45:16Z</time>
      </trkpt>
      <trkpt lat="46.03945" lon="6.79259">
        <ele>1430.58</ele>
        <time>2017-10-17T09:45:25Z</time>
      </trkpt>
      <trkpt lat="46.03945" lon="6.79258">
        <ele>1431.06</ele>
        <time>2017-10-17T09:45:26Z</time>
      </trkpt>
      <trkpt lat="46.03944" lon="6.79257">
        <ele>1431.06</ele>
        <time>2017-10-17T09:45:27Z</time>
      </trkpt>
      <trkpt lat="46.03945" lon="6.79255">
        <ele>1431.54</ele>
        <time>2017-10-17T09:45:28Z</time>
      </trkpt>
      <trkpt lat="46.03946" lon="6.79253">
        <ele>1431.54</ele>
        <time>2017-10-17T09:45:29Z</time>
      </trkpt>
      <trkpt lat="46.03947" lon="6.79251">
        <ele>1432.02</ele>
        <time>2017-10-17T09:45:30Z</time>
      </trkpt>
      <trkpt lat="46.03947" lon="6.79249">
        <ele>1432.02</ele>
        <time>2017-10-17T09:45:31Z</time>
      </trkpt>
      <trkpt lat="46.03948" lon="6.79246">
        <ele>1432.02</ele>
        <time>2017-10-17T09:45:32Z</time>
      </trkpt>
      <trkpt lat="46.03949" lon="6.79244">
        <ele>1432.02</ele>
        <time>2017-10-17T09:45:33Z</time>
      </trkpt>
      <trkpt lat="46.03949" lon="6.79241">
        <ele>1432.02</ele>
        <time>2017-10-17T09:45:34Z</time>
      </trkpt>
      <trkpt lat="46.03948" lon="6.7924">
        <ele>1432.5</ele>
        <time>2017-10-17T09:45:35Z</time>
      </trkpt>
      <trkpt lat="46.03947" lon="6.79239">
        <ele>1432.5</ele>
        <time>2017-10-17T09:45:36Z</time>
      </trkpt>
      <trkpt lat="46.03946" lon="6.79239">
        <ele>1432.5</ele>
        <time>2017-10-17T09:45:37Z</time>
      </trkpt>
      <trkpt lat="46.03945" lon="6.79239">
        <ele>1432.5</ele>
        <time>2017-10-17T09:45:38Z</time>
      </trkpt>
      <trkpt lat="46.03944" lon="6.79238">
        <ele>1432.98</ele>
        <time>2017-10-17T09:45:39Z</time>
      </trkpt>
      <trkpt lat="46.03943" lon="6.79238">
        <ele>1432.98</ele>
        <time>2017-10-17T09:45:40Z</time>
      </trkpt>
      <trkpt lat="46.03942" lon="6.79238">
        <ele>1432.98</ele>
        <time>2017-10-17T09:45:41Z</time>
      </trkpt>
      <trkpt lat="46.03941" lon="6.79238">
        <ele>1433.46</ele>
        <time>2017-10-17T09:45:42Z</time>
      </trkpt>
      <trkpt lat="46.03939" lon="6.79239">
        <ele>1434.42</ele>
        <time>2017-10-17T09:45:45Z</time>
      </trkpt>
      <trkpt lat="46.03938" lon="6.7924">
        <ele>1434.91</ele>
        <time>2017-10-17T09:45:46Z</time>
      </trkpt>
      <trkpt lat="46.03937" lon="6.7924">
        <ele>1435.39</ele>
        <time>2017-10-17T09:45:48Z</time>
      </trkpt>
      <trkpt lat="46.03933" lon="6.79243">
        <ele>1436.35</ele>
        <time>2017-10-17T09:45:53Z</time>
      </trkpt>
      <trkpt lat="46.03931" lon="6.79243">
        <ele>1436.83</ele>
        <time>2017-10-17T09:45:55Z</time>
      </trkpt>
      <trkpt lat="46.03929" lon="6.79243">
        <ele>1437.31</ele>
        <time>2017-10-17T09:45:57Z</time>
      </trkpt>
      <trkpt lat="46.03928" lon="6.79243">
        <ele>1437.31</ele>
        <time>2017-10-17T09:45:58Z</time>
      </trkpt>
      <trkpt lat="46.03927" lon="6.79241">
        <ele>1437.79</ele>
        <time>2017-10-17T09:46:00Z</time>
      </trkpt>
      <trkpt lat="46.03928" lon="6.7924">
        <ele>1437.79</ele>
        <time>2017-10-17T09:46:01Z</time>
      </trkpt>
      <trkpt lat="46.03929" lon="6.79239">
        <ele>1437.79</ele>
        <time>2017-10-17T09:46:02Z</time>
      </trkpt>
      <trkpt lat="46.03929" lon="6.79234">
        <ele>1437.31</ele>
        <time>2017-10-17T09:46:05Z</time>
      </trkpt>
      <trkpt lat="46.03929" lon="6.79232">
        <ele>1437.31</ele>
        <time>2017-10-17T09:46:06Z</time>
      </trkpt>
      <trkpt lat="46.03928" lon="6.79229">
        <ele>1437.31</ele>
        <time>2017-10-17T09:46:07Z</time>
      </trkpt>
      <trkpt lat="46.03926" lon="6.79226">
        <ele>1437.31</ele>
        <time>2017-10-17T09:46:08Z</time>
      </trkpt>
      <trkpt lat="46.03921" lon="6.79218">
        <ele>1439.23</ele>
        <time>2017-10-17T09:46:15Z</time>
      </trkpt>
      <trkpt lat="46.0392" lon="6.79216">
        <ele>1439.71</ele>
        <time>2017-10-17T09:46:16Z</time>
      </trkpt>
      <trkpt lat="46.03919" lon="6.79213">
        <ele>1440.19</ele>
        <time>2017-10-17T09:46:17Z</time>
      </trkpt>
      <trkpt lat="46.03918" lon="6.79211">
        <ele>1440.19</ele>
        <time>2017-10-17T09:46:18Z</time>
      </trkpt>
      <trkpt lat="46.03917" lon="6.79209">
        <ele>1440.19</ele>
        <time>2017-10-17T09:46:19Z</time>
      </trkpt>
      <trkpt lat="46.03916" lon="6.79208">
        <ele>1441.15</ele>
        <time>2017-10-17T09:46:20Z</time>
      </trkpt>
      <trkpt lat="46.03915" lon="6.79206">
        <ele>1441.15</ele>
        <time>2017-10-17T09:46:21Z</time>
      </trkpt>
      <trkpt lat="46.03914" lon="6.79205">
        <ele>1441.63</ele>
        <time>2017-10-17T09:46:22Z</time>
      </trkpt>
      <trkpt lat="46.03911" lon="6.79203">
        <ele>1444.04</ele>
        <time>2017-10-17T09:46:29Z</time>
      </trkpt>
      <trkpt lat="46.03912" lon="6.79206">
        <ele>1445</ele>
        <time>2017-10-17T09:46:32Z</time>
      </trkpt>
      <trkpt lat="46.03913" lon="6.79207">
        <ele>1445</ele>
        <time>2017-10-17T09:46:33Z</time>
      </trkpt>
      <trkpt lat="46.03917" lon="6.79212">
        <ele>1445.96</ele>
        <time>2017-10-17T09:46:37Z</time>
      </trkpt>
      <trkpt lat="46.03918" lon="6.79214">
        <ele>1445.96</ele>
        <time>2017-10-17T09:46:38Z</time>
      </trkpt>
      <trkpt lat="46.03918" lon="6.79237">
        <ele>1447.4</ele>
        <time>2017-10-17T09:46:49Z</time>
      </trkpt>
      <trkpt lat="46.03916" lon="6.79239">
        <ele>1447.4</ele>
        <time>2017-10-17T09:46:50Z</time>
      </trkpt>
      <trkpt lat="46.03915" lon="6.79241">
        <ele>1447.88</ele>
        <time>2017-10-17T09:46:51Z</time>
      </trkpt>
      <trkpt lat="46.03916" lon="6.79243">
        <ele>1447.88</ele>
        <time>2017-10-17T09:46:52Z</time>
      </trkpt>
      <trkpt lat="46.03917" lon="6.79245">
        <ele>1447.88</ele>
        <time>2017-10-17T09:46:53Z</time>
      </trkpt>
      <trkpt lat="46.03917" lon="6.79246">
        <ele>1448.36</ele>
        <time>2017-10-17T09:46:54Z</time>
      </trkpt>
      <trkpt lat="46.03919" lon="6.79247">
        <ele>1448.84</ele>
        <time>2017-10-17T09:46:55Z</time>
      </trkpt>
      <trkpt lat="46.0392" lon="6.7925">
        <ele>1449.81</ele>
        <time>2017-10-17T09:46:57Z</time>
      </trkpt>
      <trkpt lat="46.0392" lon="6.79252">
        <ele>1449.81</ele>
        <time>2017-10-17T09:46:58Z</time>
      </trkpt>
      <trkpt lat="46.03921" lon="6.79252">
        <ele>1449.81</ele>
        <time>2017-10-17T09:46:59Z</time>
      </trkpt>
      <trkpt lat="46.03922" lon="6.79252">
        <ele>1449.81</ele>
        <time>2017-10-17T09:47:00Z</time>
      </trkpt>
      <trkpt lat="46.03923" lon="6.79252">
        <ele>1449.81</ele>
        <time>2017-10-17T09:47:01Z</time>
      </trkpt>
      <trkpt lat="46.03924" lon="6.79252">
        <ele>1450.29</ele>
        <time>2017-10-17T09:47:02Z</time>
      </trkpt>
      <trkpt lat="46.03925" lon="6.79252">
        <ele>1450.77</ele>
        <time>2017-10-17T09:47:03Z</time>
      </trkpt>
      <trkpt lat="46.03927" lon="6.79252">
        <ele>1450.77</ele>
        <time>2017-10-17T09:47:04Z</time>
      </trkpt>
      <trkpt lat="46.03928" lon="6.79253">
        <ele>1450.77</ele>
        <time>2017-10-17T09:47:05Z</time>
      </trkpt>
      <trkpt lat="46.0393" lon="6.79255">
        <ele>1450.77</ele>
        <time>2017-10-17T09:47:06Z</time>
      </trkpt>
      <trkpt lat="46.03931" lon="6.79256">
        <ele>1450.77</ele>
        <time>2017-10-17T09:47:07Z</time>
      </trkpt>
      <trkpt lat="46.03933" lon="6.79258">
        <ele>1451.25</ele>
        <time>2017-10-17T09:47:08Z</time>
      </trkpt>
      <trkpt lat="46.03933" lon="6.79262">
        <ele>1451.73</ele>
        <time>2017-10-17T09:47:11Z</time>
      </trkpt>
      <trkpt lat="46.03931" lon="6.79262">
        <ele>1452.21</ele>
        <time>2017-10-17T09:47:12Z</time>
      </trkpt>
      <trkpt lat="46.0393" lon="6.79262">
        <ele>1452.21</ele>
        <time>2017-10-17T09:47:13Z</time>
      </trkpt>
      <trkpt lat="46.03929" lon="6.79262">
        <ele>1452.21</ele>
        <time>2017-10-17T09:47:14Z</time>
      </trkpt>
      <trkpt lat="46.03927" lon="6.79262">
        <ele>1452.69</ele>
        <time>2017-10-17T09:47:15Z</time>
      </trkpt>
      <trkpt lat="46.0391" lon="6.79263">
        <ele>1454.61</ele>
        <time>2017-10-17T09:47:25Z</time>
      </trkpt>
      <trkpt lat="46.03909" lon="6.79262">
        <ele>1455.09</ele>
        <time>2017-10-17T09:47:26Z</time>
      </trkpt>
      <trkpt lat="46.03907" lon="6.79261">
        <ele>1455.09</ele>
        <time>2017-10-17T09:47:27Z</time>
      </trkpt>
      <trkpt lat="46.03906" lon="6.7926">
        <ele>1455.57</ele>
        <time>2017-10-17T09:47:28Z</time>
      </trkpt>
      <trkpt lat="46.03905" lon="6.79259">
        <ele>1455.57</ele>
        <time>2017-10-17T09:47:29Z</time>
      </trkpt>
      <trkpt lat="46.03904" lon="6.79259">
        <ele>1456.05</ele>
        <time>2017-10-17T09:47:30Z</time>
      </trkpt>
      <trkpt lat="46.03903" lon="6.79258">
        <ele>1456.53</ele>
        <time>2017-10-17T09:47:31Z</time>
      </trkpt>
      <trkpt lat="46.03902" lon="6.79257">
        <ele>1456.53</ele>
        <time>2017-10-17T09:47:32Z</time>
      </trkpt>
      <trkpt lat="46.03899" lon="6.79255">
        <ele>1457.02</ele>
        <time>2017-10-17T09:47:35Z</time>
      </trkpt>
      <trkpt lat="46.03898" lon="6.79254">
        <ele>1457.98</ele>
        <time>2017-10-17T09:47:36Z</time>
      </trkpt>
      <trkpt lat="46.03898" lon="6.79253">
        <ele>1457.98</ele>
        <time>2017-10-17T09:47:37Z</time>
      </trkpt>
      <trkpt lat="46.03897" lon="6.79251">
        <ele>1458.46</ele>
        <time>2017-10-17T09:47:38Z</time>
      </trkpt>
      <trkpt lat="46.03897" lon="6.7925">
        <ele>1458.46</ele>
        <time>2017-10-17T09:47:39Z</time>
      </trkpt>
      <trkpt lat="46.03897" lon="6.79248">
        <ele>1458.46</ele>
        <time>2017-10-17T09:47:40Z</time>
      </trkpt>
      <trkpt lat="46.03897" lon="6.79238">
        <ele>1458.94</ele>
        <time>2017-10-17T09:47:45Z</time>
      </trkpt>
      <trkpt lat="46.03897" lon="6.79237">
        <ele>1459.42</ele>
        <time>2017-10-17T09:47:46Z</time>
      </trkpt>
      <trkpt lat="46.03894" lon="6.79219">
        <ele>1460.86</ele>
        <time>2017-10-17T09:47:55Z</time>
      </trkpt>
      <trkpt lat="46.03894" lon="6.79217">
        <ele>1460.86</ele>
        <time>2017-10-17T09:47:56Z</time>
      </trkpt>
      <trkpt lat="46.03893" lon="6.79215">
        <ele>1461.34</ele>
        <time>2017-10-17T09:47:57Z</time>
      </trkpt>
      <trkpt lat="46.03892" lon="6.79214">
        <ele>1461.34</ele>
        <time>2017-10-17T09:47:58Z</time>
      </trkpt>
      <trkpt lat="46.03892" lon="6.79215">
        <ele>1462.78</ele>
        <time>2017-10-17T09:48:02Z</time>
      </trkpt>
      <trkpt lat="46.03891" lon="6.79218">
        <ele>1463.74</ele>
        <time>2017-10-17T09:48:05Z</time>
      </trkpt>
      <trkpt lat="46.03892" lon="6.7922">
        <ele>1463.74</ele>
        <time>2017-10-17T09:48:06Z</time>
      </trkpt>
      <trkpt lat="46.03892" lon="6.79222">
        <ele>1464.23</ele>
        <time>2017-10-17T09:48:07Z</time>
      </trkpt>
      <trkpt lat="46.03893" lon="6.79224">
        <ele>1464.23</ele>
        <time>2017-10-17T09:48:08Z</time>
      </trkpt>
      <trkpt lat="46.03893" lon="6.79226">
        <ele>1464.71</ele>
        <time>2017-10-17T09:48:09Z</time>
      </trkpt>
      <trkpt lat="46.03894" lon="6.79228">
        <ele>1464.71</ele>
        <time>2017-10-17T09:48:10Z</time>
      </trkpt>
      <trkpt lat="46.03894" lon="6.79229">
        <ele>1465.19</ele>
        <time>2017-10-17T09:48:11Z</time>
      </trkpt>
      <trkpt lat="46.03893" lon="6.79231">
        <ele>1465.19</ele>
        <time>2017-10-17T09:48:12Z</time>
      </trkpt>
      <trkpt lat="46.03894" lon="6.79234">
        <ele>1465.67</ele>
        <time>2017-10-17T09:48:13Z</time>
      </trkpt>
      <trkpt lat="46.03895" lon="6.79236">
        <ele>1465.67</ele>
        <time>2017-10-17T09:48:14Z</time>
      </trkpt>
      <trkpt lat="46.03894" lon="6.79248">
        <ele>1466.15</ele>
        <time>2017-10-17T09:48:19Z</time>
      </trkpt>
      <trkpt lat="46.03894" lon="6.7925">
        <ele>1466.15</ele>
        <time>2017-10-17T09:48:20Z</time>
      </trkpt>
      <trkpt lat="46.03893" lon="6.79252">
        <ele>1466.63</ele>
        <time>2017-10-17T09:48:21Z</time>
      </trkpt>
      <trkpt lat="46.03892" lon="6.79253">
        <ele>1466.63</ele>
        <time>2017-10-17T09:48:22Z</time>
      </trkpt>
      <trkpt lat="46.03892" lon="6.79254">
        <ele>1466.63</ele>
        <time>2017-10-17T09:48:23Z</time>
      </trkpt>
      <trkpt lat="46.03892" lon="6.79256">
        <ele>1467.11</ele>
        <time>2017-10-17T09:48:24Z</time>
      </trkpt>
      <trkpt lat="46.03892" lon="6.79257">
        <ele>1467.59</ele>
        <time>2017-10-17T09:48:25Z</time>
      </trkpt>
      <trkpt lat="46.03893" lon="6.7926">
        <ele>1468.07</ele>
        <time>2017-10-17T09:48:27Z</time>
      </trkpt>
      <trkpt lat="46.03893" lon="6.79262">
        <ele>1468.07</ele>
        <time>2017-10-17T09:48:28Z</time>
      </trkpt>
      <trkpt lat="46.03893" lon="6.79264">
        <ele>1468.55</ele>
        <time>2017-10-17T09:48:29Z</time>
      </trkpt>
      <trkpt lat="46.03894" lon="6.79266">
        <ele>1468.55</ele>
        <time>2017-10-17T09:48:30Z</time>
      </trkpt>
      <trkpt lat="46.03894" lon="6.79268">
        <ele>1469.03</ele>
        <time>2017-10-17T09:48:31Z</time>
      </trkpt>
      <trkpt lat="46.03895" lon="6.7927">
        <ele>1469.03</ele>
        <time>2017-10-17T09:48:32Z</time>
      </trkpt>
      <trkpt lat="46.03896" lon="6.79273">
        <ele>1469.03</ele>
        <time>2017-10-17T09:48:33Z</time>
      </trkpt>
      <trkpt lat="46.03896" lon="6.79275">
        <ele>1469.03</ele>
        <time>2017-10-17T09:48:34Z</time>
      </trkpt>
      <trkpt lat="46.03897" lon="6.79276">
        <ele>1469.03</ele>
        <time>2017-10-17T09:48:35Z</time>
      </trkpt>
      <trkpt lat="46.03898" lon="6.79278">
        <ele>1469.51</ele>
        <time>2017-10-17T09:48:36Z</time>
      </trkpt>
      <trkpt lat="46.03899" lon="6.7928">
        <ele>1469.51</ele>
        <time>2017-10-17T09:48:37Z</time>
      </trkpt>
      <trkpt lat="46.03899" lon="6.79282">
        <ele>1469.99</ele>
        <time>2017-10-17T09:48:38Z</time>
      </trkpt>
      <trkpt lat="46.03906" lon="6.7929">
        <ele>1471.44</ele>
        <time>2017-10-17T09:48:47Z</time>
      </trkpt>
      <trkpt lat="46.03907" lon="6.79291">
        <ele>1471.92</ele>
        <time>2017-10-17T09:48:48Z</time>
      </trkpt>
      <trkpt lat="46.03913" lon="6.79299">
        <ele>1473.36</ele>
        <time>2017-10-17T09:48:56Z</time>
      </trkpt>
      <trkpt lat="46.03912" lon="6.79301">
        <ele>1473.36</ele>
        <time>2017-10-17T09:48:57Z</time>
      </trkpt>
      <trkpt lat="46.03911" lon="6.79303">
        <ele>1473.36</ele>
        <time>2017-10-17T09:48:58Z</time>
      </trkpt>
      <trkpt lat="46.03907" lon="6.79309">
        <ele>1474.8</ele>
        <time>2017-10-17T09:49:03Z</time>
      </trkpt>
      <trkpt lat="46.03907" lon="6.79311">
        <ele>1474.8</ele>
        <time>2017-10-17T09:49:04Z</time>
      </trkpt>
      <trkpt lat="46.03907" lon="6.79314">
        <ele>1475.28</ele>
        <time>2017-10-17T09:49:06Z</time>
      </trkpt>
      <trkpt lat="46.03906" lon="6.79316">
        <ele>1475.76</ele>
        <time>2017-10-17T09:49:07Z</time>
      </trkpt>
      <trkpt lat="46.03906" lon="6.79318">
        <ele>1475.76</ele>
        <time>2017-10-17T09:49:08Z</time>
      </trkpt>
      <trkpt lat="46.03906" lon="6.79319">
        <ele>1476.24</ele>
        <time>2017-10-17T09:49:09Z</time>
      </trkpt>
      <trkpt lat="46.03905" lon="6.79321">
        <ele>1476.72</ele>
        <time>2017-10-17T09:49:10Z</time>
      </trkpt>
      <trkpt lat="46.03901" lon="6.79329">
        <ele>1477.68</ele>
        <time>2017-10-17T09:49:15Z</time>
      </trkpt>
      <trkpt lat="46.039" lon="6.7933">
        <ele>1477.68</ele>
        <time>2017-10-17T09:49:16Z</time>
      </trkpt>
      <trkpt lat="46.03899" lon="6.79332">
        <ele>1477.68</ele>
        <time>2017-10-17T09:49:17Z</time>
      </trkpt>
      <trkpt lat="46.03899" lon="6.79333">
        <ele>1477.68</ele>
        <time>2017-10-17T09:49:18Z</time>
      </trkpt>
      <trkpt lat="46.03894" lon="6.7934">
        <ele>1479.13</ele>
        <time>2017-10-17T09:49:22Z</time>
      </trkpt>
      <trkpt lat="46.03892" lon="6.79346">
        <ele>1479.61</ele>
        <time>2017-10-17T09:49:25Z</time>
      </trkpt>
      <trkpt lat="46.03891" lon="6.79348">
        <ele>1479.61</ele>
        <time>2017-10-17T09:49:26Z</time>
      </trkpt>
      <trkpt lat="46.03891" lon="6.7935">
        <ele>1479.61</ele>
        <time>2017-10-17T09:49:27Z</time>
      </trkpt>
      <trkpt lat="46.03891" lon="6.79352">
        <ele>1480.09</ele>
        <time>2017-10-17T09:49:28Z</time>
      </trkpt>
      <trkpt lat="46.03891" lon="6.79354">
        <ele>1480.57</ele>
        <time>2017-10-17T09:49:29Z</time>
      </trkpt>
      <trkpt lat="46.03891" lon="6.79356">
        <ele>1480.57</ele>
        <time>2017-10-17T09:49:30Z</time>
      </trkpt>
      <trkpt lat="46.03891" lon="6.79358">
        <ele>1480.57</ele>
        <time>2017-10-17T09:49:31Z</time>
      </trkpt>
      <trkpt lat="46.0389" lon="6.79361">
        <ele>1481.05</ele>
        <time>2017-10-17T09:49:32Z</time>
      </trkpt>
      <trkpt lat="46.0389" lon="6.79363">
        <ele>1481.05</ele>
        <time>2017-10-17T09:49:33Z</time>
      </trkpt>
      <trkpt lat="46.03889" lon="6.79368">
        <ele>1482.01</ele>
        <time>2017-10-17T09:49:35Z</time>
      </trkpt>
      <trkpt lat="46.03889" lon="6.7937">
        <ele>1482.49</ele>
        <time>2017-10-17T09:49:36Z</time>
      </trkpt>
      <trkpt lat="46.03888" lon="6.79372">
        <ele>1482.49</ele>
        <time>2017-10-17T09:49:37Z</time>
      </trkpt>
      <trkpt lat="46.03888" lon="6.79374">
        <ele>1482.97</ele>
        <time>2017-10-17T09:49:38Z</time>
      </trkpt>
      <trkpt lat="46.03887" lon="6.79377">
        <ele>1482.97</ele>
        <time>2017-10-17T09:49:39Z</time>
      </trkpt>
      <trkpt lat="46.03886" lon="6.79379">
        <ele>1482.97</ele>
        <time>2017-10-17T09:49:40Z</time>
      </trkpt>
      <trkpt lat="46.03886" lon="6.79381">
        <ele>1483.45</ele>
        <time>2017-10-17T09:49:41Z</time>
      </trkpt>
      <trkpt lat="46.03885" lon="6.79384">
        <ele>1483.45</ele>
        <time>2017-10-17T09:49:42Z</time>
      </trkpt>
      <trkpt lat="46.03884" lon="6.79386">
        <ele>1483.93</ele>
        <time>2017-10-17T09:49:43Z</time>
      </trkpt>
      <trkpt lat="46.03883" lon="6.79388">
        <ele>1484.41</ele>
        <time>2017-10-17T09:49:44Z</time>
      </trkpt>
      <trkpt lat="46.03883" lon="6.7939">
        <ele>1484.89</ele>
        <time>2017-10-17T09:49:45Z</time>
      </trkpt>
      <trkpt lat="46.03883" lon="6.79392">
        <ele>1484.89</ele>
        <time>2017-10-17T09:49:46Z</time>
      </trkpt>
      <trkpt lat="46.03882" lon="6.79395">
        <ele>1485.37</ele>
        <time>2017-10-17T09:49:47Z</time>
      </trkpt>
      <trkpt lat="46.03877" lon="6.79405">
        <ele>1488.26</ele>
        <time>2017-10-17T09:50:00Z</time>
      </trkpt>
      <trkpt lat="46.03876" lon="6.79404">
        <ele>1488.26</ele>
        <time>2017-10-17T09:50:01Z</time>
      </trkpt>
      <trkpt lat="46.03872" lon="6.79393">
        <ele>1491.62</ele>
        <time>2017-10-17T09:50:12Z</time>
      </trkpt>
      <trkpt lat="46.03872" lon="6.79389">
        <ele>1492.1</ele>
        <time>2017-10-17T09:50:15Z</time>
      </trkpt>
      <trkpt lat="46.03873" lon="6.79387">
        <ele>1492.1</ele>
        <time>2017-10-17T09:50:16Z</time>
      </trkpt>
      <trkpt lat="46.03872" lon="6.79379">
        <ele>1492.1</ele>
        <time>2017-10-17T09:50:20Z</time>
      </trkpt>
      <trkpt lat="46.03872" lon="6.79377">
        <ele>1492.58</ele>
        <time>2017-10-17T09:50:21Z</time>
      </trkpt>
      <trkpt lat="46.03871" lon="6.79375">
        <ele>1492.58</ele>
        <time>2017-10-17T09:50:22Z</time>
      </trkpt>
      <trkpt lat="46.03869" lon="6.79366">
        <ele>1493.55</ele>
        <time>2017-10-17T09:50:26Z</time>
      </trkpt>
      <trkpt lat="46.03869" lon="6.79363">
        <ele>1494.03</ele>
        <time>2017-10-17T09:50:27Z</time>
      </trkpt>
      <trkpt lat="46.03869" lon="6.79361">
        <ele>1494.03</ele>
        <time>2017-10-17T09:50:28Z</time>
      </trkpt>
      <trkpt lat="46.0387" lon="6.79359">
        <ele>1494.51</ele>
        <time>2017-10-17T09:50:29Z</time>
      </trkpt>
      <trkpt lat="46.0387" lon="6.79356">
        <ele>1494.03</ele>
        <time>2017-10-17T09:50:30Z</time>
      </trkpt>
      <trkpt lat="46.0387" lon="6.79353">
        <ele>1494.03</ele>
        <time>2017-10-17T09:50:31Z</time>
      </trkpt>
      <trkpt lat="46.03869" lon="6.79351">
        <ele>1494.03</ele>
        <time>2017-10-17T09:50:32Z</time>
      </trkpt>
      <trkpt lat="46.03869" lon="6.79349">
        <ele>1494.51</ele>
        <time>2017-10-17T09:50:33Z</time>
      </trkpt>
      <trkpt lat="46.03865" lon="6.79342">
        <ele>1496.43</ele>
        <time>2017-10-17T09:50:38Z</time>
      </trkpt>
      <trkpt lat="46.03864" lon="6.79341">
        <ele>1496.43</ele>
        <time>2017-10-17T09:50:39Z</time>
      </trkpt>
      <trkpt lat="46.03864" lon="6.79339">
        <ele>1496.91</ele>
        <time>2017-10-17T09:50:40Z</time>
      </trkpt>
      <trkpt lat="46.03864" lon="6.79337">
        <ele>1496.91</ele>
        <time>2017-10-17T09:50:41Z</time>
      </trkpt>
      <trkpt lat="46.03865" lon="6.79334">
        <ele>1497.39</ele>
        <time>2017-10-17T09:50:42Z</time>
      </trkpt>
      <trkpt lat="46.03866" lon="6.79332">
        <ele>1497.39</ele>
        <time>2017-10-17T09:50:43Z</time>
      </trkpt>
      <trkpt lat="46.03867" lon="6.7933">
        <ele>1497.87</ele>
        <time>2017-10-17T09:50:44Z</time>
      </trkpt>
      <trkpt lat="46.03867" lon="6.79328">
        <ele>1498.35</ele>
        <time>2017-10-17T09:50:45Z</time>
      </trkpt>
      <trkpt lat="46.03867" lon="6.79327">
        <ele>1498.35</ele>
        <time>2017-10-17T09:50:46Z</time>
      </trkpt>
      <trkpt lat="46.03867" lon="6.79325">
        <ele>1498.35</ele>
        <time>2017-10-17T09:50:47Z</time>
      </trkpt>
      <trkpt lat="46.03866" lon="6.79323">
        <ele>1498.35</ele>
        <time>2017-10-17T09:50:48Z</time>
      </trkpt>
      <trkpt lat="46.03866" lon="6.79321">
        <ele>1498.83</ele>
        <time>2017-10-17T09:50:49Z</time>
      </trkpt>
      <trkpt lat="46.0386" lon="6.79313">
        <ele>1499.79</ele>
        <time>2017-10-17T09:50:56Z</time>
      </trkpt>
      <trkpt lat="46.0386" lon="6.79312">
        <ele>1500.27</ele>
        <time>2017-10-17T09:50:57Z</time>
      </trkpt>
      <trkpt lat="46.03858" lon="6.79308">
        <ele>1501.24</ele>
        <time>2017-10-17T09:51:01Z</time>
      </trkpt>
      <trkpt lat="46.03857" lon="6.79307">
        <ele>1501.72</ele>
        <time>2017-10-17T09:51:03Z</time>
      </trkpt>
      <trkpt lat="46.03855" lon="6.79305">
        <ele>1502.2</ele>
        <time>2017-10-17T09:51:04Z</time>
      </trkpt>
      <trkpt lat="46.03853" lon="6.79305">
        <ele>1502.2</ele>
        <time>2017-10-17T09:51:05Z</time>
      </trkpt>
      <trkpt lat="46.03852" lon="6.79303">
        <ele>1502.68</ele>
        <time>2017-10-17T09:51:06Z</time>
      </trkpt>
      <trkpt lat="46.03851" lon="6.79302">
        <ele>1502.68</ele>
        <time>2017-10-17T09:51:07Z</time>
      </trkpt>
      <trkpt lat="46.0385" lon="6.793">
        <ele>1502.68</ele>
        <time>2017-10-17T09:51:08Z</time>
      </trkpt>
      <trkpt lat="46.03848" lon="6.79299">
        <ele>1502.68</ele>
        <time>2017-10-17T09:51:09Z</time>
      </trkpt>
      <trkpt lat="46.03834" lon="6.79282">
        <ele>1506.04</ele>
        <time>2017-10-17T09:51:22Z</time>
      </trkpt>
      <trkpt lat="46.0382" lon="6.79261">
        <ele>1508.45</ele>
        <time>2017-10-17T09:51:35Z</time>
      </trkpt>
      <trkpt lat="46.0382" lon="6.7926">
        <ele>1508.45</ele>
        <time>2017-10-17T09:51:36Z</time>
      </trkpt>
      <trkpt lat="46.0382" lon="6.79258">
        <ele>1508.45</ele>
        <time>2017-10-17T09:51:37Z</time>
      </trkpt>
      <trkpt lat="46.03819" lon="6.79256">
        <ele>1508.45</ele>
        <time>2017-10-17T09:51:38Z</time>
      </trkpt>
      <trkpt lat="46.03818" lon="6.79259">
        <ele>1510.37</ele>
        <time>2017-10-17T09:51:44Z</time>
      </trkpt>
      <trkpt lat="46.03821" lon="6.79277">
        <ele>1513.25</ele>
        <time>2017-10-17T09:51:58Z</time>
      </trkpt>
      <trkpt lat="46.03822" lon="6.79287">
        <ele>1514.21</ele>
        <time>2017-10-17T09:52:04Z</time>
      </trkpt>
      <trkpt lat="46.03822" lon="6.79289">
        <ele>1514.69</ele>
        <time>2017-10-17T09:52:05Z</time>
      </trkpt>
      <trkpt lat="46.03823" lon="6.79291">
        <ele>1514.69</ele>
        <time>2017-10-17T09:52:06Z</time>
      </trkpt>
      <trkpt lat="46.03824" lon="6.79293">
        <ele>1515.18</ele>
        <time>2017-10-17T09:52:07Z</time>
      </trkpt>
      <trkpt lat="46.03824" lon="6.79295">
        <ele>1515.18</ele>
        <time>2017-10-17T09:52:08Z</time>
      </trkpt>
      <trkpt lat="46.03825" lon="6.79297">
        <ele>1515.66</ele>
        <time>2017-10-17T09:52:09Z</time>
      </trkpt>
      <trkpt lat="46.03825" lon="6.79298">
        <ele>1516.14</ele>
        <time>2017-10-17T09:52:10Z</time>
      </trkpt>
      <trkpt lat="46.03826" lon="6.793">
        <ele>1516.14</ele>
        <time>2017-10-17T09:52:11Z</time>
      </trkpt>
      <trkpt lat="46.03826" lon="6.79302">
        <ele>1516.62</ele>
        <time>2017-10-17T09:52:12Z</time>
      </trkpt>
      <trkpt lat="46.03827" lon="6.79303">
        <ele>1516.62</ele>
        <time>2017-10-17T09:52:13Z</time>
      </trkpt>
      <trkpt lat="46.03827" lon="6.79305">
        <ele>1517.1</ele>
        <time>2017-10-17T09:52:14Z</time>
      </trkpt>
      <trkpt lat="46.03828" lon="6.79306">
        <ele>1517.1</ele>
        <time>2017-10-17T09:52:15Z</time>
      </trkpt>
      <trkpt lat="46.03831" lon="6.79314">
        <ele>1518.06</ele>
        <time>2017-10-17T09:52:20Z</time>
      </trkpt>
      <trkpt lat="46.03832" lon="6.79319">
        <ele>1519.02</ele>
        <time>2017-10-17T09:52:23Z</time>
      </trkpt>
      <trkpt lat="46.03832" lon="6.79322">
        <ele>1519.98</ele>
        <time>2017-10-17T09:52:25Z</time>
      </trkpt>
      <trkpt lat="46.03832" lon="6.79325">
        <ele>1520.46</ele>
        <time>2017-10-17T09:52:27Z</time>
      </trkpt>
      <trkpt lat="46.03833" lon="6.79347">
        <ele>1523.35</ele>
        <time>2017-10-17T09:52:42Z</time>
      </trkpt>
      <trkpt lat="46.03835" lon="6.7935">
        <ele>1524.31</ele>
        <time>2017-10-17T09:52:45Z</time>
      </trkpt>
      <trkpt lat="46.03837" lon="6.79353">
        <ele>1525.27</ele>
        <time>2017-10-17T09:52:50Z</time>
      </trkpt>
      <trkpt lat="46.03838" lon="6.79356">
        <ele>1526.23</ele>
        <time>2017-10-17T09:52:54Z</time>
      </trkpt>
      <trkpt lat="46.03839" lon="6.79357">
        <ele>1526.71</ele>
        <time>2017-10-17T09:52:55Z</time>
      </trkpt>
      <trkpt lat="46.03839" lon="6.79359">
        <ele>1526.71</ele>
        <time>2017-10-17T09:52:56Z</time>
      </trkpt>
      <trkpt lat="46.03838" lon="6.79375">
        <ele>1529.59</ele>
        <time>2017-10-17T09:53:09Z</time>
      </trkpt>
      <trkpt lat="46.0383" lon="6.79392">
        <ele>1532</ele>
        <time>2017-10-17T09:53:22Z</time>
      </trkpt>
      <trkpt lat="46.03829" lon="6.79393">
        <ele>1532.48</ele>
        <time>2017-10-17T09:53:23Z</time>
      </trkpt>
      <trkpt lat="46.03827" lon="6.79395">
        <ele>1532.96</ele>
        <time>2017-10-17T09:53:24Z</time>
      </trkpt>
      <trkpt lat="46.03825" lon="6.79396">
        <ele>1532.96</ele>
        <time>2017-10-17T09:53:25Z</time>
      </trkpt>
      <trkpt lat="46.03825" lon="6.79397">
        <ele>1533.44</ele>
        <time>2017-10-17T09:53:26Z</time>
      </trkpt>
      <trkpt lat="46.03822" lon="6.79402">
        <ele>1534.88</ele>
        <time>2017-10-17T09:53:32Z</time>
      </trkpt>
      <trkpt lat="46.03823" lon="6.79406">
        <ele>1535.36</ele>
        <time>2017-10-17T09:53:36Z</time>
      </trkpt>
      <trkpt lat="46.03824" lon="6.79427">
        <ele>1538.25</ele>
        <time>2017-10-17T09:53:50Z</time>
      </trkpt>
      <trkpt lat="46.03824" lon="6.79428">
        <ele>1538.25</ele>
        <time>2017-10-17T09:53:51Z</time>
      </trkpt>
      <trkpt lat="46.03822" lon="6.79439">
        <ele>1541.13</ele>
        <time>2017-10-17T09:54:01Z</time>
      </trkpt>
      <trkpt lat="46.03822" lon="6.7944">
        <ele>1541.61</ele>
        <time>2017-10-17T09:54:02Z</time>
      </trkpt>
      <trkpt lat="46.03821" lon="6.79442">
        <ele>1541.61</ele>
        <time>2017-10-17T09:54:03Z</time>
      </trkpt>
      <trkpt lat="46.03821" lon="6.79443">
        <ele>1542.09</ele>
        <time>2017-10-17T09:54:04Z</time>
      </trkpt>
      <trkpt lat="46.0382" lon="6.79444">
        <ele>1542.09</ele>
        <time>2017-10-17T09:54:05Z</time>
      </trkpt>
      <trkpt lat="46.0382" lon="6.79446">
        <ele>1542.57</ele>
        <time>2017-10-17T09:54:06Z</time>
      </trkpt>
      <trkpt lat="46.0382" lon="6.79448">
        <ele>1542.57</ele>
        <time>2017-10-17T09:54:07Z</time>
      </trkpt>
      <trkpt lat="46.0382" lon="6.79451">
        <ele>1542.57</ele>
        <time>2017-10-17T09:54:08Z</time>
      </trkpt>
      <trkpt lat="46.03819" lon="6.79454">
        <ele>1542.57</ele>
        <time>2017-10-17T09:54:09Z</time>
      </trkpt>
      <trkpt lat="46.03817" lon="6.79463">
        <ele>1543.53</ele>
        <time>2017-10-17T09:54:14Z</time>
      </trkpt>
      <trkpt lat="46.03817" lon="6.79464">
        <ele>1544.01</ele>
        <time>2017-10-17T09:54:15Z</time>
      </trkpt>
      <trkpt lat="46.03815" lon="6.79468">
        <ele>1545.46</ele>
        <time>2017-10-17T09:54:19Z</time>
      </trkpt>
      <trkpt lat="46.03814" lon="6.79474">
        <ele>1546.9</ele>
        <time>2017-10-17T09:54:24Z</time>
      </trkpt>
      <trkpt lat="46.03813" lon="6.79475">
        <ele>1547.38</ele>
        <time>2017-10-17T09:54:25Z</time>
      </trkpt>
      <trkpt lat="46.03812" lon="6.79478">
        <ele>1547.86</ele>
        <time>2017-10-17T09:54:27Z</time>
      </trkpt>
      <trkpt lat="46.03812" lon="6.79481">
        <ele>1548.34</ele>
        <time>2017-10-17T09:54:29Z</time>
      </trkpt>
      <trkpt lat="46.03812" lon="6.79482">
        <ele>1548.82</ele>
        <time>2017-10-17T09:54:30Z</time>
      </trkpt>
      <trkpt lat="46.03809" lon="6.7949">
        <ele>1551.22</ele>
        <time>2017-10-17T09:54:38Z</time>
      </trkpt>
      <trkpt lat="46.03808" lon="6.79492">
        <ele>1551.22</ele>
        <time>2017-10-17T09:54:39Z</time>
      </trkpt>
      <trkpt lat="46.03808" lon="6.79498">
        <ele>1552.67</ele>
        <time>2017-10-17T09:54:44Z</time>
      </trkpt>
      <trkpt lat="46.03808" lon="6.795">
        <ele>1553.15</ele>
        <time>2017-10-17T09:54:45Z</time>
      </trkpt>
      <trkpt lat="46.03807" lon="6.79507">
        <ele>1554.11</ele>
        <time>2017-10-17T09:54:51Z</time>
      </trkpt>
      <trkpt lat="46.03805" lon="6.79506">
        <ele>1554.59</ele>
        <time>2017-10-17T09:54:52Z</time>
      </trkpt>
      <trkpt lat="46.03805" lon="6.79505">
        <ele>1554.59</ele>
        <time>2017-10-17T09:54:53Z</time>
      </trkpt>
      <trkpt lat="46.03805" lon="6.79503">
        <ele>1554.59</ele>
        <time>2017-10-17T09:54:54Z</time>
      </trkpt>
      <trkpt lat="46.03804" lon="6.79501">
        <ele>1555.07</ele>
        <time>2017-10-17T09:54:55Z</time>
      </trkpt>
      <trkpt lat="46.03804" lon="6.795">
        <ele>1555.07</ele>
        <time>2017-10-17T09:54:56Z</time>
      </trkpt>
      <trkpt lat="46.03804" lon="6.79498">
        <ele>1555.07</ele>
        <time>2017-10-17T09:54:57Z</time>
      </trkpt>
      <trkpt lat="46.03803" lon="6.79496">
        <ele>1555.55</ele>
        <time>2017-10-17T09:54:58Z</time>
      </trkpt>
      <trkpt lat="46.03801" lon="6.79491">
        <ele>1556.51</ele>
        <time>2017-10-17T09:55:01Z</time>
      </trkpt>
      <trkpt lat="46.03802" lon="6.79488">
        <ele>1556.51</ele>
        <time>2017-10-17T09:55:02Z</time>
      </trkpt>
      <trkpt lat="46.03802" lon="6.79486">
        <ele>1556.51</ele>
        <time>2017-10-17T09:55:03Z</time>
      </trkpt>
      <trkpt lat="46.03802" lon="6.79478">
        <ele>1556.99</ele>
        <time>2017-10-17T09:55:07Z</time>
      </trkpt>
      <trkpt lat="46.03802" lon="6.79476">
        <ele>1557.47</ele>
        <time>2017-10-17T09:55:08Z</time>
      </trkpt>
      <trkpt lat="46.03802" lon="6.79474">
        <ele>1557.47</ele>
        <time>2017-10-17T09:55:09Z</time>
      </trkpt>
      <trkpt lat="46.03803" lon="6.79471">
        <ele>1557.95</ele>
        <time>2017-10-17T09:55:10Z</time>
      </trkpt>
      <trkpt lat="46.03803" lon="6.79468">
        <ele>1557.47</ele>
        <time>2017-10-17T09:55:11Z</time>
      </trkpt>
      <trkpt lat="46.03803" lon="6.79465">
        <ele>1557.47</ele>
        <time>2017-10-17T09:55:12Z</time>
      </trkpt>
      <trkpt lat="46.03802" lon="6.79463">
        <ele>1557.95</ele>
        <time>2017-10-17T09:55:13Z</time>
      </trkpt>
      <trkpt lat="46.03801" lon="6.7946">
        <ele>1558.43</ele>
        <time>2017-10-17T09:55:14Z</time>
      </trkpt>
      <trkpt lat="46.038" lon="6.79457">
        <ele>1558.43</ele>
        <time>2017-10-17T09:55:15Z</time>
      </trkpt>
      <trkpt lat="46.038" lon="6.79455">
        <ele>1558.43</ele>
        <time>2017-10-17T09:55:16Z</time>
      </trkpt>
      <trkpt lat="46.038" lon="6.79453">
        <ele>1558.92</ele>
        <time>2017-10-17T09:55:17Z</time>
      </trkpt>
      <trkpt lat="46.03799" lon="6.7945">
        <ele>1558.92</ele>
        <time>2017-10-17T09:55:18Z</time>
      </trkpt>
      <trkpt lat="46.03799" lon="6.79447">
        <ele>1559.4</ele>
        <time>2017-10-17T09:55:19Z</time>
      </trkpt>
      <trkpt lat="46.03798" lon="6.79445">
        <ele>1559.88</ele>
        <time>2017-10-17T09:55:21Z</time>
      </trkpt>
      <trkpt lat="46.03798" lon="6.79443">
        <ele>1560.84</ele>
        <time>2017-10-17T09:55:22Z</time>
      </trkpt>
      <trkpt lat="46.03798" lon="6.79442">
        <ele>1560.84</ele>
        <time>2017-10-17T09:55:23Z</time>
      </trkpt>
      <trkpt lat="46.03798" lon="6.79437">
        <ele>1561.8</ele>
        <time>2017-10-17T09:55:26Z</time>
      </trkpt>
      <trkpt lat="46.03798" lon="6.79435">
        <ele>1561.8</ele>
        <time>2017-10-17T09:55:27Z</time>
      </trkpt>
      <trkpt lat="46.03798" lon="6.79434">
        <ele>1561.8</ele>
        <time>2017-10-17T09:55:28Z</time>
      </trkpt>
      <trkpt lat="46.03797" lon="6.79433">
        <ele>1562.28</ele>
        <time>2017-10-17T09:55:29Z</time>
      </trkpt>
      <trkpt lat="46.03797" lon="6.79432">
        <ele>1562.28</ele>
        <time>2017-10-17T09:55:30Z</time>
      </trkpt>
      <trkpt lat="46.03794" lon="6.79427">
        <ele>1562.76</ele>
        <time>2017-10-17T09:55:34Z</time>
      </trkpt>
      <trkpt lat="46.03793" lon="6.79426">
        <ele>1563.24</ele>
        <time>2017-10-17T09:55:35Z</time>
      </trkpt>
      <trkpt lat="46.03785" lon="6.79414">
        <ele>1564.68</ele>
        <time>2017-10-17T09:55:43Z</time>
      </trkpt>
      <trkpt lat="46.03785" lon="6.79412">
        <ele>1565.16</ele>
        <time>2017-10-17T09:55:44Z</time>
      </trkpt>
      <trkpt lat="46.03785" lon="6.79409">
        <ele>1565.16</ele>
        <time>2017-10-17T09:55:45Z</time>
      </trkpt>
      <trkpt lat="46.03785" lon="6.79407">
        <ele>1565.16</ele>
        <time>2017-10-17T09:55:46Z</time>
      </trkpt>
      <trkpt lat="46.03785" lon="6.79404">
        <ele>1565.64</ele>
        <time>2017-10-17T09:55:47Z</time>
      </trkpt>
      <trkpt lat="46.03784" lon="6.79402">
        <ele>1565.64</ele>
        <time>2017-10-17T09:55:48Z</time>
      </trkpt>
      <trkpt lat="46.03783" lon="6.794">
        <ele>1566.12</ele>
        <time>2017-10-17T09:55:49Z</time>
      </trkpt>
      <trkpt lat="46.03783" lon="6.79399">
        <ele>1566.12</ele>
        <time>2017-10-17T09:55:50Z</time>
      </trkpt>
      <trkpt lat="46.03782" lon="6.79398">
        <ele>1566.61</ele>
        <time>2017-10-17T09:55:51Z</time>
      </trkpt>
      <trkpt lat="46.0378" lon="6.79392">
        <ele>1567.57</ele>
        <time>2017-10-17T09:55:56Z</time>
      </trkpt>
      <trkpt lat="46.03779" lon="6.79391">
        <ele>1567.57</ele>
        <time>2017-10-17T09:55:57Z</time>
      </trkpt>
      <trkpt lat="46.03779" lon="6.7939">
        <ele>1568.05</ele>
        <time>2017-10-17T09:55:58Z</time>
      </trkpt>
      <trkpt lat="46.03766" lon="6.7937">
        <ele>1570.93</ele>
        <time>2017-10-17T09:56:16Z</time>
      </trkpt>
      <trkpt lat="46.03754" lon="6.79347">
        <ele>1572.85</ele>
        <time>2017-10-17T09:56:28Z</time>
      </trkpt>
      <trkpt lat="46.0375" lon="6.79337">
        <ele>1574.3</ele>
        <time>2017-10-17T09:56:34Z</time>
      </trkpt>
      <trkpt lat="46.0375" lon="6.79335">
        <ele>1574.78</ele>
        <time>2017-10-17T09:56:35Z</time>
      </trkpt>
      <trkpt lat="46.03749" lon="6.79333">
        <ele>1574.78</ele>
        <time>2017-10-17T09:56:36Z</time>
      </trkpt>
      <trkpt lat="46.03748" lon="6.79331">
        <ele>1574.3</ele>
        <time>2017-10-17T09:56:37Z</time>
      </trkpt>
      <trkpt lat="46.03747" lon="6.79329">
        <ele>1574.3</ele>
        <time>2017-10-17T09:56:38Z</time>
      </trkpt>
      <trkpt lat="46.03746" lon="6.79326">
        <ele>1574.78</ele>
        <time>2017-10-17T09:56:39Z</time>
      </trkpt>
      <trkpt lat="46.03745" lon="6.79325">
        <ele>1574.78</ele>
        <time>2017-10-17T09:56:40Z</time>
      </trkpt>
      <trkpt lat="46.03744" lon="6.7933">
        <ele>1576.22</ele>
        <time>2017-10-17T09:56:45Z</time>
      </trkpt>
      <trkpt lat="46.03744" lon="6.79341">
        <ele>1579.58</ele>
        <time>2017-10-17T09:56:55Z</time>
      </trkpt>
      <trkpt lat="46.03744" lon="6.79345">
        <ele>1580.54</ele>
        <time>2017-10-17T09:56:58Z</time>
      </trkpt>
      <trkpt lat="46.03744" lon="6.79346">
        <ele>1580.54</ele>
        <time>2017-10-17T09:56:59Z</time>
      </trkpt>
      <trkpt lat="46.03745" lon="6.79348">
        <ele>1580.54</ele>
        <time>2017-10-17T09:57:00Z</time>
      </trkpt>
      <trkpt lat="46.03746" lon="6.7935">
        <ele>1581.03</ele>
        <time>2017-10-17T09:57:01Z</time>
      </trkpt>
      <trkpt lat="46.03746" lon="6.79352">
        <ele>1581.03</ele>
        <time>2017-10-17T09:57:02Z</time>
      </trkpt>
      <trkpt lat="46.03749" lon="6.79357">
        <ele>1581.03</ele>
        <time>2017-10-17T09:57:05Z</time>
      </trkpt>
      <trkpt lat="46.03751" lon="6.79358">
        <ele>1581.03</ele>
        <time>2017-10-17T09:57:06Z</time>
      </trkpt>
      <trkpt lat="46.03751" lon="6.79359">
        <ele>1580.54</ele>
        <time>2017-10-17T09:57:07Z</time>
      </trkpt>
      <trkpt lat="46.03753" lon="6.79361">
        <ele>1580.06</ele>
        <time>2017-10-17T09:57:08Z</time>
      </trkpt>
      <trkpt lat="46.03754" lon="6.79363">
        <ele>1579.58</ele>
        <time>2017-10-17T09:57:09Z</time>
      </trkpt>
      <trkpt lat="46.03753" lon="6.79366">
        <ele>1579.58</ele>
        <time>2017-10-17T09:57:10Z</time>
      </trkpt>
      <trkpt lat="46.03754" lon="6.79367">
        <ele>1579.58</ele>
        <time>2017-10-17T09:57:11Z</time>
      </trkpt>
      <trkpt lat="46.03753" lon="6.79369">
        <ele>1579.58</ele>
        <time>2017-10-17T09:57:13Z</time>
      </trkpt>
      <trkpt lat="46.03753" lon="6.79371">
        <ele>1580.06</ele>
        <time>2017-10-17T09:57:14Z</time>
      </trkpt>
      <trkpt lat="46.03752" lon="6.79371">
        <ele>1580.06</ele>
        <time>2017-10-17T09:57:15Z</time>
      </trkpt>
      <trkpt lat="46.03753" lon="6.79373">
        <ele>1580.54</ele>
        <time>2017-10-17T09:57:16Z</time>
      </trkpt>
      <trkpt lat="46.03753" lon="6.79375">
        <ele>1581.03</ele>
        <time>2017-10-17T09:57:18Z</time>
      </trkpt>
      <trkpt lat="46.03754" lon="6.79379">
        <ele>1581.99</ele>
        <time>2017-10-17T09:57:21Z</time>
      </trkpt>
      <trkpt lat="46.03755" lon="6.7938">
        <ele>1582.47</ele>
        <time>2017-10-17T09:57:22Z</time>
      </trkpt>
      <trkpt lat="46.03756" lon="6.79382">
        <ele>1582.47</ele>
        <time>2017-10-17T09:57:23Z</time>
      </trkpt>
      <trkpt lat="46.03771" lon="6.79401">
        <ele>1584.87</ele>
        <time>2017-10-17T09:57:36Z</time>
      </trkpt>
      <trkpt lat="46.03771" lon="6.79406">
        <ele>1584.87</ele>
        <time>2017-10-17T09:57:39Z</time>
      </trkpt>
      <trkpt lat="46.0377" lon="6.79408">
        <ele>1584.87</ele>
        <time>2017-10-17T09:57:40Z</time>
      </trkpt>
      <trkpt lat="46.03767" lon="6.79424">
        <ele>1587.27</ele>
        <time>2017-10-17T09:57:49Z</time>
      </trkpt>
      <trkpt lat="46.03767" lon="6.79426">
        <ele>1587.27</ele>
        <time>2017-10-17T09:57:50Z</time>
      </trkpt>
      <trkpt lat="46.03767" lon="6.79428">
        <ele>1587.75</ele>
        <time>2017-10-17T09:57:51Z</time>
      </trkpt>
      <trkpt lat="46.03768" lon="6.7943">
        <ele>1587.75</ele>
        <time>2017-10-17T09:57:52Z</time>
      </trkpt>
      <trkpt lat="46.03769" lon="6.79432">
        <ele>1587.75</ele>
        <time>2017-10-17T09:57:53Z</time>
      </trkpt>
      <trkpt lat="46.03767" lon="6.79455">
        <ele>1590.64</ele>
        <time>2017-10-17T09:58:05Z</time>
      </trkpt>
      <trkpt lat="46.03766" lon="6.79461">
        <ele>1591.6</ele>
        <time>2017-10-17T09:58:08Z</time>
      </trkpt>
      <trkpt lat="46.03767" lon="6.79476">
        <ele>1593.04</ele>
        <time>2017-10-17T09:58:16Z</time>
      </trkpt>
      <trkpt lat="46.03768" lon="6.79477">
        <ele>1593.52</ele>
        <time>2017-10-17T09:58:17Z</time>
      </trkpt>
      <trkpt lat="46.03768" lon="6.79484">
        <ele>1594.48</ele>
        <time>2017-10-17T09:58:22Z</time>
      </trkpt>
      <trkpt lat="46.03768" lon="6.79485">
        <ele>1594.96</ele>
        <time>2017-10-17T09:58:23Z</time>
      </trkpt>
      <trkpt lat="46.03769" lon="6.79487">
        <ele>1594.96</ele>
        <time>2017-10-17T09:58:24Z</time>
      </trkpt>
      <trkpt lat="46.03769" lon="6.79488">
        <ele>1594.96</ele>
        <time>2017-10-17T09:58:25Z</time>
      </trkpt>
      <trkpt lat="46.0377" lon="6.7949">
        <ele>1595.45</ele>
        <time>2017-10-17T09:58:26Z</time>
      </trkpt>
      <trkpt lat="46.03771" lon="6.79491">
        <ele>1595.45</ele>
        <time>2017-10-17T09:58:27Z</time>
      </trkpt>
      <trkpt lat="46.03771" lon="6.79493">
        <ele>1595.45</ele>
        <time>2017-10-17T09:58:28Z</time>
      </trkpt>
      <trkpt lat="46.03772" lon="6.79494">
        <ele>1595.45</ele>
        <time>2017-10-17T09:58:29Z</time>
      </trkpt>
      <trkpt lat="46.03772" lon="6.79496">
        <ele>1595.93</ele>
        <time>2017-10-17T09:58:30Z</time>
      </trkpt>
      <trkpt lat="46.03772" lon="6.79498">
        <ele>1596.41</ele>
        <time>2017-10-17T09:58:31Z</time>
      </trkpt>
      <trkpt lat="46.03771" lon="6.79499">
        <ele>1596.41</ele>
        <time>2017-10-17T09:58:32Z</time>
      </trkpt>
      <trkpt lat="46.03768" lon="6.79495">
        <ele>1598.33</ele>
        <time>2017-10-17T09:58:40Z</time>
      </trkpt>
      <trkpt lat="46.03766" lon="6.79494">
        <ele>1598.81</ele>
        <time>2017-10-17T09:58:41Z</time>
      </trkpt>
      <trkpt lat="46.03765" lon="6.79493">
        <ele>1598.81</ele>
        <time>2017-10-17T09:58:42Z</time>
      </trkpt>
      <trkpt lat="46.03764" lon="6.79492">
        <ele>1598.81</ele>
        <time>2017-10-17T09:58:43Z</time>
      </trkpt>
      <trkpt lat="46.03762" lon="6.79489">
        <ele>1599.29</ele>
        <time>2017-10-17T09:58:46Z</time>
      </trkpt>
      <trkpt lat="46.03762" lon="6.79488">
        <ele>1599.29</ele>
        <time>2017-10-17T09:58:47Z</time>
      </trkpt>
      <trkpt lat="46.03761" lon="6.79486">
        <ele>1599.77</ele>
        <time>2017-10-17T09:58:48Z</time>
      </trkpt>
      <trkpt lat="46.0376" lon="6.79484">
        <ele>1599.77</ele>
        <time>2017-10-17T09:58:49Z</time>
      </trkpt>
      <trkpt lat="46.03759" lon="6.79482">
        <ele>1600.25</ele>
        <time>2017-10-17T09:58:50Z</time>
      </trkpt>
      <trkpt lat="46.03759" lon="6.7948">
        <ele>1600.73</ele>
        <time>2017-10-17T09:58:52Z</time>
      </trkpt>
      <trkpt lat="46.03758" lon="6.79478">
        <ele>1601.21</ele>
        <time>2017-10-17T09:58:53Z</time>
      </trkpt>
      <trkpt lat="46.03757" lon="6.79465">
        <ele>1602.17</ele>
        <time>2017-10-17T09:59:01Z</time>
      </trkpt>
      <trkpt lat="46.03756" lon="6.79463">
        <ele>1602.17</ele>
        <time>2017-10-17T09:59:02Z</time>
      </trkpt>
      <trkpt lat="46.03751" lon="6.7944">
        <ele>1603.14</ele>
        <time>2017-10-17T09:59:13Z</time>
      </trkpt>
      <trkpt lat="46.03745" lon="6.79424">
        <ele>1606.02</ele>
        <time>2017-10-17T09:59:24Z</time>
      </trkpt>
      <trkpt lat="46.03745" lon="6.79421">
        <ele>1606.02</ele>
        <time>2017-10-17T09:59:26Z</time>
      </trkpt>
      <trkpt lat="46.03742" lon="6.79405">
        <ele>1606.98</ele>
        <time>2017-10-17T09:59:35Z</time>
      </trkpt>
      <trkpt lat="46.03741" lon="6.79404">
        <ele>1606.98</ele>
        <time>2017-10-17T09:59:36Z</time>
      </trkpt>
      <trkpt lat="46.03737" lon="6.79402">
        <ele>1608.42</ele>
        <time>2017-10-17T09:59:39Z</time>
      </trkpt>
      <trkpt lat="46.03736" lon="6.794">
        <ele>1608.42</ele>
        <time>2017-10-17T09:59:40Z</time>
      </trkpt>
      <trkpt lat="46.03735" lon="6.79398">
        <ele>1608.42</ele>
        <time>2017-10-17T09:59:41Z</time>
      </trkpt>
      <trkpt lat="46.03734" lon="6.79396">
        <ele>1608.42</ele>
        <time>2017-10-17T09:59:42Z</time>
      </trkpt>
      <trkpt lat="46.03734" lon="6.79394">
        <ele>1608.9</ele>
        <time>2017-10-17T09:59:43Z</time>
      </trkpt>
      <trkpt lat="46.03734" lon="6.79392">
        <ele>1608.9</ele>
        <time>2017-10-17T09:59:44Z</time>
      </trkpt>
      <trkpt lat="46.03734" lon="6.79391">
        <ele>1608.9</ele>
        <time>2017-10-17T09:59:45Z</time>
      </trkpt>
      <trkpt lat="46.03734" lon="6.79389">
        <ele>1609.38</ele>
        <time>2017-10-17T09:59:46Z</time>
      </trkpt>
      <trkpt lat="46.03734" lon="6.79387">
        <ele>1609.38</ele>
        <time>2017-10-17T09:59:47Z</time>
      </trkpt>
      <trkpt lat="46.03734" lon="6.79385">
        <ele>1609.86</ele>
        <time>2017-10-17T09:59:48Z</time>
      </trkpt>
      <trkpt lat="46.03732" lon="6.79383">
        <ele>1609.86</ele>
        <time>2017-10-17T09:59:49Z</time>
      </trkpt>
      <trkpt lat="46.0373" lon="6.79381">
        <ele>1609.86</ele>
        <time>2017-10-17T09:59:50Z</time>
      </trkpt>
      <trkpt lat="46.03729" lon="6.7938">
        <ele>1609.86</ele>
        <time>2017-10-17T09:59:51Z</time>
      </trkpt>
      <trkpt lat="46.03727" lon="6.79383">
        <ele>1612.75</ele>
        <time>2017-10-17T09:59:59Z</time>
      </trkpt>
      <trkpt lat="46.03727" lon="6.79383">
        <ele>1612.75</ele>
        <time>2017-10-17T10:00:00Z</time>
      </trkpt>
      <trkpt lat="46.03721" lon="6.79383">
        <ele>1616.11</ele>
        <time>2017-10-17T10:00:11Z</time>
      </trkpt>
      <trkpt lat="46.03722" lon="6.79387">
        <ele>1617.56</ele>
        <time>2017-10-17T10:00:16Z</time>
      </trkpt>
      <trkpt lat="46.03722" lon="6.7939">
        <ele>1618.04</ele>
        <time>2017-10-17T10:00:19Z</time>
      </trkpt>
      <trkpt lat="46.03723" lon="6.79391">
        <ele>1618.52</ele>
        <time>2017-10-17T10:00:20Z</time>
      </trkpt>
      <trkpt lat="46.03723" lon="6.79392">
        <ele>1619</ele>
        <time>2017-10-17T10:00:21Z</time>
      </trkpt>
      <trkpt lat="46.03714" lon="6.79389">
        <ele>1621.4</ele>
        <time>2017-10-17T10:00:32Z</time>
      </trkpt>
      <trkpt lat="46.03714" lon="6.79388">
        <ele>1621.88</ele>
        <time>2017-10-17T10:00:33Z</time>
      </trkpt>
      <trkpt lat="46.03713" lon="6.79387">
        <ele>1622.36</ele>
        <time>2017-10-17T10:00:34Z</time>
      </trkpt>
      <trkpt lat="46.03714" lon="6.79391">
        <ele>1623.8</ele>
        <time>2017-10-17T10:00:40Z</time>
      </trkpt>
      <trkpt lat="46.03715" lon="6.79392">
        <ele>1624.28</ele>
        <time>2017-10-17T10:00:41Z</time>
      </trkpt>
      <trkpt lat="46.03715" lon="6.79398">
        <ele>1625.25</ele>
        <time>2017-10-17T10:00:46Z</time>
      </trkpt>
      <trkpt lat="46.03714" lon="6.79398">
        <ele>1625.73</ele>
        <time>2017-10-17T10:00:47Z</time>
      </trkpt>
      <trkpt lat="46.03712" lon="6.79396">
        <ele>1626.21</ele>
        <time>2017-10-17T10:00:49Z</time>
      </trkpt>
      <trkpt lat="46.0371" lon="6.79396">
        <ele>1626.21</ele>
        <time>2017-10-17T10:00:50Z</time>
      </trkpt>
      <trkpt lat="46.03705" lon="6.79393">
        <ele>1627.65</ele>
        <time>2017-10-17T10:00:55Z</time>
      </trkpt>
      <trkpt lat="46.03706" lon="6.79396">
        <ele>1629.57</ele>
        <time>2017-10-17T10:01:01Z</time>
      </trkpt>
      <trkpt lat="46.03707" lon="6.79397">
        <ele>1629.57</ele>
        <time>2017-10-17T10:01:02Z</time>
      </trkpt>
      <trkpt lat="46.03708" lon="6.79399">
        <ele>1630.05</ele>
        <time>2017-10-17T10:01:03Z</time>
      </trkpt>
      <trkpt lat="46.03709" lon="6.79401">
        <ele>1630.05</ele>
        <time>2017-10-17T10:01:04Z</time>
      </trkpt>
      <trkpt lat="46.0371" lon="6.79404">
        <ele>1630.05</ele>
        <time>2017-10-17T10:01:05Z</time>
      </trkpt>
      <trkpt lat="46.03712" lon="6.79417">
        <ele>1631.98</ele>
        <time>2017-10-17T10:01:12Z</time>
      </trkpt>
      <trkpt lat="46.03711" lon="6.79418">
        <ele>1631.98</ele>
        <time>2017-10-17T10:01:13Z</time>
      </trkpt>
      <trkpt lat="46.0371" lon="6.79418">
        <ele>1631.98</ele>
        <time>2017-10-17T10:01:14Z</time>
      </trkpt>
      <trkpt lat="46.03709" lon="6.79416">
        <ele>1632.46</ele>
        <time>2017-10-17T10:01:15Z</time>
      </trkpt>
      <trkpt lat="46.03708" lon="6.79415">
        <ele>1632.94</ele>
        <time>2017-10-17T10:01:16Z</time>
      </trkpt>
      <trkpt lat="46.03707" lon="6.79413">
        <ele>1632.94</ele>
        <time>2017-10-17T10:01:17Z</time>
      </trkpt>
      <trkpt lat="46.03704" lon="6.79405">
        <ele>1634.38</ele>
        <time>2017-10-17T10:01:22Z</time>
      </trkpt>
      <trkpt lat="46.03703" lon="6.79409">
        <ele>1636.3</ele>
        <time>2017-10-17T10:01:28Z</time>
      </trkpt>
      <trkpt lat="46.03704" lon="6.79411">
        <ele>1636.78</ele>
        <time>2017-10-17T10:01:29Z</time>
      </trkpt>
      <trkpt lat="46.03706" lon="6.79417">
        <ele>1637.26</ele>
        <time>2017-10-17T10:01:32Z</time>
      </trkpt>
      <trkpt lat="46.03706" lon="6.79419">
        <ele>1637.26</ele>
        <time>2017-10-17T10:01:33Z</time>
      </trkpt>
      <trkpt lat="46.03707" lon="6.79421">
        <ele>1637.74</ele>
        <time>2017-10-17T10:01:34Z</time>
      </trkpt>
      <trkpt lat="46.03707" lon="6.79423">
        <ele>1637.74</ele>
        <time>2017-10-17T10:01:35Z</time>
      </trkpt>
      <trkpt lat="46.03707" lon="6.79425">
        <ele>1638.22</ele>
        <time>2017-10-17T10:01:36Z</time>
      </trkpt>
      <trkpt lat="46.03707" lon="6.79427">
        <ele>1638.7</ele>
        <time>2017-10-17T10:01:37Z</time>
      </trkpt>
      <trkpt lat="46.03707" lon="6.79429">
        <ele>1639.19</ele>
        <time>2017-10-17T10:01:38Z</time>
      </trkpt>
      <trkpt lat="46.03707" lon="6.79431">
        <ele>1639.19</ele>
        <time>2017-10-17T10:01:39Z</time>
      </trkpt>
      <trkpt lat="46.03707" lon="6.79432">
        <ele>1639.19</ele>
        <time>2017-10-17T10:01:40Z</time>
      </trkpt>
      <trkpt lat="46.03708" lon="6.79434">
        <ele>1639.67</ele>
        <time>2017-10-17T10:01:41Z</time>
      </trkpt>
      <trkpt lat="46.03709" lon="6.79435">
        <ele>1640.15</ele>
        <time>2017-10-17T10:01:42Z</time>
      </trkpt>
      <trkpt lat="46.0371" lon="6.79437">
        <ele>1640.15</ele>
        <time>2017-10-17T10:01:43Z</time>
      </trkpt>
      <trkpt lat="46.03711" lon="6.79438">
        <ele>1640.63</ele>
        <time>2017-10-17T10:01:44Z</time>
      </trkpt>
      <trkpt lat="46.03714" lon="6.79442">
        <ele>1641.59</ele>
        <time>2017-10-17T10:01:47Z</time>
      </trkpt>
      <trkpt lat="46.03714" lon="6.79444">
        <ele>1642.07</ele>
        <time>2017-10-17T10:01:48Z</time>
      </trkpt>
      <trkpt lat="46.03714" lon="6.79446">
        <ele>1642.07</ele>
        <time>2017-10-17T10:01:49Z</time>
      </trkpt>
      <trkpt lat="46.03713" lon="6.79447">
        <ele>1642.07</ele>
        <time>2017-10-17T10:01:50Z</time>
      </trkpt>
      <trkpt lat="46.03712" lon="6.79449">
        <ele>1642.55</ele>
        <time>2017-10-17T10:01:51Z</time>
      </trkpt>
      <trkpt lat="46.03712" lon="6.7945">
        <ele>1643.03</ele>
        <time>2017-10-17T10:01:52Z</time>
      </trkpt>
      <trkpt lat="46.03712" lon="6.79452">
        <ele>1643.03</ele>
        <time>2017-10-17T10:01:53Z</time>
      </trkpt>
      <trkpt lat="46.03712" lon="6.79454">
        <ele>1643.03</ele>
        <time>2017-10-17T10:01:54Z</time>
      </trkpt>
      <trkpt lat="46.03712" lon="6.79457">
        <ele>1643.03</ele>
        <time>2017-10-17T10:01:55Z</time>
      </trkpt>
      <trkpt lat="46.03712" lon="6.79459">
        <ele>1643.03</ele>
        <time>2017-10-17T10:01:56Z</time>
      </trkpt>
      <trkpt lat="46.03713" lon="6.79462">
        <ele>1643.51</ele>
        <time>2017-10-17T10:01:57Z</time>
      </trkpt>
      <trkpt lat="46.03713" lon="6.79463">
        <ele>1643.51</ele>
        <time>2017-10-17T10:01:58Z</time>
      </trkpt>
      <trkpt lat="46.03712" lon="6.79465">
        <ele>1643.99</ele>
        <time>2017-10-17T10:01:59Z</time>
      </trkpt>
      <trkpt lat="46.03712" lon="6.79467">
        <ele>1643.99</ele>
        <time>2017-10-17T10:02:00Z</time>
      </trkpt>
      <trkpt lat="46.03711" lon="6.79468">
        <ele>1644.47</ele>
        <time>2017-10-17T10:02:01Z</time>
      </trkpt>
      <trkpt lat="46.0371" lon="6.7947">
        <ele>1644.95</ele>
        <time>2017-10-17T10:02:02Z</time>
      </trkpt>
      <trkpt lat="46.0371" lon="6.79473">
        <ele>1645.43</ele>
        <time>2017-10-17T10:02:04Z</time>
      </trkpt>
      <trkpt lat="46.03711" lon="6.79475">
        <ele>1645.91</ele>
        <time>2017-10-17T10:02:05Z</time>
      </trkpt>
      <trkpt lat="46.03712" lon="6.79477">
        <ele>1646.4</ele>
        <time>2017-10-17T10:02:06Z</time>
      </trkpt>
      <trkpt lat="46.03712" lon="6.79478">
        <ele>1646.4</ele>
        <time>2017-10-17T10:02:07Z</time>
      </trkpt>
      <trkpt lat="46.03712" lon="6.7948">
        <ele>1646.4</ele>
        <time>2017-10-17T10:02:08Z</time>
      </trkpt>
      <trkpt lat="46.03713" lon="6.79481">
        <ele>1646.88</ele>
        <time>2017-10-17T10:02:09Z</time>
      </trkpt>
      <trkpt lat="46.03713" lon="6.79482">
        <ele>1646.88</ele>
        <time>2017-10-17T10:02:10Z</time>
      </trkpt>
      <trkpt lat="46.03714" lon="6.79484">
        <ele>1647.36</ele>
        <time>2017-10-17T10:02:11Z</time>
      </trkpt>
      <trkpt lat="46.03714" lon="6.79487">
        <ele>1647.36</ele>
        <time>2017-10-17T10:02:12Z</time>
      </trkpt>
      <trkpt lat="46.03712" lon="6.795">
        <ele>1648.32</ele>
        <time>2017-10-17T10:02:18Z</time>
      </trkpt>
      <trkpt lat="46.03711" lon="6.795">
        <ele>1648.8</ele>
        <time>2017-10-17T10:02:19Z</time>
      </trkpt>
      <trkpt lat="46.03711" lon="6.795">
        <ele>1648.8</ele>
        <time>2017-10-17T10:02:20Z</time>
      </trkpt>
      <trkpt lat="46.03711" lon="6.79498">
        <ele>1648.8</ele>
        <time>2017-10-17T10:02:21Z</time>
      </trkpt>
      <trkpt lat="46.03699" lon="6.79475">
        <ele>1652.16</ele>
        <time>2017-10-17T10:02:36Z</time>
      </trkpt>
      <trkpt lat="46.03699" lon="6.79472">
        <ele>1652.64</ele>
        <time>2017-10-17T10:02:38Z</time>
      </trkpt>
      <trkpt lat="46.037" lon="6.7947">
        <ele>1652.64</ele>
        <time>2017-10-17T10:02:39Z</time>
      </trkpt>
      <trkpt lat="46.03701" lon="6.79469">
        <ele>1652.64</ele>
        <time>2017-10-17T10:02:40Z</time>
      </trkpt>
      <trkpt lat="46.03701" lon="6.79467">
        <ele>1652.64</ele>
        <time>2017-10-17T10:02:41Z</time>
      </trkpt>
      <trkpt lat="46.03701" lon="6.79465">
        <ele>1652.16</ele>
        <time>2017-10-17T10:02:42Z</time>
      </trkpt>
      <trkpt lat="46.03701" lon="6.79463">
        <ele>1652.16</ele>
        <time>2017-10-17T10:02:43Z</time>
      </trkpt>
      <trkpt lat="46.037" lon="6.79462">
        <ele>1652.16</ele>
        <time>2017-10-17T10:02:44Z</time>
      </trkpt>
      <trkpt lat="46.03696" lon="6.7946">
        <ele>1653.12</ele>
        <time>2017-10-17T10:02:50Z</time>
      </trkpt>
      <trkpt lat="46.03695" lon="6.79459">
        <ele>1653.6</ele>
        <time>2017-10-17T10:02:51Z</time>
      </trkpt>
      <trkpt lat="46.03688" lon="6.79452">
        <ele>1656.97</ele>
        <time>2017-10-17T10:03:02Z</time>
      </trkpt>
      <trkpt lat="46.03687" lon="6.79451">
        <ele>1656.97</ele>
        <time>2017-10-17T10:03:03Z</time>
      </trkpt>
      <trkpt lat="46.03686" lon="6.79447">
        <ele>1657.45</ele>
        <time>2017-10-17T10:03:07Z</time>
      </trkpt>
      <trkpt lat="46.03685" lon="6.79446">
        <ele>1657.45</ele>
        <time>2017-10-17T10:03:08Z</time>
      </trkpt>
      <trkpt lat="46.03685" lon="6.79444">
        <ele>1657.45</ele>
        <time>2017-10-17T10:03:09Z</time>
      </trkpt>
      <trkpt lat="46.03683" lon="6.79442">
        <ele>1657.45</ele>
        <time>2017-10-17T10:03:10Z</time>
      </trkpt>
      <trkpt lat="46.03681" lon="6.79441">
        <ele>1657.45</ele>
        <time>2017-10-17T10:03:11Z</time>
      </trkpt>
      <trkpt lat="46.03668" lon="6.79432">
        <ele>1660.33</ele>
        <time>2017-10-17T10:03:21Z</time>
      </trkpt>
      <trkpt lat="46.03664" lon="6.79425">
        <ele>1660.81</ele>
        <time>2017-10-17T10:03:25Z</time>
      </trkpt>
      <trkpt lat="46.03663" lon="6.79422">
        <ele>1661.3</ele>
        <time>2017-10-17T10:03:26Z</time>
      </trkpt>
      <trkpt lat="46.03663" lon="6.7942">
        <ele>1661.3</ele>
        <time>2017-10-17T10:03:27Z</time>
      </trkpt>
      <trkpt lat="46.03658" lon="6.79417">
        <ele>1664.66</ele>
        <time>2017-10-17T10:03:40Z</time>
      </trkpt>
      <trkpt lat="46.03657" lon="6.79425">
        <ele>1666.1</ele>
        <time>2017-10-17T10:03:45Z</time>
      </trkpt>
      <trkpt lat="46.03657" lon="6.79428">
        <ele>1666.58</ele>
        <time>2017-10-17T10:03:47Z</time>
      </trkpt>
      <trkpt lat="46.03658" lon="6.79429">
        <ele>1667.06</ele>
        <time>2017-10-17T10:03:48Z</time>
      </trkpt>
      <trkpt lat="46.03658" lon="6.79431">
        <ele>1667.06</ele>
        <time>2017-10-17T10:03:49Z</time>
      </trkpt>
      <trkpt lat="46.03659" lon="6.7945">
        <ele>1669.95</ele>
        <time>2017-10-17T10:03:59Z</time>
      </trkpt>
      <trkpt lat="46.0366" lon="6.79452">
        <ele>1669.95</ele>
        <time>2017-10-17T10:04:00Z</time>
      </trkpt>
      <trkpt lat="46.03661" lon="6.79454">
        <ele>1670.43</ele>
        <time>2017-10-17T10:04:01Z</time>
      </trkpt>
      <trkpt lat="46.03663" lon="6.79456">
        <ele>1670.43</ele>
        <time>2017-10-17T10:04:02Z</time>
      </trkpt>
      <trkpt lat="46.03664" lon="6.79458">
        <ele>1670.43</ele>
        <time>2017-10-17T10:04:03Z</time>
      </trkpt>
      <trkpt lat="46.03666" lon="6.7946">
        <ele>1670.43</ele>
        <time>2017-10-17T10:04:04Z</time>
      </trkpt>
      <trkpt lat="46.03667" lon="6.79462">
        <ele>1670.43</ele>
        <time>2017-10-17T10:04:05Z</time>
      </trkpt>
      <trkpt lat="46.03668" lon="6.79463">
        <ele>1670.43</ele>
        <time>2017-10-17T10:04:06Z</time>
      </trkpt>
      <trkpt lat="46.03669" lon="6.79465">
        <ele>1670.91</ele>
        <time>2017-10-17T10:04:07Z</time>
      </trkpt>
      <trkpt lat="46.03669" lon="6.79467">
        <ele>1671.39</ele>
        <time>2017-10-17T10:04:08Z</time>
      </trkpt>
      <trkpt lat="46.03669" lon="6.79468">
        <ele>1671.39</ele>
        <time>2017-10-17T10:04:09Z</time>
      </trkpt>
      <trkpt lat="46.0367" lon="6.79469">
        <ele>1671.87</ele>
        <time>2017-10-17T10:04:10Z</time>
      </trkpt>
      <trkpt lat="46.0367" lon="6.7947">
        <ele>1672.35</ele>
        <time>2017-10-17T10:04:11Z</time>
      </trkpt>
      <trkpt lat="46.0367" lon="6.79472">
        <ele>1672.35</ele>
        <time>2017-10-17T10:04:12Z</time>
      </trkpt>
      <trkpt lat="46.03671" lon="6.79474">
        <ele>1672.35</ele>
        <time>2017-10-17T10:04:13Z</time>
      </trkpt>
      <trkpt lat="46.03672" lon="6.79476">
        <ele>1672.35</ele>
        <time>2017-10-17T10:04:14Z</time>
      </trkpt>
      <trkpt lat="46.03673" lon="6.79496">
        <ele>1673.79</ele>
        <time>2017-10-17T10:04:22Z</time>
      </trkpt>
      <trkpt lat="46.03673" lon="6.79498">
        <ele>1673.79</ele>
        <time>2017-10-17T10:04:23Z</time>
      </trkpt>
      <trkpt lat="46.03673" lon="6.795">
        <ele>1673.79</ele>
        <time>2017-10-17T10:04:24Z</time>
      </trkpt>
      <trkpt lat="46.03673" lon="6.79502">
        <ele>1674.27</ele>
        <time>2017-10-17T10:04:25Z</time>
      </trkpt>
      <trkpt lat="46.03673" lon="6.79504">
        <ele>1674.75</ele>
        <time>2017-10-17T10:04:26Z</time>
      </trkpt>
      <trkpt lat="46.03673" lon="6.79506">
        <ele>1675.23</ele>
        <time>2017-10-17T10:04:27Z</time>
      </trkpt>
      <trkpt lat="46.03674" lon="6.79507">
        <ele>1675.23</ele>
        <time>2017-10-17T10:04:28Z</time>
      </trkpt>
      <trkpt lat="46.03675" lon="6.79509">
        <ele>1675.72</ele>
        <time>2017-10-17T10:04:29Z</time>
      </trkpt>
      <trkpt lat="46.03675" lon="6.7951">
        <ele>1675.72</ele>
        <time>2017-10-17T10:04:30Z</time>
      </trkpt>
      <trkpt lat="46.03674" lon="6.79512">
        <ele>1676.2</ele>
        <time>2017-10-17T10:04:31Z</time>
      </trkpt>
      <trkpt lat="46.03672" lon="6.79516">
        <ele>1677.64</ele>
        <time>2017-10-17T10:04:36Z</time>
      </trkpt>
      <trkpt lat="46.03672" lon="6.79514">
        <ele>1678.12</ele>
        <time>2017-10-17T10:04:37Z</time>
      </trkpt>
      <trkpt lat="46.03671" lon="6.79512">
        <ele>1678.12</ele>
        <time>2017-10-17T10:04:38Z</time>
      </trkpt>
      <trkpt lat="46.03671" lon="6.7951">
        <ele>1678.12</ele>
        <time>2017-10-17T10:04:39Z</time>
      </trkpt>
      <trkpt lat="46.0367" lon="6.79508">
        <ele>1678.6</ele>
        <time>2017-10-17T10:04:40Z</time>
      </trkpt>
      <trkpt lat="46.0367" lon="6.79507">
        <ele>1679.08</ele>
        <time>2017-10-17T10:04:41Z</time>
      </trkpt>
      <trkpt lat="46.03669" lon="6.79505">
        <ele>1679.08</ele>
        <time>2017-10-17T10:04:42Z</time>
      </trkpt>
      <trkpt lat="46.03668" lon="6.79504">
        <ele>1679.56</ele>
        <time>2017-10-17T10:04:43Z</time>
      </trkpt>
      <trkpt lat="46.03668" lon="6.79503">
        <ele>1679.56</ele>
        <time>2017-10-17T10:04:44Z</time>
      </trkpt>
      <trkpt lat="46.03667" lon="6.79502">
        <ele>1679.56</ele>
        <time>2017-10-17T10:04:45Z</time>
      </trkpt>
      <trkpt lat="46.03666" lon="6.79501">
        <ele>1679.56</ele>
        <time>2017-10-17T10:04:46Z</time>
      </trkpt>
      <trkpt lat="46.03665" lon="6.79499">
        <ele>1679.56</ele>
        <time>2017-10-17T10:04:47Z</time>
      </trkpt>
      <trkpt lat="46.03664" lon="6.79498">
        <ele>1679.56</ele>
        <time>2017-10-17T10:04:48Z</time>
      </trkpt>
      <trkpt lat="46.03664" lon="6.79497">
        <ele>1680.04</ele>
        <time>2017-10-17T10:04:49Z</time>
      </trkpt>
      <trkpt lat="46.03657" lon="6.79484">
        <ele>1682.44</ele>
        <time>2017-10-17T10:05:01Z</time>
      </trkpt>
      <trkpt lat="46.03656" lon="6.79483">
        <ele>1682.93</ele>
        <time>2017-10-17T10:05:02Z</time>
      </trkpt>
      <trkpt lat="46.03655" lon="6.79483">
        <ele>1683.41</ele>
        <time>2017-10-17T10:05:03Z</time>
      </trkpt>
      <trkpt lat="46.03654" lon="6.7948">
        <ele>1683.89</ele>
        <time>2017-10-17T10:05:06Z</time>
      </trkpt>
      <trkpt lat="46.03653" lon="6.79479">
        <ele>1683.89</ele>
        <time>2017-10-17T10:05:07Z</time>
      </trkpt>
      <trkpt lat="46.03641" lon="6.79465">
        <ele>1685.33</ele>
        <time>2017-10-17T10:05:22Z</time>
      </trkpt>
      <trkpt lat="46.03641" lon="6.79463">
        <ele>1685.81</ele>
        <time>2017-10-17T10:05:23Z</time>
      </trkpt>
      <trkpt lat="46.03641" lon="6.79462">
        <ele>1685.81</ele>
        <time>2017-10-17T10:05:24Z</time>
      </trkpt>
      <trkpt lat="46.03641" lon="6.7946">
        <ele>1685.81</ele>
        <time>2017-10-17T10:05:25Z</time>
      </trkpt>
      <trkpt lat="46.03641" lon="6.79458">
        <ele>1685.81</ele>
        <time>2017-10-17T10:05:26Z</time>
      </trkpt>
      <trkpt lat="46.03641" lon="6.79457">
        <ele>1685.81</ele>
        <time>2017-10-17T10:05:27Z</time>
      </trkpt>
      <trkpt lat="46.0364" lon="6.79456">
        <ele>1685.81</ele>
        <time>2017-10-17T10:05:28Z</time>
      </trkpt>
      <trkpt lat="46.03639" lon="6.79455">
        <ele>1685.81</ele>
        <time>2017-10-17T10:05:29Z</time>
      </trkpt>
      <trkpt lat="46.03639" lon="6.79454">
        <ele>1686.29</ele>
        <time>2017-10-17T10:05:30Z</time>
      </trkpt>
      <trkpt lat="46.03638" lon="6.79452">
        <ele>1686.29</ele>
        <time>2017-10-17T10:05:31Z</time>
      </trkpt>
      <trkpt lat="46.03638" lon="6.79451">
        <ele>1686.29</ele>
        <time>2017-10-17T10:05:32Z</time>
      </trkpt>
      <trkpt lat="46.03636" lon="6.79439">
        <ele>1686.77</ele>
        <time>2017-10-17T10:05:39Z</time>
      </trkpt>
      <trkpt lat="46.03636" lon="6.79438">
        <ele>1687.25</ele>
        <time>2017-10-17T10:05:40Z</time>
      </trkpt>
      <trkpt lat="46.03636" lon="6.79436">
        <ele>1687.25</ele>
        <time>2017-10-17T10:05:41Z</time>
      </trkpt>
      <trkpt lat="46.03635" lon="6.79434">
        <ele>1687.73</ele>
        <time>2017-10-17T10:05:42Z</time>
      </trkpt>
      <trkpt lat="46.03635" lon="6.79433">
        <ele>1688.21</ele>
        <time>2017-10-17T10:05:43Z</time>
      </trkpt>
      <trkpt lat="46.03626" lon="6.79422">
        <ele>1691.1</ele>
        <time>2017-10-17T10:05:54Z</time>
      </trkpt>
      <trkpt lat="46.03619" lon="6.79413">
        <ele>1692.06</ele>
        <time>2017-10-17T10:06:01Z</time>
      </trkpt>
      <trkpt lat="46.03618" lon="6.79412">
        <ele>1692.06</ele>
        <time>2017-10-17T10:06:02Z</time>
      </trkpt>
      <trkpt lat="46.03617" lon="6.79411">
        <ele>1692.54</ele>
        <time>2017-10-17T10:06:03Z</time>
      </trkpt>
      <trkpt lat="46.03616" lon="6.7941">
        <ele>1692.54</ele>
        <time>2017-10-17T10:06:04Z</time>
      </trkpt>
      <trkpt lat="46.03611" lon="6.79403">
        <ele>1694.46</ele>
        <time>2017-10-17T10:06:11Z</time>
      </trkpt>
      <trkpt lat="46.0361" lon="6.79402">
        <ele>1694.94</ele>
        <time>2017-10-17T10:06:12Z</time>
      </trkpt>
      <trkpt lat="46.03609" lon="6.794">
        <ele>1695.42</ele>
        <time>2017-10-17T10:06:14Z</time>
      </trkpt>
      <trkpt lat="46.03609" lon="6.79398">
        <ele>1695.42</ele>
        <time>2017-10-17T10:06:15Z</time>
      </trkpt>
      <trkpt lat="46.03608" lon="6.79397">
        <ele>1695.9</ele>
        <time>2017-10-17T10:06:16Z</time>
      </trkpt>
      <trkpt lat="46.03601" lon="6.79393">
        <ele>1697.83</ele>
        <time>2017-10-17T10:06:27Z</time>
      </trkpt>
      <trkpt lat="46.03602" lon="6.79395">
        <ele>1698.31</ele>
        <time>2017-10-17T10:06:29Z</time>
      </trkpt>
      <trkpt lat="46.03603" lon="6.79401">
        <ele>1699.27</ele>
        <time>2017-10-17T10:06:33Z</time>
      </trkpt>
      <trkpt lat="46.03602" lon="6.79402">
        <ele>1699.27</ele>
        <time>2017-10-17T10:06:34Z</time>
      </trkpt>
      <trkpt lat="46.036" lon="6.79399">
        <ele>1700.23</ele>
        <time>2017-10-17T10:06:37Z</time>
      </trkpt>
      <trkpt lat="46.03599" lon="6.79399">
        <ele>1700.23</ele>
        <time>2017-10-17T10:06:38Z</time>
      </trkpt>
      <trkpt lat="46.03598" lon="6.79398">
        <ele>1700.23</ele>
        <time>2017-10-17T10:06:39Z</time>
      </trkpt>
      <trkpt lat="46.03594" lon="6.79398">
        <ele>1703.59</ele>
        <time>2017-10-17T10:06:52Z</time>
      </trkpt>
      <trkpt lat="46.036" lon="6.79422">
        <ele>1706</ele>
        <time>2017-10-17T10:07:05Z</time>
      </trkpt>
      <trkpt lat="46.03599" lon="6.79423">
        <ele>1706</ele>
        <time>2017-10-17T10:07:06Z</time>
      </trkpt>
      <trkpt lat="46.03598" lon="6.79423">
        <ele>1706</ele>
        <time>2017-10-17T10:07:07Z</time>
      </trkpt>
      <trkpt lat="46.03597" lon="6.79422">
        <ele>1706.48</ele>
        <time>2017-10-17T10:07:08Z</time>
      </trkpt>
      <trkpt lat="46.03596" lon="6.79421">
        <ele>1706.96</ele>
        <time>2017-10-17T10:07:09Z</time>
      </trkpt>
      <trkpt lat="46.03595" lon="6.79419">
        <ele>1707.44</ele>
        <time>2017-10-17T10:07:10Z</time>
      </trkpt>
      <trkpt lat="46.03593" lon="6.79416">
        <ele>1707.44</ele>
        <time>2017-10-17T10:07:12Z</time>
      </trkpt>
      <trkpt lat="46.03592" lon="6.79416">
        <ele>1707.44</ele>
        <time>2017-10-17T10:07:13Z</time>
      </trkpt>
      <trkpt lat="46.0359" lon="6.79415">
        <ele>1707.92</ele>
        <time>2017-10-17T10:07:14Z</time>
      </trkpt>
      <trkpt lat="46.03589" lon="6.79414">
        <ele>1708.4</ele>
        <time>2017-10-17T10:07:15Z</time>
      </trkpt>
      <trkpt lat="46.03588" lon="6.79413">
        <ele>1708.4</ele>
        <time>2017-10-17T10:07:16Z</time>
      </trkpt>
      <trkpt lat="46.03587" lon="6.79412">
        <ele>1708.88</ele>
        <time>2017-10-17T10:07:17Z</time>
      </trkpt>
      <trkpt lat="46.03585" lon="6.79411">
        <ele>1708.88</ele>
        <time>2017-10-17T10:07:18Z</time>
      </trkpt>
      <trkpt lat="46.03584" lon="6.7941">
        <ele>1709.36</ele>
        <time>2017-10-17T10:07:19Z</time>
      </trkpt>
      <trkpt lat="46.03583" lon="6.79409">
        <ele>1709.84</ele>
        <time>2017-10-17T10:07:20Z</time>
      </trkpt>
      <trkpt lat="46.03582" lon="6.79408">
        <ele>1709.84</ele>
        <time>2017-10-17T10:07:21Z</time>
      </trkpt>
      <trkpt lat="46.03581" lon="6.79408">
        <ele>1709.84</ele>
        <time>2017-10-17T10:07:22Z</time>
      </trkpt>
      <trkpt lat="46.03579" lon="6.79407">
        <ele>1709.84</ele>
        <time>2017-10-17T10:07:23Z</time>
      </trkpt>
      <trkpt lat="46.03578" lon="6.79407">
        <ele>1710.32</ele>
        <time>2017-10-17T10:07:24Z</time>
      </trkpt>
      <trkpt lat="46.03577" lon="6.79406">
        <ele>1710.32</ele>
        <time>2017-10-17T10:07:25Z</time>
      </trkpt>
      <trkpt lat="46.03576" lon="6.79404">
        <ele>1710.8</ele>
        <time>2017-10-17T10:07:26Z</time>
      </trkpt>
      <trkpt lat="46.03566" lon="6.794">
        <ele>1712.73</ele>
        <time>2017-10-17T10:07:34Z</time>
      </trkpt>
      <trkpt lat="46.03561" lon="6.79404">
        <ele>1713.21</ele>
        <time>2017-10-17T10:07:39Z</time>
      </trkpt>
      <trkpt lat="46.03561" lon="6.79405">
        <ele>1714.17</ele>
        <time>2017-10-17T10:07:41Z</time>
      </trkpt>
      <trkpt lat="46.03562" lon="6.79407">
        <ele>1714.17</ele>
        <time>2017-10-17T10:07:42Z</time>
      </trkpt>
      <trkpt lat="46.03563" lon="6.79408">
        <ele>1715.13</ele>
        <time>2017-10-17T10:07:43Z</time>
      </trkpt>
      <trkpt lat="46.03564" lon="6.79409">
        <ele>1715.13</ele>
        <time>2017-10-17T10:07:44Z</time>
      </trkpt>
      <trkpt lat="46.03565" lon="6.7941">
        <ele>1715.13</ele>
        <time>2017-10-17T10:07:45Z</time>
      </trkpt>
      <trkpt lat="46.03566" lon="6.79411">
        <ele>1715.13</ele>
        <time>2017-10-17T10:07:46Z</time>
      </trkpt>
      <trkpt lat="46.03567" lon="6.79412">
        <ele>1715.61</ele>
        <time>2017-10-17T10:07:47Z</time>
      </trkpt>
      <trkpt lat="46.03574" lon="6.79427">
        <ele>1717.05</ele>
        <time>2017-10-17T10:07:55Z</time>
      </trkpt>
      <trkpt lat="46.03575" lon="6.79428">
        <ele>1717.53</ele>
        <time>2017-10-17T10:07:56Z</time>
      </trkpt>
      <trkpt lat="46.03575" lon="6.7943">
        <ele>1717.53</ele>
        <time>2017-10-17T10:07:57Z</time>
      </trkpt>
      <trkpt lat="46.03576" lon="6.79431">
        <ele>1717.53</ele>
        <time>2017-10-17T10:07:58Z</time>
      </trkpt>
      <trkpt lat="46.03577" lon="6.79432">
        <ele>1718.01</ele>
        <time>2017-10-17T10:07:59Z</time>
      </trkpt>
      <trkpt lat="46.03578" lon="6.79433">
        <ele>1718.49</ele>
        <time>2017-10-17T10:08:00Z</time>
      </trkpt>
      <trkpt lat="46.03579" lon="6.79435">
        <ele>1718.49</ele>
        <time>2017-10-17T10:08:01Z</time>
      </trkpt>
      <trkpt lat="46.03588" lon="6.79454">
        <ele>1720.9</ele>
        <time>2017-10-17T10:08:12Z</time>
      </trkpt>
      <trkpt lat="46.03588" lon="6.79455">
        <ele>1720.9</ele>
        <time>2017-10-17T10:08:13Z</time>
      </trkpt>
      <trkpt lat="46.03587" lon="6.79455">
        <ele>1721.38</ele>
        <time>2017-10-17T10:08:14Z</time>
      </trkpt>
      <trkpt lat="46.03586" lon="6.79454">
        <ele>1721.38</ele>
        <time>2017-10-17T10:08:15Z</time>
      </trkpt>
      <trkpt lat="46.03584" lon="6.79452">
        <ele>1721.38</ele>
        <time>2017-10-17T10:08:16Z</time>
      </trkpt>
      <trkpt lat="46.03583" lon="6.79451">
        <ele>1721.86</ele>
        <time>2017-10-17T10:08:17Z</time>
      </trkpt>
      <trkpt lat="46.03582" lon="6.79451">
        <ele>1721.86</ele>
        <time>2017-10-17T10:08:18Z</time>
      </trkpt>
      <trkpt lat="46.0358" lon="6.79451">
        <ele>1722.34</ele>
        <time>2017-10-17T10:08:19Z</time>
      </trkpt>
      <trkpt lat="46.03579" lon="6.7945">
        <ele>1722.82</ele>
        <time>2017-10-17T10:08:20Z</time>
      </trkpt>
      <trkpt lat="46.03578" lon="6.79448">
        <ele>1723.3</ele>
        <time>2017-10-17T10:08:21Z</time>
      </trkpt>
      <trkpt lat="46.03577" lon="6.79447">
        <ele>1723.78</ele>
        <time>2017-10-17T10:08:22Z</time>
      </trkpt>
      <trkpt lat="46.03575" lon="6.79446">
        <ele>1723.78</ele>
        <time>2017-10-17T10:08:23Z</time>
      </trkpt>
      <trkpt lat="46.03574" lon="6.79445">
        <ele>1723.78</ele>
        <time>2017-10-17T10:08:24Z</time>
      </trkpt>
      <trkpt lat="46.03573" lon="6.79444">
        <ele>1724.26</ele>
        <time>2017-10-17T10:08:25Z</time>
      </trkpt>
      <trkpt lat="46.03572" lon="6.79443">
        <ele>1724.26</ele>
        <time>2017-10-17T10:08:26Z</time>
      </trkpt>
      <trkpt lat="46.03572" lon="6.79444">
        <ele>1724.26</ele>
        <time>2017-10-17T10:08:28Z</time>
      </trkpt>
      <trkpt lat="46.03572" lon="6.79446">
        <ele>1724.74</ele>
        <time>2017-10-17T10:08:29Z</time>
      </trkpt>
      <trkpt lat="46.03573" lon="6.79447">
        <ele>1725.22</ele>
        <time>2017-10-17T10:08:30Z</time>
      </trkpt>
      <trkpt lat="46.03574" lon="6.79449">
        <ele>1725.22</ele>
        <time>2017-10-17T10:08:31Z</time>
      </trkpt>
      <trkpt lat="46.03575" lon="6.7945">
        <ele>1725.22</ele>
        <time>2017-10-17T10:08:32Z</time>
      </trkpt>
      <trkpt lat="46.03576" lon="6.79452">
        <ele>1725.7</ele>
        <time>2017-10-17T10:08:33Z</time>
      </trkpt>
      <trkpt lat="46.03576" lon="6.79453">
        <ele>1726.18</ele>
        <time>2017-10-17T10:08:34Z</time>
      </trkpt>
      <trkpt lat="46.03577" lon="6.79455">
        <ele>1726.18</ele>
        <time>2017-10-17T10:08:35Z</time>
      </trkpt>
      <trkpt lat="46.03578" lon="6.79457">
        <ele>1726.67</ele>
        <time>2017-10-17T10:08:36Z</time>
      </trkpt>
      <trkpt lat="46.03579" lon="6.79458">
        <ele>1726.67</ele>
        <time>2017-10-17T10:08:37Z</time>
      </trkpt>
      <trkpt lat="46.0358" lon="6.7946">
        <ele>1727.15</ele>
        <time>2017-10-17T10:08:38Z</time>
      </trkpt>
      <trkpt lat="46.03588" lon="6.79479">
        <ele>1729.07</ele>
        <time>2017-10-17T10:08:49Z</time>
      </trkpt>
      <trkpt lat="46.03587" lon="6.7948">
        <ele>1729.07</ele>
        <time>2017-10-17T10:08:50Z</time>
      </trkpt>
      <trkpt lat="46.03586" lon="6.79478">
        <ele>1729.07</ele>
        <time>2017-10-17T10:08:51Z</time>
      </trkpt>
      <trkpt lat="46.03586" lon="6.79476">
        <ele>1729.55</ele>
        <time>2017-10-17T10:08:52Z</time>
      </trkpt>
      <trkpt lat="46.03585" lon="6.79475">
        <ele>1730.03</ele>
        <time>2017-10-17T10:08:53Z</time>
      </trkpt>
      <trkpt lat="46.03584" lon="6.79473">
        <ele>1730.03</ele>
        <time>2017-10-17T10:08:54Z</time>
      </trkpt>
      <trkpt lat="46.03583" lon="6.79472">
        <ele>1730.03</ele>
        <time>2017-10-17T10:08:55Z</time>
      </trkpt>
      <trkpt lat="46.03567" lon="6.79456">
        <ele>1733.39</ele>
        <time>2017-10-17T10:09:08Z</time>
      </trkpt>
      <trkpt lat="46.03561" lon="6.79452">
        <ele>1734.36</ele>
        <time>2017-10-17T10:09:13Z</time>
      </trkpt>
      <trkpt lat="46.0356" lon="6.79451">
        <ele>1734.36</ele>
        <time>2017-10-17T10:09:14Z</time>
      </trkpt>
      <trkpt lat="46.03559" lon="6.79451">
        <ele>1734.36</ele>
        <time>2017-10-17T10:09:15Z</time>
      </trkpt>
      <trkpt lat="46.03558" lon="6.7945">
        <ele>1734.84</ele>
        <time>2017-10-17T10:09:16Z</time>
      </trkpt>
      <trkpt lat="46.03538" lon="6.7945">
        <ele>1737.24</ele>
        <time>2017-10-17T10:09:30Z</time>
      </trkpt>
      <trkpt lat="46.03536" lon="6.79453">
        <ele>1738.68</ele>
        <time>2017-10-17T10:09:37Z</time>
      </trkpt>
      <trkpt lat="46.03549" lon="6.7947">
        <ele>1742.05</ele>
        <time>2017-10-17T10:09:50Z</time>
      </trkpt>
      <trkpt lat="46.03558" lon="6.79476">
        <ele>1743.97</ele>
        <time>2017-10-17T10:09:57Z</time>
      </trkpt>
      <trkpt lat="46.0356" lon="6.79478">
        <ele>1743.97</ele>
        <time>2017-10-17T10:09:58Z</time>
      </trkpt>
      <trkpt lat="46.03561" lon="6.79479">
        <ele>1743.97</ele>
        <time>2017-10-17T10:09:59Z</time>
      </trkpt>
      <trkpt lat="46.03562" lon="6.79481">
        <ele>1743.97</ele>
        <time>2017-10-17T10:10:00Z</time>
      </trkpt>
      <trkpt lat="46.03563" lon="6.79482">
        <ele>1744.45</ele>
        <time>2017-10-17T10:10:01Z</time>
      </trkpt>
      <trkpt lat="46.03564" lon="6.79484">
        <ele>1744.45</ele>
        <time>2017-10-17T10:10:02Z</time>
      </trkpt>
      <trkpt lat="46.03566" lon="6.79486">
        <ele>1744.45</ele>
        <time>2017-10-17T10:10:03Z</time>
      </trkpt>
      <trkpt lat="46.03569" lon="6.79492">
        <ele>1744.93</ele>
        <time>2017-10-17T10:10:06Z</time>
      </trkpt>
      <trkpt lat="46.03568" lon="6.79493">
        <ele>1745.41</ele>
        <time>2017-10-17T10:10:07Z</time>
      </trkpt>
      <trkpt lat="46.03567" lon="6.79493">
        <ele>1745.41</ele>
        <time>2017-10-17T10:10:08Z</time>
      </trkpt>
      <trkpt lat="46.03564" lon="6.79491">
        <ele>1746.37</ele>
        <time>2017-10-17T10:10:11Z</time>
      </trkpt>
      <trkpt lat="46.03563" lon="6.7949">
        <ele>1746.37</ele>
        <time>2017-10-17T10:10:12Z</time>
      </trkpt>
      <trkpt lat="46.03561" lon="6.79489">
        <ele>1746.85</ele>
        <time>2017-10-17T10:10:13Z</time>
      </trkpt>
      <trkpt lat="46.0356" lon="6.79489">
        <ele>1747.33</ele>
        <time>2017-10-17T10:10:14Z</time>
      </trkpt>
      <trkpt lat="46.03561" lon="6.79491">
        <ele>1747.81</ele>
        <time>2017-10-17T10:10:18Z</time>
      </trkpt>
      <trkpt lat="46.03563" lon="6.79493">
        <ele>1748.29</ele>
        <time>2017-10-17T10:10:19Z</time>
      </trkpt>
      <trkpt lat="46.03564" lon="6.79494">
        <ele>1748.29</ele>
        <time>2017-10-17T10:10:20Z</time>
      </trkpt>
      <trkpt lat="46.03565" lon="6.79496">
        <ele>1748.29</ele>
        <time>2017-10-17T10:10:21Z</time>
      </trkpt>
      <trkpt lat="46.03565" lon="6.79497">
        <ele>1748.78</ele>
        <time>2017-10-17T10:10:22Z</time>
      </trkpt>
      <trkpt lat="46.03565" lon="6.795">
        <ele>1748.78</ele>
        <time>2017-10-17T10:10:23Z</time>
      </trkpt>
      <trkpt lat="46.03564" lon="6.795">
        <ele>1749.26</ele>
        <time>2017-10-17T10:10:24Z</time>
      </trkpt>
      <trkpt lat="46.03563" lon="6.79499">
        <ele>1749.74</ele>
        <time>2017-10-17T10:10:25Z</time>
      </trkpt>
      <trkpt lat="46.03561" lon="6.79499">
        <ele>1749.74</ele>
        <time>2017-10-17T10:10:26Z</time>
      </trkpt>
      <trkpt lat="46.03544" lon="6.79491">
        <ele>1752.62</ele>
        <time>2017-10-17T10:10:39Z</time>
      </trkpt>
      <trkpt lat="46.03543" lon="6.79491">
        <ele>1752.62</ele>
        <time>2017-10-17T10:10:40Z</time>
      </trkpt>
      <trkpt lat="46.03542" lon="6.79491">
        <ele>1752.62</ele>
        <time>2017-10-17T10:10:41Z</time>
      </trkpt>
      <trkpt lat="46.0354" lon="6.79491">
        <ele>1753.1</ele>
        <time>2017-10-17T10:10:42Z</time>
      </trkpt>
      <trkpt lat="46.03538" lon="6.7949">
        <ele>1753.58</ele>
        <time>2017-10-17T10:10:43Z</time>
      </trkpt>
      <trkpt lat="46.03537" lon="6.79489">
        <ele>1753.58</ele>
        <time>2017-10-17T10:10:44Z</time>
      </trkpt>
      <trkpt lat="46.03521" lon="6.79488">
        <ele>1755.5</ele>
        <time>2017-10-17T10:10:54Z</time>
      </trkpt>
      <trkpt lat="46.03522" lon="6.7949">
        <ele>1755.99</ele>
        <time>2017-10-17T10:10:57Z</time>
      </trkpt>
      <trkpt lat="46.03531" lon="6.795">
        <ele>1758.39</ele>
        <time>2017-10-17T10:11:05Z</time>
      </trkpt>
      <trkpt lat="46.03548" lon="6.79516">
        <ele>1761.75</ele>
        <time>2017-10-17T10:11:18Z</time>
      </trkpt>
      <trkpt lat="46.03558" lon="6.79533">
        <ele>1763.68</ele>
        <time>2017-10-17T10:11:27Z</time>
      </trkpt>
      <trkpt lat="46.03558" lon="6.79533">
        <ele>1764.16</ele>
        <time>2017-10-17T10:11:28Z</time>
      </trkpt>
      <trkpt lat="46.03556" lon="6.79533">
        <ele>1764.64</ele>
        <time>2017-10-17T10:11:29Z</time>
      </trkpt>
      <trkpt lat="46.03555" lon="6.79532">
        <ele>1765.12</ele>
        <time>2017-10-17T10:11:30Z</time>
      </trkpt>
      <trkpt lat="46.03553" lon="6.79531">
        <ele>1765.12</ele>
        <time>2017-10-17T10:11:31Z</time>
      </trkpt>
      <trkpt lat="46.03552" lon="6.79531">
        <ele>1765.6</ele>
        <time>2017-10-17T10:11:32Z</time>
      </trkpt>
      <trkpt lat="46.0355" lon="6.79531">
        <ele>1765.6</ele>
        <time>2017-10-17T10:11:33Z</time>
      </trkpt>
      <trkpt lat="46.03549" lon="6.79531">
        <ele>1766.08</ele>
        <time>2017-10-17T10:11:34Z</time>
      </trkpt>
      <trkpt lat="46.03547" lon="6.79531">
        <ele>1766.08</ele>
        <time>2017-10-17T10:11:35Z</time>
      </trkpt>
      <trkpt lat="46.03528" lon="6.79525">
        <ele>1768</ele>
        <time>2017-10-17T10:11:47Z</time>
      </trkpt>
      <trkpt lat="46.03516" lon="6.79519">
        <ele>1770.41</ele>
        <time>2017-10-17T10:11:55Z</time>
      </trkpt>
      <trkpt lat="46.03515" lon="6.79518">
        <ele>1770.41</ele>
        <time>2017-10-17T10:11:56Z</time>
      </trkpt>
      <trkpt lat="46.03514" lon="6.79518">
        <ele>1770.89</ele>
        <time>2017-10-17T10:11:57Z</time>
      </trkpt>
      <trkpt lat="46.03512" lon="6.79518">
        <ele>1771.37</ele>
        <time>2017-10-17T10:11:58Z</time>
      </trkpt>
      <trkpt lat="46.03511" lon="6.79517">
        <ele>1771.37</ele>
        <time>2017-10-17T10:11:59Z</time>
      </trkpt>
      <trkpt lat="46.03509" lon="6.79517">
        <ele>1771.85</ele>
        <time>2017-10-17T10:12:00Z</time>
      </trkpt>
      <trkpt lat="46.03508" lon="6.79516">
        <ele>1771.85</ele>
        <time>2017-10-17T10:12:01Z</time>
      </trkpt>
      <trkpt lat="46.03506" lon="6.79514">
        <ele>1771.85</ele>
        <time>2017-10-17T10:12:02Z</time>
      </trkpt>
      <trkpt lat="46.03505" lon="6.79513">
        <ele>1771.85</ele>
        <time>2017-10-17T10:12:03Z</time>
      </trkpt>
      <trkpt lat="46.03504" lon="6.79512">
        <ele>1772.33</ele>
        <time>2017-10-17T10:12:04Z</time>
      </trkpt>
      <trkpt lat="46.03503" lon="6.79511">
        <ele>1772.81</ele>
        <time>2017-10-17T10:12:05Z</time>
      </trkpt>
      <trkpt lat="46.03502" lon="6.7951">
        <ele>1772.81</ele>
        <time>2017-10-17T10:12:06Z</time>
      </trkpt>
      <trkpt lat="46.03493" lon="6.79508">
        <ele>1774.73</ele>
        <time>2017-10-17T10:12:14Z</time>
      </trkpt>
      <trkpt lat="46.03492" lon="6.79506">
        <ele>1774.73</ele>
        <time>2017-10-17T10:12:15Z</time>
      </trkpt>
      <trkpt lat="46.03492" lon="6.79505">
        <ele>1775.21</ele>
        <time>2017-10-17T10:12:16Z</time>
      </trkpt>
      <trkpt lat="46.03491" lon="6.79504">
        <ele>1775.21</ele>
        <time>2017-10-17T10:12:17Z</time>
      </trkpt>
      <trkpt lat="46.0349" lon="6.79503">
        <ele>1775.21</ele>
        <time>2017-10-17T10:12:18Z</time>
      </trkpt>
      <trkpt lat="46.0348" lon="6.79495">
        <ele>1777.13</ele>
        <time>2017-10-17T10:12:28Z</time>
      </trkpt>
      <trkpt lat="46.03479" lon="6.79495">
        <ele>1777.61</ele>
        <time>2017-10-17T10:12:29Z</time>
      </trkpt>
      <trkpt lat="46.03478" lon="6.79494">
        <ele>1777.61</ele>
        <time>2017-10-17T10:12:30Z</time>
      </trkpt>
      <trkpt lat="46.03477" lon="6.79494">
        <ele>1777.61</ele>
        <time>2017-10-17T10:12:31Z</time>
      </trkpt>
      <trkpt lat="46.03476" lon="6.79493">
        <ele>1778.1</ele>
        <time>2017-10-17T10:12:32Z</time>
      </trkpt>
      <trkpt lat="46.03475" lon="6.79492">
        <ele>1778.1</ele>
        <time>2017-10-17T10:12:33Z</time>
      </trkpt>
      <trkpt lat="46.03474" lon="6.79491">
        <ele>1778.1</ele>
        <time>2017-10-17T10:12:34Z</time>
      </trkpt>
      <trkpt lat="46.03474" lon="6.79495">
        <ele>1779.54</ele>
        <time>2017-10-17T10:12:39Z</time>
      </trkpt>
      <trkpt lat="46.03475" lon="6.79497">
        <ele>1779.54</ele>
        <time>2017-10-17T10:12:40Z</time>
      </trkpt>
      <trkpt lat="46.03476" lon="6.79498">
        <ele>1779.54</ele>
        <time>2017-10-17T10:12:41Z</time>
      </trkpt>
      <trkpt lat="46.03477" lon="6.795">
        <ele>1780.02</ele>
        <time>2017-10-17T10:12:42Z</time>
      </trkpt>
      <trkpt lat="46.03478" lon="6.79502">
        <ele>1780.02</ele>
        <time>2017-10-17T10:12:43Z</time>
      </trkpt>
      <trkpt lat="46.03478" lon="6.79504">
        <ele>1780.5</ele>
        <time>2017-10-17T10:12:44Z</time>
      </trkpt>
      <trkpt lat="46.03483" lon="6.7952">
        <ele>1782.42</ele>
        <time>2017-10-17T10:12:51Z</time>
      </trkpt>
      <trkpt lat="46.03485" lon="6.79522">
        <ele>1782.42</ele>
        <time>2017-10-17T10:12:52Z</time>
      </trkpt>
      <trkpt lat="46.03485" lon="6.79525">
        <ele>1782.42</ele>
        <time>2017-10-17T10:12:53Z</time>
      </trkpt>
      <trkpt lat="46.03486" lon="6.79527">
        <ele>1782.42</ele>
        <time>2017-10-17T10:12:54Z</time>
      </trkpt>
      <trkpt lat="46.03487" lon="6.79528">
        <ele>1782.9</ele>
        <time>2017-10-17T10:12:55Z</time>
      </trkpt>
      <trkpt lat="46.03491" lon="6.79532">
        <ele>1783.38</ele>
        <time>2017-10-17T10:12:58Z</time>
      </trkpt>
      <trkpt lat="46.03492" lon="6.79535">
        <ele>1783.86</ele>
        <time>2017-10-17T10:12:59Z</time>
      </trkpt>
      <trkpt lat="46.03495" lon="6.79539">
        <ele>1784.82</ele>
        <time>2017-10-17T10:13:02Z</time>
      </trkpt>
      <trkpt lat="46.03496" lon="6.7954">
        <ele>1784.82</ele>
        <time>2017-10-17T10:13:03Z</time>
      </trkpt>
      <trkpt lat="46.03497" lon="6.79541">
        <ele>1784.82</ele>
        <time>2017-10-17T10:13:04Z</time>
      </trkpt>
      <trkpt lat="46.03498" lon="6.79542">
        <ele>1784.82</ele>
        <time>2017-10-17T10:13:05Z</time>
      </trkpt>
      <trkpt lat="46.035" lon="6.79543">
        <ele>1785.79</ele>
        <time>2017-10-17T10:13:06Z</time>
      </trkpt>
      <trkpt lat="46.03501" lon="6.79544">
        <ele>1785.79</ele>
        <time>2017-10-17T10:13:07Z</time>
      </trkpt>
      <trkpt lat="46.03502" lon="6.79546">
        <ele>1786.27</ele>
        <time>2017-10-17T10:13:08Z</time>
      </trkpt>
      <trkpt lat="46.03512" lon="6.79571">
        <ele>1789.15</ele>
        <time>2017-10-17T10:13:22Z</time>
      </trkpt>
      <trkpt lat="46.03514" lon="6.7958">
        <ele>1789.63</ele>
        <time>2017-10-17T10:13:26Z</time>
      </trkpt>
      <trkpt lat="46.03516" lon="6.79582">
        <ele>1790.11</ele>
        <time>2017-10-17T10:13:27Z</time>
      </trkpt>
      <trkpt lat="46.03517" lon="6.79583">
        <ele>1790.59</ele>
        <time>2017-10-17T10:13:28Z</time>
      </trkpt>
      <trkpt lat="46.03518" lon="6.79584">
        <ele>1790.59</ele>
        <time>2017-10-17T10:13:29Z</time>
      </trkpt>
      <trkpt lat="46.03518" lon="6.79585">
        <ele>1791.07</ele>
        <time>2017-10-17T10:13:30Z</time>
      </trkpt>
      <trkpt lat="46.03519" lon="6.79586">
        <ele>1791.55</ele>
        <time>2017-10-17T10:13:31Z</time>
      </trkpt>
      <trkpt lat="46.0352" lon="6.79588">
        <ele>1791.55</ele>
        <time>2017-10-17T10:13:32Z</time>
      </trkpt>
      <trkpt lat="46.03522" lon="6.79595">
        <ele>1793</ele>
        <time>2017-10-17T10:13:37Z</time>
      </trkpt>
      <trkpt lat="46.03523" lon="6.79595">
        <ele>1793</ele>
        <time>2017-10-17T10:13:38Z</time>
      </trkpt>
      <trkpt lat="46.03524" lon="6.79597">
        <ele>1793.48</ele>
        <time>2017-10-17T10:13:40Z</time>
      </trkpt>
      <trkpt lat="46.03525" lon="6.79598">
        <ele>1793.48</ele>
        <time>2017-10-17T10:13:41Z</time>
      </trkpt>
      <trkpt lat="46.03526" lon="6.79599">
        <ele>1793.96</ele>
        <time>2017-10-17T10:13:42Z</time>
      </trkpt>
      <trkpt lat="46.03528" lon="6.79602">
        <ele>1794.44</ele>
        <time>2017-10-17T10:13:44Z</time>
      </trkpt>
      <trkpt lat="46.03529" lon="6.79603">
        <ele>1794.44</ele>
        <time>2017-10-17T10:13:45Z</time>
      </trkpt>
      <trkpt lat="46.03529" lon="6.79605">
        <ele>1794.44</ele>
        <time>2017-10-17T10:13:46Z</time>
      </trkpt>
      <trkpt lat="46.03529" lon="6.7961">
        <ele>1795.4</ele>
        <time>2017-10-17T10:13:49Z</time>
      </trkpt>
      <trkpt lat="46.03529" lon="6.79612">
        <ele>1795.4</ele>
        <time>2017-10-17T10:13:50Z</time>
      </trkpt>
      <trkpt lat="46.03529" lon="6.79613">
        <ele>1795.4</ele>
        <time>2017-10-17T10:13:51Z</time>
      </trkpt>
      <trkpt lat="46.03529" lon="6.79615">
        <ele>1795.4</ele>
        <time>2017-10-17T10:13:52Z</time>
      </trkpt>
      <trkpt lat="46.03528" lon="6.79615">
        <ele>1795.4</ele>
        <time>2017-10-17T10:13:54Z</time>
      </trkpt>
      <trkpt lat="46.03527" lon="6.79615">
        <ele>1795.88</ele>
        <time>2017-10-17T10:13:55Z</time>
      </trkpt>
      <trkpt lat="46.03522" lon="6.79612">
        <ele>1796.84</ele>
        <time>2017-10-17T10:14:00Z</time>
      </trkpt>
      <trkpt lat="46.03521" lon="6.79612">
        <ele>1796.84</ele>
        <time>2017-10-17T10:14:01Z</time>
      </trkpt>
      <trkpt lat="46.0352" lon="6.79612">
        <ele>1797.32</ele>
        <time>2017-10-17T10:14:02Z</time>
      </trkpt>
      <trkpt lat="46.03519" lon="6.79613">
        <ele>1797.32</ele>
        <time>2017-10-17T10:14:03Z</time>
      </trkpt>
      <trkpt lat="46.03517" lon="6.79613">
        <ele>1797.32</ele>
        <time>2017-10-17T10:14:04Z</time>
      </trkpt>
      <trkpt lat="46.03516" lon="6.79614">
        <ele>1797.8</ele>
        <time>2017-10-17T10:14:05Z</time>
      </trkpt>
      <trkpt lat="46.03515" lon="6.79614">
        <ele>1798.28</ele>
        <time>2017-10-17T10:14:06Z</time>
      </trkpt>
      <trkpt lat="46.03513" lon="6.79614">
        <ele>1798.28</ele>
        <time>2017-10-17T10:14:07Z</time>
      </trkpt>
      <trkpt lat="46.03509" lon="6.79613">
        <ele>1798.76</ele>
        <time>2017-10-17T10:14:11Z</time>
      </trkpt>
      <trkpt lat="46.03508" lon="6.79613">
        <ele>1798.76</ele>
        <time>2017-10-17T10:14:12Z</time>
      </trkpt>
      <trkpt lat="46.03507" lon="6.79613">
        <ele>1798.76</ele>
        <time>2017-10-17T10:14:13Z</time>
      </trkpt>
      <trkpt lat="46.03506" lon="6.79613">
        <ele>1799.24</ele>
        <time>2017-10-17T10:14:14Z</time>
      </trkpt>
      <trkpt lat="46.03507" lon="6.79614">
        <ele>1800.21</ele>
        <time>2017-10-17T10:14:18Z</time>
      </trkpt>
      <trkpt lat="46.03508" lon="6.79615">
        <ele>1800.21</ele>
        <time>2017-10-17T10:14:19Z</time>
      </trkpt>
      <trkpt lat="46.0351" lon="6.79616">
        <ele>1800.69</ele>
        <time>2017-10-17T10:14:20Z</time>
      </trkpt>
      <trkpt lat="46.03511" lon="6.79616">
        <ele>1800.69</ele>
        <time>2017-10-17T10:14:21Z</time>
      </trkpt>
      <trkpt lat="46.03511" lon="6.79617">
        <ele>1801.17</ele>
        <time>2017-10-17T10:14:22Z</time>
      </trkpt>
      <trkpt lat="46.03512" lon="6.79619">
        <ele>1801.17</ele>
        <time>2017-10-17T10:14:23Z</time>
      </trkpt>
      <trkpt lat="46.03513" lon="6.7962">
        <ele>1801.17</ele>
        <time>2017-10-17T10:14:24Z</time>
      </trkpt>
      <trkpt lat="46.03514" lon="6.79621">
        <ele>1801.17</ele>
        <time>2017-10-17T10:14:25Z</time>
      </trkpt>
      <trkpt lat="46.03521" lon="6.79629">
        <ele>1803.09</ele>
        <time>2017-10-17T10:14:33Z</time>
      </trkpt>
      <trkpt lat="46.03521" lon="6.7963">
        <ele>1803.09</ele>
        <time>2017-10-17T10:14:34Z</time>
      </trkpt>
      <trkpt lat="46.0352" lon="6.79631">
        <ele>1803.57</ele>
        <time>2017-10-17T10:14:35Z</time>
      </trkpt>
      <trkpt lat="46.03519" lon="6.7963">
        <ele>1804.05</ele>
        <time>2017-10-17T10:14:36Z</time>
      </trkpt>
      <trkpt lat="46.0351" lon="6.79626">
        <ele>1805.49</ele>
        <time>2017-10-17T10:14:45Z</time>
      </trkpt>
      <trkpt lat="46.03509" lon="6.79626">
        <ele>1805.97</ele>
        <time>2017-10-17T10:14:46Z</time>
      </trkpt>
      <trkpt lat="46.0349" lon="6.79617">
        <ele>1808.38</ele>
        <time>2017-10-17T10:15:00Z</time>
      </trkpt>
      <trkpt lat="46.03482" lon="6.7961">
        <ele>1809.82</ele>
        <time>2017-10-17T10:15:06Z</time>
      </trkpt>
      <trkpt lat="46.03469" lon="6.79597">
        <ele>1813.18</ele>
        <time>2017-10-17T10:15:17Z</time>
      </trkpt>
      <trkpt lat="46.03451" lon="6.79585">
        <ele>1816.07</ele>
        <time>2017-10-17T10:15:30Z</time>
      </trkpt>
      <trkpt lat="46.03444" lon="6.79584">
        <ele>1818.95</ele>
        <time>2017-10-17T10:15:39Z</time>
      </trkpt>
      <trkpt lat="46.03452" lon="6.79597">
        <ele>1820.87</ele>
        <time>2017-10-17T10:15:50Z</time>
      </trkpt>
      <trkpt lat="46.03452" lon="6.79598">
        <ele>1821.35</ele>
        <time>2017-10-17T10:15:51Z</time>
      </trkpt>
      <trkpt lat="46.0345" lon="6.79602">
        <ele>1821.84</ele>
        <time>2017-10-17T10:15:54Z</time>
      </trkpt>
      <trkpt lat="46.03449" lon="6.79603">
        <ele>1821.84</ele>
        <time>2017-10-17T10:15:55Z</time>
      </trkpt>
      <trkpt lat="46.03448" lon="6.79604">
        <ele>1822.32</ele>
        <time>2017-10-17T10:15:56Z</time>
      </trkpt>
      <trkpt lat="46.03447" lon="6.79605">
        <ele>1822.32</ele>
        <time>2017-10-17T10:15:57Z</time>
      </trkpt>
      <trkpt lat="46.03447" lon="6.79607">
        <ele>1822.32</ele>
        <time>2017-10-17T10:15:58Z</time>
      </trkpt>
      <trkpt lat="46.03447" lon="6.79608">
        <ele>1822.8</ele>
        <time>2017-10-17T10:15:59Z</time>
      </trkpt>
      <trkpt lat="46.03447" lon="6.7961">
        <ele>1822.8</ele>
        <time>2017-10-17T10:16:00Z</time>
      </trkpt>
      <trkpt lat="46.03448" lon="6.79612">
        <ele>1822.8</ele>
        <time>2017-10-17T10:16:01Z</time>
      </trkpt>
      <trkpt lat="46.03448" lon="6.79614">
        <ele>1822.8</ele>
        <time>2017-10-17T10:16:02Z</time>
      </trkpt>
      <trkpt lat="46.03449" lon="6.79616">
        <ele>1823.28</ele>
        <time>2017-10-17T10:16:03Z</time>
      </trkpt>
      <trkpt lat="46.0345" lon="6.79617">
        <ele>1823.28</ele>
        <time>2017-10-17T10:16:04Z</time>
      </trkpt>
      <trkpt lat="46.03453" lon="6.79622">
        <ele>1823.76</ele>
        <time>2017-10-17T10:16:07Z</time>
      </trkpt>
      <trkpt lat="46.03455" lon="6.79623">
        <ele>1823.76</ele>
        <time>2017-10-17T10:16:08Z</time>
      </trkpt>
      <trkpt lat="46.03456" lon="6.79625">
        <ele>1823.76</ele>
        <time>2017-10-17T10:16:09Z</time>
      </trkpt>
      <trkpt lat="46.03457" lon="6.79626">
        <ele>1824.24</ele>
        <time>2017-10-17T10:16:10Z</time>
      </trkpt>
      <trkpt lat="46.03458" lon="6.79627">
        <ele>1824.72</ele>
        <time>2017-10-17T10:16:11Z</time>
      </trkpt>
      <trkpt lat="46.03471" lon="6.7964">
        <ele>1827.6</ele>
        <time>2017-10-17T10:16:22Z</time>
      </trkpt>
      <trkpt lat="46.03482" lon="6.79657">
        <ele>1830.01</ele>
        <time>2017-10-17T10:16:34Z</time>
      </trkpt>
      <trkpt lat="46.03482" lon="6.79658">
        <ele>1830.49</ele>
        <time>2017-10-17T10:16:35Z</time>
      </trkpt>
      <trkpt lat="46.03483" lon="6.79659">
        <ele>1830.49</ele>
        <time>2017-10-17T10:16:36Z</time>
      </trkpt>
      <trkpt lat="46.03483" lon="6.7966">
        <ele>1830.97</ele>
        <time>2017-10-17T10:16:37Z</time>
      </trkpt>
      <trkpt lat="46.03482" lon="6.79661">
        <ele>1830.97</ele>
        <time>2017-10-17T10:16:38Z</time>
      </trkpt>
      <trkpt lat="46.03481" lon="6.79661">
        <ele>1830.97</ele>
        <time>2017-10-17T10:16:39Z</time>
      </trkpt>
      <trkpt lat="46.03483" lon="6.79665">
        <ele>1832.41</ele>
        <time>2017-10-17T10:16:44Z</time>
      </trkpt>
      <trkpt lat="46.03488" lon="6.79672">
        <ele>1833.85</ele>
        <time>2017-10-17T10:16:50Z</time>
      </trkpt>
      <trkpt lat="46.03489" lon="6.79673">
        <ele>1834.33</ele>
        <time>2017-10-17T10:16:51Z</time>
      </trkpt>
      <trkpt lat="46.0349" lon="6.79673">
        <ele>1834.33</ele>
        <time>2017-10-17T10:16:52Z</time>
      </trkpt>
      <trkpt lat="46.03491" lon="6.79674">
        <ele>1834.33</ele>
        <time>2017-10-17T10:16:53Z</time>
      </trkpt>
      <trkpt lat="46.03492" lon="6.79675">
        <ele>1834.33</ele>
        <time>2017-10-17T10:16:54Z</time>
      </trkpt>
      <trkpt lat="46.03494" lon="6.79675">
        <ele>1834.33</ele>
        <time>2017-10-17T10:16:55Z</time>
      </trkpt>
      <trkpt lat="46.03495" lon="6.79676">
        <ele>1834.33</ele>
        <time>2017-10-17T10:16:56Z</time>
      </trkpt>
      <trkpt lat="46.03496" lon="6.79677">
        <ele>1834.33</ele>
        <time>2017-10-17T10:16:57Z</time>
      </trkpt>
      <trkpt lat="46.03505" lon="6.797">
        <ele>1836.74</ele>
        <time>2017-10-17T10:17:13Z</time>
      </trkpt>
      <trkpt lat="46.03511" lon="6.79716">
        <ele>1839.62</ele>
        <time>2017-10-17T10:17:25Z</time>
      </trkpt>
      <trkpt lat="46.03512" lon="6.79718">
        <ele>1839.62</ele>
        <time>2017-10-17T10:17:26Z</time>
      </trkpt>
      <trkpt lat="46.03512" lon="6.79719">
        <ele>1840.1</ele>
        <time>2017-10-17T10:17:27Z</time>
      </trkpt>
      <trkpt lat="46.03512" lon="6.79721">
        <ele>1840.1</ele>
        <time>2017-10-17T10:17:28Z</time>
      </trkpt>
      <trkpt lat="46.0351" lon="6.7972">
        <ele>1840.58</ele>
        <time>2017-10-17T10:17:30Z</time>
      </trkpt>
      <trkpt lat="46.0351" lon="6.79719">
        <ele>1841.06</ele>
        <time>2017-10-17T10:17:31Z</time>
      </trkpt>
      <trkpt lat="46.03508" lon="6.79719">
        <ele>1842.02</ele>
        <time>2017-10-17T10:17:36Z</time>
      </trkpt>
      <trkpt lat="46.03508" lon="6.7972">
        <ele>1842.5</ele>
        <time>2017-10-17T10:17:37Z</time>
      </trkpt>
      <trkpt lat="46.0351" lon="6.79726">
        <ele>1843.47</ele>
        <time>2017-10-17T10:17:41Z</time>
      </trkpt>
      <trkpt lat="46.03511" lon="6.79726">
        <ele>1843.95</ele>
        <time>2017-10-17T10:17:42Z</time>
      </trkpt>
      <trkpt lat="46.03515" lon="6.79736">
        <ele>1845.39</ele>
        <time>2017-10-17T10:17:50Z</time>
      </trkpt>
      <trkpt lat="46.03514" lon="6.79736">
        <ele>1845.87</ele>
        <time>2017-10-17T10:17:51Z</time>
      </trkpt>
      <trkpt lat="46.03513" lon="6.79735">
        <ele>1846.35</ele>
        <time>2017-10-17T10:17:52Z</time>
      </trkpt>
      <trkpt lat="46.03512" lon="6.79734">
        <ele>1846.35</ele>
        <time>2017-10-17T10:17:53Z</time>
      </trkpt>
      <trkpt lat="46.03511" lon="6.79733">
        <ele>1846.83</ele>
        <time>2017-10-17T10:17:54Z</time>
      </trkpt>
      <trkpt lat="46.0351" lon="6.79732">
        <ele>1846.83</ele>
        <time>2017-10-17T10:17:55Z</time>
      </trkpt>
      <trkpt lat="46.03509" lon="6.79731">
        <ele>1846.83</ele>
        <time>2017-10-17T10:17:56Z</time>
      </trkpt>
      <trkpt lat="46.03508" lon="6.7973">
        <ele>1846.83</ele>
        <time>2017-10-17T10:17:57Z</time>
      </trkpt>
      <trkpt lat="46.03507" lon="6.79729">
        <ele>1846.83</ele>
        <time>2017-10-17T10:17:58Z</time>
      </trkpt>
      <trkpt lat="46.03507" lon="6.79728">
        <ele>1847.31</ele>
        <time>2017-10-17T10:17:59Z</time>
      </trkpt>
      <trkpt lat="46.03505" lon="6.79728">
        <ele>1847.31</ele>
        <time>2017-10-17T10:18:00Z</time>
      </trkpt>
      <trkpt lat="46.03487" lon="6.79718">
        <ele>1850.19</ele>
        <time>2017-10-17T10:18:14Z</time>
      </trkpt>
      <trkpt lat="46.03485" lon="6.79718">
        <ele>1850.68</ele>
        <time>2017-10-17T10:18:16Z</time>
      </trkpt>
      <trkpt lat="46.03483" lon="6.79717">
        <ele>1850.68</ele>
        <time>2017-10-17T10:18:17Z</time>
      </trkpt>
      <trkpt lat="46.03482" lon="6.79715">
        <ele>1851.16</ele>
        <time>2017-10-17T10:18:18Z</time>
      </trkpt>
      <trkpt lat="46.03482" lon="6.79713">
        <ele>1851.64</ele>
        <time>2017-10-17T10:18:19Z</time>
      </trkpt>
      <trkpt lat="46.03481" lon="6.79711">
        <ele>1851.64</ele>
        <time>2017-10-17T10:18:20Z</time>
      </trkpt>
      <trkpt lat="46.0348" lon="6.7971">
        <ele>1851.64</ele>
        <time>2017-10-17T10:18:21Z</time>
      </trkpt>
      <trkpt lat="46.03478" lon="6.79708">
        <ele>1851.64</ele>
        <time>2017-10-17T10:18:22Z</time>
      </trkpt>
      <trkpt lat="46.03477" lon="6.79706">
        <ele>1851.64</ele>
        <time>2017-10-17T10:18:23Z</time>
      </trkpt>
      <trkpt lat="46.03476" lon="6.79704">
        <ele>1852.12</ele>
        <time>2017-10-17T10:18:24Z</time>
      </trkpt>
      <trkpt lat="46.03472" lon="6.79697">
        <ele>1853.08</ele>
        <time>2017-10-17T10:18:28Z</time>
      </trkpt>
      <trkpt lat="46.03471" lon="6.79697">
        <ele>1853.08</ele>
        <time>2017-10-17T10:18:29Z</time>
      </trkpt>
      <trkpt lat="46.03469" lon="6.79696">
        <ele>1853.56</ele>
        <time>2017-10-17T10:18:30Z</time>
      </trkpt>
      <trkpt lat="46.03467" lon="6.79697">
        <ele>1854.04</ele>
        <time>2017-10-17T10:18:31Z</time>
      </trkpt>
      <trkpt lat="46.03466" lon="6.79697">
        <ele>1854.04</ele>
        <time>2017-10-17T10:18:32Z</time>
      </trkpt>
      <trkpt lat="46.03465" lon="6.79698">
        <ele>1854.04</ele>
        <time>2017-10-17T10:18:33Z</time>
      </trkpt>
      <trkpt lat="46.03463" lon="6.79699">
        <ele>1854.52</ele>
        <time>2017-10-17T10:18:34Z</time>
      </trkpt>
      <trkpt lat="46.03462" lon="6.79701">
        <ele>1854.52</ele>
        <time>2017-10-17T10:18:35Z</time>
      </trkpt>
      <trkpt lat="46.03462" lon="6.79702">
        <ele>1855</ele>
        <time>2017-10-17T10:18:36Z</time>
      </trkpt>
      <trkpt lat="46.03462" lon="6.79705">
        <ele>1855</ele>
        <time>2017-10-17T10:18:37Z</time>
      </trkpt>
      <trkpt lat="46.03462" lon="6.79707">
        <ele>1855</ele>
        <time>2017-10-17T10:18:38Z</time>
      </trkpt>
      <trkpt lat="46.03463" lon="6.7971">
        <ele>1855</ele>
        <time>2017-10-17T10:18:39Z</time>
      </trkpt>
      <trkpt lat="46.03464" lon="6.79712">
        <ele>1855</ele>
        <time>2017-10-17T10:18:40Z</time>
      </trkpt>
      <trkpt lat="46.03464" lon="6.79716">
        <ele>1855</ele>
        <time>2017-10-17T10:18:41Z</time>
      </trkpt>
      <trkpt lat="46.03465" lon="6.79719">
        <ele>1855</ele>
        <time>2017-10-17T10:18:42Z</time>
      </trkpt>
      <trkpt lat="46.03465" lon="6.79722">
        <ele>1855.48</ele>
        <time>2017-10-17T10:18:43Z</time>
      </trkpt>
      <trkpt lat="46.03466" lon="6.79725">
        <ele>1855.48</ele>
        <time>2017-10-17T10:18:44Z</time>
      </trkpt>
      <trkpt lat="46.03467" lon="6.79728">
        <ele>1855.48</ele>
        <time>2017-10-17T10:18:45Z</time>
      </trkpt>
      <trkpt lat="46.03468" lon="6.7973">
        <ele>1855.48</ele>
        <time>2017-10-17T10:18:46Z</time>
      </trkpt>
      <trkpt lat="46.03469" lon="6.79731">
        <ele>1855.48</ele>
        <time>2017-10-17T10:18:47Z</time>
      </trkpt>
      <trkpt lat="46.03471" lon="6.79733">
        <ele>1855.48</ele>
        <time>2017-10-17T10:18:48Z</time>
      </trkpt>
      <trkpt lat="46.03472" lon="6.79733">
        <ele>1855.96</ele>
        <time>2017-10-17T10:18:49Z</time>
      </trkpt>
      <trkpt lat="46.03473" lon="6.79733">
        <ele>1855.96</ele>
        <time>2017-10-17T10:18:50Z</time>
      </trkpt>
      <trkpt lat="46.03474" lon="6.79733">
        <ele>1856.44</ele>
        <time>2017-10-17T10:18:51Z</time>
      </trkpt>
      <trkpt lat="46.03475" lon="6.79734">
        <ele>1856.92</ele>
        <time>2017-10-17T10:18:52Z</time>
      </trkpt>
      <trkpt lat="46.03476" lon="6.79734">
        <ele>1856.92</ele>
        <time>2017-10-17T10:18:53Z</time>
      </trkpt>
      <trkpt lat="46.03477" lon="6.79735">
        <ele>1857.4</ele>
        <time>2017-10-17T10:18:54Z</time>
      </trkpt>
      <trkpt lat="46.03479" lon="6.79735">
        <ele>1857.4</ele>
        <time>2017-10-17T10:18:55Z</time>
      </trkpt>
      <trkpt lat="46.0348" lon="6.79736">
        <ele>1857.89</ele>
        <time>2017-10-17T10:18:56Z</time>
      </trkpt>
      <trkpt lat="46.03481" lon="6.79736">
        <ele>1858.37</ele>
        <time>2017-10-17T10:18:57Z</time>
      </trkpt>
      <trkpt lat="46.03482" lon="6.79737">
        <ele>1858.37</ele>
        <time>2017-10-17T10:18:58Z</time>
      </trkpt>
      <trkpt lat="46.03484" lon="6.79738">
        <ele>1858.37</ele>
        <time>2017-10-17T10:18:59Z</time>
      </trkpt>
      <trkpt lat="46.03492" lon="6.79741">
        <ele>1860.77</ele>
        <time>2017-10-17T10:19:07Z</time>
      </trkpt>
      <trkpt lat="46.03493" lon="6.79741">
        <ele>1860.77</ele>
        <time>2017-10-17T10:19:08Z</time>
      </trkpt>
      <trkpt lat="46.03497" lon="6.79744">
        <ele>1861.73</ele>
        <time>2017-10-17T10:19:12Z</time>
      </trkpt>
      <trkpt lat="46.03498" lon="6.79747">
        <ele>1862.21</ele>
        <time>2017-10-17T10:19:14Z</time>
      </trkpt>
      <trkpt lat="46.03498" lon="6.79748">
        <ele>1862.21</ele>
        <time>2017-10-17T10:19:15Z</time>
      </trkpt>
      <trkpt lat="46.03497" lon="6.79749">
        <ele>1862.69</ele>
        <time>2017-10-17T10:19:16Z</time>
      </trkpt>
      <trkpt lat="46.03496" lon="6.79749">
        <ele>1862.69</ele>
        <time>2017-10-17T10:19:17Z</time>
      </trkpt>
      <trkpt lat="46.03493" lon="6.79751">
        <ele>1864.13</ele>
        <time>2017-10-17T10:19:22Z</time>
      </trkpt>
      <trkpt lat="46.03492" lon="6.79753">
        <ele>1864.61</ele>
        <time>2017-10-17T10:19:23Z</time>
      </trkpt>
      <trkpt lat="46.03492" lon="6.79754">
        <ele>1864.61</ele>
        <time>2017-10-17T10:19:24Z</time>
      </trkpt>
      <trkpt lat="46.03491" lon="6.79756">
        <ele>1865.09</ele>
        <time>2017-10-17T10:19:25Z</time>
      </trkpt>
      <trkpt lat="46.03491" lon="6.79758">
        <ele>1865.09</ele>
        <time>2017-10-17T10:19:26Z</time>
      </trkpt>
      <trkpt lat="46.03488" lon="6.79775">
        <ele>1867.5</ele>
        <time>2017-10-17T10:19:38Z</time>
      </trkpt>
      <trkpt lat="46.03487" lon="6.79776">
        <ele>1867.5</ele>
        <time>2017-10-17T10:19:39Z</time>
      </trkpt>
      <trkpt lat="46.03485" lon="6.79776">
        <ele>1867.98</ele>
        <time>2017-10-17T10:19:40Z</time>
      </trkpt>
      <trkpt lat="46.03484" lon="6.79777">
        <ele>1867.98</ele>
        <time>2017-10-17T10:19:41Z</time>
      </trkpt>
      <trkpt lat="46.03483" lon="6.79777">
        <ele>1867.98</ele>
        <time>2017-10-17T10:19:42Z</time>
      </trkpt>
      <trkpt lat="46.03481" lon="6.79777">
        <ele>1868.46</ele>
        <time>2017-10-17T10:19:43Z</time>
      </trkpt>
      <trkpt lat="46.03469" lon="6.79777">
        <ele>1869.9</ele>
        <time>2017-10-17T10:19:52Z</time>
      </trkpt>
      <trkpt lat="46.03468" lon="6.79778">
        <ele>1869.9</ele>
        <time>2017-10-17T10:19:53Z</time>
      </trkpt>
      <trkpt lat="46.03467" lon="6.79778">
        <ele>1870.38</ele>
        <time>2017-10-17T10:19:54Z</time>
      </trkpt>
      <trkpt lat="46.03466" lon="6.79779">
        <ele>1870.38</ele>
        <time>2017-10-17T10:19:55Z</time>
      </trkpt>
      <trkpt lat="46.03465" lon="6.7978">
        <ele>1870.38</ele>
        <time>2017-10-17T10:19:56Z</time>
      </trkpt>
      <trkpt lat="46.03464" lon="6.7978">
        <ele>1870.38</ele>
        <time>2017-10-17T10:19:57Z</time>
      </trkpt>
      <trkpt lat="46.03462" lon="6.7978">
        <ele>1870.38</ele>
        <time>2017-10-17T10:19:58Z</time>
      </trkpt>
      <trkpt lat="46.03461" lon="6.79779">
        <ele>1870.38</ele>
        <time>2017-10-17T10:19:59Z</time>
      </trkpt>
      <trkpt lat="46.0346" lon="6.7978">
        <ele>1870.86</ele>
        <time>2017-10-17T10:20:00Z</time>
      </trkpt>
      <trkpt lat="46.0345" lon="6.79781">
        <ele>1872.3</ele>
        <time>2017-10-17T10:20:08Z</time>
      </trkpt>
      <trkpt lat="46.03442" lon="6.79778">
        <ele>1873.75</ele>
        <time>2017-10-17T10:20:15Z</time>
      </trkpt>
      <trkpt lat="46.03422" lon="6.79773">
        <ele>1876.15</ele>
        <time>2017-10-17T10:20:31Z</time>
      </trkpt>
      <trkpt lat="46.03421" lon="6.79773">
        <ele>1876.15</ele>
        <time>2017-10-17T10:20:32Z</time>
      </trkpt>
      <trkpt lat="46.0342" lon="6.79773">
        <ele>1876.63</ele>
        <time>2017-10-17T10:20:34Z</time>
      </trkpt>
      <trkpt lat="46.03413" lon="6.7977">
        <ele>1878.55</ele>
        <time>2017-10-17T10:20:41Z</time>
      </trkpt>
      <trkpt lat="46.03412" lon="6.79769">
        <ele>1878.55</ele>
        <time>2017-10-17T10:20:42Z</time>
      </trkpt>
      <trkpt lat="46.03411" lon="6.79768">
        <ele>1879.03</ele>
        <time>2017-10-17T10:20:43Z</time>
      </trkpt>
      <trkpt lat="46.03393" lon="6.79759">
        <ele>1881.92</ele>
        <time>2017-10-17T10:20:58Z</time>
      </trkpt>
      <trkpt lat="46.03385" lon="6.79758">
        <ele>1883.36</ele>
        <time>2017-10-17T10:21:05Z</time>
      </trkpt>
      <trkpt lat="46.03385" lon="6.79758">
        <ele>1883.84</ele>
        <time>2017-10-17T10:21:06Z</time>
      </trkpt>
      <trkpt lat="46.03381" lon="6.79759">
        <ele>1884.32</ele>
        <time>2017-10-17T10:21:09Z</time>
      </trkpt>
      <trkpt lat="46.0338" lon="6.79759">
        <ele>1884.8</ele>
        <time>2017-10-17T10:21:10Z</time>
      </trkpt>
      <trkpt lat="46.03379" lon="6.7976">
        <ele>1885.28</ele>
        <time>2017-10-17T10:21:12Z</time>
      </trkpt>
      <trkpt lat="46.03378" lon="6.7976">
        <ele>1885.76</ele>
        <time>2017-10-17T10:21:13Z</time>
      </trkpt>
      <trkpt lat="46.03376" lon="6.79761">
        <ele>1885.76</ele>
        <time>2017-10-17T10:21:15Z</time>
      </trkpt>
      <trkpt lat="46.03375" lon="6.79762">
        <ele>1886.24</ele>
        <time>2017-10-17T10:21:16Z</time>
      </trkpt>
      <trkpt lat="46.03374" lon="6.79762">
        <ele>1886.24</ele>
        <time>2017-10-17T10:21:17Z</time>
      </trkpt>
      <trkpt lat="46.03373" lon="6.79763">
        <ele>1886.72</ele>
        <time>2017-10-17T10:21:18Z</time>
      </trkpt>
      <trkpt lat="46.03372" lon="6.79765">
        <ele>1886.72</ele>
        <time>2017-10-17T10:21:19Z</time>
      </trkpt>
      <trkpt lat="46.03371" lon="6.79766">
        <ele>1886.72</ele>
        <time>2017-10-17T10:21:20Z</time>
      </trkpt>
      <trkpt lat="46.0337" lon="6.79767">
        <ele>1887.21</ele>
        <time>2017-10-17T10:21:21Z</time>
      </trkpt>
      <trkpt lat="46.03351" lon="6.79757">
        <ele>1888.65</ele>
        <time>2017-10-17T10:21:36Z</time>
      </trkpt>
      <trkpt lat="46.0334" lon="6.79755">
        <ele>1890.09</ele>
        <time>2017-10-17T10:21:44Z</time>
      </trkpt>
      <trkpt lat="46.0334" lon="6.79756">
        <ele>1890.57</ele>
        <time>2017-10-17T10:21:45Z</time>
      </trkpt>
      <trkpt lat="46.03341" lon="6.79757">
        <ele>1890.57</ele>
        <time>2017-10-17T10:21:46Z</time>
      </trkpt>
      <trkpt lat="46.03343" lon="6.79757">
        <ele>1891.05</ele>
        <time>2017-10-17T10:21:47Z</time>
      </trkpt>
      <trkpt lat="46.03344" lon="6.79757">
        <ele>1891.05</ele>
        <time>2017-10-17T10:21:48Z</time>
      </trkpt>
      <trkpt lat="46.03346" lon="6.79758">
        <ele>1891.05</ele>
        <time>2017-10-17T10:21:49Z</time>
      </trkpt>
      <trkpt lat="46.03348" lon="6.7976">
        <ele>1891.05</ele>
        <time>2017-10-17T10:21:50Z</time>
      </trkpt>
      <trkpt lat="46.0335" lon="6.79761">
        <ele>1891.05</ele>
        <time>2017-10-17T10:21:51Z</time>
      </trkpt>
      <trkpt lat="46.03351" lon="6.79763">
        <ele>1891.53</ele>
        <time>2017-10-17T10:21:52Z</time>
      </trkpt>
      <trkpt lat="46.03359" lon="6.79775">
        <ele>1893.45</ele>
        <time>2017-10-17T10:21:59Z</time>
      </trkpt>
      <trkpt lat="46.03358" lon="6.79776">
        <ele>1893.45</ele>
        <time>2017-10-17T10:22:00Z</time>
      </trkpt>
      <trkpt lat="46.03357" lon="6.79777">
        <ele>1893.93</ele>
        <time>2017-10-17T10:22:01Z</time>
      </trkpt>
      <trkpt lat="46.03355" lon="6.79776">
        <ele>1893.93</ele>
        <time>2017-10-17T10:22:02Z</time>
      </trkpt>
      <trkpt lat="46.03354" lon="6.79776">
        <ele>1894.42</ele>
        <time>2017-10-17T10:22:03Z</time>
      </trkpt>
      <trkpt lat="46.03353" lon="6.79775">
        <ele>1894.42</ele>
        <time>2017-10-17T10:22:04Z</time>
      </trkpt>
      <trkpt lat="46.03351" lon="6.79774">
        <ele>1894.9</ele>
        <time>2017-10-17T10:22:05Z</time>
      </trkpt>
      <trkpt lat="46.0335" lon="6.79773">
        <ele>1894.9</ele>
        <time>2017-10-17T10:22:06Z</time>
      </trkpt>
      <trkpt lat="46.03347" lon="6.79772">
        <ele>1895.38</ele>
        <time>2017-10-17T10:22:08Z</time>
      </trkpt>
      <trkpt lat="46.03334" lon="6.79769">
        <ele>1898.26</ele>
        <time>2017-10-17T10:22:17Z</time>
      </trkpt>
      <trkpt lat="46.03333" lon="6.79768">
        <ele>1898.74</ele>
        <time>2017-10-17T10:22:18Z</time>
      </trkpt>
      <trkpt lat="46.03331" lon="6.79768">
        <ele>1899.22</ele>
        <time>2017-10-17T10:22:20Z</time>
      </trkpt>
      <trkpt lat="46.0333" lon="6.79768">
        <ele>1899.22</ele>
        <time>2017-10-17T10:22:21Z</time>
      </trkpt>
      <trkpt lat="46.03329" lon="6.79767">
        <ele>1899.22</ele>
        <time>2017-10-17T10:22:22Z</time>
      </trkpt>
      <trkpt lat="46.03328" lon="6.79767">
        <ele>1899.7</ele>
        <time>2017-10-17T10:22:23Z</time>
      </trkpt>
      <trkpt lat="46.03327" lon="6.79767">
        <ele>1899.7</ele>
        <time>2017-10-17T10:22:24Z</time>
      </trkpt>
      <trkpt lat="46.03326" lon="6.79767">
        <ele>1900.18</ele>
        <time>2017-10-17T10:22:25Z</time>
      </trkpt>
      <trkpt lat="46.03325" lon="6.79766">
        <ele>1900.18</ele>
        <time>2017-10-17T10:22:26Z</time>
      </trkpt>
      <trkpt lat="46.03324" lon="6.79765">
        <ele>1900.18</ele>
        <time>2017-10-17T10:22:27Z</time>
      </trkpt>
      <trkpt lat="46.03323" lon="6.79765">
        <ele>1900.18</ele>
        <time>2017-10-17T10:22:28Z</time>
      </trkpt>
      <trkpt lat="46.03322" lon="6.79765">
        <ele>1900.66</ele>
        <time>2017-10-17T10:22:29Z</time>
      </trkpt>
      <trkpt lat="46.03321" lon="6.79765">
        <ele>1900.66</ele>
        <time>2017-10-17T10:22:30Z</time>
      </trkpt>
      <trkpt lat="46.03319" lon="6.79765">
        <ele>1901.14</ele>
        <time>2017-10-17T10:22:31Z</time>
      </trkpt>
      <trkpt lat="46.03318" lon="6.79764">
        <ele>1901.14</ele>
        <time>2017-10-17T10:22:32Z</time>
      </trkpt>
      <trkpt lat="46.03317" lon="6.79764">
        <ele>1901.14</ele>
        <time>2017-10-17T10:22:33Z</time>
      </trkpt>
      <trkpt lat="46.03316" lon="6.79763">
        <ele>1901.63</ele>
        <time>2017-10-17T10:22:34Z</time>
      </trkpt>
      <trkpt lat="46.03315" lon="6.79762">
        <ele>1901.63</ele>
        <time>2017-10-17T10:22:35Z</time>
      </trkpt>
      <trkpt lat="46.03314" lon="6.79761">
        <ele>1901.63</ele>
        <time>2017-10-17T10:22:36Z</time>
      </trkpt>
      <trkpt lat="46.03303" lon="6.79757">
        <ele>1903.55</ele>
        <time>2017-10-17T10:22:46Z</time>
      </trkpt>
      <trkpt lat="46.03302" lon="6.79757">
        <ele>1903.55</ele>
        <time>2017-10-17T10:22:47Z</time>
      </trkpt>
      <trkpt lat="46.03301" lon="6.79757">
        <ele>1903.55</ele>
        <time>2017-10-17T10:22:48Z</time>
      </trkpt>
      <trkpt lat="46.033" lon="6.79758">
        <ele>1904.03</ele>
        <time>2017-10-17T10:22:49Z</time>
      </trkpt>
      <trkpt lat="46.03299" lon="6.79759">
        <ele>1904.03</ele>
        <time>2017-10-17T10:22:50Z</time>
      </trkpt>
      <trkpt lat="46.03297" lon="6.7976">
        <ele>1904.51</ele>
        <time>2017-10-17T10:22:52Z</time>
      </trkpt>
      <trkpt lat="46.03296" lon="6.7976">
        <ele>1904.51</ele>
        <time>2017-10-17T10:22:53Z</time>
      </trkpt>
      <trkpt lat="46.03295" lon="6.7976">
        <ele>1904.99</ele>
        <time>2017-10-17T10:22:54Z</time>
      </trkpt>
      <trkpt lat="46.03294" lon="6.79761">
        <ele>1904.99</ele>
        <time>2017-10-17T10:22:55Z</time>
      </trkpt>
      <trkpt lat="46.03293" lon="6.79761">
        <ele>1904.99</ele>
        <time>2017-10-17T10:22:56Z</time>
      </trkpt>
      <trkpt lat="46.03292" lon="6.79762">
        <ele>1904.99</ele>
        <time>2017-10-17T10:22:57Z</time>
      </trkpt>
      <trkpt lat="46.03279" lon="6.79758">
        <ele>1907.39</ele>
        <time>2017-10-17T10:23:09Z</time>
      </trkpt>
      <trkpt lat="46.03273" lon="6.79749">
        <ele>1908.35</ele>
        <time>2017-10-17T10:23:16Z</time>
      </trkpt>
      <trkpt lat="46.03256" lon="6.79739">
        <ele>1910.76</ele>
        <time>2017-10-17T10:23:29Z</time>
      </trkpt>
      <trkpt lat="46.03253" lon="6.79736">
        <ele>1911.24</ele>
        <time>2017-10-17T10:23:31Z</time>
      </trkpt>
      <trkpt lat="46.03247" lon="6.79733">
        <ele>1913.16</ele>
        <time>2017-10-17T10:23:36Z</time>
      </trkpt>
      <trkpt lat="46.03237" lon="6.79731">
        <ele>1914.6</ele>
        <time>2017-10-17T10:23:43Z</time>
      </trkpt>
      <trkpt lat="46.03236" lon="6.79731">
        <ele>1915.08</ele>
        <time>2017-10-17T10:23:44Z</time>
      </trkpt>
      <trkpt lat="46.03235" lon="6.79731">
        <ele>1915.08</ele>
        <time>2017-10-17T10:23:45Z</time>
      </trkpt>
      <trkpt lat="46.03223" lon="6.79728">
        <ele>1918.45</ele>
        <time>2017-10-17T10:23:55Z</time>
      </trkpt>
      <trkpt lat="46.03221" lon="6.79728">
        <ele>1918.93</ele>
        <time>2017-10-17T10:23:58Z</time>
      </trkpt>
      <trkpt lat="46.03219" lon="6.7973">
        <ele>1919.89</ele>
        <time>2017-10-17T10:24:00Z</time>
      </trkpt>
      <trkpt lat="46.03217" lon="6.79736">
        <ele>1920.85</ele>
        <time>2017-10-17T10:24:05Z</time>
      </trkpt>
      <trkpt lat="46.03216" lon="6.79738">
        <ele>1921.33</ele>
        <time>2017-10-17T10:24:07Z</time>
      </trkpt>
      <trkpt lat="46.03216" lon="6.79739">
        <ele>1921.81</ele>
        <time>2017-10-17T10:24:08Z</time>
      </trkpt>
      <trkpt lat="46.03216" lon="6.79741">
        <ele>1921.81</ele>
        <time>2017-10-17T10:24:09Z</time>
      </trkpt>
      <trkpt lat="46.03216" lon="6.79742">
        <ele>1921.81</ele>
        <time>2017-10-17T10:24:10Z</time>
      </trkpt>
      <trkpt lat="46.03216" lon="6.79744">
        <ele>1921.81</ele>
        <time>2017-10-17T10:24:11Z</time>
      </trkpt>
      <trkpt lat="46.03216" lon="6.79746">
        <ele>1921.81</ele>
        <time>2017-10-17T10:24:12Z</time>
      </trkpt>
      <trkpt lat="46.03217" lon="6.79747">
        <ele>1922.29</ele>
        <time>2017-10-17T10:24:13Z</time>
      </trkpt>
      <trkpt lat="46.03218" lon="6.79748">
        <ele>1922.29</ele>
        <time>2017-10-17T10:24:14Z</time>
      </trkpt>
      <trkpt lat="46.03219" lon="6.79749">
        <ele>1922.29</ele>
        <time>2017-10-17T10:24:15Z</time>
      </trkpt>
      <trkpt lat="46.03222" lon="6.79753">
        <ele>1922.77</ele>
        <time>2017-10-17T10:24:18Z</time>
      </trkpt>
      <trkpt lat="46.03222" lon="6.79754">
        <ele>1922.77</ele>
        <time>2017-10-17T10:24:19Z</time>
      </trkpt>
      <trkpt lat="46.03223" lon="6.79756">
        <ele>1923.25</ele>
        <time>2017-10-17T10:24:20Z</time>
      </trkpt>
      <trkpt lat="46.03223" lon="6.79757">
        <ele>1923.25</ele>
        <time>2017-10-17T10:24:21Z</time>
      </trkpt>
      <trkpt lat="46.03225" lon="6.79767">
        <ele>1921.81</ele>
        <time>2017-10-17T10:25:27Z</time>
      </trkpt>
      <trkpt lat="46.03224" lon="6.79768">
        <ele>1921.81</ele>
        <time>2017-10-17T10:25:40Z</time>
      </trkpt>
      <trkpt lat="46.03224" lon="6.79768">
        <ele>1922.29</ele>
        <time>2017-10-17T10:25:55Z</time>
      </trkpt>
      <trkpt lat="46.03225" lon="6.79772">
        <ele>1921.81</ele>
        <time>2017-10-17T10:26:07Z</time>
      </trkpt>
      <trkpt lat="46.03225" lon="6.79774">
        <ele>1921.81</ele>
        <time>2017-10-17T10:26:08Z</time>
      </trkpt>
      <trkpt lat="46.03226" lon="6.79789">
        <ele>1921.81</ele>
        <time>2017-10-17T10:26:16Z</time>
      </trkpt>
      <trkpt lat="46.03227" lon="6.79791">
        <ele>1921.81</ele>
        <time>2017-10-17T10:26:17Z</time>
      </trkpt>
      <trkpt lat="46.03228" lon="6.79792">
        <ele>1921.33</ele>
        <time>2017-10-17T10:26:18Z</time>
      </trkpt>
      <trkpt lat="46.03228" lon="6.79794">
        <ele>1921.33</ele>
        <time>2017-10-17T10:26:19Z</time>
      </trkpt>
      <trkpt lat="46.03228" lon="6.79797">
        <ele>1920.85</ele>
        <time>2017-10-17T10:26:20Z</time>
      </trkpt>
      <trkpt lat="46.03228" lon="6.79798">
        <ele>1920.85</ele>
        <time>2017-10-17T10:26:21Z</time>
      </trkpt>
      <trkpt lat="46.03227" lon="6.79806">
        <ele>1920.37</ele>
        <time>2017-10-17T10:26:29Z</time>
      </trkpt>
      <trkpt lat="46.03226" lon="6.79806">
        <ele>1920.37</ele>
        <time>2017-10-17T10:26:30Z</time>
      </trkpt>
      <trkpt lat="46.03225" lon="6.79805">
        <ele>1920.37</ele>
        <time>2017-10-17T10:26:31Z</time>
      </trkpt>
      <trkpt lat="46.03224" lon="6.79805">
        <ele>1919.89</ele>
        <time>2017-10-17T10:26:32Z</time>
      </trkpt>
      <trkpt lat="46.03223" lon="6.79807">
        <ele>1919.41</ele>
        <time>2017-10-17T10:26:33Z</time>
      </trkpt>
      <trkpt lat="46.03223" lon="6.79808">
        <ele>1918.93</ele>
        <time>2017-10-17T10:26:34Z</time>
      </trkpt>
      <trkpt lat="46.03223" lon="6.79809">
        <ele>1918.45</ele>
        <time>2017-10-17T10:26:35Z</time>
      </trkpt>
      <trkpt lat="46.03218" lon="6.79838">
        <ele>1915.56</ele>
        <time>2017-10-17T10:26:53Z</time>
      </trkpt>
      <trkpt lat="46.03213" lon="6.79849">
        <ele>1915.56</ele>
        <time>2017-10-17T10:27:03Z</time>
      </trkpt>
      <trkpt lat="46.03212" lon="6.7985">
        <ele>1915.56</ele>
        <time>2017-10-17T10:27:04Z</time>
      </trkpt>
      <trkpt lat="46.03211" lon="6.7985">
        <ele>1915.56</ele>
        <time>2017-10-17T10:27:05Z</time>
      </trkpt>
      <trkpt lat="46.03212" lon="6.79848">
        <ele>1915.56</ele>
        <time>2017-10-17T10:27:38Z</time>
      </trkpt>
      <trkpt lat="46.03212" lon="6.79847">
        <ele>1915.56</ele>
        <time>2017-10-17T10:27:39Z</time>
      </trkpt>
      <trkpt lat="46.03213" lon="6.79845">
        <ele>1915.56</ele>
        <time>2017-10-17T10:27:40Z</time>
      </trkpt>
      <trkpt lat="46.03213" lon="6.79844">
        <ele>1915.56</ele>
        <time>2017-10-17T10:27:41Z</time>
      </trkpt>
      <trkpt lat="46.03214" lon="6.79842">
        <ele>1915.56</ele>
        <time>2017-10-17T10:27:42Z</time>
      </trkpt>
      <trkpt lat="46.03214" lon="6.7984">
        <ele>1915.56</ele>
        <time>2017-10-17T10:27:43Z</time>
      </trkpt>
      <trkpt lat="46.03215" lon="6.79839">
        <ele>1915.56</ele>
        <time>2017-10-17T10:27:44Z</time>
      </trkpt>
      <trkpt lat="46.03215" lon="6.79837">
        <ele>1915.56</ele>
        <time>2017-10-17T10:27:45Z</time>
      </trkpt>
      <trkpt lat="46.03216" lon="6.79836">
        <ele>1916.04</ele>
        <time>2017-10-17T10:27:46Z</time>
      </trkpt>
      <trkpt lat="46.03217" lon="6.79835">
        <ele>1916.04</ele>
        <time>2017-10-17T10:27:47Z</time>
      </trkpt>
      <trkpt lat="46.03218" lon="6.79834">
        <ele>1916.04</ele>
        <time>2017-10-17T10:27:49Z</time>
      </trkpt>
      <trkpt lat="46.03219" lon="6.79835">
        <ele>1916.04</ele>
        <time>2017-10-17T10:27:50Z</time>
      </trkpt>
      <trkpt lat="46.0322" lon="6.79836">
        <ele>1916.04</ele>
        <time>2017-10-17T10:27:51Z</time>
      </trkpt>
      <trkpt lat="46.03222" lon="6.79833">
        <ele>1916.04</ele>
        <time>2017-10-17T10:27:56Z</time>
      </trkpt>
      <trkpt lat="46.03224" lon="6.7982">
        <ele>1916.04</ele>
        <time>2017-10-17T10:28:06Z</time>
      </trkpt>
      <trkpt lat="46.03226" lon="6.79812">
        <ele>1917.01</ele>
        <time>2017-10-17T10:31:32Z</time>
      </trkpt>
      <trkpt lat="46.03228" lon="6.7981">
        <ele>1917.97</ele>
        <time>2017-10-17T10:31:35Z</time>
      </trkpt>
      <trkpt lat="46.0323" lon="6.79811">
        <ele>1918.93</ele>
        <time>2017-10-17T10:31:36Z</time>
      </trkpt>
      <trkpt lat="46.03232" lon="6.79812">
        <ele>1918.93</ele>
        <time>2017-10-17T10:31:37Z</time>
      </trkpt>
      <trkpt lat="46.03233" lon="6.79813">
        <ele>1919.41</ele>
        <time>2017-10-17T10:31:38Z</time>
      </trkpt>
      <trkpt lat="46.03234" lon="6.79814">
        <ele>1919.41</ele>
        <time>2017-10-17T10:31:39Z</time>
      </trkpt>
      <trkpt lat="46.03236" lon="6.79815">
        <ele>1919.41</ele>
        <time>2017-10-17T10:31:40Z</time>
      </trkpt>
      <trkpt lat="46.03238" lon="6.79816">
        <ele>1919.41</ele>
        <time>2017-10-17T10:31:41Z</time>
      </trkpt>
      <trkpt lat="46.03239" lon="6.79816">
        <ele>1919.41</ele>
        <time>2017-10-17T10:31:42Z</time>
      </trkpt>
      <trkpt lat="46.03241" lon="6.79817">
        <ele>1919.89</ele>
        <time>2017-10-17T10:31:43Z</time>
      </trkpt>
      <trkpt lat="46.03242" lon="6.79817">
        <ele>1919.89</ele>
        <time>2017-10-17T10:31:44Z</time>
      </trkpt>
      <trkpt lat="46.03244" lon="6.79818">
        <ele>1920.37</ele>
        <time>2017-10-17T10:31:45Z</time>
      </trkpt>
      <trkpt lat="46.03245" lon="6.79818">
        <ele>1920.85</ele>
        <time>2017-10-17T10:31:46Z</time>
      </trkpt>
      <trkpt lat="46.03246" lon="6.79819">
        <ele>1921.33</ele>
        <time>2017-10-17T10:31:47Z</time>
      </trkpt>
      <trkpt lat="46.03247" lon="6.7982">
        <ele>1921.33</ele>
        <time>2017-10-17T10:31:48Z</time>
      </trkpt>
      <trkpt lat="46.03248" lon="6.7982">
        <ele>1921.81</ele>
        <time>2017-10-17T10:31:49Z</time>
      </trkpt>
      <trkpt lat="46.0326" lon="6.79827">
        <ele>1925.18</ele>
        <time>2017-10-17T10:32:03Z</time>
      </trkpt>
      <trkpt lat="46.03262" lon="6.79826">
        <ele>1925.66</ele>
        <time>2017-10-17T10:32:06Z</time>
      </trkpt>
      <trkpt lat="46.03263" lon="6.79827">
        <ele>1926.14</ele>
        <time>2017-10-17T10:32:07Z</time>
      </trkpt>
      <trkpt lat="46.03264" lon="6.79829">
        <ele>1926.62</ele>
        <time>2017-10-17T10:32:09Z</time>
      </trkpt>
      <trkpt lat="46.03265" lon="6.7983">
        <ele>1926.62</ele>
        <time>2017-10-17T10:32:10Z</time>
      </trkpt>
      <trkpt lat="46.03265" lon="6.79832">
        <ele>1926.62</ele>
        <time>2017-10-17T10:32:11Z</time>
      </trkpt>
      <trkpt lat="46.03266" lon="6.79839">
        <ele>1926.62</ele>
        <time>2017-10-17T10:32:16Z</time>
      </trkpt>
      <trkpt lat="46.03266" lon="6.7984">
        <ele>1927.1</ele>
        <time>2017-10-17T10:32:17Z</time>
      </trkpt>
      <trkpt lat="46.03268" lon="6.79844">
        <ele>1928.06</ele>
        <time>2017-10-17T10:32:21Z</time>
      </trkpt>
      <trkpt lat="46.03269" lon="6.79847">
        <ele>1929.02</ele>
        <time>2017-10-17T10:32:24Z</time>
      </trkpt>
      <trkpt lat="46.0327" lon="6.79848">
        <ele>1929.02</ele>
        <time>2017-10-17T10:32:25Z</time>
      </trkpt>
      <trkpt lat="46.03271" lon="6.7985">
        <ele>1929.5</ele>
        <time>2017-10-17T10:32:26Z</time>
      </trkpt>
      <trkpt lat="46.03271" lon="6.79853">
        <ele>1929.98</ele>
        <time>2017-10-17T10:32:27Z</time>
      </trkpt>
      <trkpt lat="46.03272" lon="6.79855">
        <ele>1929.98</ele>
        <time>2017-10-17T10:32:28Z</time>
      </trkpt>
      <trkpt lat="46.03272" lon="6.79857">
        <ele>1930.46</ele>
        <time>2017-10-17T10:32:29Z</time>
      </trkpt>
      <trkpt lat="46.03269" lon="6.7988">
        <ele>1933.83</ele>
        <time>2017-10-17T10:32:42Z</time>
      </trkpt>
      <trkpt lat="46.03269" lon="6.79887">
        <ele>1935.75</ele>
        <time>2017-10-17T10:32:48Z</time>
      </trkpt>
      <trkpt lat="46.03269" lon="6.79889">
        <ele>1936.23</ele>
        <time>2017-10-17T10:32:49Z</time>
      </trkpt>
      <trkpt lat="46.0327" lon="6.7989">
        <ele>1936.23</ele>
        <time>2017-10-17T10:32:50Z</time>
      </trkpt>
      <trkpt lat="46.0327" lon="6.79892">
        <ele>1936.71</ele>
        <time>2017-10-17T10:32:51Z</time>
      </trkpt>
      <trkpt lat="46.0327" lon="6.79894">
        <ele>1936.71</ele>
        <time>2017-10-17T10:32:52Z</time>
      </trkpt>
      <trkpt lat="46.03272" lon="6.79897">
        <ele>1937.19</ele>
        <time>2017-10-17T10:32:55Z</time>
      </trkpt>
      <trkpt lat="46.03273" lon="6.79898">
        <ele>1937.67</ele>
        <time>2017-10-17T10:32:56Z</time>
      </trkpt>
      <trkpt lat="46.03273" lon="6.79898">
        <ele>1937.67</ele>
        <time>2017-10-17T10:32:57Z</time>
      </trkpt>
      <trkpt lat="46.03274" lon="6.79899">
        <ele>1938.16</ele>
        <time>2017-10-17T10:32:58Z</time>
      </trkpt>
      <trkpt lat="46.03276" lon="6.79901">
        <ele>1938.16</ele>
        <time>2017-10-17T10:33:00Z</time>
      </trkpt>
      <trkpt lat="46.03277" lon="6.79906">
        <ele>1939.12</ele>
        <time>2017-10-17T10:33:03Z</time>
      </trkpt>
      <trkpt lat="46.03277" lon="6.79908">
        <ele>1939.6</ele>
        <time>2017-10-17T10:33:05Z</time>
      </trkpt>
      <trkpt lat="46.03277" lon="6.79911">
        <ele>1940.08</ele>
        <time>2017-10-17T10:33:09Z</time>
      </trkpt>
      <trkpt lat="46.03279" lon="6.79917">
        <ele>1941.52</ele>
        <time>2017-10-17T10:33:14Z</time>
      </trkpt>
      <trkpt lat="46.0328" lon="6.79917">
        <ele>1941.52</ele>
        <time>2017-10-17T10:33:15Z</time>
      </trkpt>
      <trkpt lat="46.03281" lon="6.79918">
        <ele>1942</ele>
        <time>2017-10-17T10:33:16Z</time>
      </trkpt>
      <trkpt lat="46.03283" lon="6.79918">
        <ele>1942</ele>
        <time>2017-10-17T10:33:17Z</time>
      </trkpt>
      <trkpt lat="46.03284" lon="6.79918">
        <ele>1942</ele>
        <time>2017-10-17T10:33:18Z</time>
      </trkpt>
      <trkpt lat="46.03285" lon="6.79919">
        <ele>1942.48</ele>
        <time>2017-10-17T10:33:19Z</time>
      </trkpt>
      <trkpt lat="46.03286" lon="6.79918">
        <ele>1942.48</ele>
        <time>2017-10-17T10:33:20Z</time>
      </trkpt>
      <trkpt lat="46.03301" lon="6.79918">
        <ele>1945.36</ele>
        <time>2017-10-17T10:33:33Z</time>
      </trkpt>
      <trkpt lat="46.03311" lon="6.7992">
        <ele>1948.25</ele>
        <time>2017-10-17T10:33:43Z</time>
      </trkpt>
      <trkpt lat="46.03314" lon="6.79923">
        <ele>1949.21</ele>
        <time>2017-10-17T10:33:46Z</time>
      </trkpt>
      <trkpt lat="46.03315" lon="6.79924">
        <ele>1949.21</ele>
        <time>2017-10-17T10:33:47Z</time>
      </trkpt>
      <trkpt lat="46.03323" lon="6.79938">
        <ele>1951.13</ele>
        <time>2017-10-17T10:33:57Z</time>
      </trkpt>
      <trkpt lat="46.03324" lon="6.79942">
        <ele>1951.61</ele>
        <time>2017-10-17T10:33:59Z</time>
      </trkpt>
      <trkpt lat="46.03323" lon="6.79944">
        <ele>1952.09</ele>
        <time>2017-10-17T10:34:00Z</time>
      </trkpt>
      <trkpt lat="46.03323" lon="6.79945">
        <ele>1952.09</ele>
        <time>2017-10-17T10:34:01Z</time>
      </trkpt>
      <trkpt lat="46.03323" lon="6.79947">
        <ele>1952.57</ele>
        <time>2017-10-17T10:34:02Z</time>
      </trkpt>
      <trkpt lat="46.03322" lon="6.79949">
        <ele>1952.57</ele>
        <time>2017-10-17T10:34:03Z</time>
      </trkpt>
      <trkpt lat="46.03322" lon="6.7995">
        <ele>1952.57</ele>
        <time>2017-10-17T10:34:04Z</time>
      </trkpt>
      <trkpt lat="46.03318" lon="6.79963">
        <ele>1954.98</ele>
        <time>2017-10-17T10:34:12Z</time>
      </trkpt>
      <trkpt lat="46.03318" lon="6.79965">
        <ele>1955.46</ele>
        <time>2017-10-17T10:34:13Z</time>
      </trkpt>
      <trkpt lat="46.03319" lon="6.79967">
        <ele>1955.94</ele>
        <time>2017-10-17T10:34:14Z</time>
      </trkpt>
      <trkpt lat="46.03319" lon="6.79968">
        <ele>1955.94</ele>
        <time>2017-10-17T10:34:15Z</time>
      </trkpt>
      <trkpt lat="46.0332" lon="6.7997">
        <ele>1956.42</ele>
        <time>2017-10-17T10:34:16Z</time>
      </trkpt>
      <trkpt lat="46.03321" lon="6.79971">
        <ele>1956.9</ele>
        <time>2017-10-17T10:34:17Z</time>
      </trkpt>
      <trkpt lat="46.03322" lon="6.79973">
        <ele>1956.9</ele>
        <time>2017-10-17T10:34:18Z</time>
      </trkpt>
      <trkpt lat="46.03323" lon="6.79976">
        <ele>1957.38</ele>
        <time>2017-10-17T10:34:19Z</time>
      </trkpt>
      <trkpt lat="46.03331" lon="6.79988">
        <ele>1957.86</ele>
        <time>2017-10-17T10:34:26Z</time>
      </trkpt>
      <trkpt lat="46.03332" lon="6.79991">
        <ele>1957.86</ele>
        <time>2017-10-17T10:34:27Z</time>
      </trkpt>
      <trkpt lat="46.03331" lon="6.79995">
        <ele>1957.38</ele>
        <time>2017-10-17T10:34:28Z</time>
      </trkpt>
      <trkpt lat="46.0333" lon="6.79998">
        <ele>1957.38</ele>
        <time>2017-10-17T10:34:29Z</time>
      </trkpt>
      <trkpt lat="46.03329" lon="6.8">
        <ele>1957.86</ele>
        <time>2017-10-17T10:34:30Z</time>
      </trkpt>
      <trkpt lat="46.03328" lon="6.80002">
        <ele>1957.86</ele>
        <time>2017-10-17T10:34:31Z</time>
      </trkpt>
      <trkpt lat="46.03314" lon="6.80023">
        <ele>1959.78</ele>
        <time>2017-10-17T10:34:43Z</time>
      </trkpt>
      <trkpt lat="46.03303" lon="6.80046">
        <ele>1962.19</ele>
        <time>2017-10-17T10:34:55Z</time>
      </trkpt>
      <trkpt lat="46.03303" lon="6.80047">
        <ele>1962.19</ele>
        <time>2017-10-17T10:34:56Z</time>
      </trkpt>
      <trkpt lat="46.03298" lon="6.80061">
        <ele>1964.11</ele>
        <time>2017-10-17T10:35:03Z</time>
      </trkpt>
      <trkpt lat="46.03292" lon="6.80081">
        <ele>1967.48</ele>
        <time>2017-10-17T10:35:14Z</time>
      </trkpt>
      <trkpt lat="46.03295" lon="6.80097">
        <ele>1970.36</ele>
        <time>2017-10-17T10:35:25Z</time>
      </trkpt>
      <trkpt lat="46.03297" lon="6.80097">
        <ele>1970.36</ele>
        <time>2017-10-17T10:35:26Z</time>
      </trkpt>
      <trkpt lat="46.03298" lon="6.80099">
        <ele>1970.36</ele>
        <time>2017-10-17T10:35:27Z</time>
      </trkpt>
      <trkpt lat="46.033" lon="6.801">
        <ele>1970.36</ele>
        <time>2017-10-17T10:35:28Z</time>
      </trkpt>
      <trkpt lat="46.03302" lon="6.801">
        <ele>1970.36</ele>
        <time>2017-10-17T10:35:29Z</time>
      </trkpt>
      <trkpt lat="46.03303" lon="6.801">
        <ele>1970.36</ele>
        <time>2017-10-17T10:35:30Z</time>
      </trkpt>
      <trkpt lat="46.03304" lon="6.80101">
        <ele>1970.84</ele>
        <time>2017-10-17T10:35:31Z</time>
      </trkpt>
      <trkpt lat="46.03305" lon="6.80102">
        <ele>1970.84</ele>
        <time>2017-10-17T10:35:32Z</time>
      </trkpt>
      <trkpt lat="46.03306" lon="6.80104">
        <ele>1970.84</ele>
        <time>2017-10-17T10:35:33Z</time>
      </trkpt>
      <trkpt lat="46.03306" lon="6.80107">
        <ele>1970.84</ele>
        <time>2017-10-17T10:35:34Z</time>
      </trkpt>
      <trkpt lat="46.03306" lon="6.80109">
        <ele>1970.84</ele>
        <time>2017-10-17T10:35:35Z</time>
      </trkpt>
      <trkpt lat="46.03306" lon="6.80111">
        <ele>1970.84</ele>
        <time>2017-10-17T10:35:36Z</time>
      </trkpt>
      <trkpt lat="46.03305" lon="6.80117">
        <ele>1972.28</ele>
        <time>2017-10-17T10:35:41Z</time>
      </trkpt>
      <trkpt lat="46.03304" lon="6.80118">
        <ele>1972.76</ele>
        <time>2017-10-17T10:35:42Z</time>
      </trkpt>
      <trkpt lat="46.03304" lon="6.8012">
        <ele>1972.76</ele>
        <time>2017-10-17T10:35:43Z</time>
      </trkpt>
      <trkpt lat="46.03304" lon="6.80121">
        <ele>1972.76</ele>
        <time>2017-10-17T10:35:44Z</time>
      </trkpt>
      <trkpt lat="46.03304" lon="6.80122">
        <ele>1973.24</ele>
        <time>2017-10-17T10:35:45Z</time>
      </trkpt>
      <trkpt lat="46.03303" lon="6.80124">
        <ele>1973.24</ele>
        <time>2017-10-17T10:35:46Z</time>
      </trkpt>
      <trkpt lat="46.03303" lon="6.80125">
        <ele>1973.72</ele>
        <time>2017-10-17T10:35:47Z</time>
      </trkpt>
      <trkpt lat="46.03305" lon="6.80125">
        <ele>1974.2</ele>
        <time>2017-10-17T10:35:50Z</time>
      </trkpt>
      <trkpt lat="46.03306" lon="6.80124">
        <ele>1974.69</ele>
        <time>2017-10-17T10:35:51Z</time>
      </trkpt>
      <trkpt lat="46.03308" lon="6.80124">
        <ele>1974.69</ele>
        <time>2017-10-17T10:35:52Z</time>
      </trkpt>
      <trkpt lat="46.03309" lon="6.80123">
        <ele>1975.17</ele>
        <time>2017-10-17T10:35:53Z</time>
      </trkpt>
      <trkpt lat="46.0331" lon="6.80122">
        <ele>1975.17</ele>
        <time>2017-10-17T10:35:54Z</time>
      </trkpt>
      <trkpt lat="46.03311" lon="6.80122">
        <ele>1975.65</ele>
        <time>2017-10-17T10:35:55Z</time>
      </trkpt>
      <trkpt lat="46.03312" lon="6.80121">
        <ele>1976.13</ele>
        <time>2017-10-17T10:35:56Z</time>
      </trkpt>
      <trkpt lat="46.03313" lon="6.80121">
        <ele>1976.13</ele>
        <time>2017-10-17T10:35:57Z</time>
      </trkpt>
      <trkpt lat="46.03314" lon="6.80121">
        <ele>1976.61</ele>
        <time>2017-10-17T10:35:58Z</time>
      </trkpt>
      <trkpt lat="46.03315" lon="6.80123">
        <ele>1976.61</ele>
        <time>2017-10-17T10:36:00Z</time>
      </trkpt>
      <trkpt lat="46.03318" lon="6.80127">
        <ele>1978.53</ele>
        <time>2017-10-17T10:36:06Z</time>
      </trkpt>
      <trkpt lat="46.03318" lon="6.80126">
        <ele>1978.53</ele>
        <time>2017-10-17T10:36:07Z</time>
      </trkpt>
      <trkpt lat="46.03319" lon="6.80125">
        <ele>1979.01</ele>
        <time>2017-10-17T10:36:08Z</time>
      </trkpt>
      <trkpt lat="46.0332" lon="6.80124">
        <ele>1979.01</ele>
        <time>2017-10-17T10:36:09Z</time>
      </trkpt>
      <trkpt lat="46.0332" lon="6.80123">
        <ele>1979.49</ele>
        <time>2017-10-17T10:36:10Z</time>
      </trkpt>
      <trkpt lat="46.03326" lon="6.80117">
        <ele>1981.41</ele>
        <time>2017-10-17T10:36:17Z</time>
      </trkpt>
      <trkpt lat="46.03327" lon="6.80116">
        <ele>1981.9</ele>
        <time>2017-10-17T10:36:19Z</time>
      </trkpt>
      <trkpt lat="46.03328" lon="6.80116">
        <ele>1981.9</ele>
        <time>2017-10-17T10:36:20Z</time>
      </trkpt>
      <trkpt lat="46.0333" lon="6.80118">
        <ele>1982.38</ele>
        <time>2017-10-17T10:36:22Z</time>
      </trkpt>
      <trkpt lat="46.0333" lon="6.80119">
        <ele>1982.86</ele>
        <time>2017-10-17T10:36:23Z</time>
      </trkpt>
      <trkpt lat="46.03331" lon="6.8012">
        <ele>1983.34</ele>
        <time>2017-10-17T10:36:24Z</time>
      </trkpt>
      <trkpt lat="46.03331" lon="6.80121">
        <ele>1983.82</ele>
        <time>2017-10-17T10:36:25Z</time>
      </trkpt>
      <trkpt lat="46.03332" lon="6.80122">
        <ele>1983.82</ele>
        <time>2017-10-17T10:36:26Z</time>
      </trkpt>
      <trkpt lat="46.03333" lon="6.80124">
        <ele>1983.82</ele>
        <time>2017-10-17T10:36:27Z</time>
      </trkpt>
      <trkpt lat="46.03335" lon="6.8013">
        <ele>1985.74</ele>
        <time>2017-10-17T10:36:32Z</time>
      </trkpt>
      <trkpt lat="46.03332" lon="6.80155">
        <ele>1988.62</ele>
        <time>2017-10-17T10:36:45Z</time>
      </trkpt>
      <trkpt lat="46.03316" lon="6.8017">
        <ele>1989.59</ele>
        <time>2017-10-17T10:36:55Z</time>
      </trkpt>
      <trkpt lat="46.03313" lon="6.80175">
        <ele>1990.07</ele>
        <time>2017-10-17T10:36:58Z</time>
      </trkpt>
      <trkpt lat="46.03313" lon="6.80176">
        <ele>1990.55</ele>
        <time>2017-10-17T10:36:59Z</time>
      </trkpt>
      <trkpt lat="46.03313" lon="6.80178">
        <ele>1991.03</ele>
        <time>2017-10-17T10:37:00Z</time>
      </trkpt>
      <trkpt lat="46.03313" lon="6.8018">
        <ele>1991.03</ele>
        <time>2017-10-17T10:37:01Z</time>
      </trkpt>
      <trkpt lat="46.03313" lon="6.80181">
        <ele>1991.51</ele>
        <time>2017-10-17T10:37:02Z</time>
      </trkpt>
      <trkpt lat="46.03312" lon="6.80183">
        <ele>1991.99</ele>
        <time>2017-10-17T10:37:03Z</time>
      </trkpt>
      <trkpt lat="46.03311" lon="6.80185">
        <ele>1992.47</ele>
        <time>2017-10-17T10:37:04Z</time>
      </trkpt>
      <trkpt lat="46.03307" lon="6.80193">
        <ele>1995.35</ele>
        <time>2017-10-17T10:37:11Z</time>
      </trkpt>
      <trkpt lat="46.03306" lon="6.80194">
        <ele>1995.83</ele>
        <time>2017-10-17T10:37:12Z</time>
      </trkpt>
      <trkpt lat="46.03305" lon="6.80196">
        <ele>1996.32</ele>
        <time>2017-10-17T10:37:13Z</time>
      </trkpt>
      <trkpt lat="46.03304" lon="6.80197">
        <ele>1996.8</ele>
        <time>2017-10-17T10:37:14Z</time>
      </trkpt>
      <trkpt lat="46.03303" lon="6.80198">
        <ele>1996.8</ele>
        <time>2017-10-17T10:37:15Z</time>
      </trkpt>
      <trkpt lat="46.03302" lon="6.80199">
        <ele>1997.28</ele>
        <time>2017-10-17T10:37:16Z</time>
      </trkpt>
      <trkpt lat="46.03295" lon="6.80214">
        <ele>2000.64</ele>
        <time>2017-10-17T10:37:29Z</time>
      </trkpt>
      <trkpt lat="46.03291" lon="6.80226">
        <ele>2002.56</ele>
        <time>2017-10-17T10:37:38Z</time>
      </trkpt>
      <trkpt lat="46.0329" lon="6.80227">
        <ele>2002.56</ele>
        <time>2017-10-17T10:37:39Z</time>
      </trkpt>
      <trkpt lat="46.03289" lon="6.80228">
        <ele>2003.04</ele>
        <time>2017-10-17T10:37:40Z</time>
      </trkpt>
      <trkpt lat="46.03288" lon="6.80228">
        <ele>2003.52</ele>
        <time>2017-10-17T10:37:41Z</time>
      </trkpt>
      <trkpt lat="46.03287" lon="6.80229">
        <ele>2003.52</ele>
        <time>2017-10-17T10:37:42Z</time>
      </trkpt>
      <trkpt lat="46.03286" lon="6.8023">
        <ele>2004.01</ele>
        <time>2017-10-17T10:37:43Z</time>
      </trkpt>
      <trkpt lat="46.03286" lon="6.8023">
        <ele>2004.01</ele>
        <time>2017-10-17T10:37:44Z</time>
      </trkpt>
      <trkpt lat="46.03285" lon="6.80231">
        <ele>2004.49</ele>
        <time>2017-10-17T10:37:45Z</time>
      </trkpt>
      <trkpt lat="46.03285" lon="6.80232">
        <ele>2004.49</ele>
        <time>2017-10-17T10:37:46Z</time>
      </trkpt>
      <trkpt lat="46.03285" lon="6.80234">
        <ele>2004.49</ele>
        <time>2017-10-17T10:37:47Z</time>
      </trkpt>
      <trkpt lat="46.03285" lon="6.80235">
        <ele>2004.49</ele>
        <time>2017-10-17T10:37:48Z</time>
      </trkpt>
      <trkpt lat="46.03285" lon="6.80236">
        <ele>2004.97</ele>
        <time>2017-10-17T10:37:49Z</time>
      </trkpt>
      <trkpt lat="46.03284" lon="6.80238">
        <ele>2004.97</ele>
        <time>2017-10-17T10:37:50Z</time>
      </trkpt>
      <trkpt lat="46.03284" lon="6.8024">
        <ele>2004.97</ele>
        <time>2017-10-17T10:37:51Z</time>
      </trkpt>
      <trkpt lat="46.03282" lon="6.80243">
        <ele>2005.45</ele>
        <time>2017-10-17T10:37:52Z</time>
      </trkpt>
      <trkpt lat="46.03281" lon="6.80245">
        <ele>2005.93</ele>
        <time>2017-10-17T10:37:53Z</time>
      </trkpt>
      <trkpt lat="46.0328" lon="6.80247">
        <ele>2005.93</ele>
        <time>2017-10-17T10:37:54Z</time>
      </trkpt>
      <trkpt lat="46.03279" lon="6.80249">
        <ele>2005.93</ele>
        <time>2017-10-17T10:37:55Z</time>
      </trkpt>
      <trkpt lat="46.03274" lon="6.80268">
        <ele>2008.81</ele>
        <time>2017-10-17T10:38:10Z</time>
      </trkpt>
      <trkpt lat="46.03272" lon="6.80269">
        <ele>2009.29</ele>
        <time>2017-10-17T10:38:12Z</time>
      </trkpt>
      <trkpt lat="46.03271" lon="6.80271">
        <ele>2009.77</ele>
        <time>2017-10-17T10:38:14Z</time>
      </trkpt>
      <trkpt lat="46.03271" lon="6.80272">
        <ele>2009.77</ele>
        <time>2017-10-17T10:38:15Z</time>
      </trkpt>
      <trkpt lat="46.0327" lon="6.80289">
        <ele>2013.62</ele>
        <time>2017-10-17T10:38:28Z</time>
      </trkpt>
      <trkpt lat="46.03269" lon="6.8029">
        <ele>2013.62</ele>
        <time>2017-10-17T10:38:29Z</time>
      </trkpt>
      <trkpt lat="46.03269" lon="6.80292">
        <ele>2014.1</ele>
        <time>2017-10-17T10:38:30Z</time>
      </trkpt>
      <trkpt lat="46.03269" lon="6.80293">
        <ele>2014.1</ele>
        <time>2017-10-17T10:38:31Z</time>
      </trkpt>
      <trkpt lat="46.03268" lon="6.80294">
        <ele>2014.58</ele>
        <time>2017-10-17T10:38:32Z</time>
      </trkpt>
      <trkpt lat="46.03268" lon="6.80295">
        <ele>2014.58</ele>
        <time>2017-10-17T10:38:33Z</time>
      </trkpt>
      <trkpt lat="46.03266" lon="6.803">
        <ele>2016.02</ele>
        <time>2017-10-17T10:38:37Z</time>
      </trkpt>
      <trkpt lat="46.03266" lon="6.80302">
        <ele>2016.5</ele>
        <time>2017-10-17T10:38:39Z</time>
      </trkpt>
      <trkpt lat="46.03265" lon="6.80304">
        <ele>2016.98</ele>
        <time>2017-10-17T10:38:40Z</time>
      </trkpt>
      <trkpt lat="46.03265" lon="6.80305">
        <ele>2016.98</ele>
        <time>2017-10-17T10:38:41Z</time>
      </trkpt>
      <trkpt lat="46.03264" lon="6.80306">
        <ele>2016.98</ele>
        <time>2017-10-17T10:38:42Z</time>
      </trkpt>
      <trkpt lat="46.03264" lon="6.80307">
        <ele>2017.46</ele>
        <time>2017-10-17T10:38:43Z</time>
      </trkpt>
      <trkpt lat="46.03263" lon="6.80309">
        <ele>2017.94</ele>
        <time>2017-10-17T10:38:44Z</time>
      </trkpt>
      <trkpt lat="46.03255" lon="6.80319">
        <ele>2021.31</ele>
        <time>2017-10-17T10:38:55Z</time>
      </trkpt>
      <trkpt lat="46.03248" lon="6.80326">
        <ele>2024.19</ele>
        <time>2017-10-17T10:39:06Z</time>
      </trkpt>
      <trkpt lat="46.03245" lon="6.80328">
        <ele>2025.64</ele>
        <time>2017-10-17T10:39:11Z</time>
      </trkpt>
      <trkpt lat="46.03244" lon="6.8033">
        <ele>2025.64</ele>
        <time>2017-10-17T10:39:12Z</time>
      </trkpt>
      <trkpt lat="46.03244" lon="6.80332">
        <ele>2025.64</ele>
        <time>2017-10-17T10:39:14Z</time>
      </trkpt>
      <trkpt lat="46.03244" lon="6.80334">
        <ele>2026.6</ele>
        <time>2017-10-17T10:39:16Z</time>
      </trkpt>
      <trkpt lat="46.03245" lon="6.80335">
        <ele>2026.6</ele>
        <time>2017-10-17T10:39:17Z</time>
      </trkpt>
      <trkpt lat="46.03247" lon="6.80337">
        <ele>2027.08</ele>
        <time>2017-10-17T10:39:20Z</time>
      </trkpt>
      <trkpt lat="46.03251" lon="6.80342">
        <ele>2029</ele>
        <time>2017-10-17T10:39:27Z</time>
      </trkpt>
      <trkpt lat="46.03255" lon="6.80347">
        <ele>2030.44</ele>
        <time>2017-10-17T10:39:35Z</time>
      </trkpt>
      <trkpt lat="46.03256" lon="6.80348">
        <ele>2030.92</ele>
        <time>2017-10-17T10:39:36Z</time>
      </trkpt>
      <trkpt lat="46.03256" lon="6.80349">
        <ele>2030.92</ele>
        <time>2017-10-17T10:39:37Z</time>
      </trkpt>
      <trkpt lat="46.03257" lon="6.8035">
        <ele>2031.4</ele>
        <time>2017-10-17T10:39:38Z</time>
      </trkpt>
      <trkpt lat="46.03257" lon="6.80346">
        <ele>2033.81</ele>
        <time>2017-10-17T10:39:46Z</time>
      </trkpt>
      <trkpt lat="46.03257" lon="6.80344">
        <ele>2033.81</ele>
        <time>2017-10-17T10:39:47Z</time>
      </trkpt>
      <trkpt lat="46.03257" lon="6.80341">
        <ele>2034.29</ele>
        <time>2017-10-17T10:39:49Z</time>
      </trkpt>
      <trkpt lat="46.03258" lon="6.8034">
        <ele>2034.77</ele>
        <time>2017-10-17T10:39:50Z</time>
      </trkpt>
      <trkpt lat="46.03261" lon="6.80332">
        <ele>2036.21</ele>
        <time>2017-10-17T10:39:57Z</time>
      </trkpt>
      <trkpt lat="46.03261" lon="6.80331">
        <ele>2036.21</ele>
        <time>2017-10-17T10:39:58Z</time>
      </trkpt>
      <trkpt lat="46.03263" lon="6.80331">
        <ele>2037.17</ele>
        <time>2017-10-17T10:40:00Z</time>
      </trkpt>
      <trkpt lat="46.03263" lon="6.80331">
        <ele>2037.65</ele>
        <time>2017-10-17T10:40:01Z</time>
      </trkpt>
      <trkpt lat="46.03264" lon="6.80334">
        <ele>2038.13</ele>
        <time>2017-10-17T10:40:04Z</time>
      </trkpt>
      <trkpt lat="46.03264" lon="6.80335">
        <ele>2038.61</ele>
        <time>2017-10-17T10:40:05Z</time>
      </trkpt>
      <trkpt lat="46.03265" lon="6.80337">
        <ele>2038.61</ele>
        <time>2017-10-17T10:40:06Z</time>
      </trkpt>
      <trkpt lat="46.03265" lon="6.80338">
        <ele>2038.61</ele>
        <time>2017-10-17T10:40:07Z</time>
      </trkpt>
      <trkpt lat="46.03265" lon="6.8034">
        <ele>2039.09</ele>
        <time>2017-10-17T10:40:08Z</time>
      </trkpt>
      <trkpt lat="46.03267" lon="6.80341">
        <ele>2040.54</ele>
        <time>2017-10-17T10:40:13Z</time>
      </trkpt>
      <trkpt lat="46.03267" lon="6.8034">
        <ele>2040.54</ele>
        <time>2017-10-17T10:40:14Z</time>
      </trkpt>
      <trkpt lat="46.03269" lon="6.80335">
        <ele>2041.98</ele>
        <time>2017-10-17T10:40:18Z</time>
      </trkpt>
      <trkpt lat="46.0327" lon="6.80336">
        <ele>2041.98</ele>
        <time>2017-10-17T10:40:19Z</time>
      </trkpt>
      <trkpt lat="46.0327" lon="6.80337">
        <ele>2042.46</ele>
        <time>2017-10-17T10:40:20Z</time>
      </trkpt>
      <trkpt lat="46.03272" lon="6.80338">
        <ele>2043.9</ele>
        <time>2017-10-17T10:40:27Z</time>
      </trkpt>
      <trkpt lat="46.03272" lon="6.80337">
        <ele>2044.38</ele>
        <time>2017-10-17T10:40:28Z</time>
      </trkpt>
      <trkpt lat="46.03276" lon="6.80338">
        <ele>2045.82</ele>
        <time>2017-10-17T10:40:34Z</time>
      </trkpt>
      <trkpt lat="46.03285" lon="6.80356">
        <ele>2049.19</ele>
        <time>2017-10-17T10:40:52Z</time>
      </trkpt>
      <trkpt lat="46.03285" lon="6.80357">
        <ele>2049.67</ele>
        <time>2017-10-17T10:40:53Z</time>
      </trkpt>
      <trkpt lat="46.03288" lon="6.80359">
        <ele>2051.11</ele>
        <time>2017-10-17T10:40:58Z</time>
      </trkpt>
      <trkpt lat="46.03287" lon="6.80353">
        <ele>2053.99</ele>
        <time>2017-10-17T10:41:08Z</time>
      </trkpt>
      <trkpt lat="46.03288" lon="6.80349">
        <ele>2055.44</ele>
        <time>2017-10-17T10:41:12Z</time>
      </trkpt>
      <trkpt lat="46.0329" lon="6.80345">
        <ele>2055.92</ele>
        <time>2017-10-17T10:41:16Z</time>
      </trkpt>
      <trkpt lat="46.03292" lon="6.80348">
        <ele>2057.36</ele>
        <time>2017-10-17T10:41:20Z</time>
      </trkpt>
      <trkpt lat="46.03295" lon="6.80352">
        <ele>2058.8</ele>
        <time>2017-10-17T10:41:27Z</time>
      </trkpt>
      <trkpt lat="46.03301" lon="6.80355">
        <ele>2062.17</ele>
        <time>2017-10-17T10:41:39Z</time>
      </trkpt>
      <trkpt lat="46.03302" lon="6.80359">
        <ele>2063.13</ele>
        <time>2017-10-17T10:41:43Z</time>
      </trkpt>
      <trkpt lat="46.03305" lon="6.80363">
        <ele>2066.01</ele>
        <time>2017-10-17T10:42:04Z</time>
      </trkpt>
      <trkpt lat="46.03308" lon="6.80366">
        <ele>2068.89</ele>
        <time>2017-10-17T10:42:16Z</time>
      </trkpt>
      <trkpt lat="46.03309" lon="6.80369">
        <ele>2069.86</ele>
        <time>2017-10-17T10:42:27Z</time>
      </trkpt>
      <trkpt lat="46.0331" lon="6.80375">
        <ele>2070.82</ele>
        <time>2017-10-17T10:42:40Z</time>
      </trkpt>
      <trkpt lat="46.03311" lon="6.80373">
        <ele>2070.82</ele>
        <time>2017-10-17T10:42:42Z</time>
      </trkpt>
      <trkpt lat="46.03317" lon="6.80361">
        <ele>2073.7</ele>
        <time>2017-10-17T10:42:55Z</time>
      </trkpt>
      <trkpt lat="46.03317" lon="6.80359">
        <ele>2073.7</ele>
        <time>2017-10-17T10:42:56Z</time>
      </trkpt>
      <trkpt lat="46.03316" lon="6.80358">
        <ele>2073.7</ele>
        <time>2017-10-17T10:42:57Z</time>
      </trkpt>
      <trkpt lat="46.03316" lon="6.80355">
        <ele>2073.7</ele>
        <time>2017-10-17T10:43:00Z</time>
      </trkpt>
      <trkpt lat="46.03316" lon="6.80353">
        <ele>2074.18</ele>
        <time>2017-10-17T10:43:01Z</time>
      </trkpt>
      <trkpt lat="46.03317" lon="6.80352">
        <ele>2074.18</ele>
        <time>2017-10-17T10:43:02Z</time>
      </trkpt>
      <trkpt lat="46.03318" lon="6.80351">
        <ele>2074.18</ele>
        <time>2017-10-17T10:43:03Z</time>
      </trkpt>
      <trkpt lat="46.0332" lon="6.80349">
        <ele>2076.1</ele>
        <time>2017-10-17T10:43:10Z</time>
      </trkpt>
      <trkpt lat="46.03321" lon="6.80352">
        <ele>2077.07</ele>
        <time>2017-10-17T10:43:16Z</time>
      </trkpt>
      <trkpt lat="46.03321" lon="6.80353">
        <ele>2077.55</ele>
        <time>2017-10-17T10:43:17Z</time>
      </trkpt>
      <trkpt lat="46.03322" lon="6.80356">
        <ele>2077.55</ele>
        <time>2017-10-17T10:43:19Z</time>
      </trkpt>
      <trkpt lat="46.03322" lon="6.80357">
        <ele>2078.03</ele>
        <time>2017-10-17T10:43:20Z</time>
      </trkpt>
      <trkpt lat="46.03324" lon="6.80361">
        <ele>2078.99</ele>
        <time>2017-10-17T10:43:26Z</time>
      </trkpt>
      <trkpt lat="46.0333" lon="6.80367">
        <ele>2081.87</ele>
        <time>2017-10-17T10:43:38Z</time>
      </trkpt>
      <trkpt lat="46.03334" lon="6.80368">
        <ele>2085.24</ele>
        <time>2017-10-17T10:43:48Z</time>
      </trkpt>
      <trkpt lat="46.03339" lon="6.80374">
        <ele>2088.12</ele>
        <time>2017-10-17T10:44:02Z</time>
      </trkpt>
      <trkpt lat="46.03345" lon="6.80378">
        <ele>2091.49</ele>
        <time>2017-10-17T10:44:15Z</time>
      </trkpt>
      <trkpt lat="46.03352" lon="6.80384">
        <ele>2094.37</ele>
        <time>2017-10-17T10:44:29Z</time>
      </trkpt>
      <trkpt lat="46.03357" lon="6.80389">
        <ele>2095.81</ele>
        <time>2017-10-17T10:44:36Z</time>
      </trkpt>
      <trkpt lat="46.0336" lon="6.804">
        <ele>2099.18</ele>
        <time>2017-10-17T10:44:49Z</time>
      </trkpt>
      <trkpt lat="46.0336" lon="6.80401">
        <ele>2099.18</ele>
        <time>2017-10-17T10:44:50Z</time>
      </trkpt>
      <trkpt lat="46.0336" lon="6.80413">
        <ele>2101.58</ele>
        <time>2017-10-17T10:44:59Z</time>
      </trkpt>
      <trkpt lat="46.0336" lon="6.80415">
        <ele>2101.58</ele>
        <time>2017-10-17T10:45:00Z</time>
      </trkpt>
      <trkpt lat="46.0336" lon="6.80416">
        <ele>2101.58</ele>
        <time>2017-10-17T10:45:01Z</time>
      </trkpt>
      <trkpt lat="46.0336" lon="6.80418">
        <ele>2101.58</ele>
        <time>2017-10-17T10:45:02Z</time>
      </trkpt>
      <trkpt lat="46.03359" lon="6.80427">
        <ele>2103.02</ele>
        <time>2017-10-17T10:45:09Z</time>
      </trkpt>
      <trkpt lat="46.03359" lon="6.80434">
        <ele>2104.46</ele>
        <time>2017-10-17T10:45:14Z</time>
      </trkpt>
      <trkpt lat="46.03361" lon="6.80436">
        <ele>2105.42</ele>
        <time>2017-10-17T10:45:17Z</time>
      </trkpt>
      <trkpt lat="46.03364" lon="6.80436">
        <ele>2105.91</ele>
        <time>2017-10-17T10:45:21Z</time>
      </trkpt>
      <trkpt lat="46.03365" lon="6.80436">
        <ele>2106.39</ele>
        <time>2017-10-17T10:45:22Z</time>
      </trkpt>
      <trkpt lat="46.03365" lon="6.80437">
        <ele>2106.39</ele>
        <time>2017-10-17T10:45:23Z</time>
      </trkpt>
      <trkpt lat="46.0337" lon="6.80451">
        <ele>2109.75</ele>
        <time>2017-10-17T10:45:37Z</time>
      </trkpt>
      <trkpt lat="46.03371" lon="6.80452">
        <ele>2109.75</ele>
        <time>2017-10-17T10:45:38Z</time>
      </trkpt>
      <trkpt lat="46.03372" lon="6.80454">
        <ele>2110.23</ele>
        <time>2017-10-17T10:45:40Z</time>
      </trkpt>
      <trkpt lat="46.03387" lon="6.80468">
        <ele>2112.15</ele>
        <time>2017-10-17T10:45:54Z</time>
      </trkpt>
      <trkpt lat="46.03397" lon="6.8047">
        <ele>2115.04</ele>
        <time>2017-10-17T10:46:05Z</time>
      </trkpt>
      <trkpt lat="46.03398" lon="6.80469">
        <ele>2115.04</ele>
        <time>2017-10-17T10:46:06Z</time>
      </trkpt>
      <trkpt lat="46.03404" lon="6.80466">
        <ele>2116</ele>
        <time>2017-10-17T10:46:11Z</time>
      </trkpt>
      <trkpt lat="46.03405" lon="6.80466">
        <ele>2116.48</ele>
        <time>2017-10-17T10:46:12Z</time>
      </trkpt>
      <trkpt lat="46.03406" lon="6.80466">
        <ele>2116.48</ele>
        <time>2017-10-17T10:46:13Z</time>
      </trkpt>
      <trkpt lat="46.03417" lon="6.80468">
        <ele>2119.84</ele>
        <time>2017-10-17T10:46:26Z</time>
      </trkpt>
      <trkpt lat="46.03418" lon="6.80469">
        <ele>2119.84</ele>
        <time>2017-10-17T10:46:27Z</time>
      </trkpt>
      <trkpt lat="46.0342" lon="6.80471">
        <ele>2120.32</ele>
        <time>2017-10-17T10:46:29Z</time>
      </trkpt>
      <trkpt lat="46.03421" lon="6.80472">
        <ele>2120.32</ele>
        <time>2017-10-17T10:46:30Z</time>
      </trkpt>
      <trkpt lat="46.03428" lon="6.80476">
        <ele>2123.21</ele>
        <time>2017-10-17T10:46:42Z</time>
      </trkpt>
      <trkpt lat="46.03429" lon="6.80478">
        <ele>2123.69</ele>
        <time>2017-10-17T10:46:44Z</time>
      </trkpt>
      <trkpt lat="46.03428" lon="6.80485">
        <ele>2124.65</ele>
        <time>2017-10-17T10:46:48Z</time>
      </trkpt>
      <trkpt lat="46.03428" lon="6.80487">
        <ele>2125.13</ele>
        <time>2017-10-17T10:46:49Z</time>
      </trkpt>
      <trkpt lat="46.03428" lon="6.80488">
        <ele>2125.13</ele>
        <time>2017-10-17T10:46:50Z</time>
      </trkpt>
      <trkpt lat="46.03427" lon="6.80489">
        <ele>2125.13</ele>
        <time>2017-10-17T10:46:51Z</time>
      </trkpt>
      <trkpt lat="46.03426" lon="6.8049">
        <ele>2125.13</ele>
        <time>2017-10-17T10:46:52Z</time>
      </trkpt>
      <trkpt lat="46.03425" lon="6.80492">
        <ele>2125.61</ele>
        <time>2017-10-17T10:46:53Z</time>
      </trkpt>
      <trkpt lat="46.03422" lon="6.80498">
        <ele>2127.05</ele>
        <time>2017-10-17T10:47:00Z</time>
      </trkpt>
      <trkpt lat="46.03422" lon="6.805">
        <ele>2127.53</ele>
        <time>2017-10-17T10:47:01Z</time>
      </trkpt>
      <trkpt lat="46.03422" lon="6.80501">
        <ele>2127.53</ele>
        <time>2017-10-17T10:47:02Z</time>
      </trkpt>
      <trkpt lat="46.03422" lon="6.80503">
        <ele>2128.02</ele>
        <time>2017-10-17T10:47:03Z</time>
      </trkpt>
      <trkpt lat="46.03422" lon="6.80504">
        <ele>2128.02</ele>
        <time>2017-10-17T10:47:04Z</time>
      </trkpt>
      <trkpt lat="46.03422" lon="6.80506">
        <ele>2128.02</ele>
        <time>2017-10-17T10:47:05Z</time>
      </trkpt>
      <trkpt lat="46.03422" lon="6.80507">
        <ele>2128.02</ele>
        <time>2017-10-17T10:47:06Z</time>
      </trkpt>
      <trkpt lat="46.03421" lon="6.80508">
        <ele>2128.5</ele>
        <time>2017-10-17T10:47:07Z</time>
      </trkpt>
      <trkpt lat="46.03425" lon="6.8053">
        <ele>2131.38</ele>
        <time>2017-10-17T10:47:24Z</time>
      </trkpt>
      <trkpt lat="46.03428" lon="6.80536">
        <ele>2131.86</ele>
        <time>2017-10-17T10:47:28Z</time>
      </trkpt>
      <trkpt lat="46.03435" lon="6.80542">
        <ele>2133.3</ele>
        <time>2017-10-17T10:47:36Z</time>
      </trkpt>
      <trkpt lat="46.03435" lon="6.80543">
        <ele>2133.78</ele>
        <time>2017-10-17T10:47:37Z</time>
      </trkpt>
      <trkpt lat="46.03441" lon="6.80542">
        <ele>2135.23</ele>
        <time>2017-10-17T10:47:44Z</time>
      </trkpt>
      <trkpt lat="46.03448" lon="6.80537">
        <ele>2136.19</ele>
        <time>2017-10-17T10:47:50Z</time>
      </trkpt>
      <trkpt lat="46.0345" lon="6.80536">
        <ele>2136.19</ele>
        <time>2017-10-17T10:47:51Z</time>
      </trkpt>
      <trkpt lat="46.03455" lon="6.80531">
        <ele>2136.19</ele>
        <time>2017-10-17T10:47:55Z</time>
      </trkpt>
      <trkpt lat="46.03456" lon="6.8053">
        <ele>2136.19</ele>
        <time>2017-10-17T10:47:56Z</time>
      </trkpt>
      <trkpt lat="46.03457" lon="6.80529">
        <ele>2136.67</ele>
        <time>2017-10-17T10:47:57Z</time>
      </trkpt>
      <trkpt lat="46.03457" lon="6.80528">
        <ele>2137.63</ele>
        <time>2017-10-17T10:47:58Z</time>
      </trkpt>
      <trkpt lat="46.03459" lon="6.80526">
        <ele>2138.11</ele>
        <time>2017-10-17T10:48:00Z</time>
      </trkpt>
      <trkpt lat="46.0346" lon="6.80526">
        <ele>2138.59</ele>
        <time>2017-10-17T10:48:01Z</time>
      </trkpt>
      <trkpt lat="46.03469" lon="6.80526">
        <ele>2141.47</ele>
        <time>2017-10-17T10:48:15Z</time>
      </trkpt>
      <trkpt lat="46.03472" lon="6.80527">
        <ele>2142.44</ele>
        <time>2017-10-17T10:48:20Z</time>
      </trkpt>
      <trkpt lat="46.03473" lon="6.80528">
        <ele>2142.44</ele>
        <time>2017-10-17T10:48:21Z</time>
      </trkpt>
      <trkpt lat="46.03474" lon="6.80529">
        <ele>2142.92</ele>
        <time>2017-10-17T10:48:22Z</time>
      </trkpt>
      <trkpt lat="46.03475" lon="6.80533">
        <ele>2142.92</ele>
        <time>2017-10-17T10:48:24Z</time>
      </trkpt>
      <trkpt lat="46.03477" lon="6.80539">
        <ele>2144.84</ele>
        <time>2017-10-17T10:48:30Z</time>
      </trkpt>
      <trkpt lat="46.03477" lon="6.80542">
        <ele>2145.32</ele>
        <time>2017-10-17T10:48:33Z</time>
      </trkpt>
      <trkpt lat="46.03477" lon="6.80543">
        <ele>2145.32</ele>
        <time>2017-10-17T10:48:34Z</time>
      </trkpt>
      <trkpt lat="46.03477" lon="6.80546">
        <ele>2145.8</ele>
        <time>2017-10-17T10:48:36Z</time>
      </trkpt>
      <trkpt lat="46.03477" lon="6.80547">
        <ele>2146.28</ele>
        <time>2017-10-17T10:48:37Z</time>
      </trkpt>
      <trkpt lat="46.03477" lon="6.80548">
        <ele>2146.28</ele>
        <time>2017-10-17T10:48:38Z</time>
      </trkpt>
      <trkpt lat="46.0348" lon="6.80549">
        <ele>2146.76</ele>
        <time>2017-10-17T10:48:42Z</time>
      </trkpt>
      <trkpt lat="46.0349" lon="6.80545">
        <ele>2149.65</ele>
        <time>2017-10-17T10:48:55Z</time>
      </trkpt>
      <trkpt lat="46.03492" lon="6.80547">
        <ele>2150.13</ele>
        <time>2017-10-17T10:48:57Z</time>
      </trkpt>
      <trkpt lat="46.03492" lon="6.80548">
        <ele>2150.61</ele>
        <time>2017-10-17T10:48:58Z</time>
      </trkpt>
      <trkpt lat="46.03492" lon="6.80551">
        <ele>2151.09</ele>
        <time>2017-10-17T10:49:00Z</time>
      </trkpt>
      <trkpt lat="46.03492" lon="6.80552">
        <ele>2151.09</ele>
        <time>2017-10-17T10:49:01Z</time>
      </trkpt>
      <trkpt lat="46.03492" lon="6.80557">
        <ele>2152.05</ele>
        <time>2017-10-17T10:49:05Z</time>
      </trkpt>
      <trkpt lat="46.03492" lon="6.80558">
        <ele>2152.53</ele>
        <time>2017-10-17T10:49:06Z</time>
      </trkpt>
      <trkpt lat="46.03494" lon="6.80566">
        <ele>2155.41</ele>
        <time>2017-10-17T10:49:20Z</time>
      </trkpt>
      <trkpt lat="46.03493" lon="6.80576">
        <ele>2157.82</ele>
        <time>2017-10-17T10:49:31Z</time>
      </trkpt>
      <trkpt lat="46.03493" lon="6.80577">
        <ele>2158.3</ele>
        <time>2017-10-17T10:49:32Z</time>
      </trkpt>
      <trkpt lat="46.03492" lon="6.80577">
        <ele>2158.78</ele>
        <time>2017-10-17T10:49:33Z</time>
      </trkpt>
      <trkpt lat="46.03489" lon="6.80582">
        <ele>2160.7</ele>
        <time>2017-10-17T10:49:40Z</time>
      </trkpt>
      <trkpt lat="46.0348" lon="6.80595">
        <ele>2162.62</ele>
        <time>2017-10-17T10:49:51Z</time>
      </trkpt>
      <trkpt lat="46.03474" lon="6.80603">
        <ele>2165.03</ele>
        <time>2017-10-17T10:49:59Z</time>
      </trkpt>
      <trkpt lat="46.03473" lon="6.80603">
        <ele>2165.03</ele>
        <time>2017-10-17T10:50:00Z</time>
      </trkpt>
      <trkpt lat="46.03472" lon="6.80603">
        <ele>2165.03</ele>
        <time>2017-10-17T10:50:01Z</time>
      </trkpt>
      <trkpt lat="46.03472" lon="6.80604">
        <ele>2165.03</ele>
        <time>2017-10-17T10:50:02Z</time>
      </trkpt>
      <trkpt lat="46.0347" lon="6.80605">
        <ele>2165.51</ele>
        <time>2017-10-17T10:50:04Z</time>
      </trkpt>
      <trkpt lat="46.03469" lon="6.80606">
        <ele>2165.99</ele>
        <time>2017-10-17T10:50:05Z</time>
      </trkpt>
      <trkpt lat="46.03467" lon="6.80608">
        <ele>2166.47</ele>
        <time>2017-10-17T10:50:09Z</time>
      </trkpt>
      <trkpt lat="46.03467" lon="6.80609">
        <ele>2166.95</ele>
        <time>2017-10-17T10:50:10Z</time>
      </trkpt>
      <trkpt lat="46.03466" lon="6.8061">
        <ele>2167.43</ele>
        <time>2017-10-17T10:50:11Z</time>
      </trkpt>
      <trkpt lat="46.03465" lon="6.80611">
        <ele>2167.91</ele>
        <time>2017-10-17T10:50:12Z</time>
      </trkpt>
      <trkpt lat="46.03463" lon="6.80611">
        <ele>2168.39</ele>
        <time>2017-10-17T10:50:14Z</time>
      </trkpt>
      <trkpt lat="46.03462" lon="6.80612">
        <ele>2168.39</ele>
        <time>2017-10-17T10:50:15Z</time>
      </trkpt>
      <trkpt lat="46.03453" lon="6.80617">
        <ele>2171.76</ele>
        <time>2017-10-17T10:50:25Z</time>
      </trkpt>
      <trkpt lat="46.03443" lon="6.80632">
        <ele>2174.64</ele>
        <time>2017-10-17T10:50:38Z</time>
      </trkpt>
      <trkpt lat="46.03433" lon="6.80638">
        <ele>2176.08</ele>
        <time>2017-10-17T10:50:47Z</time>
      </trkpt>
      <trkpt lat="46.03432" lon="6.80638">
        <ele>2176.08</ele>
        <time>2017-10-17T10:50:48Z</time>
      </trkpt>
      <trkpt lat="46.03431" lon="6.80639">
        <ele>2176.08</ele>
        <time>2017-10-17T10:50:49Z</time>
      </trkpt>
      <trkpt lat="46.03434" lon="6.80641">
        <ele>2178.48</ele>
        <time>2017-10-17T10:51:01Z</time>
      </trkpt>
      <trkpt lat="46.03441" lon="6.80637">
        <ele>2181.85</ele>
        <time>2017-10-17T10:51:13Z</time>
      </trkpt>
      <trkpt lat="46.03447" lon="6.80642">
        <ele>2184.73</ele>
        <time>2017-10-17T10:51:25Z</time>
      </trkpt>
      <trkpt lat="46.03447" lon="6.80645">
        <ele>2185.21</ele>
        <time>2017-10-17T10:51:27Z</time>
      </trkpt>
      <trkpt lat="46.03449" lon="6.80661">
        <ele>2188.58</ele>
        <time>2017-10-17T10:51:43Z</time>
      </trkpt>
      <trkpt lat="46.0345" lon="6.80661">
        <ele>2188.58</ele>
        <time>2017-10-17T10:51:44Z</time>
      </trkpt>
      <trkpt lat="46.03451" lon="6.80664">
        <ele>2191.46</ele>
        <time>2017-10-17T10:51:52Z</time>
      </trkpt>
      <trkpt lat="46.03454" lon="6.80668">
        <ele>2194.83</ele>
        <time>2017-10-17T10:52:06Z</time>
      </trkpt>
      <trkpt lat="46.03451" lon="6.80671">
        <ele>2197.71</ele>
        <time>2017-10-17T10:52:19Z</time>
      </trkpt>
      <trkpt lat="46.03447" lon="6.80678">
        <ele>2200.11</ele>
        <time>2017-10-17T10:52:30Z</time>
      </trkpt>
      <trkpt lat="46.03446" lon="6.80679">
        <ele>2200.11</ele>
        <time>2017-10-17T10:52:31Z</time>
      </trkpt>
      <trkpt lat="46.03445" lon="6.80681">
        <ele>2200.59</ele>
        <time>2017-10-17T10:52:32Z</time>
      </trkpt>
      <trkpt lat="46.03445" lon="6.80682">
        <ele>2200.59</ele>
        <time>2017-10-17T10:52:33Z</time>
      </trkpt>
      <trkpt lat="46.03444" lon="6.80686">
        <ele>2200.59</ele>
        <time>2017-10-17T10:52:36Z</time>
      </trkpt>
      <trkpt lat="46.03444" lon="6.80687">
        <ele>2200.59</ele>
        <time>2017-10-17T10:52:37Z</time>
      </trkpt>
      <trkpt lat="46.03443" lon="6.80695">
        <ele>2203.96</ele>
        <time>2017-10-17T10:52:52Z</time>
      </trkpt>
      <trkpt lat="46.03442" lon="6.80702">
        <ele>2206.36</ele>
        <time>2017-10-17T10:53:01Z</time>
      </trkpt>
      <trkpt lat="46.03442" lon="6.80705">
        <ele>2206.84</ele>
        <time>2017-10-17T10:53:04Z</time>
      </trkpt>
      <trkpt lat="46.03442" lon="6.80706">
        <ele>2207.32</ele>
        <time>2017-10-17T10:53:05Z</time>
      </trkpt>
      <trkpt lat="46.03442" lon="6.80711">
        <ele>2207.32</ele>
        <time>2017-10-17T10:53:08Z</time>
      </trkpt>
      <trkpt lat="46.03442" lon="6.80713">
        <ele>2207.32</ele>
        <time>2017-10-17T10:53:10Z</time>
      </trkpt>
      <trkpt lat="46.03442" lon="6.80715">
        <ele>2207.81</ele>
        <time>2017-10-17T10:53:11Z</time>
      </trkpt>
      <trkpt lat="46.03442" lon="6.80717">
        <ele>2207.81</ele>
        <time>2017-10-17T10:53:13Z</time>
      </trkpt>
      <trkpt lat="46.03442" lon="6.80718">
        <ele>2208.29</ele>
        <time>2017-10-17T10:53:14Z</time>
      </trkpt>
      <trkpt lat="46.03443" lon="6.80719">
        <ele>2208.29</ele>
        <time>2017-10-17T10:53:15Z</time>
      </trkpt>
      <trkpt lat="46.03443" lon="6.80728">
        <ele>2211.17</ele>
        <time>2017-10-17T10:53:27Z</time>
      </trkpt>
      <trkpt lat="46.03444" lon="6.80732">
        <ele>2212.61</ele>
        <time>2017-10-17T10:53:32Z</time>
      </trkpt>
      <trkpt lat="46.03444" lon="6.80733">
        <ele>2212.61</ele>
        <time>2017-10-17T10:53:33Z</time>
      </trkpt>
      <trkpt lat="46.03445" lon="6.80735">
        <ele>2212.61</ele>
        <time>2017-10-17T10:53:34Z</time>
      </trkpt>
      <trkpt lat="46.03445" lon="6.80737">
        <ele>2213.09</ele>
        <time>2017-10-17T10:53:35Z</time>
      </trkpt>
      <trkpt lat="46.03445" lon="6.80742">
        <ele>2213.57</ele>
        <time>2017-10-17T10:53:47Z</time>
      </trkpt>
      <trkpt lat="46.03446" lon="6.80742">
        <ele>2213.57</ele>
        <time>2017-10-17T10:53:48Z</time>
      </trkpt>
      <trkpt lat="46.03452" lon="6.80734">
        <ele>2216.94</ele>
        <time>2017-10-17T10:54:10Z</time>
      </trkpt>
      <trkpt lat="46.03453" lon="6.80732">
        <ele>2217.42</ele>
        <time>2017-10-17T10:54:12Z</time>
      </trkpt>
      <trkpt lat="46.03459" lon="6.80732">
        <ele>2219.82</ele>
        <time>2017-10-17T10:54:23Z</time>
      </trkpt>
      <trkpt lat="46.03459" lon="6.80739">
        <ele>2222.22</ele>
        <time>2017-10-17T10:54:35Z</time>
      </trkpt>
      <trkpt lat="46.03459" lon="6.80741">
        <ele>2222.22</ele>
        <time>2017-10-17T10:54:37Z</time>
      </trkpt>
      <trkpt lat="46.03459" lon="6.80743">
        <ele>2222.71</ele>
        <time>2017-10-17T10:54:38Z</time>
      </trkpt>
      <trkpt lat="46.03461" lon="6.80743">
        <ele>2223.67</ele>
        <time>2017-10-17T10:54:45Z</time>
      </trkpt>
      <trkpt lat="46.03461" lon="6.80742">
        <ele>2224.15</ele>
        <time>2017-10-17T10:54:46Z</time>
      </trkpt>
      <trkpt lat="46.03462" lon="6.80741">
        <ele>2224.15</ele>
        <time>2017-10-17T10:54:47Z</time>
      </trkpt>
      <trkpt lat="46.03462" lon="6.80739">
        <ele>2224.15</ele>
        <time>2017-10-17T10:54:48Z</time>
      </trkpt>
      <trkpt lat="46.03463" lon="6.80738">
        <ele>2224.63</ele>
        <time>2017-10-17T10:54:49Z</time>
      </trkpt>
      <trkpt lat="46.03464" lon="6.80737">
        <ele>2224.15</ele>
        <time>2017-10-17T10:54:50Z</time>
      </trkpt>
      <trkpt lat="46.03464" lon="6.80735">
        <ele>2224.15</ele>
        <time>2017-10-17T10:54:51Z</time>
      </trkpt>
      <trkpt lat="46.03466" lon="6.80733">
        <ele>2224.15</ele>
        <time>2017-10-17T10:54:53Z</time>
      </trkpt>
      <trkpt lat="46.03466" lon="6.80731">
        <ele>2224.63</ele>
        <time>2017-10-17T10:54:55Z</time>
      </trkpt>
      <trkpt lat="46.03467" lon="6.80729">
        <ele>2224.63</ele>
        <time>2017-10-17T10:54:56Z</time>
      </trkpt>
      <trkpt lat="46.03468" lon="6.80728">
        <ele>2225.11</ele>
        <time>2017-10-17T10:54:57Z</time>
      </trkpt>
      <trkpt lat="46.03469" lon="6.80726">
        <ele>2225.59</ele>
        <time>2017-10-17T10:54:59Z</time>
      </trkpt>
      <trkpt lat="46.0347" lon="6.80725">
        <ele>2225.59</ele>
        <time>2017-10-17T10:55:00Z</time>
      </trkpt>
      <trkpt lat="46.03471" lon="6.80724">
        <ele>2226.07</ele>
        <time>2017-10-17T10:55:02Z</time>
      </trkpt>
      <trkpt lat="46.03472" lon="6.80722">
        <ele>2226.55</ele>
        <time>2017-10-17T10:55:04Z</time>
      </trkpt>
      <trkpt lat="46.03475" lon="6.80717">
        <ele>2227.03</ele>
        <time>2017-10-17T10:55:08Z</time>
      </trkpt>
      <trkpt lat="46.03476" lon="6.80715">
        <ele>2227.51</ele>
        <time>2017-10-17T10:55:10Z</time>
      </trkpt>
      <trkpt lat="46.03476" lon="6.80713">
        <ele>2227.99</ele>
        <time>2017-10-17T10:55:11Z</time>
      </trkpt>
      <trkpt lat="46.03477" lon="6.80712">
        <ele>2227.99</ele>
        <time>2017-10-17T10:55:12Z</time>
      </trkpt>
      <trkpt lat="46.03478" lon="6.8071">
        <ele>2227.99</ele>
        <time>2017-10-17T10:55:14Z</time>
      </trkpt>
      <trkpt lat="46.03481" lon="6.80702">
        <ele>2229.43</ele>
        <time>2017-10-17T10:55:19Z</time>
      </trkpt>
      <trkpt lat="46.03482" lon="6.807">
        <ele>2229.92</ele>
        <time>2017-10-17T10:55:21Z</time>
      </trkpt>
      <trkpt lat="46.03483" lon="6.80699">
        <ele>2230.4</ele>
        <time>2017-10-17T10:55:22Z</time>
      </trkpt>
      <trkpt lat="46.03484" lon="6.80698">
        <ele>2230.4</ele>
        <time>2017-10-17T10:55:23Z</time>
      </trkpt>
      <trkpt lat="46.03484" lon="6.80697">
        <ele>2230.4</ele>
        <time>2017-10-17T10:55:24Z</time>
      </trkpt>
      <trkpt lat="46.03485" lon="6.80696">
        <ele>2230.88</ele>
        <time>2017-10-17T10:55:25Z</time>
      </trkpt>
      <trkpt lat="46.03485" lon="6.80696">
        <ele>2230.88</ele>
        <time>2017-10-17T10:55:26Z</time>
      </trkpt>
      <trkpt lat="46.03486" lon="6.80697">
        <ele>2231.36</ele>
        <time>2017-10-17T10:55:27Z</time>
      </trkpt>
      <trkpt lat="46.03487" lon="6.80701">
        <ele>2232.8</ele>
        <time>2017-10-17T10:55:31Z</time>
      </trkpt>
      <trkpt lat="46.03488" lon="6.80703">
        <ele>2233.28</ele>
        <time>2017-10-17T10:55:32Z</time>
      </trkpt>
      <trkpt lat="46.03488" lon="6.80714">
        <ele>2235.2</ele>
        <time>2017-10-17T10:55:40Z</time>
      </trkpt>
      <trkpt lat="46.0349" lon="6.80739">
        <ele>2238.57</ele>
        <time>2017-10-17T10:56:01Z</time>
      </trkpt>
      <trkpt lat="46.0349" lon="6.80741">
        <ele>2238.57</ele>
        <time>2017-10-17T10:56:02Z</time>
      </trkpt>
      <trkpt lat="46.0349" lon="6.80743">
        <ele>2239.05</ele>
        <time>2017-10-17T10:56:04Z</time>
      </trkpt>
      <trkpt lat="46.0349" lon="6.80747">
        <ele>2240.01</ele>
        <time>2017-10-17T10:56:08Z</time>
      </trkpt>
      <trkpt lat="46.03494" lon="6.80753">
        <ele>2242.41</ele>
        <time>2017-10-17T10:56:22Z</time>
      </trkpt>
      <trkpt lat="46.03494" lon="6.80752">
        <ele>2242.89</ele>
        <time>2017-10-17T10:56:23Z</time>
      </trkpt>
      <trkpt lat="46.03496" lon="6.80748">
        <ele>2243.37</ele>
        <time>2017-10-17T10:56:26Z</time>
      </trkpt>
      <trkpt lat="46.03497" lon="6.80747">
        <ele>2243.85</ele>
        <time>2017-10-17T10:56:27Z</time>
      </trkpt>
      <trkpt lat="46.03499" lon="6.80745">
        <ele>2244.33</ele>
        <time>2017-10-17T10:56:29Z</time>
      </trkpt>
      <trkpt lat="46.03499" lon="6.80744">
        <ele>2244.82</ele>
        <time>2017-10-17T10:56:30Z</time>
      </trkpt>
      <trkpt lat="46.035" lon="6.80742">
        <ele>2244.82</ele>
        <time>2017-10-17T10:56:32Z</time>
      </trkpt>
      <trkpt lat="46.03501" lon="6.8074">
        <ele>2245.78</ele>
        <time>2017-10-17T10:56:34Z</time>
      </trkpt>
      <trkpt lat="46.03502" lon="6.80738">
        <ele>2245.78</ele>
        <time>2017-10-17T10:56:35Z</time>
      </trkpt>
      <trkpt lat="46.03502" lon="6.80737">
        <ele>2246.26</ele>
        <time>2017-10-17T10:56:36Z</time>
      </trkpt>
      <trkpt lat="46.03507" lon="6.80729">
        <ele>2249.14</ele>
        <time>2017-10-17T10:56:46Z</time>
      </trkpt>
      <trkpt lat="46.03508" lon="6.80728">
        <ele>2249.14</ele>
        <time>2017-10-17T10:56:47Z</time>
      </trkpt>
      <trkpt lat="46.03509" lon="6.80727">
        <ele>2249.62</ele>
        <time>2017-10-17T10:56:48Z</time>
      </trkpt>
      <trkpt lat="46.0351" lon="6.80728">
        <ele>2249.62</ele>
        <time>2017-10-17T10:56:49Z</time>
      </trkpt>
      <trkpt lat="46.0351" lon="6.8073">
        <ele>2249.62</ele>
        <time>2017-10-17T10:56:50Z</time>
      </trkpt>
      <trkpt lat="46.0351" lon="6.80731">
        <ele>2250.1</ele>
        <time>2017-10-17T10:56:51Z</time>
      </trkpt>
      <trkpt lat="46.03511" lon="6.80736">
        <ele>2251.06</ele>
        <time>2017-10-17T10:56:56Z</time>
      </trkpt>
      <trkpt lat="46.03511" lon="6.80737">
        <ele>2251.54</ele>
        <time>2017-10-17T10:56:57Z</time>
      </trkpt>
      <trkpt lat="46.03513" lon="6.80741">
        <ele>2252.99</ele>
        <time>2017-10-17T10:57:03Z</time>
      </trkpt>
      <trkpt lat="46.03515" lon="6.80742">
        <ele>2253.47</ele>
        <time>2017-10-17T10:57:06Z</time>
      </trkpt>
      <trkpt lat="46.03516" lon="6.80743">
        <ele>2253.95</ele>
        <time>2017-10-17T10:57:07Z</time>
      </trkpt>
      <trkpt lat="46.03517" lon="6.80743">
        <ele>2254.43</ele>
        <time>2017-10-17T10:57:08Z</time>
      </trkpt>
      <trkpt lat="46.03518" lon="6.80743">
        <ele>2255.39</ele>
        <time>2017-10-17T10:57:10Z</time>
      </trkpt>
      <trkpt lat="46.03524" lon="6.80745">
        <ele>2256.83</ele>
        <time>2017-10-17T10:57:18Z</time>
      </trkpt>
      <trkpt lat="46.03526" lon="6.80757">
        <ele>2253.95</ele>
        <time>2017-10-17T10:57:42Z</time>
      </trkpt>
      <trkpt lat="46.03526" lon="6.80758">
        <ele>2254.43</ele>
        <time>2017-10-17T10:57:43Z</time>
      </trkpt>
      <trkpt lat="46.03525" lon="6.80763">
        <ele>2253.47</ele>
        <time>2017-10-17T10:57:50Z</time>
      </trkpt>
      <trkpt lat="46.03526" lon="6.80766">
        <ele>2252.51</ele>
        <time>2017-10-17T10:57:51Z</time>
      </trkpt>
      <trkpt lat="46.03527" lon="6.80768">
        <ele>2252.51</ele>
        <time>2017-10-17T10:57:52Z</time>
      </trkpt>
      <trkpt lat="46.03528" lon="6.80776">
        <ele>2252.99</ele>
        <time>2017-10-17T10:57:56Z</time>
      </trkpt>
      <trkpt lat="46.03528" lon="6.80778">
        <ele>2252.99</ele>
        <time>2017-10-17T10:57:57Z</time>
      </trkpt>
      <trkpt lat="46.03528" lon="6.80781">
        <ele>2252.99</ele>
        <time>2017-10-17T10:57:58Z</time>
      </trkpt>
      <trkpt lat="46.03528" lon="6.80783">
        <ele>2252.99</ele>
        <time>2017-10-17T10:57:59Z</time>
      </trkpt>
      <trkpt lat="46.03528" lon="6.80786">
        <ele>2252.99</ele>
        <time>2017-10-17T10:58:00Z</time>
      </trkpt>
      <trkpt lat="46.03528" lon="6.80793">
        <ele>2253.47</ele>
        <time>2017-10-17T10:58:03Z</time>
      </trkpt>
      <trkpt lat="46.03528" lon="6.80794">
        <ele>2253.47</ele>
        <time>2017-10-17T10:58:04Z</time>
      </trkpt>
      <trkpt lat="46.0353" lon="6.80803">
        <ele>2254.91</ele>
        <time>2017-10-17T10:58:09Z</time>
      </trkpt>
      <trkpt lat="46.03531" lon="6.80805">
        <ele>2255.39</ele>
        <time>2017-10-17T10:58:10Z</time>
      </trkpt>
      <trkpt lat="46.03532" lon="6.80807">
        <ele>2255.87</ele>
        <time>2017-10-17T10:58:11Z</time>
      </trkpt>
      <trkpt lat="46.03532" lon="6.80809">
        <ele>2256.35</ele>
        <time>2017-10-17T10:58:12Z</time>
      </trkpt>
      <trkpt lat="46.03533" lon="6.80811">
        <ele>2256.83</ele>
        <time>2017-10-17T10:58:13Z</time>
      </trkpt>
      <trkpt lat="46.03534" lon="6.80813">
        <ele>2256.83</ele>
        <time>2017-10-17T10:58:14Z</time>
      </trkpt>
      <trkpt lat="46.03535" lon="6.80815">
        <ele>2256.83</ele>
        <time>2017-10-17T10:58:15Z</time>
      </trkpt>
      <trkpt lat="46.03535" lon="6.80817">
        <ele>2257.31</ele>
        <time>2017-10-17T10:58:16Z</time>
      </trkpt>
      <trkpt lat="46.03545" lon="6.80835">
        <ele>2259.24</ele>
        <time>2017-10-17T10:58:26Z</time>
      </trkpt>
      <trkpt lat="46.03546" lon="6.80836">
        <ele>2259.24</ele>
        <time>2017-10-17T10:58:27Z</time>
      </trkpt>
      <trkpt lat="46.03546" lon="6.80837">
        <ele>2259.24</ele>
        <time>2017-10-17T10:58:28Z</time>
      </trkpt>
      <trkpt lat="46.03547" lon="6.80838">
        <ele>2260.2</ele>
        <time>2017-10-17T10:58:30Z</time>
      </trkpt>
      <trkpt lat="46.03547" lon="6.80841">
        <ele>2260.68</ele>
        <time>2017-10-17T10:58:32Z</time>
      </trkpt>
      <trkpt lat="46.03547" lon="6.80846">
        <ele>2261.64</ele>
        <time>2017-10-17T10:58:36Z</time>
      </trkpt>
      <trkpt lat="46.03548" lon="6.80847">
        <ele>2262.12</ele>
        <time>2017-10-17T10:58:37Z</time>
      </trkpt>
      <trkpt lat="46.03553" lon="6.80855">
        <ele>2263.56</ele>
        <time>2017-10-17T10:58:45Z</time>
      </trkpt>
      <trkpt lat="46.03555" lon="6.80857">
        <ele>2264.52</ele>
        <time>2017-10-17T10:58:47Z</time>
      </trkpt>
      <trkpt lat="46.03558" lon="6.80862">
        <ele>2267.41</ele>
        <time>2017-10-17T10:59:00Z</time>
      </trkpt>
      <trkpt lat="46.0356" lon="6.8087">
        <ele>2268.37</ele>
        <time>2017-10-17T10:59:07Z</time>
      </trkpt>
      <trkpt lat="46.0356" lon="6.80872">
        <ele>2268.37</ele>
        <time>2017-10-17T10:59:08Z</time>
      </trkpt>
      <trkpt lat="46.03565" lon="6.80879">
        <ele>2270.77</ele>
        <time>2017-10-17T10:59:18Z</time>
      </trkpt>
      <trkpt lat="46.03568" lon="6.80881">
        <ele>2272.21</ele>
        <time>2017-10-17T10:59:22Z</time>
      </trkpt>
      <trkpt lat="46.03573" lon="6.80884">
        <ele>2273.66</ele>
        <time>2017-10-17T10:59:29Z</time>
      </trkpt>
      <trkpt lat="46.03574" lon="6.80884">
        <ele>2273.66</ele>
        <time>2017-10-17T10:59:30Z</time>
      </trkpt>
      <trkpt lat="46.03582" lon="6.80887">
        <ele>2275.58</ele>
        <time>2017-10-17T10:59:42Z</time>
      </trkpt>
      <trkpt lat="46.03583" lon="6.80887">
        <ele>2276.06</ele>
        <time>2017-10-17T10:59:43Z</time>
      </trkpt>
      <trkpt lat="46.03584" lon="6.80887">
        <ele>2276.06</ele>
        <time>2017-10-17T10:59:44Z</time>
      </trkpt>
      <trkpt lat="46.03584" lon="6.80887">
        <ele>2276.54</ele>
        <time>2017-10-17T10:59:45Z</time>
      </trkpt>
      <trkpt lat="46.03585" lon="6.80887">
        <ele>2277.02</ele>
        <time>2017-10-17T10:59:46Z</time>
      </trkpt>
      <trkpt lat="46.03589" lon="6.80885">
        <ele>2277.98</ele>
        <time>2017-10-17T10:59:51Z</time>
      </trkpt>
      <trkpt lat="46.03595" lon="6.80888">
        <ele>2280.87</ele>
        <time>2017-10-17T11:00:02Z</time>
      </trkpt>
      <trkpt lat="46.03593" lon="6.80898">
        <ele>2282.79</ele>
        <time>2017-10-17T11:00:08Z</time>
      </trkpt>
      <trkpt lat="46.03593" lon="6.809">
        <ele>2282.79</ele>
        <time>2017-10-17T11:00:09Z</time>
      </trkpt>
      <trkpt lat="46.03594" lon="6.80901">
        <ele>2283.27</ele>
        <time>2017-10-17T11:00:10Z</time>
      </trkpt>
      <trkpt lat="46.03596" lon="6.80908">
        <ele>2285.19</ele>
        <time>2017-10-17T11:00:18Z</time>
      </trkpt>
      <trkpt lat="46.036" lon="6.80924">
        <ele>2288.08</ele>
        <time>2017-10-17T11:00:31Z</time>
      </trkpt>
      <trkpt lat="46.03601" lon="6.8093">
        <ele>2290</ele>
        <time>2017-10-17T11:00:40Z</time>
      </trkpt>
      <trkpt lat="46.03601" lon="6.80931">
        <ele>2290.48</ele>
        <time>2017-10-17T11:00:41Z</time>
      </trkpt>
      <trkpt lat="46.03606" lon="6.8094">
        <ele>2293.84</ele>
        <time>2017-10-17T11:00:55Z</time>
      </trkpt>
      <trkpt lat="46.03608" lon="6.8094">
        <ele>2293.84</ele>
        <time>2017-10-17T11:00:57Z</time>
      </trkpt>
      <trkpt lat="46.03608" lon="6.80941">
        <ele>2294.32</ele>
        <time>2017-10-17T11:00:58Z</time>
      </trkpt>
      <trkpt lat="46.03617" lon="6.80947">
        <ele>2297.21</ele>
        <time>2017-10-17T11:01:10Z</time>
      </trkpt>
      <trkpt lat="46.03622" lon="6.80961">
        <ele>2300.57</ele>
        <time>2017-10-17T11:01:24Z</time>
      </trkpt>
      <trkpt lat="46.03622" lon="6.80972">
        <ele>2302.49</ele>
        <time>2017-10-17T11:01:32Z</time>
      </trkpt>
      <trkpt lat="46.03623" lon="6.80974">
        <ele>2302.98</ele>
        <time>2017-10-17T11:01:33Z</time>
      </trkpt>
      <trkpt lat="46.03623" lon="6.80976">
        <ele>2302.98</ele>
        <time>2017-10-17T11:01:34Z</time>
      </trkpt>
      <trkpt lat="46.03621" lon="6.80984">
        <ele>2303.46</ele>
        <time>2017-10-17T11:01:39Z</time>
      </trkpt>
      <trkpt lat="46.0362" lon="6.80985">
        <ele>2303.94</ele>
        <time>2017-10-17T11:01:40Z</time>
      </trkpt>
      <trkpt lat="46.03619" lon="6.80987">
        <ele>2303.94</ele>
        <time>2017-10-17T11:01:41Z</time>
      </trkpt>
      <trkpt lat="46.03609" lon="6.81009">
        <ele>2306.34</ele>
        <time>2017-10-17T11:01:55Z</time>
      </trkpt>
      <trkpt lat="46.03608" lon="6.81011">
        <ele>2306.34</ele>
        <time>2017-10-17T11:01:56Z</time>
      </trkpt>
      <trkpt lat="46.03613" lon="6.81015">
        <ele>2309.22</ele>
        <time>2017-10-17T11:02:09Z</time>
      </trkpt>
      <trkpt lat="46.03616" lon="6.81022">
        <ele>2312.11</ele>
        <time>2017-10-17T11:02:24Z</time>
      </trkpt>
      <trkpt lat="46.03617" lon="6.8103">
        <ele>2315.47</ele>
        <time>2017-10-17T11:02:37Z</time>
      </trkpt>
      <trkpt lat="46.03617" lon="6.8103">
        <ele>2315.95</ele>
        <time>2017-10-17T11:02:38Z</time>
      </trkpt>
      <trkpt lat="46.03621" lon="6.81024">
        <ele>2317.4</ele>
        <time>2017-10-17T11:02:46Z</time>
      </trkpt>
      <trkpt lat="46.03621" lon="6.81023">
        <ele>2317.4</ele>
        <time>2017-10-17T11:02:47Z</time>
      </trkpt>
      <trkpt lat="46.03625" lon="6.81025">
        <ele>2320.76</ele>
        <time>2017-10-17T11:03:03Z</time>
      </trkpt>
      <trkpt lat="46.03631" lon="6.81019">
        <ele>2324.12</ele>
        <time>2017-10-17T11:03:18Z</time>
      </trkpt>
      <trkpt lat="46.03633" lon="6.81026">
        <ele>2325.57</ele>
        <time>2017-10-17T11:03:26Z</time>
      </trkpt>
      <trkpt lat="46.03634" lon="6.81027">
        <ele>2326.05</ele>
        <time>2017-10-17T11:03:27Z</time>
      </trkpt>
      <trkpt lat="46.03636" lon="6.8103">
        <ele>2327.97</ele>
        <time>2017-10-17T11:03:35Z</time>
      </trkpt>
      <trkpt lat="46.03636" lon="6.81031">
        <ele>2328.45</ele>
        <time>2017-10-17T11:03:36Z</time>
      </trkpt>
      <trkpt lat="46.03636" lon="6.81033">
        <ele>2328.45</ele>
        <time>2017-10-17T11:03:37Z</time>
      </trkpt>
      <trkpt lat="46.03635" lon="6.81043">
        <ele>2331.81</ele>
        <time>2017-10-17T11:03:50Z</time>
      </trkpt>
      <trkpt lat="46.03636" lon="6.81046">
        <ele>2332.78</ele>
        <time>2017-10-17T11:03:53Z</time>
      </trkpt>
      <trkpt lat="46.03638" lon="6.81054">
        <ele>2335.66</ele>
        <time>2017-10-17T11:04:07Z</time>
      </trkpt>
      <trkpt lat="46.03638" lon="6.81057">
        <ele>2336.14</ele>
        <time>2017-10-17T11:04:10Z</time>
      </trkpt>
      <trkpt lat="46.03638" lon="6.81058">
        <ele>2336.62</ele>
        <time>2017-10-17T11:04:11Z</time>
      </trkpt>
      <trkpt lat="46.0364" lon="6.81071">
        <ele>2339.02</ele>
        <time>2017-10-17T11:04:24Z</time>
      </trkpt>
      <trkpt lat="46.0364" lon="6.81076">
        <ele>2339.51</ele>
        <time>2017-10-17T11:04:28Z</time>
      </trkpt>
      <trkpt lat="46.0364" lon="6.81077">
        <ele>2339.99</ele>
        <time>2017-10-17T11:04:29Z</time>
      </trkpt>
      <trkpt lat="46.03641" lon="6.8108">
        <ele>2340.47</ele>
        <time>2017-10-17T11:04:32Z</time>
      </trkpt>
      <trkpt lat="46.03643" lon="6.8109">
        <ele>2343.83</ele>
        <time>2017-10-17T11:04:44Z</time>
      </trkpt>
      <trkpt lat="46.03647" lon="6.81093">
        <ele>2346.72</ele>
        <time>2017-10-17T11:05:00Z</time>
      </trkpt>
      <trkpt lat="46.03648" lon="6.81098">
        <ele>2348.64</ele>
        <time>2017-10-17T11:05:10Z</time>
      </trkpt>
      <trkpt lat="46.0365" lon="6.81106">
        <ele>2350.56</ele>
        <time>2017-10-17T11:05:21Z</time>
      </trkpt>
      <trkpt lat="46.03653" lon="6.81111">
        <ele>2353.44</ele>
        <time>2017-10-17T11:05:32Z</time>
      </trkpt>
      <trkpt lat="46.03656" lon="6.81119">
        <ele>2356.81</ele>
        <time>2017-10-17T11:05:45Z</time>
      </trkpt>
      <trkpt lat="46.03658" lon="6.81123">
        <ele>2357.77</ele>
        <time>2017-10-17T11:05:50Z</time>
      </trkpt>
      <trkpt lat="46.03658" lon="6.81124">
        <ele>2357.77</ele>
        <time>2017-10-17T11:05:51Z</time>
      </trkpt>
      <trkpt lat="46.03656" lon="6.81134">
        <ele>2361.14</ele>
        <time>2017-10-17T11:06:06Z</time>
      </trkpt>
      <trkpt lat="46.03653" lon="6.81159">
        <ele>2363.54</ele>
        <time>2017-10-17T11:06:24Z</time>
      </trkpt>
      <trkpt lat="46.03654" lon="6.81171">
        <ele>2364.5</ele>
        <time>2017-10-17T11:06:31Z</time>
      </trkpt>
      <trkpt lat="46.03657" lon="6.81186">
        <ele>2367.86</ele>
        <time>2017-10-17T11:06:47Z</time>
      </trkpt>
      <trkpt lat="46.0366" lon="6.81192">
        <ele>2369.31</ele>
        <time>2017-10-17T11:06:54Z</time>
      </trkpt>
      <trkpt lat="46.03666" lon="6.812">
        <ele>2372.67</ele>
        <time>2017-10-17T11:07:05Z</time>
      </trkpt>
      <trkpt lat="46.0367" lon="6.81208">
        <ele>2373.63</ele>
        <time>2017-10-17T11:07:12Z</time>
      </trkpt>
      <trkpt lat="46.03675" lon="6.8121">
        <ele>2375.55</ele>
        <time>2017-10-17T11:07:19Z</time>
      </trkpt>
      <trkpt lat="46.03689" lon="6.81213">
        <ele>2377.96</ele>
        <time>2017-10-17T11:07:34Z</time>
      </trkpt>
      <trkpt lat="46.0369" lon="6.81213">
        <ele>2377.96</ele>
        <time>2017-10-17T11:07:35Z</time>
      </trkpt>
      <trkpt lat="46.03691" lon="6.81214">
        <ele>2378.44</ele>
        <time>2017-10-17T11:07:36Z</time>
      </trkpt>
      <trkpt lat="46.03694" lon="6.81217">
        <ele>2378.92</ele>
        <time>2017-10-17T11:07:40Z</time>
      </trkpt>
      <trkpt lat="46.03695" lon="6.81218">
        <ele>2379.4</ele>
        <time>2017-10-17T11:07:41Z</time>
      </trkpt>
      <trkpt lat="46.03701" lon="6.81226">
        <ele>2381.8</ele>
        <time>2017-10-17T11:07:50Z</time>
      </trkpt>
      <trkpt lat="46.03702" lon="6.81228">
        <ele>2382.28</ele>
        <time>2017-10-17T11:07:52Z</time>
      </trkpt>
      <trkpt lat="46.03703" lon="6.81229">
        <ele>2382.28</ele>
        <time>2017-10-17T11:07:53Z</time>
      </trkpt>
      <trkpt lat="46.03704" lon="6.8123">
        <ele>2382.28</ele>
        <time>2017-10-17T11:07:54Z</time>
      </trkpt>
      <trkpt lat="46.03705" lon="6.81231">
        <ele>2382.76</ele>
        <time>2017-10-17T11:07:56Z</time>
      </trkpt>
      <trkpt lat="46.03706" lon="6.81232">
        <ele>2383.25</ele>
        <time>2017-10-17T11:07:58Z</time>
      </trkpt>
      <trkpt lat="46.03707" lon="6.81233">
        <ele>2384.21</ele>
        <time>2017-10-17T11:07:59Z</time>
      </trkpt>
      <trkpt lat="46.03709" lon="6.81235">
        <ele>2384.69</ele>
        <time>2017-10-17T11:08:02Z</time>
      </trkpt>
      <trkpt lat="46.0371" lon="6.81237">
        <ele>2385.17</ele>
        <time>2017-10-17T11:08:03Z</time>
      </trkpt>
      <trkpt lat="46.0371" lon="6.81238">
        <ele>2385.17</ele>
        <time>2017-10-17T11:08:04Z</time>
      </trkpt>
      <trkpt lat="46.03711" lon="6.8124">
        <ele>2385.65</ele>
        <time>2017-10-17T11:08:06Z</time>
      </trkpt>
      <trkpt lat="46.03711" lon="6.81241">
        <ele>2386.13</ele>
        <time>2017-10-17T11:08:07Z</time>
      </trkpt>
      <trkpt lat="46.03712" lon="6.81243">
        <ele>2386.13</ele>
        <time>2017-10-17T11:08:08Z</time>
      </trkpt>
      <trkpt lat="46.03712" lon="6.81244">
        <ele>2386.61</ele>
        <time>2017-10-17T11:08:09Z</time>
      </trkpt>
      <trkpt lat="46.03715" lon="6.81247">
        <ele>2388.53</ele>
        <time>2017-10-17T11:08:16Z</time>
      </trkpt>
      <trkpt lat="46.03715" lon="6.81246">
        <ele>2388.53</ele>
        <time>2017-10-17T11:08:17Z</time>
      </trkpt>
      <trkpt lat="46.03715" lon="6.81245">
        <ele>2388.53</ele>
        <time>2017-10-17T11:08:18Z</time>
      </trkpt>
      <trkpt lat="46.03716" lon="6.81243">
        <ele>2389.01</ele>
        <time>2017-10-17T11:08:19Z</time>
      </trkpt>
      <trkpt lat="46.03716" lon="6.81241">
        <ele>2389.01</ele>
        <time>2017-10-17T11:08:20Z</time>
      </trkpt>
      <trkpt lat="46.03716" lon="6.8124">
        <ele>2389.01</ele>
        <time>2017-10-17T11:08:21Z</time>
      </trkpt>
      <trkpt lat="46.03718" lon="6.81235">
        <ele>2389.97</ele>
        <time>2017-10-17T11:08:25Z</time>
      </trkpt>
      <trkpt lat="46.03719" lon="6.81237">
        <ele>2390.46</ele>
        <time>2017-10-17T11:08:26Z</time>
      </trkpt>
      <trkpt lat="46.03719" lon="6.81238">
        <ele>2390.94</ele>
        <time>2017-10-17T11:08:27Z</time>
      </trkpt>
      <trkpt lat="46.03723" lon="6.81246">
        <ele>2392.38</ele>
        <time>2017-10-17T11:08:39Z</time>
      </trkpt>
      <trkpt lat="46.03723" lon="6.81245">
        <ele>2392.86</ele>
        <time>2017-10-17T11:08:40Z</time>
      </trkpt>
      <trkpt lat="46.03724" lon="6.81243">
        <ele>2393.34</ele>
        <time>2017-10-17T11:08:42Z</time>
      </trkpt>
      <trkpt lat="46.03725" lon="6.81243">
        <ele>2393.82</ele>
        <time>2017-10-17T11:08:43Z</time>
      </trkpt>
      <trkpt lat="46.03726" lon="6.81245">
        <ele>2393.82</ele>
        <time>2017-10-17T11:08:45Z</time>
      </trkpt>
      <trkpt lat="46.03726" lon="6.81246">
        <ele>2394.3</ele>
        <time>2017-10-17T11:08:46Z</time>
      </trkpt>
      <trkpt lat="46.03726" lon="6.81247">
        <ele>2394.3</ele>
        <time>2017-10-17T11:08:47Z</time>
      </trkpt>
      <trkpt lat="46.03727" lon="6.81248">
        <ele>2394.78</ele>
        <time>2017-10-17T11:08:48Z</time>
      </trkpt>
      <trkpt lat="46.03727" lon="6.81249">
        <ele>2394.78</ele>
        <time>2017-10-17T11:08:49Z</time>
      </trkpt>
      <trkpt lat="46.03746" lon="6.81256">
        <ele>2396.22</ele>
        <time>2017-10-17T11:09:13Z</time>
      </trkpt>
      <trkpt lat="46.03747" lon="6.81256">
        <ele>2396.22</ele>
        <time>2017-10-17T11:09:15Z</time>
      </trkpt>
      <trkpt lat="46.03752" lon="6.81258">
        <ele>2396.22</ele>
        <time>2017-10-17T11:09:22Z</time>
      </trkpt>
      <trkpt lat="46.03753" lon="6.81259">
        <ele>2396.22</ele>
        <time>2017-10-17T11:09:23Z</time>
      </trkpt>
      <trkpt lat="46.03754" lon="6.81261">
        <ele>2395.74</ele>
        <time>2017-10-17T11:09:24Z</time>
      </trkpt>
      <trkpt lat="46.03755" lon="6.81264">
        <ele>2396.22</ele>
        <time>2017-10-17T11:09:25Z</time>
      </trkpt>
      <trkpt lat="46.03755" lon="6.81266">
        <ele>2396.22</ele>
        <time>2017-10-17T11:09:26Z</time>
      </trkpt>
      <trkpt lat="46.03755" lon="6.81269">
        <ele>2396.22</ele>
        <time>2017-10-17T11:09:27Z</time>
      </trkpt>
      <trkpt lat="46.03755" lon="6.81271">
        <ele>2396.7</ele>
        <time>2017-10-17T11:09:28Z</time>
      </trkpt>
      <trkpt lat="46.03755" lon="6.81272">
        <ele>2396.7</ele>
        <time>2017-10-17T11:09:29Z</time>
      </trkpt>
      <trkpt lat="46.03755" lon="6.81274">
        <ele>2396.7</ele>
        <time>2017-10-17T11:09:30Z</time>
      </trkpt>
      <trkpt lat="46.03756" lon="6.81275">
        <ele>2396.7</ele>
        <time>2017-10-17T11:09:31Z</time>
      </trkpt>
      <trkpt lat="46.03757" lon="6.81276">
        <ele>2396.7</ele>
        <time>2017-10-17T11:09:32Z</time>
      </trkpt>
      <trkpt lat="46.03758" lon="6.81278">
        <ele>2397.18</ele>
        <time>2017-10-17T11:09:34Z</time>
      </trkpt>
      <trkpt lat="46.03759" lon="6.81278">
        <ele>2397.18</ele>
        <time>2017-10-17T11:09:35Z</time>
      </trkpt>
      <trkpt lat="46.03759" lon="6.81279">
        <ele>2397.18</ele>
        <time>2017-10-17T11:09:36Z</time>
      </trkpt>
      <trkpt lat="46.03763" lon="6.81291">
        <ele>2394.3</ele>
        <time>2017-10-17T11:10:00Z</time>
      </trkpt>
      <trkpt lat="46.03763" lon="6.81297">
        <ele>2390.94</ele>
        <time>2017-10-17T11:10:12Z</time>
      </trkpt>
      <trkpt lat="46.03762" lon="6.81299">
        <ele>2390.94</ele>
        <time>2017-10-17T11:10:13Z</time>
      </trkpt>
      <trkpt lat="46.03764" lon="6.81306">
        <ele>2388.05</ele>
        <time>2017-10-17T11:10:20Z</time>
      </trkpt>
      <trkpt lat="46.03764" lon="6.81308">
        <ele>2387.57</ele>
        <time>2017-10-17T11:10:21Z</time>
      </trkpt>
      <trkpt lat="46.03764" lon="6.8131">
        <ele>2387.57</ele>
        <time>2017-10-17T11:10:22Z</time>
      </trkpt>
      <trkpt lat="46.03765" lon="6.81312">
        <ele>2387.09</ele>
        <time>2017-10-17T11:10:23Z</time>
      </trkpt>
      <trkpt lat="46.03766" lon="6.81313">
        <ele>2386.61</ele>
        <time>2017-10-17T11:10:24Z</time>
      </trkpt>
      <trkpt lat="46.03766" lon="6.81316">
        <ele>2386.13</ele>
        <time>2017-10-17T11:10:26Z</time>
      </trkpt>
      <trkpt lat="46.03767" lon="6.81318">
        <ele>2385.17</ele>
        <time>2017-10-17T11:10:27Z</time>
      </trkpt>
      <trkpt lat="46.03768" lon="6.81323">
        <ele>2384.21</ele>
        <time>2017-10-17T11:10:30Z</time>
      </trkpt>
      <trkpt lat="46.03771" lon="6.81333">
        <ele>2382.76</ele>
        <time>2017-10-17T11:10:35Z</time>
      </trkpt>
      <trkpt lat="46.03772" lon="6.81335">
        <ele>2383.25</ele>
        <time>2017-10-17T11:10:36Z</time>
      </trkpt>
      <trkpt lat="46.03773" lon="6.81338">
        <ele>2383.25</ele>
        <time>2017-10-17T11:10:37Z</time>
      </trkpt>
      <trkpt lat="46.03784" lon="6.81342">
        <ele>2386.61</ele>
        <time>2017-10-17T11:10:55Z</time>
      </trkpt>
      <trkpt lat="46.03793" lon="6.81347">
        <ele>2387.57</ele>
        <time>2017-10-17T11:11:13Z</time>
      </trkpt>
      <trkpt lat="46.03798" lon="6.81354">
        <ele>2386.13</ele>
        <time>2017-10-17T11:11:19Z</time>
      </trkpt>
      <trkpt lat="46.03802" lon="6.81354">
        <ele>2384.21</ele>
        <time>2017-10-17T11:11:26Z</time>
      </trkpt>
      <trkpt lat="46.03803" lon="6.81355">
        <ele>2383.73</ele>
        <time>2017-10-17T11:11:27Z</time>
      </trkpt>
      <trkpt lat="46.03803" lon="6.81355">
        <ele>2382.76</ele>
        <time>2017-10-17T11:11:28Z</time>
      </trkpt>
      <trkpt lat="46.03804" lon="6.81359">
        <ele>2379.88</ele>
        <time>2017-10-17T11:11:39Z</time>
      </trkpt>
      <trkpt lat="46.03807" lon="6.81364">
        <ele>2378.44</ele>
        <time>2017-10-17T11:11:45Z</time>
      </trkpt>
      <trkpt lat="46.03808" lon="6.81366">
        <ele>2378.44</ele>
        <time>2017-10-17T11:11:46Z</time>
      </trkpt>
      <trkpt lat="46.03808" lon="6.81367">
        <ele>2378.44</ele>
        <time>2017-10-17T11:11:47Z</time>
      </trkpt>
      <trkpt lat="46.03808" lon="6.81369">
        <ele>2378.44</ele>
        <time>2017-10-17T11:11:48Z</time>
      </trkpt>
      <trkpt lat="46.03808" lon="6.81371">
        <ele>2378.44</ele>
        <time>2017-10-17T11:11:49Z</time>
      </trkpt>
      <trkpt lat="46.03808" lon="6.81375">
        <ele>2378.44</ele>
        <time>2017-10-17T11:11:51Z</time>
      </trkpt>
      <trkpt lat="46.03808" lon="6.81376">
        <ele>2378.44</ele>
        <time>2017-10-17T11:11:52Z</time>
      </trkpt>
      <trkpt lat="46.03809" lon="6.81377">
        <ele>2378.44</ele>
        <time>2017-10-17T11:11:53Z</time>
      </trkpt>
      <trkpt lat="46.03814" lon="6.81399">
        <ele>2377.96</ele>
        <time>2017-10-17T11:12:03Z</time>
      </trkpt>
      <trkpt lat="46.03815" lon="6.81401">
        <ele>2377.96</ele>
        <time>2017-10-17T11:12:04Z</time>
      </trkpt>
      <trkpt lat="46.03815" lon="6.81402">
        <ele>2378.44</ele>
        <time>2017-10-17T11:12:05Z</time>
      </trkpt>
      <trkpt lat="46.03816" lon="6.81404">
        <ele>2378.44</ele>
        <time>2017-10-17T11:12:06Z</time>
      </trkpt>
      <trkpt lat="46.03822" lon="6.81407">
        <ele>2381.32</ele>
        <time>2017-10-17T11:12:16Z</time>
      </trkpt>
      <trkpt lat="46.03826" lon="6.81414">
        <ele>2384.21</ele>
        <time>2017-10-17T11:12:26Z</time>
      </trkpt>
      <trkpt lat="46.03825" lon="6.81445">
        <ele>2386.61</ele>
        <time>2017-10-17T11:12:47Z</time>
      </trkpt>
      <trkpt lat="46.03826" lon="6.81447">
        <ele>2386.61</ele>
        <time>2017-10-17T11:12:48Z</time>
      </trkpt>
      <trkpt lat="46.03826" lon="6.8145">
        <ele>2386.61</ele>
        <time>2017-10-17T11:12:49Z</time>
      </trkpt>
      <trkpt lat="46.03827" lon="6.81452">
        <ele>2386.61</ele>
        <time>2017-10-17T11:12:50Z</time>
      </trkpt>
      <trkpt lat="46.03828" lon="6.81454">
        <ele>2387.09</ele>
        <time>2017-10-17T11:12:51Z</time>
      </trkpt>
      <trkpt lat="46.03828" lon="6.81455">
        <ele>2387.57</ele>
        <time>2017-10-17T11:12:52Z</time>
      </trkpt>
      <trkpt lat="46.0383" lon="6.81457">
        <ele>2387.57</ele>
        <time>2017-10-17T11:12:54Z</time>
      </trkpt>
      <trkpt lat="46.03831" lon="6.81458">
        <ele>2388.05</ele>
        <time>2017-10-17T11:12:55Z</time>
      </trkpt>
      <trkpt lat="46.03839" lon="6.81465">
        <ele>2390.94</ele>
        <time>2017-10-17T11:13:07Z</time>
      </trkpt>
      <trkpt lat="46.03841" lon="6.81472">
        <ele>2393.34</ele>
        <time>2017-10-17T11:13:15Z</time>
      </trkpt>
      <trkpt lat="46.03845" lon="6.81484">
        <ele>2394.78</ele>
        <time>2017-10-17T11:13:25Z</time>
      </trkpt>
      <trkpt lat="46.03846" lon="6.81486">
        <ele>2394.78</ele>
        <time>2017-10-17T11:13:27Z</time>
      </trkpt>
      <trkpt lat="46.03847" lon="6.81487">
        <ele>2394.78</ele>
        <time>2017-10-17T11:13:28Z</time>
      </trkpt>
      <trkpt lat="46.03848" lon="6.81488">
        <ele>2394.78</ele>
        <time>2017-10-17T11:13:29Z</time>
      </trkpt>
      <trkpt lat="46.03849" lon="6.81489">
        <ele>2394.78</ele>
        <time>2017-10-17T11:13:30Z</time>
      </trkpt>
      <trkpt lat="46.0385" lon="6.81491">
        <ele>2394.78</ele>
        <time>2017-10-17T11:13:31Z</time>
      </trkpt>
      <trkpt lat="46.03866" lon="6.81507">
        <ele>2391.9</ele>
        <time>2017-10-17T11:13:46Z</time>
      </trkpt>
      <trkpt lat="46.03871" lon="6.81514">
        <ele>2391.42</ele>
        <time>2017-10-17T11:13:52Z</time>
      </trkpt>
      <trkpt lat="46.03872" lon="6.8152">
        <ele>2388.53</ele>
        <time>2017-10-17T11:14:00Z</time>
      </trkpt>
      <trkpt lat="46.03873" lon="6.81527">
        <ele>2386.61</ele>
        <time>2017-10-17T11:14:04Z</time>
      </trkpt>
      <trkpt lat="46.03873" lon="6.81528">
        <ele>2386.13</ele>
        <time>2017-10-17T11:14:05Z</time>
      </trkpt>
      <trkpt lat="46.03874" lon="6.8153">
        <ele>2386.13</ele>
        <time>2017-10-17T11:14:06Z</time>
      </trkpt>
      <trkpt lat="46.03874" lon="6.81531">
        <ele>2385.65</ele>
        <time>2017-10-17T11:14:07Z</time>
      </trkpt>
      <trkpt lat="46.03875" lon="6.81534">
        <ele>2385.17</ele>
        <time>2017-10-17T11:14:09Z</time>
      </trkpt>
      <trkpt lat="46.03877" lon="6.81535">
        <ele>2385.17</ele>
        <time>2017-10-17T11:14:10Z</time>
      </trkpt>
      <trkpt lat="46.03877" lon="6.81536">
        <ele>2384.69</ele>
        <time>2017-10-17T11:14:11Z</time>
      </trkpt>
      <trkpt lat="46.03877" lon="6.81537">
        <ele>2384.69</ele>
        <time>2017-10-17T11:14:12Z</time>
      </trkpt>
      <trkpt lat="46.03877" lon="6.81543">
        <ele>2382.76</ele>
        <time>2017-10-17T11:14:21Z</time>
      </trkpt>
      <trkpt lat="46.03876" lon="6.81544">
        <ele>2382.28</ele>
        <time>2017-10-17T11:14:22Z</time>
      </trkpt>
      <trkpt lat="46.03875" lon="6.81543">
        <ele>2381.8</ele>
        <time>2017-10-17T11:14:23Z</time>
      </trkpt>
      <trkpt lat="46.03873" lon="6.81544">
        <ele>2380.36</ele>
        <time>2017-10-17T11:14:26Z</time>
      </trkpt>
      <trkpt lat="46.03873" lon="6.81546">
        <ele>2379.88</ele>
        <time>2017-10-17T11:14:27Z</time>
      </trkpt>
      <trkpt lat="46.03873" lon="6.81549">
        <ele>2379.4</ele>
        <time>2017-10-17T11:14:28Z</time>
      </trkpt>
      <trkpt lat="46.03875" lon="6.81561">
        <ele>2377.48</ele>
        <time>2017-10-17T11:14:32Z</time>
      </trkpt>
      <trkpt lat="46.03879" lon="6.81576">
        <ele>2377.48</ele>
        <time>2017-10-17T11:14:39Z</time>
      </trkpt>
      <trkpt lat="46.03882" lon="6.81579">
        <ele>2378.92</ele>
        <time>2017-10-17T11:14:43Z</time>
      </trkpt>
      <trkpt lat="46.03883" lon="6.8158">
        <ele>2378.92</ele>
        <time>2017-10-17T11:14:44Z</time>
      </trkpt>
      <trkpt lat="46.03891" lon="6.8158">
        <ele>2380.84</ele>
        <time>2017-10-17T11:14:52Z</time>
      </trkpt>
      <trkpt lat="46.03892" lon="6.8158">
        <ele>2381.32</ele>
        <time>2017-10-17T11:14:53Z</time>
      </trkpt>
      <trkpt lat="46.03893" lon="6.8158">
        <ele>2381.32</ele>
        <time>2017-10-17T11:14:54Z</time>
      </trkpt>
      <trkpt lat="46.03893" lon="6.81581">
        <ele>2381.8</ele>
        <time>2017-10-17T11:14:55Z</time>
      </trkpt>
      <trkpt lat="46.03894" lon="6.81581">
        <ele>2381.8</ele>
        <time>2017-10-17T11:14:56Z</time>
      </trkpt>
      <trkpt lat="46.03895" lon="6.81582">
        <ele>2381.8</ele>
        <time>2017-10-17T11:14:57Z</time>
      </trkpt>
      <trkpt lat="46.03898" lon="6.81583">
        <ele>2382.76</ele>
        <time>2017-10-17T11:15:00Z</time>
      </trkpt>
      <trkpt lat="46.03898" lon="6.81586">
        <ele>2383.25</ele>
        <time>2017-10-17T11:15:02Z</time>
      </trkpt>
      <trkpt lat="46.03899" lon="6.81588">
        <ele>2384.21</ele>
        <time>2017-10-17T11:15:04Z</time>
      </trkpt>
      <trkpt lat="46.039" lon="6.8159">
        <ele>2384.21</ele>
        <time>2017-10-17T11:15:05Z</time>
      </trkpt>
      <trkpt lat="46.039" lon="6.81591">
        <ele>2384.69</ele>
        <time>2017-10-17T11:15:06Z</time>
      </trkpt>
      <trkpt lat="46.03912" lon="6.81616">
        <ele>2384.21</ele>
        <time>2017-10-17T11:15:20Z</time>
      </trkpt>
      <trkpt lat="46.03923" lon="6.81641">
        <ele>2385.17</ele>
        <time>2017-10-17T11:15:32Z</time>
      </trkpt>
      <trkpt lat="46.03923" lon="6.81646">
        <ele>2386.61</ele>
        <time>2017-10-17T11:15:35Z</time>
      </trkpt>
      <trkpt lat="46.03923" lon="6.81649">
        <ele>2387.09</ele>
        <time>2017-10-17T11:15:38Z</time>
      </trkpt>
      <trkpt lat="46.03924" lon="6.81653">
        <ele>2387.09</ele>
        <time>2017-10-17T11:15:42Z</time>
      </trkpt>
      <trkpt lat="46.03931" lon="6.81665">
        <ele>2385.65</ele>
        <time>2017-10-17T11:15:49Z</time>
      </trkpt>
      <trkpt lat="46.03932" lon="6.81666">
        <ele>2385.65</ele>
        <time>2017-10-17T11:15:50Z</time>
      </trkpt>
      <trkpt lat="46.03935" lon="6.81668">
        <ele>2385.17</ele>
        <time>2017-10-17T11:15:54Z</time>
      </trkpt>
      <trkpt lat="46.03935" lon="6.8167">
        <ele>2385.17</ele>
        <time>2017-10-17T11:15:55Z</time>
      </trkpt>
      <trkpt lat="46.03935" lon="6.81672">
        <ele>2385.65</ele>
        <time>2017-10-17T11:15:56Z</time>
      </trkpt>
      <trkpt lat="46.03935" lon="6.81674">
        <ele>2385.65</ele>
        <time>2017-10-17T11:15:57Z</time>
      </trkpt>
      <trkpt lat="46.03936" lon="6.81676">
        <ele>2385.65</ele>
        <time>2017-10-17T11:15:58Z</time>
      </trkpt>
      <trkpt lat="46.03937" lon="6.81678">
        <ele>2385.65</ele>
        <time>2017-10-17T11:15:59Z</time>
      </trkpt>
      <trkpt lat="46.03938" lon="6.8168">
        <ele>2385.17</ele>
        <time>2017-10-17T11:16:00Z</time>
      </trkpt>
      <trkpt lat="46.03939" lon="6.81681">
        <ele>2385.17</ele>
        <time>2017-10-17T11:16:01Z</time>
      </trkpt>
      <trkpt lat="46.0394" lon="6.81682">
        <ele>2385.17</ele>
        <time>2017-10-17T11:16:02Z</time>
      </trkpt>
      <trkpt lat="46.03942" lon="6.81681">
        <ele>2385.17</ele>
        <time>2017-10-17T11:16:03Z</time>
      </trkpt>
      <trkpt lat="46.03943" lon="6.81681">
        <ele>2385.17</ele>
        <time>2017-10-17T11:16:04Z</time>
      </trkpt>
      <trkpt lat="46.03945" lon="6.8168">
        <ele>2385.17</ele>
        <time>2017-10-17T11:16:05Z</time>
      </trkpt>
      <trkpt lat="46.03951" lon="6.81679">
        <ele>2386.13</ele>
        <time>2017-10-17T11:16:08Z</time>
      </trkpt>
      <trkpt lat="46.03964" lon="6.81681">
        <ele>2389.49</ele>
        <time>2017-10-17T11:16:23Z</time>
      </trkpt>
      <trkpt lat="46.03967" lon="6.8168">
        <ele>2389.97</ele>
        <time>2017-10-17T11:16:26Z</time>
      </trkpt>
      <trkpt lat="46.03968" lon="6.81679">
        <ele>2390.46</ele>
        <time>2017-10-17T11:16:27Z</time>
      </trkpt>
      <trkpt lat="46.03969" lon="6.81679">
        <ele>2390.46</ele>
        <time>2017-10-17T11:16:28Z</time>
      </trkpt>
      <trkpt lat="46.0397" lon="6.81678">
        <ele>2390.94</ele>
        <time>2017-10-17T11:16:29Z</time>
      </trkpt>
      <trkpt lat="46.03973" lon="6.81676">
        <ele>2391.42</ele>
        <time>2017-10-17T11:16:32Z</time>
      </trkpt>
      <trkpt lat="46.03974" lon="6.81676">
        <ele>2391.9</ele>
        <time>2017-10-17T11:16:33Z</time>
      </trkpt>
      <trkpt lat="46.03975" lon="6.81676">
        <ele>2391.9</ele>
        <time>2017-10-17T11:16:34Z</time>
      </trkpt>
      <trkpt lat="46.03976" lon="6.81677">
        <ele>2392.38</ele>
        <time>2017-10-17T11:16:35Z</time>
      </trkpt>
      <trkpt lat="46.03977" lon="6.81679">
        <ele>2392.38</ele>
        <time>2017-10-17T11:16:37Z</time>
      </trkpt>
      <trkpt lat="46.03979" lon="6.81683">
        <ele>2393.34</ele>
        <time>2017-10-17T11:16:41Z</time>
      </trkpt>
      <trkpt lat="46.0398" lon="6.81684">
        <ele>2393.82</ele>
        <time>2017-10-17T11:16:42Z</time>
      </trkpt>
      <trkpt lat="46.0398" lon="6.81685">
        <ele>2393.82</ele>
        <time>2017-10-17T11:16:43Z</time>
      </trkpt>
      <trkpt lat="46.03981" lon="6.81686">
        <ele>2394.3</ele>
        <time>2017-10-17T11:16:44Z</time>
      </trkpt>
      <trkpt lat="46.03981" lon="6.81687">
        <ele>2394.3</ele>
        <time>2017-10-17T11:16:45Z</time>
      </trkpt>
      <trkpt lat="46.03987" lon="6.81707">
        <ele>2396.7</ele>
        <time>2017-10-17T11:16:58Z</time>
      </trkpt>
      <trkpt lat="46.03988" lon="6.81708">
        <ele>2396.7</ele>
        <time>2017-10-17T11:16:59Z</time>
      </trkpt>
      <trkpt lat="46.03989" lon="6.81709">
        <ele>2397.18</ele>
        <time>2017-10-17T11:17:00Z</time>
      </trkpt>
      <trkpt lat="46.03989" lon="6.81711">
        <ele>2397.18</ele>
        <time>2017-10-17T11:17:01Z</time>
      </trkpt>
      <trkpt lat="46.0399" lon="6.81713">
        <ele>2397.18</ele>
        <time>2017-10-17T11:17:02Z</time>
      </trkpt>
      <trkpt lat="46.0399" lon="6.81714">
        <ele>2397.18</ele>
        <time>2017-10-17T11:17:03Z</time>
      </trkpt>
      <trkpt lat="46.03991" lon="6.81716">
        <ele>2397.18</ele>
        <time>2017-10-17T11:17:04Z</time>
      </trkpt>
      <trkpt lat="46.03995" lon="6.81723">
        <ele>2398.15</ele>
        <time>2017-10-17T11:17:09Z</time>
      </trkpt>
      <trkpt lat="46.03995" lon="6.81725">
        <ele>2398.15</ele>
        <time>2017-10-17T11:17:10Z</time>
      </trkpt>
      <trkpt lat="46.03995" lon="6.81726">
        <ele>2398.63</ele>
        <time>2017-10-17T11:17:11Z</time>
      </trkpt>
      <trkpt lat="46.03995" lon="6.81728">
        <ele>2398.63</ele>
        <time>2017-10-17T11:17:12Z</time>
      </trkpt>
      <trkpt lat="46.03995" lon="6.81729">
        <ele>2399.11</ele>
        <time>2017-10-17T11:17:13Z</time>
      </trkpt>
      <trkpt lat="46.03999" lon="6.81752">
        <ele>2401.99</ele>
        <time>2017-10-17T11:17:28Z</time>
      </trkpt>
      <trkpt lat="46.03999" lon="6.81756">
        <ele>2403.43</ele>
        <time>2017-10-17T11:17:33Z</time>
      </trkpt>
      <trkpt lat="46.03999" lon="6.81759">
        <ele>2403.91</ele>
        <time>2017-10-17T11:17:35Z</time>
      </trkpt>
      <trkpt lat="46.04001" lon="6.81761">
        <ele>2404.39</ele>
        <time>2017-10-17T11:17:38Z</time>
      </trkpt>
      <trkpt lat="46.04001" lon="6.81762">
        <ele>2404.88</ele>
        <time>2017-10-17T11:17:39Z</time>
      </trkpt>
      <trkpt lat="46.04002" lon="6.81764">
        <ele>2404.88</ele>
        <time>2017-10-17T11:17:40Z</time>
      </trkpt>
      <trkpt lat="46.04001" lon="6.81765">
        <ele>2404.88</ele>
        <time>2017-10-17T11:17:41Z</time>
      </trkpt>
      <trkpt lat="46.04003" lon="6.81778">
        <ele>2408.24</ele>
        <time>2017-10-17T11:17:52Z</time>
      </trkpt>
      <trkpt lat="46.04009" lon="6.81795">
        <ele>2409.68</ele>
        <time>2017-10-17T11:18:05Z</time>
      </trkpt>
      <trkpt lat="46.04009" lon="6.81796">
        <ele>2410.16</ele>
        <time>2017-10-17T11:18:06Z</time>
      </trkpt>
      <trkpt lat="46.04009" lon="6.81797">
        <ele>2410.16</ele>
        <time>2017-10-17T11:18:07Z</time>
      </trkpt>
      <trkpt lat="46.04013" lon="6.81819">
        <ele>2413.53</ele>
        <time>2017-10-17T11:18:22Z</time>
      </trkpt>
      <trkpt lat="46.04014" lon="6.81822">
        <ele>2414.01</ele>
        <time>2017-10-17T11:18:24Z</time>
      </trkpt>
      <trkpt lat="46.04014" lon="6.81825">
        <ele>2414.01</ele>
        <time>2017-10-17T11:18:25Z</time>
      </trkpt>
      <trkpt lat="46.04015" lon="6.81827">
        <ele>2414.01</ele>
        <time>2017-10-17T11:18:26Z</time>
      </trkpt>
      <trkpt lat="46.04016" lon="6.81829">
        <ele>2414.01</ele>
        <time>2017-10-17T11:18:27Z</time>
      </trkpt>
      <trkpt lat="46.04016" lon="6.81831">
        <ele>2414.01</ele>
        <time>2017-10-17T11:18:28Z</time>
      </trkpt>
      <trkpt lat="46.04016" lon="6.81833">
        <ele>2414.97</ele>
        <time>2017-10-17T11:18:29Z</time>
      </trkpt>
      <trkpt lat="46.04016" lon="6.81835">
        <ele>2414.97</ele>
        <time>2017-10-17T11:18:30Z</time>
      </trkpt>
      <trkpt lat="46.04017" lon="6.81838">
        <ele>2415.45</ele>
        <time>2017-10-17T11:18:31Z</time>
      </trkpt>
      <trkpt lat="46.04018" lon="6.81839">
        <ele>2415.93</ele>
        <time>2017-10-17T11:18:32Z</time>
      </trkpt>
      <trkpt lat="46.04018" lon="6.81841">
        <ele>2415.93</ele>
        <time>2017-10-17T11:18:33Z</time>
      </trkpt>
      <trkpt lat="46.04019" lon="6.81842">
        <ele>2415.93</ele>
        <time>2017-10-17T11:18:34Z</time>
      </trkpt>
      <trkpt lat="46.04026" lon="6.81861">
        <ele>2419.3</ele>
        <time>2017-10-17T11:18:44Z</time>
      </trkpt>
      <trkpt lat="46.04027" lon="6.81866">
        <ele>2419.78</ele>
        <time>2017-10-17T11:18:46Z</time>
      </trkpt>
      <trkpt lat="46.04031" lon="6.81894">
        <ele>2420.74</ele>
        <time>2017-10-17T11:19:00Z</time>
      </trkpt>
      <trkpt lat="46.04032" lon="6.81898">
        <ele>2420.74</ele>
        <time>2017-10-17T11:19:02Z</time>
      </trkpt>
      <trkpt lat="46.04032" lon="6.81899">
        <ele>2421.22</ele>
        <time>2017-10-17T11:19:03Z</time>
      </trkpt>
      <trkpt lat="46.04042" lon="6.81919">
        <ele>2424.1</ele>
        <time>2017-10-17T11:19:19Z</time>
      </trkpt>
      <trkpt lat="46.04044" lon="6.81926">
        <ele>2424.58</ele>
        <time>2017-10-17T11:19:24Z</time>
      </trkpt>
      <trkpt lat="46.04045" lon="6.81927">
        <ele>2425.06</ele>
        <time>2017-10-17T11:19:25Z</time>
      </trkpt>
      <trkpt lat="46.04045" lon="6.81929">
        <ele>2425.54</ele>
        <time>2017-10-17T11:19:26Z</time>
      </trkpt>
      <trkpt lat="46.04045" lon="6.8193">
        <ele>2426.02</ele>
        <time>2017-10-17T11:19:27Z</time>
      </trkpt>
      <trkpt lat="46.04047" lon="6.81941">
        <ele>2427.47</ele>
        <time>2017-10-17T11:19:35Z</time>
      </trkpt>
      <trkpt lat="46.04048" lon="6.81942">
        <ele>2427.95</ele>
        <time>2017-10-17T11:19:36Z</time>
      </trkpt>
      <trkpt lat="46.04049" lon="6.81944">
        <ele>2427.95</ele>
        <time>2017-10-17T11:19:37Z</time>
      </trkpt>
      <trkpt lat="46.04055" lon="6.81963">
        <ele>2431.31</ele>
        <time>2017-10-17T11:19:51Z</time>
      </trkpt>
      <trkpt lat="46.04058" lon="6.81971">
        <ele>2432.27</ele>
        <time>2017-10-17T11:19:58Z</time>
      </trkpt>
      <trkpt lat="46.04061" lon="6.8198">
        <ele>2435.16</ele>
        <time>2017-10-17T11:20:10Z</time>
      </trkpt>
      <trkpt lat="46.04061" lon="6.81982">
        <ele>2435.16</ele>
        <time>2017-10-17T11:20:11Z</time>
      </trkpt>
      <trkpt lat="46.04064" lon="6.81999">
        <ele>2438.52</ele>
        <time>2017-10-17T11:20:28Z</time>
      </trkpt>
      <trkpt lat="46.04065" lon="6.82009">
        <ele>2439.96</ele>
        <time>2017-10-17T11:20:36Z</time>
      </trkpt>
      <trkpt lat="46.04065" lon="6.8201">
        <ele>2440.44</ele>
        <time>2017-10-17T11:20:37Z</time>
      </trkpt>
      <trkpt lat="46.04065" lon="6.82012">
        <ele>2440.44</ele>
        <time>2017-10-17T11:20:38Z</time>
      </trkpt>
      <trkpt lat="46.04065" lon="6.82013">
        <ele>2440.44</ele>
        <time>2017-10-17T11:20:39Z</time>
      </trkpt>
      <trkpt lat="46.04068" lon="6.82023">
        <ele>2442.37</ele>
        <time>2017-10-17T11:20:48Z</time>
      </trkpt>
      <trkpt lat="46.04071" lon="6.82025">
        <ele>2443.33</ele>
        <time>2017-10-17T11:20:53Z</time>
      </trkpt>
      <trkpt lat="46.04071" lon="6.82026">
        <ele>2443.81</ele>
        <time>2017-10-17T11:20:54Z</time>
      </trkpt>
      <trkpt lat="46.04072" lon="6.82028">
        <ele>2443.81</ele>
        <time>2017-10-17T11:20:55Z</time>
      </trkpt>
      <trkpt lat="46.04075" lon="6.82042">
        <ele>2446.21</ele>
        <time>2017-10-17T11:21:07Z</time>
      </trkpt>
      <trkpt lat="46.04075" lon="6.82043">
        <ele>2446.69</ele>
        <time>2017-10-17T11:21:08Z</time>
      </trkpt>
      <trkpt lat="46.04076" lon="6.82044">
        <ele>2446.69</ele>
        <time>2017-10-17T11:21:09Z</time>
      </trkpt>
      <trkpt lat="46.04076" lon="6.82045">
        <ele>2447.17</ele>
        <time>2017-10-17T11:21:10Z</time>
      </trkpt>
      <trkpt lat="46.04077" lon="6.82053">
        <ele>2448.62</ele>
        <time>2017-10-17T11:21:18Z</time>
      </trkpt>
      <trkpt lat="46.04077" lon="6.82054">
        <ele>2448.62</ele>
        <time>2017-10-17T11:21:19Z</time>
      </trkpt>
      <trkpt lat="46.04077" lon="6.82058">
        <ele>2448.62</ele>
        <time>2017-10-17T11:21:22Z</time>
      </trkpt>
      <trkpt lat="46.04077" lon="6.8206">
        <ele>2448.62</ele>
        <time>2017-10-17T11:21:23Z</time>
      </trkpt>
      <trkpt lat="46.04078" lon="6.82061">
        <ele>2448.62</ele>
        <time>2017-10-17T11:21:24Z</time>
      </trkpt>
      <trkpt lat="46.04078" lon="6.82063">
        <ele>2449.1</ele>
        <time>2017-10-17T11:21:25Z</time>
      </trkpt>
      <trkpt lat="46.04079" lon="6.82065">
        <ele>2449.1</ele>
        <time>2017-10-17T11:21:26Z</time>
      </trkpt>
      <trkpt lat="46.04079" lon="6.82067">
        <ele>2449.1</ele>
        <time>2017-10-17T11:21:28Z</time>
      </trkpt>
      <trkpt lat="46.04079" lon="6.82069">
        <ele>2448.62</ele>
        <time>2017-10-17T11:21:29Z</time>
      </trkpt>
      <trkpt lat="46.0408" lon="6.82072">
        <ele>2448.62</ele>
        <time>2017-10-17T11:21:30Z</time>
      </trkpt>
      <trkpt lat="46.0408" lon="6.82074">
        <ele>2448.62</ele>
        <time>2017-10-17T11:21:31Z</time>
      </trkpt>
      <trkpt lat="46.0408" lon="6.82077">
        <ele>2448.62</ele>
        <time>2017-10-17T11:21:32Z</time>
      </trkpt>
      <trkpt lat="46.04079" lon="6.82079">
        <ele>2448.62</ele>
        <time>2017-10-17T11:21:33Z</time>
      </trkpt>
      <trkpt lat="46.04079" lon="6.82081">
        <ele>2448.62</ele>
        <time>2017-10-17T11:21:34Z</time>
      </trkpt>
      <trkpt lat="46.04079" lon="6.82083">
        <ele>2448.62</ele>
        <time>2017-10-17T11:21:35Z</time>
      </trkpt>
      <trkpt lat="46.04079" lon="6.82085">
        <ele>2448.62</ele>
        <time>2017-10-17T11:21:36Z</time>
      </trkpt>
      <trkpt lat="46.04078" lon="6.82087">
        <ele>2448.62</ele>
        <time>2017-10-17T11:21:37Z</time>
      </trkpt>
      <trkpt lat="46.04078" lon="6.8209">
        <ele>2448.62</ele>
        <time>2017-10-17T11:21:38Z</time>
      </trkpt>
      <trkpt lat="46.04078" lon="6.82093">
        <ele>2448.62</ele>
        <time>2017-10-17T11:21:39Z</time>
      </trkpt>
      <trkpt lat="46.04078" lon="6.82095">
        <ele>2448.62</ele>
        <time>2017-10-17T11:21:40Z</time>
      </trkpt>
      <trkpt lat="46.04078" lon="6.82098">
        <ele>2448.62</ele>
        <time>2017-10-17T11:21:41Z</time>
      </trkpt>
      <trkpt lat="46.04079" lon="6.82126">
        <ele>2448.13</ele>
        <time>2017-10-17T11:21:53Z</time>
      </trkpt>
      <trkpt lat="46.04078" lon="6.82136">
        <ele>2451.02</ele>
        <time>2017-10-17T11:22:05Z</time>
      </trkpt>
      <trkpt lat="46.04074" lon="6.82139">
        <ele>2452.46</ele>
        <time>2017-10-17T11:22:12Z</time>
      </trkpt>
      <trkpt lat="46.04074" lon="6.8214">
        <ele>2452.46</ele>
        <time>2017-10-17T11:22:13Z</time>
      </trkpt>
      <trkpt lat="46.04073" lon="6.82141">
        <ele>2452.94</ele>
        <time>2017-10-17T11:22:14Z</time>
      </trkpt>
      <trkpt lat="46.04072" lon="6.82142">
        <ele>2452.94</ele>
        <time>2017-10-17T11:22:15Z</time>
      </trkpt>
      <trkpt lat="46.0407" lon="6.82144">
        <ele>2452.46</ele>
        <time>2017-10-17T11:22:18Z</time>
      </trkpt>
      <trkpt lat="46.04069" lon="6.82148">
        <ele>2451.02</ele>
        <time>2017-10-17T11:22:22Z</time>
      </trkpt>
      <trkpt lat="46.04072" lon="6.82154">
        <ele>2450.54</ele>
        <time>2017-10-17T11:23:20Z</time>
      </trkpt>
      <trkpt lat="46.0407" lon="6.82152">
        <ele>2450.06</ele>
        <time>2017-10-17T11:23:40Z</time>
      </trkpt>
      <trkpt lat="46.0407" lon="6.82151">
        <ele>2449.58</ele>
        <time>2017-10-17T11:24:00Z</time>
      </trkpt>
      <trkpt lat="46.04071" lon="6.82151">
        <ele>2449.58</ele>
        <time>2017-10-17T11:24:24Z</time>
      </trkpt>
      <trkpt lat="46.04069" lon="6.82152">
        <ele>2449.58</ele>
        <time>2017-10-17T11:25:46Z</time>
      </trkpt>
      <trkpt lat="46.04068" lon="6.82152">
        <ele>2446.21</ele>
        <time>2017-10-17T11:25:50Z</time>
      </trkpt>
      <trkpt lat="46.04068" lon="6.82152">
        <ele>2447.17</ele>
        <time>2017-10-17T11:25:51Z</time>
      </trkpt>
      <trkpt lat="46.04068" lon="6.82151">
        <ele>2450.06</ele>
        <time>2017-10-17T11:25:56Z</time>
      </trkpt>
      <trkpt lat="46.04069" lon="6.82151">
        <ele>2449.58</ele>
        <time>2017-10-17T11:26:19Z</time>
      </trkpt>
      <trkpt lat="46.04069" lon="6.82151">
        <ele>2449.58</ele>
        <time>2017-10-17T11:26:49Z</time>
      </trkpt>
      <trkpt lat="46.04069" lon="6.82152">
        <ele>2447.17</ele>
        <time>2017-10-17T11:27:18Z</time>
      </trkpt>
      <trkpt lat="46.0407" lon="6.82153">
        <ele>2450.06</ele>
        <time>2017-10-17T11:29:12Z</time>
      </trkpt>
      <trkpt lat="46.04071" lon="6.82158">
        <ele>2451.02</ele>
        <time>2017-10-17T11:29:59Z</time>
      </trkpt>
      <trkpt lat="46.04073" lon="6.82162">
        <ele>2451.98</ele>
        <time>2017-10-17T11:30:02Z</time>
      </trkpt>
      <trkpt lat="46.04073" lon="6.82164">
        <ele>2451.98</ele>
        <time>2017-10-17T11:30:04Z</time>
      </trkpt>
      <trkpt lat="46.04074" lon="6.82165">
        <ele>2451.98</ele>
        <time>2017-10-17T11:30:05Z</time>
      </trkpt>
      <trkpt lat="46.04075" lon="6.82168">
        <ele>2451.98</ele>
        <time>2017-10-17T11:30:07Z</time>
      </trkpt>
      <trkpt lat="46.04075" lon="6.8217">
        <ele>2452.46</ele>
        <time>2017-10-17T11:30:08Z</time>
      </trkpt>
      <trkpt lat="46.04076" lon="6.82171">
        <ele>2451.98</ele>
        <time>2017-10-17T11:30:09Z</time>
      </trkpt>
      <trkpt lat="46.04076" lon="6.82173">
        <ele>2451.98</ele>
        <time>2017-10-17T11:30:10Z</time>
      </trkpt>
      <trkpt lat="46.04077" lon="6.82176">
        <ele>2451.98</ele>
        <time>2017-10-17T11:30:11Z</time>
      </trkpt>
      <trkpt lat="46.04079" lon="6.82205">
        <ele>2451.98</ele>
        <time>2017-10-17T11:30:23Z</time>
      </trkpt>
      <trkpt lat="46.0408" lon="6.8221">
        <ele>2453.42</ele>
        <time>2017-10-17T11:30:26Z</time>
      </trkpt>
      <trkpt lat="46.04081" lon="6.82215">
        <ele>2455.82</ele>
        <time>2017-10-17T11:30:32Z</time>
      </trkpt>
      <trkpt lat="46.04082" lon="6.82216">
        <ele>2455.82</ele>
        <time>2017-10-17T11:30:33Z</time>
      </trkpt>
      <trkpt lat="46.04082" lon="6.82218">
        <ele>2455.82</ele>
        <time>2017-10-17T11:30:34Z</time>
      </trkpt>
      <trkpt lat="46.04082" lon="6.8222">
        <ele>2455.82</ele>
        <time>2017-10-17T11:30:35Z</time>
      </trkpt>
      <trkpt lat="46.04083" lon="6.82222">
        <ele>2455.82</ele>
        <time>2017-10-17T11:30:36Z</time>
      </trkpt>
      <trkpt lat="46.04084" lon="6.82224">
        <ele>2456.31</ele>
        <time>2017-10-17T11:30:37Z</time>
      </trkpt>
      <trkpt lat="46.04084" lon="6.82227">
        <ele>2456.79</ele>
        <time>2017-10-17T11:30:38Z</time>
      </trkpt>
      <trkpt lat="46.04085" lon="6.82229">
        <ele>2456.31</ele>
        <time>2017-10-17T11:30:39Z</time>
      </trkpt>
      <trkpt lat="46.04085" lon="6.82231">
        <ele>2456.79</ele>
        <time>2017-10-17T11:30:40Z</time>
      </trkpt>
      <trkpt lat="46.04086" lon="6.82233">
        <ele>2456.79</ele>
        <time>2017-10-17T11:30:41Z</time>
      </trkpt>
      <trkpt lat="46.04086" lon="6.82235">
        <ele>2456.79</ele>
        <time>2017-10-17T11:30:42Z</time>
      </trkpt>
      <trkpt lat="46.04087" lon="6.82237">
        <ele>2456.79</ele>
        <time>2017-10-17T11:30:43Z</time>
      </trkpt>
      <trkpt lat="46.04088" lon="6.82239">
        <ele>2456.79</ele>
        <time>2017-10-17T11:30:44Z</time>
      </trkpt>
      <trkpt lat="46.04089" lon="6.82241">
        <ele>2456.79</ele>
        <time>2017-10-17T11:30:45Z</time>
      </trkpt>
      <trkpt lat="46.0409" lon="6.82243">
        <ele>2456.79</ele>
        <time>2017-10-17T11:30:46Z</time>
      </trkpt>
      <trkpt lat="46.04091" lon="6.82245">
        <ele>2457.27</ele>
        <time>2017-10-17T11:30:47Z</time>
      </trkpt>
      <trkpt lat="46.04091" lon="6.82247">
        <ele>2457.27</ele>
        <time>2017-10-17T11:30:48Z</time>
      </trkpt>
      <trkpt lat="46.04091" lon="6.8225">
        <ele>2457.75</ele>
        <time>2017-10-17T11:30:49Z</time>
      </trkpt>
      <trkpt lat="46.04091" lon="6.82253">
        <ele>2457.75</ele>
        <time>2017-10-17T11:30:50Z</time>
      </trkpt>
      <trkpt lat="46.04091" lon="6.82256">
        <ele>2457.75</ele>
        <time>2017-10-17T11:30:51Z</time>
      </trkpt>
      <trkpt lat="46.04092" lon="6.82259">
        <ele>2457.75</ele>
        <time>2017-10-17T11:30:52Z</time>
      </trkpt>
      <trkpt lat="46.04093" lon="6.82263">
        <ele>2458.23</ele>
        <time>2017-10-17T11:30:54Z</time>
      </trkpt>
      <trkpt lat="46.04093" lon="6.82265">
        <ele>2458.23</ele>
        <time>2017-10-17T11:30:55Z</time>
      </trkpt>
      <trkpt lat="46.04096" lon="6.82271">
        <ele>2459.19</ele>
        <time>2017-10-17T11:31:03Z</time>
      </trkpt>
      <trkpt lat="46.04097" lon="6.82272">
        <ele>2459.19</ele>
        <time>2017-10-17T11:31:04Z</time>
      </trkpt>
      <trkpt lat="46.04097" lon="6.82273">
        <ele>2459.67</ele>
        <time>2017-10-17T11:31:05Z</time>
      </trkpt>
      <trkpt lat="46.04101" lon="6.82282">
        <ele>2461.11</ele>
        <time>2017-10-17T11:31:14Z</time>
      </trkpt>
      <trkpt lat="46.04102" lon="6.82284">
        <ele>2461.11</ele>
        <time>2017-10-17T11:31:15Z</time>
      </trkpt>
      <trkpt lat="46.04102" lon="6.82286">
        <ele>2461.59</ele>
        <time>2017-10-17T11:31:16Z</time>
      </trkpt>
      <trkpt lat="46.0411" lon="6.823">
        <ele>2464.48</ele>
        <time>2017-10-17T11:31:29Z</time>
      </trkpt>
      <trkpt lat="46.04116" lon="6.82303">
        <ele>2466.4</ele>
        <time>2017-10-17T11:31:37Z</time>
      </trkpt>
      <trkpt lat="46.04117" lon="6.82305">
        <ele>2466.88</ele>
        <time>2017-10-17T11:31:38Z</time>
      </trkpt>
      <trkpt lat="46.04117" lon="6.82307">
        <ele>2466.88</ele>
        <time>2017-10-17T11:31:39Z</time>
      </trkpt>
      <trkpt lat="46.04117" lon="6.82309">
        <ele>2466.88</ele>
        <time>2017-10-17T11:31:40Z</time>
      </trkpt>
      <trkpt lat="46.04118" lon="6.82311">
        <ele>2467.36</ele>
        <time>2017-10-17T11:31:41Z</time>
      </trkpt>
      <trkpt lat="46.04118" lon="6.82312">
        <ele>2467.84</ele>
        <time>2017-10-17T11:31:42Z</time>
      </trkpt>
      <trkpt lat="46.04123" lon="6.82334">
        <ele>2470.24</ele>
        <time>2017-10-17T11:31:56Z</time>
      </trkpt>
      <trkpt lat="46.04123" lon="6.82336">
        <ele>2470.24</ele>
        <time>2017-10-17T11:31:57Z</time>
      </trkpt>
      <trkpt lat="46.04126" lon="6.82346">
        <ele>2471.21</ele>
        <time>2017-10-17T11:32:03Z</time>
      </trkpt>
      <trkpt lat="46.04131" lon="6.82364">
        <ele>2473.61</ele>
        <time>2017-10-17T11:32:14Z</time>
      </trkpt>
      <trkpt lat="46.04132" lon="6.82365">
        <ele>2474.09</ele>
        <time>2017-10-17T11:32:15Z</time>
      </trkpt>
      <trkpt lat="46.04132" lon="6.82367">
        <ele>2474.09</ele>
        <time>2017-10-17T11:32:16Z</time>
      </trkpt>
      <trkpt lat="46.04137" lon="6.82383">
        <ele>2476.97</ele>
        <time>2017-10-17T11:32:26Z</time>
      </trkpt>
      <trkpt lat="46.04137" lon="6.82386">
        <ele>2477.94</ele>
        <time>2017-10-17T11:32:28Z</time>
      </trkpt>
      <trkpt lat="46.04137" lon="6.82389">
        <ele>2478.42</ele>
        <time>2017-10-17T11:32:30Z</time>
      </trkpt>
      <trkpt lat="46.04137" lon="6.82391">
        <ele>2479.38</ele>
        <time>2017-10-17T11:32:32Z</time>
      </trkpt>
      <trkpt lat="46.04137" lon="6.82393">
        <ele>2479.38</ele>
        <time>2017-10-17T11:32:33Z</time>
      </trkpt>
      <trkpt lat="46.04137" lon="6.82395">
        <ele>2479.38</ele>
        <time>2017-10-17T11:32:34Z</time>
      </trkpt>
      <trkpt lat="46.04137" lon="6.82396">
        <ele>2479.86</ele>
        <time>2017-10-17T11:32:35Z</time>
      </trkpt>
      <trkpt lat="46.04137" lon="6.82397">
        <ele>2480.34</ele>
        <time>2017-10-17T11:32:36Z</time>
      </trkpt>
      <trkpt lat="46.04137" lon="6.82399">
        <ele>2480.34</ele>
        <time>2017-10-17T11:32:37Z</time>
      </trkpt>
      <trkpt lat="46.04136" lon="6.824">
        <ele>2480.82</ele>
        <time>2017-10-17T11:32:38Z</time>
      </trkpt>
      <trkpt lat="46.04137" lon="6.82403">
        <ele>2481.78</ele>
        <time>2017-10-17T11:32:41Z</time>
      </trkpt>
      <trkpt lat="46.04139" lon="6.82417">
        <ele>2484.66</ele>
        <time>2017-10-17T11:32:53Z</time>
      </trkpt>
      <trkpt lat="46.0414" lon="6.82418">
        <ele>2485.15</ele>
        <time>2017-10-17T11:32:54Z</time>
      </trkpt>
      <trkpt lat="46.0414" lon="6.8242">
        <ele>2485.15</ele>
        <time>2017-10-17T11:32:55Z</time>
      </trkpt>
      <trkpt lat="46.0414" lon="6.82421">
        <ele>2485.63</ele>
        <time>2017-10-17T11:32:56Z</time>
      </trkpt>
      <trkpt lat="46.04141" lon="6.82422">
        <ele>2485.63</ele>
        <time>2017-10-17T11:32:57Z</time>
      </trkpt>
      <trkpt lat="46.04141" lon="6.82424">
        <ele>2485.63</ele>
        <time>2017-10-17T11:32:58Z</time>
      </trkpt>
      <trkpt lat="46.04141" lon="6.82425">
        <ele>2486.11</ele>
        <time>2017-10-17T11:32:59Z</time>
      </trkpt>
      <trkpt lat="46.04141" lon="6.82427">
        <ele>2486.11</ele>
        <time>2017-10-17T11:33:00Z</time>
      </trkpt>
      <trkpt lat="46.04142" lon="6.82428">
        <ele>2486.59</ele>
        <time>2017-10-17T11:33:01Z</time>
      </trkpt>
      <trkpt lat="46.04148" lon="6.82441">
        <ele>2489.47</ele>
        <time>2017-10-17T11:33:13Z</time>
      </trkpt>
      <trkpt lat="46.04159" lon="6.82463">
        <ele>2491.39</ele>
        <time>2017-10-17T11:33:27Z</time>
      </trkpt>
      <trkpt lat="46.04169" lon="6.82487">
        <ele>2492.84</ele>
        <time>2017-10-17T11:33:38Z</time>
      </trkpt>
      <trkpt lat="46.04171" lon="6.82495">
        <ele>2492.84</ele>
        <time>2017-10-17T11:33:42Z</time>
      </trkpt>
      <trkpt lat="46.04178" lon="6.82517">
        <ele>2496.2</ele>
        <time>2017-10-17T11:33:54Z</time>
      </trkpt>
      <trkpt lat="46.04181" lon="6.82541">
        <ele>2499.08</ele>
        <time>2017-10-17T11:34:07Z</time>
      </trkpt>
      <trkpt lat="46.04176" lon="6.82568">
        <ele>2501.49</ele>
        <time>2017-10-17T11:34:19Z</time>
      </trkpt>
      <trkpt lat="46.04173" lon="6.82586">
        <ele>2501.01</ele>
        <time>2017-10-17T11:34:29Z</time>
      </trkpt>
      <trkpt lat="46.04173" lon="6.82588">
        <ele>2501.01</ele>
        <time>2017-10-17T11:34:30Z</time>
      </trkpt>
      <trkpt lat="46.04173" lon="6.8259">
        <ele>2501.01</ele>
        <time>2017-10-17T11:34:31Z</time>
      </trkpt>
      <trkpt lat="46.04173" lon="6.82592">
        <ele>2500.53</ele>
        <time>2017-10-17T11:34:32Z</time>
      </trkpt>
      <trkpt lat="46.04173" lon="6.82595">
        <ele>2500.53</ele>
        <time>2017-10-17T11:34:33Z</time>
      </trkpt>
      <trkpt lat="46.04172" lon="6.82596">
        <ele>2500.53</ele>
        <time>2017-10-17T11:34:34Z</time>
      </trkpt>
      <trkpt lat="46.04172" lon="6.82598">
        <ele>2500.53</ele>
        <time>2017-10-17T11:34:35Z</time>
      </trkpt>
      <trkpt lat="46.04166" lon="6.82624">
        <ele>2499.57</ele>
        <time>2017-10-17T11:34:47Z</time>
      </trkpt>
      <trkpt lat="46.04163" lon="6.82654">
        <ele>2497.16</ele>
        <time>2017-10-17T11:34:56Z</time>
      </trkpt>
      <trkpt lat="46.04164" lon="6.82684">
        <ele>2500.05</ele>
        <time>2017-10-17T11:35:07Z</time>
      </trkpt>
      <trkpt lat="46.04157" lon="6.82711">
        <ele>2498.6</ele>
        <time>2017-10-17T11:35:16Z</time>
      </trkpt>
      <trkpt lat="46.04155" lon="6.8274">
        <ele>2498.12</ele>
        <time>2017-10-17T11:35:25Z</time>
      </trkpt>
      <trkpt lat="46.04155" lon="6.82745">
        <ele>2498.12</ele>
        <time>2017-10-17T11:35:27Z</time>
      </trkpt>
      <trkpt lat="46.04154" lon="6.82747">
        <ele>2498.12</ele>
        <time>2017-10-17T11:35:28Z</time>
      </trkpt>
      <trkpt lat="46.04153" lon="6.8275">
        <ele>2498.12</ele>
        <time>2017-10-17T11:35:29Z</time>
      </trkpt>
      <trkpt lat="46.0415" lon="6.82777">
        <ele>2497.16</ele>
        <time>2017-10-17T11:35:38Z</time>
      </trkpt>
      <trkpt lat="46.04147" lon="6.82803">
        <ele>2496.68</ele>
        <time>2017-10-17T11:35:51Z</time>
      </trkpt>
      <trkpt lat="46.0415" lon="6.82831">
        <ele>2496.2</ele>
        <time>2017-10-17T11:36:04Z</time>
      </trkpt>
      <trkpt lat="46.04149" lon="6.82832">
        <ele>2496.2</ele>
        <time>2017-10-17T11:36:05Z</time>
      </trkpt>
      <trkpt lat="46.04149" lon="6.82834">
        <ele>2496.2</ele>
        <time>2017-10-17T11:36:06Z</time>
      </trkpt>
      <trkpt lat="46.04149" lon="6.82836">
        <ele>2496.2</ele>
        <time>2017-10-17T11:36:07Z</time>
      </trkpt>
      <trkpt lat="46.04149" lon="6.82838">
        <ele>2496.2</ele>
        <time>2017-10-17T11:36:08Z</time>
      </trkpt>
      <trkpt lat="46.04149" lon="6.82839">
        <ele>2496.2</ele>
        <time>2017-10-17T11:36:09Z</time>
      </trkpt>
      <trkpt lat="46.04148" lon="6.82841">
        <ele>2496.2</ele>
        <time>2017-10-17T11:36:10Z</time>
      </trkpt>
      <trkpt lat="46.04148" lon="6.82843">
        <ele>2495.72</ele>
        <time>2017-10-17T11:36:11Z</time>
      </trkpt>
      <trkpt lat="46.04148" lon="6.82845">
        <ele>2495.24</ele>
        <time>2017-10-17T11:36:12Z</time>
      </trkpt>
      <trkpt lat="46.04149" lon="6.82847">
        <ele>2495.24</ele>
        <time>2017-10-17T11:36:13Z</time>
      </trkpt>
      <trkpt lat="46.04149" lon="6.82849">
        <ele>2495.24</ele>
        <time>2017-10-17T11:36:14Z</time>
      </trkpt>
      <trkpt lat="46.04149" lon="6.82871">
        <ele>2495.24</ele>
        <time>2017-10-17T11:36:27Z</time>
      </trkpt>
      <trkpt lat="46.04149" lon="6.82874">
        <ele>2494.76</ele>
        <time>2017-10-17T11:36:28Z</time>
      </trkpt>
      <trkpt lat="46.04149" lon="6.82877">
        <ele>2494.28</ele>
        <time>2017-10-17T11:36:29Z</time>
      </trkpt>
      <trkpt lat="46.0415" lon="6.8288">
        <ele>2493.8</ele>
        <time>2017-10-17T11:36:30Z</time>
      </trkpt>
      <trkpt lat="46.04151" lon="6.82883">
        <ele>2493.8</ele>
        <time>2017-10-17T11:36:31Z</time>
      </trkpt>
      <trkpt lat="46.04152" lon="6.82886">
        <ele>2493.32</ele>
        <time>2017-10-17T11:36:32Z</time>
      </trkpt>
      <trkpt lat="46.04153" lon="6.82889">
        <ele>2493.32</ele>
        <time>2017-10-17T11:36:33Z</time>
      </trkpt>
      <trkpt lat="46.04154" lon="6.82892">
        <ele>2493.32</ele>
        <time>2017-10-17T11:36:34Z</time>
      </trkpt>
      <trkpt lat="46.04155" lon="6.82895">
        <ele>2493.32</ele>
        <time>2017-10-17T11:36:35Z</time>
      </trkpt>
      <trkpt lat="46.04156" lon="6.82898">
        <ele>2493.32</ele>
        <time>2017-10-17T11:36:36Z</time>
      </trkpt>
      <trkpt lat="46.0416" lon="6.82927">
        <ele>2492.36</ele>
        <time>2017-10-17T11:36:45Z</time>
      </trkpt>
      <trkpt lat="46.04159" lon="6.82958">
        <ele>2490.91</ele>
        <time>2017-10-17T11:36:54Z</time>
      </trkpt>
      <trkpt lat="46.04162" lon="6.82975">
        <ele>2490.43</ele>
        <time>2017-10-17T11:37:00Z</time>
      </trkpt>
      <trkpt lat="46.04163" lon="6.82978">
        <ele>2490.43</ele>
        <time>2017-10-17T11:37:01Z</time>
      </trkpt>
      <trkpt lat="46.04163" lon="6.8298">
        <ele>2490.43</ele>
        <time>2017-10-17T11:37:02Z</time>
      </trkpt>
      <trkpt lat="46.04164" lon="6.82983">
        <ele>2490.43</ele>
        <time>2017-10-17T11:37:03Z</time>
      </trkpt>
      <trkpt lat="46.04164" lon="6.82985">
        <ele>2489.95</ele>
        <time>2017-10-17T11:37:04Z</time>
      </trkpt>
      <trkpt lat="46.04164" lon="6.82988">
        <ele>2489.95</ele>
        <time>2017-10-17T11:37:05Z</time>
      </trkpt>
      <trkpt lat="46.04164" lon="6.82991">
        <ele>2489.47</ele>
        <time>2017-10-17T11:37:06Z</time>
      </trkpt>
      <trkpt lat="46.04164" lon="6.82993">
        <ele>2489.47</ele>
        <time>2017-10-17T11:37:07Z</time>
      </trkpt>
      <trkpt lat="46.04165" lon="6.82996">
        <ele>2489.47</ele>
        <time>2017-10-17T11:37:08Z</time>
      </trkpt>
      <trkpt lat="46.04165" lon="6.82998">
        <ele>2489.47</ele>
        <time>2017-10-17T11:37:09Z</time>
      </trkpt>
      <trkpt lat="46.04164" lon="6.83001">
        <ele>2488.99</ele>
        <time>2017-10-17T11:37:10Z</time>
      </trkpt>
      <trkpt lat="46.04165" lon="6.83003">
        <ele>2488.99</ele>
        <time>2017-10-17T11:37:11Z</time>
      </trkpt>
      <trkpt lat="46.04165" lon="6.83006">
        <ele>2488.99</ele>
        <time>2017-10-17T11:37:12Z</time>
      </trkpt>
      <trkpt lat="46.04165" lon="6.83009">
        <ele>2488.51</ele>
        <time>2017-10-17T11:37:13Z</time>
      </trkpt>
      <trkpt lat="46.04165" lon="6.83012">
        <ele>2488.51</ele>
        <time>2017-10-17T11:37:14Z</time>
      </trkpt>
      <trkpt lat="46.04165" lon="6.83014">
        <ele>2488.03</ele>
        <time>2017-10-17T11:37:15Z</time>
      </trkpt>
      <trkpt lat="46.04165" lon="6.83017">
        <ele>2488.03</ele>
        <time>2017-10-17T11:37:16Z</time>
      </trkpt>
      <trkpt lat="46.04165" lon="6.83019">
        <ele>2488.03</ele>
        <time>2017-10-17T11:37:17Z</time>
      </trkpt>
      <trkpt lat="46.04164" lon="6.83022">
        <ele>2488.03</ele>
        <time>2017-10-17T11:37:18Z</time>
      </trkpt>
      <trkpt lat="46.04163" lon="6.83025">
        <ele>2488.03</ele>
        <time>2017-10-17T11:37:19Z</time>
      </trkpt>
      <trkpt lat="46.04163" lon="6.83027">
        <ele>2488.03</ele>
        <time>2017-10-17T11:37:20Z</time>
      </trkpt>
      <trkpt lat="46.04163" lon="6.83029">
        <ele>2488.03</ele>
        <time>2017-10-17T11:37:21Z</time>
      </trkpt>
      <trkpt lat="46.04162" lon="6.83032">
        <ele>2488.03</ele>
        <time>2017-10-17T11:37:22Z</time>
      </trkpt>
      <trkpt lat="46.04162" lon="6.83034">
        <ele>2488.03</ele>
        <time>2017-10-17T11:37:23Z</time>
      </trkpt>
      <trkpt lat="46.04162" lon="6.83037">
        <ele>2487.55</ele>
        <time>2017-10-17T11:37:24Z</time>
      </trkpt>
      <trkpt lat="46.04161" lon="6.8304">
        <ele>2487.55</ele>
        <time>2017-10-17T11:37:25Z</time>
      </trkpt>
      <trkpt lat="46.04156" lon="6.83068">
        <ele>2487.55</ele>
        <time>2017-10-17T11:37:36Z</time>
      </trkpt>
      <trkpt lat="46.04155" lon="6.83071">
        <ele>2487.55</ele>
        <time>2017-10-17T11:37:37Z</time>
      </trkpt>
      <trkpt lat="46.04153" lon="6.83073">
        <ele>2487.55</ele>
        <time>2017-10-17T11:37:38Z</time>
      </trkpt>
      <trkpt lat="46.04152" lon="6.83075">
        <ele>2487.55</ele>
        <time>2017-10-17T11:37:39Z</time>
      </trkpt>
      <trkpt lat="46.0415" lon="6.83077">
        <ele>2487.55</ele>
        <time>2017-10-17T11:37:40Z</time>
      </trkpt>
      <trkpt lat="46.04141" lon="6.83104">
        <ele>2486.59</ele>
        <time>2017-10-17T11:37:49Z</time>
      </trkpt>
      <trkpt lat="46.04136" lon="6.83133">
        <ele>2486.11</ele>
        <time>2017-10-17T11:37:58Z</time>
      </trkpt>
      <trkpt lat="46.04125" lon="6.8316">
        <ele>2486.59</ele>
        <time>2017-10-17T11:38:07Z</time>
      </trkpt>
      <trkpt lat="46.04113" lon="6.83183">
        <ele>2487.07</ele>
        <time>2017-10-17T11:38:16Z</time>
      </trkpt>
      <trkpt lat="46.04106" lon="6.83208">
        <ele>2486.11</ele>
        <time>2017-10-17T11:38:25Z</time>
      </trkpt>
      <trkpt lat="46.04097" lon="6.83233">
        <ele>2485.15</ele>
        <time>2017-10-17T11:38:34Z</time>
      </trkpt>
      <trkpt lat="46.04096" lon="6.83235">
        <ele>2485.15</ele>
        <time>2017-10-17T11:38:35Z</time>
      </trkpt>
      <trkpt lat="46.04095" lon="6.83236">
        <ele>2485.63</ele>
        <time>2017-10-17T11:38:36Z</time>
      </trkpt>
      <trkpt lat="46.04094" lon="6.83238">
        <ele>2485.63</ele>
        <time>2017-10-17T11:38:37Z</time>
      </trkpt>
      <trkpt lat="46.04092" lon="6.8324">
        <ele>2485.63</ele>
        <time>2017-10-17T11:38:38Z</time>
      </trkpt>
      <trkpt lat="46.04092" lon="6.83241">
        <ele>2485.63</ele>
        <time>2017-10-17T11:38:39Z</time>
      </trkpt>
      <trkpt lat="46.04091" lon="6.83242">
        <ele>2485.63</ele>
        <time>2017-10-17T11:38:40Z</time>
      </trkpt>
      <trkpt lat="46.0409" lon="6.83244">
        <ele>2485.63</ele>
        <time>2017-10-17T11:38:41Z</time>
      </trkpt>
      <trkpt lat="46.04083" lon="6.83257">
        <ele>2486.59</ele>
        <time>2017-10-17T11:38:47Z</time>
      </trkpt>
      <trkpt lat="46.04072" lon="6.83283">
        <ele>2484.66</ele>
        <time>2017-10-17T11:38:57Z</time>
      </trkpt>
      <trkpt lat="46.04067" lon="6.83301">
        <ele>2484.66</ele>
        <time>2017-10-17T11:39:04Z</time>
      </trkpt>
      <trkpt lat="46.04065" lon="6.83303">
        <ele>2484.66</ele>
        <time>2017-10-17T11:39:05Z</time>
      </trkpt>
      <trkpt lat="46.04064" lon="6.83305">
        <ele>2484.18</ele>
        <time>2017-10-17T11:39:06Z</time>
      </trkpt>
      <trkpt lat="46.04063" lon="6.83308">
        <ele>2484.18</ele>
        <time>2017-10-17T11:39:07Z</time>
      </trkpt>
      <trkpt lat="46.04062" lon="6.8331">
        <ele>2484.18</ele>
        <time>2017-10-17T11:39:08Z</time>
      </trkpt>
      <trkpt lat="46.04058" lon="6.83334">
        <ele>2485.15</ele>
        <time>2017-10-17T11:39:18Z</time>
      </trkpt>
      <trkpt lat="46.0405" lon="6.83352">
        <ele>2484.18</ele>
        <time>2017-10-17T11:39:31Z</time>
      </trkpt>
      <trkpt lat="46.0405" lon="6.83355">
        <ele>2483.7</ele>
        <time>2017-10-17T11:39:32Z</time>
      </trkpt>
      <trkpt lat="46.04049" lon="6.83357">
        <ele>2483.22</ele>
        <time>2017-10-17T11:39:33Z</time>
      </trkpt>
      <trkpt lat="46.04048" lon="6.8336">
        <ele>2483.22</ele>
        <time>2017-10-17T11:39:34Z</time>
      </trkpt>
      <trkpt lat="46.04048" lon="6.83363">
        <ele>2483.22</ele>
        <time>2017-10-17T11:39:35Z</time>
      </trkpt>
      <trkpt lat="46.0404" lon="6.8339">
        <ele>2482.26</ele>
        <time>2017-10-17T11:39:45Z</time>
      </trkpt>
      <trkpt lat="46.04036" lon="6.83403">
        <ele>2480.82</ele>
        <time>2017-10-17T11:39:50Z</time>
      </trkpt>
      <trkpt lat="46.04034" lon="6.83408">
        <ele>2479.38</ele>
        <time>2017-10-17T11:39:52Z</time>
      </trkpt>
      <trkpt lat="46.04034" lon="6.83411">
        <ele>2478.9</ele>
        <time>2017-10-17T11:39:53Z</time>
      </trkpt>
      <trkpt lat="46.04034" lon="6.83414">
        <ele>2478.9</ele>
        <time>2017-10-17T11:39:54Z</time>
      </trkpt>
      <trkpt lat="46.04034" lon="6.83417">
        <ele>2478.42</ele>
        <time>2017-10-17T11:39:55Z</time>
      </trkpt>
      <trkpt lat="46.04034" lon="6.8342">
        <ele>2478.42</ele>
        <time>2017-10-17T11:39:56Z</time>
      </trkpt>
      <trkpt lat="46.04038" lon="6.83438">
        <ele>2480.34</ele>
        <time>2017-10-17T11:40:05Z</time>
      </trkpt>
      <trkpt lat="46.0404" lon="6.83465">
        <ele>2482.26</ele>
        <time>2017-10-17T11:40:18Z</time>
      </trkpt>
      <trkpt lat="46.04042" lon="6.83469">
        <ele>2483.22</ele>
        <time>2017-10-17T11:40:21Z</time>
      </trkpt>
      <trkpt lat="46.04043" lon="6.83472">
        <ele>2483.22</ele>
        <time>2017-10-17T11:40:22Z</time>
      </trkpt>
      <trkpt lat="46.04043" lon="6.83474">
        <ele>2483.22</ele>
        <time>2017-10-17T11:40:23Z</time>
      </trkpt>
      <trkpt lat="46.04042" lon="6.83476">
        <ele>2483.7</ele>
        <time>2017-10-17T11:40:24Z</time>
      </trkpt>
      <trkpt lat="46.04042" lon="6.83479">
        <ele>2483.7</ele>
        <time>2017-10-17T11:40:25Z</time>
      </trkpt>
      <trkpt lat="46.04042" lon="6.83481">
        <ele>2483.22</ele>
        <time>2017-10-17T11:40:26Z</time>
      </trkpt>
      <trkpt lat="46.0404" lon="6.83499">
        <ele>2482.26</ele>
        <time>2017-10-17T11:40:34Z</time>
      </trkpt>
      <trkpt lat="46.04042" lon="6.83505">
        <ele>2482.74</ele>
        <time>2017-10-17T11:40:37Z</time>
      </trkpt>
      <trkpt lat="46.04041" lon="6.83507">
        <ele>2482.74</ele>
        <time>2017-10-17T11:40:38Z</time>
      </trkpt>
      <trkpt lat="46.0404" lon="6.83508">
        <ele>2482.74</ele>
        <time>2017-10-17T11:40:39Z</time>
      </trkpt>
      <trkpt lat="46.0404" lon="6.83509">
        <ele>2482.74</ele>
        <time>2017-10-17T11:40:40Z</time>
      </trkpt>
      <trkpt lat="46.0404" lon="6.83511">
        <ele>2482.26</ele>
        <time>2017-10-17T11:40:41Z</time>
      </trkpt>
      <trkpt lat="46.04039" lon="6.83512">
        <ele>2482.26</ele>
        <time>2017-10-17T11:40:42Z</time>
      </trkpt>
      <trkpt lat="46.04039" lon="6.83513">
        <ele>2482.26</ele>
        <time>2017-10-17T11:40:43Z</time>
      </trkpt>
      <trkpt lat="46.04038" lon="6.83514">
        <ele>2482.26</ele>
        <time>2017-10-17T11:40:44Z</time>
      </trkpt>
      <trkpt lat="46.04037" lon="6.83516">
        <ele>2481.78</ele>
        <time>2017-10-17T11:40:46Z</time>
      </trkpt>
      <trkpt lat="46.04036" lon="6.83518">
        <ele>2481.78</ele>
        <time>2017-10-17T11:40:47Z</time>
      </trkpt>
      <trkpt lat="46.04035" lon="6.8352">
        <ele>2481.78</ele>
        <time>2017-10-17T11:40:48Z</time>
      </trkpt>
      <trkpt lat="46.04034" lon="6.83522">
        <ele>2481.78</ele>
        <time>2017-10-17T11:40:49Z</time>
      </trkpt>
      <trkpt lat="46.04033" lon="6.83523">
        <ele>2481.78</ele>
        <time>2017-10-17T11:40:50Z</time>
      </trkpt>
      <trkpt lat="46.04032" lon="6.83524">
        <ele>2481.78</ele>
        <time>2017-10-17T11:40:51Z</time>
      </trkpt>
      <trkpt lat="46.0403" lon="6.83525">
        <ele>2481.78</ele>
        <time>2017-10-17T11:40:52Z</time>
      </trkpt>
      <trkpt lat="46.04018" lon="6.83546">
        <ele>2482.26</ele>
        <time>2017-10-17T11:41:02Z</time>
      </trkpt>
      <trkpt lat="46.04016" lon="6.83557">
        <ele>2481.78</ele>
        <time>2017-10-17T11:41:05Z</time>
      </trkpt>
      <trkpt lat="46.04015" lon="6.8356">
        <ele>2481.78</ele>
        <time>2017-10-17T11:41:06Z</time>
      </trkpt>
      <trkpt lat="46.04013" lon="6.83562">
        <ele>2481.3</ele>
        <time>2017-10-17T11:41:07Z</time>
      </trkpt>
      <trkpt lat="46.04011" lon="6.83564">
        <ele>2481.3</ele>
        <time>2017-10-17T11:41:08Z</time>
      </trkpt>
      <trkpt lat="46.0401" lon="6.83566">
        <ele>2481.3</ele>
        <time>2017-10-17T11:41:09Z</time>
      </trkpt>
      <trkpt lat="46.04008" lon="6.83568">
        <ele>2481.3</ele>
        <time>2017-10-17T11:41:10Z</time>
      </trkpt>
      <trkpt lat="46.04006" lon="6.83569">
        <ele>2481.3</ele>
        <time>2017-10-17T11:41:11Z</time>
      </trkpt>
      <trkpt lat="46.04004" lon="6.8357">
        <ele>2481.3</ele>
        <time>2017-10-17T11:41:12Z</time>
      </trkpt>
      <trkpt lat="46.04002" lon="6.83572">
        <ele>2481.3</ele>
        <time>2017-10-17T11:41:13Z</time>
      </trkpt>
      <trkpt lat="46.04001" lon="6.83574">
        <ele>2480.82</ele>
        <time>2017-10-17T11:41:14Z</time>
      </trkpt>
      <trkpt lat="46.04" lon="6.83577">
        <ele>2480.82</ele>
        <time>2017-10-17T11:41:15Z</time>
      </trkpt>
      <trkpt lat="46.03999" lon="6.83579">
        <ele>2480.82</ele>
        <time>2017-10-17T11:41:16Z</time>
      </trkpt>
      <trkpt lat="46.04" lon="6.83582">
        <ele>2480.82</ele>
        <time>2017-10-17T11:41:17Z</time>
      </trkpt>
      <trkpt lat="46.04001" lon="6.83585">
        <ele>2480.82</ele>
        <time>2017-10-17T11:41:18Z</time>
      </trkpt>
      <trkpt lat="46.04002" lon="6.83588">
        <ele>2480.34</ele>
        <time>2017-10-17T11:41:19Z</time>
      </trkpt>
      <trkpt lat="46.04003" lon="6.83592">
        <ele>2480.34</ele>
        <time>2017-10-17T11:41:20Z</time>
      </trkpt>
      <trkpt lat="46.04009" lon="6.83622">
        <ele>2479.38</ele>
        <time>2017-10-17T11:41:28Z</time>
      </trkpt>
      <trkpt lat="46.04016" lon="6.83649">
        <ele>2478.42</ele>
        <time>2017-10-17T11:41:36Z</time>
      </trkpt>
      <trkpt lat="46.04017" lon="6.83651">
        <ele>2478.42</ele>
        <time>2017-10-17T11:41:37Z</time>
      </trkpt>
      <trkpt lat="46.04027" lon="6.83679">
        <ele>2476.01</ele>
        <time>2017-10-17T11:41:46Z</time>
      </trkpt>
      <trkpt lat="46.04029" lon="6.83708">
        <ele>2475.53</ele>
        <time>2017-10-17T11:41:55Z</time>
      </trkpt>
      <trkpt lat="46.04032" lon="6.83726">
        <ele>2474.57</ele>
        <time>2017-10-17T11:42:01Z</time>
      </trkpt>
      <trkpt lat="46.04036" lon="6.83752">
        <ele>2473.61</ele>
        <time>2017-10-17T11:42:10Z</time>
      </trkpt>
      <trkpt lat="46.04037" lon="6.83761">
        <ele>2473.61</ele>
        <time>2017-10-17T11:42:13Z</time>
      </trkpt>
      <trkpt lat="46.04038" lon="6.83764">
        <ele>2473.13</ele>
        <time>2017-10-17T11:42:14Z</time>
      </trkpt>
      <trkpt lat="46.04038" lon="6.83767">
        <ele>2473.13</ele>
        <time>2017-10-17T11:42:15Z</time>
      </trkpt>
      <trkpt lat="46.04039" lon="6.83769">
        <ele>2472.65</ele>
        <time>2017-10-17T11:42:16Z</time>
      </trkpt>
      <trkpt lat="46.04041" lon="6.83772">
        <ele>2472.17</ele>
        <time>2017-10-17T11:42:17Z</time>
      </trkpt>
      <trkpt lat="46.04042" lon="6.83775">
        <ele>2472.17</ele>
        <time>2017-10-17T11:42:18Z</time>
      </trkpt>
      <trkpt lat="46.04046" lon="6.83804">
        <ele>2470.73</ele>
        <time>2017-10-17T11:42:27Z</time>
      </trkpt>
      <trkpt lat="46.04045" lon="6.83811">
        <ele>2470.24</ele>
        <time>2017-10-17T11:42:29Z</time>
      </trkpt>
      <trkpt lat="46.04044" lon="6.83813">
        <ele>2469.76</ele>
        <time>2017-10-17T11:42:30Z</time>
      </trkpt>
      <trkpt lat="46.04038" lon="6.83817">
        <ele>2471.21</ele>
        <time>2017-10-17T11:42:34Z</time>
      </trkpt>
      <trkpt lat="46.04036" lon="6.83817">
        <ele>2471.21</ele>
        <time>2017-10-17T11:42:35Z</time>
      </trkpt>
      <trkpt lat="46.04035" lon="6.83816">
        <ele>2471.69</ele>
        <time>2017-10-17T11:42:36Z</time>
      </trkpt>
      <trkpt lat="46.04026" lon="6.83817">
        <ele>2474.57</ele>
        <time>2017-10-17T11:42:42Z</time>
      </trkpt>
      <trkpt lat="46.04024" lon="6.83818">
        <ele>2474.57</ele>
        <time>2017-10-17T11:42:44Z</time>
      </trkpt>
      <trkpt lat="46.04022" lon="6.83818">
        <ele>2475.05</ele>
        <time>2017-10-17T11:42:45Z</time>
      </trkpt>
      <trkpt lat="46.04021" lon="6.83819">
        <ele>2475.53</ele>
        <time>2017-10-17T11:42:46Z</time>
      </trkpt>
      <trkpt lat="46.04019" lon="6.83819">
        <ele>2476.01</ele>
        <time>2017-10-17T11:42:47Z</time>
      </trkpt>
      <trkpt lat="46.04018" lon="6.83819">
        <ele>2476.01</ele>
        <time>2017-10-17T11:42:48Z</time>
      </trkpt>
      <trkpt lat="46.04016" lon="6.83819">
        <ele>2476.01</ele>
        <time>2017-10-17T11:42:49Z</time>
      </trkpt>
      <trkpt lat="46.03995" lon="6.83826">
        <ele>2476.97</ele>
        <time>2017-10-17T11:43:01Z</time>
      </trkpt>
      <trkpt lat="46.03993" lon="6.83826">
        <ele>2476.97</ele>
        <time>2017-10-17T11:43:02Z</time>
      </trkpt>
      <trkpt lat="46.03992" lon="6.83825">
        <ele>2477.45</ele>
        <time>2017-10-17T11:43:03Z</time>
      </trkpt>
      <trkpt lat="46.0399" lon="6.83826">
        <ele>2477.45</ele>
        <time>2017-10-17T11:43:04Z</time>
      </trkpt>
      <trkpt lat="46.03989" lon="6.83826">
        <ele>2477.94</ele>
        <time>2017-10-17T11:43:05Z</time>
      </trkpt>
      <trkpt lat="46.03988" lon="6.83826">
        <ele>2477.94</ele>
        <time>2017-10-17T11:43:06Z</time>
      </trkpt>
      <trkpt lat="46.03986" lon="6.83826">
        <ele>2478.42</ele>
        <time>2017-10-17T11:43:07Z</time>
      </trkpt>
      <trkpt lat="46.03985" lon="6.83826">
        <ele>2478.9</ele>
        <time>2017-10-17T11:43:08Z</time>
      </trkpt>
      <trkpt lat="46.03983" lon="6.83826">
        <ele>2478.9</ele>
        <time>2017-10-17T11:43:09Z</time>
      </trkpt>
      <trkpt lat="46.03982" lon="6.83827">
        <ele>2478.9</ele>
        <time>2017-10-17T11:43:10Z</time>
      </trkpt>
      <trkpt lat="46.0398" lon="6.83827">
        <ele>2479.38</ele>
        <time>2017-10-17T11:43:11Z</time>
      </trkpt>
      <trkpt lat="46.03978" lon="6.83827">
        <ele>2479.38</ele>
        <time>2017-10-17T11:43:12Z</time>
      </trkpt>
      <trkpt lat="46.03976" lon="6.83826">
        <ele>2479.38</ele>
        <time>2017-10-17T11:43:13Z</time>
      </trkpt>
      <trkpt lat="46.03974" lon="6.83826">
        <ele>2479.38</ele>
        <time>2017-10-17T11:43:14Z</time>
      </trkpt>
      <trkpt lat="46.03973" lon="6.83826">
        <ele>2479.38</ele>
        <time>2017-10-17T11:43:15Z</time>
      </trkpt>
      <trkpt lat="46.03967" lon="6.83829">
        <ele>2480.34</ele>
        <time>2017-10-17T11:43:19Z</time>
      </trkpt>
      <trkpt lat="46.03959" lon="6.8384">
        <ele>2483.22</ele>
        <time>2017-10-17T11:43:29Z</time>
      </trkpt>
      <trkpt lat="46.03958" lon="6.83841">
        <ele>2483.22</ele>
        <time>2017-10-17T11:43:30Z</time>
      </trkpt>
      <trkpt lat="46.03958" lon="6.83843">
        <ele>2483.7</ele>
        <time>2017-10-17T11:43:31Z</time>
      </trkpt>
      <trkpt lat="46.03958" lon="6.83845">
        <ele>2483.7</ele>
        <time>2017-10-17T11:43:32Z</time>
      </trkpt>
      <trkpt lat="46.03958" lon="6.83847">
        <ele>2484.18</ele>
        <time>2017-10-17T11:43:33Z</time>
      </trkpt>
      <trkpt lat="46.03963" lon="6.83873">
        <ele>2486.59</ele>
        <time>2017-10-17T11:43:44Z</time>
      </trkpt>
      <trkpt lat="46.03974" lon="6.83894">
        <ele>2488.99</ele>
        <time>2017-10-17T11:43:55Z</time>
      </trkpt>
      <trkpt lat="46.03975" lon="6.83912">
        <ele>2489.95</ele>
        <time>2017-10-17T11:44:02Z</time>
      </trkpt>
      <trkpt lat="46.03976" lon="6.83913">
        <ele>2490.43</ele>
        <time>2017-10-17T11:44:03Z</time>
      </trkpt>
      <trkpt lat="46.03977" lon="6.83913">
        <ele>2490.43</ele>
        <time>2017-10-17T11:44:04Z</time>
      </trkpt>
      <trkpt lat="46.03978" lon="6.83914">
        <ele>2490.91</ele>
        <time>2017-10-17T11:44:05Z</time>
      </trkpt>
      <trkpt lat="46.03979" lon="6.83915">
        <ele>2490.91</ele>
        <time>2017-10-17T11:44:06Z</time>
      </trkpt>
      <trkpt lat="46.0398" lon="6.83916">
        <ele>2491.39</ele>
        <time>2017-10-17T11:44:07Z</time>
      </trkpt>
      <trkpt lat="46.03981" lon="6.83917">
        <ele>2491.39</ele>
        <time>2017-10-17T11:44:08Z</time>
      </trkpt>
      <trkpt lat="46.03982" lon="6.83918">
        <ele>2491.87</ele>
        <time>2017-10-17T11:44:09Z</time>
      </trkpt>
      <trkpt lat="46.03983" lon="6.83919">
        <ele>2492.36</ele>
        <time>2017-10-17T11:44:10Z</time>
      </trkpt>
      <trkpt lat="46.04002" lon="6.83931">
        <ele>2494.28</ele>
        <time>2017-10-17T11:44:22Z</time>
      </trkpt>
      <trkpt lat="46.04013" lon="6.83954">
        <ele>2494.76</ele>
        <time>2017-10-17T11:44:34Z</time>
      </trkpt>
      <trkpt lat="46.04016" lon="6.83963">
        <ele>2495.24</ele>
        <time>2017-10-17T11:44:38Z</time>
      </trkpt>
      <trkpt lat="46.04018" lon="6.83978">
        <ele>2494.28</ele>
        <time>2017-10-17T11:44:46Z</time>
      </trkpt>
      <trkpt lat="46.04013" lon="6.83993">
        <ele>2494.76</ele>
        <time>2017-10-17T11:44:55Z</time>
      </trkpt>
      <trkpt lat="46.04012" lon="6.83995">
        <ele>2494.76</ele>
        <time>2017-10-17T11:44:56Z</time>
      </trkpt>
      <trkpt lat="46.04012" lon="6.83997">
        <ele>2494.76</ele>
        <time>2017-10-17T11:44:57Z</time>
      </trkpt>
      <trkpt lat="46.04009" lon="6.84003">
        <ele>2495.24</ele>
        <time>2017-10-17T11:45:01Z</time>
      </trkpt>
      <trkpt lat="46.04008" lon="6.84004">
        <ele>2495.24</ele>
        <time>2017-10-17T11:45:02Z</time>
      </trkpt>
      <trkpt lat="46.04007" lon="6.84005">
        <ele>2494.76</ele>
        <time>2017-10-17T11:45:03Z</time>
      </trkpt>
      <trkpt lat="46.04005" lon="6.8401">
        <ele>2494.76</ele>
        <time>2017-10-17T11:45:05Z</time>
      </trkpt>
      <trkpt lat="46.04005" lon="6.84014">
        <ele>2493.8</ele>
        <time>2017-10-17T11:45:06Z</time>
      </trkpt>
      <trkpt lat="46.04005" lon="6.84017">
        <ele>2493.8</ele>
        <time>2017-10-17T11:45:07Z</time>
      </trkpt>
      <trkpt lat="46.04007" lon="6.84049">
        <ele>2492.84</ele>
        <time>2017-10-17T11:45:16Z</time>
      </trkpt>
      <trkpt lat="46.04003" lon="6.84078">
        <ele>2492.84</ele>
        <time>2017-10-17T11:45:25Z</time>
      </trkpt>
      <trkpt lat="46.04002" lon="6.8408">
        <ele>2492.84</ele>
        <time>2017-10-17T11:45:26Z</time>
      </trkpt>
      <trkpt lat="46.04001" lon="6.84083">
        <ele>2492.84</ele>
        <time>2017-10-17T11:45:27Z</time>
      </trkpt>
      <trkpt lat="46.03992" lon="6.84108">
        <ele>2494.76</ele>
        <time>2017-10-17T11:45:37Z</time>
      </trkpt>
      <trkpt lat="46.03996" lon="6.84135">
        <ele>2496.68</ele>
        <time>2017-10-17T11:45:47Z</time>
      </trkpt>
      <trkpt lat="46.04002" lon="6.84163">
        <ele>2498.12</ele>
        <time>2017-10-17T11:45:58Z</time>
      </trkpt>
      <trkpt lat="46.04004" lon="6.8419">
        <ele>2500.53</ele>
        <time>2017-10-17T11:46:09Z</time>
      </trkpt>
      <trkpt lat="46.04007" lon="6.84217">
        <ele>2501.49</ele>
        <time>2017-10-17T11:46:19Z</time>
      </trkpt>
      <trkpt lat="46.04018" lon="6.8424">
        <ele>2502.45</ele>
        <time>2017-10-17T11:46:29Z</time>
      </trkpt>
      <trkpt lat="46.04027" lon="6.84265">
        <ele>2502.45</ele>
        <time>2017-10-17T11:46:39Z</time>
      </trkpt>
      <trkpt lat="46.04034" lon="6.8429">
        <ele>2501.49</ele>
        <time>2017-10-17T11:46:49Z</time>
      </trkpt>
      <trkpt lat="46.04042" lon="6.84315">
        <ele>2500.53</ele>
        <time>2017-10-17T11:46:58Z</time>
      </trkpt>
      <trkpt lat="46.04048" lon="6.84332">
        <ele>2499.57</ele>
        <time>2017-10-17T11:47:06Z</time>
      </trkpt>
      <trkpt lat="46.04048" lon="6.84335">
        <ele>2499.57</ele>
        <time>2017-10-17T11:47:07Z</time>
      </trkpt>
      <trkpt lat="46.04048" lon="6.84337">
        <ele>2499.57</ele>
        <time>2017-10-17T11:47:08Z</time>
      </trkpt>
      <trkpt lat="46.04048" lon="6.84343">
        <ele>2500.05</ele>
        <time>2017-10-17T11:47:11Z</time>
      </trkpt>
      <trkpt lat="46.04048" lon="6.84345">
        <ele>2500.05</ele>
        <time>2017-10-17T11:47:12Z</time>
      </trkpt>
      <trkpt lat="46.04049" lon="6.84348">
        <ele>2500.05</ele>
        <time>2017-10-17T11:47:13Z</time>
      </trkpt>
      <trkpt lat="46.04049" lon="6.8435">
        <ele>2500.05</ele>
        <time>2017-10-17T11:47:14Z</time>
      </trkpt>
      <trkpt lat="46.04049" lon="6.84352">
        <ele>2500.05</ele>
        <time>2017-10-17T11:47:15Z</time>
      </trkpt>
      <trkpt lat="46.0405" lon="6.84355">
        <ele>2499.57</ele>
        <time>2017-10-17T11:47:16Z</time>
      </trkpt>
      <trkpt lat="46.04051" lon="6.84364">
        <ele>2499.08</ele>
        <time>2017-10-17T11:47:20Z</time>
      </trkpt>
      <trkpt lat="46.0405" lon="6.84366">
        <ele>2498.6</ele>
        <time>2017-10-17T11:47:21Z</time>
      </trkpt>
      <trkpt lat="46.0405" lon="6.84368">
        <ele>2498.6</ele>
        <time>2017-10-17T11:47:22Z</time>
      </trkpt>
      <trkpt lat="46.04049" lon="6.8437">
        <ele>2498.12</ele>
        <time>2017-10-17T11:47:23Z</time>
      </trkpt>
      <trkpt lat="46.04048" lon="6.84372">
        <ele>2497.64</ele>
        <time>2017-10-17T11:47:24Z</time>
      </trkpt>
      <trkpt lat="46.04046" lon="6.84374">
        <ele>2497.64</ele>
        <time>2017-10-17T11:47:25Z</time>
      </trkpt>
      <trkpt lat="46.04039" lon="6.84398">
        <ele>2498.12</ele>
        <time>2017-10-17T11:47:36Z</time>
      </trkpt>
      <trkpt lat="46.04034" lon="6.84424">
        <ele>2497.16</ele>
        <time>2017-10-17T11:47:47Z</time>
      </trkpt>
      <trkpt lat="46.04021" lon="6.84445">
        <ele>2495.72</ele>
        <time>2017-10-17T11:47:55Z</time>
      </trkpt>
      <trkpt lat="46.04006" lon="6.84466">
        <ele>2496.2</ele>
        <time>2017-10-17T11:48:04Z</time>
      </trkpt>
      <trkpt lat="46.03989" lon="6.8448">
        <ele>2498.12</ele>
        <time>2017-10-17T11:48:14Z</time>
      </trkpt>
      <trkpt lat="46.03973" lon="6.84497">
        <ele>2499.57</ele>
        <time>2017-10-17T11:48:24Z</time>
      </trkpt>
      <trkpt lat="46.03963" lon="6.84518">
        <ele>2500.53</ele>
        <time>2017-10-17T11:48:33Z</time>
      </trkpt>
      <trkpt lat="46.03955" lon="6.84544">
        <ele>2501.97</ele>
        <time>2017-10-17T11:48:43Z</time>
      </trkpt>
      <trkpt lat="46.03951" lon="6.84571">
        <ele>2502.45</ele>
        <time>2017-10-17T11:48:53Z</time>
      </trkpt>
      <trkpt lat="46.03949" lon="6.84598">
        <ele>2502.45</ele>
        <time>2017-10-17T11:49:02Z</time>
      </trkpt>
      <trkpt lat="46.03955" lon="6.84627">
        <ele>2501.49</ele>
        <time>2017-10-17T11:49:11Z</time>
      </trkpt>
      <trkpt lat="46.03956" lon="6.8463">
        <ele>2501.49</ele>
        <time>2017-10-17T11:49:12Z</time>
      </trkpt>
      <trkpt lat="46.03957" lon="6.84632">
        <ele>2501.49</ele>
        <time>2017-10-17T11:49:13Z</time>
      </trkpt>
      <trkpt lat="46.03971" lon="6.84651">
        <ele>2500.53</ele>
        <time>2017-10-17T11:49:22Z</time>
      </trkpt>
      <trkpt lat="46.03973" lon="6.84653">
        <ele>2501.01</ele>
        <time>2017-10-17T11:49:23Z</time>
      </trkpt>
      <trkpt lat="46.03974" lon="6.84655">
        <ele>2501.01</ele>
        <time>2017-10-17T11:49:24Z</time>
      </trkpt>
      <trkpt lat="46.03974" lon="6.84658">
        <ele>2501.01</ele>
        <time>2017-10-17T11:49:25Z</time>
      </trkpt>
      <trkpt lat="46.03977" lon="6.8468">
        <ele>2500.53</ele>
        <time>2017-10-17T11:49:32Z</time>
      </trkpt>
      <trkpt lat="46.03976" lon="6.84682">
        <ele>2501.01</ele>
        <time>2017-10-17T11:49:33Z</time>
      </trkpt>
      <trkpt lat="46.03975" lon="6.84685">
        <ele>2501.01</ele>
        <time>2017-10-17T11:49:34Z</time>
      </trkpt>
      <trkpt lat="46.03975" lon="6.84687">
        <ele>2501.01</ele>
        <time>2017-10-17T11:49:35Z</time>
      </trkpt>
      <trkpt lat="46.03976" lon="6.84689">
        <ele>2501.01</ele>
        <time>2017-10-17T11:49:36Z</time>
      </trkpt>
      <trkpt lat="46.03977" lon="6.84691">
        <ele>2501.49</ele>
        <time>2017-10-17T11:49:37Z</time>
      </trkpt>
      <trkpt lat="46.03978" lon="6.84693">
        <ele>2501.49</ele>
        <time>2017-10-17T11:49:38Z</time>
      </trkpt>
      <trkpt lat="46.0398" lon="6.84695">
        <ele>2501.49</ele>
        <time>2017-10-17T11:49:39Z</time>
      </trkpt>
      <trkpt lat="46.03986" lon="6.84705">
        <ele>2500.53</ele>
        <time>2017-10-17T11:49:43Z</time>
      </trkpt>
      <trkpt lat="46.03987" lon="6.84708">
        <ele>2500.53</ele>
        <time>2017-10-17T11:49:44Z</time>
      </trkpt>
      <trkpt lat="46.03986" lon="6.84711">
        <ele>2500.53</ele>
        <time>2017-10-17T11:49:45Z</time>
      </trkpt>
      <trkpt lat="46.03986" lon="6.84714">
        <ele>2500.53</ele>
        <time>2017-10-17T11:49:46Z</time>
      </trkpt>
      <trkpt lat="46.03985" lon="6.84716">
        <ele>2500.53</ele>
        <time>2017-10-17T11:49:47Z</time>
      </trkpt>
      <trkpt lat="46.03984" lon="6.84718">
        <ele>2501.01</ele>
        <time>2017-10-17T11:49:48Z</time>
      </trkpt>
      <trkpt lat="46.03983" lon="6.8472">
        <ele>2501.01</ele>
        <time>2017-10-17T11:49:49Z</time>
      </trkpt>
      <trkpt lat="46.03983" lon="6.84722">
        <ele>2501.49</ele>
        <time>2017-10-17T11:49:50Z</time>
      </trkpt>
      <trkpt lat="46.03982" lon="6.84724">
        <ele>2501.49</ele>
        <time>2017-10-17T11:49:51Z</time>
      </trkpt>
      <trkpt lat="46.03982" lon="6.84726">
        <ele>2501.97</ele>
        <time>2017-10-17T11:49:52Z</time>
      </trkpt>
      <trkpt lat="46.03981" lon="6.84728">
        <ele>2501.97</ele>
        <time>2017-10-17T11:49:53Z</time>
      </trkpt>
      <trkpt lat="46.0398" lon="6.8473">
        <ele>2502.45</ele>
        <time>2017-10-17T11:49:54Z</time>
      </trkpt>
      <trkpt lat="46.03979" lon="6.84732">
        <ele>2502.45</ele>
        <time>2017-10-17T11:49:55Z</time>
      </trkpt>
      <trkpt lat="46.03976" lon="6.84737">
        <ele>2503.41</ele>
        <time>2017-10-17T11:49:58Z</time>
      </trkpt>
      <trkpt lat="46.03973" lon="6.84741">
        <ele>2504.37</ele>
        <time>2017-10-17T11:50:01Z</time>
      </trkpt>
      <trkpt lat="46.03972" lon="6.84743">
        <ele>2504.37</ele>
        <time>2017-10-17T11:50:02Z</time>
      </trkpt>
      <trkpt lat="46.03971" lon="6.84745">
        <ele>2504.85</ele>
        <time>2017-10-17T11:50:03Z</time>
      </trkpt>
      <trkpt lat="46.0397" lon="6.84746">
        <ele>2505.33</ele>
        <time>2017-10-17T11:50:04Z</time>
      </trkpt>
      <trkpt lat="46.0397" lon="6.84748">
        <ele>2505.81</ele>
        <time>2017-10-17T11:50:05Z</time>
      </trkpt>
      <trkpt lat="46.03969" lon="6.84749">
        <ele>2505.81</ele>
        <time>2017-10-17T11:50:06Z</time>
      </trkpt>
      <trkpt lat="46.03968" lon="6.84751">
        <ele>2506.29</ele>
        <time>2017-10-17T11:50:07Z</time>
      </trkpt>
      <trkpt lat="46.0396" lon="6.84771">
        <ele>2507.26</ele>
        <time>2017-10-17T11:50:16Z</time>
      </trkpt>
      <trkpt lat="46.03958" lon="6.84781">
        <ele>2509.18</ele>
        <time>2017-10-17T11:50:25Z</time>
      </trkpt>
      <trkpt lat="46.03957" lon="6.84789">
        <ele>2508.7</ele>
        <time>2017-10-17T11:50:35Z</time>
      </trkpt>
      <trkpt lat="46.03959" lon="6.84796">
        <ele>2506.77</ele>
        <time>2017-10-17T11:50:41Z</time>
      </trkpt>
      <trkpt lat="46.03959" lon="6.84798">
        <ele>2506.29</ele>
        <time>2017-10-17T11:50:42Z</time>
      </trkpt>
      <trkpt lat="46.03957" lon="6.84811">
        <ele>2504.37</ele>
        <time>2017-10-17T11:50:48Z</time>
      </trkpt>
      <trkpt lat="46.03956" lon="6.84812">
        <ele>2504.37</ele>
        <time>2017-10-17T11:50:49Z</time>
      </trkpt>
      <trkpt lat="46.03956" lon="6.84813">
        <ele>2504.37</ele>
        <time>2017-10-17T11:50:50Z</time>
      </trkpt>
      <trkpt lat="46.03955" lon="6.84815">
        <ele>2504.37</ele>
        <time>2017-10-17T11:50:51Z</time>
      </trkpt>
      <trkpt lat="46.03955" lon="6.84817">
        <ele>2503.89</ele>
        <time>2017-10-17T11:50:52Z</time>
      </trkpt>
      <trkpt lat="46.03954" lon="6.84818">
        <ele>2503.89</ele>
        <time>2017-10-17T11:50:53Z</time>
      </trkpt>
      <trkpt lat="46.03953" lon="6.8482">
        <ele>2503.89</ele>
        <time>2017-10-17T11:50:54Z</time>
      </trkpt>
      <trkpt lat="46.03952" lon="6.84822">
        <ele>2503.89</ele>
        <time>2017-10-17T11:50:55Z</time>
      </trkpt>
      <trkpt lat="46.03951" lon="6.84822">
        <ele>2503.89</ele>
        <time>2017-10-17T11:50:56Z</time>
      </trkpt>
      <trkpt lat="46.03949" lon="6.84822">
        <ele>2503.89</ele>
        <time>2017-10-17T11:50:57Z</time>
      </trkpt>
      <trkpt lat="46.03948" lon="6.84822">
        <ele>2504.37</ele>
        <time>2017-10-17T11:50:58Z</time>
      </trkpt>
      <trkpt lat="46.03947" lon="6.84822">
        <ele>2504.37</ele>
        <time>2017-10-17T11:50:59Z</time>
      </trkpt>
      <trkpt lat="46.03945" lon="6.84822">
        <ele>2504.85</ele>
        <time>2017-10-17T11:51:00Z</time>
      </trkpt>
      <trkpt lat="46.03944" lon="6.84822">
        <ele>2504.85</ele>
        <time>2017-10-17T11:51:01Z</time>
      </trkpt>
      <trkpt lat="46.03943" lon="6.84823">
        <ele>2504.85</ele>
        <time>2017-10-17T11:51:02Z</time>
      </trkpt>
      <trkpt lat="46.03942" lon="6.84824">
        <ele>2505.81</ele>
        <time>2017-10-17T11:51:04Z</time>
      </trkpt>
      <trkpt lat="46.03941" lon="6.84825">
        <ele>2505.81</ele>
        <time>2017-10-17T11:51:05Z</time>
      </trkpt>
      <trkpt lat="46.03941" lon="6.84827">
        <ele>2506.29</ele>
        <time>2017-10-17T11:51:06Z</time>
      </trkpt>
      <trkpt lat="46.0394" lon="6.84829">
        <ele>2506.29</ele>
        <time>2017-10-17T11:51:07Z</time>
      </trkpt>
      <trkpt lat="46.0394" lon="6.8483">
        <ele>2506.77</ele>
        <time>2017-10-17T11:51:08Z</time>
      </trkpt>
      <trkpt lat="46.03935" lon="6.84839">
        <ele>2508.22</ele>
        <time>2017-10-17T11:51:14Z</time>
      </trkpt>
      <trkpt lat="46.03933" lon="6.84843">
        <ele>2508.7</ele>
        <time>2017-10-17T11:51:17Z</time>
      </trkpt>
      <trkpt lat="46.03932" lon="6.84844">
        <ele>2509.18</ele>
        <time>2017-10-17T11:51:18Z</time>
      </trkpt>
      <trkpt lat="46.03931" lon="6.84845">
        <ele>2509.18</ele>
        <time>2017-10-17T11:51:19Z</time>
      </trkpt>
      <trkpt lat="46.0393" lon="6.84846">
        <ele>2509.66</ele>
        <time>2017-10-17T11:51:20Z</time>
      </trkpt>
      <trkpt lat="46.03929" lon="6.84848">
        <ele>2510.14</ele>
        <time>2017-10-17T11:51:21Z</time>
      </trkpt>
      <trkpt lat="46.03926" lon="6.8485">
        <ele>2510.62</ele>
        <time>2017-10-17T11:51:24Z</time>
      </trkpt>
      <trkpt lat="46.03925" lon="6.84849">
        <ele>2511.1</ele>
        <time>2017-10-17T11:51:25Z</time>
      </trkpt>
      <trkpt lat="46.03923" lon="6.84851">
        <ele>2512.06</ele>
        <time>2017-10-17T11:51:28Z</time>
      </trkpt>
      <trkpt lat="46.0392" lon="6.84853">
        <ele>2513.5</ele>
        <time>2017-10-17T11:51:33Z</time>
      </trkpt>
      <trkpt lat="46.03918" lon="6.84854">
        <ele>2514.47</ele>
        <time>2017-10-17T11:51:36Z</time>
      </trkpt>
      <trkpt lat="46.03917" lon="6.84854">
        <ele>2514.95</ele>
        <time>2017-10-17T11:51:37Z</time>
      </trkpt>
      <trkpt lat="46.03916" lon="6.84855">
        <ele>2514.95</ele>
        <time>2017-10-17T11:51:38Z</time>
      </trkpt>
      <trkpt lat="46.03915" lon="6.84855">
        <ele>2515.43</ele>
        <time>2017-10-17T11:51:39Z</time>
      </trkpt>
      <trkpt lat="46.03914" lon="6.84856">
        <ele>2515.43</ele>
        <time>2017-10-17T11:51:40Z</time>
      </trkpt>
      <trkpt lat="46.03913" lon="6.84857">
        <ele>2515.43</ele>
        <time>2017-10-17T11:51:41Z</time>
      </trkpt>
      <trkpt lat="46.03913" lon="6.84858">
        <ele>2515.91</ele>
        <time>2017-10-17T11:51:42Z</time>
      </trkpt>
      <trkpt lat="46.03912" lon="6.84859">
        <ele>2515.91</ele>
        <time>2017-10-17T11:51:43Z</time>
      </trkpt>
      <trkpt lat="46.03911" lon="6.84861">
        <ele>2515.91</ele>
        <time>2017-10-17T11:51:44Z</time>
      </trkpt>
      <trkpt lat="46.0391" lon="6.84863">
        <ele>2515.91</ele>
        <time>2017-10-17T11:51:45Z</time>
      </trkpt>
      <trkpt lat="46.0391" lon="6.84864">
        <ele>2515.91</ele>
        <time>2017-10-17T11:51:46Z</time>
      </trkpt>
      <trkpt lat="46.03909" lon="6.84866">
        <ele>2516.39</ele>
        <time>2017-10-17T11:51:47Z</time>
      </trkpt>
      <trkpt lat="46.03909" lon="6.84867">
        <ele>2516.39</ele>
        <time>2017-10-17T11:51:48Z</time>
      </trkpt>
      <trkpt lat="46.03908" lon="6.84869">
        <ele>2516.39</ele>
        <time>2017-10-17T11:51:49Z</time>
      </trkpt>
      <trkpt lat="46.03908" lon="6.84871">
        <ele>2516.39</ele>
        <time>2017-10-17T11:51:50Z</time>
      </trkpt>
      <trkpt lat="46.03907" lon="6.84873">
        <ele>2516.39</ele>
        <time>2017-10-17T11:51:51Z</time>
      </trkpt>
      <trkpt lat="46.03906" lon="6.84874">
        <ele>2516.39</ele>
        <time>2017-10-17T11:51:52Z</time>
      </trkpt>
      <trkpt lat="46.03905" lon="6.84875">
        <ele>2516.87</ele>
        <time>2017-10-17T11:51:53Z</time>
      </trkpt>
      <trkpt lat="46.03904" lon="6.84876">
        <ele>2516.87</ele>
        <time>2017-10-17T11:51:54Z</time>
      </trkpt>
      <trkpt lat="46.03904" lon="6.84876">
        <ele>2517.35</ele>
        <time>2017-10-17T11:51:55Z</time>
      </trkpt>
      <trkpt lat="46.03896" lon="6.84883">
        <ele>2520.23</ele>
        <time>2017-10-17T11:52:07Z</time>
      </trkpt>
      <trkpt lat="46.03891" lon="6.84884">
        <ele>2521.68</ele>
        <time>2017-10-17T11:52:13Z</time>
      </trkpt>
      <trkpt lat="46.03887" lon="6.84889">
        <ele>2524.08</ele>
        <time>2017-10-17T11:52:21Z</time>
      </trkpt>
      <trkpt lat="46.03888" lon="6.8489">
        <ele>2524.56</ele>
        <time>2017-10-17T11:52:22Z</time>
      </trkpt>
      <trkpt lat="46.03888" lon="6.84895">
        <ele>2525.52</ele>
        <time>2017-10-17T11:52:26Z</time>
      </trkpt>
      <trkpt lat="46.03884" lon="6.84898">
        <ele>2526.96</ele>
        <time>2017-10-17T11:52:31Z</time>
      </trkpt>
      <trkpt lat="46.03883" lon="6.84898">
        <ele>2526.96</ele>
        <time>2017-10-17T11:52:32Z</time>
      </trkpt>
      <trkpt lat="46.0388" lon="6.84901">
        <ele>2528.4</ele>
        <time>2017-10-17T11:52:37Z</time>
      </trkpt>
      <trkpt lat="46.03879" lon="6.84904">
        <ele>2529.37</ele>
        <time>2017-10-17T11:52:41Z</time>
      </trkpt>
      <trkpt lat="46.03875" lon="6.84906">
        <ele>2530.81</ele>
        <time>2017-10-17T11:52:47Z</time>
      </trkpt>
      <trkpt lat="46.03874" lon="6.84909">
        <ele>2532.25</ele>
        <time>2017-10-17T11:52:52Z</time>
      </trkpt>
      <trkpt lat="46.03872" lon="6.8491">
        <ele>2532.73</ele>
        <time>2017-10-17T11:52:54Z</time>
      </trkpt>
      <trkpt lat="46.03871" lon="6.8491">
        <ele>2533.21</ele>
        <time>2017-10-17T11:52:55Z</time>
      </trkpt>
      <trkpt lat="46.03869" lon="6.84911">
        <ele>2533.21</ele>
        <time>2017-10-17T11:52:56Z</time>
      </trkpt>
      <trkpt lat="46.03868" lon="6.84911">
        <ele>2533.69</ele>
        <time>2017-10-17T11:52:57Z</time>
      </trkpt>
      <trkpt lat="46.03868" lon="6.84911">
        <ele>2534.17</ele>
        <time>2017-10-17T11:52:58Z</time>
      </trkpt>
      <trkpt lat="46.03866" lon="6.84913">
        <ele>2534.65</ele>
        <time>2017-10-17T11:53:01Z</time>
      </trkpt>
      <trkpt lat="46.03865" lon="6.84913">
        <ele>2534.65</ele>
        <time>2017-10-17T11:53:02Z</time>
      </trkpt>
      <trkpt lat="46.03864" lon="6.84912">
        <ele>2535.13</ele>
        <time>2017-10-17T11:53:03Z</time>
      </trkpt>
      <trkpt lat="46.03861" lon="6.84912">
        <ele>2535.61</ele>
        <time>2017-10-17T11:53:06Z</time>
      </trkpt>
      <trkpt lat="46.0386" lon="6.84913">
        <ele>2536.1</ele>
        <time>2017-10-17T11:53:07Z</time>
      </trkpt>
      <trkpt lat="46.03859" lon="6.84915">
        <ele>2536.58</ele>
        <time>2017-10-17T11:53:09Z</time>
      </trkpt>
      <trkpt lat="46.03857" lon="6.84916">
        <ele>2537.06</ele>
        <time>2017-10-17T11:53:11Z</time>
      </trkpt>
      <trkpt lat="46.03856" lon="6.84916">
        <ele>2537.54</ele>
        <time>2017-10-17T11:53:12Z</time>
      </trkpt>
      <trkpt lat="46.03855" lon="6.84916">
        <ele>2538.02</ele>
        <time>2017-10-17T11:53:13Z</time>
      </trkpt>
      <trkpt lat="46.03854" lon="6.84916">
        <ele>2538.02</ele>
        <time>2017-10-17T11:53:14Z</time>
      </trkpt>
      <trkpt lat="46.03853" lon="6.84916">
        <ele>2538.02</ele>
        <time>2017-10-17T11:53:15Z</time>
      </trkpt>
      <trkpt lat="46.03851" lon="6.84916">
        <ele>2538.5</ele>
        <time>2017-10-17T11:53:17Z</time>
      </trkpt>
      <trkpt lat="46.0385" lon="6.84917">
        <ele>2538.98</ele>
        <time>2017-10-17T11:53:19Z</time>
      </trkpt>
      <trkpt lat="46.03848" lon="6.84919">
        <ele>2539.46</ele>
        <time>2017-10-17T11:53:22Z</time>
      </trkpt>
      <trkpt lat="46.03847" lon="6.8492">
        <ele>2539.94</ele>
        <time>2017-10-17T11:53:23Z</time>
      </trkpt>
      <trkpt lat="46.03846" lon="6.84921">
        <ele>2539.94</ele>
        <time>2017-10-17T11:53:24Z</time>
      </trkpt>
      <trkpt lat="46.03838" lon="6.84922">
        <ele>2541.38</ele>
        <time>2017-10-17T11:53:31Z</time>
      </trkpt>
      <trkpt lat="46.03837" lon="6.84922">
        <ele>2541.86</ele>
        <time>2017-10-17T11:53:32Z</time>
      </trkpt>
      <trkpt lat="46.03836" lon="6.84923">
        <ele>2541.86</ele>
        <time>2017-10-17T11:53:33Z</time>
      </trkpt>
      <trkpt lat="46.03834" lon="6.84923">
        <ele>2542.34</ele>
        <time>2017-10-17T11:53:35Z</time>
      </trkpt>
      <trkpt lat="46.03833" lon="6.84924">
        <ele>2542.82</ele>
        <time>2017-10-17T11:53:36Z</time>
      </trkpt>
      <trkpt lat="46.03833" lon="6.84925">
        <ele>2542.82</ele>
        <time>2017-10-17T11:53:37Z</time>
      </trkpt>
      <trkpt lat="46.03832" lon="6.84926">
        <ele>2543.31</ele>
        <time>2017-10-17T11:53:38Z</time>
      </trkpt>
      <trkpt lat="46.03829" lon="6.8493">
        <ele>2545.23</ele>
        <time>2017-10-17T11:53:44Z</time>
      </trkpt>
      <trkpt lat="46.03829" lon="6.84931">
        <ele>2545.23</ele>
        <time>2017-10-17T11:53:45Z</time>
      </trkpt>
      <trkpt lat="46.03829" lon="6.84932">
        <ele>2545.71</ele>
        <time>2017-10-17T11:53:46Z</time>
      </trkpt>
      <trkpt lat="46.0383" lon="6.84934">
        <ele>2546.19</ele>
        <time>2017-10-17T11:53:47Z</time>
      </trkpt>
      <trkpt lat="46.0383" lon="6.84936">
        <ele>2546.19</ele>
        <time>2017-10-17T11:53:49Z</time>
      </trkpt>
      <trkpt lat="46.0383" lon="6.84937">
        <ele>2546.67</ele>
        <time>2017-10-17T11:53:50Z</time>
      </trkpt>
      <trkpt lat="46.03831" lon="6.84938">
        <ele>2547.15</ele>
        <time>2017-10-17T11:53:51Z</time>
      </trkpt>
      <trkpt lat="46.03832" lon="6.84946">
        <ele>2548.59</ele>
        <time>2017-10-17T11:53:58Z</time>
      </trkpt>
      <trkpt lat="46.03831" lon="6.84947">
        <ele>2549.07</ele>
        <time>2017-10-17T11:53:59Z</time>
      </trkpt>
      <trkpt lat="46.0383" lon="6.84947">
        <ele>2549.55</ele>
        <time>2017-10-17T11:54:00Z</time>
      </trkpt>
      <trkpt lat="46.03829" lon="6.84948">
        <ele>2550.03</ele>
        <time>2017-10-17T11:54:02Z</time>
      </trkpt>
      <trkpt lat="46.03828" lon="6.84949">
        <ele>2550.03</ele>
        <time>2017-10-17T11:54:03Z</time>
      </trkpt>
      <trkpt lat="46.03827" lon="6.84949">
        <ele>2550.51</ele>
        <time>2017-10-17T11:54:04Z</time>
      </trkpt>
      <trkpt lat="46.03823" lon="6.84956">
        <ele>2553.4</ele>
        <time>2017-10-17T11:54:17Z</time>
      </trkpt>
      <trkpt lat="46.03823" lon="6.84957">
        <ele>2553.88</ele>
        <time>2017-10-17T11:54:18Z</time>
      </trkpt>
      <trkpt lat="46.03823" lon="6.84958">
        <ele>2553.88</ele>
        <time>2017-10-17T11:54:19Z</time>
      </trkpt>
      <trkpt lat="46.03822" lon="6.84959">
        <ele>2554.36</ele>
        <time>2017-10-17T11:54:20Z</time>
      </trkpt>
      <trkpt lat="46.03813" lon="6.84965">
        <ele>2557.24</ele>
        <time>2017-10-17T11:54:31Z</time>
      </trkpt>
      <trkpt lat="46.03811" lon="6.84972">
        <ele>2559.65</ele>
        <time>2017-10-17T11:54:39Z</time>
      </trkpt>
      <trkpt lat="46.03811" lon="6.84973">
        <ele>2560.13</ele>
        <time>2017-10-17T11:54:40Z</time>
      </trkpt>
      <trkpt lat="46.03811" lon="6.84975">
        <ele>2560.13</ele>
        <time>2017-10-17T11:54:41Z</time>
      </trkpt>
      <trkpt lat="46.03811" lon="6.84976">
        <ele>2560.13</ele>
        <time>2017-10-17T11:54:42Z</time>
      </trkpt>
      <trkpt lat="46.0381" lon="6.84977">
        <ele>2560.61</ele>
        <time>2017-10-17T11:54:43Z</time>
      </trkpt>
      <trkpt lat="46.03808" lon="6.84977">
        <ele>2561.57</ele>
        <time>2017-10-17T11:54:46Z</time>
      </trkpt>
      <trkpt lat="46.03807" lon="6.84977">
        <ele>2561.57</ele>
        <time>2017-10-17T11:54:47Z</time>
      </trkpt>
      <trkpt lat="46.03806" lon="6.84977">
        <ele>2561.57</ele>
        <time>2017-10-17T11:54:48Z</time>
      </trkpt>
      <trkpt lat="46.03805" lon="6.84977">
        <ele>2561.57</ele>
        <time>2017-10-17T11:54:49Z</time>
      </trkpt>
      <trkpt lat="46.03804" lon="6.84977">
        <ele>2562.05</ele>
        <time>2017-10-17T11:54:50Z</time>
      </trkpt>
      <trkpt lat="46.03803" lon="6.84977">
        <ele>2562.05</ele>
        <time>2017-10-17T11:54:51Z</time>
      </trkpt>
      <trkpt lat="46.03794" lon="6.84976">
        <ele>2563.97</ele>
        <time>2017-10-17T11:55:00Z</time>
      </trkpt>
      <trkpt lat="46.03794" lon="6.84975">
        <ele>2563.97</ele>
        <time>2017-10-17T11:55:01Z</time>
      </trkpt>
      <trkpt lat="46.03793" lon="6.84975">
        <ele>2564.45</ele>
        <time>2017-10-17T11:55:02Z</time>
      </trkpt>
      <trkpt lat="46.03792" lon="6.84974">
        <ele>2564.93</ele>
        <time>2017-10-17T11:55:03Z</time>
      </trkpt>
      <trkpt lat="46.0379" lon="6.84974">
        <ele>2565.42</ele>
        <time>2017-10-17T11:55:05Z</time>
      </trkpt>
      <trkpt lat="46.03789" lon="6.84974">
        <ele>2565.42</ele>
        <time>2017-10-17T11:55:06Z</time>
      </trkpt>
      <trkpt lat="46.03788" lon="6.84973">
        <ele>2565.42</ele>
        <time>2017-10-17T11:55:07Z</time>
      </trkpt>
      <trkpt lat="46.03787" lon="6.84973">
        <ele>2565.42</ele>
        <time>2017-10-17T11:55:08Z</time>
      </trkpt>
      <trkpt lat="46.03789" lon="6.84977">
        <ele>2567.34</ele>
        <time>2017-10-17T11:55:16Z</time>
      </trkpt>
      <trkpt lat="46.03789" lon="6.84979">
        <ele>2567.82</ele>
        <time>2017-10-17T11:55:17Z</time>
      </trkpt>
      <trkpt lat="46.03789" lon="6.8498">
        <ele>2567.82</ele>
        <time>2017-10-17T11:55:18Z</time>
      </trkpt>
      <trkpt lat="46.03789" lon="6.84981">
        <ele>2567.82</ele>
        <time>2017-10-17T11:55:19Z</time>
      </trkpt>
      <trkpt lat="46.0379" lon="6.84985">
        <ele>2568.78</ele>
        <time>2017-10-17T11:55:22Z</time>
      </trkpt>
      <trkpt lat="46.0379" lon="6.84985">
        <ele>2568.78</ele>
        <time>2017-10-17T11:55:23Z</time>
      </trkpt>
      <trkpt lat="46.03791" lon="6.84986">
        <ele>2569.26</ele>
        <time>2017-10-17T11:55:24Z</time>
      </trkpt>
      <trkpt lat="46.03792" lon="6.84988">
        <ele>2569.26</ele>
        <time>2017-10-17T11:55:25Z</time>
      </trkpt>
      <trkpt lat="46.03795" lon="6.84996">
        <ele>2571.66</ele>
        <time>2017-10-17T11:55:33Z</time>
      </trkpt>
      <trkpt lat="46.03796" lon="6.84998">
        <ele>2572.14</ele>
        <time>2017-10-17T11:55:34Z</time>
      </trkpt>
      <trkpt lat="46.03794" lon="6.8501">
        <ele>2575.03</ele>
        <time>2017-10-17T11:55:46Z</time>
      </trkpt>
      <trkpt lat="46.03793" lon="6.85011">
        <ele>2575.51</ele>
        <time>2017-10-17T11:55:47Z</time>
      </trkpt>
      <trkpt lat="46.03792" lon="6.85015">
        <ele>2576.95</ele>
        <time>2017-10-17T11:55:53Z</time>
      </trkpt>
      <trkpt lat="46.03792" lon="6.85016">
        <ele>2577.43</ele>
        <time>2017-10-17T11:55:54Z</time>
      </trkpt>
      <trkpt lat="46.03791" lon="6.85017">
        <ele>2577.43</ele>
        <time>2017-10-17T11:55:55Z</time>
      </trkpt>
      <trkpt lat="46.03785" lon="6.85022">
        <ele>2580.8</ele>
        <time>2017-10-17T11:56:07Z</time>
      </trkpt>
      <trkpt lat="46.03785" lon="6.85025">
        <ele>2581.76</ele>
        <time>2017-10-17T11:56:10Z</time>
      </trkpt>
      <trkpt lat="46.03783" lon="6.85027">
        <ele>2582.24</ele>
        <time>2017-10-17T11:56:13Z</time>
      </trkpt>
      <trkpt lat="46.03783" lon="6.85028">
        <ele>2582.72</ele>
        <time>2017-10-17T11:56:14Z</time>
      </trkpt>
      <trkpt lat="46.03779" lon="6.85031">
        <ele>2584.16</ele>
        <time>2017-10-17T11:56:20Z</time>
      </trkpt>
      <trkpt lat="46.03778" lon="6.85031">
        <ele>2584.16</ele>
        <time>2017-10-17T11:56:21Z</time>
      </trkpt>
      <trkpt lat="46.03777" lon="6.85032">
        <ele>2584.64</ele>
        <time>2017-10-17T11:56:22Z</time>
      </trkpt>
      <trkpt lat="46.03773" lon="6.85038">
        <ele>2587.04</ele>
        <time>2017-10-17T11:56:31Z</time>
      </trkpt>
      <trkpt lat="46.03771" lon="6.85038">
        <ele>2587.53</ele>
        <time>2017-10-17T11:56:33Z</time>
      </trkpt>
      <trkpt lat="46.0377" lon="6.85039">
        <ele>2588.01</ele>
        <time>2017-10-17T11:56:34Z</time>
      </trkpt>
      <trkpt lat="46.03766" lon="6.8504">
        <ele>2588.97</ele>
        <time>2017-10-17T11:56:40Z</time>
      </trkpt>
      <trkpt lat="46.03764" lon="6.85041">
        <ele>2589.45</ele>
        <time>2017-10-17T11:56:42Z</time>
      </trkpt>
      <trkpt lat="46.03763" lon="6.85041">
        <ele>2589.45</ele>
        <time>2017-10-17T11:56:43Z</time>
      </trkpt>
      <trkpt lat="46.03759" lon="6.85042">
        <ele>2591.37</ele>
        <time>2017-10-17T11:56:49Z</time>
      </trkpt>
      <trkpt lat="46.03758" lon="6.85042">
        <ele>2591.37</ele>
        <time>2017-10-17T11:56:50Z</time>
      </trkpt>
      <trkpt lat="46.03757" lon="6.85042">
        <ele>2591.37</ele>
        <time>2017-10-17T11:56:51Z</time>
      </trkpt>
      <trkpt lat="46.03751" lon="6.85041">
        <ele>2591.85</ele>
        <time>2017-10-17T11:56:57Z</time>
      </trkpt>
      <trkpt lat="46.03748" lon="6.85044">
        <ele>2593.29</ele>
        <time>2017-10-17T11:57:01Z</time>
      </trkpt>
      <trkpt lat="46.03745" lon="6.85045">
        <ele>2593.77</ele>
        <time>2017-10-17T11:57:04Z</time>
      </trkpt>
      <trkpt lat="46.03744" lon="6.85044">
        <ele>2594.25</ele>
        <time>2017-10-17T11:57:05Z</time>
      </trkpt>
      <trkpt lat="46.03743" lon="6.85044">
        <ele>2594.74</ele>
        <time>2017-10-17T11:57:06Z</time>
      </trkpt>
      <trkpt lat="46.03742" lon="6.85044">
        <ele>2594.74</ele>
        <time>2017-10-17T11:57:07Z</time>
      </trkpt>
      <trkpt lat="46.0374" lon="6.85044">
        <ele>2595.22</ele>
        <time>2017-10-17T11:57:09Z</time>
      </trkpt>
      <trkpt lat="46.03742" lon="6.85047">
        <ele>2596.18</ele>
        <time>2017-10-17T11:57:14Z</time>
      </trkpt>
      <trkpt lat="46.03742" lon="6.85049">
        <ele>2596.18</ele>
        <time>2017-10-17T11:57:15Z</time>
      </trkpt>
      <trkpt lat="46.03742" lon="6.85052">
        <ele>2597.62</ele>
        <time>2017-10-17T11:57:18Z</time>
      </trkpt>
      <trkpt lat="46.0374" lon="6.85052">
        <ele>2598.1</ele>
        <time>2017-10-17T11:57:20Z</time>
      </trkpt>
      <trkpt lat="46.03739" lon="6.85053">
        <ele>2598.58</ele>
        <time>2017-10-17T11:57:21Z</time>
      </trkpt>
      <trkpt lat="46.03737" lon="6.85054">
        <ele>2599.06</ele>
        <time>2017-10-17T11:57:23Z</time>
      </trkpt>
      <trkpt lat="46.03736" lon="6.85058">
        <ele>2600.98</ele>
        <time>2017-10-17T11:57:31Z</time>
      </trkpt>
      <trkpt lat="46.03737" lon="6.85061">
        <ele>2601.95</ele>
        <time>2017-10-17T11:57:34Z</time>
      </trkpt>
      <trkpt lat="46.03731" lon="6.85066">
        <ele>2604.83</ele>
        <time>2017-10-17T11:57:46Z</time>
      </trkpt>
      <trkpt lat="46.03728" lon="6.85073">
        <ele>2608.19</ele>
        <time>2017-10-17T11:57:55Z</time>
      </trkpt>
      <trkpt lat="46.03728" lon="6.85075">
        <ele>2608.19</ele>
        <time>2017-10-17T11:57:56Z</time>
      </trkpt>
      <trkpt lat="46.03726" lon="6.85077">
        <ele>2609.64</ele>
        <time>2017-10-17T11:57:59Z</time>
      </trkpt>
      <trkpt lat="46.03725" lon="6.85077">
        <ele>2609.64</ele>
        <time>2017-10-17T11:58:00Z</time>
      </trkpt>
      <trkpt lat="46.03723" lon="6.85077">
        <ele>2610.6</ele>
        <time>2017-10-17T11:58:03Z</time>
      </trkpt>
      <trkpt lat="46.03722" lon="6.85077">
        <ele>2610.6</ele>
        <time>2017-10-17T11:58:04Z</time>
      </trkpt>
      <trkpt lat="46.03717" lon="6.85079">
        <ele>2612.04</ele>
        <time>2017-10-17T11:58:11Z</time>
      </trkpt>
      <trkpt lat="46.03708" lon="6.85081">
        <ele>2615.4</ele>
        <time>2017-10-17T11:58:23Z</time>
      </trkpt>
      <trkpt lat="46.03706" lon="6.85081">
        <ele>2615.88</ele>
        <time>2017-10-17T11:58:25Z</time>
      </trkpt>
      <trkpt lat="46.03701" lon="6.85085">
        <ele>2618.29</ele>
        <time>2017-10-17T11:58:34Z</time>
      </trkpt>
      <trkpt lat="46.03701" lon="6.85087">
        <ele>2619.73</ele>
        <time>2017-10-17T11:58:38Z</time>
      </trkpt>
      <trkpt lat="46.03701" lon="6.85089">
        <ele>2620.21</ele>
        <time>2017-10-17T11:58:40Z</time>
      </trkpt>
      <trkpt lat="46.03701" lon="6.8509">
        <ele>2620.21</ele>
        <time>2017-10-17T11:58:41Z</time>
      </trkpt>
      <trkpt lat="46.037" lon="6.8509">
        <ele>2621.17</ele>
        <time>2017-10-17T11:58:43Z</time>
      </trkpt>
      <trkpt lat="46.03699" lon="6.8509">
        <ele>2621.17</ele>
        <time>2017-10-17T11:58:44Z</time>
      </trkpt>
      <trkpt lat="46.03695" lon="6.85091">
        <ele>2622.13</ele>
        <time>2017-10-17T11:58:50Z</time>
      </trkpt>
      <trkpt lat="46.03689" lon="6.85096">
        <ele>2625.02</ele>
        <time>2017-10-17T11:59:01Z</time>
      </trkpt>
      <trkpt lat="46.03686" lon="6.85099">
        <ele>2626.94</ele>
        <time>2017-10-17T11:59:07Z</time>
      </trkpt>
      <trkpt lat="46.03679" lon="6.85106">
        <ele>2628.86</ele>
        <time>2017-10-17T11:59:19Z</time>
      </trkpt>
      <trkpt lat="46.03677" lon="6.85107">
        <ele>2629.82</ele>
        <time>2017-10-17T11:59:21Z</time>
      </trkpt>
      <trkpt lat="46.03676" lon="6.85107">
        <ele>2630.3</ele>
        <time>2017-10-17T11:59:22Z</time>
      </trkpt>
      <trkpt lat="46.03672" lon="6.85108">
        <ele>2631.75</ele>
        <time>2017-10-17T11:59:27Z</time>
      </trkpt>
      <trkpt lat="46.03666" lon="6.85116">
        <ele>2634.63</ele>
        <time>2017-10-17T11:59:39Z</time>
      </trkpt>
      <trkpt lat="46.03664" lon="6.85116">
        <ele>2635.11</ele>
        <time>2017-10-17T11:59:40Z</time>
      </trkpt>
      <trkpt lat="46.03664" lon="6.85117">
        <ele>2635.11</ele>
        <time>2017-10-17T11:59:41Z</time>
      </trkpt>
      <trkpt lat="46.03663" lon="6.85117">
        <ele>2635.11</ele>
        <time>2017-10-17T11:59:42Z</time>
      </trkpt>
      <trkpt lat="46.03661" lon="6.85119">
        <ele>2636.07</ele>
        <time>2017-10-17T11:59:45Z</time>
      </trkpt>
      <trkpt lat="46.03658" lon="6.85124">
        <ele>2638.48</ele>
        <time>2017-10-17T11:59:54Z</time>
      </trkpt>
      <trkpt lat="46.03657" lon="6.85126">
        <ele>2638.48</ele>
        <time>2017-10-17T11:59:55Z</time>
      </trkpt>
      <trkpt lat="46.03656" lon="6.85126">
        <ele>2638.96</ele>
        <time>2017-10-17T11:59:56Z</time>
      </trkpt>
      <trkpt lat="46.03646" lon="6.8513">
        <ele>2641.36</ele>
        <time>2017-10-17T12:00:07Z</time>
      </trkpt>
      <trkpt lat="46.03645" lon="6.85134">
        <ele>2643.28</ele>
        <time>2017-10-17T12:00:13Z</time>
      </trkpt>
      <trkpt lat="46.03643" lon="6.85134">
        <ele>2643.76</ele>
        <time>2017-10-17T12:00:14Z</time>
      </trkpt>
      <trkpt lat="46.03642" lon="6.85134">
        <ele>2643.76</ele>
        <time>2017-10-17T12:00:15Z</time>
      </trkpt>
      <trkpt lat="46.03641" lon="6.85134">
        <ele>2643.76</ele>
        <time>2017-10-17T12:00:16Z</time>
      </trkpt>
      <trkpt lat="46.03633" lon="6.85132">
        <ele>2645.21</ele>
        <time>2017-10-17T12:00:23Z</time>
      </trkpt>
      <trkpt lat="46.03632" lon="6.85132">
        <ele>2645.21</ele>
        <time>2017-10-17T12:00:24Z</time>
      </trkpt>
      <trkpt lat="46.03631" lon="6.85132">
        <ele>2645.21</ele>
        <time>2017-10-17T12:00:25Z</time>
      </trkpt>
      <trkpt lat="46.0363" lon="6.85132">
        <ele>2645.21</ele>
        <time>2017-10-17T12:00:26Z</time>
      </trkpt>
      <trkpt lat="46.03626" lon="6.85133">
        <ele>2648.09</ele>
        <time>2017-10-17T12:00:36Z</time>
      </trkpt>
      <trkpt lat="46.03623" lon="6.85134">
        <ele>2648.57</ele>
        <time>2017-10-17T12:00:39Z</time>
      </trkpt>
      <trkpt lat="46.0362" lon="6.85134">
        <ele>2649.53</ele>
        <time>2017-10-17T12:00:43Z</time>
      </trkpt>
      <trkpt lat="46.03618" lon="6.85134">
        <ele>2650.01</ele>
        <time>2017-10-17T12:00:44Z</time>
      </trkpt>
      <trkpt lat="46.03617" lon="6.85132">
        <ele>2650.01</ele>
        <time>2017-10-17T12:00:45Z</time>
      </trkpt>
      <trkpt lat="46.03616" lon="6.85132">
        <ele>2650.01</ele>
        <time>2017-10-17T12:00:46Z</time>
      </trkpt>
      <trkpt lat="46.03615" lon="6.85131">
        <ele>2650.01</ele>
        <time>2017-10-17T12:00:47Z</time>
      </trkpt>
      <trkpt lat="46.03607" lon="6.85134">
        <ele>2653.38</ele>
        <time>2017-10-17T12:00:59Z</time>
      </trkpt>
      <trkpt lat="46.03601" lon="6.85138">
        <ele>2656.74</ele>
        <time>2017-10-17T12:01:10Z</time>
      </trkpt>
      <trkpt lat="46.03603" lon="6.8514">
        <ele>2657.22</ele>
        <time>2017-10-17T12:01:12Z</time>
      </trkpt>
      <trkpt lat="46.03606" lon="6.85151">
        <ele>2659.62</ele>
        <time>2017-10-17T12:01:24Z</time>
      </trkpt>
      <trkpt lat="46.03605" lon="6.85151">
        <ele>2660.11</ele>
        <time>2017-10-17T12:01:25Z</time>
      </trkpt>
      <trkpt lat="46.03604" lon="6.85152">
        <ele>2660.11</ele>
        <time>2017-10-17T12:01:26Z</time>
      </trkpt>
      <trkpt lat="46.03604" lon="6.85155">
        <ele>2662.03</ele>
        <time>2017-10-17T12:01:33Z</time>
      </trkpt>
      <trkpt lat="46.03605" lon="6.85162">
        <ele>2664.43</ele>
        <time>2017-10-17T12:01:42Z</time>
      </trkpt>
      <trkpt lat="46.03601" lon="6.85164">
        <ele>2665.87</ele>
        <time>2017-10-17T12:01:48Z</time>
      </trkpt>
      <trkpt lat="46.03599" lon="6.85165">
        <ele>2666.83</ele>
        <time>2017-10-17T12:01:51Z</time>
      </trkpt>
      <trkpt lat="46.03596" lon="6.85165">
        <ele>2667.8</ele>
        <time>2017-10-17T12:01:55Z</time>
      </trkpt>
      <trkpt lat="46.03595" lon="6.85165">
        <ele>2667.8</ele>
        <time>2017-10-17T12:01:56Z</time>
      </trkpt>
      <trkpt lat="46.03593" lon="6.85167">
        <ele>2668.76</ele>
        <time>2017-10-17T12:01:59Z</time>
      </trkpt>
      <trkpt lat="46.03594" lon="6.85171">
        <ele>2670.2</ele>
        <time>2017-10-17T12:02:04Z</time>
      </trkpt>
      <trkpt lat="46.03595" lon="6.85173">
        <ele>2670.2</ele>
        <time>2017-10-17T12:02:05Z</time>
      </trkpt>
      <trkpt lat="46.03593" lon="6.85173">
        <ele>2670.68</ele>
        <time>2017-10-17T12:02:07Z</time>
      </trkpt>
      <trkpt lat="46.03591" lon="6.85174">
        <ele>2671.16</ele>
        <time>2017-10-17T12:02:10Z</time>
      </trkpt>
      <trkpt lat="46.03589" lon="6.85175">
        <ele>2672.6</ele>
        <time>2017-10-17T12:02:13Z</time>
      </trkpt>
      <trkpt lat="46.03582" lon="6.85178">
        <ele>2674.52</ele>
        <time>2017-10-17T12:02:22Z</time>
      </trkpt>
      <trkpt lat="46.03581" lon="6.85179">
        <ele>2675.01</ele>
        <time>2017-10-17T12:02:23Z</time>
      </trkpt>
      <trkpt lat="46.0358" lon="6.8518">
        <ele>2675.01</ele>
        <time>2017-10-17T12:02:24Z</time>
      </trkpt>
      <trkpt lat="46.03579" lon="6.8518">
        <ele>2675.49</ele>
        <time>2017-10-17T12:02:25Z</time>
      </trkpt>
      <trkpt lat="46.03578" lon="6.85181">
        <ele>2675.49</ele>
        <time>2017-10-17T12:02:26Z</time>
      </trkpt>
      <trkpt lat="46.03577" lon="6.85182">
        <ele>2675.97</ele>
        <time>2017-10-17T12:02:27Z</time>
      </trkpt>
      <trkpt lat="46.03575" lon="6.85182">
        <ele>2675.97</ele>
        <time>2017-10-17T12:02:28Z</time>
      </trkpt>
      <trkpt lat="46.03571" lon="6.85189">
        <ele>2678.85</ele>
        <time>2017-10-17T12:02:41Z</time>
      </trkpt>
      <trkpt lat="46.03571" lon="6.8519">
        <ele>2679.33</ele>
        <time>2017-10-17T12:02:42Z</time>
      </trkpt>
      <trkpt lat="46.03573" lon="6.85195">
        <ele>2681.25</ele>
        <time>2017-10-17T12:02:49Z</time>
      </trkpt>
      <trkpt lat="46.03572" lon="6.85197">
        <ele>2682.22</ele>
        <time>2017-10-17T12:02:51Z</time>
      </trkpt>
      <trkpt lat="46.03571" lon="6.85198">
        <ele>2682.7</ele>
        <time>2017-10-17T12:02:52Z</time>
      </trkpt>
      <trkpt lat="46.03567" lon="6.85203">
        <ele>2685.58</ele>
        <time>2017-10-17T12:03:03Z</time>
      </trkpt>
      <trkpt lat="46.03564" lon="6.85209">
        <ele>2687.5</ele>
        <time>2017-10-17T12:03:11Z</time>
      </trkpt>
      <trkpt lat="46.03563" lon="6.8521">
        <ele>2687.5</ele>
        <time>2017-10-17T12:03:12Z</time>
      </trkpt>
      <trkpt lat="46.03562" lon="6.8521">
        <ele>2687.5</ele>
        <time>2017-10-17T12:03:13Z</time>
      </trkpt>
      <trkpt lat="46.03561" lon="6.85209">
        <ele>2687.98</ele>
        <time>2017-10-17T12:03:14Z</time>
      </trkpt>
      <trkpt lat="46.0356" lon="6.85208">
        <ele>2687.98</ele>
        <time>2017-10-17T12:03:15Z</time>
      </trkpt>
      <trkpt lat="46.03557" lon="6.85207">
        <ele>2688.46</ele>
        <time>2017-10-17T12:03:19Z</time>
      </trkpt>
      <trkpt lat="46.03555" lon="6.85207">
        <ele>2688.46</ele>
        <time>2017-10-17T12:03:21Z</time>
      </trkpt>
      <trkpt lat="46.03554" lon="6.85208">
        <ele>2688.94</ele>
        <time>2017-10-17T12:03:22Z</time>
      </trkpt>
      <trkpt lat="46.0355" lon="6.8521">
        <ele>2691.83</ele>
        <time>2017-10-17T12:03:35Z</time>
      </trkpt>
      <trkpt lat="46.03549" lon="6.85211">
        <ele>2692.79</ele>
        <time>2017-10-17T12:03:38Z</time>
      </trkpt>
      <trkpt lat="46.03545" lon="6.85212">
        <ele>2693.75</ele>
        <time>2017-10-17T12:03:43Z</time>
      </trkpt>
      <trkpt lat="46.03544" lon="6.85213">
        <ele>2694.23</ele>
        <time>2017-10-17T12:03:44Z</time>
      </trkpt>
      <trkpt lat="46.03543" lon="6.85213">
        <ele>2694.23</ele>
        <time>2017-10-17T12:03:45Z</time>
      </trkpt>
      <trkpt lat="46.03542" lon="6.85214">
        <ele>2694.71</ele>
        <time>2017-10-17T12:03:46Z</time>
      </trkpt>
      <trkpt lat="46.03541" lon="6.85217">
        <ele>2696.15</ele>
        <time>2017-10-17T12:03:51Z</time>
      </trkpt>
      <trkpt lat="46.03537" lon="6.85218">
        <ele>2697.6</ele>
        <time>2017-10-17T12:03:57Z</time>
      </trkpt>
      <trkpt lat="46.03528" lon="6.85222">
        <ele>2700</ele>
        <time>2017-10-17T12:04:08Z</time>
      </trkpt>
      <trkpt lat="46.03526" lon="6.85223">
        <ele>2700.48</ele>
        <time>2017-10-17T12:04:10Z</time>
      </trkpt>
      <trkpt lat="46.03524" lon="6.85224">
        <ele>2700.96</ele>
        <time>2017-10-17T12:04:13Z</time>
      </trkpt>
      <trkpt lat="46.03523" lon="6.85225">
        <ele>2701.92</ele>
        <time>2017-10-17T12:04:15Z</time>
      </trkpt>
      <trkpt lat="46.03523" lon="6.85225">
        <ele>2702.4</ele>
        <time>2017-10-17T12:04:16Z</time>
      </trkpt>
      <trkpt lat="46.03521" lon="6.85229">
        <ele>2703.36</ele>
        <time>2017-10-17T12:04:21Z</time>
      </trkpt>
      <trkpt lat="46.03523" lon="6.85234">
        <ele>2706.73</ele>
        <time>2017-10-17T12:04:31Z</time>
      </trkpt>
      <trkpt lat="46.03526" lon="6.85235">
        <ele>2707.21</ele>
        <time>2017-10-17T12:04:33Z</time>
      </trkpt>
      <trkpt lat="46.03527" lon="6.85235">
        <ele>2707.69</ele>
        <time>2017-10-17T12:04:34Z</time>
      </trkpt>
      <trkpt lat="46.03528" lon="6.85236">
        <ele>2707.69</ele>
        <time>2017-10-17T12:04:35Z</time>
      </trkpt>
      <trkpt lat="46.03529" lon="6.85236">
        <ele>2707.69</ele>
        <time>2017-10-17T12:04:36Z</time>
      </trkpt>
      <trkpt lat="46.0353" lon="6.85237">
        <ele>2708.17</ele>
        <time>2017-10-17T12:04:37Z</time>
      </trkpt>
      <trkpt lat="46.03531" lon="6.85237">
        <ele>2708.17</ele>
        <time>2017-10-17T12:04:38Z</time>
      </trkpt>
      <trkpt lat="46.03532" lon="6.85238">
        <ele>2708.17</ele>
        <time>2017-10-17T12:04:39Z</time>
      </trkpt>
      <trkpt lat="46.03536" lon="6.85242">
        <ele>2708.65</ele>
        <time>2017-10-17T12:04:45Z</time>
      </trkpt>
      <trkpt lat="46.03538" lon="6.85244">
        <ele>2709.61</ele>
        <time>2017-10-17T12:04:49Z</time>
      </trkpt>
      <trkpt lat="46.0354" lon="6.85249">
        <ele>2711.54</ele>
        <time>2017-10-17T12:04:55Z</time>
      </trkpt>
      <trkpt lat="46.03543" lon="6.85256">
        <ele>2713.94</ele>
        <time>2017-10-17T12:05:05Z</time>
      </trkpt>
      <trkpt lat="46.03544" lon="6.85257">
        <ele>2714.42</ele>
        <time>2017-10-17T12:05:06Z</time>
      </trkpt>
      <trkpt lat="46.03545" lon="6.85258">
        <ele>2714.42</ele>
        <time>2017-10-17T12:05:08Z</time>
      </trkpt>
      <trkpt lat="46.03545" lon="6.85259">
        <ele>2714.9</ele>
        <time>2017-10-17T12:05:09Z</time>
      </trkpt>
      <trkpt lat="46.03546" lon="6.85259">
        <ele>2714.9</ele>
        <time>2017-10-17T12:05:10Z</time>
      </trkpt>
      <trkpt lat="46.03554" lon="6.8527">
        <ele>2717.78</ele>
        <time>2017-10-17T12:05:26Z</time>
      </trkpt>
      <trkpt lat="46.03556" lon="6.85273">
        <ele>2718.75</ele>
        <time>2017-10-17T12:05:29Z</time>
      </trkpt>
      <trkpt lat="46.03557" lon="6.85274">
        <ele>2719.23</ele>
        <time>2017-10-17T12:05:30Z</time>
      </trkpt>
      <trkpt lat="46.03559" lon="6.8528">
        <ele>2721.15</ele>
        <time>2017-10-17T12:05:38Z</time>
      </trkpt>
      <trkpt lat="46.03561" lon="6.85284">
        <ele>2722.59</ele>
        <time>2017-10-17T12:05:43Z</time>
      </trkpt>
      <trkpt lat="46.03567" lon="6.8529">
        <ele>2724.51</ele>
        <time>2017-10-17T12:05:53Z</time>
      </trkpt>
      <trkpt lat="46.03568" lon="6.85291">
        <ele>2724.99</ele>
        <time>2017-10-17T12:05:54Z</time>
      </trkpt>
      <trkpt lat="46.03569" lon="6.85293">
        <ele>2725.48</ele>
        <time>2017-10-17T12:05:56Z</time>
      </trkpt>
      <trkpt lat="46.03571" lon="6.85297">
        <ele>2726.92</ele>
        <time>2017-10-17T12:06:01Z</time>
      </trkpt>
      <trkpt lat="46.03572" lon="6.85297">
        <ele>2727.4</ele>
        <time>2017-10-17T12:06:02Z</time>
      </trkpt>
      <trkpt lat="46.03576" lon="6.85303">
        <ele>2729.8</ele>
        <time>2017-10-17T12:06:11Z</time>
      </trkpt>
      <trkpt lat="46.03577" lon="6.85304">
        <ele>2730.28</ele>
        <time>2017-10-17T12:06:12Z</time>
      </trkpt>
      <trkpt lat="46.03578" lon="6.85305">
        <ele>2730.76</ele>
        <time>2017-10-17T12:06:13Z</time>
      </trkpt>
      <trkpt lat="46.03578" lon="6.85306">
        <ele>2730.76</ele>
        <time>2017-10-17T12:06:14Z</time>
      </trkpt>
      <trkpt lat="46.03587" lon="6.85315">
        <ele>2733.65</ele>
        <time>2017-10-17T12:06:27Z</time>
      </trkpt>
      <trkpt lat="46.03587" lon="6.85315">
        <ele>2734.13</ele>
        <time>2017-10-17T12:06:28Z</time>
      </trkpt>
      <trkpt lat="46.03588" lon="6.85316">
        <ele>2734.61</ele>
        <time>2017-10-17T12:06:29Z</time>
      </trkpt>
      <trkpt lat="46.03597" lon="6.85323">
        <ele>2737.01</ele>
        <time>2017-10-17T12:06:39Z</time>
      </trkpt>
      <trkpt lat="46.03599" lon="6.85326">
        <ele>2737.97</ele>
        <time>2017-10-17T12:06:42Z</time>
      </trkpt>
      <trkpt lat="46.03601" lon="6.85328">
        <ele>2739.41</ele>
        <time>2017-10-17T12:06:45Z</time>
      </trkpt>
      <trkpt lat="46.03602" lon="6.85329">
        <ele>2739.41</ele>
        <time>2017-10-17T12:06:46Z</time>
      </trkpt>
      <trkpt lat="46.03603" lon="6.8533">
        <ele>2739.41</ele>
        <time>2017-10-17T12:06:47Z</time>
      </trkpt>
      <trkpt lat="46.03604" lon="6.85331">
        <ele>2739.89</ele>
        <time>2017-10-17T12:06:48Z</time>
      </trkpt>
      <trkpt lat="46.03607" lon="6.85338">
        <ele>2742.78</ele>
        <time>2017-10-17T12:07:00Z</time>
      </trkpt>
      <trkpt lat="46.03607" lon="6.85342">
        <ele>2745.18</ele>
        <time>2017-10-17T12:07:06Z</time>
      </trkpt>
      <trkpt lat="46.0361" lon="6.8535">
        <ele>2748.07</ele>
        <time>2017-10-17T12:07:21Z</time>
      </trkpt>
      <trkpt lat="46.03615" lon="6.85359">
        <ele>2751.43</ele>
        <time>2017-10-17T12:07:37Z</time>
      </trkpt>
      <trkpt lat="46.03616" lon="6.8536">
        <ele>2751.43</ele>
        <time>2017-10-17T12:07:38Z</time>
      </trkpt>
      <trkpt lat="46.03618" lon="6.85367">
        <ele>2754.8</ele>
        <time>2017-10-17T12:07:51Z</time>
      </trkpt>
      <trkpt lat="46.0362" lon="6.8537">
        <ele>2755.28</ele>
        <time>2017-10-17T12:07:55Z</time>
      </trkpt>
      <trkpt lat="46.03623" lon="6.85376">
        <ele>2758.64</ele>
        <time>2017-10-17T12:08:07Z</time>
      </trkpt>
      <trkpt lat="46.03622" lon="6.85378">
        <ele>2759.12</ele>
        <time>2017-10-17T12:08:12Z</time>
      </trkpt>
      <trkpt lat="46.03621" lon="6.85379">
        <ele>2759.6</ele>
        <time>2017-10-17T12:08:13Z</time>
      </trkpt>
      <trkpt lat="46.03617" lon="6.85378">
        <ele>2761.04</ele>
        <time>2017-10-17T12:08:21Z</time>
      </trkpt>
      <trkpt lat="46.03614" lon="6.85381">
        <ele>2762.97</ele>
        <time>2017-10-17T12:08:27Z</time>
      </trkpt>
      <trkpt lat="46.0361" lon="6.85381">
        <ele>2764.89</ele>
        <time>2017-10-17T12:08:34Z</time>
      </trkpt>
      <trkpt lat="46.03609" lon="6.85381">
        <ele>2765.37</ele>
        <time>2017-10-17T12:08:35Z</time>
      </trkpt>
      <trkpt lat="46.03594" lon="6.85368">
        <ele>2764.89</ele>
        <time>2017-10-17T12:08:56Z</time>
      </trkpt>
      <trkpt lat="46.03581" lon="6.85361">
        <ele>2764.41</ele>
        <time>2017-10-17T12:09:13Z</time>
      </trkpt>
      <trkpt lat="46.03579" lon="6.85361">
        <ele>2764.41</ele>
        <time>2017-10-17T12:09:14Z</time>
      </trkpt>
      <trkpt lat="46.0357" lon="6.85355">
        <ele>2764.89</ele>
        <time>2017-10-17T12:09:24Z</time>
      </trkpt>
      <trkpt lat="46.03569" lon="6.85354">
        <ele>2764.89</ele>
        <time>2017-10-17T12:09:25Z</time>
      </trkpt>
      <trkpt lat="46.03566" lon="6.85351">
        <ele>2762.97</ele>
        <time>2017-10-17T12:10:00Z</time>
      </trkpt>
      <trkpt lat="46.03566" lon="6.8535">
        <ele>2762.97</ele>
        <time>2017-10-17T12:10:17Z</time>
      </trkpt>
      <trkpt lat="46.03566" lon="6.85351">
        <ele>2762.97</ele>
        <time>2017-10-17T12:10:31Z</time>
      </trkpt>
      <trkpt lat="46.03565" lon="6.8535">
        <ele>2763.45</ele>
        <time>2017-10-17T12:11:04Z</time>
      </trkpt>
      <trkpt lat="46.03565" lon="6.85352">
        <ele>2763.45</ele>
        <time>2017-10-17T12:11:30Z</time>
      </trkpt>
      <trkpt lat="46.03564" lon="6.85353">
        <ele>2763.45</ele>
        <time>2017-10-17T12:12:01Z</time>
      </trkpt>
      <trkpt lat="46.03564" lon="6.85353">
        <ele>2763.45</ele>
        <time>2017-10-17T12:12:21Z</time>
      </trkpt>
      <trkpt lat="46.0356" lon="6.85351">
        <ele>2762.97</ele>
        <time>2017-10-17T12:12:49Z</time>
      </trkpt>
      <trkpt lat="46.03558" lon="6.85351">
        <ele>2762.97</ele>
        <time>2017-10-17T12:12:50Z</time>
      </trkpt>
      <trkpt lat="46.03557" lon="6.8535">
        <ele>2762.97</ele>
        <time>2017-10-17T12:12:51Z</time>
      </trkpt>
      <trkpt lat="46.03556" lon="6.85348">
        <ele>2763.93</ele>
        <time>2017-10-17T12:12:52Z</time>
      </trkpt>
      <trkpt lat="46.03554" lon="6.85347">
        <ele>2763.93</ele>
        <time>2017-10-17T12:12:53Z</time>
      </trkpt>
      <trkpt lat="46.03553" lon="6.85347">
        <ele>2763.45</ele>
        <time>2017-10-17T12:12:54Z</time>
      </trkpt>
      <trkpt lat="46.03552" lon="6.85347">
        <ele>2762.97</ele>
        <time>2017-10-17T12:12:55Z</time>
      </trkpt>
      <trkpt lat="46.0355" lon="6.85347">
        <ele>2762.49</ele>
        <time>2017-10-17T12:12:56Z</time>
      </trkpt>
      <trkpt lat="46.03549" lon="6.85346">
        <ele>2762</ele>
        <time>2017-10-17T12:12:57Z</time>
      </trkpt>
      <trkpt lat="46.03547" lon="6.85345">
        <ele>2761.04</ele>
        <time>2017-10-17T12:12:58Z</time>
      </trkpt>
      <trkpt lat="46.03546" lon="6.85344">
        <ele>2760.56</ele>
        <time>2017-10-17T12:12:59Z</time>
      </trkpt>
      <trkpt lat="46.03534" lon="6.85331">
        <ele>2758.64</ele>
        <time>2017-10-17T12:13:09Z</time>
      </trkpt>
      <trkpt lat="46.03529" lon="6.85325">
        <ele>2759.12</ele>
        <time>2017-10-17T12:13:16Z</time>
      </trkpt>
      <trkpt lat="46.03529" lon="6.85324">
        <ele>2759.12</ele>
        <time>2017-10-17T12:13:17Z</time>
      </trkpt>
      <trkpt lat="46.03528" lon="6.85323">
        <ele>2759.12</ele>
        <time>2017-10-17T12:13:18Z</time>
      </trkpt>
      <trkpt lat="46.03512" lon="6.85306">
        <ele>2758.64</ele>
        <time>2017-10-17T12:13:32Z</time>
      </trkpt>
      <trkpt lat="46.03498" lon="6.85292">
        <ele>2757.68</ele>
        <time>2017-10-17T12:13:41Z</time>
      </trkpt>
      <trkpt lat="46.03496" lon="6.85289">
        <ele>2757.68</ele>
        <time>2017-10-17T12:13:42Z</time>
      </trkpt>
      <trkpt lat="46.03495" lon="6.85287">
        <ele>2758.16</ele>
        <time>2017-10-17T12:13:43Z</time>
      </trkpt>
      <trkpt lat="46.03493" lon="6.85286">
        <ele>2758.16</ele>
        <time>2017-10-17T12:13:44Z</time>
      </trkpt>
      <trkpt lat="46.03491" lon="6.85284">
        <ele>2757.68</ele>
        <time>2017-10-17T12:13:45Z</time>
      </trkpt>
      <trkpt lat="46.03475" lon="6.85268">
        <ele>2756.72</ele>
        <time>2017-10-17T12:13:53Z</time>
      </trkpt>
      <trkpt lat="46.03462" lon="6.8525">
        <ele>2757.68</ele>
        <time>2017-10-17T12:14:02Z</time>
      </trkpt>
      <trkpt lat="46.03448" lon="6.85233">
        <ele>2757.68</ele>
        <time>2017-10-17T12:14:12Z</time>
      </trkpt>
      <trkpt lat="46.03433" lon="6.85213">
        <ele>2755.28</ele>
        <time>2017-10-17T12:14:22Z</time>
      </trkpt>
      <trkpt lat="46.03419" lon="6.85207">
        <ele>2754.31</ele>
        <time>2017-10-17T12:14:29Z</time>
      </trkpt>
      <trkpt lat="46.03418" lon="6.85207">
        <ele>2754.8</ele>
        <time>2017-10-17T12:14:30Z</time>
      </trkpt>
      <trkpt lat="46.03414" lon="6.85203">
        <ele>2757.68</ele>
        <time>2017-10-17T12:14:36Z</time>
      </trkpt>
      <trkpt lat="46.03413" lon="6.85203">
        <ele>2758.16</ele>
        <time>2017-10-17T12:14:37Z</time>
      </trkpt>
      <trkpt lat="46.03412" lon="6.85203">
        <ele>2758.64</ele>
        <time>2017-10-17T12:14:38Z</time>
      </trkpt>
      <trkpt lat="46.0341" lon="6.85202">
        <ele>2758.64</ele>
        <time>2017-10-17T12:14:39Z</time>
      </trkpt>
      <trkpt lat="46.03409" lon="6.85202">
        <ele>2758.64</ele>
        <time>2017-10-17T12:14:40Z</time>
      </trkpt>
      <trkpt lat="46.03407" lon="6.85202">
        <ele>2758.64</ele>
        <time>2017-10-17T12:14:41Z</time>
      </trkpt>
      <trkpt lat="46.03406" lon="6.85201">
        <ele>2759.12</ele>
        <time>2017-10-17T12:14:42Z</time>
      </trkpt>
      <trkpt lat="46.03404" lon="6.85199">
        <ele>2759.12</ele>
        <time>2017-10-17T12:14:43Z</time>
      </trkpt>
      <trkpt lat="46.03403" lon="6.85198">
        <ele>2759.6</ele>
        <time>2017-10-17T12:14:44Z</time>
      </trkpt>
      <trkpt lat="46.03401" lon="6.85196">
        <ele>2760.08</ele>
        <time>2017-10-17T12:14:45Z</time>
      </trkpt>
      <trkpt lat="46.034" lon="6.85194">
        <ele>2760.56</ele>
        <time>2017-10-17T12:14:46Z</time>
      </trkpt>
      <trkpt lat="46.03399" lon="6.85192">
        <ele>2760.56</ele>
        <time>2017-10-17T12:14:47Z</time>
      </trkpt>
      <trkpt lat="46.03398" lon="6.8519">
        <ele>2761.52</ele>
        <time>2017-10-17T12:14:48Z</time>
      </trkpt>
      <trkpt lat="46.03393" lon="6.85183">
        <ele>2764.41</ele>
        <time>2017-10-17T12:14:57Z</time>
      </trkpt>
      <trkpt lat="46.03391" lon="6.85181">
        <ele>2765.37</ele>
        <time>2017-10-17T12:15:00Z</time>
      </trkpt>
      <trkpt lat="46.0339" lon="6.85181">
        <ele>2765.37</ele>
        <time>2017-10-17T12:15:01Z</time>
      </trkpt>
      <trkpt lat="46.03386" lon="6.85174">
        <ele>2768.73</ele>
        <time>2017-10-17T12:15:12Z</time>
      </trkpt>
      <trkpt lat="46.03382" lon="6.85168">
        <ele>2771.62</ele>
        <time>2017-10-17T12:15:23Z</time>
      </trkpt>
      <trkpt lat="46.03376" lon="6.85162">
        <ele>2774.98</ele>
        <time>2017-10-17T12:15:33Z</time>
      </trkpt>
      <trkpt lat="46.03374" lon="6.85159">
        <ele>2775.94</ele>
        <time>2017-10-17T12:15:36Z</time>
      </trkpt>
      <trkpt lat="46.03374" lon="6.85158">
        <ele>2775.94</ele>
        <time>2017-10-17T12:15:37Z</time>
      </trkpt>
      <trkpt lat="46.03367" lon="6.85147">
        <ele>2779.31</ele>
        <time>2017-10-17T12:15:50Z</time>
      </trkpt>
      <trkpt lat="46.03364" lon="6.85142">
        <ele>2780.27</ele>
        <time>2017-10-17T12:15:55Z</time>
      </trkpt>
      <trkpt lat="46.03361" lon="6.85139">
        <ele>2782.67</ele>
        <time>2017-10-17T12:16:05Z</time>
      </trkpt>
      <trkpt lat="46.0336" lon="6.85133">
        <ele>2786.04</ele>
        <time>2017-10-17T12:16:15Z</time>
      </trkpt>
      <trkpt lat="46.03359" lon="6.85131">
        <ele>2786.04</ele>
        <time>2017-10-17T12:16:16Z</time>
      </trkpt>
      <trkpt lat="46.03359" lon="6.85125">
        <ele>2789.4</ele>
        <time>2017-10-17T12:16:26Z</time>
      </trkpt>
      <trkpt lat="46.03356" lon="6.8512">
        <ele>2792.77</ele>
        <time>2017-10-17T12:16:37Z</time>
      </trkpt>
      <trkpt lat="46.03355" lon="6.85117">
        <ele>2795.65</ele>
        <time>2017-10-17T12:16:49Z</time>
      </trkpt>
      <trkpt lat="46.03353" lon="6.85111">
        <ele>2798.54</ele>
        <time>2017-10-17T12:16:59Z</time>
      </trkpt>
      <trkpt lat="46.03352" lon="6.85108">
        <ele>2801.9</ele>
        <time>2017-10-17T12:17:11Z</time>
      </trkpt>
      <trkpt lat="46.03348" lon="6.85104">
        <ele>2804.78</ele>
        <time>2017-10-17T12:17:23Z</time>
      </trkpt>
      <trkpt lat="46.03344" lon="6.85098">
        <ele>2808.15</ele>
        <time>2017-10-17T12:17:36Z</time>
      </trkpt>
      <trkpt lat="46.0334" lon="6.85092">
        <ele>2811.03</ele>
        <time>2017-10-17T12:17:47Z</time>
      </trkpt>
      <trkpt lat="46.03338" lon="6.85091">
        <ele>2811.51</ele>
        <time>2017-10-17T12:17:49Z</time>
      </trkpt>
      <trkpt lat="46.03338" lon="6.8509">
        <ele>2811.51</ele>
        <time>2017-10-17T12:17:50Z</time>
      </trkpt>
      <trkpt lat="46.03334" lon="6.85087">
        <ele>2814.4</ele>
        <time>2017-10-17T12:18:01Z</time>
      </trkpt>
      <trkpt lat="46.03332" lon="6.85087">
        <ele>2815.36</ele>
        <time>2017-10-17T12:18:04Z</time>
      </trkpt>
      <trkpt lat="46.03326" lon="6.85087">
        <ele>2817.76</ele>
        <time>2017-10-17T12:18:18Z</time>
      </trkpt>
      <trkpt lat="46.03314" lon="6.85083">
        <ele>2821.13</ele>
        <time>2017-10-17T12:18:38Z</time>
      </trkpt>
      <trkpt lat="46.03306" lon="6.85082">
        <ele>2822.57</ele>
        <time>2017-10-17T12:18:47Z</time>
      </trkpt>
      <trkpt lat="46.03305" lon="6.85082">
        <ele>2822.57</ele>
        <time>2017-10-17T12:18:48Z</time>
      </trkpt>
      <trkpt lat="46.03301" lon="6.85079">
        <ele>2825.93</ele>
        <time>2017-10-17T12:19:03Z</time>
      </trkpt>
      <trkpt lat="46.03293" lon="6.85076">
        <ele>2828.82</ele>
        <time>2017-10-17T12:19:17Z</time>
      </trkpt>
      <trkpt lat="46.03291" lon="6.85075">
        <ele>2828.82</ele>
        <time>2017-10-17T12:19:19Z</time>
      </trkpt>
      <trkpt lat="46.03293" lon="6.85068">
        <ele>2831.7</ele>
        <time>2017-10-17T12:19:32Z</time>
      </trkpt>
      <trkpt lat="46.03294" lon="6.85064">
        <ele>2835.06</ele>
        <time>2017-10-17T12:19:44Z</time>
      </trkpt>
      <trkpt lat="46.03291" lon="6.85062">
        <ele>2837.95</ele>
        <time>2017-10-17T12:19:57Z</time>
      </trkpt>
      <trkpt lat="46.03289" lon="6.85061">
        <ele>2838.43</ele>
        <time>2017-10-17T12:20:00Z</time>
      </trkpt>
      <trkpt lat="46.03287" lon="6.85059">
        <ele>2839.39</ele>
        <time>2017-10-17T12:20:02Z</time>
      </trkpt>
      <trkpt lat="46.03285" lon="6.85056">
        <ele>2842.76</ele>
        <time>2017-10-17T12:20:12Z</time>
      </trkpt>
      <trkpt lat="46.03282" lon="6.85053">
        <ele>2845.64</ele>
        <time>2017-10-17T12:20:26Z</time>
      </trkpt>
      <trkpt lat="46.03277" lon="6.85051">
        <ele>2849</ele>
        <time>2017-10-17T12:20:39Z</time>
      </trkpt>
      <trkpt lat="46.03272" lon="6.8505">
        <ele>2851.89</ele>
        <time>2017-10-17T12:20:59Z</time>
      </trkpt>
      <trkpt lat="46.03268" lon="6.85048">
        <ele>2854.77</ele>
        <time>2017-10-17T12:21:15Z</time>
      </trkpt>
      <trkpt lat="46.03266" lon="6.85048">
        <ele>2858.14</ele>
        <time>2017-10-17T12:21:33Z</time>
      </trkpt>
      <trkpt lat="46.03263" lon="6.85047">
        <ele>2858.62</ele>
        <time>2017-10-17T12:21:37Z</time>
      </trkpt>
      <trkpt lat="46.03261" lon="6.8505">
        <ele>2861.98</ele>
        <time>2017-10-17T12:22:05Z</time>
      </trkpt>
      <trkpt lat="46.03258" lon="6.85048">
        <ele>2865.35</ele>
        <time>2017-10-17T12:22:18Z</time>
      </trkpt>
      <trkpt lat="46.03258" lon="6.85053">
        <ele>2868.23</ele>
        <time>2017-10-17T12:22:29Z</time>
      </trkpt>
      <trkpt lat="46.03256" lon="6.85056">
        <ele>2869.19</ele>
        <time>2017-10-17T12:22:35Z</time>
      </trkpt>
      <trkpt lat="46.03256" lon="6.85055">
        <ele>2869.19</ele>
        <time>2017-10-17T12:22:36Z</time>
      </trkpt>
      <trkpt lat="46.03253" lon="6.85051">
        <ele>2871.11</ele>
        <time>2017-10-17T12:22:45Z</time>
      </trkpt>
      <trkpt lat="46.03252" lon="6.8505">
        <ele>2871.6</ele>
        <time>2017-10-17T12:22:46Z</time>
      </trkpt>
      <trkpt lat="46.03251" lon="6.8505">
        <ele>2871.6</ele>
        <time>2017-10-17T12:22:47Z</time>
      </trkpt>
      <trkpt lat="46.0325" lon="6.85049">
        <ele>2871.6</ele>
        <time>2017-10-17T12:22:48Z</time>
      </trkpt>
      <trkpt lat="46.03249" lon="6.85048">
        <ele>2872.08</ele>
        <time>2017-10-17T12:22:49Z</time>
      </trkpt>
      <trkpt lat="46.03248" lon="6.85048">
        <ele>2872.08</ele>
        <time>2017-10-17T12:22:50Z</time>
      </trkpt>
      <trkpt lat="46.03247" lon="6.85047">
        <ele>2872.08</ele>
        <time>2017-10-17T12:22:51Z</time>
      </trkpt>
      <trkpt lat="46.03229" lon="6.85045">
        <ele>2873.52</ele>
        <time>2017-10-17T12:23:06Z</time>
      </trkpt>
      <trkpt lat="46.03209" lon="6.85048">
        <ele>2876.4</ele>
        <time>2017-10-17T12:23:16Z</time>
      </trkpt>
      <trkpt lat="46.03195" lon="6.85045">
        <ele>2879.29</ele>
        <time>2017-10-17T12:23:25Z</time>
      </trkpt>
      <trkpt lat="46.03188" lon="6.85046">
        <ele>2882.17</ele>
        <time>2017-10-17T12:23:31Z</time>
      </trkpt>
      <trkpt lat="46.03187" lon="6.85046">
        <ele>2882.17</ele>
        <time>2017-10-17T12:23:32Z</time>
      </trkpt>
      <trkpt lat="46.03186" lon="6.85047">
        <ele>2882.65</ele>
        <time>2017-10-17T12:23:33Z</time>
      </trkpt>
      <trkpt lat="46.0318" lon="6.85047">
        <ele>2885.05</ele>
        <time>2017-10-17T12:23:41Z</time>
      </trkpt>
      <trkpt lat="46.03179" lon="6.85047">
        <ele>2885.05</ele>
        <time>2017-10-17T12:23:42Z</time>
      </trkpt>
      <trkpt lat="46.03171" lon="6.85049">
        <ele>2888.42</ele>
        <time>2017-10-17T12:23:55Z</time>
      </trkpt>
      <trkpt lat="46.03163" lon="6.8505">
        <ele>2891.78</ele>
        <time>2017-10-17T12:24:09Z</time>
      </trkpt>
      <trkpt lat="46.03152" lon="6.85051">
        <ele>2894.67</ele>
        <time>2017-10-17T12:24:23Z</time>
      </trkpt>
      <trkpt lat="46.03139" lon="6.85049">
        <ele>2898.03</ele>
        <time>2017-10-17T12:24:38Z</time>
      </trkpt>
      <trkpt lat="46.03122" lon="6.85045">
        <ele>2900.92</ele>
        <time>2017-10-17T12:24:54Z</time>
      </trkpt>
      <trkpt lat="46.03103" lon="6.85046">
        <ele>2904.28</ele>
        <time>2017-10-17T12:25:10Z</time>
      </trkpt>
      <trkpt lat="46.03091" lon="6.85045">
        <ele>2906.2</ele>
        <time>2017-10-17T12:25:22Z</time>
      </trkpt>
      <trkpt lat="46.0309" lon="6.85044">
        <ele>2906.68</ele>
        <time>2017-10-17T12:25:23Z</time>
      </trkpt>
      <trkpt lat="46.03087" lon="6.85044">
        <ele>2907.16</ele>
        <time>2017-10-17T12:25:26Z</time>
      </trkpt>
      <trkpt lat="46.03086" lon="6.85045">
        <ele>2907.16</ele>
        <time>2017-10-17T12:25:27Z</time>
      </trkpt>
      <trkpt lat="46.03085" lon="6.85045">
        <ele>2907.65</ele>
        <time>2017-10-17T12:25:28Z</time>
      </trkpt>
      <trkpt lat="46.03078" lon="6.85048">
        <ele>2909.57</ele>
        <time>2017-10-17T12:25:37Z</time>
      </trkpt>
      <trkpt lat="46.0307" lon="6.85046">
        <ele>2911.49</ele>
        <time>2017-10-17T12:25:45Z</time>
      </trkpt>
      <trkpt lat="46.03057" lon="6.85048">
        <ele>2913.89</ele>
        <time>2017-10-17T12:25:58Z</time>
      </trkpt>
      <trkpt lat="46.03054" lon="6.8505">
        <ele>2915.82</ele>
        <time>2017-10-17T12:26:03Z</time>
      </trkpt>
      <trkpt lat="46.03047" lon="6.85052">
        <ele>2916.78</ele>
        <time>2017-10-17T12:26:09Z</time>
      </trkpt>
      <trkpt lat="46.03046" lon="6.85051">
        <ele>2917.26</ele>
        <time>2017-10-17T12:26:10Z</time>
      </trkpt>
      <trkpt lat="46.03031" lon="6.85054">
        <ele>2920.14</ele>
        <time>2017-10-17T12:26:23Z</time>
      </trkpt>
      <trkpt lat="46.0303" lon="6.85055">
        <ele>2920.62</ele>
        <time>2017-10-17T12:26:24Z</time>
      </trkpt>
      <trkpt lat="46.03026" lon="6.85058">
        <ele>2922.06</ele>
        <time>2017-10-17T12:26:30Z</time>
      </trkpt>
      <trkpt lat="46.03025" lon="6.85059">
        <ele>2922.54</ele>
        <time>2017-10-17T12:26:31Z</time>
      </trkpt>
      <trkpt lat="46.03024" lon="6.85059">
        <ele>2922.54</ele>
        <time>2017-10-17T12:26:32Z</time>
      </trkpt>
      <trkpt lat="46.03004" lon="6.85066">
        <ele>2925.43</ele>
        <time>2017-10-17T12:26:49Z</time>
      </trkpt>
      <trkpt lat="46.03002" lon="6.85066">
        <ele>2925.43</ele>
        <time>2017-10-17T12:26:50Z</time>
      </trkpt>
      <trkpt lat="46.03" lon="6.85066">
        <ele>2925.91</ele>
        <time>2017-10-17T12:26:51Z</time>
      </trkpt>
      <trkpt lat="46.02999" lon="6.85067">
        <ele>2925.91</ele>
        <time>2017-10-17T12:26:52Z</time>
      </trkpt>
      <trkpt lat="46.02997" lon="6.85068">
        <ele>2926.39</ele>
        <time>2017-10-17T12:26:53Z</time>
      </trkpt>
      <trkpt lat="46.02995" lon="6.85069">
        <ele>2926.39</ele>
        <time>2017-10-17T12:26:54Z</time>
      </trkpt>
      <trkpt lat="46.02993" lon="6.85069">
        <ele>2926.39</ele>
        <time>2017-10-17T12:26:55Z</time>
      </trkpt>
      <trkpt lat="46.0299" lon="6.8507">
        <ele>2926.87</ele>
        <time>2017-10-17T12:26:57Z</time>
      </trkpt>
      <trkpt lat="46.02987" lon="6.85073">
        <ele>2927.83</ele>
        <time>2017-10-17T12:27:00Z</time>
      </trkpt>
      <trkpt lat="46.02986" lon="6.85074">
        <ele>2928.31</ele>
        <time>2017-10-17T12:27:01Z</time>
      </trkpt>
      <trkpt lat="46.02985" lon="6.85074">
        <ele>2928.79</ele>
        <time>2017-10-17T12:27:02Z</time>
      </trkpt>
      <trkpt lat="46.02985" lon="6.85074">
        <ele>2929.27</ele>
        <time>2017-10-17T12:27:03Z</time>
      </trkpt>
      <trkpt lat="46.02984" lon="6.85074">
        <ele>2929.27</ele>
        <time>2017-10-17T12:27:04Z</time>
      </trkpt>
      <trkpt lat="46.02983" lon="6.85075">
        <ele>2929.75</ele>
        <time>2017-10-17T12:27:05Z</time>
      </trkpt>
      <trkpt lat="46.02983" lon="6.85076">
        <ele>2930.24</ele>
        <time>2017-10-17T12:27:06Z</time>
      </trkpt>
      <trkpt lat="46.02982" lon="6.85078">
        <ele>2930.24</ele>
        <time>2017-10-17T12:27:07Z</time>
      </trkpt>
      <trkpt lat="46.02973" lon="6.85086">
        <ele>2933.6</ele>
        <time>2017-10-17T12:27:19Z</time>
      </trkpt>
      <trkpt lat="46.02969" lon="6.8509">
        <ele>2934.56</ele>
        <time>2017-10-17T12:27:24Z</time>
      </trkpt>
      <trkpt lat="46.02962" lon="6.85095">
        <ele>2936.48</ele>
        <time>2017-10-17T12:27:31Z</time>
      </trkpt>
      <trkpt lat="46.02961" lon="6.85096">
        <ele>2936.48</ele>
        <time>2017-10-17T12:27:32Z</time>
      </trkpt>
      <trkpt lat="46.02959" lon="6.85096">
        <ele>2936.48</ele>
        <time>2017-10-17T12:27:33Z</time>
      </trkpt>
      <trkpt lat="46.02958" lon="6.85097">
        <ele>2936.97</ele>
        <time>2017-10-17T12:27:34Z</time>
      </trkpt>
      <trkpt lat="46.02956" lon="6.85098">
        <ele>2936.97</ele>
        <time>2017-10-17T12:27:35Z</time>
      </trkpt>
      <trkpt lat="46.02941" lon="6.85103">
        <ele>2938.89</ele>
        <time>2017-10-17T12:27:47Z</time>
      </trkpt>
      <trkpt lat="46.0294" lon="6.85104">
        <ele>2938.89</ele>
        <time>2017-10-17T12:27:48Z</time>
      </trkpt>
      <trkpt lat="46.02939" lon="6.85105">
        <ele>2939.37</ele>
        <time>2017-10-17T12:27:49Z</time>
      </trkpt>
      <trkpt lat="46.02937" lon="6.85106">
        <ele>2939.37</ele>
        <time>2017-10-17T12:27:50Z</time>
      </trkpt>
      <trkpt lat="46.02936" lon="6.85106">
        <ele>2939.37</ele>
        <time>2017-10-17T12:27:51Z</time>
      </trkpt>
      <trkpt lat="46.02915" lon="6.85107">
        <ele>2940.33</ele>
        <time>2017-10-17T12:28:01Z</time>
      </trkpt>
      <trkpt lat="46.02898" lon="6.85112">
        <ele>2943.69</ele>
        <time>2017-10-17T12:28:11Z</time>
      </trkpt>
      <trkpt lat="46.02885" lon="6.85113">
        <ele>2946.58</ele>
        <time>2017-10-17T12:28:21Z</time>
      </trkpt>
      <trkpt lat="46.02876" lon="6.85115">
        <ele>2948.02</ele>
        <time>2017-10-17T12:28:29Z</time>
      </trkpt>
      <trkpt lat="46.02874" lon="6.85115">
        <ele>2948.5</ele>
        <time>2017-10-17T12:28:30Z</time>
      </trkpt>
      <trkpt lat="46.02873" lon="6.85114">
        <ele>2948.5</ele>
        <time>2017-10-17T12:28:31Z</time>
      </trkpt>
      <trkpt lat="46.02854" lon="6.85114">
        <ele>2951.38</ele>
        <time>2017-10-17T12:28:46Z</time>
      </trkpt>
      <trkpt lat="46.02848" lon="6.85112">
        <ele>2950.9</ele>
        <time>2017-10-17T12:28:50Z</time>
      </trkpt>
      <trkpt lat="46.02847" lon="6.85112">
        <ele>2951.38</ele>
        <time>2017-10-17T12:28:51Z</time>
      </trkpt>
      <trkpt lat="46.02846" lon="6.85112">
        <ele>2951.38</ele>
        <time>2017-10-17T12:28:52Z</time>
      </trkpt>
      <trkpt lat="46.02844" lon="6.85114">
        <ele>2951.87</ele>
        <time>2017-10-17T12:28:54Z</time>
      </trkpt>
      <trkpt lat="46.02843" lon="6.85114">
        <ele>2952.35</ele>
        <time>2017-10-17T12:28:55Z</time>
      </trkpt>
      <trkpt lat="46.02843" lon="6.85115">
        <ele>2952.83</ele>
        <time>2017-10-17T12:28:56Z</time>
      </trkpt>
      <trkpt lat="46.02842" lon="6.85115">
        <ele>2952.83</ele>
        <time>2017-10-17T12:28:57Z</time>
      </trkpt>
      <trkpt lat="46.0284" lon="6.85116">
        <ele>2953.31</ele>
        <time>2017-10-17T12:28:58Z</time>
      </trkpt>
      <trkpt lat="46.02839" lon="6.85115">
        <ele>2953.31</ele>
        <time>2017-10-17T12:28:59Z</time>
      </trkpt>
      <trkpt lat="46.02838" lon="6.85115">
        <ele>2953.79</ele>
        <time>2017-10-17T12:29:00Z</time>
      </trkpt>
      <trkpt lat="46.02837" lon="6.85115">
        <ele>2953.79</ele>
        <time>2017-10-17T12:29:01Z</time>
      </trkpt>
      <trkpt lat="46.02836" lon="6.85116">
        <ele>2954.27</ele>
        <time>2017-10-17T12:29:02Z</time>
      </trkpt>
      <trkpt lat="46.02835" lon="6.85117">
        <ele>2954.27</ele>
        <time>2017-10-17T12:29:03Z</time>
      </trkpt>
      <trkpt lat="46.02834" lon="6.85118">
        <ele>2954.75</ele>
        <time>2017-10-17T12:29:04Z</time>
      </trkpt>
      <trkpt lat="46.02833" lon="6.85117">
        <ele>2954.75</ele>
        <time>2017-10-17T12:29:05Z</time>
      </trkpt>
      <trkpt lat="46.02832" lon="6.85117">
        <ele>2955.23</ele>
        <time>2017-10-17T12:29:06Z</time>
      </trkpt>
      <trkpt lat="46.02831" lon="6.85116">
        <ele>2955.23</ele>
        <time>2017-10-17T12:29:07Z</time>
      </trkpt>
      <trkpt lat="46.02829" lon="6.85116">
        <ele>2955.71</ele>
        <time>2017-10-17T12:29:08Z</time>
      </trkpt>
      <trkpt lat="46.02828" lon="6.85116">
        <ele>2956.19</ele>
        <time>2017-10-17T12:29:09Z</time>
      </trkpt>
      <trkpt lat="46.02827" lon="6.85116">
        <ele>2956.19</ele>
        <time>2017-10-17T12:29:10Z</time>
      </trkpt>
      <trkpt lat="46.02826" lon="6.85116">
        <ele>2956.19</ele>
        <time>2017-10-17T12:29:11Z</time>
      </trkpt>
      <trkpt lat="46.02818" lon="6.85114">
        <ele>2958.11</ele>
        <time>2017-10-17T12:29:19Z</time>
      </trkpt>
      <trkpt lat="46.02817" lon="6.85113">
        <ele>2958.11</ele>
        <time>2017-10-17T12:29:20Z</time>
      </trkpt>
      <trkpt lat="46.02815" lon="6.85112">
        <ele>2958.59</ele>
        <time>2017-10-17T12:29:22Z</time>
      </trkpt>
      <trkpt lat="46.02813" lon="6.85112">
        <ele>2958.59</ele>
        <time>2017-10-17T12:29:24Z</time>
      </trkpt>
      <trkpt lat="46.02806" lon="6.85109">
        <ele>2961.48</ele>
        <time>2017-10-17T12:29:35Z</time>
      </trkpt>
      <trkpt lat="46.02796" lon="6.85111">
        <ele>2964.84</ele>
        <time>2017-10-17T12:29:49Z</time>
      </trkpt>
      <trkpt lat="46.0278" lon="6.8511">
        <ele>2968.21</ele>
        <time>2017-10-17T12:30:04Z</time>
      </trkpt>
      <trkpt lat="46.02764" lon="6.85107">
        <ele>2971.09</ele>
        <time>2017-10-17T12:30:18Z</time>
      </trkpt>
      <trkpt lat="46.02755" lon="6.85107">
        <ele>2974.46</ele>
        <time>2017-10-17T12:30:30Z</time>
      </trkpt>
      <trkpt lat="46.02754" lon="6.85107">
        <ele>2974.94</ele>
        <time>2017-10-17T12:30:31Z</time>
      </trkpt>
      <trkpt lat="46.02753" lon="6.85107">
        <ele>2975.42</ele>
        <time>2017-10-17T12:30:32Z</time>
      </trkpt>
      <trkpt lat="46.02739" lon="6.85105">
        <ele>2978.3</ele>
        <time>2017-10-17T12:30:45Z</time>
      </trkpt>
      <trkpt lat="46.02738" lon="6.85104">
        <ele>2978.3</ele>
        <time>2017-10-17T12:30:46Z</time>
      </trkpt>
      <trkpt lat="46.02736" lon="6.85104">
        <ele>2978.3</ele>
        <time>2017-10-17T12:30:47Z</time>
      </trkpt>
      <trkpt lat="46.02735" lon="6.85103">
        <ele>2978.78</ele>
        <time>2017-10-17T12:30:48Z</time>
      </trkpt>
      <trkpt lat="46.02734" lon="6.85102">
        <ele>2978.78</ele>
        <time>2017-10-17T12:30:49Z</time>
      </trkpt>
      <trkpt lat="46.02723" lon="6.85105">
        <ele>2981.67</ele>
        <time>2017-10-17T12:31:05Z</time>
      </trkpt>
      <trkpt lat="46.02717" lon="6.85106">
        <ele>2985.03</ele>
        <time>2017-10-17T12:31:15Z</time>
      </trkpt>
      <trkpt lat="46.02713" lon="6.85109">
        <ele>2988.4</ele>
        <time>2017-10-17T12:31:27Z</time>
      </trkpt>
      <trkpt lat="46.02708" lon="6.8511">
        <ele>2991.28</ele>
        <time>2017-10-17T12:31:35Z</time>
      </trkpt>
      <trkpt lat="46.02704" lon="6.85112">
        <ele>2993.2</ele>
        <time>2017-10-17T12:31:43Z</time>
      </trkpt>
      <trkpt lat="46.02697" lon="6.85116">
        <ele>2995.6</ele>
        <time>2017-10-17T12:31:54Z</time>
      </trkpt>
      <trkpt lat="46.02696" lon="6.85117">
        <ele>2995.6</ele>
        <time>2017-10-17T12:31:55Z</time>
      </trkpt>
      <trkpt lat="46.02695" lon="6.85117">
        <ele>2995.6</ele>
        <time>2017-10-17T12:31:56Z</time>
      </trkpt>
      <trkpt lat="46.02694" lon="6.85117">
        <ele>2995.6</ele>
        <time>2017-10-17T12:31:57Z</time>
      </trkpt>
      <trkpt lat="46.02693" lon="6.85118">
        <ele>2996.09</ele>
        <time>2017-10-17T12:31:58Z</time>
      </trkpt>
      <trkpt lat="46.02691" lon="6.8512">
        <ele>2996.57</ele>
        <time>2017-10-17T12:32:01Z</time>
      </trkpt>
      <trkpt lat="46.0269" lon="6.85121">
        <ele>2996.57</ele>
        <time>2017-10-17T12:32:02Z</time>
      </trkpt>
      <trkpt lat="46.02688" lon="6.85122">
        <ele>2996.57</ele>
        <time>2017-10-17T12:32:03Z</time>
      </trkpt>
      <trkpt lat="46.02687" lon="6.85122">
        <ele>2996.57</ele>
        <time>2017-10-17T12:32:04Z</time>
      </trkpt>
      <trkpt lat="46.02686" lon="6.85123">
        <ele>2996.57</ele>
        <time>2017-10-17T12:32:05Z</time>
      </trkpt>
      <trkpt lat="46.02685" lon="6.85123">
        <ele>2997.05</ele>
        <time>2017-10-17T12:32:06Z</time>
      </trkpt>
      <trkpt lat="46.02684" lon="6.85124">
        <ele>2997.05</ele>
        <time>2017-10-17T12:32:07Z</time>
      </trkpt>
      <trkpt lat="46.02682" lon="6.85124">
        <ele>2997.53</ele>
        <time>2017-10-17T12:32:08Z</time>
      </trkpt>
      <trkpt lat="46.02681" lon="6.85124">
        <ele>2997.53</ele>
        <time>2017-10-17T12:32:09Z</time>
      </trkpt>
      <trkpt lat="46.02679" lon="6.85124">
        <ele>2997.53</ele>
        <time>2017-10-17T12:32:10Z</time>
      </trkpt>
      <trkpt lat="46.02678" lon="6.85125">
        <ele>2997.53</ele>
        <time>2017-10-17T12:32:11Z</time>
      </trkpt>
      <trkpt lat="46.02677" lon="6.85125">
        <ele>2997.05</ele>
        <time>2017-10-17T12:32:12Z</time>
      </trkpt>
      <trkpt lat="46.02668" lon="6.85134">
        <ele>2998.97</ele>
        <time>2017-10-17T12:32:20Z</time>
      </trkpt>
      <trkpt lat="46.02666" lon="6.85134">
        <ele>2998.97</ele>
        <time>2017-10-17T12:32:21Z</time>
      </trkpt>
      <trkpt lat="46.02664" lon="6.85134">
        <ele>2998.97</ele>
        <time>2017-10-17T12:32:22Z</time>
      </trkpt>
      <trkpt lat="46.02662" lon="6.85134">
        <ele>2998.97</ele>
        <time>2017-10-17T12:32:23Z</time>
      </trkpt>
      <trkpt lat="46.02659" lon="6.85134">
        <ele>2998.97</ele>
        <time>2017-10-17T12:32:24Z</time>
      </trkpt>
      <trkpt lat="46.02639" lon="6.85138">
        <ele>2998.49</ele>
        <time>2017-10-17T12:32:33Z</time>
      </trkpt>
      <trkpt lat="46.02617" lon="6.85147">
        <ele>2998.97</ele>
        <time>2017-10-17T12:32:42Z</time>
      </trkpt>
      <trkpt lat="46.02608" lon="6.85149">
        <ele>3000.89</ele>
        <time>2017-10-17T12:32:47Z</time>
      </trkpt>
      <trkpt lat="46.02608" lon="6.8515">
        <ele>3001.37</ele>
        <time>2017-10-17T12:32:48Z</time>
      </trkpt>
      <trkpt lat="46.02607" lon="6.85151">
        <ele>3001.85</ele>
        <time>2017-10-17T12:32:49Z</time>
      </trkpt>
      <trkpt lat="46.02606" lon="6.85151">
        <ele>3002.33</ele>
        <time>2017-10-17T12:32:50Z</time>
      </trkpt>
      <trkpt lat="46.02604" lon="6.85152">
        <ele>3002.82</ele>
        <time>2017-10-17T12:32:51Z</time>
      </trkpt>
      <trkpt lat="46.02598" lon="6.85156">
        <ele>3005.22</ele>
        <time>2017-10-17T12:32:58Z</time>
      </trkpt>
      <trkpt lat="46.0259" lon="6.85163">
        <ele>3008.58</ele>
        <time>2017-10-17T12:33:08Z</time>
      </trkpt>
      <trkpt lat="46.02589" lon="6.85164">
        <ele>3008.58</ele>
        <time>2017-10-17T12:33:09Z</time>
      </trkpt>
      <trkpt lat="46.02589" lon="6.85165">
        <ele>3009.06</ele>
        <time>2017-10-17T12:33:10Z</time>
      </trkpt>
      <trkpt lat="46.02587" lon="6.85165">
        <ele>3009.54</ele>
        <time>2017-10-17T12:33:11Z</time>
      </trkpt>
      <trkpt lat="46.02586" lon="6.85166">
        <ele>3010.03</ele>
        <time>2017-10-17T12:33:12Z</time>
      </trkpt>
      <trkpt lat="46.02585" lon="6.85166">
        <ele>3010.03</ele>
        <time>2017-10-17T12:33:13Z</time>
      </trkpt>
      <trkpt lat="46.02577" lon="6.85176">
        <ele>3013.39</ele>
        <time>2017-10-17T12:33:25Z</time>
      </trkpt>
      <trkpt lat="46.02564" lon="6.85191">
        <ele>3016.27</ele>
        <time>2017-10-17T12:33:39Z</time>
      </trkpt>
      <trkpt lat="46.02556" lon="6.85201">
        <ele>3019.16</ele>
        <time>2017-10-17T12:33:50Z</time>
      </trkpt>
      <trkpt lat="46.02556" lon="6.85202">
        <ele>3019.16</ele>
        <time>2017-10-17T12:33:51Z</time>
      </trkpt>
      <trkpt lat="46.02554" lon="6.85203">
        <ele>3019.64</ele>
        <time>2017-10-17T12:33:52Z</time>
      </trkpt>
      <trkpt lat="46.02548" lon="6.85208">
        <ele>3021.56</ele>
        <time>2017-10-17T12:33:59Z</time>
      </trkpt>
      <trkpt lat="46.02547" lon="6.85208">
        <ele>3021.56</ele>
        <time>2017-10-17T12:34:00Z</time>
      </trkpt>
      <trkpt lat="46.02546" lon="6.85209">
        <ele>3022.04</ele>
        <time>2017-10-17T12:34:01Z</time>
      </trkpt>
      <trkpt lat="46.02541" lon="6.85213">
        <ele>3023.48</ele>
        <time>2017-10-17T12:34:07Z</time>
      </trkpt>
      <trkpt lat="46.02523" lon="6.85216">
        <ele>3026.37</ele>
        <time>2017-10-17T12:34:22Z</time>
      </trkpt>
      <trkpt lat="46.02522" lon="6.85216">
        <ele>3026.37</ele>
        <time>2017-10-17T12:34:23Z</time>
      </trkpt>
      <trkpt lat="46.02511" lon="6.8522">
        <ele>3028.77</ele>
        <time>2017-10-17T12:34:34Z</time>
      </trkpt>
      <trkpt lat="46.0251" lon="6.85221">
        <ele>3028.77</ele>
        <time>2017-10-17T12:34:35Z</time>
      </trkpt>
      <trkpt lat="46.0251" lon="6.85222">
        <ele>3029.25</ele>
        <time>2017-10-17T12:34:36Z</time>
      </trkpt>
      <trkpt lat="46.02509" lon="6.85223">
        <ele>3029.25</ele>
        <time>2017-10-17T12:34:37Z</time>
      </trkpt>
      <trkpt lat="46.02498" lon="6.85235">
        <ele>3032.62</ele>
        <time>2017-10-17T12:34:51Z</time>
      </trkpt>
      <trkpt lat="46.02497" lon="6.85236">
        <ele>3032.62</ele>
        <time>2017-10-17T12:34:52Z</time>
      </trkpt>
      <trkpt lat="46.02496" lon="6.85237">
        <ele>3032.62</ele>
        <time>2017-10-17T12:34:53Z</time>
      </trkpt>
      <trkpt lat="46.02494" lon="6.85238">
        <ele>3032.62</ele>
        <time>2017-10-17T12:34:54Z</time>
      </trkpt>
      <trkpt lat="46.02493" lon="6.85239">
        <ele>3032.62</ele>
        <time>2017-10-17T12:34:55Z</time>
      </trkpt>
      <trkpt lat="46.02493" lon="6.8524">
        <ele>3032.62</ele>
        <time>2017-10-17T12:34:56Z</time>
      </trkpt>
      <trkpt lat="46.02493" lon="6.85241">
        <ele>3032.62</ele>
        <time>2017-10-17T12:34:57Z</time>
      </trkpt>
      <trkpt lat="46.02488" lon="6.85252">
        <ele>3035.02</ele>
        <time>2017-10-17T12:35:07Z</time>
      </trkpt>
      <trkpt lat="46.02488" lon="6.85253">
        <ele>3035.02</ele>
        <time>2017-10-17T12:35:08Z</time>
      </trkpt>
      <trkpt lat="46.02483" lon="6.85258">
        <ele>3033.58</ele>
        <time>2017-10-17T12:37:04Z</time>
      </trkpt>
      <trkpt lat="46.02484" lon="6.85259">
        <ele>3034.54</ele>
        <time>2017-10-17T12:37:23Z</time>
      </trkpt>
      <trkpt lat="46.02483" lon="6.85258">
        <ele>3034.06</ele>
        <time>2017-10-17T12:39:37Z</time>
      </trkpt>
      <trkpt lat="46.02483" lon="6.85258">
        <ele>3034.54</ele>
        <time>2017-10-17T12:40:00Z</time>
      </trkpt>
      <trkpt lat="46.02483" lon="6.85258">
        <ele>3034.06</ele>
        <time>2017-10-17T12:40:35Z</time>
      </trkpt>
      <trkpt lat="46.02484" lon="6.85259">
        <ele>3033.58</ele>
        <time>2017-10-17T12:41:13Z</time>
      </trkpt>
      <trkpt lat="46.02484" lon="6.85259">
        <ele>3034.54</ele>
        <time>2017-10-17T12:42:31Z</time>
      </trkpt>
      <trkpt lat="46.02484" lon="6.85259">
        <ele>3034.54</ele>
        <time>2017-10-17T12:42:50Z</time>
      </trkpt>
      <trkpt lat="46.02484" lon="6.8526">
        <ele>3034.54</ele>
        <time>2017-10-17T12:43:04Z</time>
      </trkpt>
      <trkpt lat="46.02484" lon="6.8526">
        <ele>3034.54</ele>
        <time>2017-10-17T12:43:29Z</time>
      </trkpt>
      <trkpt lat="46.02484" lon="6.8526">
        <ele>3034.54</ele>
        <time>2017-10-17T12:43:56Z</time>
      </trkpt>
      <trkpt lat="46.02484" lon="6.8526">
        <ele>3035.02</ele>
        <time>2017-10-17T12:45:49Z</time>
      </trkpt>
      <trkpt lat="46.02482" lon="6.85252">
        <ele>3035.02</ele>
        <time>2017-10-17T12:46:41Z</time>
      </trkpt>
      <trkpt lat="46.02482" lon="6.85253">
        <ele>3035.02</ele>
        <time>2017-10-17T12:46:42Z</time>
      </trkpt>
      <trkpt lat="46.02483" lon="6.85254">
        <ele>3035.02</ele>
        <time>2017-10-17T12:46:43Z</time>
      </trkpt>
      <trkpt lat="46.0248" lon="6.85253">
        <ele>3035.02</ele>
        <time>2017-10-17T12:46:54Z</time>
      </trkpt>
      <trkpt lat="46.0248" lon="6.85252">
        <ele>3035.02</ele>
        <time>2017-10-17T12:46:55Z</time>
      </trkpt>
      <trkpt lat="46.0248" lon="6.8525">
        <ele>3035.02</ele>
        <time>2017-10-17T12:46:56Z</time>
      </trkpt>
      <trkpt lat="46.0248" lon="6.85249">
        <ele>3035.02</ele>
        <time>2017-10-17T12:46:57Z</time>
      </trkpt>
      <trkpt lat="46.0248" lon="6.85248">
        <ele>3035.02</ele>
        <time>2017-10-17T12:46:58Z</time>
      </trkpt>
      <trkpt lat="46.02478" lon="6.85245">
        <ele>3034.54</ele>
        <time>2017-10-17T12:47:00Z</time>
      </trkpt>
      <trkpt lat="46.02477" lon="6.85244">
        <ele>3034.06</ele>
        <time>2017-10-17T12:47:01Z</time>
      </trkpt>
      <trkpt lat="46.02471" lon="6.85231">
        <ele>3031.17</ele>
        <time>2017-10-17T12:47:07Z</time>
      </trkpt>
      <trkpt lat="46.0247" lon="6.85227">
        <ele>3030.69</ele>
        <time>2017-10-17T12:47:08Z</time>
      </trkpt>
      <trkpt lat="46.0247" lon="6.85224">
        <ele>3030.21</ele>
        <time>2017-10-17T12:47:09Z</time>
      </trkpt>
      <trkpt lat="46.02468" lon="6.85219">
        <ele>3028.77</ele>
        <time>2017-10-17T12:47:11Z</time>
      </trkpt>
      <trkpt lat="46.02466" lon="6.85217">
        <ele>3027.81</ele>
        <time>2017-10-17T12:47:12Z</time>
      </trkpt>
      <trkpt lat="46.02458" lon="6.8521">
        <ele>3024.93</ele>
        <time>2017-10-17T12:47:16Z</time>
      </trkpt>
      <trkpt lat="46.02454" lon="6.85207">
        <ele>3023.96</ele>
        <time>2017-10-17T12:47:18Z</time>
      </trkpt>
      <trkpt lat="46.0244" lon="6.85193">
        <ele>3020.6</ele>
        <time>2017-10-17T12:47:26Z</time>
      </trkpt>
      <trkpt lat="46.02437" lon="6.85187">
        <ele>3019.64</ele>
        <time>2017-10-17T12:47:28Z</time>
      </trkpt>
      <trkpt lat="46.0243" lon="6.85172">
        <ele>3015.79</ele>
        <time>2017-10-17T12:47:33Z</time>
      </trkpt>
      <trkpt lat="46.02417" lon="6.85159">
        <ele>3012.91</ele>
        <time>2017-10-17T12:47:39Z</time>
      </trkpt>
      <trkpt lat="46.02407" lon="6.85148">
        <ele>3010.03</ele>
        <time>2017-10-17T12:47:44Z</time>
      </trkpt>
      <trkpt lat="46.0239" lon="6.85137">
        <ele>3006.18</ele>
        <time>2017-10-17T12:47:51Z</time>
      </trkpt>
      <trkpt lat="46.02378" lon="6.8512">
        <ele>3003.3</ele>
        <time>2017-10-17T12:47:58Z</time>
      </trkpt>
      <trkpt lat="46.02368" lon="6.85111">
        <ele>2999.93</ele>
        <time>2017-10-17T12:48:02Z</time>
      </trkpt>
      <trkpt lat="46.02366" lon="6.85109">
        <ele>2999.45</ele>
        <time>2017-10-17T12:48:03Z</time>
      </trkpt>
      <trkpt lat="46.02351" lon="6.85093">
        <ele>2996.09</ele>
        <time>2017-10-17T12:48:09Z</time>
      </trkpt>
      <trkpt lat="46.02347" lon="6.85086">
        <ele>2995.6</ele>
        <time>2017-10-17T12:48:11Z</time>
      </trkpt>
      <trkpt lat="46.02334" lon="6.85064">
        <ele>2992.72</ele>
        <time>2017-10-17T12:48:18Z</time>
      </trkpt>
      <trkpt lat="46.02317" lon="6.85046">
        <ele>2989.84</ele>
        <time>2017-10-17T12:48:25Z</time>
      </trkpt>
      <trkpt lat="46.023" lon="6.85033">
        <ele>2987.91</ele>
        <time>2017-10-17T12:48:31Z</time>
      </trkpt>
      <trkpt lat="46.02282" lon="6.85023">
        <ele>2985.51</ele>
        <time>2017-10-17T12:48:38Z</time>
      </trkpt>
      <trkpt lat="46.02263" lon="6.85011">
        <ele>2983.11</ele>
        <time>2017-10-17T12:48:45Z</time>
      </trkpt>
      <trkpt lat="46.02242" lon="6.85005">
        <ele>2982.15</ele>
        <time>2017-10-17T12:48:53Z</time>
      </trkpt>
      <trkpt lat="46.02222" lon="6.85002">
        <ele>2979.26</ele>
        <time>2017-10-17T12:49:01Z</time>
      </trkpt>
      <trkpt lat="46.02218" lon="6.84999">
        <ele>2978.78</ele>
        <time>2017-10-17T12:49:03Z</time>
      </trkpt>
      <trkpt lat="46.02217" lon="6.84997">
        <ele>2978.78</ele>
        <time>2017-10-17T12:49:04Z</time>
      </trkpt>
      <trkpt lat="46.02217" lon="6.84995">
        <ele>2977.82</ele>
        <time>2017-10-17T12:49:05Z</time>
      </trkpt>
      <trkpt lat="46.02216" lon="6.84992">
        <ele>2977.34</ele>
        <time>2017-10-17T12:49:06Z</time>
      </trkpt>
      <trkpt lat="46.02215" lon="6.8499">
        <ele>2977.34</ele>
        <time>2017-10-17T12:49:07Z</time>
      </trkpt>
      <trkpt lat="46.02213" lon="6.84988">
        <ele>2976.86</ele>
        <time>2017-10-17T12:49:08Z</time>
      </trkpt>
      <trkpt lat="46.02212" lon="6.84987">
        <ele>2976.38</ele>
        <time>2017-10-17T12:49:09Z</time>
      </trkpt>
      <trkpt lat="46.02211" lon="6.84986">
        <ele>2976.38</ele>
        <time>2017-10-17T12:49:10Z</time>
      </trkpt>
      <trkpt lat="46.02204" lon="6.84976">
        <ele>2973.01</ele>
        <time>2017-10-17T12:49:19Z</time>
      </trkpt>
      <trkpt lat="46.02203" lon="6.84974">
        <ele>2972.53</ele>
        <time>2017-10-17T12:49:20Z</time>
      </trkpt>
      <trkpt lat="46.02201" lon="6.84973">
        <ele>2972.53</ele>
        <time>2017-10-17T12:49:21Z</time>
      </trkpt>
      <trkpt lat="46.02199" lon="6.84972">
        <ele>2971.57</ele>
        <time>2017-10-17T12:49:22Z</time>
      </trkpt>
      <trkpt lat="46.02197" lon="6.84971">
        <ele>2971.09</ele>
        <time>2017-10-17T12:49:23Z</time>
      </trkpt>
      <trkpt lat="46.02195" lon="6.8497">
        <ele>2971.09</ele>
        <time>2017-10-17T12:49:24Z</time>
      </trkpt>
      <trkpt lat="46.02193" lon="6.84969">
        <ele>2970.61</ele>
        <time>2017-10-17T12:49:25Z</time>
      </trkpt>
      <trkpt lat="46.02191" lon="6.84968">
        <ele>2970.61</ele>
        <time>2017-10-17T12:49:26Z</time>
      </trkpt>
      <trkpt lat="46.0219" lon="6.84967">
        <ele>2970.61</ele>
        <time>2017-10-17T12:49:27Z</time>
      </trkpt>
      <trkpt lat="46.02188" lon="6.84966">
        <ele>2970.61</ele>
        <time>2017-10-17T12:49:28Z</time>
      </trkpt>
      <trkpt lat="46.02186" lon="6.84965">
        <ele>2970.13</ele>
        <time>2017-10-17T12:49:29Z</time>
      </trkpt>
      <trkpt lat="46.02184" lon="6.84964">
        <ele>2970.13</ele>
        <time>2017-10-17T12:49:30Z</time>
      </trkpt>
      <trkpt lat="46.02182" lon="6.84964">
        <ele>2970.61</ele>
        <time>2017-10-17T12:49:31Z</time>
      </trkpt>
      <trkpt lat="46.02181" lon="6.84962">
        <ele>2970.61</ele>
        <time>2017-10-17T12:49:32Z</time>
      </trkpt>
      <trkpt lat="46.0218" lon="6.8496">
        <ele>2970.61</ele>
        <time>2017-10-17T12:49:33Z</time>
      </trkpt>
      <trkpt lat="46.02176" lon="6.84959">
        <ele>2969.17</ele>
        <time>2017-10-17T12:49:38Z</time>
      </trkpt>
      <trkpt lat="46.02175" lon="6.84959">
        <ele>2969.17</ele>
        <time>2017-10-17T12:49:40Z</time>
      </trkpt>
      <trkpt lat="46.02174" lon="6.84959">
        <ele>2968.69</ele>
        <time>2017-10-17T12:49:41Z</time>
      </trkpt>
      <trkpt lat="46.02172" lon="6.84959">
        <ele>2968.69</ele>
        <time>2017-10-17T12:49:42Z</time>
      </trkpt>
      <trkpt lat="46.02164" lon="6.84955">
        <ele>2965.32</ele>
        <time>2017-10-17T12:49:47Z</time>
      </trkpt>
      <trkpt lat="46.02163" lon="6.84954">
        <ele>2965.32</ele>
        <time>2017-10-17T12:49:48Z</time>
      </trkpt>
      <trkpt lat="46.02153" lon="6.84954">
        <ele>2961.96</ele>
        <time>2017-10-17T12:49:54Z</time>
      </trkpt>
      <trkpt lat="46.02146" lon="6.84952">
        <ele>2961</ele>
        <time>2017-10-17T12:49:57Z</time>
      </trkpt>
      <trkpt lat="46.02139" lon="6.8495">
        <ele>2960.04</ele>
        <time>2017-10-17T12:50:00Z</time>
      </trkpt>
      <trkpt lat="46.02137" lon="6.84949">
        <ele>2960.04</ele>
        <time>2017-10-17T12:50:01Z</time>
      </trkpt>
      <trkpt lat="46.02135" lon="6.84949">
        <ele>2959.56</ele>
        <time>2017-10-17T12:50:02Z</time>
      </trkpt>
      <trkpt lat="46.02133" lon="6.84949">
        <ele>2959.08</ele>
        <time>2017-10-17T12:50:03Z</time>
      </trkpt>
      <trkpt lat="46.02131" lon="6.84949">
        <ele>2958.59</ele>
        <time>2017-10-17T12:50:04Z</time>
      </trkpt>
      <trkpt lat="46.0213" lon="6.84949">
        <ele>2958.11</ele>
        <time>2017-10-17T12:50:05Z</time>
      </trkpt>
      <trkpt lat="46.02128" lon="6.8495">
        <ele>2958.59</ele>
        <time>2017-10-17T12:50:06Z</time>
      </trkpt>
      <trkpt lat="46.02127" lon="6.8495">
        <ele>2958.59</ele>
        <time>2017-10-17T12:50:07Z</time>
      </trkpt>
      <trkpt lat="46.02126" lon="6.84951">
        <ele>2958.11</ele>
        <time>2017-10-17T12:50:08Z</time>
      </trkpt>
      <trkpt lat="46.02124" lon="6.84952">
        <ele>2957.15</ele>
        <time>2017-10-17T12:50:09Z</time>
      </trkpt>
      <trkpt lat="46.02122" lon="6.84952">
        <ele>2956.19</ele>
        <time>2017-10-17T12:50:10Z</time>
      </trkpt>
      <trkpt lat="46.0212" lon="6.84952">
        <ele>2956.19</ele>
        <time>2017-10-17T12:50:11Z</time>
      </trkpt>
      <trkpt lat="46.02118" lon="6.84951">
        <ele>2955.71</ele>
        <time>2017-10-17T12:50:12Z</time>
      </trkpt>
      <trkpt lat="46.02117" lon="6.8495">
        <ele>2955.71</ele>
        <time>2017-10-17T12:50:13Z</time>
      </trkpt>
      <trkpt lat="46.02116" lon="6.84947">
        <ele>2956.19</ele>
        <time>2017-10-17T12:50:16Z</time>
      </trkpt>
      <trkpt lat="46.02114" lon="6.84942">
        <ele>2956.19</ele>
        <time>2017-10-17T12:50:27Z</time>
      </trkpt>
      <trkpt lat="46.02113" lon="6.84942">
        <ele>2956.19</ele>
        <time>2017-10-17T12:50:28Z</time>
      </trkpt>
      <trkpt lat="46.0211" lon="6.84938">
        <ele>2953.79</ele>
        <time>2017-10-17T12:50:39Z</time>
      </trkpt>
      <trkpt lat="46.02108" lon="6.84939">
        <ele>2953.31</ele>
        <time>2017-10-17T12:50:45Z</time>
      </trkpt>
      <trkpt lat="46.02107" lon="6.8494">
        <ele>2952.83</ele>
        <time>2017-10-17T12:50:46Z</time>
      </trkpt>
      <trkpt lat="46.02106" lon="6.8494">
        <ele>2951.87</ele>
        <time>2017-10-17T12:50:47Z</time>
      </trkpt>
      <trkpt lat="46.02105" lon="6.84939">
        <ele>2951.38</ele>
        <time>2017-10-17T12:50:48Z</time>
      </trkpt>
      <trkpt lat="46.02104" lon="6.84938">
        <ele>2950.9</ele>
        <time>2017-10-17T12:50:49Z</time>
      </trkpt>
      <trkpt lat="46.02103" lon="6.84936">
        <ele>2950.42</ele>
        <time>2017-10-17T12:50:50Z</time>
      </trkpt>
      <trkpt lat="46.02102" lon="6.84935">
        <ele>2950.42</ele>
        <time>2017-10-17T12:50:51Z</time>
      </trkpt>
      <trkpt lat="46.02101" lon="6.84934">
        <ele>2950.42</ele>
        <time>2017-10-17T12:50:52Z</time>
      </trkpt>
      <trkpt lat="46.021" lon="6.8494">
        <ele>2949.94</ele>
        <time>2017-10-17T12:51:16Z</time>
      </trkpt>
      <trkpt lat="46.02099" lon="6.84941">
        <ele>2949.46</ele>
        <time>2017-10-17T12:51:17Z</time>
      </trkpt>
      <trkpt lat="46.02099" lon="6.84943">
        <ele>2948.02</ele>
        <time>2017-10-17T12:51:19Z</time>
      </trkpt>
      <trkpt lat="46.02099" lon="6.84945">
        <ele>2947.54</ele>
        <time>2017-10-17T12:51:20Z</time>
      </trkpt>
      <trkpt lat="46.02099" lon="6.84947">
        <ele>2947.06</ele>
        <time>2017-10-17T12:51:21Z</time>
      </trkpt>
      <trkpt lat="46.02098" lon="6.84957">
        <ele>2943.69</ele>
        <time>2017-10-17T12:51:27Z</time>
      </trkpt>
      <trkpt lat="46.02097" lon="6.84958">
        <ele>2942.73</ele>
        <time>2017-10-17T12:51:28Z</time>
      </trkpt>
      <trkpt lat="46.02096" lon="6.84959">
        <ele>2942.25</ele>
        <time>2017-10-17T12:51:29Z</time>
      </trkpt>
      <trkpt lat="46.02095" lon="6.8496">
        <ele>2941.29</ele>
        <time>2017-10-17T12:51:30Z</time>
      </trkpt>
      <trkpt lat="46.02093" lon="6.84959">
        <ele>2940.81</ele>
        <time>2017-10-17T12:51:31Z</time>
      </trkpt>
      <trkpt lat="46.02092" lon="6.84958">
        <ele>2940.81</ele>
        <time>2017-10-17T12:51:32Z</time>
      </trkpt>
      <trkpt lat="46.02091" lon="6.84957">
        <ele>2940.33</ele>
        <time>2017-10-17T12:51:33Z</time>
      </trkpt>
      <trkpt lat="46.02088" lon="6.84958">
        <ele>2940.33</ele>
        <time>2017-10-17T12:51:54Z</time>
      </trkpt>
      <trkpt lat="46.02088" lon="6.8496">
        <ele>2939.85</ele>
        <time>2017-10-17T12:51:55Z</time>
      </trkpt>
      <trkpt lat="46.02086" lon="6.84966">
        <ele>2938.41</ele>
        <time>2017-10-17T12:52:00Z</time>
      </trkpt>
      <trkpt lat="46.02088" lon="6.84978">
        <ele>2935.52</ele>
        <time>2017-10-17T12:52:05Z</time>
      </trkpt>
      <trkpt lat="46.02087" lon="6.84992">
        <ele>2931.68</ele>
        <time>2017-10-17T12:52:13Z</time>
      </trkpt>
      <trkpt lat="46.02085" lon="6.84993">
        <ele>2931.2</ele>
        <time>2017-10-17T12:52:14Z</time>
      </trkpt>
      <trkpt lat="46.02083" lon="6.84993">
        <ele>2930.24</ele>
        <time>2017-10-17T12:52:15Z</time>
      </trkpt>
      <trkpt lat="46.02082" lon="6.84992">
        <ele>2929.75</ele>
        <time>2017-10-17T12:52:16Z</time>
      </trkpt>
      <trkpt lat="46.0208" lon="6.84991">
        <ele>2928.79</ele>
        <time>2017-10-17T12:52:17Z</time>
      </trkpt>
      <trkpt lat="46.02074" lon="6.84989">
        <ele>2926.39</ele>
        <time>2017-10-17T12:52:21Z</time>
      </trkpt>
      <trkpt lat="46.02073" lon="6.84989">
        <ele>2925.91</ele>
        <time>2017-10-17T12:52:22Z</time>
      </trkpt>
      <trkpt lat="46.02072" lon="6.84989">
        <ele>2924.95</ele>
        <time>2017-10-17T12:52:24Z</time>
      </trkpt>
      <trkpt lat="46.02071" lon="6.8499">
        <ele>2924.95</ele>
        <time>2017-10-17T12:52:25Z</time>
      </trkpt>
      <trkpt lat="46.02072" lon="6.84992">
        <ele>2924.47</ele>
        <time>2017-10-17T12:52:26Z</time>
      </trkpt>
      <trkpt lat="46.02072" lon="6.84993">
        <ele>2923.51</ele>
        <time>2017-10-17T12:52:27Z</time>
      </trkpt>
      <trkpt lat="46.02072" lon="6.84995">
        <ele>2923.03</ele>
        <time>2017-10-17T12:52:28Z</time>
      </trkpt>
      <trkpt lat="46.02072" lon="6.84997">
        <ele>2922.54</ele>
        <time>2017-10-17T12:52:29Z</time>
      </trkpt>
      <trkpt lat="46.02071" lon="6.84998">
        <ele>2922.54</ele>
        <time>2017-10-17T12:52:30Z</time>
      </trkpt>
      <trkpt lat="46.0207" lon="6.84998">
        <ele>2921.58</ele>
        <time>2017-10-17T12:52:31Z</time>
      </trkpt>
      <trkpt lat="46.02068" lon="6.84998">
        <ele>2920.62</ele>
        <time>2017-10-17T12:52:32Z</time>
      </trkpt>
      <trkpt lat="46.02067" lon="6.84997">
        <ele>2919.66</ele>
        <time>2017-10-17T12:52:33Z</time>
      </trkpt>
      <trkpt lat="46.02065" lon="6.84997">
        <ele>2919.66</ele>
        <time>2017-10-17T12:52:34Z</time>
      </trkpt>
      <trkpt lat="46.02064" lon="6.84997">
        <ele>2919.18</ele>
        <time>2017-10-17T12:52:35Z</time>
      </trkpt>
      <trkpt lat="46.02063" lon="6.84998">
        <ele>2919.18</ele>
        <time>2017-10-17T12:52:36Z</time>
      </trkpt>
      <trkpt lat="46.02063" lon="6.85001">
        <ele>2918.22</ele>
        <time>2017-10-17T12:52:37Z</time>
      </trkpt>
      <trkpt lat="46.02064" lon="6.85004">
        <ele>2917.26</ele>
        <time>2017-10-17T12:52:38Z</time>
      </trkpt>
      <trkpt lat="46.02064" lon="6.85006">
        <ele>2916.78</ele>
        <time>2017-10-17T12:52:39Z</time>
      </trkpt>
      <trkpt lat="46.02063" lon="6.85008">
        <ele>2916.3</ele>
        <time>2017-10-17T12:52:40Z</time>
      </trkpt>
      <trkpt lat="46.02061" lon="6.85009">
        <ele>2915.82</ele>
        <time>2017-10-17T12:52:41Z</time>
      </trkpt>
      <trkpt lat="46.02059" lon="6.85009">
        <ele>2914.85</ele>
        <time>2017-10-17T12:52:42Z</time>
      </trkpt>
      <trkpt lat="46.02057" lon="6.85008">
        <ele>2914.37</ele>
        <time>2017-10-17T12:52:43Z</time>
      </trkpt>
      <trkpt lat="46.02056" lon="6.85008">
        <ele>2914.37</ele>
        <time>2017-10-17T12:52:44Z</time>
      </trkpt>
      <trkpt lat="46.02054" lon="6.85008">
        <ele>2913.41</ele>
        <time>2017-10-17T12:52:45Z</time>
      </trkpt>
      <trkpt lat="46.02052" lon="6.85008">
        <ele>2911.49</ele>
        <time>2017-10-17T12:52:46Z</time>
      </trkpt>
      <trkpt lat="46.02046" lon="6.85008">
        <ele>2907.16</ele>
        <time>2017-10-17T12:52:49Z</time>
      </trkpt>
      <trkpt lat="46.02039" lon="6.85004">
        <ele>2903.8</ele>
        <time>2017-10-17T12:52:53Z</time>
      </trkpt>
      <trkpt lat="46.02033" lon="6.85002">
        <ele>2901.4</ele>
        <time>2017-10-17T12:52:57Z</time>
      </trkpt>
      <trkpt lat="46.02032" lon="6.85004">
        <ele>2900.92</ele>
        <time>2017-10-17T12:52:58Z</time>
      </trkpt>
      <trkpt lat="46.02031" lon="6.85005">
        <ele>2900.44</ele>
        <time>2017-10-17T12:52:59Z</time>
      </trkpt>
      <trkpt lat="46.0203" lon="6.85005">
        <ele>2899.47</ele>
        <time>2017-10-17T12:53:00Z</time>
      </trkpt>
      <trkpt lat="46.02029" lon="6.85004">
        <ele>2898.99</ele>
        <time>2017-10-17T12:53:01Z</time>
      </trkpt>
      <trkpt lat="46.02028" lon="6.85003">
        <ele>2898.03</ele>
        <time>2017-10-17T12:53:02Z</time>
      </trkpt>
      <trkpt lat="46.02027" lon="6.85003">
        <ele>2898.03</ele>
        <time>2017-10-17T12:53:03Z</time>
      </trkpt>
      <trkpt lat="46.02026" lon="6.85004">
        <ele>2897.55</ele>
        <time>2017-10-17T12:53:04Z</time>
      </trkpt>
      <trkpt lat="46.02026" lon="6.85006">
        <ele>2897.07</ele>
        <time>2017-10-17T12:53:05Z</time>
      </trkpt>
      <trkpt lat="46.02026" lon="6.85008">
        <ele>2896.59</ele>
        <time>2017-10-17T12:53:06Z</time>
      </trkpt>
      <trkpt lat="46.02025" lon="6.85009">
        <ele>2896.59</ele>
        <time>2017-10-17T12:53:07Z</time>
      </trkpt>
      <trkpt lat="46.02024" lon="6.8501">
        <ele>2895.63</ele>
        <time>2017-10-17T12:53:08Z</time>
      </trkpt>
      <trkpt lat="46.02023" lon="6.8501">
        <ele>2894.67</ele>
        <time>2017-10-17T12:53:09Z</time>
      </trkpt>
      <trkpt lat="46.02021" lon="6.85008">
        <ele>2894.19</ele>
        <time>2017-10-17T12:53:10Z</time>
      </trkpt>
      <trkpt lat="46.0202" lon="6.85008">
        <ele>2893.23</ele>
        <time>2017-10-17T12:53:11Z</time>
      </trkpt>
      <trkpt lat="46.02019" lon="6.85007">
        <ele>2893.23</ele>
        <time>2017-10-17T12:53:12Z</time>
      </trkpt>
      <trkpt lat="46.02018" lon="6.85006">
        <ele>2892.74</ele>
        <time>2017-10-17T12:53:13Z</time>
      </trkpt>
      <trkpt lat="46.02017" lon="6.85006">
        <ele>2892.26</ele>
        <time>2017-10-17T12:53:14Z</time>
      </trkpt>
      <trkpt lat="46.02016" lon="6.85005">
        <ele>2891.78</ele>
        <time>2017-10-17T12:53:15Z</time>
      </trkpt>
      <trkpt lat="46.02015" lon="6.85005">
        <ele>2891.3</ele>
        <time>2017-10-17T12:53:16Z</time>
      </trkpt>
      <trkpt lat="46.02013" lon="6.85005">
        <ele>2890.82</ele>
        <time>2017-10-17T12:53:17Z</time>
      </trkpt>
      <trkpt lat="46.02012" lon="6.85004">
        <ele>2889.86</ele>
        <time>2017-10-17T12:53:18Z</time>
      </trkpt>
      <trkpt lat="46.02011" lon="6.85005">
        <ele>2889.38</ele>
        <time>2017-10-17T12:53:19Z</time>
      </trkpt>
      <trkpt lat="46.02009" lon="6.85005">
        <ele>2888.42</ele>
        <time>2017-10-17T12:53:20Z</time>
      </trkpt>
      <trkpt lat="46.02008" lon="6.85005">
        <ele>2886.98</ele>
        <time>2017-10-17T12:53:21Z</time>
      </trkpt>
      <trkpt lat="46.02007" lon="6.85004">
        <ele>2886.02</ele>
        <time>2017-10-17T12:53:22Z</time>
      </trkpt>
      <trkpt lat="46.02006" lon="6.85004">
        <ele>2884.57</ele>
        <time>2017-10-17T12:53:24Z</time>
      </trkpt>
      <trkpt lat="46.02006" lon="6.84999">
        <ele>2884.57</ele>
        <time>2017-10-17T12:53:42Z</time>
      </trkpt>
      <trkpt lat="46.02006" lon="6.84997">
        <ele>2885.05</ele>
        <time>2017-10-17T12:53:43Z</time>
      </trkpt>
      <trkpt lat="46.02005" lon="6.84995">
        <ele>2885.05</ele>
        <time>2017-10-17T12:53:44Z</time>
      </trkpt>
      <trkpt lat="46.02005" lon="6.84992">
        <ele>2884.57</ele>
        <time>2017-10-17T12:53:45Z</time>
      </trkpt>
      <trkpt lat="46.02005" lon="6.8499">
        <ele>2884.57</ele>
        <time>2017-10-17T12:53:46Z</time>
      </trkpt>
      <trkpt lat="46.02005" lon="6.84988">
        <ele>2884.57</ele>
        <time>2017-10-17T12:53:47Z</time>
      </trkpt>
      <trkpt lat="46.02005" lon="6.84986">
        <ele>2885.05</ele>
        <time>2017-10-17T12:53:48Z</time>
      </trkpt>
      <trkpt lat="46.02004" lon="6.84984">
        <ele>2885.05</ele>
        <time>2017-10-17T12:53:49Z</time>
      </trkpt>
      <trkpt lat="46.02004" lon="6.84982">
        <ele>2885.53</ele>
        <time>2017-10-17T12:53:50Z</time>
      </trkpt>
      <trkpt lat="46.02004" lon="6.8498">
        <ele>2885.53</ele>
        <time>2017-10-17T12:53:51Z</time>
      </trkpt>
      <trkpt lat="46.02003" lon="6.84977">
        <ele>2886.02</ele>
        <time>2017-10-17T12:53:52Z</time>
      </trkpt>
      <trkpt lat="46.02003" lon="6.84973">
        <ele>2885.53</ele>
        <time>2017-10-17T12:53:53Z</time>
      </trkpt>
      <trkpt lat="46.02003" lon="6.84971">
        <ele>2885.05</ele>
        <time>2017-10-17T12:53:54Z</time>
      </trkpt>
      <trkpt lat="46.02002" lon="6.84969">
        <ele>2884.57</ele>
        <time>2017-10-17T12:53:55Z</time>
      </trkpt>
      <trkpt lat="46.02002" lon="6.84967">
        <ele>2884.57</ele>
        <time>2017-10-17T12:53:56Z</time>
      </trkpt>
      <trkpt lat="46.01999" lon="6.84959">
        <ele>2884.57</ele>
        <time>2017-10-17T12:54:00Z</time>
      </trkpt>
      <trkpt lat="46.01999" lon="6.84957">
        <ele>2884.57</ele>
        <time>2017-10-17T12:54:01Z</time>
      </trkpt>
      <trkpt lat="46.01995" lon="6.84945">
        <ele>2882.65</ele>
        <time>2017-10-17T12:54:11Z</time>
      </trkpt>
      <trkpt lat="46.01996" lon="6.8494">
        <ele>2882.17</ele>
        <time>2017-10-17T12:54:30Z</time>
      </trkpt>
      <trkpt lat="46.01996" lon="6.84939">
        <ele>2882.17</ele>
        <time>2017-10-17T12:54:31Z</time>
      </trkpt>
      <trkpt lat="46.01996" lon="6.84937">
        <ele>2881.69</ele>
        <time>2017-10-17T12:54:32Z</time>
      </trkpt>
      <trkpt lat="46.01995" lon="6.84934">
        <ele>2881.21</ele>
        <time>2017-10-17T12:55:14Z</time>
      </trkpt>
      <trkpt lat="46.01991" lon="6.84933">
        <ele>2877.84</ele>
        <time>2017-10-17T12:55:18Z</time>
      </trkpt>
      <trkpt lat="46.01991" lon="6.84932">
        <ele>2877.36</ele>
        <time>2017-10-17T12:55:19Z</time>
      </trkpt>
      <trkpt lat="46.0199" lon="6.84931">
        <ele>2877.36</ele>
        <time>2017-10-17T12:55:20Z</time>
      </trkpt>
      <trkpt lat="46.0199" lon="6.8493">
        <ele>2876.88</ele>
        <time>2017-10-17T12:55:21Z</time>
      </trkpt>
      <trkpt lat="46.01986" lon="6.84926">
        <ele>2875.44</ele>
        <time>2017-10-17T12:55:26Z</time>
      </trkpt>
      <trkpt lat="46.01985" lon="6.84926">
        <ele>2875.44</ele>
        <time>2017-10-17T12:55:27Z</time>
      </trkpt>
      <trkpt lat="46.01984" lon="6.84924">
        <ele>2874.96</ele>
        <time>2017-10-17T12:55:28Z</time>
      </trkpt>
      <trkpt lat="46.01982" lon="6.84923">
        <ele>2874</ele>
        <time>2017-10-17T12:55:29Z</time>
      </trkpt>
      <trkpt lat="46.0198" lon="6.84922">
        <ele>2873.52</ele>
        <time>2017-10-17T12:55:30Z</time>
      </trkpt>
      <trkpt lat="46.01979" lon="6.8492">
        <ele>2873.04</ele>
        <time>2017-10-17T12:55:31Z</time>
      </trkpt>
      <trkpt lat="46.01977" lon="6.84918">
        <ele>2872.08</ele>
        <time>2017-10-17T12:55:32Z</time>
      </trkpt>
      <trkpt lat="46.01977" lon="6.84915">
        <ele>2871.6</ele>
        <time>2017-10-17T12:55:33Z</time>
      </trkpt>
      <trkpt lat="46.01977" lon="6.84911">
        <ele>2871.6</ele>
        <time>2017-10-17T12:55:34Z</time>
      </trkpt>
      <trkpt lat="46.01977" lon="6.84907">
        <ele>2871.6</ele>
        <time>2017-10-17T12:55:35Z</time>
      </trkpt>
      <trkpt lat="46.01979" lon="6.84877">
        <ele>2871.11</ele>
        <time>2017-10-17T12:55:44Z</time>
      </trkpt>
      <trkpt lat="46.01975" lon="6.84852">
        <ele>2868.23</ele>
        <time>2017-10-17T12:55:54Z</time>
      </trkpt>
      <trkpt lat="46.01969" lon="6.84834">
        <ele>2865.35</ele>
        <time>2017-10-17T12:56:02Z</time>
      </trkpt>
      <trkpt lat="46.01968" lon="6.84812">
        <ele>2862.94</ele>
        <time>2017-10-17T12:56:11Z</time>
      </trkpt>
      <trkpt lat="46.01966" lon="6.84807">
        <ele>2861.98</ele>
        <time>2017-10-17T12:56:19Z</time>
      </trkpt>
      <trkpt lat="46.01958" lon="6.84803">
        <ele>2860.06</ele>
        <time>2017-10-17T12:56:38Z</time>
      </trkpt>
      <trkpt lat="46.01956" lon="6.84804">
        <ele>2859.58</ele>
        <time>2017-10-17T12:56:39Z</time>
      </trkpt>
      <trkpt lat="46.01954" lon="6.84804">
        <ele>2859.58</ele>
        <time>2017-10-17T12:56:40Z</time>
      </trkpt>
      <trkpt lat="46.01952" lon="6.84803">
        <ele>2859.1</ele>
        <time>2017-10-17T12:56:41Z</time>
      </trkpt>
      <trkpt lat="46.0195" lon="6.84802">
        <ele>2858.62</ele>
        <time>2017-10-17T12:56:42Z</time>
      </trkpt>
      <trkpt lat="46.01939" lon="6.84799">
        <ele>2855.25</ele>
        <time>2017-10-17T12:56:49Z</time>
      </trkpt>
      <trkpt lat="46.0193" lon="6.84785">
        <ele>2852.85</ele>
        <time>2017-10-17T12:56:54Z</time>
      </trkpt>
      <trkpt lat="46.0192" lon="6.84765">
        <ele>2849.97</ele>
        <time>2017-10-17T12:57:03Z</time>
      </trkpt>
      <trkpt lat="46.01919" lon="6.84764">
        <ele>2849.48</ele>
        <time>2017-10-17T12:57:04Z</time>
      </trkpt>
      <trkpt lat="46.01918" lon="6.84764">
        <ele>2849.48</ele>
        <time>2017-10-17T12:57:05Z</time>
      </trkpt>
      <trkpt lat="46.01918" lon="6.84763">
        <ele>2849</ele>
        <time>2017-10-17T12:57:06Z</time>
      </trkpt>
      <trkpt lat="46.0192" lon="6.8475">
        <ele>2846.12</ele>
        <time>2017-10-17T12:57:24Z</time>
      </trkpt>
      <trkpt lat="46.01919" lon="6.84748">
        <ele>2845.16</ele>
        <time>2017-10-17T12:57:25Z</time>
      </trkpt>
      <trkpt lat="46.01919" lon="6.84746">
        <ele>2844.68</ele>
        <time>2017-10-17T12:57:26Z</time>
      </trkpt>
      <trkpt lat="46.01919" lon="6.84744">
        <ele>2843.72</ele>
        <time>2017-10-17T12:57:27Z</time>
      </trkpt>
      <trkpt lat="46.01918" lon="6.84743">
        <ele>2843.24</ele>
        <time>2017-10-17T12:57:28Z</time>
      </trkpt>
      <trkpt lat="46.01917" lon="6.84742">
        <ele>2842.76</ele>
        <time>2017-10-17T12:57:29Z</time>
      </trkpt>
      <trkpt lat="46.01916" lon="6.84741">
        <ele>2842.28</ele>
        <time>2017-10-17T12:57:30Z</time>
      </trkpt>
      <trkpt lat="46.01916" lon="6.8474">
        <ele>2841.79</ele>
        <time>2017-10-17T12:57:31Z</time>
      </trkpt>
      <trkpt lat="46.01913" lon="6.84732">
        <ele>2838.91</ele>
        <time>2017-10-17T12:57:41Z</time>
      </trkpt>
      <trkpt lat="46.01912" lon="6.84732">
        <ele>2838.43</ele>
        <time>2017-10-17T12:57:42Z</time>
      </trkpt>
      <trkpt lat="46.01911" lon="6.84729">
        <ele>2837.47</ele>
        <time>2017-10-17T12:57:43Z</time>
      </trkpt>
      <trkpt lat="46.01911" lon="6.84727">
        <ele>2836.51</ele>
        <time>2017-10-17T12:57:44Z</time>
      </trkpt>
      <trkpt lat="46.01911" lon="6.84723">
        <ele>2835.55</ele>
        <time>2017-10-17T12:57:46Z</time>
      </trkpt>
      <trkpt lat="46.01911" lon="6.84722">
        <ele>2835.06</ele>
        <time>2017-10-17T12:57:47Z</time>
      </trkpt>
      <trkpt lat="46.01912" lon="6.84713">
        <ele>2833.62</ele>
        <time>2017-10-17T12:57:51Z</time>
      </trkpt>
      <trkpt lat="46.01909" lon="6.84703">
        <ele>2832.18</ele>
        <time>2017-10-17T12:57:55Z</time>
      </trkpt>
      <trkpt lat="46.01908" lon="6.84701">
        <ele>2832.18</ele>
        <time>2017-10-17T12:57:56Z</time>
      </trkpt>
      <trkpt lat="46.01908" lon="6.84698">
        <ele>2832.18</ele>
        <time>2017-10-17T12:57:57Z</time>
      </trkpt>
      <trkpt lat="46.01908" lon="6.84694">
        <ele>2832.18</ele>
        <time>2017-10-17T12:57:58Z</time>
      </trkpt>
      <trkpt lat="46.01909" lon="6.84692">
        <ele>2832.18</ele>
        <time>2017-10-17T12:57:59Z</time>
      </trkpt>
      <trkpt lat="46.01909" lon="6.8469">
        <ele>2832.66</ele>
        <time>2017-10-17T12:58:00Z</time>
      </trkpt>
      <trkpt lat="46.0191" lon="6.84689">
        <ele>2833.14</ele>
        <time>2017-10-17T12:58:01Z</time>
      </trkpt>
      <trkpt lat="46.01911" lon="6.84688">
        <ele>2833.62</ele>
        <time>2017-10-17T12:58:02Z</time>
      </trkpt>
      <trkpt lat="46.01911" lon="6.84688">
        <ele>2834.1</ele>
        <time>2017-10-17T12:58:03Z</time>
      </trkpt>
      <trkpt lat="46.01912" lon="6.84687">
        <ele>2834.58</ele>
        <time>2017-10-17T12:58:04Z</time>
      </trkpt>
      <trkpt lat="46.01913" lon="6.84686">
        <ele>2835.06</ele>
        <time>2017-10-17T12:58:06Z</time>
      </trkpt>
      <trkpt lat="46.01916" lon="6.84682">
        <ele>2838.43</ele>
        <time>2017-10-17T12:58:16Z</time>
      </trkpt>
      <trkpt lat="46.01922" lon="6.84678">
        <ele>2841.79</ele>
        <time>2017-10-17T12:58:27Z</time>
      </trkpt>
      <trkpt lat="46.01928" lon="6.84672">
        <ele>2844.68</ele>
        <time>2017-10-17T12:58:45Z</time>
      </trkpt>
      <trkpt lat="46.01927" lon="6.84669">
        <ele>2845.64</ele>
        <time>2017-10-17T12:58:49Z</time>
      </trkpt>
      <trkpt lat="46.01927" lon="6.84668">
        <ele>2846.12</ele>
        <time>2017-10-17T12:58:50Z</time>
      </trkpt>
      <trkpt lat="46.01926" lon="6.84666">
        <ele>2846.12</ele>
        <time>2017-10-17T12:58:51Z</time>
      </trkpt>
      <trkpt lat="46.01918" lon="6.8465">
        <ele>2847.56</ele>
        <time>2017-10-17T12:59:06Z</time>
      </trkpt>
      <trkpt lat="46.01917" lon="6.84649">
        <ele>2847.56</ele>
        <time>2017-10-17T12:59:07Z</time>
      </trkpt>
      <trkpt lat="46.01906" lon="6.84638">
        <ele>2848.04</ele>
        <time>2017-10-17T12:59:19Z</time>
      </trkpt>
      <trkpt lat="46.01905" lon="6.84638">
        <ele>2848.04</ele>
        <time>2017-10-17T12:59:20Z</time>
      </trkpt>
      <trkpt lat="46.01905" lon="6.84636">
        <ele>2848.04</ele>
        <time>2017-10-17T12:59:21Z</time>
      </trkpt>
      <trkpt lat="46.01893" lon="6.84619">
        <ele>2846.6</ele>
        <time>2017-10-17T13:00:23Z</time>
      </trkpt>
      <trkpt lat="46.01886" lon="6.84613">
        <ele>2845.64</ele>
        <time>2017-10-17T13:00:31Z</time>
      </trkpt>
      <trkpt lat="46.01884" lon="6.84612">
        <ele>2845.16</ele>
        <time>2017-10-17T13:00:32Z</time>
      </trkpt>
      <trkpt lat="46.01883" lon="6.8461">
        <ele>2844.68</ele>
        <time>2017-10-17T13:00:33Z</time>
      </trkpt>
      <trkpt lat="46.01871" lon="6.84594">
        <ele>2841.79</ele>
        <time>2017-10-17T13:00:39Z</time>
      </trkpt>
      <trkpt lat="46.0187" lon="6.84592">
        <ele>2841.79</ele>
        <time>2017-10-17T13:00:40Z</time>
      </trkpt>
      <trkpt lat="46.01868" lon="6.8459">
        <ele>2841.79</ele>
        <time>2017-10-17T13:00:41Z</time>
      </trkpt>
      <trkpt lat="46.01867" lon="6.8459">
        <ele>2841.79</ele>
        <time>2017-10-17T13:00:42Z</time>
      </trkpt>
      <trkpt lat="46.01865" lon="6.84589">
        <ele>2841.79</ele>
        <time>2017-10-17T13:00:43Z</time>
      </trkpt>
      <trkpt lat="46.01863" lon="6.84588">
        <ele>2841.79</ele>
        <time>2017-10-17T13:00:44Z</time>
      </trkpt>
      <trkpt lat="46.01862" lon="6.84587">
        <ele>2841.79</ele>
        <time>2017-10-17T13:00:45Z</time>
      </trkpt>
      <trkpt lat="46.01861" lon="6.84588">
        <ele>2841.79</ele>
        <time>2017-10-17T13:00:53Z</time>
      </trkpt>
      <trkpt lat="46.0186" lon="6.84587">
        <ele>2841.79</ele>
        <time>2017-10-17T13:00:54Z</time>
      </trkpt>
      <trkpt lat="46.01859" lon="6.84587">
        <ele>2841.31</ele>
        <time>2017-10-17T13:00:55Z</time>
      </trkpt>
      <trkpt lat="46.01857" lon="6.84586">
        <ele>2841.31</ele>
        <time>2017-10-17T13:00:56Z</time>
      </trkpt>
      <trkpt lat="46.01856" lon="6.84585">
        <ele>2840.83</ele>
        <time>2017-10-17T13:00:57Z</time>
      </trkpt>
      <trkpt lat="46.01854" lon="6.84585">
        <ele>2840.83</ele>
        <time>2017-10-17T13:01:00Z</time>
      </trkpt>
      <trkpt lat="46.01852" lon="6.84584">
        <ele>2839.87</ele>
        <time>2017-10-17T13:01:01Z</time>
      </trkpt>
      <trkpt lat="46.01842" lon="6.84579">
        <ele>2838.43</ele>
        <time>2017-10-17T13:01:06Z</time>
      </trkpt>
      <trkpt lat="46.01837" lon="6.84568">
        <ele>2837.95</ele>
        <time>2017-10-17T13:01:11Z</time>
      </trkpt>
      <trkpt lat="46.01837" lon="6.84565">
        <ele>2836.99</ele>
        <time>2017-10-17T13:01:12Z</time>
      </trkpt>
      <trkpt lat="46.01836" lon="6.84563">
        <ele>2836.99</ele>
        <time>2017-10-17T13:01:13Z</time>
      </trkpt>
      <trkpt lat="46.01836" lon="6.84561">
        <ele>2836.51</ele>
        <time>2017-10-17T13:01:14Z</time>
      </trkpt>
      <trkpt lat="46.01835" lon="6.84559">
        <ele>2835.55</ele>
        <time>2017-10-17T13:01:15Z</time>
      </trkpt>
      <trkpt lat="46.01833" lon="6.84557">
        <ele>2835.06</ele>
        <time>2017-10-17T13:01:16Z</time>
      </trkpt>
      <trkpt lat="46.01832" lon="6.84555">
        <ele>2834.58</ele>
        <time>2017-10-17T13:01:17Z</time>
      </trkpt>
      <trkpt lat="46.01831" lon="6.84553">
        <ele>2834.1</ele>
        <time>2017-10-17T13:01:18Z</time>
      </trkpt>
      <trkpt lat="46.01831" lon="6.8455">
        <ele>2834.1</ele>
        <time>2017-10-17T13:01:19Z</time>
      </trkpt>
      <trkpt lat="46.01831" lon="6.84548">
        <ele>2834.1</ele>
        <time>2017-10-17T13:01:20Z</time>
      </trkpt>
      <trkpt lat="46.01833" lon="6.84548">
        <ele>2833.62</ele>
        <time>2017-10-17T13:02:46Z</time>
      </trkpt>
      <trkpt lat="46.01834" lon="6.84546">
        <ele>2833.62</ele>
        <time>2017-10-17T13:02:47Z</time>
      </trkpt>
      <trkpt lat="46.01834" lon="6.84544">
        <ele>2833.14</ele>
        <time>2017-10-17T13:02:48Z</time>
      </trkpt>
      <trkpt lat="46.01833" lon="6.84543">
        <ele>2832.66</ele>
        <time>2017-10-17T13:02:49Z</time>
      </trkpt>
      <trkpt lat="46.01833" lon="6.84541">
        <ele>2831.7</ele>
        <time>2017-10-17T13:02:50Z</time>
      </trkpt>
      <trkpt lat="46.01832" lon="6.84539">
        <ele>2830.74</ele>
        <time>2017-10-17T13:02:51Z</time>
      </trkpt>
      <trkpt lat="46.01831" lon="6.84537">
        <ele>2829.78</ele>
        <time>2017-10-17T13:02:52Z</time>
      </trkpt>
      <trkpt lat="46.0183" lon="6.84536">
        <ele>2828.82</ele>
        <time>2017-10-17T13:02:53Z</time>
      </trkpt>
      <trkpt lat="46.0183" lon="6.84533">
        <ele>2828.34</ele>
        <time>2017-10-17T13:02:54Z</time>
      </trkpt>
      <trkpt lat="46.01829" lon="6.84531">
        <ele>2827.37</ele>
        <time>2017-10-17T13:02:55Z</time>
      </trkpt>
      <trkpt lat="46.01829" lon="6.84531">
        <ele>2827.37</ele>
        <time>2017-10-17T13:02:56Z</time>
      </trkpt>
      <trkpt lat="46.01828" lon="6.8453">
        <ele>2826.41</ele>
        <time>2017-10-17T13:02:57Z</time>
      </trkpt>
      <trkpt lat="46.01827" lon="6.8453">
        <ele>2825.93</ele>
        <time>2017-10-17T13:02:58Z</time>
      </trkpt>
      <trkpt lat="46.01827" lon="6.84529">
        <ele>2824.97</ele>
        <time>2017-10-17T13:02:59Z</time>
      </trkpt>
      <trkpt lat="46.01826" lon="6.84527">
        <ele>2824.97</ele>
        <time>2017-10-17T13:03:00Z</time>
      </trkpt>
      <trkpt lat="46.01826" lon="6.84525">
        <ele>2824.97</ele>
        <time>2017-10-17T13:03:01Z</time>
      </trkpt>
      <trkpt lat="46.01827" lon="6.84523">
        <ele>2824.97</ele>
        <time>2017-10-17T13:03:02Z</time>
      </trkpt>
      <trkpt lat="46.01826" lon="6.84518">
        <ele>2823.05</ele>
        <time>2017-10-17T13:03:05Z</time>
      </trkpt>
      <trkpt lat="46.01826" lon="6.84515">
        <ele>2822.09</ele>
        <time>2017-10-17T13:03:06Z</time>
      </trkpt>
      <trkpt lat="46.01825" lon="6.84508">
        <ele>2820.65</ele>
        <time>2017-10-17T13:03:09Z</time>
      </trkpt>
      <trkpt lat="46.01824" lon="6.84507">
        <ele>2820.16</ele>
        <time>2017-10-17T13:03:10Z</time>
      </trkpt>
      <trkpt lat="46.01823" lon="6.84507">
        <ele>2820.16</ele>
        <time>2017-10-17T13:03:11Z</time>
      </trkpt>
      <trkpt lat="46.01821" lon="6.84506">
        <ele>2819.2</ele>
        <time>2017-10-17T13:03:12Z</time>
      </trkpt>
      <trkpt lat="46.0182" lon="6.84504">
        <ele>2818.24</ele>
        <time>2017-10-17T13:03:13Z</time>
      </trkpt>
      <trkpt lat="46.0182" lon="6.845">
        <ele>2817.28</ele>
        <time>2017-10-17T13:03:14Z</time>
      </trkpt>
      <trkpt lat="46.01819" lon="6.84496">
        <ele>2815.84</ele>
        <time>2017-10-17T13:03:15Z</time>
      </trkpt>
      <trkpt lat="46.01819" lon="6.84493">
        <ele>2814.88</ele>
        <time>2017-10-17T13:03:16Z</time>
      </trkpt>
      <trkpt lat="46.01819" lon="6.8449">
        <ele>2814.88</ele>
        <time>2017-10-17T13:03:17Z</time>
      </trkpt>
      <trkpt lat="46.01819" lon="6.84488">
        <ele>2814.4</ele>
        <time>2017-10-17T13:03:18Z</time>
      </trkpt>
      <trkpt lat="46.01818" lon="6.84486">
        <ele>2813.44</ele>
        <time>2017-10-17T13:03:19Z</time>
      </trkpt>
      <trkpt lat="46.01818" lon="6.84484">
        <ele>2812.96</ele>
        <time>2017-10-17T13:03:20Z</time>
      </trkpt>
      <trkpt lat="46.01817" lon="6.84482">
        <ele>2812.47</ele>
        <time>2017-10-17T13:03:21Z</time>
      </trkpt>
      <trkpt lat="46.01817" lon="6.8448">
        <ele>2812.47</ele>
        <time>2017-10-17T13:03:22Z</time>
      </trkpt>
      <trkpt lat="46.01816" lon="6.84479">
        <ele>2812.47</ele>
        <time>2017-10-17T13:03:23Z</time>
      </trkpt>
      <trkpt lat="46.01816" lon="6.84477">
        <ele>2811.51</ele>
        <time>2017-10-17T13:03:24Z</time>
      </trkpt>
      <trkpt lat="46.01815" lon="6.84476">
        <ele>2811.03</ele>
        <time>2017-10-17T13:03:25Z</time>
      </trkpt>
      <trkpt lat="46.01814" lon="6.84474">
        <ele>2810.55</ele>
        <time>2017-10-17T13:03:26Z</time>
      </trkpt>
      <trkpt lat="46.01814" lon="6.84471">
        <ele>2810.07</ele>
        <time>2017-10-17T13:03:27Z</time>
      </trkpt>
      <trkpt lat="46.01814" lon="6.84469">
        <ele>2809.11</ele>
        <time>2017-10-17T13:03:28Z</time>
      </trkpt>
      <trkpt lat="46.01813" lon="6.84466">
        <ele>2808.15</ele>
        <time>2017-10-17T13:03:29Z</time>
      </trkpt>
      <trkpt lat="46.01813" lon="6.84464">
        <ele>2807.67</ele>
        <time>2017-10-17T13:03:30Z</time>
      </trkpt>
      <trkpt lat="46.01813" lon="6.84462">
        <ele>2807.19</ele>
        <time>2017-10-17T13:03:31Z</time>
      </trkpt>
      <trkpt lat="46.01812" lon="6.8446">
        <ele>2806.23</ele>
        <time>2017-10-17T13:03:32Z</time>
      </trkpt>
      <trkpt lat="46.01811" lon="6.84457">
        <ele>2805.75</ele>
        <time>2017-10-17T13:03:33Z</time>
      </trkpt>
      <trkpt lat="46.01811" lon="6.84455">
        <ele>2805.26</ele>
        <time>2017-10-17T13:03:34Z</time>
      </trkpt>
      <trkpt lat="46.01812" lon="6.84452">
        <ele>2804.78</ele>
        <time>2017-10-17T13:03:35Z</time>
      </trkpt>
      <trkpt lat="46.01812" lon="6.84449">
        <ele>2804.3</ele>
        <time>2017-10-17T13:03:36Z</time>
      </trkpt>
      <trkpt lat="46.01813" lon="6.84446">
        <ele>2803.82</ele>
        <time>2017-10-17T13:03:37Z</time>
      </trkpt>
      <trkpt lat="46.01814" lon="6.84432">
        <ele>2800.46</ele>
        <time>2017-10-17T13:03:41Z</time>
      </trkpt>
      <trkpt lat="46.01814" lon="6.84425">
        <ele>2799.02</ele>
        <time>2017-10-17T13:03:44Z</time>
      </trkpt>
      <trkpt lat="46.01812" lon="6.84416">
        <ele>2796.61</ele>
        <time>2017-10-17T13:03:49Z</time>
      </trkpt>
      <trkpt lat="46.01812" lon="6.84414">
        <ele>2796.61</ele>
        <time>2017-10-17T13:03:50Z</time>
      </trkpt>
      <trkpt lat="46.01811" lon="6.84409">
        <ele>2794.69</ele>
        <time>2017-10-17T13:03:53Z</time>
      </trkpt>
      <trkpt lat="46.01811" lon="6.84407">
        <ele>2794.69</ele>
        <time>2017-10-17T13:03:54Z</time>
      </trkpt>
      <trkpt lat="46.01812" lon="6.84405">
        <ele>2794.21</ele>
        <time>2017-10-17T13:03:55Z</time>
      </trkpt>
      <trkpt lat="46.01811" lon="6.84404">
        <ele>2794.21</ele>
        <time>2017-10-17T13:03:56Z</time>
      </trkpt>
      <trkpt lat="46.01811" lon="6.84402">
        <ele>2793.25</ele>
        <time>2017-10-17T13:03:57Z</time>
      </trkpt>
      <trkpt lat="46.0181" lon="6.844">
        <ele>2792.77</ele>
        <time>2017-10-17T13:03:58Z</time>
      </trkpt>
      <trkpt lat="46.0181" lon="6.84398">
        <ele>2792.29</ele>
        <time>2017-10-17T13:03:59Z</time>
      </trkpt>
      <trkpt lat="46.0181" lon="6.84395">
        <ele>2791.81</ele>
        <time>2017-10-17T13:04:00Z</time>
      </trkpt>
      <trkpt lat="46.0181" lon="6.84392">
        <ele>2790.84</ele>
        <time>2017-10-17T13:04:01Z</time>
      </trkpt>
      <trkpt lat="46.01811" lon="6.84372">
        <ele>2787</ele>
        <time>2017-10-17T13:04:08Z</time>
      </trkpt>
      <trkpt lat="46.01808" lon="6.84357">
        <ele>2784.12</ele>
        <time>2017-10-17T13:04:13Z</time>
      </trkpt>
      <trkpt lat="46.01805" lon="6.84338">
        <ele>2780.75</ele>
        <time>2017-10-17T13:04:19Z</time>
      </trkpt>
      <trkpt lat="46.01802" lon="6.8433">
        <ele>2779.31</ele>
        <time>2017-10-17T13:04:22Z</time>
      </trkpt>
      <trkpt lat="46.01804" lon="6.84314">
        <ele>2776.91</ele>
        <time>2017-10-17T13:04:29Z</time>
      </trkpt>
      <trkpt lat="46.01803" lon="6.84312">
        <ele>2775.94</ele>
        <time>2017-10-17T13:04:30Z</time>
      </trkpt>
      <trkpt lat="46.01803" lon="6.84309">
        <ele>2774.98</ele>
        <time>2017-10-17T13:04:31Z</time>
      </trkpt>
      <trkpt lat="46.01802" lon="6.84308">
        <ele>2774.5</ele>
        <time>2017-10-17T13:04:32Z</time>
      </trkpt>
      <trkpt lat="46.01801" lon="6.84306">
        <ele>2774.02</ele>
        <time>2017-10-17T13:04:33Z</time>
      </trkpt>
      <trkpt lat="46.018" lon="6.84304">
        <ele>2773.54</ele>
        <time>2017-10-17T13:04:34Z</time>
      </trkpt>
      <trkpt lat="46.018" lon="6.84302">
        <ele>2773.06</ele>
        <time>2017-10-17T13:04:35Z</time>
      </trkpt>
      <trkpt lat="46.018" lon="6.84299">
        <ele>2772.58</ele>
        <time>2017-10-17T13:04:36Z</time>
      </trkpt>
      <trkpt lat="46.018" lon="6.84296">
        <ele>2771.62</ele>
        <time>2017-10-17T13:04:37Z</time>
      </trkpt>
      <trkpt lat="46.018" lon="6.84293">
        <ele>2771.14</ele>
        <time>2017-10-17T13:04:38Z</time>
      </trkpt>
      <trkpt lat="46.01799" lon="6.8429">
        <ele>2771.14</ele>
        <time>2017-10-17T13:04:39Z</time>
      </trkpt>
      <trkpt lat="46.01794" lon="6.84276">
        <ele>2770.18</ele>
        <time>2017-10-17T13:04:50Z</time>
      </trkpt>
      <trkpt lat="46.01791" lon="6.84277">
        <ele>2768.73</ele>
        <time>2017-10-17T13:05:08Z</time>
      </trkpt>
      <trkpt lat="46.01791" lon="6.84277">
        <ele>2767.77</ele>
        <time>2017-10-17T13:05:09Z</time>
      </trkpt>
      <trkpt lat="46.0179" lon="6.84276">
        <ele>2767.29</ele>
        <time>2017-10-17T13:05:10Z</time>
      </trkpt>
      <trkpt lat="46.0179" lon="6.84274">
        <ele>2766.81</ele>
        <time>2017-10-17T13:05:11Z</time>
      </trkpt>
      <trkpt lat="46.01789" lon="6.84273">
        <ele>2766.81</ele>
        <time>2017-10-17T13:05:12Z</time>
      </trkpt>
      <trkpt lat="46.01789" lon="6.8427">
        <ele>2765.85</ele>
        <time>2017-10-17T13:05:13Z</time>
      </trkpt>
      <trkpt lat="46.0179" lon="6.84267">
        <ele>2765.85</ele>
        <time>2017-10-17T13:05:14Z</time>
      </trkpt>
      <trkpt lat="46.01791" lon="6.84265">
        <ele>2765.37</ele>
        <time>2017-10-17T13:05:15Z</time>
      </trkpt>
      <trkpt lat="46.01791" lon="6.84262">
        <ele>2765.37</ele>
        <time>2017-10-17T13:05:16Z</time>
      </trkpt>
      <trkpt lat="46.0179" lon="6.84259">
        <ele>2765.37</ele>
        <time>2017-10-17T13:05:17Z</time>
      </trkpt>
      <trkpt lat="46.0179" lon="6.84256">
        <ele>2764.89</ele>
        <time>2017-10-17T13:05:18Z</time>
      </trkpt>
      <trkpt lat="46.01789" lon="6.84253">
        <ele>2764.89</ele>
        <time>2017-10-17T13:05:19Z</time>
      </trkpt>
      <trkpt lat="46.01788" lon="6.84251">
        <ele>2764.89</ele>
        <time>2017-10-17T13:05:20Z</time>
      </trkpt>
      <trkpt lat="46.01787" lon="6.8425">
        <ele>2764.89</ele>
        <time>2017-10-17T13:05:21Z</time>
      </trkpt>
      <trkpt lat="46.01786" lon="6.84249">
        <ele>2764.89</ele>
        <time>2017-10-17T13:05:22Z</time>
      </trkpt>
      <trkpt lat="46.01786" lon="6.84248">
        <ele>2764.41</ele>
        <time>2017-10-17T13:05:23Z</time>
      </trkpt>
      <trkpt lat="46.01783" lon="6.84239">
        <ele>2761.52</ele>
        <time>2017-10-17T13:05:31Z</time>
      </trkpt>
      <trkpt lat="46.01782" lon="6.84237">
        <ele>2760.56</ele>
        <time>2017-10-17T13:05:33Z</time>
      </trkpt>
      <trkpt lat="46.01781" lon="6.84228">
        <ele>2758.64</ele>
        <time>2017-10-17T13:05:51Z</time>
      </trkpt>
      <trkpt lat="46.01776" lon="6.84224">
        <ele>2754.8</ele>
        <time>2017-10-17T13:05:58Z</time>
      </trkpt>
      <trkpt lat="46.01769" lon="6.84218">
        <ele>2751.43</ele>
        <time>2017-10-17T13:06:08Z</time>
      </trkpt>
      <trkpt lat="46.0176" lon="6.84203">
        <ele>2748.07</ele>
        <time>2017-10-17T13:06:19Z</time>
      </trkpt>
      <trkpt lat="46.01754" lon="6.84191">
        <ele>2746.62</ele>
        <time>2017-10-17T13:06:32Z</time>
      </trkpt>
      <trkpt lat="46.01753" lon="6.8419">
        <ele>2746.62</ele>
        <time>2017-10-17T13:06:33Z</time>
      </trkpt>
      <trkpt lat="46.0174" lon="6.84177">
        <ele>2744.22</ele>
        <time>2017-10-17T13:06:47Z</time>
      </trkpt>
      <trkpt lat="46.01735" lon="6.84165">
        <ele>2744.22</ele>
        <time>2017-10-17T13:07:14Z</time>
      </trkpt>
      <trkpt lat="46.01735" lon="6.84163">
        <ele>2744.22</ele>
        <time>2017-10-17T13:07:16Z</time>
      </trkpt>
      <trkpt lat="46.0173" lon="6.84152">
        <ele>2742.78</ele>
        <time>2017-10-17T13:07:26Z</time>
      </trkpt>
      <trkpt lat="46.0173" lon="6.84149">
        <ele>2742.3</ele>
        <time>2017-10-17T13:07:27Z</time>
      </trkpt>
      <trkpt lat="46.0173" lon="6.84146">
        <ele>2742.3</ele>
        <time>2017-10-17T13:07:28Z</time>
      </trkpt>
      <trkpt lat="46.0173" lon="6.84144">
        <ele>2742.78</ele>
        <time>2017-10-17T13:07:29Z</time>
      </trkpt>
      <trkpt lat="46.01729" lon="6.84143">
        <ele>2743.26</ele>
        <time>2017-10-17T13:07:30Z</time>
      </trkpt>
      <trkpt lat="46.01729" lon="6.84137">
        <ele>2742.78</ele>
        <time>2017-10-17T13:07:47Z</time>
      </trkpt>
      <trkpt lat="46.01732" lon="6.84131">
        <ele>2739.89</ele>
        <time>2017-10-17T13:08:07Z</time>
      </trkpt>
      <trkpt lat="46.01728" lon="6.84126">
        <ele>2737.97</ele>
        <time>2017-10-17T13:08:17Z</time>
      </trkpt>
      <trkpt lat="46.01725" lon="6.84121">
        <ele>2737.49</ele>
        <time>2017-10-17T13:08:24Z</time>
      </trkpt>
      <trkpt lat="46.01719" lon="6.84118">
        <ele>2734.13</ele>
        <time>2017-10-17T13:08:56Z</time>
      </trkpt>
      <trkpt lat="46.01713" lon="6.84117">
        <ele>2730.76</ele>
        <time>2017-10-17T13:09:07Z</time>
      </trkpt>
      <trkpt lat="46.01708" lon="6.84118">
        <ele>2727.4</ele>
        <time>2017-10-17T13:09:20Z</time>
      </trkpt>
      <trkpt lat="46.01704" lon="6.84118">
        <ele>2724.51</ele>
        <time>2017-10-17T13:09:31Z</time>
      </trkpt>
      <trkpt lat="46.01701" lon="6.84122">
        <ele>2721.63</ele>
        <time>2017-10-17T13:09:44Z</time>
      </trkpt>
      <trkpt lat="46.01697" lon="6.84125">
        <ele>2718.27</ele>
        <time>2017-10-17T13:09:56Z</time>
      </trkpt>
      <trkpt lat="46.01695" lon="6.84119">
        <ele>2715.86</ele>
        <time>2017-10-17T13:10:03Z</time>
      </trkpt>
      <trkpt lat="46.01695" lon="6.84117">
        <ele>2715.38</ele>
        <time>2017-10-17T13:10:04Z</time>
      </trkpt>
      <trkpt lat="46.01695" lon="6.84111">
        <ele>2712.98</ele>
        <time>2017-10-17T13:10:16Z</time>
      </trkpt>
      <trkpt lat="46.01696" lon="6.8411">
        <ele>2712.98</ele>
        <time>2017-10-17T13:10:17Z</time>
      </trkpt>
      <trkpt lat="46.01697" lon="6.84081">
        <ele>2710.57</ele>
        <time>2017-10-17T13:10:39Z</time>
      </trkpt>
      <trkpt lat="46.01697" lon="6.84081">
        <ele>2709.61</ele>
        <time>2017-10-17T13:10:43Z</time>
      </trkpt>
      <trkpt lat="46.01697" lon="6.84073">
        <ele>2706.25</ele>
        <time>2017-10-17T13:11:04Z</time>
      </trkpt>
      <trkpt lat="46.01695" lon="6.84065">
        <ele>2703.85</ele>
        <time>2017-10-17T13:11:19Z</time>
      </trkpt>
      <trkpt lat="46.01695" lon="6.84064">
        <ele>2703.85</ele>
        <time>2017-10-17T13:11:20Z</time>
      </trkpt>
      <trkpt lat="46.0169" lon="6.84039">
        <ele>2701.92</ele>
        <time>2017-10-17T13:11:36Z</time>
      </trkpt>
      <trkpt lat="46.01696" lon="6.84028">
        <ele>2700.96</ele>
        <time>2017-10-17T13:11:48Z</time>
      </trkpt>
      <trkpt lat="46.017" lon="6.84026">
        <ele>2698.08</ele>
        <time>2017-10-17T13:11:58Z</time>
      </trkpt>
      <trkpt lat="46.01697" lon="6.84017">
        <ele>2695.19</ele>
        <time>2017-10-17T13:12:16Z</time>
      </trkpt>
      <trkpt lat="46.01701" lon="6.84012">
        <ele>2691.83</ele>
        <time>2017-10-17T13:12:28Z</time>
      </trkpt>
      <trkpt lat="46.01701" lon="6.84008">
        <ele>2688.94</ele>
        <time>2017-10-17T13:12:37Z</time>
      </trkpt>
      <trkpt lat="46.01701" lon="6.84007">
        <ele>2687.98</ele>
        <time>2017-10-17T13:12:39Z</time>
      </trkpt>
      <trkpt lat="46.01701" lon="6.84005">
        <ele>2685.1</ele>
        <time>2017-10-17T13:12:54Z</time>
      </trkpt>
      <trkpt lat="46.01701" lon="6.83997">
        <ele>2681.73</ele>
        <time>2017-10-17T13:13:07Z</time>
      </trkpt>
      <trkpt lat="46.01699" lon="6.83992">
        <ele>2680.77</ele>
        <time>2017-10-17T13:13:13Z</time>
      </trkpt>
      <trkpt lat="46.01698" lon="6.83991">
        <ele>2679.81</ele>
        <time>2017-10-17T13:13:14Z</time>
      </trkpt>
      <trkpt lat="46.01696" lon="6.83983">
        <ele>2676.45</ele>
        <time>2017-10-17T13:13:22Z</time>
      </trkpt>
      <trkpt lat="46.01695" lon="6.83973">
        <ele>2672.6</ele>
        <time>2017-10-17T13:13:27Z</time>
      </trkpt>
      <trkpt lat="46.01687" lon="6.83963">
        <ele>2671.16</ele>
        <time>2017-10-17T13:13:34Z</time>
      </trkpt>
      <trkpt lat="46.01686" lon="6.83963">
        <ele>2670.68</ele>
        <time>2017-10-17T13:13:35Z</time>
      </trkpt>
      <trkpt lat="46.01685" lon="6.83962">
        <ele>2670.68</ele>
        <time>2017-10-17T13:13:36Z</time>
      </trkpt>
      <trkpt lat="46.01681" lon="6.83956">
        <ele>2667.8</ele>
        <time>2017-10-17T13:13:41Z</time>
      </trkpt>
      <trkpt lat="46.0168" lon="6.83955">
        <ele>2667.8</ele>
        <time>2017-10-17T13:13:42Z</time>
      </trkpt>
      <trkpt lat="46.01678" lon="6.83952">
        <ele>2665.39</ele>
        <time>2017-10-17T13:13:45Z</time>
      </trkpt>
      <trkpt lat="46.01676" lon="6.83952">
        <ele>2664.91</ele>
        <time>2017-10-17T13:13:46Z</time>
      </trkpt>
      <trkpt lat="46.01674" lon="6.8395">
        <ele>2664.43</ele>
        <time>2017-10-17T13:13:47Z</time>
      </trkpt>
      <trkpt lat="46.01662" lon="6.8394">
        <ele>2661.55</ele>
        <time>2017-10-17T13:13:54Z</time>
      </trkpt>
      <trkpt lat="46.01658" lon="6.83938">
        <ele>2660.11</ele>
        <time>2017-10-17T13:13:57Z</time>
      </trkpt>
      <trkpt lat="46.01655" lon="6.83934">
        <ele>2659.14</ele>
        <time>2017-10-17T13:14:00Z</time>
      </trkpt>
      <trkpt lat="46.01658" lon="6.83926">
        <ele>2657.22</ele>
        <time>2017-10-17T13:14:20Z</time>
      </trkpt>
      <trkpt lat="46.01659" lon="6.83924">
        <ele>2656.26</ele>
        <time>2017-10-17T13:14:21Z</time>
      </trkpt>
      <trkpt lat="46.01659" lon="6.83921">
        <ele>2655.78</ele>
        <time>2017-10-17T13:14:22Z</time>
      </trkpt>
      <trkpt lat="46.01661" lon="6.83912">
        <ele>2652.42</ele>
        <time>2017-10-17T13:14:25Z</time>
      </trkpt>
      <trkpt lat="46.01662" lon="6.83904">
        <ele>2649.53</ele>
        <time>2017-10-17T13:14:28Z</time>
      </trkpt>
      <trkpt lat="46.01663" lon="6.83893">
        <ele>2645.21</ele>
        <time>2017-10-17T13:14:32Z</time>
      </trkpt>
      <trkpt lat="46.01663" lon="6.83885">
        <ele>2641.36</ele>
        <time>2017-10-17T13:14:35Z</time>
      </trkpt>
      <trkpt lat="46.01665" lon="6.83874">
        <ele>2637.99</ele>
        <time>2017-10-17T13:14:39Z</time>
      </trkpt>
      <trkpt lat="46.01667" lon="6.83864">
        <ele>2634.15</ele>
        <time>2017-10-17T13:14:43Z</time>
      </trkpt>
      <trkpt lat="46.01667" lon="6.83857">
        <ele>2630.79</ele>
        <time>2017-10-17T13:14:46Z</time>
      </trkpt>
      <trkpt lat="46.01667" lon="6.83848">
        <ele>2627.42</ele>
        <time>2017-10-17T13:14:50Z</time>
      </trkpt>
      <trkpt lat="46.01667" lon="6.83846">
        <ele>2626.46</ele>
        <time>2017-10-17T13:14:51Z</time>
      </trkpt>
      <trkpt lat="46.01667" lon="6.83844">
        <ele>2625.98</ele>
        <time>2017-10-17T13:14:52Z</time>
      </trkpt>
      <trkpt lat="46.01667" lon="6.83841">
        <ele>2625.02</ele>
        <time>2017-10-17T13:14:53Z</time>
      </trkpt>
      <trkpt lat="46.01667" lon="6.83839">
        <ele>2623.58</ele>
        <time>2017-10-17T13:14:54Z</time>
      </trkpt>
      <trkpt lat="46.01666" lon="6.83837">
        <ele>2623.09</ele>
        <time>2017-10-17T13:14:55Z</time>
      </trkpt>
      <trkpt lat="46.01665" lon="6.83836">
        <ele>2622.61</ele>
        <time>2017-10-17T13:14:56Z</time>
      </trkpt>
      <trkpt lat="46.01663" lon="6.83836">
        <ele>2622.13</ele>
        <time>2017-10-17T13:14:57Z</time>
      </trkpt>
      <trkpt lat="46.01661" lon="6.83835">
        <ele>2621.17</ele>
        <time>2017-10-17T13:14:58Z</time>
      </trkpt>
      <trkpt lat="46.0166" lon="6.83834">
        <ele>2620.69</ele>
        <time>2017-10-17T13:14:59Z</time>
      </trkpt>
      <trkpt lat="46.01659" lon="6.83832">
        <ele>2619.73</ele>
        <time>2017-10-17T13:15:00Z</time>
      </trkpt>
      <trkpt lat="46.01658" lon="6.83831">
        <ele>2619.25</ele>
        <time>2017-10-17T13:15:01Z</time>
      </trkpt>
      <trkpt lat="46.01657" lon="6.83829">
        <ele>2618.77</ele>
        <time>2017-10-17T13:15:02Z</time>
      </trkpt>
      <trkpt lat="46.01657" lon="6.83827">
        <ele>2617.81</ele>
        <time>2017-10-17T13:15:03Z</time>
      </trkpt>
      <trkpt lat="46.01656" lon="6.83825">
        <ele>2617.33</ele>
        <time>2017-10-17T13:15:04Z</time>
      </trkpt>
      <trkpt lat="46.01655" lon="6.83823">
        <ele>2616.37</ele>
        <time>2017-10-17T13:15:05Z</time>
      </trkpt>
      <trkpt lat="46.01655" lon="6.8382">
        <ele>2615.4</ele>
        <time>2017-10-17T13:15:06Z</time>
      </trkpt>
      <trkpt lat="46.01656" lon="6.83818">
        <ele>2614.44</ele>
        <time>2017-10-17T13:15:07Z</time>
      </trkpt>
      <trkpt lat="46.01655" lon="6.83816">
        <ele>2613.96</ele>
        <time>2017-10-17T13:15:08Z</time>
      </trkpt>
      <trkpt lat="46.01654" lon="6.83814">
        <ele>2613.48</ele>
        <time>2017-10-17T13:15:09Z</time>
      </trkpt>
      <trkpt lat="46.01652" lon="6.83812">
        <ele>2613</ele>
        <time>2017-10-17T13:15:10Z</time>
      </trkpt>
      <trkpt lat="46.01651" lon="6.83809">
        <ele>2612.04</ele>
        <time>2017-10-17T13:15:11Z</time>
      </trkpt>
      <trkpt lat="46.01649" lon="6.83806">
        <ele>2611.56</ele>
        <time>2017-10-17T13:15:12Z</time>
      </trkpt>
      <trkpt lat="46.01648" lon="6.83803">
        <ele>2611.08</ele>
        <time>2017-10-17T13:15:13Z</time>
      </trkpt>
      <trkpt lat="46.01645" lon="6.83801">
        <ele>2610.12</ele>
        <time>2017-10-17T13:15:14Z</time>
      </trkpt>
      <trkpt lat="46.01644" lon="6.83798">
        <ele>2609.16</ele>
        <time>2017-10-17T13:15:15Z</time>
      </trkpt>
      <trkpt lat="46.01644" lon="6.83795">
        <ele>2608.67</ele>
        <time>2017-10-17T13:15:16Z</time>
      </trkpt>
      <trkpt lat="46.01643" lon="6.83793">
        <ele>2608.19</ele>
        <time>2017-10-17T13:15:17Z</time>
      </trkpt>
      <trkpt lat="46.01643" lon="6.8379">
        <ele>2607.23</ele>
        <time>2017-10-17T13:15:18Z</time>
      </trkpt>
      <trkpt lat="46.01642" lon="6.83787">
        <ele>2606.75</ele>
        <time>2017-10-17T13:15:19Z</time>
      </trkpt>
      <trkpt lat="46.01642" lon="6.83785">
        <ele>2605.79</ele>
        <time>2017-10-17T13:15:20Z</time>
      </trkpt>
      <trkpt lat="46.0164" lon="6.83783">
        <ele>2605.79</ele>
        <time>2017-10-17T13:15:21Z</time>
      </trkpt>
      <trkpt lat="46.01632" lon="6.83769">
        <ele>2602.43</ele>
        <time>2017-10-17T13:15:28Z</time>
      </trkpt>
      <trkpt lat="46.01628" lon="6.83755">
        <ele>2599.06</ele>
        <time>2017-10-17T13:15:33Z</time>
      </trkpt>
      <trkpt lat="46.01626" lon="6.83745">
        <ele>2595.7</ele>
        <time>2017-10-17T13:15:37Z</time>
      </trkpt>
      <trkpt lat="46.01627" lon="6.83743">
        <ele>2594.74</ele>
        <time>2017-10-17T13:15:38Z</time>
      </trkpt>
      <trkpt lat="46.01628" lon="6.83741">
        <ele>2593.77</ele>
        <time>2017-10-17T13:15:39Z</time>
      </trkpt>
      <trkpt lat="46.01629" lon="6.8374">
        <ele>2593.29</ele>
        <time>2017-10-17T13:15:40Z</time>
      </trkpt>
      <trkpt lat="46.01629" lon="6.83738">
        <ele>2592.81</ele>
        <time>2017-10-17T13:15:41Z</time>
      </trkpt>
      <trkpt lat="46.01628" lon="6.83735">
        <ele>2592.33</ele>
        <time>2017-10-17T13:15:42Z</time>
      </trkpt>
      <trkpt lat="46.01628" lon="6.83733">
        <ele>2591.85</ele>
        <time>2017-10-17T13:15:43Z</time>
      </trkpt>
      <trkpt lat="46.01628" lon="6.8373">
        <ele>2591.37</ele>
        <time>2017-10-17T13:15:44Z</time>
      </trkpt>
      <trkpt lat="46.01627" lon="6.83727">
        <ele>2590.89</ele>
        <time>2017-10-17T13:15:45Z</time>
      </trkpt>
      <trkpt lat="46.01626" lon="6.83725">
        <ele>2589.45</ele>
        <time>2017-10-17T13:15:46Z</time>
      </trkpt>
      <trkpt lat="46.01625" lon="6.83723">
        <ele>2588.49</ele>
        <time>2017-10-17T13:15:47Z</time>
      </trkpt>
      <trkpt lat="46.01625" lon="6.83721">
        <ele>2587.53</ele>
        <time>2017-10-17T13:15:48Z</time>
      </trkpt>
      <trkpt lat="46.01625" lon="6.83719">
        <ele>2586.56</ele>
        <time>2017-10-17T13:15:49Z</time>
      </trkpt>
      <trkpt lat="46.01626" lon="6.83717">
        <ele>2586.08</ele>
        <time>2017-10-17T13:15:50Z</time>
      </trkpt>
      <trkpt lat="46.01627" lon="6.83715">
        <ele>2585.6</ele>
        <time>2017-10-17T13:15:51Z</time>
      </trkpt>
      <trkpt lat="46.01627" lon="6.83713">
        <ele>2585.12</ele>
        <time>2017-10-17T13:15:52Z</time>
      </trkpt>
      <trkpt lat="46.01626" lon="6.83712">
        <ele>2585.12</ele>
        <time>2017-10-17T13:15:53Z</time>
      </trkpt>
      <trkpt lat="46.01624" lon="6.83711">
        <ele>2584.16</ele>
        <time>2017-10-17T13:15:54Z</time>
      </trkpt>
      <trkpt lat="46.01623" lon="6.8371">
        <ele>2583.68</ele>
        <time>2017-10-17T13:15:55Z</time>
      </trkpt>
      <trkpt lat="46.01622" lon="6.83709">
        <ele>2583.2</ele>
        <time>2017-10-17T13:15:56Z</time>
      </trkpt>
      <trkpt lat="46.01621" lon="6.83707">
        <ele>2582.24</ele>
        <time>2017-10-17T13:15:57Z</time>
      </trkpt>
      <trkpt lat="46.01621" lon="6.83705">
        <ele>2581.76</ele>
        <time>2017-10-17T13:15:58Z</time>
      </trkpt>
      <trkpt lat="46.01621" lon="6.83703">
        <ele>2580.8</ele>
        <time>2017-10-17T13:15:59Z</time>
      </trkpt>
      <trkpt lat="46.01621" lon="6.83701">
        <ele>2580.32</ele>
        <time>2017-10-17T13:16:00Z</time>
      </trkpt>
      <trkpt lat="46.01622" lon="6.83699">
        <ele>2579.84</ele>
        <time>2017-10-17T13:16:01Z</time>
      </trkpt>
      <trkpt lat="46.01622" lon="6.83698">
        <ele>2579.35</ele>
        <time>2017-10-17T13:16:02Z</time>
      </trkpt>
      <trkpt lat="46.01622" lon="6.83696">
        <ele>2578.39</ele>
        <time>2017-10-17T13:16:03Z</time>
      </trkpt>
      <trkpt lat="46.01623" lon="6.83693">
        <ele>2577.91</ele>
        <time>2017-10-17T13:16:04Z</time>
      </trkpt>
      <trkpt lat="46.01624" lon="6.83691">
        <ele>2576.95</ele>
        <time>2017-10-17T13:16:05Z</time>
      </trkpt>
      <trkpt lat="46.01625" lon="6.83688">
        <ele>2575.99</ele>
        <time>2017-10-17T13:16:06Z</time>
      </trkpt>
      <trkpt lat="46.01626" lon="6.83686">
        <ele>2575.51</ele>
        <time>2017-10-17T13:16:07Z</time>
      </trkpt>
      <trkpt lat="46.01627" lon="6.83684">
        <ele>2575.03</ele>
        <time>2017-10-17T13:16:08Z</time>
      </trkpt>
      <trkpt lat="46.01627" lon="6.83682">
        <ele>2575.03</ele>
        <time>2017-10-17T13:16:09Z</time>
      </trkpt>
      <trkpt lat="46.01627" lon="6.8368">
        <ele>2574.07</ele>
        <time>2017-10-17T13:16:10Z</time>
      </trkpt>
      <trkpt lat="46.01626" lon="6.83677">
        <ele>2573.11</ele>
        <time>2017-10-17T13:16:11Z</time>
      </trkpt>
      <trkpt lat="46.01623" lon="6.83664">
        <ele>2570.22</ele>
        <time>2017-10-17T13:16:16Z</time>
      </trkpt>
      <trkpt lat="46.01621" lon="6.83661">
        <ele>2569.26</ele>
        <time>2017-10-17T13:16:17Z</time>
      </trkpt>
      <trkpt lat="46.0162" lon="6.83657">
        <ele>2568.78</ele>
        <time>2017-10-17T13:16:18Z</time>
      </trkpt>
      <trkpt lat="46.0162" lon="6.83653">
        <ele>2567.82</ele>
        <time>2017-10-17T13:16:19Z</time>
      </trkpt>
      <trkpt lat="46.01619" lon="6.83649">
        <ele>2567.34</ele>
        <time>2017-10-17T13:16:20Z</time>
      </trkpt>
      <trkpt lat="46.01619" lon="6.83646">
        <ele>2566.86</ele>
        <time>2017-10-17T13:16:21Z</time>
      </trkpt>
      <trkpt lat="46.01616" lon="6.83628">
        <ele>2563.49</ele>
        <time>2017-10-17T13:16:27Z</time>
      </trkpt>
      <trkpt lat="46.01615" lon="6.83611">
        <ele>2559.65</ele>
        <time>2017-10-17T13:16:34Z</time>
      </trkpt>
      <trkpt lat="46.01615" lon="6.83606">
        <ele>2558.69</ele>
        <time>2017-10-17T13:16:36Z</time>
      </trkpt>
      <trkpt lat="46.01615" lon="6.83603">
        <ele>2558.21</ele>
        <time>2017-10-17T13:16:37Z</time>
      </trkpt>
      <trkpt lat="46.01615" lon="6.836">
        <ele>2557.73</ele>
        <time>2017-10-17T13:16:38Z</time>
      </trkpt>
      <trkpt lat="46.01615" lon="6.83597">
        <ele>2557.24</ele>
        <time>2017-10-17T13:16:39Z</time>
      </trkpt>
      <trkpt lat="46.01614" lon="6.83594">
        <ele>2556.76</ele>
        <time>2017-10-17T13:16:40Z</time>
      </trkpt>
      <trkpt lat="46.01614" lon="6.83591">
        <ele>2555.8</ele>
        <time>2017-10-17T13:16:41Z</time>
      </trkpt>
      <trkpt lat="46.01613" lon="6.83589">
        <ele>2555.8</ele>
        <time>2017-10-17T13:16:42Z</time>
      </trkpt>
      <trkpt lat="46.01613" lon="6.83586">
        <ele>2554.84</ele>
        <time>2017-10-17T13:16:43Z</time>
      </trkpt>
      <trkpt lat="46.01613" lon="6.83583">
        <ele>2554.36</ele>
        <time>2017-10-17T13:16:44Z</time>
      </trkpt>
      <trkpt lat="46.01613" lon="6.8358">
        <ele>2553.88</ele>
        <time>2017-10-17T13:16:45Z</time>
      </trkpt>
      <trkpt lat="46.01613" lon="6.83578">
        <ele>2553.88</ele>
        <time>2017-10-17T13:16:46Z</time>
      </trkpt>
      <trkpt lat="46.01613" lon="6.83576">
        <ele>2553.4</ele>
        <time>2017-10-17T13:16:47Z</time>
      </trkpt>
      <trkpt lat="46.01612" lon="6.83573">
        <ele>2552.44</ele>
        <time>2017-10-17T13:16:48Z</time>
      </trkpt>
      <trkpt lat="46.01611" lon="6.83571">
        <ele>2551.48</ele>
        <time>2017-10-17T13:16:49Z</time>
      </trkpt>
      <trkpt lat="46.01611" lon="6.83569">
        <ele>2551</ele>
        <time>2017-10-17T13:16:50Z</time>
      </trkpt>
      <trkpt lat="46.01611" lon="6.83567">
        <ele>2551</ele>
        <time>2017-10-17T13:16:51Z</time>
      </trkpt>
      <trkpt lat="46.0161" lon="6.83566">
        <ele>2550.51</ele>
        <time>2017-10-17T13:16:52Z</time>
      </trkpt>
      <trkpt lat="46.01609" lon="6.83565">
        <ele>2549.55</ele>
        <time>2017-10-17T13:16:53Z</time>
      </trkpt>
      <trkpt lat="46.01608" lon="6.83563">
        <ele>2548.59</ele>
        <time>2017-10-17T13:16:54Z</time>
      </trkpt>
      <trkpt lat="46.01608" lon="6.8356">
        <ele>2547.63</ele>
        <time>2017-10-17T13:16:55Z</time>
      </trkpt>
      <trkpt lat="46.01608" lon="6.83558">
        <ele>2547.15</ele>
        <time>2017-10-17T13:16:56Z</time>
      </trkpt>
      <trkpt lat="46.01607" lon="6.83556">
        <ele>2546.19</ele>
        <time>2017-10-17T13:16:57Z</time>
      </trkpt>
      <trkpt lat="46.01607" lon="6.83554">
        <ele>2545.23</ele>
        <time>2017-10-17T13:16:58Z</time>
      </trkpt>
      <trkpt lat="46.01607" lon="6.8354">
        <ele>2542.34</ele>
        <time>2017-10-17T13:17:03Z</time>
      </trkpt>
      <trkpt lat="46.01605" lon="6.8354">
        <ele>2541.38</ele>
        <time>2017-10-17T13:17:05Z</time>
      </trkpt>
      <trkpt lat="46.01604" lon="6.8354">
        <ele>2541.38</ele>
        <time>2017-10-17T13:17:06Z</time>
      </trkpt>
      <trkpt lat="46.01603" lon="6.83539">
        <ele>2540.9</ele>
        <time>2017-10-17T13:17:07Z</time>
      </trkpt>
      <trkpt lat="46.01601" lon="6.83539">
        <ele>2540.42</ele>
        <time>2017-10-17T13:17:08Z</time>
      </trkpt>
      <trkpt lat="46.016" lon="6.83541">
        <ele>2539.94</ele>
        <time>2017-10-17T13:17:09Z</time>
      </trkpt>
      <trkpt lat="46.01598" lon="6.83542">
        <ele>2539.46</ele>
        <time>2017-10-17T13:17:10Z</time>
      </trkpt>
      <trkpt lat="46.01597" lon="6.83542">
        <ele>2538.98</ele>
        <time>2017-10-17T13:17:11Z</time>
      </trkpt>
      <trkpt lat="46.01596" lon="6.8354">
        <ele>2538.5</ele>
        <time>2017-10-17T13:17:12Z</time>
      </trkpt>
      <trkpt lat="46.01595" lon="6.83538">
        <ele>2537.54</ele>
        <time>2017-10-17T13:17:13Z</time>
      </trkpt>
      <trkpt lat="46.01593" lon="6.83536">
        <ele>2535.61</ele>
        <time>2017-10-17T13:17:15Z</time>
      </trkpt>
      <trkpt lat="46.01591" lon="6.83536">
        <ele>2534.65</ele>
        <time>2017-10-17T13:17:16Z</time>
      </trkpt>
      <trkpt lat="46.0159" lon="6.83535">
        <ele>2534.17</ele>
        <time>2017-10-17T13:17:17Z</time>
      </trkpt>
      <trkpt lat="46.01588" lon="6.83533">
        <ele>2533.69</ele>
        <time>2017-10-17T13:17:18Z</time>
      </trkpt>
      <trkpt lat="46.01588" lon="6.83532">
        <ele>2532.73</ele>
        <time>2017-10-17T13:17:19Z</time>
      </trkpt>
      <trkpt lat="46.01587" lon="6.8353">
        <ele>2531.77</ele>
        <time>2017-10-17T13:17:20Z</time>
      </trkpt>
      <trkpt lat="46.01586" lon="6.83528">
        <ele>2531.29</ele>
        <time>2017-10-17T13:17:21Z</time>
      </trkpt>
      <trkpt lat="46.01586" lon="6.83525">
        <ele>2530.81</ele>
        <time>2017-10-17T13:17:22Z</time>
      </trkpt>
      <trkpt lat="46.01584" lon="6.83524">
        <ele>2530.81</ele>
        <time>2017-10-17T13:17:23Z</time>
      </trkpt>
      <trkpt lat="46.01583" lon="6.83522">
        <ele>2530.81</ele>
        <time>2017-10-17T13:17:24Z</time>
      </trkpt>
      <trkpt lat="46.01575" lon="6.83513">
        <ele>2526.96</ele>
        <time>2017-10-17T13:17:30Z</time>
      </trkpt>
      <trkpt lat="46.01568" lon="6.83499">
        <ele>2524.08</ele>
        <time>2017-10-17T13:17:36Z</time>
      </trkpt>
      <trkpt lat="46.01561" lon="6.83481">
        <ele>2521.19</ele>
        <time>2017-10-17T13:17:42Z</time>
      </trkpt>
      <trkpt lat="46.01557" lon="6.83469">
        <ele>2519.27</ele>
        <time>2017-10-17T13:17:46Z</time>
      </trkpt>
      <trkpt lat="46.01555" lon="6.83466">
        <ele>2518.79</ele>
        <time>2017-10-17T13:17:47Z</time>
      </trkpt>
      <trkpt lat="46.01553" lon="6.83463">
        <ele>2518.31</ele>
        <time>2017-10-17T13:17:48Z</time>
      </trkpt>
      <trkpt lat="46.01552" lon="6.83461">
        <ele>2517.83</ele>
        <time>2017-10-17T13:17:49Z</time>
      </trkpt>
      <trkpt lat="46.01551" lon="6.83458">
        <ele>2516.87</ele>
        <time>2017-10-17T13:17:50Z</time>
      </trkpt>
      <trkpt lat="46.01551" lon="6.83455">
        <ele>2516.39</ele>
        <time>2017-10-17T13:17:51Z</time>
      </trkpt>
      <trkpt lat="46.0155" lon="6.83452">
        <ele>2515.91</ele>
        <time>2017-10-17T13:17:52Z</time>
      </trkpt>
      <trkpt lat="46.01549" lon="6.8345">
        <ele>2515.43</ele>
        <time>2017-10-17T13:17:53Z</time>
      </trkpt>
      <trkpt lat="46.01549" lon="6.83447">
        <ele>2514.95</ele>
        <time>2017-10-17T13:17:54Z</time>
      </trkpt>
      <trkpt lat="46.01548" lon="6.83444">
        <ele>2514.47</ele>
        <time>2017-10-17T13:17:55Z</time>
      </trkpt>
      <trkpt lat="46.01547" lon="6.83442">
        <ele>2513.98</ele>
        <time>2017-10-17T13:17:56Z</time>
      </trkpt>
      <trkpt lat="46.01547" lon="6.8344">
        <ele>2513.98</ele>
        <time>2017-10-17T13:17:57Z</time>
      </trkpt>
      <trkpt lat="46.01543" lon="6.83428">
        <ele>2511.1</ele>
        <time>2017-10-17T13:18:05Z</time>
      </trkpt>
      <trkpt lat="46.01542" lon="6.83426">
        <ele>2510.62</ele>
        <time>2017-10-17T13:18:06Z</time>
      </trkpt>
      <trkpt lat="46.01542" lon="6.83424">
        <ele>2509.66</ele>
        <time>2017-10-17T13:18:07Z</time>
      </trkpt>
      <trkpt lat="46.01542" lon="6.83422">
        <ele>2508.7</ele>
        <time>2017-10-17T13:18:08Z</time>
      </trkpt>
      <trkpt lat="46.01542" lon="6.83421">
        <ele>2508.22</ele>
        <time>2017-10-17T13:18:09Z</time>
      </trkpt>
      <trkpt lat="46.01547" lon="6.83411">
        <ele>2504.85</ele>
        <time>2017-10-17T13:18:15Z</time>
      </trkpt>
      <trkpt lat="46.01549" lon="6.83401">
        <ele>2503.41</ele>
        <time>2017-10-17T13:18:20Z</time>
      </trkpt>
      <trkpt lat="46.0155" lon="6.83399">
        <ele>2501.97</ele>
        <time>2017-10-17T13:18:21Z</time>
      </trkpt>
      <trkpt lat="46.0155" lon="6.83397">
        <ele>2501.49</ele>
        <time>2017-10-17T13:18:22Z</time>
      </trkpt>
      <trkpt lat="46.0155" lon="6.83395">
        <ele>2501.01</ele>
        <time>2017-10-17T13:18:23Z</time>
      </trkpt>
      <trkpt lat="46.0155" lon="6.83394">
        <ele>2500.53</ele>
        <time>2017-10-17T13:18:24Z</time>
      </trkpt>
      <trkpt lat="46.01549" lon="6.83393">
        <ele>2500.05</ele>
        <time>2017-10-17T13:18:25Z</time>
      </trkpt>
      <trkpt lat="46.01548" lon="6.83392">
        <ele>2499.08</ele>
        <time>2017-10-17T13:18:26Z</time>
      </trkpt>
      <trkpt lat="46.01547" lon="6.83391">
        <ele>2498.6</ele>
        <time>2017-10-17T13:18:27Z</time>
      </trkpt>
      <trkpt lat="46.01548" lon="6.83389">
        <ele>2497.64</ele>
        <time>2017-10-17T13:18:28Z</time>
      </trkpt>
      <trkpt lat="46.01549" lon="6.83387">
        <ele>2497.16</ele>
        <time>2017-10-17T13:18:29Z</time>
      </trkpt>
      <trkpt lat="46.01551" lon="6.83381">
        <ele>2495.24</ele>
        <time>2017-10-17T13:18:33Z</time>
      </trkpt>
      <trkpt lat="46.01551" lon="6.83379">
        <ele>2494.76</ele>
        <time>2017-10-17T13:18:34Z</time>
      </trkpt>
      <trkpt lat="46.01549" lon="6.83378">
        <ele>2494.28</ele>
        <time>2017-10-17T13:18:35Z</time>
      </trkpt>
      <trkpt lat="46.01548" lon="6.83376">
        <ele>2493.8</ele>
        <time>2017-10-17T13:18:36Z</time>
      </trkpt>
      <trkpt lat="46.01549" lon="6.83374">
        <ele>2492.84</ele>
        <time>2017-10-17T13:18:37Z</time>
      </trkpt>
      <trkpt lat="46.0155" lon="6.83373">
        <ele>2492.36</ele>
        <time>2017-10-17T13:18:38Z</time>
      </trkpt>
      <trkpt lat="46.0155" lon="6.8337">
        <ele>2491.39</ele>
        <time>2017-10-17T13:18:39Z</time>
      </trkpt>
      <trkpt lat="46.0155" lon="6.83369">
        <ele>2491.39</ele>
        <time>2017-10-17T13:18:40Z</time>
      </trkpt>
      <trkpt lat="46.01551" lon="6.83367">
        <ele>2490.91</ele>
        <time>2017-10-17T13:18:41Z</time>
      </trkpt>
      <trkpt lat="46.0155" lon="6.83364">
        <ele>2489.95</ele>
        <time>2017-10-17T13:18:43Z</time>
      </trkpt>
      <trkpt lat="46.0155" lon="6.83362">
        <ele>2488.99</ele>
        <time>2017-10-17T13:18:44Z</time>
      </trkpt>
      <trkpt lat="46.01551" lon="6.83361">
        <ele>2488.51</ele>
        <time>2017-10-17T13:18:45Z</time>
      </trkpt>
      <trkpt lat="46.01552" lon="6.83359">
        <ele>2488.03</ele>
        <time>2017-10-17T13:18:46Z</time>
      </trkpt>
      <trkpt lat="46.01552" lon="6.83358">
        <ele>2487.07</ele>
        <time>2017-10-17T13:18:47Z</time>
      </trkpt>
      <trkpt lat="46.01552" lon="6.83356">
        <ele>2486.59</ele>
        <time>2017-10-17T13:18:48Z</time>
      </trkpt>
      <trkpt lat="46.01552" lon="6.83354">
        <ele>2486.11</ele>
        <time>2017-10-17T13:18:49Z</time>
      </trkpt>
      <trkpt lat="46.01552" lon="6.83352">
        <ele>2485.63</ele>
        <time>2017-10-17T13:18:50Z</time>
      </trkpt>
      <trkpt lat="46.01551" lon="6.83349">
        <ele>2484.66</ele>
        <time>2017-10-17T13:18:52Z</time>
      </trkpt>
      <trkpt lat="46.0155" lon="6.83348">
        <ele>2484.18</ele>
        <time>2017-10-17T13:18:53Z</time>
      </trkpt>
      <trkpt lat="46.01551" lon="6.83346">
        <ele>2483.7</ele>
        <time>2017-10-17T13:18:54Z</time>
      </trkpt>
      <trkpt lat="46.01551" lon="6.83342">
        <ele>2481.78</ele>
        <time>2017-10-17T13:18:57Z</time>
      </trkpt>
      <trkpt lat="46.0155" lon="6.8334">
        <ele>2481.78</ele>
        <time>2017-10-17T13:18:58Z</time>
      </trkpt>
      <trkpt lat="46.01549" lon="6.83338">
        <ele>2481.3</ele>
        <time>2017-10-17T13:18:59Z</time>
      </trkpt>
      <trkpt lat="46.01549" lon="6.83336">
        <ele>2479.38</ele>
        <time>2017-10-17T13:19:01Z</time>
      </trkpt>
      <trkpt lat="46.01548" lon="6.83335">
        <ele>2478.42</ele>
        <time>2017-10-17T13:19:02Z</time>
      </trkpt>
      <trkpt lat="46.01548" lon="6.83333">
        <ele>2477.94</ele>
        <time>2017-10-17T13:19:03Z</time>
      </trkpt>
      <trkpt lat="46.01549" lon="6.83331">
        <ele>2477.45</ele>
        <time>2017-10-17T13:19:04Z</time>
      </trkpt>
      <trkpt lat="46.0155" lon="6.83329">
        <ele>2476.97</ele>
        <time>2017-10-17T13:19:05Z</time>
      </trkpt>
      <trkpt lat="46.01551" lon="6.83328">
        <ele>2476.97</ele>
        <time>2017-10-17T13:19:06Z</time>
      </trkpt>
      <trkpt lat="46.01552" lon="6.8332">
        <ele>2475.05</ele>
        <time>2017-10-17T13:19:10Z</time>
      </trkpt>
      <trkpt lat="46.01551" lon="6.83318">
        <ele>2475.05</ele>
        <time>2017-10-17T13:19:11Z</time>
      </trkpt>
      <trkpt lat="46.01551" lon="6.83316">
        <ele>2474.09</ele>
        <time>2017-10-17T13:19:12Z</time>
      </trkpt>
      <trkpt lat="46.01551" lon="6.83313">
        <ele>2473.61</ele>
        <time>2017-10-17T13:19:13Z</time>
      </trkpt>
      <trkpt lat="46.01553" lon="6.83312">
        <ele>2472.65</ele>
        <time>2017-10-17T13:19:14Z</time>
      </trkpt>
      <trkpt lat="46.01554" lon="6.83311">
        <ele>2472.17</ele>
        <time>2017-10-17T13:19:15Z</time>
      </trkpt>
      <trkpt lat="46.01555" lon="6.83309">
        <ele>2471.69</ele>
        <time>2017-10-17T13:19:16Z</time>
      </trkpt>
      <trkpt lat="46.01555" lon="6.83308">
        <ele>2471.21</ele>
        <time>2017-10-17T13:19:17Z</time>
      </trkpt>
      <trkpt lat="46.01555" lon="6.83307">
        <ele>2471.21</ele>
        <time>2017-10-17T13:19:18Z</time>
      </trkpt>
      <trkpt lat="46.01554" lon="6.83305">
        <ele>2470.73</ele>
        <time>2017-10-17T13:19:19Z</time>
      </trkpt>
      <trkpt lat="46.01553" lon="6.83305">
        <ele>2469.76</ele>
        <time>2017-10-17T13:19:20Z</time>
      </trkpt>
      <trkpt lat="46.0155" lon="6.83301">
        <ele>2467.84</ele>
        <time>2017-10-17T13:19:24Z</time>
      </trkpt>
      <trkpt lat="46.01548" lon="6.83301">
        <ele>2467.36</ele>
        <time>2017-10-17T13:19:25Z</time>
      </trkpt>
      <trkpt lat="46.01547" lon="6.833">
        <ele>2467.36</ele>
        <time>2017-10-17T13:19:26Z</time>
      </trkpt>
      <trkpt lat="46.01548" lon="6.83299">
        <ele>2466.4</ele>
        <time>2017-10-17T13:19:28Z</time>
      </trkpt>
      <trkpt lat="46.01544" lon="6.83292">
        <ele>2463.04</ele>
        <time>2017-10-17T13:19:35Z</time>
      </trkpt>
      <trkpt lat="46.01544" lon="6.83289">
        <ele>2461.59</ele>
        <time>2017-10-17T13:19:37Z</time>
      </trkpt>
      <trkpt lat="46.01544" lon="6.83287">
        <ele>2460.15</ele>
        <time>2017-10-17T13:19:38Z</time>
      </trkpt>
      <trkpt lat="46.01543" lon="6.83286">
        <ele>2459.19</ele>
        <time>2017-10-17T13:19:40Z</time>
      </trkpt>
      <trkpt lat="46.01542" lon="6.83285">
        <ele>2459.19</ele>
        <time>2017-10-17T13:19:41Z</time>
      </trkpt>
      <trkpt lat="46.01534" lon="6.83281">
        <ele>2455.34</ele>
        <time>2017-10-17T13:19:49Z</time>
      </trkpt>
      <trkpt lat="46.01533" lon="6.83279">
        <ele>2454.38</ele>
        <time>2017-10-17T13:19:50Z</time>
      </trkpt>
      <trkpt lat="46.01533" lon="6.83277">
        <ele>2453.42</ele>
        <time>2017-10-17T13:19:51Z</time>
      </trkpt>
      <trkpt lat="46.01534" lon="6.83276">
        <ele>2452.46</ele>
        <time>2017-10-17T13:19:52Z</time>
      </trkpt>
      <trkpt lat="46.01534" lon="6.83275">
        <ele>2451.98</ele>
        <time>2017-10-17T13:19:53Z</time>
      </trkpt>
      <trkpt lat="46.01535" lon="6.83273">
        <ele>2451.02</ele>
        <time>2017-10-17T13:19:54Z</time>
      </trkpt>
      <trkpt lat="46.01535" lon="6.83272">
        <ele>2450.54</ele>
        <time>2017-10-17T13:19:55Z</time>
      </trkpt>
      <trkpt lat="46.01535" lon="6.8327">
        <ele>2449.58</ele>
        <time>2017-10-17T13:19:56Z</time>
      </trkpt>
      <trkpt lat="46.01535" lon="6.83269">
        <ele>2449.1</ele>
        <time>2017-10-17T13:19:57Z</time>
      </trkpt>
      <trkpt lat="46.01535" lon="6.83267">
        <ele>2448.62</ele>
        <time>2017-10-17T13:19:58Z</time>
      </trkpt>
      <trkpt lat="46.01534" lon="6.83267">
        <ele>2448.62</ele>
        <time>2017-10-17T13:19:59Z</time>
      </trkpt>
      <trkpt lat="46.01532" lon="6.83266">
        <ele>2448.13</ele>
        <time>2017-10-17T13:20:00Z</time>
      </trkpt>
      <trkpt lat="46.01531" lon="6.83265">
        <ele>2447.65</ele>
        <time>2017-10-17T13:20:01Z</time>
      </trkpt>
      <trkpt lat="46.01528" lon="6.83262">
        <ele>2446.21</ele>
        <time>2017-10-17T13:20:04Z</time>
      </trkpt>
      <trkpt lat="46.01528" lon="6.8326">
        <ele>2445.25</ele>
        <time>2017-10-17T13:20:05Z</time>
      </trkpt>
      <trkpt lat="46.01528" lon="6.83258">
        <ele>2444.77</ele>
        <time>2017-10-17T13:20:06Z</time>
      </trkpt>
      <trkpt lat="46.0153" lon="6.83254">
        <ele>2442.85</ele>
        <time>2017-10-17T13:20:09Z</time>
      </trkpt>
      <trkpt lat="46.0153" lon="6.83253">
        <ele>2442.37</ele>
        <time>2017-10-17T13:20:10Z</time>
      </trkpt>
      <trkpt lat="46.0153" lon="6.83251">
        <ele>2441.41</ele>
        <time>2017-10-17T13:20:11Z</time>
      </trkpt>
      <trkpt lat="46.0153" lon="6.8325">
        <ele>2440.92</ele>
        <time>2017-10-17T13:20:12Z</time>
      </trkpt>
      <trkpt lat="46.0153" lon="6.83249">
        <ele>2439.96</ele>
        <time>2017-10-17T13:20:13Z</time>
      </trkpt>
      <trkpt lat="46.0153" lon="6.83247">
        <ele>2439.48</ele>
        <time>2017-10-17T13:20:14Z</time>
      </trkpt>
      <trkpt lat="46.0153" lon="6.83245">
        <ele>2438.52</ele>
        <time>2017-10-17T13:20:15Z</time>
      </trkpt>
      <trkpt lat="46.0153" lon="6.83244">
        <ele>2437.56</ele>
        <time>2017-10-17T13:20:16Z</time>
      </trkpt>
      <trkpt lat="46.01531" lon="6.83242">
        <ele>2437.08</ele>
        <time>2017-10-17T13:20:17Z</time>
      </trkpt>
      <trkpt lat="46.01533" lon="6.83236">
        <ele>2434.68</ele>
        <time>2017-10-17T13:20:21Z</time>
      </trkpt>
      <trkpt lat="46.01533" lon="6.83234">
        <ele>2433.71</ele>
        <time>2017-10-17T13:20:22Z</time>
      </trkpt>
      <trkpt lat="46.01534" lon="6.83232">
        <ele>2433.23</ele>
        <time>2017-10-17T13:20:23Z</time>
      </trkpt>
      <trkpt lat="46.01534" lon="6.8323">
        <ele>2432.27</ele>
        <time>2017-10-17T13:20:24Z</time>
      </trkpt>
      <trkpt lat="46.01535" lon="6.83228">
        <ele>2431.31</ele>
        <time>2017-10-17T13:20:25Z</time>
      </trkpt>
      <trkpt lat="46.01535" lon="6.83227">
        <ele>2430.83</ele>
        <time>2017-10-17T13:20:26Z</time>
      </trkpt>
      <trkpt lat="46.01536" lon="6.83225">
        <ele>2430.35</ele>
        <time>2017-10-17T13:20:27Z</time>
      </trkpt>
      <trkpt lat="46.01537" lon="6.83225">
        <ele>2428.91</ele>
        <time>2017-10-17T13:20:30Z</time>
      </trkpt>
      <trkpt lat="46.01538" lon="6.83212">
        <ele>2425.54</ele>
        <time>2017-10-17T13:20:46Z</time>
      </trkpt>
      <trkpt lat="46.01537" lon="6.83206">
        <ele>2424.1</ele>
        <time>2017-10-17T13:20:49Z</time>
      </trkpt>
      <trkpt lat="46.01536" lon="6.83197">
        <ele>2420.74</ele>
        <time>2017-10-17T13:20:54Z</time>
      </trkpt>
      <trkpt lat="46.01537" lon="6.83197">
        <ele>2419.78</ele>
        <time>2017-10-17T13:20:56Z</time>
      </trkpt>
      <trkpt lat="46.01538" lon="6.83196">
        <ele>2419.78</ele>
        <time>2017-10-17T13:21:00Z</time>
      </trkpt>
      <trkpt lat="46.01539" lon="6.83195">
        <ele>2420.26</ele>
        <time>2017-10-17T13:21:02Z</time>
      </trkpt>
      <trkpt lat="46.01541" lon="6.83195">
        <ele>2420.26</ele>
        <time>2017-10-17T13:21:03Z</time>
      </trkpt>
      <trkpt lat="46.01542" lon="6.83196">
        <ele>2419.78</ele>
        <time>2017-10-17T13:21:54Z</time>
      </trkpt>
      <trkpt lat="46.01542" lon="6.83196">
        <ele>2420.26</ele>
        <time>2017-10-17T13:22:03Z</time>
      </trkpt>
      <trkpt lat="46.01542" lon="6.83196">
        <ele>2420.26</ele>
        <time>2017-10-17T13:22:13Z</time>
      </trkpt>
      <trkpt lat="46.01542" lon="6.83196">
        <ele>2421.22</ele>
        <time>2017-10-17T13:22:26Z</time>
      </trkpt>
      <trkpt lat="46.01543" lon="6.83198">
        <ele>2420.26</ele>
        <time>2017-10-17T13:22:43Z</time>
      </trkpt>
      <trkpt lat="46.01542" lon="6.83198">
        <ele>2420.26</ele>
        <time>2017-10-17T13:23:07Z</time>
      </trkpt>
      <trkpt lat="46.01542" lon="6.83197">
        <ele>2420.26</ele>
        <time>2017-10-17T13:24:01Z</time>
      </trkpt>
      <trkpt lat="46.01542" lon="6.83197">
        <ele>2420.26</ele>
        <time>2017-10-17T13:24:13Z</time>
      </trkpt>
      <trkpt lat="46.01541" lon="6.83197">
        <ele>2419.78</ele>
        <time>2017-10-17T13:24:24Z</time>
      </trkpt>
      <trkpt lat="46.01542" lon="6.83197">
        <ele>2420.74</ele>
        <time>2017-10-17T13:24:34Z</time>
      </trkpt>
      <trkpt lat="46.01541" lon="6.83198">
        <ele>2420.74</ele>
        <time>2017-10-17T13:24:51Z</time>
      </trkpt>
      <trkpt lat="46.01533" lon="6.83199">
        <ele>2420.26</ele>
        <time>2017-10-17T13:25:11Z</time>
      </trkpt>
      <trkpt lat="46.01531" lon="6.83198">
        <ele>2420.26</ele>
        <time>2017-10-17T13:25:12Z</time>
      </trkpt>
      <trkpt lat="46.0153" lon="6.83197">
        <ele>2419.78</ele>
        <time>2017-10-17T13:25:13Z</time>
      </trkpt>
      <trkpt lat="46.01529" lon="6.83196">
        <ele>2418.81</ele>
        <time>2017-10-17T13:25:14Z</time>
      </trkpt>
      <trkpt lat="46.01527" lon="6.83195">
        <ele>2418.33</ele>
        <time>2017-10-17T13:25:15Z</time>
      </trkpt>
      <trkpt lat="46.01525" lon="6.83195">
        <ele>2417.85</ele>
        <time>2017-10-17T13:25:16Z</time>
      </trkpt>
      <trkpt lat="46.01523" lon="6.83194">
        <ele>2417.37</ele>
        <time>2017-10-17T13:25:17Z</time>
      </trkpt>
      <trkpt lat="46.01522" lon="6.83192">
        <ele>2416.89</ele>
        <time>2017-10-17T13:25:18Z</time>
      </trkpt>
      <trkpt lat="46.01513" lon="6.83186">
        <ele>2413.05</ele>
        <time>2017-10-17T13:25:25Z</time>
      </trkpt>
      <trkpt lat="46.01512" lon="6.83184">
        <ele>2412.09</ele>
        <time>2017-10-17T13:25:26Z</time>
      </trkpt>
      <trkpt lat="46.01512" lon="6.83182">
        <ele>2411.12</ele>
        <time>2017-10-17T13:25:27Z</time>
      </trkpt>
      <trkpt lat="46.01512" lon="6.8318">
        <ele>2410.16</ele>
        <time>2017-10-17T13:25:28Z</time>
      </trkpt>
      <trkpt lat="46.01511" lon="6.83178">
        <ele>2409.68</ele>
        <time>2017-10-17T13:25:29Z</time>
      </trkpt>
      <trkpt lat="46.01511" lon="6.83177">
        <ele>2409.2</ele>
        <time>2017-10-17T13:25:30Z</time>
      </trkpt>
      <trkpt lat="46.0151" lon="6.83176">
        <ele>2408.24</ele>
        <time>2017-10-17T13:25:31Z</time>
      </trkpt>
      <trkpt lat="46.01509" lon="6.83175">
        <ele>2408.24</ele>
        <time>2017-10-17T13:25:32Z</time>
      </trkpt>
      <trkpt lat="46.01508" lon="6.83173">
        <ele>2407.28</ele>
        <time>2017-10-17T13:25:33Z</time>
      </trkpt>
      <trkpt lat="46.01507" lon="6.83172">
        <ele>2406.8</ele>
        <time>2017-10-17T13:25:34Z</time>
      </trkpt>
      <trkpt lat="46.01507" lon="6.83171">
        <ele>2406.32</ele>
        <time>2017-10-17T13:25:35Z</time>
      </trkpt>
      <trkpt lat="46.01505" lon="6.8317">
        <ele>2405.84</ele>
        <time>2017-10-17T13:25:36Z</time>
      </trkpt>
      <trkpt lat="46.01504" lon="6.8317">
        <ele>2404.88</ele>
        <time>2017-10-17T13:25:37Z</time>
      </trkpt>
      <trkpt lat="46.01503" lon="6.83168">
        <ele>2403.91</ele>
        <time>2017-10-17T13:25:38Z</time>
      </trkpt>
      <trkpt lat="46.01503" lon="6.83165">
        <ele>2402.95</ele>
        <time>2017-10-17T13:25:39Z</time>
      </trkpt>
      <trkpt lat="46.01503" lon="6.83163">
        <ele>2401.99</ele>
        <time>2017-10-17T13:25:40Z</time>
      </trkpt>
      <trkpt lat="46.01504" lon="6.83161">
        <ele>2401.51</ele>
        <time>2017-10-17T13:25:41Z</time>
      </trkpt>
      <trkpt lat="46.01504" lon="6.8316">
        <ele>2401.03</ele>
        <time>2017-10-17T13:25:42Z</time>
      </trkpt>
      <trkpt lat="46.01503" lon="6.83159">
        <ele>2400.55</ele>
        <time>2017-10-17T13:25:43Z</time>
      </trkpt>
      <trkpt lat="46.01501" lon="6.83158">
        <ele>2400.07</ele>
        <time>2017-10-17T13:25:44Z</time>
      </trkpt>
      <trkpt lat="46.015" lon="6.83158">
        <ele>2399.59</ele>
        <time>2017-10-17T13:25:45Z</time>
      </trkpt>
      <trkpt lat="46.01499" lon="6.83159">
        <ele>2399.11</ele>
        <time>2017-10-17T13:25:46Z</time>
      </trkpt>
      <trkpt lat="46.01498" lon="6.83158">
        <ele>2398.63</ele>
        <time>2017-10-17T13:25:47Z</time>
      </trkpt>
      <trkpt lat="46.01497" lon="6.83157">
        <ele>2398.15</ele>
        <time>2017-10-17T13:25:48Z</time>
      </trkpt>
      <trkpt lat="46.01496" lon="6.83156">
        <ele>2397.18</ele>
        <time>2017-10-17T13:25:49Z</time>
      </trkpt>
      <trkpt lat="46.01497" lon="6.83154">
        <ele>2396.22</ele>
        <time>2017-10-17T13:25:50Z</time>
      </trkpt>
      <trkpt lat="46.01496" lon="6.83152">
        <ele>2395.26</ele>
        <time>2017-10-17T13:25:52Z</time>
      </trkpt>
      <trkpt lat="46.01494" lon="6.83151">
        <ele>2393.82</ele>
        <time>2017-10-17T13:25:55Z</time>
      </trkpt>
      <trkpt lat="46.01492" lon="6.83152">
        <ele>2393.34</ele>
        <time>2017-10-17T13:25:56Z</time>
      </trkpt>
      <trkpt lat="46.01491" lon="6.83151">
        <ele>2392.38</ele>
        <time>2017-10-17T13:25:57Z</time>
      </trkpt>
      <trkpt lat="46.01491" lon="6.8315">
        <ele>2391.42</ele>
        <time>2017-10-17T13:25:58Z</time>
      </trkpt>
      <trkpt lat="46.01491" lon="6.83148">
        <ele>2390.94</ele>
        <time>2017-10-17T13:25:59Z</time>
      </trkpt>
      <trkpt lat="46.01491" lon="6.83146">
        <ele>2389.97</ele>
        <time>2017-10-17T13:26:00Z</time>
      </trkpt>
      <trkpt lat="46.01489" lon="6.83146">
        <ele>2388.53</ele>
        <time>2017-10-17T13:26:03Z</time>
      </trkpt>
      <trkpt lat="46.01488" lon="6.83145">
        <ele>2387.57</ele>
        <time>2017-10-17T13:26:04Z</time>
      </trkpt>
      <trkpt lat="46.01488" lon="6.83144">
        <ele>2387.09</ele>
        <time>2017-10-17T13:26:05Z</time>
      </trkpt>
      <trkpt lat="46.01486" lon="6.83144">
        <ele>2386.13</ele>
        <time>2017-10-17T13:26:08Z</time>
      </trkpt>
      <trkpt lat="46.01485" lon="6.83144">
        <ele>2385.65</ele>
        <time>2017-10-17T13:26:09Z</time>
      </trkpt>
      <trkpt lat="46.01484" lon="6.83144">
        <ele>2385.17</ele>
        <time>2017-10-17T13:26:10Z</time>
      </trkpt>
      <trkpt lat="46.01483" lon="6.83145">
        <ele>2384.69</ele>
        <time>2017-10-17T13:26:11Z</time>
      </trkpt>
      <trkpt lat="46.01482" lon="6.83146">
        <ele>2384.21</ele>
        <time>2017-10-17T13:26:12Z</time>
      </trkpt>
      <trkpt lat="46.01481" lon="6.83145">
        <ele>2383.73</ele>
        <time>2017-10-17T13:26:13Z</time>
      </trkpt>
      <trkpt lat="46.0148" lon="6.83144">
        <ele>2382.76</ele>
        <time>2017-10-17T13:26:14Z</time>
      </trkpt>
      <trkpt lat="46.0148" lon="6.83143">
        <ele>2382.28</ele>
        <time>2017-10-17T13:26:15Z</time>
      </trkpt>
      <trkpt lat="46.01479" lon="6.83142">
        <ele>2381.8</ele>
        <time>2017-10-17T13:26:16Z</time>
      </trkpt>
      <trkpt lat="46.01478" lon="6.83142">
        <ele>2380.84</ele>
        <time>2017-10-17T13:26:17Z</time>
      </trkpt>
      <trkpt lat="46.01478" lon="6.8314">
        <ele>2379.88</ele>
        <time>2017-10-17T13:26:18Z</time>
      </trkpt>
      <trkpt lat="46.01477" lon="6.83138">
        <ele>2378.92</ele>
        <time>2017-10-17T13:26:19Z</time>
      </trkpt>
      <trkpt lat="46.01477" lon="6.83136">
        <ele>2377.96</ele>
        <time>2017-10-17T13:26:20Z</time>
      </trkpt>
      <trkpt lat="46.01476" lon="6.83135">
        <ele>2377.96</ele>
        <time>2017-10-17T13:26:21Z</time>
      </trkpt>
      <trkpt lat="46.01475" lon="6.83134">
        <ele>2377.96</ele>
        <time>2017-10-17T13:26:22Z</time>
      </trkpt>
      <trkpt lat="46.01474" lon="6.83133">
        <ele>2377</ele>
        <time>2017-10-17T13:26:23Z</time>
      </trkpt>
      <trkpt lat="46.01474" lon="6.83131">
        <ele>2375.55</ele>
        <time>2017-10-17T13:26:24Z</time>
      </trkpt>
      <trkpt lat="46.01475" lon="6.83128">
        <ele>2374.59</ele>
        <time>2017-10-17T13:26:25Z</time>
      </trkpt>
      <trkpt lat="46.01475" lon="6.83124">
        <ele>2373.63</ele>
        <time>2017-10-17T13:26:27Z</time>
      </trkpt>
      <trkpt lat="46.01474" lon="6.83124">
        <ele>2373.63</ele>
        <time>2017-10-17T13:26:28Z</time>
      </trkpt>
      <trkpt lat="46.01472" lon="6.83124">
        <ele>2373.15</ele>
        <time>2017-10-17T13:26:29Z</time>
      </trkpt>
      <trkpt lat="46.0147" lon="6.83124">
        <ele>2372.67</ele>
        <time>2017-10-17T13:26:30Z</time>
      </trkpt>
      <trkpt lat="46.0146" lon="6.83121">
        <ele>2369.79</ele>
        <time>2017-10-17T13:26:35Z</time>
      </trkpt>
      <trkpt lat="46.01453" lon="6.83117">
        <ele>2366.42</ele>
        <time>2017-10-17T13:26:39Z</time>
      </trkpt>
      <trkpt lat="46.01445" lon="6.83111">
        <ele>2363.06</ele>
        <time>2017-10-17T13:26:45Z</time>
      </trkpt>
      <trkpt lat="46.01442" lon="6.83105">
        <ele>2361.62</ele>
        <time>2017-10-17T13:26:48Z</time>
      </trkpt>
      <trkpt lat="46.01442" lon="6.83103">
        <ele>2361.14</ele>
        <time>2017-10-17T13:26:49Z</time>
      </trkpt>
      <trkpt lat="46.01442" lon="6.83094">
        <ele>2357.77</ele>
        <time>2017-10-17T13:26:53Z</time>
      </trkpt>
      <trkpt lat="46.01442" lon="6.83092">
        <ele>2357.29</ele>
        <time>2017-10-17T13:26:54Z</time>
      </trkpt>
      <trkpt lat="46.01441" lon="6.8309">
        <ele>2356.81</ele>
        <time>2017-10-17T13:26:55Z</time>
      </trkpt>
      <trkpt lat="46.01442" lon="6.83088">
        <ele>2356.81</ele>
        <time>2017-10-17T13:26:56Z</time>
      </trkpt>
      <trkpt lat="46.01443" lon="6.83086">
        <ele>2355.85</ele>
        <time>2017-10-17T13:26:57Z</time>
      </trkpt>
      <trkpt lat="46.01443" lon="6.83084">
        <ele>2354.89</ele>
        <time>2017-10-17T13:26:58Z</time>
      </trkpt>
      <trkpt lat="46.01443" lon="6.83083">
        <ele>2353.93</ele>
        <time>2017-10-17T13:26:59Z</time>
      </trkpt>
      <trkpt lat="46.01443" lon="6.83081">
        <ele>2352.96</ele>
        <time>2017-10-17T13:27:00Z</time>
      </trkpt>
      <trkpt lat="46.01442" lon="6.83079">
        <ele>2352.48</ele>
        <time>2017-10-17T13:27:01Z</time>
      </trkpt>
      <trkpt lat="46.01441" lon="6.83077">
        <ele>2352.48</ele>
        <time>2017-10-17T13:27:02Z</time>
      </trkpt>
      <trkpt lat="46.01433" lon="6.83069">
        <ele>2349.12</ele>
        <time>2017-10-17T13:27:08Z</time>
      </trkpt>
      <trkpt lat="46.01426" lon="6.8306">
        <ele>2345.75</ele>
        <time>2017-10-17T13:27:13Z</time>
      </trkpt>
      <trkpt lat="46.0142" lon="6.83054">
        <ele>2342.39</ele>
        <time>2017-10-17T13:27:17Z</time>
      </trkpt>
      <trkpt lat="46.01417" lon="6.83049">
        <ele>2340.95</ele>
        <time>2017-10-17T13:27:20Z</time>
      </trkpt>
      <trkpt lat="46.01416" lon="6.83048">
        <ele>2340.95</ele>
        <time>2017-10-17T13:27:21Z</time>
      </trkpt>
      <trkpt lat="46.01414" lon="6.83047">
        <ele>2339.99</ele>
        <time>2017-10-17T13:27:22Z</time>
      </trkpt>
      <trkpt lat="46.01413" lon="6.83045">
        <ele>2339.51</ele>
        <time>2017-10-17T13:27:23Z</time>
      </trkpt>
      <trkpt lat="46.01412" lon="6.83044">
        <ele>2339.02</ele>
        <time>2017-10-17T13:27:24Z</time>
      </trkpt>
      <trkpt lat="46.01412" lon="6.83042">
        <ele>2338.06</ele>
        <time>2017-10-17T13:27:25Z</time>
      </trkpt>
      <trkpt lat="46.01411" lon="6.83039">
        <ele>2337.58</ele>
        <time>2017-10-17T13:27:26Z</time>
      </trkpt>
      <trkpt lat="46.01411" lon="6.83037">
        <ele>2336.62</ele>
        <time>2017-10-17T13:27:27Z</time>
      </trkpt>
      <trkpt lat="46.0141" lon="6.83035">
        <ele>2336.14</ele>
        <time>2017-10-17T13:27:28Z</time>
      </trkpt>
      <trkpt lat="46.01408" lon="6.83033">
        <ele>2335.66</ele>
        <time>2017-10-17T13:27:29Z</time>
      </trkpt>
      <trkpt lat="46.01407" lon="6.83031">
        <ele>2334.7</ele>
        <time>2017-10-17T13:27:30Z</time>
      </trkpt>
      <trkpt lat="46.01406" lon="6.83029">
        <ele>2334.22</ele>
        <time>2017-10-17T13:27:31Z</time>
      </trkpt>
      <trkpt lat="46.01404" lon="6.83028">
        <ele>2333.26</ele>
        <time>2017-10-17T13:27:32Z</time>
      </trkpt>
      <trkpt lat="46.01403" lon="6.83028">
        <ele>2332.78</ele>
        <time>2017-10-17T13:27:33Z</time>
      </trkpt>
      <trkpt lat="46.01402" lon="6.83027">
        <ele>2332.78</ele>
        <time>2017-10-17T13:27:34Z</time>
      </trkpt>
      <trkpt lat="46.01393" lon="6.83018">
        <ele>2329.41</ele>
        <time>2017-10-17T13:27:40Z</time>
      </trkpt>
      <trkpt lat="46.01379" lon="6.83013">
        <ele>2326.05</ele>
        <time>2017-10-17T13:27:47Z</time>
      </trkpt>
      <trkpt lat="46.01372" lon="6.83016">
        <ele>2324.12</ele>
        <time>2017-10-17T13:27:51Z</time>
      </trkpt>
      <trkpt lat="46.01371" lon="6.83014">
        <ele>2323.16</ele>
        <time>2017-10-17T13:27:52Z</time>
      </trkpt>
      <trkpt lat="46.01372" lon="6.83012">
        <ele>2322.68</ele>
        <time>2017-10-17T13:27:53Z</time>
      </trkpt>
      <trkpt lat="46.01373" lon="6.8301">
        <ele>2322.2</ele>
        <time>2017-10-17T13:27:54Z</time>
      </trkpt>
      <trkpt lat="46.01374" lon="6.83008">
        <ele>2322.2</ele>
        <time>2017-10-17T13:27:55Z</time>
      </trkpt>
      <trkpt lat="46.01378" lon="6.83002">
        <ele>2319.8</ele>
        <time>2017-10-17T13:27:59Z</time>
      </trkpt>
      <trkpt lat="46.01377" lon="6.83001">
        <ele>2318.84</ele>
        <time>2017-10-17T13:28:00Z</time>
      </trkpt>
      <trkpt lat="46.01376" lon="6.83001">
        <ele>2318.84</ele>
        <time>2017-10-17T13:28:01Z</time>
      </trkpt>
      <trkpt lat="46.01375" lon="6.83001">
        <ele>2318.84</ele>
        <time>2017-10-17T13:28:02Z</time>
      </trkpt>
      <trkpt lat="46.01374" lon="6.83001">
        <ele>2318.36</ele>
        <time>2017-10-17T13:28:03Z</time>
      </trkpt>
      <trkpt lat="46.01373" lon="6.83001">
        <ele>2317.4</ele>
        <time>2017-10-17T13:28:04Z</time>
      </trkpt>
      <trkpt lat="46.01371" lon="6.83">
        <ele>2316.91</ele>
        <time>2017-10-17T13:28:05Z</time>
      </trkpt>
      <trkpt lat="46.0137" lon="6.83">
        <ele>2316.91</ele>
        <time>2017-10-17T13:28:06Z</time>
      </trkpt>
      <trkpt lat="46.01369" lon="6.83">
        <ele>2316.43</ele>
        <time>2017-10-17T13:28:07Z</time>
      </trkpt>
      <trkpt lat="46.01368" lon="6.83">
        <ele>2315.95</ele>
        <time>2017-10-17T13:28:08Z</time>
      </trkpt>
      <trkpt lat="46.01366" lon="6.83">
        <ele>2315.47</ele>
        <time>2017-10-17T13:28:09Z</time>
      </trkpt>
      <trkpt lat="46.01365" lon="6.83001">
        <ele>2314.99</ele>
        <time>2017-10-17T13:28:10Z</time>
      </trkpt>
      <trkpt lat="46.01364" lon="6.83002">
        <ele>2314.51</ele>
        <time>2017-10-17T13:28:11Z</time>
      </trkpt>
      <trkpt lat="46.01362" lon="6.83001">
        <ele>2313.07</ele>
        <time>2017-10-17T13:28:13Z</time>
      </trkpt>
      <trkpt lat="46.01361" lon="6.83001">
        <ele>2312.11</ele>
        <time>2017-10-17T13:28:14Z</time>
      </trkpt>
      <trkpt lat="46.01359" lon="6.82999">
        <ele>2310.19</ele>
        <time>2017-10-17T13:28:17Z</time>
      </trkpt>
      <trkpt lat="46.0136" lon="6.82997">
        <ele>2309.22</ele>
        <time>2017-10-17T13:28:18Z</time>
      </trkpt>
      <trkpt lat="46.01359" lon="6.82996">
        <ele>2308.74</ele>
        <time>2017-10-17T13:28:20Z</time>
      </trkpt>
      <trkpt lat="46.01358" lon="6.82995">
        <ele>2308.74</ele>
        <time>2017-10-17T13:28:21Z</time>
      </trkpt>
      <trkpt lat="46.01357" lon="6.82995">
        <ele>2307.78</ele>
        <time>2017-10-17T13:28:22Z</time>
      </trkpt>
      <trkpt lat="46.01357" lon="6.82994">
        <ele>2306.82</ele>
        <time>2017-10-17T13:28:23Z</time>
      </trkpt>
      <trkpt lat="46.01357" lon="6.82988">
        <ele>2303.46</ele>
        <time>2017-10-17T13:28:35Z</time>
      </trkpt>
      <trkpt lat="46.01356" lon="6.82987">
        <ele>2302.98</ele>
        <time>2017-10-17T13:28:36Z</time>
      </trkpt>
      <trkpt lat="46.01355" lon="6.82986">
        <ele>2302.98</ele>
        <time>2017-10-17T13:28:37Z</time>
      </trkpt>
      <trkpt lat="46.01355" lon="6.82984">
        <ele>2302.01</ele>
        <time>2017-10-17T13:28:38Z</time>
      </trkpt>
      <trkpt lat="46.01355" lon="6.82982">
        <ele>2301.53</ele>
        <time>2017-10-17T13:28:39Z</time>
      </trkpt>
      <trkpt lat="46.01356" lon="6.82982">
        <ele>2301.05</ele>
        <time>2017-10-17T13:28:40Z</time>
      </trkpt>
      <trkpt lat="46.01355" lon="6.8298">
        <ele>2299.61</ele>
        <time>2017-10-17T13:28:43Z</time>
      </trkpt>
      <trkpt lat="46.01354" lon="6.8298">
        <ele>2299.13</ele>
        <time>2017-10-17T13:28:44Z</time>
      </trkpt>
      <trkpt lat="46.01346" lon="6.82977">
        <ele>2295.77</ele>
        <time>2017-10-17T13:28:53Z</time>
      </trkpt>
      <trkpt lat="46.0134" lon="6.82973">
        <ele>2292.4</ele>
        <time>2017-10-17T13:28:58Z</time>
      </trkpt>
      <trkpt lat="46.01337" lon="6.82974">
        <ele>2291.44</ele>
        <time>2017-10-17T13:29:00Z</time>
      </trkpt>
      <trkpt lat="46.01323" lon="6.82979">
        <ele>2289.04</ele>
        <time>2017-10-17T13:29:07Z</time>
      </trkpt>
      <trkpt lat="46.01317" lon="6.8298">
        <ele>2287.59</ele>
        <time>2017-10-17T13:29:10Z</time>
      </trkpt>
      <trkpt lat="46.01309" lon="6.82985">
        <ele>2285.19</ele>
        <time>2017-10-17T13:29:16Z</time>
      </trkpt>
      <trkpt lat="46.01307" lon="6.82984">
        <ele>2281.83</ele>
        <time>2017-10-17T13:29:24Z</time>
      </trkpt>
      <trkpt lat="46.01305" lon="6.82984">
        <ele>2281.35</ele>
        <time>2017-10-17T13:29:26Z</time>
      </trkpt>
      <trkpt lat="46.01298" lon="6.82986">
        <ele>2277.98</ele>
        <time>2017-10-17T13:29:32Z</time>
      </trkpt>
      <trkpt lat="46.01297" lon="6.82986">
        <ele>2277.5</ele>
        <time>2017-10-17T13:29:33Z</time>
      </trkpt>
      <trkpt lat="46.01296" lon="6.82986">
        <ele>2277.02</ele>
        <time>2017-10-17T13:29:34Z</time>
      </trkpt>
      <trkpt lat="46.01295" lon="6.82984">
        <ele>2276.06</ele>
        <time>2017-10-17T13:29:35Z</time>
      </trkpt>
      <trkpt lat="46.01293" lon="6.82981">
        <ele>2273.66</ele>
        <time>2017-10-17T13:29:38Z</time>
      </trkpt>
      <trkpt lat="46.01292" lon="6.82981">
        <ele>2273.17</ele>
        <time>2017-10-17T13:29:39Z</time>
      </trkpt>
      <trkpt lat="46.0129" lon="6.82982">
        <ele>2272.69</ele>
        <time>2017-10-17T13:29:40Z</time>
      </trkpt>
      <trkpt lat="46.01289" lon="6.82982">
        <ele>2272.21</ele>
        <time>2017-10-17T13:29:41Z</time>
      </trkpt>
      <trkpt lat="46.01288" lon="6.82981">
        <ele>2270.77</ele>
        <time>2017-10-17T13:29:42Z</time>
      </trkpt>
      <trkpt lat="46.01287" lon="6.8298">
        <ele>2269.81</ele>
        <time>2017-10-17T13:29:43Z</time>
      </trkpt>
      <trkpt lat="46.01286" lon="6.82979">
        <ele>2269.33</ele>
        <time>2017-10-17T13:29:44Z</time>
      </trkpt>
      <trkpt lat="46.01285" lon="6.82979">
        <ele>2268.37</ele>
        <time>2017-10-17T13:29:45Z</time>
      </trkpt>
      <trkpt lat="46.01284" lon="6.8298">
        <ele>2268.37</ele>
        <time>2017-10-17T13:29:46Z</time>
      </trkpt>
      <trkpt lat="46.01282" lon="6.8298">
        <ele>2267.41</ele>
        <time>2017-10-17T13:29:47Z</time>
      </trkpt>
      <trkpt lat="46.01281" lon="6.8298">
        <ele>2266.93</ele>
        <time>2017-10-17T13:29:48Z</time>
      </trkpt>
      <trkpt lat="46.0128" lon="6.82978">
        <ele>2265.96</ele>
        <time>2017-10-17T13:29:49Z</time>
      </trkpt>
      <trkpt lat="46.01279" lon="6.82977">
        <ele>2265</ele>
        <time>2017-10-17T13:29:50Z</time>
      </trkpt>
      <trkpt lat="46.01273" lon="6.82972">
        <ele>2262.12</ele>
        <time>2017-10-17T13:29:55Z</time>
      </trkpt>
      <trkpt lat="46.01273" lon="6.82973">
        <ele>2261.64</ele>
        <time>2017-10-17T13:29:56Z</time>
      </trkpt>
      <trkpt lat="46.01272" lon="6.82975">
        <ele>2261.64</ele>
        <time>2017-10-17T13:29:57Z</time>
      </trkpt>
      <trkpt lat="46.01271" lon="6.82976">
        <ele>2260.68</ele>
        <time>2017-10-17T13:29:58Z</time>
      </trkpt>
      <trkpt lat="46.0127" lon="6.82976">
        <ele>2260.2</ele>
        <time>2017-10-17T13:29:59Z</time>
      </trkpt>
      <trkpt lat="46.01268" lon="6.82975">
        <ele>2260.2</ele>
        <time>2017-10-17T13:30:00Z</time>
      </trkpt>
      <trkpt lat="46.01263" lon="6.82973">
        <ele>2257.79</ele>
        <time>2017-10-17T13:30:04Z</time>
      </trkpt>
      <trkpt lat="46.01263" lon="6.82971">
        <ele>2256.83</ele>
        <time>2017-10-17T13:30:05Z</time>
      </trkpt>
      <trkpt lat="46.01262" lon="6.82969">
        <ele>2256.83</ele>
        <time>2017-10-17T13:30:06Z</time>
      </trkpt>
      <trkpt lat="46.01261" lon="6.82968">
        <ele>2255.39</ele>
        <time>2017-10-17T13:30:08Z</time>
      </trkpt>
      <trkpt lat="46.01257" lon="6.82967">
        <ele>2252.03</ele>
        <time>2017-10-17T13:30:13Z</time>
      </trkpt>
      <trkpt lat="46.01254" lon="6.82965">
        <ele>2251.06</ele>
        <time>2017-10-17T13:30:15Z</time>
      </trkpt>
      <trkpt lat="46.01254" lon="6.82963">
        <ele>2250.58</ele>
        <time>2017-10-17T13:30:16Z</time>
      </trkpt>
      <trkpt lat="46.01254" lon="6.82962">
        <ele>2249.14</ele>
        <time>2017-10-17T13:30:17Z</time>
      </trkpt>
      <trkpt lat="46.01253" lon="6.82962">
        <ele>2248.18</ele>
        <time>2017-10-17T13:30:19Z</time>
      </trkpt>
      <trkpt lat="46.01251" lon="6.82963">
        <ele>2247.22</ele>
        <time>2017-10-17T13:30:20Z</time>
      </trkpt>
      <trkpt lat="46.0125" lon="6.82964">
        <ele>2247.22</ele>
        <time>2017-10-17T13:30:21Z</time>
      </trkpt>
      <trkpt lat="46.01249" lon="6.82964">
        <ele>2246.74</ele>
        <time>2017-10-17T13:30:22Z</time>
      </trkpt>
      <trkpt lat="46.01248" lon="6.82965">
        <ele>2246.26</ele>
        <time>2017-10-17T13:30:23Z</time>
      </trkpt>
      <trkpt lat="46.01247" lon="6.82965">
        <ele>2245.78</ele>
        <time>2017-10-17T13:30:24Z</time>
      </trkpt>
      <trkpt lat="46.01245" lon="6.82966">
        <ele>2244.82</ele>
        <time>2017-10-17T13:30:25Z</time>
      </trkpt>
      <trkpt lat="46.01244" lon="6.82966">
        <ele>2244.33</ele>
        <time>2017-10-17T13:30:26Z</time>
      </trkpt>
      <trkpt lat="46.01243" lon="6.82965">
        <ele>2243.37</ele>
        <time>2017-10-17T13:30:27Z</time>
      </trkpt>
      <trkpt lat="46.01242" lon="6.82965">
        <ele>2243.37</ele>
        <time>2017-10-17T13:30:28Z</time>
      </trkpt>
      <trkpt lat="46.01241" lon="6.82966">
        <ele>2242.89</ele>
        <time>2017-10-17T13:30:29Z</time>
      </trkpt>
      <trkpt lat="46.0124" lon="6.82967">
        <ele>2241.93</ele>
        <time>2017-10-17T13:30:30Z</time>
      </trkpt>
      <trkpt lat="46.01238" lon="6.82967">
        <ele>2240.97</ele>
        <time>2017-10-17T13:30:31Z</time>
      </trkpt>
      <trkpt lat="46.01238" lon="6.82968">
        <ele>2240.01</ele>
        <time>2017-10-17T13:30:32Z</time>
      </trkpt>
      <trkpt lat="46.01237" lon="6.82969">
        <ele>2239.53</ele>
        <time>2017-10-17T13:30:33Z</time>
      </trkpt>
      <trkpt lat="46.01236" lon="6.82969">
        <ele>2239.05</ele>
        <time>2017-10-17T13:30:34Z</time>
      </trkpt>
      <trkpt lat="46.01234" lon="6.8297">
        <ele>2238.57</ele>
        <time>2017-10-17T13:30:36Z</time>
      </trkpt>
      <trkpt lat="46.01234" lon="6.82972">
        <ele>2238.09</ele>
        <time>2017-10-17T13:30:37Z</time>
      </trkpt>
      <trkpt lat="46.01234" lon="6.82974">
        <ele>2237.61</ele>
        <time>2017-10-17T13:30:38Z</time>
      </trkpt>
      <trkpt lat="46.01233" lon="6.82979">
        <ele>2235.2</ele>
        <time>2017-10-17T13:30:43Z</time>
      </trkpt>
      <trkpt lat="46.01232" lon="6.8298">
        <ele>2234.72</ele>
        <time>2017-10-17T13:30:44Z</time>
      </trkpt>
      <trkpt lat="46.01232" lon="6.82981">
        <ele>2234.24</ele>
        <time>2017-10-17T13:30:45Z</time>
      </trkpt>
      <trkpt lat="46.01231" lon="6.82981">
        <ele>2233.76</ele>
        <time>2017-10-17T13:30:46Z</time>
      </trkpt>
      <trkpt lat="46.01229" lon="6.82978">
        <ele>2230.4</ele>
        <time>2017-10-17T13:30:51Z</time>
      </trkpt>
      <trkpt lat="46.01228" lon="6.82977">
        <ele>2230.4</ele>
        <time>2017-10-17T13:30:52Z</time>
      </trkpt>
      <trkpt lat="46.01227" lon="6.82977">
        <ele>2230.4</ele>
        <time>2017-10-17T13:30:53Z</time>
      </trkpt>
      <trkpt lat="46.01226" lon="6.82977">
        <ele>2230.4</ele>
        <time>2017-10-17T13:30:54Z</time>
      </trkpt>
      <trkpt lat="46.01225" lon="6.82977">
        <ele>2229.43</ele>
        <time>2017-10-17T13:30:55Z</time>
      </trkpt>
      <trkpt lat="46.01225" lon="6.82977">
        <ele>2228.47</ele>
        <time>2017-10-17T13:30:56Z</time>
      </trkpt>
      <trkpt lat="46.01224" lon="6.82976">
        <ele>2227.99</ele>
        <time>2017-10-17T13:30:57Z</time>
      </trkpt>
      <trkpt lat="46.01222" lon="6.82977">
        <ele>2226.55</ele>
        <time>2017-10-17T13:31:00Z</time>
      </trkpt>
      <trkpt lat="46.01218" lon="6.82973">
        <ele>2223.19</ele>
        <time>2017-10-17T13:31:06Z</time>
      </trkpt>
      <trkpt lat="46.01216" lon="6.82971">
        <ele>2221.74</ele>
        <time>2017-10-17T13:31:08Z</time>
      </trkpt>
      <trkpt lat="46.01214" lon="6.82971">
        <ele>2221.26</ele>
        <time>2017-10-17T13:31:09Z</time>
      </trkpt>
      <trkpt lat="46.01213" lon="6.82971">
        <ele>2220.3</ele>
        <time>2017-10-17T13:31:10Z</time>
      </trkpt>
      <trkpt lat="46.01211" lon="6.82971">
        <ele>2219.82</ele>
        <time>2017-10-17T13:31:11Z</time>
      </trkpt>
      <trkpt lat="46.0121" lon="6.8297">
        <ele>2218.86</ele>
        <time>2017-10-17T13:31:12Z</time>
      </trkpt>
      <trkpt lat="46.01203" lon="6.82967">
        <ele>2215.5</ele>
        <time>2017-10-17T13:31:17Z</time>
      </trkpt>
      <trkpt lat="46.01201" lon="6.82968">
        <ele>2214.53</ele>
        <time>2017-10-17T13:31:19Z</time>
      </trkpt>
      <trkpt lat="46.012" lon="6.82968">
        <ele>2214.05</ele>
        <time>2017-10-17T13:31:20Z</time>
      </trkpt>
      <trkpt lat="46.01198" lon="6.82969">
        <ele>2213.57</ele>
        <time>2017-10-17T13:31:21Z</time>
      </trkpt>
      <trkpt lat="46.01197" lon="6.82969">
        <ele>2212.61</ele>
        <time>2017-10-17T13:31:22Z</time>
      </trkpt>
      <trkpt lat="46.01196" lon="6.82968">
        <ele>2212.13</ele>
        <time>2017-10-17T13:31:23Z</time>
      </trkpt>
      <trkpt lat="46.01195" lon="6.82961">
        <ele>2208.29</ele>
        <time>2017-10-17T13:31:28Z</time>
      </trkpt>
      <trkpt lat="46.01195" lon="6.82959">
        <ele>2207.81</ele>
        <time>2017-10-17T13:31:29Z</time>
      </trkpt>
      <trkpt lat="46.01195" lon="6.82956">
        <ele>2207.32</ele>
        <time>2017-10-17T13:31:30Z</time>
      </trkpt>
      <trkpt lat="46.01195" lon="6.82955">
        <ele>2206.84</ele>
        <time>2017-10-17T13:31:31Z</time>
      </trkpt>
      <trkpt lat="46.01193" lon="6.82956">
        <ele>2206.36</ele>
        <time>2017-10-17T13:31:33Z</time>
      </trkpt>
      <trkpt lat="46.01192" lon="6.82956">
        <ele>2205.88</ele>
        <time>2017-10-17T13:31:34Z</time>
      </trkpt>
      <trkpt lat="46.01192" lon="6.82955">
        <ele>2205.4</ele>
        <time>2017-10-17T13:31:35Z</time>
      </trkpt>
      <trkpt lat="46.0119" lon="6.82954">
        <ele>2203.48</ele>
        <time>2017-10-17T13:31:38Z</time>
      </trkpt>
      <trkpt lat="46.01189" lon="6.82954">
        <ele>2203.48</ele>
        <time>2017-10-17T13:31:39Z</time>
      </trkpt>
      <trkpt lat="46.01189" lon="6.82957">
        <ele>2203</ele>
        <time>2017-10-17T13:31:41Z</time>
      </trkpt>
      <trkpt lat="46.01185" lon="6.82961">
        <ele>2202.04</ele>
        <time>2017-10-17T13:31:45Z</time>
      </trkpt>
      <trkpt lat="46.01183" lon="6.82963">
        <ele>2201.08</ele>
        <time>2017-10-17T13:31:47Z</time>
      </trkpt>
      <trkpt lat="46.01182" lon="6.82963">
        <ele>2200.59</ele>
        <time>2017-10-17T13:31:48Z</time>
      </trkpt>
      <trkpt lat="46.01181" lon="6.82963">
        <ele>2200.11</ele>
        <time>2017-10-17T13:31:49Z</time>
      </trkpt>
      <trkpt lat="46.01179" lon="6.82962">
        <ele>2198.67</ele>
        <time>2017-10-17T13:31:50Z</time>
      </trkpt>
      <trkpt lat="46.01178" lon="6.82961">
        <ele>2197.71</ele>
        <time>2017-10-17T13:31:51Z</time>
      </trkpt>
      <trkpt lat="46.01172" lon="6.82963">
        <ele>2194.83</ele>
        <time>2017-10-17T13:31:57Z</time>
      </trkpt>
      <trkpt lat="46.01172" lon="6.82961">
        <ele>2193.87</ele>
        <time>2017-10-17T13:31:58Z</time>
      </trkpt>
      <trkpt lat="46.01173" lon="6.82959">
        <ele>2193.39</ele>
        <time>2017-10-17T13:31:59Z</time>
      </trkpt>
      <trkpt lat="46.01173" lon="6.82958">
        <ele>2192.9</ele>
        <time>2017-10-17T13:32:00Z</time>
      </trkpt>
      <trkpt lat="46.01173" lon="6.82957">
        <ele>2192.42</ele>
        <time>2017-10-17T13:32:01Z</time>
      </trkpt>
      <trkpt lat="46.01172" lon="6.82956">
        <ele>2192.42</ele>
        <time>2017-10-17T13:32:02Z</time>
      </trkpt>
      <trkpt lat="46.0117" lon="6.82956">
        <ele>2191.94</ele>
        <time>2017-10-17T13:32:03Z</time>
      </trkpt>
      <trkpt lat="46.01169" lon="6.82957">
        <ele>2191.46</ele>
        <time>2017-10-17T13:32:04Z</time>
      </trkpt>
      <trkpt lat="46.01168" lon="6.82958">
        <ele>2191.46</ele>
        <time>2017-10-17T13:32:05Z</time>
      </trkpt>
      <trkpt lat="46.01166" lon="6.8296">
        <ele>2190.5</ele>
        <time>2017-10-17T13:32:07Z</time>
      </trkpt>
      <trkpt lat="46.01165" lon="6.8296">
        <ele>2190.02</ele>
        <time>2017-10-17T13:32:08Z</time>
      </trkpt>
      <trkpt lat="46.01163" lon="6.8296">
        <ele>2189.54</ele>
        <time>2017-10-17T13:32:09Z</time>
      </trkpt>
      <trkpt lat="46.01162" lon="6.8296">
        <ele>2189.06</ele>
        <time>2017-10-17T13:32:10Z</time>
      </trkpt>
      <trkpt lat="46.01161" lon="6.8296">
        <ele>2188.1</ele>
        <time>2017-10-17T13:32:11Z</time>
      </trkpt>
      <trkpt lat="46.0116" lon="6.82959">
        <ele>2187.62</ele>
        <time>2017-10-17T13:32:12Z</time>
      </trkpt>
      <trkpt lat="46.01159" lon="6.82959">
        <ele>2187.14</ele>
        <time>2017-10-17T13:32:13Z</time>
      </trkpt>
      <trkpt lat="46.01158" lon="6.82961">
        <ele>2186.66</ele>
        <time>2017-10-17T13:32:14Z</time>
      </trkpt>
      <trkpt lat="46.01157" lon="6.82963">
        <ele>2186.18</ele>
        <time>2017-10-17T13:32:15Z</time>
      </trkpt>
      <trkpt lat="46.01155" lon="6.82966">
        <ele>2185.21</ele>
        <time>2017-10-17T13:32:17Z</time>
      </trkpt>
      <trkpt lat="46.01154" lon="6.82965">
        <ele>2184.73</ele>
        <time>2017-10-17T13:32:18Z</time>
      </trkpt>
      <trkpt lat="46.01153" lon="6.82965">
        <ele>2183.77</ele>
        <time>2017-10-17T13:32:19Z</time>
      </trkpt>
      <trkpt lat="46.01148" lon="6.8296">
        <ele>2181.37</ele>
        <time>2017-10-17T13:32:25Z</time>
      </trkpt>
      <trkpt lat="46.01143" lon="6.82964">
        <ele>2178</ele>
        <time>2017-10-17T13:32:30Z</time>
      </trkpt>
      <trkpt lat="46.01142" lon="6.82965">
        <ele>2178</ele>
        <time>2017-10-17T13:32:31Z</time>
      </trkpt>
      <trkpt lat="46.01141" lon="6.82966">
        <ele>2177.04</ele>
        <time>2017-10-17T13:32:32Z</time>
      </trkpt>
      <trkpt lat="46.0114" lon="6.82967">
        <ele>2176.08</ele>
        <time>2017-10-17T13:32:33Z</time>
      </trkpt>
      <trkpt lat="46.01138" lon="6.82966">
        <ele>2175.6</ele>
        <time>2017-10-17T13:32:34Z</time>
      </trkpt>
      <trkpt lat="46.01137" lon="6.82966">
        <ele>2174.64</ele>
        <time>2017-10-17T13:32:35Z</time>
      </trkpt>
      <trkpt lat="46.01136" lon="6.82965">
        <ele>2174.16</ele>
        <time>2017-10-17T13:32:36Z</time>
      </trkpt>
      <trkpt lat="46.01134" lon="6.82964">
        <ele>2173.68</ele>
        <time>2017-10-17T13:32:37Z</time>
      </trkpt>
      <trkpt lat="46.01132" lon="6.82964">
        <ele>2172.72</ele>
        <time>2017-10-17T13:32:38Z</time>
      </trkpt>
      <trkpt lat="46.0113" lon="6.82962">
        <ele>2171.76</ele>
        <time>2017-10-17T13:32:39Z</time>
      </trkpt>
      <trkpt lat="46.01129" lon="6.82962">
        <ele>2170.79</ele>
        <time>2017-10-17T13:32:40Z</time>
      </trkpt>
      <trkpt lat="46.01127" lon="6.82962">
        <ele>2170.31</ele>
        <time>2017-10-17T13:32:41Z</time>
      </trkpt>
      <trkpt lat="46.01126" lon="6.82962">
        <ele>2169.83</ele>
        <time>2017-10-17T13:32:42Z</time>
      </trkpt>
      <trkpt lat="46.01124" lon="6.82963">
        <ele>2169.35</ele>
        <time>2017-10-17T13:32:44Z</time>
      </trkpt>
      <trkpt lat="46.01123" lon="6.82965">
        <ele>2168.87</ele>
        <time>2017-10-17T13:32:45Z</time>
      </trkpt>
      <trkpt lat="46.01122" lon="6.82967">
        <ele>2168.39</ele>
        <time>2017-10-17T13:32:46Z</time>
      </trkpt>
      <trkpt lat="46.01121" lon="6.82968">
        <ele>2167.91</ele>
        <time>2017-10-17T13:32:47Z</time>
      </trkpt>
      <trkpt lat="46.0112" lon="6.82968">
        <ele>2167.43</ele>
        <time>2017-10-17T13:32:48Z</time>
      </trkpt>
      <trkpt lat="46.01119" lon="6.82968">
        <ele>2166.95</ele>
        <time>2017-10-17T13:32:49Z</time>
      </trkpt>
      <trkpt lat="46.01118" lon="6.82968">
        <ele>2165.99</ele>
        <time>2017-10-17T13:32:50Z</time>
      </trkpt>
      <trkpt lat="46.01117" lon="6.82969">
        <ele>2165.03</ele>
        <time>2017-10-17T13:32:51Z</time>
      </trkpt>
      <trkpt lat="46.01116" lon="6.8297">
        <ele>2164.55</ele>
        <time>2017-10-17T13:32:52Z</time>
      </trkpt>
      <trkpt lat="46.01115" lon="6.8297">
        <ele>2163.58</ele>
        <time>2017-10-17T13:32:53Z</time>
      </trkpt>
      <trkpt lat="46.01114" lon="6.8297">
        <ele>2163.1</ele>
        <time>2017-10-17T13:32:54Z</time>
      </trkpt>
      <trkpt lat="46.01112" lon="6.8297">
        <ele>2162.62</ele>
        <time>2017-10-17T13:32:55Z</time>
      </trkpt>
      <trkpt lat="46.01111" lon="6.82971">
        <ele>2162.14</ele>
        <time>2017-10-17T13:32:56Z</time>
      </trkpt>
      <trkpt lat="46.01109" lon="6.82972">
        <ele>2161.18</ele>
        <time>2017-10-17T13:32:57Z</time>
      </trkpt>
      <trkpt lat="46.01107" lon="6.82972">
        <ele>2160.7</ele>
        <time>2017-10-17T13:32:58Z</time>
      </trkpt>
      <trkpt lat="46.01105" lon="6.82973">
        <ele>2159.74</ele>
        <time>2017-10-17T13:32:59Z</time>
      </trkpt>
      <trkpt lat="46.01104" lon="6.82972">
        <ele>2159.26</ele>
        <time>2017-10-17T13:33:00Z</time>
      </trkpt>
      <trkpt lat="46.01102" lon="6.82972">
        <ele>2158.78</ele>
        <time>2017-10-17T13:33:01Z</time>
      </trkpt>
      <trkpt lat="46.011" lon="6.82973">
        <ele>2158.78</ele>
        <time>2017-10-17T13:33:02Z</time>
      </trkpt>
      <trkpt lat="46.01099" lon="6.82975">
        <ele>2158.3</ele>
        <time>2017-10-17T13:33:03Z</time>
      </trkpt>
      <trkpt lat="46.01097" lon="6.82979">
        <ele>2157.82</ele>
        <time>2017-10-17T13:33:04Z</time>
      </trkpt>
      <trkpt lat="46.01096" lon="6.82983">
        <ele>2157.34</ele>
        <time>2017-10-17T13:33:05Z</time>
      </trkpt>
      <trkpt lat="46.01091" lon="6.83009">
        <ele>2155.41</ele>
        <time>2017-10-17T13:33:13Z</time>
      </trkpt>
      <trkpt lat="46.01097" lon="6.83028">
        <ele>2152.05</ele>
        <time>2017-10-17T13:33:23Z</time>
      </trkpt>
      <trkpt lat="46.01098" lon="6.83029">
        <ele>2151.57</ele>
        <time>2017-10-17T13:33:24Z</time>
      </trkpt>
      <trkpt lat="46.01099" lon="6.8303">
        <ele>2151.09</ele>
        <time>2017-10-17T13:33:25Z</time>
      </trkpt>
      <trkpt lat="46.011" lon="6.83031">
        <ele>2151.09</ele>
        <time>2017-10-17T13:33:26Z</time>
      </trkpt>
      <trkpt lat="46.011" lon="6.83033">
        <ele>2150.61</ele>
        <time>2017-10-17T13:33:27Z</time>
      </trkpt>
      <trkpt lat="46.011" lon="6.83034">
        <ele>2150.61</ele>
        <time>2017-10-17T13:33:28Z</time>
      </trkpt>
      <trkpt lat="46.01099" lon="6.83036">
        <ele>2150.61</ele>
        <time>2017-10-17T13:33:29Z</time>
      </trkpt>
      <trkpt lat="46.01099" lon="6.83037">
        <ele>2150.13</ele>
        <time>2017-10-17T13:33:30Z</time>
      </trkpt>
      <trkpt lat="46.01098" lon="6.83038">
        <ele>2150.13</ele>
        <time>2017-10-17T13:33:31Z</time>
      </trkpt>
      <trkpt lat="46.01097" lon="6.83039">
        <ele>2150.13</ele>
        <time>2017-10-17T13:33:32Z</time>
      </trkpt>
      <trkpt lat="46.01089" lon="6.83052">
        <ele>2148.2</ele>
        <time>2017-10-17T13:33:44Z</time>
      </trkpt>
      <trkpt lat="46.01088" lon="6.83053">
        <ele>2147.72</ele>
        <time>2017-10-17T13:33:45Z</time>
      </trkpt>
      <trkpt lat="46.01087" lon="6.83057">
        <ele>2146.28</ele>
        <time>2017-10-17T13:33:48Z</time>
      </trkpt>
      <trkpt lat="46.01086" lon="6.83058">
        <ele>2145.8</ele>
        <time>2017-10-17T13:33:49Z</time>
      </trkpt>
      <trkpt lat="46.01085" lon="6.83059">
        <ele>2145.8</ele>
        <time>2017-10-17T13:33:50Z</time>
      </trkpt>
      <trkpt lat="46.01084" lon="6.83061">
        <ele>2145.32</ele>
        <time>2017-10-17T13:33:51Z</time>
      </trkpt>
      <trkpt lat="46.01083" lon="6.83062">
        <ele>2144.84</ele>
        <time>2017-10-17T13:33:52Z</time>
      </trkpt>
      <trkpt lat="46.01083" lon="6.83064">
        <ele>2144.84</ele>
        <time>2017-10-17T13:33:53Z</time>
      </trkpt>
      <trkpt lat="46.01082" lon="6.83066">
        <ele>2144.84</ele>
        <time>2017-10-17T13:33:54Z</time>
      </trkpt>
      <trkpt lat="46.0108" lon="6.83068">
        <ele>2144.84</ele>
        <time>2017-10-17T13:33:55Z</time>
      </trkpt>
      <trkpt lat="46.01079" lon="6.83069">
        <ele>2144.84</ele>
        <time>2017-10-17T13:33:56Z</time>
      </trkpt>
      <trkpt lat="46.01079" lon="6.8307">
        <ele>2144.84</ele>
        <time>2017-10-17T13:33:57Z</time>
      </trkpt>
      <trkpt lat="46.01078" lon="6.83072">
        <ele>2144.84</ele>
        <time>2017-10-17T13:33:58Z</time>
      </trkpt>
      <trkpt lat="46.01077" lon="6.83072">
        <ele>2144.84</ele>
        <time>2017-10-17T13:33:59Z</time>
      </trkpt>
      <trkpt lat="46.01075" lon="6.83072">
        <ele>2144.84</ele>
        <time>2017-10-17T13:34:01Z</time>
      </trkpt>
      <trkpt lat="46.01074" lon="6.83073">
        <ele>2144.36</ele>
        <time>2017-10-17T13:34:02Z</time>
      </trkpt>
      <trkpt lat="46.01074" lon="6.83074">
        <ele>2143.88</ele>
        <time>2017-10-17T13:34:03Z</time>
      </trkpt>
      <trkpt lat="46.01074" lon="6.83076">
        <ele>2143.4</ele>
        <time>2017-10-17T13:34:04Z</time>
      </trkpt>
      <trkpt lat="46.01073" lon="6.83077">
        <ele>2143.4</ele>
        <time>2017-10-17T13:34:05Z</time>
      </trkpt>
      <trkpt lat="46.01073" lon="6.83078">
        <ele>2143.4</ele>
        <time>2017-10-17T13:34:06Z</time>
      </trkpt>
      <trkpt lat="46.01073" lon="6.83079">
        <ele>2143.4</ele>
        <time>2017-10-17T13:34:07Z</time>
      </trkpt>
      <trkpt lat="46.01069" lon="6.8308">
        <ele>2144.36</ele>
        <time>2017-10-17T13:34:13Z</time>
      </trkpt>
      <trkpt lat="46.01054" lon="6.83086">
        <ele>2141.47</ele>
        <time>2017-10-17T13:34:33Z</time>
      </trkpt>
      <trkpt lat="46.01053" lon="6.83085">
        <ele>2141.95</ele>
        <time>2017-10-17T13:34:34Z</time>
      </trkpt>
      <trkpt lat="46.01051" lon="6.83084">
        <ele>2141.95</ele>
        <time>2017-10-17T13:34:35Z</time>
      </trkpt>
      <trkpt lat="46.01033" lon="6.83071">
        <ele>2141.47</ele>
        <time>2017-10-17T13:34:47Z</time>
      </trkpt>
      <trkpt lat="46.01033" lon="6.83069">
        <ele>2141.47</ele>
        <time>2017-10-17T13:34:48Z</time>
      </trkpt>
      <trkpt lat="46.01031" lon="6.83067">
        <ele>2141.47</ele>
        <time>2017-10-17T13:34:49Z</time>
      </trkpt>
      <trkpt lat="46.0103" lon="6.83066">
        <ele>2141.47</ele>
        <time>2017-10-17T13:34:50Z</time>
      </trkpt>
      <trkpt lat="46.01029" lon="6.83065">
        <ele>2141.47</ele>
        <time>2017-10-17T13:34:51Z</time>
      </trkpt>
      <trkpt lat="46.01028" lon="6.83063">
        <ele>2141.47</ele>
        <time>2017-10-17T13:34:52Z</time>
      </trkpt>
      <trkpt lat="46.01026" lon="6.83062">
        <ele>2141.95</ele>
        <time>2017-10-17T13:34:53Z</time>
      </trkpt>
      <trkpt lat="46.01026" lon="6.83062">
        <ele>2142.44</ele>
        <time>2017-10-17T13:34:54Z</time>
      </trkpt>
      <trkpt lat="46.01026" lon="6.8306">
        <ele>2142.44</ele>
        <time>2017-10-17T13:34:55Z</time>
      </trkpt>
      <trkpt lat="46.01025" lon="6.83058">
        <ele>2142.92</ele>
        <time>2017-10-17T13:34:56Z</time>
      </trkpt>
      <trkpt lat="46.01024" lon="6.83057">
        <ele>2142.92</ele>
        <time>2017-10-17T13:34:57Z</time>
      </trkpt>
      <trkpt lat="46.0102" lon="6.8305">
        <ele>2142.92</ele>
        <time>2017-10-17T13:35:01Z</time>
      </trkpt>
      <trkpt lat="46.01018" lon="6.8305">
        <ele>2142.44</ele>
        <time>2017-10-17T13:35:02Z</time>
      </trkpt>
      <trkpt lat="46.01015" lon="6.83049">
        <ele>2142.44</ele>
        <time>2017-10-17T13:35:03Z</time>
      </trkpt>
      <trkpt lat="46.01003" lon="6.83038">
        <ele>2139.55</ele>
        <time>2017-10-17T13:35:12Z</time>
      </trkpt>
      <trkpt lat="46.01002" lon="6.83038">
        <ele>2138.59</ele>
        <time>2017-10-17T13:35:13Z</time>
      </trkpt>
      <trkpt lat="46.01" lon="6.83038">
        <ele>2138.59</ele>
        <time>2017-10-17T13:35:14Z</time>
      </trkpt>
      <trkpt lat="46.00997" lon="6.83039">
        <ele>2138.11</ele>
        <time>2017-10-17T13:35:15Z</time>
      </trkpt>
      <trkpt lat="46.00995" lon="6.83041">
        <ele>2137.63</ele>
        <time>2017-10-17T13:35:16Z</time>
      </trkpt>
      <trkpt lat="46.00991" lon="6.83043">
        <ele>2135.71</ele>
        <time>2017-10-17T13:35:19Z</time>
      </trkpt>
      <trkpt lat="46.0099" lon="6.83044">
        <ele>2135.23</ele>
        <time>2017-10-17T13:35:20Z</time>
      </trkpt>
      <trkpt lat="46.00987" lon="6.83044">
        <ele>2134.26</ele>
        <time>2017-10-17T13:35:24Z</time>
      </trkpt>
      <trkpt lat="46.00985" lon="6.83046">
        <ele>2133.3</ele>
        <time>2017-10-17T13:35:28Z</time>
      </trkpt>
      <trkpt lat="46.00982" lon="6.83049">
        <ele>2132.34</ele>
        <time>2017-10-17T13:35:32Z</time>
      </trkpt>
      <trkpt lat="46.0098" lon="6.83049">
        <ele>2132.34</ele>
        <time>2017-10-17T13:35:33Z</time>
      </trkpt>
      <trkpt lat="46.00979" lon="6.83048">
        <ele>2132.34</ele>
        <time>2017-10-17T13:35:34Z</time>
      </trkpt>
      <trkpt lat="46.00978" lon="6.83046">
        <ele>2132.34</ele>
        <time>2017-10-17T13:35:35Z</time>
      </trkpt>
      <trkpt lat="46.00977" lon="6.83043">
        <ele>2132.34</ele>
        <time>2017-10-17T13:35:36Z</time>
      </trkpt>
      <trkpt lat="46.00976" lon="6.83041">
        <ele>2131.86</ele>
        <time>2017-10-17T13:35:37Z</time>
      </trkpt>
      <trkpt lat="46.0096" lon="6.83024">
        <ele>2130.9</ele>
        <time>2017-10-17T13:35:52Z</time>
      </trkpt>
      <trkpt lat="46.00954" lon="6.83014">
        <ele>2129.94</ele>
        <time>2017-10-17T13:35:56Z</time>
      </trkpt>
      <trkpt lat="46.00953" lon="6.83011">
        <ele>2129.46</ele>
        <time>2017-10-17T13:35:57Z</time>
      </trkpt>
      <trkpt lat="46.00951" lon="6.83009">
        <ele>2128.98</ele>
        <time>2017-10-17T13:35:58Z</time>
      </trkpt>
      <trkpt lat="46.0095" lon="6.83006">
        <ele>2128.5</ele>
        <time>2017-10-17T13:35:59Z</time>
      </trkpt>
      <trkpt lat="46.00949" lon="6.83003">
        <ele>2128.02</ele>
        <time>2017-10-17T13:36:00Z</time>
      </trkpt>
      <trkpt lat="46.00947" lon="6.83001">
        <ele>2128.02</ele>
        <time>2017-10-17T13:36:01Z</time>
      </trkpt>
      <trkpt lat="46.00946" lon="6.83">
        <ele>2127.53</ele>
        <time>2017-10-17T13:36:02Z</time>
      </trkpt>
      <trkpt lat="46.00944" lon="6.82997">
        <ele>2127.05</ele>
        <time>2017-10-17T13:36:03Z</time>
      </trkpt>
      <trkpt lat="46.00943" lon="6.82995">
        <ele>2126.57</ele>
        <time>2017-10-17T13:36:04Z</time>
      </trkpt>
      <trkpt lat="46.00937" lon="6.82979">
        <ele>2123.21</ele>
        <time>2017-10-17T13:36:10Z</time>
      </trkpt>
      <trkpt lat="46.00936" lon="6.82975">
        <ele>2122.25</ele>
        <time>2017-10-17T13:36:12Z</time>
      </trkpt>
      <trkpt lat="46.00935" lon="6.82973">
        <ele>2121.77</ele>
        <time>2017-10-17T13:36:13Z</time>
      </trkpt>
      <trkpt lat="46.00934" lon="6.8297">
        <ele>2121.29</ele>
        <time>2017-10-17T13:36:14Z</time>
      </trkpt>
      <trkpt lat="46.00933" lon="6.82967">
        <ele>2120.32</ele>
        <time>2017-10-17T13:36:15Z</time>
      </trkpt>
      <trkpt lat="46.00932" lon="6.82964">
        <ele>2119.84</ele>
        <time>2017-10-17T13:36:16Z</time>
      </trkpt>
      <trkpt lat="46.00932" lon="6.82962">
        <ele>2119.36</ele>
        <time>2017-10-17T13:36:17Z</time>
      </trkpt>
      <trkpt lat="46.00932" lon="6.8296">
        <ele>2119.36</ele>
        <time>2017-10-17T13:36:18Z</time>
      </trkpt>
      <trkpt lat="46.00933" lon="6.82958">
        <ele>2118.88</ele>
        <time>2017-10-17T13:36:19Z</time>
      </trkpt>
      <trkpt lat="46.00935" lon="6.82956">
        <ele>2118.4</ele>
        <time>2017-10-17T13:36:20Z</time>
      </trkpt>
      <trkpt lat="46.00935" lon="6.82954">
        <ele>2117.92</ele>
        <time>2017-10-17T13:36:21Z</time>
      </trkpt>
      <trkpt lat="46.00935" lon="6.82953">
        <ele>2117.44</ele>
        <time>2017-10-17T13:36:22Z</time>
      </trkpt>
      <trkpt lat="46.00935" lon="6.82952">
        <ele>2116.96</ele>
        <time>2017-10-17T13:36:23Z</time>
      </trkpt>
      <trkpt lat="46.00934" lon="6.82951">
        <ele>2116.48</ele>
        <time>2017-10-17T13:36:24Z</time>
      </trkpt>
      <trkpt lat="46.00932" lon="6.82952">
        <ele>2116</ele>
        <time>2017-10-17T13:36:25Z</time>
      </trkpt>
      <trkpt lat="46.0093" lon="6.82952">
        <ele>2115.52</ele>
        <time>2017-10-17T13:36:26Z</time>
      </trkpt>
      <trkpt lat="46.00929" lon="6.8295">
        <ele>2115.04</ele>
        <time>2017-10-17T13:36:27Z</time>
      </trkpt>
      <trkpt lat="46.00927" lon="6.82947">
        <ele>2115.04</ele>
        <time>2017-10-17T13:36:28Z</time>
      </trkpt>
      <trkpt lat="46.00926" lon="6.82945">
        <ele>2114.56</ele>
        <time>2017-10-17T13:36:29Z</time>
      </trkpt>
      <trkpt lat="46.00925" lon="6.82943">
        <ele>2114.56</ele>
        <time>2017-10-17T13:36:30Z</time>
      </trkpt>
      <trkpt lat="46.00924" lon="6.82942">
        <ele>2115.04</ele>
        <time>2017-10-17T13:36:31Z</time>
      </trkpt>
      <trkpt lat="46.00924" lon="6.8294">
        <ele>2115.04</ele>
        <time>2017-10-17T13:36:32Z</time>
      </trkpt>
      <trkpt lat="46.00923" lon="6.82938">
        <ele>2115.04</ele>
        <time>2017-10-17T13:36:33Z</time>
      </trkpt>
      <trkpt lat="46.00923" lon="6.82935">
        <ele>2114.56</ele>
        <time>2017-10-17T13:36:34Z</time>
      </trkpt>
      <trkpt lat="46.00918" lon="6.82922">
        <ele>2111.67</ele>
        <time>2017-10-17T13:36:39Z</time>
      </trkpt>
      <trkpt lat="46.00911" lon="6.82905">
        <ele>2108.31</ele>
        <time>2017-10-17T13:36:46Z</time>
      </trkpt>
      <trkpt lat="46.00909" lon="6.82892">
        <ele>2106.39</ele>
        <time>2017-10-17T13:36:51Z</time>
      </trkpt>
      <trkpt lat="46.00908" lon="6.82891">
        <ele>2105.42</ele>
        <time>2017-10-17T13:36:52Z</time>
      </trkpt>
      <trkpt lat="46.00907" lon="6.82891">
        <ele>2105.42</ele>
        <time>2017-10-17T13:36:53Z</time>
      </trkpt>
      <trkpt lat="46.00905" lon="6.82893">
        <ele>2104.94</ele>
        <time>2017-10-17T13:36:54Z</time>
      </trkpt>
      <trkpt lat="46.00903" lon="6.82894">
        <ele>2104.94</ele>
        <time>2017-10-17T13:36:55Z</time>
      </trkpt>
      <trkpt lat="46.00901" lon="6.82894">
        <ele>2104.46</ele>
        <time>2017-10-17T13:36:56Z</time>
      </trkpt>
      <trkpt lat="46.009" lon="6.82894">
        <ele>2104.46</ele>
        <time>2017-10-17T13:36:57Z</time>
      </trkpt>
      <trkpt lat="46.00898" lon="6.82893">
        <ele>2103.98</ele>
        <time>2017-10-17T13:36:58Z</time>
      </trkpt>
      <trkpt lat="46.00897" lon="6.82891">
        <ele>2103.98</ele>
        <time>2017-10-17T13:36:59Z</time>
      </trkpt>
      <trkpt lat="46.00897" lon="6.82889">
        <ele>2103.98</ele>
        <time>2017-10-17T13:37:00Z</time>
      </trkpt>
      <trkpt lat="46.00896" lon="6.82887">
        <ele>2103.98</ele>
        <time>2017-10-17T13:37:01Z</time>
      </trkpt>
      <trkpt lat="46.00895" lon="6.82886">
        <ele>2103.98</ele>
        <time>2017-10-17T13:37:02Z</time>
      </trkpt>
      <trkpt lat="46.00894" lon="6.82885">
        <ele>2104.46</ele>
        <time>2017-10-17T13:37:03Z</time>
      </trkpt>
      <trkpt lat="46.00883" lon="6.82864">
        <ele>2101.1</ele>
        <time>2017-10-17T13:37:13Z</time>
      </trkpt>
      <trkpt lat="46.00882" lon="6.82862">
        <ele>2100.62</ele>
        <time>2017-10-17T13:37:14Z</time>
      </trkpt>
      <trkpt lat="46.00883" lon="6.8286">
        <ele>2100.14</ele>
        <time>2017-10-17T13:37:15Z</time>
      </trkpt>
      <trkpt lat="46.00884" lon="6.82857">
        <ele>2099.66</ele>
        <time>2017-10-17T13:37:16Z</time>
      </trkpt>
      <trkpt lat="46.00884" lon="6.82854">
        <ele>2098.7</ele>
        <time>2017-10-17T13:37:17Z</time>
      </trkpt>
      <trkpt lat="46.00883" lon="6.82851">
        <ele>2098.21</ele>
        <time>2017-10-17T13:37:18Z</time>
      </trkpt>
      <trkpt lat="46.00883" lon="6.82849">
        <ele>2098.21</ele>
        <time>2017-10-17T13:37:19Z</time>
      </trkpt>
      <trkpt lat="46.00882" lon="6.82846">
        <ele>2098.21</ele>
        <time>2017-10-17T13:37:20Z</time>
      </trkpt>
      <trkpt lat="46.00882" lon="6.82844">
        <ele>2097.25</ele>
        <time>2017-10-17T13:37:21Z</time>
      </trkpt>
      <trkpt lat="46.00882" lon="6.82841">
        <ele>2096.77</ele>
        <time>2017-10-17T13:37:22Z</time>
      </trkpt>
      <trkpt lat="46.00885" lon="6.82825">
        <ele>2093.41</ele>
        <time>2017-10-17T13:37:28Z</time>
      </trkpt>
      <trkpt lat="46.00886" lon="6.82813">
        <ele>2090.04</ele>
        <time>2017-10-17T13:37:33Z</time>
      </trkpt>
      <trkpt lat="46.00887" lon="6.82796">
        <ele>2086.68</ele>
        <time>2017-10-17T13:37:40Z</time>
      </trkpt>
      <trkpt lat="46.00886" lon="6.82791">
        <ele>2085.24</ele>
        <time>2017-10-17T13:37:42Z</time>
      </trkpt>
      <trkpt lat="46.00887" lon="6.82787">
        <ele>2084.76</ele>
        <time>2017-10-17T13:37:43Z</time>
      </trkpt>
      <trkpt lat="46.00887" lon="6.82784">
        <ele>2084.28</ele>
        <time>2017-10-17T13:37:44Z</time>
      </trkpt>
      <trkpt lat="46.00887" lon="6.82781">
        <ele>2083.79</ele>
        <time>2017-10-17T13:37:45Z</time>
      </trkpt>
      <trkpt lat="46.00887" lon="6.82778">
        <ele>2082.83</ele>
        <time>2017-10-17T13:37:46Z</time>
      </trkpt>
      <trkpt lat="46.00887" lon="6.82775">
        <ele>2082.83</ele>
        <time>2017-10-17T13:37:47Z</time>
      </trkpt>
      <trkpt lat="46.00887" lon="6.82771">
        <ele>2082.83</ele>
        <time>2017-10-17T13:37:48Z</time>
      </trkpt>
      <trkpt lat="46.00887" lon="6.82767">
        <ele>2082.35</ele>
        <time>2017-10-17T13:37:49Z</time>
      </trkpt>
      <trkpt lat="46.00888" lon="6.82764">
        <ele>2082.35</ele>
        <time>2017-10-17T13:37:50Z</time>
      </trkpt>
      <trkpt lat="46.00891" lon="6.82734">
        <ele>2080.43</ele>
        <time>2017-10-17T13:37:58Z</time>
      </trkpt>
      <trkpt lat="46.00886" lon="6.82713">
        <ele>2078.51</ele>
        <time>2017-10-17T13:38:03Z</time>
      </trkpt>
      <trkpt lat="46.00882" lon="6.82685">
        <ele>2078.03</ele>
        <time>2017-10-17T13:38:11Z</time>
      </trkpt>
      <trkpt lat="46.00878" lon="6.82668">
        <ele>2074.18</ele>
        <time>2017-10-17T13:38:18Z</time>
      </trkpt>
      <trkpt lat="46.00877" lon="6.82664">
        <ele>2072.74</ele>
        <time>2017-10-17T13:38:21Z</time>
      </trkpt>
      <trkpt lat="46.00875" lon="6.82663">
        <ele>2071.78</ele>
        <time>2017-10-17T13:38:23Z</time>
      </trkpt>
      <trkpt lat="46.00871" lon="6.82664">
        <ele>2070.82</ele>
        <time>2017-10-17T13:38:26Z</time>
      </trkpt>
      <trkpt lat="46.0087" lon="6.82667">
        <ele>2070.34</ele>
        <time>2017-10-17T13:38:27Z</time>
      </trkpt>
      <trkpt lat="46.00869" lon="6.82669">
        <ele>2069.86</ele>
        <time>2017-10-17T13:38:28Z</time>
      </trkpt>
      <trkpt lat="46.00867" lon="6.8267">
        <ele>2069.38</ele>
        <time>2017-10-17T13:38:29Z</time>
      </trkpt>
      <trkpt lat="46.00866" lon="6.82669">
        <ele>2068.41</ele>
        <time>2017-10-17T13:38:30Z</time>
      </trkpt>
      <trkpt lat="46.00865" lon="6.82667">
        <ele>2067.93</ele>
        <time>2017-10-17T13:38:31Z</time>
      </trkpt>
      <trkpt lat="46.00864" lon="6.82665">
        <ele>2066.97</ele>
        <time>2017-10-17T13:38:32Z</time>
      </trkpt>
      <trkpt lat="46.00863" lon="6.82663">
        <ele>2066.97</ele>
        <time>2017-10-17T13:38:33Z</time>
      </trkpt>
      <trkpt lat="46.00861" lon="6.82662">
        <ele>2066.97</ele>
        <time>2017-10-17T13:38:34Z</time>
      </trkpt>
      <trkpt lat="46.00859" lon="6.82661">
        <ele>2066.01</ele>
        <time>2017-10-17T13:38:35Z</time>
      </trkpt>
      <trkpt lat="46.00858" lon="6.82659">
        <ele>2065.53</ele>
        <time>2017-10-17T13:38:36Z</time>
      </trkpt>
      <trkpt lat="46.00854" lon="6.82652">
        <ele>2063.61</ele>
        <time>2017-10-17T13:38:39Z</time>
      </trkpt>
      <trkpt lat="46.00854" lon="6.8265">
        <ele>2063.13</ele>
        <time>2017-10-17T13:38:40Z</time>
      </trkpt>
      <trkpt lat="46.00854" lon="6.82647">
        <ele>2062.65</ele>
        <time>2017-10-17T13:38:41Z</time>
      </trkpt>
      <trkpt lat="46.00853" lon="6.82644">
        <ele>2062.17</ele>
        <time>2017-10-17T13:38:42Z</time>
      </trkpt>
      <trkpt lat="46.00852" lon="6.82642">
        <ele>2061.2</ele>
        <time>2017-10-17T13:38:43Z</time>
      </trkpt>
      <trkpt lat="46.0085" lon="6.82639">
        <ele>2060.24</ele>
        <time>2017-10-17T13:38:45Z</time>
      </trkpt>
      <trkpt lat="46.00844" lon="6.82634">
        <ele>2058.8</ele>
        <time>2017-10-17T13:38:50Z</time>
      </trkpt>
      <trkpt lat="46.00843" lon="6.82631">
        <ele>2057.84</ele>
        <time>2017-10-17T13:38:51Z</time>
      </trkpt>
      <trkpt lat="46.00835" lon="6.82616">
        <ele>2055.92</ele>
        <time>2017-10-17T13:38:58Z</time>
      </trkpt>
      <trkpt lat="46.00832" lon="6.82616">
        <ele>2054.96</ele>
        <time>2017-10-17T13:38:59Z</time>
      </trkpt>
      <trkpt lat="46.0083" lon="6.82616">
        <ele>2054.47</ele>
        <time>2017-10-17T13:39:00Z</time>
      </trkpt>
      <trkpt lat="46.00825" lon="6.82616">
        <ele>2053.99</ele>
        <time>2017-10-17T13:39:02Z</time>
      </trkpt>
      <trkpt lat="46.00823" lon="6.82614">
        <ele>2053.51</ele>
        <time>2017-10-17T13:39:03Z</time>
      </trkpt>
      <trkpt lat="46.00824" lon="6.82611">
        <ele>2053.03</ele>
        <time>2017-10-17T13:39:04Z</time>
      </trkpt>
      <trkpt lat="46.00824" lon="6.82608">
        <ele>2053.03</ele>
        <time>2017-10-17T13:39:05Z</time>
      </trkpt>
      <trkpt lat="46.00823" lon="6.82605">
        <ele>2052.55</ele>
        <time>2017-10-17T13:39:06Z</time>
      </trkpt>
      <trkpt lat="46.00823" lon="6.82602">
        <ele>2052.07</ele>
        <time>2017-10-17T13:39:07Z</time>
      </trkpt>
      <trkpt lat="46.00822" lon="6.82599">
        <ele>2052.07</ele>
        <time>2017-10-17T13:39:08Z</time>
      </trkpt>
      <trkpt lat="46.0082" lon="6.82596">
        <ele>2052.07</ele>
        <time>2017-10-17T13:39:09Z</time>
      </trkpt>
      <trkpt lat="46.00818" lon="6.82593">
        <ele>2052.07</ele>
        <time>2017-10-17T13:39:10Z</time>
      </trkpt>
      <trkpt lat="46.00817" lon="6.8259">
        <ele>2052.55</ele>
        <time>2017-10-17T13:39:11Z</time>
      </trkpt>
      <trkpt lat="46.00815" lon="6.82588">
        <ele>2052.55</ele>
        <time>2017-10-17T13:39:12Z</time>
      </trkpt>
      <trkpt lat="46.00808" lon="6.82573">
        <ele>2049.19</ele>
        <time>2017-10-17T13:39:20Z</time>
      </trkpt>
      <trkpt lat="46.00805" lon="6.82569">
        <ele>2047.75</ele>
        <time>2017-10-17T13:39:23Z</time>
      </trkpt>
      <trkpt lat="46.00804" lon="6.82567">
        <ele>2046.78</ele>
        <time>2017-10-17T13:39:24Z</time>
      </trkpt>
      <trkpt lat="46.00803" lon="6.82565">
        <ele>2046.3</ele>
        <time>2017-10-17T13:39:25Z</time>
      </trkpt>
      <trkpt lat="46.00802" lon="6.82563">
        <ele>2045.82</ele>
        <time>2017-10-17T13:39:26Z</time>
      </trkpt>
      <trkpt lat="46.00801" lon="6.82561">
        <ele>2044.86</ele>
        <time>2017-10-17T13:39:27Z</time>
      </trkpt>
      <trkpt lat="46.00799" lon="6.8256">
        <ele>2044.38</ele>
        <time>2017-10-17T13:39:28Z</time>
      </trkpt>
      <trkpt lat="46.00798" lon="6.82557">
        <ele>2044.38</ele>
        <time>2017-10-17T13:39:29Z</time>
      </trkpt>
      <trkpt lat="46.00797" lon="6.82555">
        <ele>2044.38</ele>
        <time>2017-10-17T13:39:30Z</time>
      </trkpt>
      <trkpt lat="46.00796" lon="6.82552">
        <ele>2043.42</ele>
        <time>2017-10-17T13:39:31Z</time>
      </trkpt>
      <trkpt lat="46.00795" lon="6.82549">
        <ele>2041.98</ele>
        <time>2017-10-17T13:39:32Z</time>
      </trkpt>
      <trkpt lat="46.00795" lon="6.82547">
        <ele>2041.98</ele>
        <time>2017-10-17T13:39:33Z</time>
      </trkpt>
      <trkpt lat="46.00795" lon="6.82544">
        <ele>2041.02</ele>
        <time>2017-10-17T13:39:34Z</time>
      </trkpt>
      <trkpt lat="46.00795" lon="6.82541">
        <ele>2040.54</ele>
        <time>2017-10-17T13:39:35Z</time>
      </trkpt>
      <trkpt lat="46.00794" lon="6.82539">
        <ele>2040.05</ele>
        <time>2017-10-17T13:39:36Z</time>
      </trkpt>
      <trkpt lat="46.00792" lon="6.82537">
        <ele>2039.57</ele>
        <time>2017-10-17T13:39:37Z</time>
      </trkpt>
      <trkpt lat="46.00791" lon="6.82534">
        <ele>2038.61</ele>
        <time>2017-10-17T13:39:38Z</time>
      </trkpt>
      <trkpt lat="46.0079" lon="6.82531">
        <ele>2037.17</ele>
        <time>2017-10-17T13:39:39Z</time>
      </trkpt>
      <trkpt lat="46.00789" lon="6.82528">
        <ele>2037.17</ele>
        <time>2017-10-17T13:39:40Z</time>
      </trkpt>
      <trkpt lat="46.00788" lon="6.82525">
        <ele>2036.69</ele>
        <time>2017-10-17T13:39:41Z</time>
      </trkpt>
      <trkpt lat="46.00786" lon="6.82522">
        <ele>2036.21</ele>
        <time>2017-10-17T13:39:42Z</time>
      </trkpt>
      <trkpt lat="46.00785" lon="6.8252">
        <ele>2035.73</ele>
        <time>2017-10-17T13:39:43Z</time>
      </trkpt>
      <trkpt lat="46.00785" lon="6.82518">
        <ele>2034.77</ele>
        <time>2017-10-17T13:39:44Z</time>
      </trkpt>
      <trkpt lat="46.00785" lon="6.82515">
        <ele>2034.77</ele>
        <time>2017-10-17T13:39:45Z</time>
      </trkpt>
      <trkpt lat="46.00785" lon="6.82513">
        <ele>2034.29</ele>
        <time>2017-10-17T13:39:46Z</time>
      </trkpt>
      <trkpt lat="46.00785" lon="6.8251">
        <ele>2033.81</ele>
        <time>2017-10-17T13:39:47Z</time>
      </trkpt>
      <trkpt lat="46.00784" lon="6.82508">
        <ele>2032.84</ele>
        <time>2017-10-17T13:39:48Z</time>
      </trkpt>
      <trkpt lat="46.00784" lon="6.82505">
        <ele>2032.36</ele>
        <time>2017-10-17T13:39:49Z</time>
      </trkpt>
      <trkpt lat="46.00784" lon="6.82503">
        <ele>2031.88</ele>
        <time>2017-10-17T13:39:50Z</time>
      </trkpt>
      <trkpt lat="46.00784" lon="6.825">
        <ele>2031.4</ele>
        <time>2017-10-17T13:39:51Z</time>
      </trkpt>
      <trkpt lat="46.00784" lon="6.82498">
        <ele>2030.92</ele>
        <time>2017-10-17T13:39:52Z</time>
      </trkpt>
      <trkpt lat="46.00784" lon="6.82496">
        <ele>2030.44</ele>
        <time>2017-10-17T13:39:53Z</time>
      </trkpt>
      <trkpt lat="46.00785" lon="6.82493">
        <ele>2029.48</ele>
        <time>2017-10-17T13:39:57Z</time>
      </trkpt>
      <trkpt lat="46.00785" lon="6.82491">
        <ele>2029</ele>
        <time>2017-10-17T13:39:58Z</time>
      </trkpt>
      <trkpt lat="46.00786" lon="6.82489">
        <ele>2029</ele>
        <time>2017-10-17T13:39:59Z</time>
      </trkpt>
      <trkpt lat="46.00787" lon="6.82487">
        <ele>2028.52</ele>
        <time>2017-10-17T13:40:00Z</time>
      </trkpt>
      <trkpt lat="46.00786" lon="6.82484">
        <ele>2028.04</ele>
        <time>2017-10-17T13:40:01Z</time>
      </trkpt>
      <trkpt lat="46.00786" lon="6.82481">
        <ele>2027.08</ele>
        <time>2017-10-17T13:40:02Z</time>
      </trkpt>
      <trkpt lat="46.00786" lon="6.82479">
        <ele>2026.6</ele>
        <time>2017-10-17T13:40:03Z</time>
      </trkpt>
      <trkpt lat="46.00786" lon="6.82476">
        <ele>2026.12</ele>
        <time>2017-10-17T13:40:04Z</time>
      </trkpt>
      <trkpt lat="46.00786" lon="6.82473">
        <ele>2025.64</ele>
        <time>2017-10-17T13:40:05Z</time>
      </trkpt>
      <trkpt lat="46.00787" lon="6.82471">
        <ele>2024.67</ele>
        <time>2017-10-17T13:40:06Z</time>
      </trkpt>
      <trkpt lat="46.00788" lon="6.82469">
        <ele>2024.19</ele>
        <time>2017-10-17T13:40:07Z</time>
      </trkpt>
      <trkpt lat="46.00788" lon="6.82467">
        <ele>2023.71</ele>
        <time>2017-10-17T13:40:08Z</time>
      </trkpt>
      <trkpt lat="46.00789" lon="6.82465">
        <ele>2022.75</ele>
        <time>2017-10-17T13:40:10Z</time>
      </trkpt>
      <trkpt lat="46.00788" lon="6.82463">
        <ele>2021.79</ele>
        <time>2017-10-17T13:40:11Z</time>
      </trkpt>
      <trkpt lat="46.00788" lon="6.82462">
        <ele>2021.31</ele>
        <time>2017-10-17T13:40:12Z</time>
      </trkpt>
      <trkpt lat="46.00787" lon="6.8246">
        <ele>2020.83</ele>
        <time>2017-10-17T13:40:14Z</time>
      </trkpt>
      <trkpt lat="46.00786" lon="6.8246">
        <ele>2020.35</ele>
        <time>2017-10-17T13:40:15Z</time>
      </trkpt>
      <trkpt lat="46.00785" lon="6.82459">
        <ele>2019.39</ele>
        <time>2017-10-17T13:40:16Z</time>
      </trkpt>
      <trkpt lat="46.00783" lon="6.82458">
        <ele>2017.94</ele>
        <time>2017-10-17T13:40:19Z</time>
      </trkpt>
      <trkpt lat="46.00783" lon="6.82457">
        <ele>2016.98</ele>
        <time>2017-10-17T13:40:20Z</time>
      </trkpt>
      <trkpt lat="46.00781" lon="6.82457">
        <ele>2016.5</ele>
        <time>2017-10-17T13:40:21Z</time>
      </trkpt>
      <trkpt lat="46.00778" lon="6.82459">
        <ele>2016.02</ele>
        <time>2017-10-17T13:40:22Z</time>
      </trkpt>
      <trkpt lat="46.00776" lon="6.8246">
        <ele>2015.54</ele>
        <time>2017-10-17T13:40:23Z</time>
      </trkpt>
      <trkpt lat="46.00774" lon="6.8246">
        <ele>2015.06</ele>
        <time>2017-10-17T13:40:24Z</time>
      </trkpt>
      <trkpt lat="46.0077" lon="6.82459">
        <ele>2015.06</ele>
        <time>2017-10-17T13:40:26Z</time>
      </trkpt>
      <trkpt lat="46.00769" lon="6.82457">
        <ele>2015.06</ele>
        <time>2017-10-17T13:40:27Z</time>
      </trkpt>
      <trkpt lat="46.00769" lon="6.82455">
        <ele>2015.54</ele>
        <time>2017-10-17T13:40:28Z</time>
      </trkpt>
      <trkpt lat="46.00768" lon="6.82453">
        <ele>2015.54</ele>
        <time>2017-10-17T13:40:29Z</time>
      </trkpt>
      <trkpt lat="46.00768" lon="6.8245">
        <ele>2015.54</ele>
        <time>2017-10-17T13:40:30Z</time>
      </trkpt>
      <trkpt lat="46.00769" lon="6.82447">
        <ele>2015.54</ele>
        <time>2017-10-17T13:40:31Z</time>
      </trkpt>
      <trkpt lat="46.00768" lon="6.82444">
        <ele>2015.54</ele>
        <time>2017-10-17T13:40:32Z</time>
      </trkpt>
      <trkpt lat="46.00767" lon="6.82441">
        <ele>2015.06</ele>
        <time>2017-10-17T13:40:33Z</time>
      </trkpt>
      <trkpt lat="46.00766" lon="6.8244">
        <ele>2015.06</ele>
        <time>2017-10-17T13:40:34Z</time>
      </trkpt>
      <trkpt lat="46.00764" lon="6.8244">
        <ele>2015.06</ele>
        <time>2017-10-17T13:40:35Z</time>
      </trkpt>
      <trkpt lat="46.00763" lon="6.82439">
        <ele>2015.06</ele>
        <time>2017-10-17T13:40:36Z</time>
      </trkpt>
      <trkpt lat="46.00761" lon="6.82439">
        <ele>2015.54</ele>
        <time>2017-10-17T13:40:37Z</time>
      </trkpt>
      <trkpt lat="46.0076" lon="6.82438">
        <ele>2015.54</ele>
        <time>2017-10-17T13:40:38Z</time>
      </trkpt>
      <trkpt lat="46.00758" lon="6.82437">
        <ele>2016.02</ele>
        <time>2017-10-17T13:40:39Z</time>
      </trkpt>
      <trkpt lat="46.00757" lon="6.82437">
        <ele>2016.02</ele>
        <time>2017-10-17T13:40:40Z</time>
      </trkpt>
      <trkpt lat="46.00756" lon="6.82437">
        <ele>2016.02</ele>
        <time>2017-10-17T13:40:41Z</time>
      </trkpt>
      <trkpt lat="46.00754" lon="6.82436">
        <ele>2016.5</ele>
        <time>2017-10-17T13:40:42Z</time>
      </trkpt>
      <trkpt lat="46.00752" lon="6.82435">
        <ele>2016.98</ele>
        <time>2017-10-17T13:40:43Z</time>
      </trkpt>
      <trkpt lat="46.00751" lon="6.82433">
        <ele>2016.98</ele>
        <time>2017-10-17T13:40:44Z</time>
      </trkpt>
      <trkpt lat="46.00751" lon="6.8243">
        <ele>2016.98</ele>
        <time>2017-10-17T13:40:45Z</time>
      </trkpt>
      <trkpt lat="46.00751" lon="6.82428">
        <ele>2017.46</ele>
        <time>2017-10-17T13:40:46Z</time>
      </trkpt>
      <trkpt lat="46.00751" lon="6.82425">
        <ele>2017.94</ele>
        <time>2017-10-17T13:40:47Z</time>
      </trkpt>
      <trkpt lat="46.00751" lon="6.82423">
        <ele>2018.43</ele>
        <time>2017-10-17T13:40:48Z</time>
      </trkpt>
      <trkpt lat="46.00751" lon="6.8241">
        <ele>2019.39</ele>
        <time>2017-10-17T13:40:54Z</time>
      </trkpt>
      <trkpt lat="46.00751" lon="6.82408">
        <ele>2019.39</ele>
        <time>2017-10-17T13:40:55Z</time>
      </trkpt>
      <trkpt lat="46.00749" lon="6.82401">
        <ele>2019.87</ele>
        <time>2017-10-17T13:40:58Z</time>
      </trkpt>
      <trkpt lat="46.00749" lon="6.824">
        <ele>2019.87</ele>
        <time>2017-10-17T13:40:59Z</time>
      </trkpt>
      <trkpt lat="46.00748" lon="6.82397">
        <ele>2019.39</ele>
        <time>2017-10-17T13:41:01Z</time>
      </trkpt>
      <trkpt lat="46.00748" lon="6.82395">
        <ele>2018.91</ele>
        <time>2017-10-17T13:41:02Z</time>
      </trkpt>
      <trkpt lat="46.00748" lon="6.82393">
        <ele>2018.91</ele>
        <time>2017-10-17T13:41:03Z</time>
      </trkpt>
      <trkpt lat="46.00748" lon="6.82392">
        <ele>2018.91</ele>
        <time>2017-10-17T13:41:04Z</time>
      </trkpt>
      <trkpt lat="46.00749" lon="6.82391">
        <ele>2019.39</ele>
        <time>2017-10-17T13:41:05Z</time>
      </trkpt>
      <trkpt lat="46.00749" lon="6.8239">
        <ele>2019.39</ele>
        <time>2017-10-17T13:41:06Z</time>
      </trkpt>
      <trkpt lat="46.0075" lon="6.82388">
        <ele>2019.39</ele>
        <time>2017-10-17T13:41:07Z</time>
      </trkpt>
      <trkpt lat="46.0075" lon="6.82387">
        <ele>2019.87</ele>
        <time>2017-10-17T13:41:08Z</time>
      </trkpt>
      <trkpt lat="46.00749" lon="6.82385">
        <ele>2019.87</ele>
        <time>2017-10-17T13:41:09Z</time>
      </trkpt>
      <trkpt lat="46.00751" lon="6.82382">
        <ele>2020.83</ele>
        <time>2017-10-17T13:41:13Z</time>
      </trkpt>
      <trkpt lat="46.00755" lon="6.82377">
        <ele>2021.31</ele>
        <time>2017-10-17T13:41:19Z</time>
      </trkpt>
      <trkpt lat="46.00755" lon="6.82376">
        <ele>2021.31</ele>
        <time>2017-10-17T13:41:20Z</time>
      </trkpt>
      <trkpt lat="46.00756" lon="6.82375">
        <ele>2021.79</ele>
        <time>2017-10-17T13:41:21Z</time>
      </trkpt>
      <trkpt lat="46.00757" lon="6.82375">
        <ele>2021.79</ele>
        <time>2017-10-17T13:41:22Z</time>
      </trkpt>
      <trkpt lat="46.00757" lon="6.82373">
        <ele>2021.79</ele>
        <time>2017-10-17T13:41:23Z</time>
      </trkpt>
      <trkpt lat="46.00758" lon="6.82372">
        <ele>2021.79</ele>
        <time>2017-10-17T13:41:24Z</time>
      </trkpt>
      <trkpt lat="46.00759" lon="6.82371">
        <ele>2021.79</ele>
        <time>2017-10-17T13:41:25Z</time>
      </trkpt>
      <trkpt lat="46.0076" lon="6.82369">
        <ele>2022.27</ele>
        <time>2017-10-17T13:41:27Z</time>
      </trkpt>
      <trkpt lat="46.00761" lon="6.82368">
        <ele>2022.27</ele>
        <time>2017-10-17T13:41:28Z</time>
      </trkpt>
      <trkpt lat="46.00767" lon="6.82352">
        <ele>2021.79</ele>
        <time>2017-10-17T13:41:48Z</time>
      </trkpt>
      <trkpt lat="46.00767" lon="6.8235">
        <ele>2021.79</ele>
        <time>2017-10-17T13:41:49Z</time>
      </trkpt>
      <trkpt lat="46.00768" lon="6.82346">
        <ele>2021.79</ele>
        <time>2017-10-17T13:41:59Z</time>
      </trkpt>
      <trkpt lat="46.00769" lon="6.82343">
        <ele>2021.79</ele>
        <time>2017-10-17T13:42:00Z</time>
      </trkpt>
      <trkpt lat="46.00769" lon="6.82341">
        <ele>2021.79</ele>
        <time>2017-10-17T13:42:01Z</time>
      </trkpt>
      <trkpt lat="46.00774" lon="6.82325">
        <ele>2020.35</ele>
        <time>2017-10-17T13:42:07Z</time>
      </trkpt>
      <trkpt lat="46.00775" lon="6.82321">
        <ele>2018.43</ele>
        <time>2017-10-17T13:42:09Z</time>
      </trkpt>
      <trkpt lat="46.00786" lon="6.82309">
        <ele>2015.06</ele>
        <time>2017-10-17T13:42:16Z</time>
      </trkpt>
      <trkpt lat="46.00788" lon="6.82307">
        <ele>2015.06</ele>
        <time>2017-10-17T13:42:17Z</time>
      </trkpt>
      <trkpt lat="46.00794" lon="6.82304">
        <ele>2013.62</ele>
        <time>2017-10-17T13:42:20Z</time>
      </trkpt>
      <trkpt lat="46.00796" lon="6.82301">
        <ele>2012.66</ele>
        <time>2017-10-17T13:42:21Z</time>
      </trkpt>
      <trkpt lat="46.00798" lon="6.82298">
        <ele>2012.18</ele>
        <time>2017-10-17T13:42:22Z</time>
      </trkpt>
      <trkpt lat="46.0081" lon="6.82285">
        <ele>2009.77</ele>
        <time>2017-10-17T13:42:29Z</time>
      </trkpt>
      <trkpt lat="46.0081" lon="6.82282">
        <ele>2009.77</ele>
        <time>2017-10-17T13:42:30Z</time>
      </trkpt>
      <trkpt lat="46.00811" lon="6.82279">
        <ele>2008.81</ele>
        <time>2017-10-17T13:42:31Z</time>
      </trkpt>
      <trkpt lat="46.00812" lon="6.82277">
        <ele>2008.33</ele>
        <time>2017-10-17T13:42:32Z</time>
      </trkpt>
      <trkpt lat="46.00812" lon="6.82275">
        <ele>2007.85</ele>
        <time>2017-10-17T13:42:33Z</time>
      </trkpt>
      <trkpt lat="46.00812" lon="6.82272">
        <ele>2007.37</ele>
        <time>2017-10-17T13:42:34Z</time>
      </trkpt>
      <trkpt lat="46.00813" lon="6.8227">
        <ele>2006.89</ele>
        <time>2017-10-17T13:42:35Z</time>
      </trkpt>
      <trkpt lat="46.00814" lon="6.82268">
        <ele>2006.41</ele>
        <time>2017-10-17T13:42:36Z</time>
      </trkpt>
      <trkpt lat="46.00815" lon="6.82267">
        <ele>2005.93</ele>
        <time>2017-10-17T13:42:37Z</time>
      </trkpt>
      <trkpt lat="46.00817" lon="6.82266">
        <ele>2005.45</ele>
        <time>2017-10-17T13:42:38Z</time>
      </trkpt>
      <trkpt lat="46.00819" lon="6.82262">
        <ele>2004.49</ele>
        <time>2017-10-17T13:42:40Z</time>
      </trkpt>
      <trkpt lat="46.00825" lon="6.82255">
        <ele>2001.6</ele>
        <time>2017-10-17T13:42:45Z</time>
      </trkpt>
      <trkpt lat="46.00828" lon="6.82255">
        <ele>2000.64</ele>
        <time>2017-10-17T13:42:47Z</time>
      </trkpt>
      <trkpt lat="46.00829" lon="6.82254">
        <ele>2000.16</ele>
        <time>2017-10-17T13:42:48Z</time>
      </trkpt>
      <trkpt lat="46.0083" lon="6.82252">
        <ele>1998.72</ele>
        <time>2017-10-17T13:42:50Z</time>
      </trkpt>
      <trkpt lat="46.00831" lon="6.8225">
        <ele>1998.24</ele>
        <time>2017-10-17T13:42:51Z</time>
      </trkpt>
      <trkpt lat="46.00831" lon="6.82248">
        <ele>1998.24</ele>
        <time>2017-10-17T13:42:52Z</time>
      </trkpt>
      <trkpt lat="46.00833" lon="6.82246">
        <ele>1997.76</ele>
        <time>2017-10-17T13:42:53Z</time>
      </trkpt>
      <trkpt lat="46.00834" lon="6.82245">
        <ele>1996.8</ele>
        <time>2017-10-17T13:42:54Z</time>
      </trkpt>
      <trkpt lat="46.00836" lon="6.82244">
        <ele>1996.32</ele>
        <time>2017-10-17T13:42:55Z</time>
      </trkpt>
      <trkpt lat="46.00836" lon="6.82241">
        <ele>1995.83</ele>
        <time>2017-10-17T13:42:56Z</time>
      </trkpt>
      <trkpt lat="46.00836" lon="6.8224">
        <ele>1995.35</ele>
        <time>2017-10-17T13:42:57Z</time>
      </trkpt>
      <trkpt lat="46.00837" lon="6.82238">
        <ele>1994.87</ele>
        <time>2017-10-17T13:42:58Z</time>
      </trkpt>
      <trkpt lat="46.00838" lon="6.82235">
        <ele>1994.39</ele>
        <time>2017-10-17T13:42:59Z</time>
      </trkpt>
      <trkpt lat="46.00848" lon="6.82226">
        <ele>1991.51</ele>
        <time>2017-10-17T13:43:05Z</time>
      </trkpt>
      <trkpt lat="46.00849" lon="6.82224">
        <ele>1991.03</ele>
        <time>2017-10-17T13:43:06Z</time>
      </trkpt>
      <trkpt lat="46.0085" lon="6.82223">
        <ele>1990.55</ele>
        <time>2017-10-17T13:43:07Z</time>
      </trkpt>
      <trkpt lat="46.00855" lon="6.82219">
        <ele>1989.59</ele>
        <time>2017-10-17T13:43:10Z</time>
      </trkpt>
      <trkpt lat="46.00856" lon="6.82219">
        <ele>1988.62</ele>
        <time>2017-10-17T13:43:11Z</time>
      </trkpt>
      <trkpt lat="46.00857" lon="6.82217">
        <ele>1988.14</ele>
        <time>2017-10-17T13:43:12Z</time>
      </trkpt>
      <trkpt lat="46.00858" lon="6.82215">
        <ele>1987.66</ele>
        <time>2017-10-17T13:43:13Z</time>
      </trkpt>
      <trkpt lat="46.0086" lon="6.82215">
        <ele>1987.18</ele>
        <time>2017-10-17T13:43:14Z</time>
      </trkpt>
      <trkpt lat="46.00861" lon="6.82214">
        <ele>1986.22</ele>
        <time>2017-10-17T13:43:15Z</time>
      </trkpt>
      <trkpt lat="46.00862" lon="6.82215">
        <ele>1985.74</ele>
        <time>2017-10-17T13:43:16Z</time>
      </trkpt>
      <trkpt lat="46.00863" lon="6.82216">
        <ele>1985.26</ele>
        <time>2017-10-17T13:43:17Z</time>
      </trkpt>
      <trkpt lat="46.00865" lon="6.82214">
        <ele>1984.3</ele>
        <time>2017-10-17T13:43:19Z</time>
      </trkpt>
      <trkpt lat="46.00865" lon="6.82212">
        <ele>1983.82</ele>
        <time>2017-10-17T13:43:20Z</time>
      </trkpt>
      <trkpt lat="46.00865" lon="6.82209">
        <ele>1983.82</ele>
        <time>2017-10-17T13:43:21Z</time>
      </trkpt>
      <trkpt lat="46.00867" lon="6.82205">
        <ele>1982.38</ele>
        <time>2017-10-17T13:43:23Z</time>
      </trkpt>
      <trkpt lat="46.00868" lon="6.82204">
        <ele>1981.41</ele>
        <time>2017-10-17T13:43:24Z</time>
      </trkpt>
      <trkpt lat="46.00869" lon="6.82202">
        <ele>1980.93</ele>
        <time>2017-10-17T13:43:25Z</time>
      </trkpt>
      <trkpt lat="46.0087" lon="6.822">
        <ele>1979.97</ele>
        <time>2017-10-17T13:43:26Z</time>
      </trkpt>
      <trkpt lat="46.00871" lon="6.82198">
        <ele>1979.49</ele>
        <time>2017-10-17T13:43:27Z</time>
      </trkpt>
      <trkpt lat="46.00872" lon="6.82197">
        <ele>1979.01</ele>
        <time>2017-10-17T13:43:28Z</time>
      </trkpt>
      <trkpt lat="46.00872" lon="6.82195">
        <ele>1978.53</ele>
        <time>2017-10-17T13:43:29Z</time>
      </trkpt>
      <trkpt lat="46.00873" lon="6.82191">
        <ele>1976.61</ele>
        <time>2017-10-17T13:43:31Z</time>
      </trkpt>
      <trkpt lat="46.00874" lon="6.82189">
        <ele>1976.13</ele>
        <time>2017-10-17T13:43:32Z</time>
      </trkpt>
      <trkpt lat="46.00875" lon="6.82187">
        <ele>1975.17</ele>
        <time>2017-10-17T13:43:33Z</time>
      </trkpt>
      <trkpt lat="46.00876" lon="6.82186">
        <ele>1974.2</ele>
        <time>2017-10-17T13:43:34Z</time>
      </trkpt>
      <trkpt lat="46.00878" lon="6.82185">
        <ele>1973.72</ele>
        <time>2017-10-17T13:43:35Z</time>
      </trkpt>
      <trkpt lat="46.00881" lon="6.82177">
        <ele>1970.36</ele>
        <time>2017-10-17T13:43:39Z</time>
      </trkpt>
      <trkpt lat="46.00882" lon="6.82175">
        <ele>1968.92</ele>
        <time>2017-10-17T13:43:43Z</time>
      </trkpt>
      <trkpt lat="46.00879" lon="6.82168">
        <ele>1966.03</ele>
        <time>2017-10-17T13:43:50Z</time>
      </trkpt>
      <trkpt lat="46.00877" lon="6.82165">
        <ele>1965.07</ele>
        <time>2017-10-17T13:43:52Z</time>
      </trkpt>
      <trkpt lat="46.00876" lon="6.82164">
        <ele>1964.59</ele>
        <time>2017-10-17T13:43:53Z</time>
      </trkpt>
      <trkpt lat="46.00875" lon="6.82164">
        <ele>1964.59</ele>
        <time>2017-10-17T13:43:54Z</time>
      </trkpt>
      <trkpt lat="46.00872" lon="6.82162">
        <ele>1963.15</ele>
        <time>2017-10-17T13:43:56Z</time>
      </trkpt>
      <trkpt lat="46.00869" lon="6.82158">
        <ele>1961.23</ele>
        <time>2017-10-17T13:44:00Z</time>
      </trkpt>
      <trkpt lat="46.00869" lon="6.82157">
        <ele>1960.27</ele>
        <time>2017-10-17T13:44:01Z</time>
      </trkpt>
      <trkpt lat="46.00869" lon="6.82156">
        <ele>1959.78</ele>
        <time>2017-10-17T13:44:02Z</time>
      </trkpt>
      <trkpt lat="46.0087" lon="6.82155">
        <ele>1959.78</ele>
        <time>2017-10-17T13:44:03Z</time>
      </trkpt>
      <trkpt lat="46.00871" lon="6.82154">
        <ele>1958.82</ele>
        <time>2017-10-17T13:44:04Z</time>
      </trkpt>
      <trkpt lat="46.00872" lon="6.82153">
        <ele>1958.34</ele>
        <time>2017-10-17T13:44:05Z</time>
      </trkpt>
      <trkpt lat="46.00872" lon="6.82152">
        <ele>1957.38</ele>
        <time>2017-10-17T13:44:06Z</time>
      </trkpt>
      <trkpt lat="46.00872" lon="6.82151">
        <ele>1956.9</ele>
        <time>2017-10-17T13:44:07Z</time>
      </trkpt>
      <trkpt lat="46.00873" lon="6.8215">
        <ele>1956.42</ele>
        <time>2017-10-17T13:44:08Z</time>
      </trkpt>
      <trkpt lat="46.00874" lon="6.82148">
        <ele>1955.94</ele>
        <time>2017-10-17T13:44:09Z</time>
      </trkpt>
      <trkpt lat="46.00885" lon="6.82137">
        <ele>1952.57</ele>
        <time>2017-10-17T13:44:17Z</time>
      </trkpt>
      <trkpt lat="46.00892" lon="6.82136">
        <ele>1949.69</ele>
        <time>2017-10-17T13:44:22Z</time>
      </trkpt>
      <trkpt lat="46.00896" lon="6.82134">
        <ele>1948.25</ele>
        <time>2017-10-17T13:44:25Z</time>
      </trkpt>
      <trkpt lat="46.00897" lon="6.82133">
        <ele>1947.77</ele>
        <time>2017-10-17T13:44:26Z</time>
      </trkpt>
      <trkpt lat="46.00898" lon="6.82132">
        <ele>1947.29</ele>
        <time>2017-10-17T13:44:27Z</time>
      </trkpt>
      <trkpt lat="46.00904" lon="6.82128">
        <ele>1944.4</ele>
        <time>2017-10-17T13:44:31Z</time>
      </trkpt>
      <trkpt lat="46.00915" lon="6.82122">
        <ele>1941.04</ele>
        <time>2017-10-17T13:44:37Z</time>
      </trkpt>
      <trkpt lat="46.00916" lon="6.82121">
        <ele>1940.56</ele>
        <time>2017-10-17T13:44:39Z</time>
      </trkpt>
      <trkpt lat="46.00916" lon="6.82118">
        <ele>1940.08</ele>
        <time>2017-10-17T13:44:40Z</time>
      </trkpt>
      <trkpt lat="46.00917" lon="6.82116">
        <ele>1939.6</ele>
        <time>2017-10-17T13:44:41Z</time>
      </trkpt>
      <trkpt lat="46.00916" lon="6.82115">
        <ele>1939.12</ele>
        <time>2017-10-17T13:44:42Z</time>
      </trkpt>
      <trkpt lat="46.00916" lon="6.82113">
        <ele>1938.16</ele>
        <time>2017-10-17T13:44:43Z</time>
      </trkpt>
      <trkpt lat="46.00916" lon="6.82112">
        <ele>1937.67</ele>
        <time>2017-10-17T13:44:44Z</time>
      </trkpt>
      <trkpt lat="46.00916" lon="6.82111">
        <ele>1937.19</ele>
        <time>2017-10-17T13:44:45Z</time>
      </trkpt>
      <trkpt lat="46.00915" lon="6.8211">
        <ele>1937.19</ele>
        <time>2017-10-17T13:44:46Z</time>
      </trkpt>
      <trkpt lat="46.00914" lon="6.8211">
        <ele>1936.23</ele>
        <time>2017-10-17T13:44:47Z</time>
      </trkpt>
      <trkpt lat="46.00912" lon="6.8211">
        <ele>1935.27</ele>
        <time>2017-10-17T13:44:48Z</time>
      </trkpt>
      <trkpt lat="46.00911" lon="6.8211">
        <ele>1934.31</ele>
        <time>2017-10-17T13:44:49Z</time>
      </trkpt>
      <trkpt lat="46.00908" lon="6.8211">
        <ele>1930.95</ele>
        <time>2017-10-17T13:44:55Z</time>
      </trkpt>
      <trkpt lat="46.00907" lon="6.82107">
        <ele>1929.98</ele>
        <time>2017-10-17T13:44:58Z</time>
      </trkpt>
      <trkpt lat="46.00904" lon="6.82103">
        <ele>1927.58</ele>
        <time>2017-10-17T13:45:02Z</time>
      </trkpt>
      <trkpt lat="46.00902" lon="6.82102">
        <ele>1927.1</ele>
        <time>2017-10-17T13:45:03Z</time>
      </trkpt>
      <trkpt lat="46.00901" lon="6.82101">
        <ele>1926.62</ele>
        <time>2017-10-17T13:45:04Z</time>
      </trkpt>
      <trkpt lat="46.009" lon="6.82099">
        <ele>1925.66</ele>
        <time>2017-10-17T13:45:05Z</time>
      </trkpt>
      <trkpt lat="46.00898" lon="6.82097">
        <ele>1925.18</ele>
        <time>2017-10-17T13:45:06Z</time>
      </trkpt>
      <trkpt lat="46.00897" lon="6.82094">
        <ele>1924.22</ele>
        <time>2017-10-17T13:45:08Z</time>
      </trkpt>
      <trkpt lat="46.00891" lon="6.82091">
        <ele>1926.14</ele>
        <time>2017-10-17T13:45:17Z</time>
      </trkpt>
      <trkpt lat="46.00889" lon="6.82088">
        <ele>1925.18</ele>
        <time>2017-10-17T13:45:21Z</time>
      </trkpt>
      <trkpt lat="46.00886" lon="6.82083">
        <ele>1921.81</ele>
        <time>2017-10-17T13:45:29Z</time>
      </trkpt>
      <trkpt lat="46.0088" lon="6.82076">
        <ele>1917.97</ele>
        <time>2017-10-17T13:45:34Z</time>
      </trkpt>
      <trkpt lat="46.00879" lon="6.82075">
        <ele>1917.97</ele>
        <time>2017-10-17T13:45:35Z</time>
      </trkpt>
      <trkpt lat="46.00879" lon="6.82074">
        <ele>1917.49</ele>
        <time>2017-10-17T13:45:36Z</time>
      </trkpt>
      <trkpt lat="46.00879" lon="6.82072">
        <ele>1917.01</ele>
        <time>2017-10-17T13:45:37Z</time>
      </trkpt>
      <trkpt lat="46.00879" lon="6.8207">
        <ele>1916.53</ele>
        <time>2017-10-17T13:45:38Z</time>
      </trkpt>
      <trkpt lat="46.00879" lon="6.82067">
        <ele>1916.04</ele>
        <time>2017-10-17T13:45:39Z</time>
      </trkpt>
      <trkpt lat="46.00879" lon="6.82065">
        <ele>1915.56</ele>
        <time>2017-10-17T13:45:40Z</time>
      </trkpt>
      <trkpt lat="46.00879" lon="6.8206">
        <ele>1914.6</ele>
        <time>2017-10-17T13:45:42Z</time>
      </trkpt>
      <trkpt lat="46.00879" lon="6.82058">
        <ele>1914.12</ele>
        <time>2017-10-17T13:45:43Z</time>
      </trkpt>
      <trkpt lat="46.00879" lon="6.82055">
        <ele>1914.12</ele>
        <time>2017-10-17T13:45:44Z</time>
      </trkpt>
      <trkpt lat="46.00879" lon="6.82053">
        <ele>1913.64</ele>
        <time>2017-10-17T13:45:45Z</time>
      </trkpt>
      <trkpt lat="46.00879" lon="6.8205">
        <ele>1913.64</ele>
        <time>2017-10-17T13:45:46Z</time>
      </trkpt>
      <trkpt lat="46.00879" lon="6.82047">
        <ele>1913.16</ele>
        <time>2017-10-17T13:45:47Z</time>
      </trkpt>
      <trkpt lat="46.00878" lon="6.82044">
        <ele>1912.68</ele>
        <time>2017-10-17T13:45:48Z</time>
      </trkpt>
      <trkpt lat="46.00878" lon="6.82042">
        <ele>1912.68</ele>
        <time>2017-10-17T13:45:49Z</time>
      </trkpt>
      <trkpt lat="46.00878" lon="6.82039">
        <ele>1912.2</ele>
        <time>2017-10-17T13:45:50Z</time>
      </trkpt>
      <trkpt lat="46.00876" lon="6.82036">
        <ele>1911.24</ele>
        <time>2017-10-17T13:45:51Z</time>
      </trkpt>
      <trkpt lat="46.00875" lon="6.82034">
        <ele>1911.24</ele>
        <time>2017-10-17T13:45:52Z</time>
      </trkpt>
      <trkpt lat="46.00875" lon="6.82032">
        <ele>1910.76</ele>
        <time>2017-10-17T13:45:53Z</time>
      </trkpt>
      <trkpt lat="46.00875" lon="6.8203">
        <ele>1910.76</ele>
        <time>2017-10-17T13:45:54Z</time>
      </trkpt>
      <trkpt lat="46.00875" lon="6.82028">
        <ele>1910.28</ele>
        <time>2017-10-17T13:45:55Z</time>
      </trkpt>
      <trkpt lat="46.00875" lon="6.82025">
        <ele>1909.8</ele>
        <time>2017-10-17T13:45:56Z</time>
      </trkpt>
      <trkpt lat="46.00875" lon="6.82023">
        <ele>1909.32</ele>
        <time>2017-10-17T13:45:57Z</time>
      </trkpt>
      <trkpt lat="46.00874" lon="6.8202">
        <ele>1908.83</ele>
        <time>2017-10-17T13:45:58Z</time>
      </trkpt>
      <trkpt lat="46.00874" lon="6.82018">
        <ele>1908.35</ele>
        <time>2017-10-17T13:45:59Z</time>
      </trkpt>
      <trkpt lat="46.00874" lon="6.82016">
        <ele>1907.87</ele>
        <time>2017-10-17T13:46:00Z</time>
      </trkpt>
      <trkpt lat="46.00869" lon="6.82003">
        <ele>1905.47</ele>
        <time>2017-10-17T13:46:07Z</time>
      </trkpt>
      <trkpt lat="46.00869" lon="6.82">
        <ele>1904.99</ele>
        <time>2017-10-17T13:46:08Z</time>
      </trkpt>
      <trkpt lat="46.00868" lon="6.81997">
        <ele>1904.99</ele>
        <time>2017-10-17T13:46:09Z</time>
      </trkpt>
      <trkpt lat="46.00867" lon="6.81994">
        <ele>1904.51</ele>
        <time>2017-10-17T13:46:10Z</time>
      </trkpt>
      <trkpt lat="46.00867" lon="6.81992">
        <ele>1904.51</ele>
        <time>2017-10-17T13:46:11Z</time>
      </trkpt>
      <trkpt lat="46.00866" lon="6.81991">
        <ele>1904.51</ele>
        <time>2017-10-17T13:46:12Z</time>
      </trkpt>
      <trkpt lat="46.00867" lon="6.81988">
        <ele>1905.47</ele>
        <time>2017-10-17T13:46:15Z</time>
      </trkpt>
      <trkpt lat="46.00867" lon="6.81987">
        <ele>1905.47</ele>
        <time>2017-10-17T13:46:16Z</time>
      </trkpt>
      <trkpt lat="46.00866" lon="6.81985">
        <ele>1905.47</ele>
        <time>2017-10-17T13:46:17Z</time>
      </trkpt>
      <trkpt lat="46.00865" lon="6.81982">
        <ele>1904.99</ele>
        <time>2017-10-17T13:46:19Z</time>
      </trkpt>
      <trkpt lat="46.00865" lon="6.81981">
        <ele>1904.51</ele>
        <time>2017-10-17T13:46:20Z</time>
      </trkpt>
      <trkpt lat="46.00864" lon="6.81979">
        <ele>1904.03</ele>
        <time>2017-10-17T13:46:21Z</time>
      </trkpt>
      <trkpt lat="46.00864" lon="6.81977">
        <ele>1903.55</ele>
        <time>2017-10-17T13:46:22Z</time>
      </trkpt>
      <trkpt lat="46.00864" lon="6.81975">
        <ele>1902.59</ele>
        <time>2017-10-17T13:46:23Z</time>
      </trkpt>
      <trkpt lat="46.00864" lon="6.81974">
        <ele>1902.59</ele>
        <time>2017-10-17T13:46:24Z</time>
      </trkpt>
      <trkpt lat="46.00863" lon="6.81972">
        <ele>1901.63</ele>
        <time>2017-10-17T13:46:25Z</time>
      </trkpt>
      <trkpt lat="46.00862" lon="6.81971">
        <ele>1901.63</ele>
        <time>2017-10-17T13:46:26Z</time>
      </trkpt>
      <trkpt lat="46.00861" lon="6.8197">
        <ele>1901.14</ele>
        <time>2017-10-17T13:46:27Z</time>
      </trkpt>
      <trkpt lat="46.00857" lon="6.81969">
        <ele>1898.74</ele>
        <time>2017-10-17T13:46:39Z</time>
      </trkpt>
      <trkpt lat="46.00856" lon="6.81968">
        <ele>1897.78</ele>
        <time>2017-10-17T13:46:41Z</time>
      </trkpt>
      <trkpt lat="46.00855" lon="6.81966">
        <ele>1896.82</ele>
        <time>2017-10-17T13:46:42Z</time>
      </trkpt>
      <trkpt lat="46.00855" lon="6.81964">
        <ele>1896.82</ele>
        <time>2017-10-17T13:46:43Z</time>
      </trkpt>
      <trkpt lat="46.00855" lon="6.81962">
        <ele>1895.86</ele>
        <time>2017-10-17T13:46:44Z</time>
      </trkpt>
      <trkpt lat="46.00857" lon="6.8196">
        <ele>1895.38</ele>
        <time>2017-10-17T13:46:45Z</time>
      </trkpt>
      <trkpt lat="46.00859" lon="6.81957">
        <ele>1894.42</ele>
        <time>2017-10-17T13:46:46Z</time>
      </trkpt>
      <trkpt lat="46.00861" lon="6.81955">
        <ele>1893.93</ele>
        <time>2017-10-17T13:46:47Z</time>
      </trkpt>
      <trkpt lat="46.00863" lon="6.81955">
        <ele>1893.93</ele>
        <time>2017-10-17T13:46:48Z</time>
      </trkpt>
      <trkpt lat="46.00865" lon="6.81954">
        <ele>1893.45</ele>
        <time>2017-10-17T13:46:49Z</time>
      </trkpt>
      <trkpt lat="46.00867" lon="6.81954">
        <ele>1892.97</ele>
        <time>2017-10-17T13:46:50Z</time>
      </trkpt>
      <trkpt lat="46.00868" lon="6.81953">
        <ele>1892.97</ele>
        <time>2017-10-17T13:46:51Z</time>
      </trkpt>
      <trkpt lat="46.00869" lon="6.81952">
        <ele>1892.49</ele>
        <time>2017-10-17T13:46:52Z</time>
      </trkpt>
      <trkpt lat="46.0087" lon="6.81951">
        <ele>1892.01</ele>
        <time>2017-10-17T13:46:53Z</time>
      </trkpt>
      <trkpt lat="46.00872" lon="6.8195">
        <ele>1891.05</ele>
        <time>2017-10-17T13:46:55Z</time>
      </trkpt>
      <trkpt lat="46.00873" lon="6.81948">
        <ele>1890.57</ele>
        <time>2017-10-17T13:46:56Z</time>
      </trkpt>
      <trkpt lat="46.00874" lon="6.81948">
        <ele>1890.09</ele>
        <time>2017-10-17T13:46:57Z</time>
      </trkpt>
      <trkpt lat="46.00874" lon="6.81947">
        <ele>1889.13</ele>
        <time>2017-10-17T13:46:59Z</time>
      </trkpt>
      <trkpt lat="46.00873" lon="6.81945">
        <ele>1888.65</ele>
        <time>2017-10-17T13:47:00Z</time>
      </trkpt>
      <trkpt lat="46.00871" lon="6.81941">
        <ele>1887.21</ele>
        <time>2017-10-17T13:47:03Z</time>
      </trkpt>
      <trkpt lat="46.0087" lon="6.8194">
        <ele>1886.72</ele>
        <time>2017-10-17T13:47:04Z</time>
      </trkpt>
      <trkpt lat="46.00869" lon="6.8194">
        <ele>1886.24</ele>
        <time>2017-10-17T13:47:05Z</time>
      </trkpt>
      <trkpt lat="46.00866" lon="6.81938">
        <ele>1885.28</ele>
        <time>2017-10-17T13:47:08Z</time>
      </trkpt>
      <trkpt lat="46.00866" lon="6.81936">
        <ele>1883.84</ele>
        <time>2017-10-17T13:47:10Z</time>
      </trkpt>
      <trkpt lat="46.00866" lon="6.81935">
        <ele>1883.36</ele>
        <time>2017-10-17T13:47:11Z</time>
      </trkpt>
      <trkpt lat="46.00867" lon="6.81933">
        <ele>1882.88</ele>
        <time>2017-10-17T13:47:12Z</time>
      </trkpt>
      <trkpt lat="46.00868" lon="6.81932">
        <ele>1881.92</ele>
        <time>2017-10-17T13:47:13Z</time>
      </trkpt>
      <trkpt lat="46.00871" lon="6.81931">
        <ele>1881.44</ele>
        <time>2017-10-17T13:47:14Z</time>
      </trkpt>
      <trkpt lat="46.00873" lon="6.8193">
        <ele>1880.96</ele>
        <time>2017-10-17T13:47:15Z</time>
      </trkpt>
      <trkpt lat="46.00883" lon="6.81928">
        <ele>1877.59</ele>
        <time>2017-10-17T13:47:23Z</time>
      </trkpt>
      <trkpt lat="46.00884" lon="6.81927">
        <ele>1876.63</ele>
        <time>2017-10-17T13:47:24Z</time>
      </trkpt>
      <trkpt lat="46.00883" lon="6.81926">
        <ele>1876.63</ele>
        <time>2017-10-17T13:47:25Z</time>
      </trkpt>
      <trkpt lat="46.00882" lon="6.81924">
        <ele>1875.67</ele>
        <time>2017-10-17T13:47:26Z</time>
      </trkpt>
      <trkpt lat="46.00881" lon="6.81922">
        <ele>1875.19</ele>
        <time>2017-10-17T13:47:27Z</time>
      </trkpt>
      <trkpt lat="46.0088" lon="6.81921">
        <ele>1874.71</ele>
        <time>2017-10-17T13:47:28Z</time>
      </trkpt>
      <trkpt lat="46.0088" lon="6.81919">
        <ele>1874.23</ele>
        <time>2017-10-17T13:47:29Z</time>
      </trkpt>
      <trkpt lat="46.00878" lon="6.81916">
        <ele>1872.79</ele>
        <time>2017-10-17T13:47:31Z</time>
      </trkpt>
      <trkpt lat="46.00878" lon="6.81915">
        <ele>1872.79</ele>
        <time>2017-10-17T13:47:32Z</time>
      </trkpt>
      <trkpt lat="46.00878" lon="6.81914">
        <ele>1872.3</ele>
        <time>2017-10-17T13:47:33Z</time>
      </trkpt>
      <trkpt lat="46.0088" lon="6.81913">
        <ele>1871.82</ele>
        <time>2017-10-17T13:47:34Z</time>
      </trkpt>
      <trkpt lat="46.00881" lon="6.81913">
        <ele>1871.34</ele>
        <time>2017-10-17T13:47:35Z</time>
      </trkpt>
      <trkpt lat="46.00885" lon="6.81912">
        <ele>1869.42</ele>
        <time>2017-10-17T13:47:39Z</time>
      </trkpt>
      <trkpt lat="46.00886" lon="6.81912">
        <ele>1868.94</ele>
        <time>2017-10-17T13:47:40Z</time>
      </trkpt>
      <trkpt lat="46.00887" lon="6.81911">
        <ele>1867.98</ele>
        <time>2017-10-17T13:47:41Z</time>
      </trkpt>
      <trkpt lat="46.00888" lon="6.81911">
        <ele>1867.5</ele>
        <time>2017-10-17T13:47:42Z</time>
      </trkpt>
      <trkpt lat="46.00889" lon="6.8191">
        <ele>1867.02</ele>
        <time>2017-10-17T13:47:43Z</time>
      </trkpt>
      <trkpt lat="46.0089" lon="6.8191">
        <ele>1866.54</ele>
        <time>2017-10-17T13:47:44Z</time>
      </trkpt>
      <trkpt lat="46.00892" lon="6.8191">
        <ele>1865.58</ele>
        <time>2017-10-17T13:47:45Z</time>
      </trkpt>
      <trkpt lat="46.00893" lon="6.8191">
        <ele>1864.61</ele>
        <time>2017-10-17T13:47:46Z</time>
      </trkpt>
      <trkpt lat="46.00895" lon="6.8191">
        <ele>1864.13</ele>
        <time>2017-10-17T13:47:47Z</time>
      </trkpt>
      <trkpt lat="46.00896" lon="6.81909">
        <ele>1863.17</ele>
        <time>2017-10-17T13:47:48Z</time>
      </trkpt>
      <trkpt lat="46.00897" lon="6.81908">
        <ele>1862.21</ele>
        <time>2017-10-17T13:47:49Z</time>
      </trkpt>
      <trkpt lat="46.00897" lon="6.81906">
        <ele>1861.73</ele>
        <time>2017-10-17T13:47:50Z</time>
      </trkpt>
      <trkpt lat="46.00898" lon="6.81904">
        <ele>1861.25</ele>
        <time>2017-10-17T13:47:51Z</time>
      </trkpt>
      <trkpt lat="46.00899" lon="6.81904">
        <ele>1860.29</ele>
        <time>2017-10-17T13:47:52Z</time>
      </trkpt>
      <trkpt lat="46.00901" lon="6.81904">
        <ele>1859.81</ele>
        <time>2017-10-17T13:47:53Z</time>
      </trkpt>
      <trkpt lat="46.00902" lon="6.81904">
        <ele>1858.85</ele>
        <time>2017-10-17T13:47:54Z</time>
      </trkpt>
      <trkpt lat="46.00903" lon="6.81903">
        <ele>1857.89</ele>
        <time>2017-10-17T13:47:55Z</time>
      </trkpt>
      <trkpt lat="46.00904" lon="6.81903">
        <ele>1857.4</ele>
        <time>2017-10-17T13:47:56Z</time>
      </trkpt>
      <trkpt lat="46.00905" lon="6.81901">
        <ele>1855.96</ele>
        <time>2017-10-17T13:47:58Z</time>
      </trkpt>
      <trkpt lat="46.00904" lon="6.819">
        <ele>1855.96</ele>
        <time>2017-10-17T13:47:59Z</time>
      </trkpt>
      <trkpt lat="46.00904" lon="6.81898">
        <ele>1855</ele>
        <time>2017-10-17T13:48:00Z</time>
      </trkpt>
      <trkpt lat="46.00904" lon="6.81896">
        <ele>1854.52</ele>
        <time>2017-10-17T13:48:01Z</time>
      </trkpt>
      <trkpt lat="46.00904" lon="6.81889">
        <ele>1851.16</ele>
        <time>2017-10-17T13:48:06Z</time>
      </trkpt>
      <trkpt lat="46.00903" lon="6.81884">
        <ele>1849.71</ele>
        <time>2017-10-17T13:48:09Z</time>
      </trkpt>
      <trkpt lat="46.00903" lon="6.81883">
        <ele>1849.23</ele>
        <time>2017-10-17T13:48:10Z</time>
      </trkpt>
      <trkpt lat="46.00905" lon="6.81882">
        <ele>1848.75</ele>
        <time>2017-10-17T13:48:11Z</time>
      </trkpt>
      <trkpt lat="46.00906" lon="6.81883">
        <ele>1848.27</ele>
        <time>2017-10-17T13:48:12Z</time>
      </trkpt>
      <trkpt lat="46.00907" lon="6.81883">
        <ele>1848.27</ele>
        <time>2017-10-17T13:48:13Z</time>
      </trkpt>
      <trkpt lat="46.00909" lon="6.81882">
        <ele>1846.83</ele>
        <time>2017-10-17T13:48:15Z</time>
      </trkpt>
      <trkpt lat="46.00909" lon="6.81881">
        <ele>1846.35</ele>
        <time>2017-10-17T13:48:16Z</time>
      </trkpt>
      <trkpt lat="46.00909" lon="6.8188">
        <ele>1845.39</ele>
        <time>2017-10-17T13:48:17Z</time>
      </trkpt>
      <trkpt lat="46.0091" lon="6.8188">
        <ele>1845.39</ele>
        <time>2017-10-17T13:48:18Z</time>
      </trkpt>
      <trkpt lat="46.00911" lon="6.81881">
        <ele>1844.43</ele>
        <time>2017-10-17T13:48:19Z</time>
      </trkpt>
      <trkpt lat="46.00912" lon="6.81879">
        <ele>1843.47</ele>
        <time>2017-10-17T13:48:21Z</time>
      </trkpt>
      <trkpt lat="46.00913" lon="6.81878">
        <ele>1842.98</ele>
        <time>2017-10-17T13:48:22Z</time>
      </trkpt>
      <trkpt lat="46.00914" lon="6.81877">
        <ele>1842.5</ele>
        <time>2017-10-17T13:48:23Z</time>
      </trkpt>
      <trkpt lat="46.00914" lon="6.81873">
        <ele>1840.58</ele>
        <time>2017-10-17T13:48:27Z</time>
      </trkpt>
      <trkpt lat="46.00915" lon="6.81871">
        <ele>1840.58</ele>
        <time>2017-10-17T13:48:28Z</time>
      </trkpt>
      <trkpt lat="46.00915" lon="6.8187">
        <ele>1839.62</ele>
        <time>2017-10-17T13:48:29Z</time>
      </trkpt>
      <trkpt lat="46.00915" lon="6.81868">
        <ele>1839.14</ele>
        <time>2017-10-17T13:48:30Z</time>
      </trkpt>
      <trkpt lat="46.00914" lon="6.81867">
        <ele>1838.66</ele>
        <time>2017-10-17T13:48:31Z</time>
      </trkpt>
      <trkpt lat="46.00913" lon="6.81866">
        <ele>1838.18</ele>
        <time>2017-10-17T13:48:32Z</time>
      </trkpt>
      <trkpt lat="46.00912" lon="6.81864">
        <ele>1837.7</ele>
        <time>2017-10-17T13:48:33Z</time>
      </trkpt>
      <trkpt lat="46.00912" lon="6.81862">
        <ele>1837.22</ele>
        <time>2017-10-17T13:48:34Z</time>
      </trkpt>
      <trkpt lat="46.00912" lon="6.81861">
        <ele>1836.74</ele>
        <time>2017-10-17T13:48:35Z</time>
      </trkpt>
      <trkpt lat="46.0091" lon="6.81857">
        <ele>1834.81</ele>
        <time>2017-10-17T13:48:38Z</time>
      </trkpt>
      <trkpt lat="46.0091" lon="6.81855">
        <ele>1833.85</ele>
        <time>2017-10-17T13:48:39Z</time>
      </trkpt>
      <trkpt lat="46.00911" lon="6.81854">
        <ele>1833.37</ele>
        <time>2017-10-17T13:48:40Z</time>
      </trkpt>
      <trkpt lat="46.00912" lon="6.81852">
        <ele>1832.89</ele>
        <time>2017-10-17T13:48:41Z</time>
      </trkpt>
      <trkpt lat="46.00913" lon="6.81852">
        <ele>1832.41</ele>
        <time>2017-10-17T13:48:42Z</time>
      </trkpt>
      <trkpt lat="46.00914" lon="6.81852">
        <ele>1831.93</ele>
        <time>2017-10-17T13:48:43Z</time>
      </trkpt>
      <trkpt lat="46.00916" lon="6.81852">
        <ele>1830.97</ele>
        <time>2017-10-17T13:48:45Z</time>
      </trkpt>
      <trkpt lat="46.00917" lon="6.81851">
        <ele>1830.49</ele>
        <time>2017-10-17T13:48:46Z</time>
      </trkpt>
      <trkpt lat="46.0092" lon="6.8185">
        <ele>1829.53</ele>
        <time>2017-10-17T13:48:48Z</time>
      </trkpt>
      <trkpt lat="46.00921" lon="6.81849">
        <ele>1829.05</ele>
        <time>2017-10-17T13:48:49Z</time>
      </trkpt>
      <trkpt lat="46.00922" lon="6.81847">
        <ele>1828.56</ele>
        <time>2017-10-17T13:48:50Z</time>
      </trkpt>
      <trkpt lat="46.00923" lon="6.81846">
        <ele>1827.6</ele>
        <time>2017-10-17T13:48:51Z</time>
      </trkpt>
      <trkpt lat="46.00923" lon="6.81845">
        <ele>1827.12</ele>
        <time>2017-10-17T13:48:52Z</time>
      </trkpt>
      <trkpt lat="46.00924" lon="6.81844">
        <ele>1826.64</ele>
        <time>2017-10-17T13:48:53Z</time>
      </trkpt>
      <trkpt lat="46.00926" lon="6.81843">
        <ele>1826.64</ele>
        <time>2017-10-17T13:48:54Z</time>
      </trkpt>
      <trkpt lat="46.00927" lon="6.81843">
        <ele>1826.16</ele>
        <time>2017-10-17T13:48:55Z</time>
      </trkpt>
      <trkpt lat="46.00927" lon="6.81843">
        <ele>1825.2</ele>
        <time>2017-10-17T13:48:56Z</time>
      </trkpt>
      <trkpt lat="46.00928" lon="6.81841">
        <ele>1824.72</ele>
        <time>2017-10-17T13:48:57Z</time>
      </trkpt>
      <trkpt lat="46.00929" lon="6.8184">
        <ele>1824.24</ele>
        <time>2017-10-17T13:48:58Z</time>
      </trkpt>
      <trkpt lat="46.0093" lon="6.8184">
        <ele>1823.28</ele>
        <time>2017-10-17T13:48:59Z</time>
      </trkpt>
      <trkpt lat="46.00929" lon="6.81838">
        <ele>1822.32</ele>
        <time>2017-10-17T13:49:01Z</time>
      </trkpt>
      <trkpt lat="46.00928" lon="6.81836">
        <ele>1821.84</ele>
        <time>2017-10-17T13:49:02Z</time>
      </trkpt>
      <trkpt lat="46.00928" lon="6.81835">
        <ele>1820.87</ele>
        <time>2017-10-17T13:49:03Z</time>
      </trkpt>
      <trkpt lat="46.00928" lon="6.81833">
        <ele>1820.39</ele>
        <time>2017-10-17T13:49:04Z</time>
      </trkpt>
      <trkpt lat="46.00928" lon="6.81831">
        <ele>1819.91</ele>
        <time>2017-10-17T13:49:05Z</time>
      </trkpt>
      <trkpt lat="46.00928" lon="6.81829">
        <ele>1819.43</ele>
        <time>2017-10-17T13:49:06Z</time>
      </trkpt>
      <trkpt lat="46.00927" lon="6.81827">
        <ele>1818.47</ele>
        <time>2017-10-17T13:49:07Z</time>
      </trkpt>
      <trkpt lat="46.00927" lon="6.81825">
        <ele>1817.99</ele>
        <time>2017-10-17T13:49:08Z</time>
      </trkpt>
      <trkpt lat="46.00926" lon="6.81824">
        <ele>1817.51</ele>
        <time>2017-10-17T13:49:09Z</time>
      </trkpt>
      <trkpt lat="46.00925" lon="6.81822">
        <ele>1817.03</ele>
        <time>2017-10-17T13:49:10Z</time>
      </trkpt>
      <trkpt lat="46.00924" lon="6.8182">
        <ele>1816.55</ele>
        <time>2017-10-17T13:49:11Z</time>
      </trkpt>
      <trkpt lat="46.00925" lon="6.81819">
        <ele>1816.07</ele>
        <time>2017-10-17T13:49:12Z</time>
      </trkpt>
      <trkpt lat="46.00926" lon="6.81818">
        <ele>1815.59</ele>
        <time>2017-10-17T13:49:13Z</time>
      </trkpt>
      <trkpt lat="46.00927" lon="6.81818">
        <ele>1815.11</ele>
        <time>2017-10-17T13:49:14Z</time>
      </trkpt>
      <trkpt lat="46.00928" lon="6.81818">
        <ele>1814.63</ele>
        <time>2017-10-17T13:49:15Z</time>
      </trkpt>
      <trkpt lat="46.0093" lon="6.81817">
        <ele>1814.63</ele>
        <time>2017-10-17T13:49:16Z</time>
      </trkpt>
      <trkpt lat="46.00931" lon="6.81817">
        <ele>1814.15</ele>
        <time>2017-10-17T13:49:17Z</time>
      </trkpt>
      <trkpt lat="46.00932" lon="6.81816">
        <ele>1813.66</ele>
        <time>2017-10-17T13:49:18Z</time>
      </trkpt>
      <trkpt lat="46.00933" lon="6.81816">
        <ele>1813.18</ele>
        <time>2017-10-17T13:49:19Z</time>
      </trkpt>
      <trkpt lat="46.00934" lon="6.81815">
        <ele>1812.22</ele>
        <time>2017-10-17T13:49:20Z</time>
      </trkpt>
      <trkpt lat="46.00935" lon="6.81814">
        <ele>1811.74</ele>
        <time>2017-10-17T13:49:21Z</time>
      </trkpt>
      <trkpt lat="46.00935" lon="6.81813">
        <ele>1811.26</ele>
        <time>2017-10-17T13:49:22Z</time>
      </trkpt>
      <trkpt lat="46.00935" lon="6.8181">
        <ele>1808.86</ele>
        <time>2017-10-17T13:49:25Z</time>
      </trkpt>
      <trkpt lat="46.00935" lon="6.81808">
        <ele>1808.38</ele>
        <time>2017-10-17T13:49:26Z</time>
      </trkpt>
      <trkpt lat="46.00935" lon="6.81807">
        <ele>1807.9</ele>
        <time>2017-10-17T13:49:27Z</time>
      </trkpt>
      <trkpt lat="46.00934" lon="6.81805">
        <ele>1807.42</ele>
        <time>2017-10-17T13:49:28Z</time>
      </trkpt>
      <trkpt lat="46.00934" lon="6.81803">
        <ele>1806.94</ele>
        <time>2017-10-17T13:49:29Z</time>
      </trkpt>
      <trkpt lat="46.00935" lon="6.81801">
        <ele>1806.45</ele>
        <time>2017-10-17T13:49:30Z</time>
      </trkpt>
      <trkpt lat="46.00937" lon="6.81799">
        <ele>1805.97</ele>
        <time>2017-10-17T13:49:31Z</time>
      </trkpt>
      <trkpt lat="46.00938" lon="6.81799">
        <ele>1805.49</ele>
        <time>2017-10-17T13:49:32Z</time>
      </trkpt>
      <trkpt lat="46.00939" lon="6.81799">
        <ele>1805.01</ele>
        <time>2017-10-17T13:49:33Z</time>
      </trkpt>
      <trkpt lat="46.00942" lon="6.81796">
        <ele>1803.09</ele>
        <time>2017-10-17T13:49:37Z</time>
      </trkpt>
      <trkpt lat="46.00942" lon="6.81791">
        <ele>1801.17</ele>
        <time>2017-10-17T13:49:40Z</time>
      </trkpt>
      <trkpt lat="46.0094" lon="6.81787">
        <ele>1799.73</ele>
        <time>2017-10-17T13:49:43Z</time>
      </trkpt>
      <trkpt lat="46.00939" lon="6.81786">
        <ele>1798.76</ele>
        <time>2017-10-17T13:49:44Z</time>
      </trkpt>
      <trkpt lat="46.00938" lon="6.81785">
        <ele>1798.76</ele>
        <time>2017-10-17T13:49:45Z</time>
      </trkpt>
      <trkpt lat="46.00937" lon="6.81783">
        <ele>1797.8</ele>
        <time>2017-10-17T13:49:46Z</time>
      </trkpt>
      <trkpt lat="46.00937" lon="6.81781">
        <ele>1797.32</ele>
        <time>2017-10-17T13:49:47Z</time>
      </trkpt>
      <trkpt lat="46.00937" lon="6.81779">
        <ele>1796.36</ele>
        <time>2017-10-17T13:49:48Z</time>
      </trkpt>
      <trkpt lat="46.00937" lon="6.81778">
        <ele>1795.88</ele>
        <time>2017-10-17T13:49:49Z</time>
      </trkpt>
      <trkpt lat="46.00938" lon="6.81776">
        <ele>1795.4</ele>
        <time>2017-10-17T13:49:50Z</time>
      </trkpt>
      <trkpt lat="46.00939" lon="6.81774">
        <ele>1795.4</ele>
        <time>2017-10-17T13:49:51Z</time>
      </trkpt>
      <trkpt lat="46.0094" lon="6.81773">
        <ele>1794.44</ele>
        <time>2017-10-17T13:49:52Z</time>
      </trkpt>
      <trkpt lat="46.00941" lon="6.81772">
        <ele>1793.96</ele>
        <time>2017-10-17T13:49:53Z</time>
      </trkpt>
      <trkpt lat="46.00942" lon="6.81772">
        <ele>1793</ele>
        <time>2017-10-17T13:49:54Z</time>
      </trkpt>
      <trkpt lat="46.00943" lon="6.81772">
        <ele>1793</ele>
        <time>2017-10-17T13:49:55Z</time>
      </trkpt>
      <trkpt lat="46.00945" lon="6.81769">
        <ele>1790.59</ele>
        <time>2017-10-17T13:49:59Z</time>
      </trkpt>
      <trkpt lat="46.00946" lon="6.81767">
        <ele>1789.63</ele>
        <time>2017-10-17T13:50:00Z</time>
      </trkpt>
      <trkpt lat="46.00946" lon="6.81765">
        <ele>1789.15</ele>
        <time>2017-10-17T13:50:01Z</time>
      </trkpt>
      <trkpt lat="46.00946" lon="6.81763">
        <ele>1788.67</ele>
        <time>2017-10-17T13:50:02Z</time>
      </trkpt>
      <trkpt lat="46.00947" lon="6.81762">
        <ele>1788.19</ele>
        <time>2017-10-17T13:50:03Z</time>
      </trkpt>
      <trkpt lat="46.00948" lon="6.81758">
        <ele>1786.27</ele>
        <time>2017-10-17T13:50:06Z</time>
      </trkpt>
      <trkpt lat="46.0095" lon="6.81754">
        <ele>1782.9</ele>
        <time>2017-10-17T13:50:13Z</time>
      </trkpt>
      <trkpt lat="46.00953" lon="6.81744">
        <ele>1780.02</ele>
        <time>2017-10-17T13:50:20Z</time>
      </trkpt>
      <trkpt lat="46.00957" lon="6.81739">
        <ele>1777.61</ele>
        <time>2017-10-17T13:50:24Z</time>
      </trkpt>
      <trkpt lat="46.00958" lon="6.81739">
        <ele>1777.13</ele>
        <time>2017-10-17T13:50:25Z</time>
      </trkpt>
      <trkpt lat="46.00958" lon="6.81738">
        <ele>1776.17</ele>
        <time>2017-10-17T13:50:26Z</time>
      </trkpt>
      <trkpt lat="46.00959" lon="6.81737">
        <ele>1775.69</ele>
        <time>2017-10-17T13:50:27Z</time>
      </trkpt>
      <trkpt lat="46.00959" lon="6.81735">
        <ele>1775.69</ele>
        <time>2017-10-17T13:50:28Z</time>
      </trkpt>
      <trkpt lat="46.0096" lon="6.81733">
        <ele>1774.73</ele>
        <time>2017-10-17T13:50:29Z</time>
      </trkpt>
      <trkpt lat="46.0096" lon="6.81732">
        <ele>1774.25</ele>
        <time>2017-10-17T13:50:30Z</time>
      </trkpt>
      <trkpt lat="46.00961" lon="6.81729">
        <ele>1772.81</ele>
        <time>2017-10-17T13:50:32Z</time>
      </trkpt>
      <trkpt lat="46.00961" lon="6.81728">
        <ele>1772.33</ele>
        <time>2017-10-17T13:50:33Z</time>
      </trkpt>
      <trkpt lat="46.00965" lon="6.81718">
        <ele>1768.96</ele>
        <time>2017-10-17T13:50:40Z</time>
      </trkpt>
      <trkpt lat="46.00962" lon="6.81716">
        <ele>1768.48</ele>
        <time>2017-10-17T13:50:49Z</time>
      </trkpt>
      <trkpt lat="46.00962" lon="6.81714">
        <ele>1768</ele>
        <time>2017-10-17T13:50:50Z</time>
      </trkpt>
      <trkpt lat="46.00962" lon="6.81713">
        <ele>1767.52</ele>
        <time>2017-10-17T13:50:51Z</time>
      </trkpt>
      <trkpt lat="46.00962" lon="6.81712">
        <ele>1767.04</ele>
        <time>2017-10-17T13:50:52Z</time>
      </trkpt>
      <trkpt lat="46.00963" lon="6.81711">
        <ele>1767.04</ele>
        <time>2017-10-17T13:50:53Z</time>
      </trkpt>
      <trkpt lat="46.00964" lon="6.81709">
        <ele>1765.6</ele>
        <time>2017-10-17T13:50:55Z</time>
      </trkpt>
      <trkpt lat="46.00964" lon="6.81708">
        <ele>1765.12</ele>
        <time>2017-10-17T13:50:56Z</time>
      </trkpt>
      <trkpt lat="46.00964" lon="6.81706">
        <ele>1764.64</ele>
        <time>2017-10-17T13:50:58Z</time>
      </trkpt>
      <trkpt lat="46.00964" lon="6.81705">
        <ele>1764.16</ele>
        <time>2017-10-17T13:50:59Z</time>
      </trkpt>
      <trkpt lat="46.00963" lon="6.81703">
        <ele>1763.68</ele>
        <time>2017-10-17T13:51:00Z</time>
      </trkpt>
      <trkpt lat="46.00963" lon="6.81701">
        <ele>1763.2</ele>
        <time>2017-10-17T13:51:01Z</time>
      </trkpt>
      <trkpt lat="46.00962" lon="6.817">
        <ele>1762.23</ele>
        <time>2017-10-17T13:51:02Z</time>
      </trkpt>
      <trkpt lat="46.00961" lon="6.81699">
        <ele>1761.75</ele>
        <time>2017-10-17T13:51:03Z</time>
      </trkpt>
      <trkpt lat="46.0096" lon="6.81697">
        <ele>1761.27</ele>
        <time>2017-10-17T13:51:04Z</time>
      </trkpt>
      <trkpt lat="46.00961" lon="6.81695">
        <ele>1760.79</ele>
        <time>2017-10-17T13:51:05Z</time>
      </trkpt>
      <trkpt lat="46.00962" lon="6.81694">
        <ele>1760.31</ele>
        <time>2017-10-17T13:51:06Z</time>
      </trkpt>
      <trkpt lat="46.00963" lon="6.81693">
        <ele>1759.83</ele>
        <time>2017-10-17T13:51:07Z</time>
      </trkpt>
      <trkpt lat="46.00964" lon="6.81692">
        <ele>1759.35</ele>
        <time>2017-10-17T13:51:08Z</time>
      </trkpt>
      <trkpt lat="46.00965" lon="6.81691">
        <ele>1758.87</ele>
        <time>2017-10-17T13:51:09Z</time>
      </trkpt>
      <trkpt lat="46.00965" lon="6.8169">
        <ele>1758.39</ele>
        <time>2017-10-17T13:51:10Z</time>
      </trkpt>
      <trkpt lat="46.00966" lon="6.81689">
        <ele>1757.43</ele>
        <time>2017-10-17T13:51:11Z</time>
      </trkpt>
      <trkpt lat="46.00967" lon="6.81688">
        <ele>1756.95</ele>
        <time>2017-10-17T13:51:12Z</time>
      </trkpt>
      <trkpt lat="46.00968" lon="6.81686">
        <ele>1755.5</ele>
        <time>2017-10-17T13:51:14Z</time>
      </trkpt>
      <trkpt lat="46.00967" lon="6.81685">
        <ele>1755.02</ele>
        <time>2017-10-17T13:51:15Z</time>
      </trkpt>
      <trkpt lat="46.00966" lon="6.81684">
        <ele>1754.54</ele>
        <time>2017-10-17T13:51:16Z</time>
      </trkpt>
      <trkpt lat="46.00966" lon="6.81681">
        <ele>1753.58</ele>
        <time>2017-10-17T13:51:18Z</time>
      </trkpt>
      <trkpt lat="46.00966" lon="6.81679">
        <ele>1753.1</ele>
        <time>2017-10-17T13:51:19Z</time>
      </trkpt>
      <trkpt lat="46.00967" lon="6.81678">
        <ele>1752.62</ele>
        <time>2017-10-17T13:51:20Z</time>
      </trkpt>
      <trkpt lat="46.00968" lon="6.81676">
        <ele>1752.62</ele>
        <time>2017-10-17T13:51:21Z</time>
      </trkpt>
      <trkpt lat="46.00969" lon="6.81675">
        <ele>1752.14</ele>
        <time>2017-10-17T13:51:22Z</time>
      </trkpt>
      <trkpt lat="46.00974" lon="6.81669">
        <ele>1749.26</ele>
        <time>2017-10-17T13:51:27Z</time>
      </trkpt>
      <trkpt lat="46.00974" lon="6.81667">
        <ele>1748.78</ele>
        <time>2017-10-17T13:51:28Z</time>
      </trkpt>
      <trkpt lat="46.00976" lon="6.81666">
        <ele>1747.81</ele>
        <time>2017-10-17T13:51:29Z</time>
      </trkpt>
      <trkpt lat="46.00977" lon="6.81664">
        <ele>1747.33</ele>
        <time>2017-10-17T13:51:30Z</time>
      </trkpt>
      <trkpt lat="46.00978" lon="6.81662">
        <ele>1746.37</ele>
        <time>2017-10-17T13:51:31Z</time>
      </trkpt>
      <trkpt lat="46.00979" lon="6.81659">
        <ele>1745.89</ele>
        <time>2017-10-17T13:51:32Z</time>
      </trkpt>
      <trkpt lat="46.0098" lon="6.81657">
        <ele>1745.41</ele>
        <time>2017-10-17T13:51:33Z</time>
      </trkpt>
      <trkpt lat="46.00981" lon="6.81655">
        <ele>1744.45</ele>
        <time>2017-10-17T13:51:34Z</time>
      </trkpt>
      <trkpt lat="46.00982" lon="6.81655">
        <ele>1743.97</ele>
        <time>2017-10-17T13:51:35Z</time>
      </trkpt>
      <trkpt lat="46.00985" lon="6.81656">
        <ele>1743.49</ele>
        <time>2017-10-17T13:51:37Z</time>
      </trkpt>
      <trkpt lat="46.00986" lon="6.81656">
        <ele>1743.01</ele>
        <time>2017-10-17T13:51:38Z</time>
      </trkpt>
      <trkpt lat="46.00988" lon="6.81654">
        <ele>1742.53</ele>
        <time>2017-10-17T13:51:39Z</time>
      </trkpt>
      <trkpt lat="46.00989" lon="6.81653">
        <ele>1742.05</ele>
        <time>2017-10-17T13:51:40Z</time>
      </trkpt>
      <trkpt lat="46.0099" lon="6.81651">
        <ele>1741.08</ele>
        <time>2017-10-17T13:51:41Z</time>
      </trkpt>
      <trkpt lat="46.0099" lon="6.81649">
        <ele>1740.6</ele>
        <time>2017-10-17T13:51:42Z</time>
      </trkpt>
      <trkpt lat="46.00991" lon="6.81647">
        <ele>1739.64</ele>
        <time>2017-10-17T13:51:43Z</time>
      </trkpt>
      <trkpt lat="46.00992" lon="6.81646">
        <ele>1739.16</ele>
        <time>2017-10-17T13:51:44Z</time>
      </trkpt>
      <trkpt lat="46.00993" lon="6.81645">
        <ele>1739.16</ele>
        <time>2017-10-17T13:51:45Z</time>
      </trkpt>
      <trkpt lat="46.00994" lon="6.81643">
        <ele>1738.2</ele>
        <time>2017-10-17T13:51:46Z</time>
      </trkpt>
      <trkpt lat="46.00995" lon="6.81642">
        <ele>1737.24</ele>
        <time>2017-10-17T13:51:47Z</time>
      </trkpt>
      <trkpt lat="46.00997" lon="6.81641">
        <ele>1736.28</ele>
        <time>2017-10-17T13:51:48Z</time>
      </trkpt>
      <trkpt lat="46.01" lon="6.81637">
        <ele>1734.36</ele>
        <time>2017-10-17T13:51:51Z</time>
      </trkpt>
      <trkpt lat="46.01" lon="6.81635">
        <ele>1733.88</ele>
        <time>2017-10-17T13:51:52Z</time>
      </trkpt>
      <trkpt lat="46.01001" lon="6.81633">
        <ele>1733.39</ele>
        <time>2017-10-17T13:51:53Z</time>
      </trkpt>
      <trkpt lat="46.01002" lon="6.81631">
        <ele>1733.39</ele>
        <time>2017-10-17T13:51:54Z</time>
      </trkpt>
      <trkpt lat="46.01003" lon="6.81629">
        <ele>1732.91</ele>
        <time>2017-10-17T13:51:55Z</time>
      </trkpt>
      <trkpt lat="46.01004" lon="6.81626">
        <ele>1732.43</ele>
        <time>2017-10-17T13:51:56Z</time>
      </trkpt>
      <trkpt lat="46.01004" lon="6.81624">
        <ele>1730.99</ele>
        <time>2017-10-17T13:51:57Z</time>
      </trkpt>
      <trkpt lat="46.01004" lon="6.81623">
        <ele>1730.51</ele>
        <time>2017-10-17T13:51:58Z</time>
      </trkpt>
      <trkpt lat="46.01005" lon="6.81621">
        <ele>1730.03</ele>
        <time>2017-10-17T13:51:59Z</time>
      </trkpt>
      <trkpt lat="46.01006" lon="6.8162">
        <ele>1730.03</ele>
        <time>2017-10-17T13:52:00Z</time>
      </trkpt>
      <trkpt lat="46.01007" lon="6.81619">
        <ele>1729.55</ele>
        <time>2017-10-17T13:52:01Z</time>
      </trkpt>
      <trkpt lat="46.0101" lon="6.81617">
        <ele>1728.11</ele>
        <time>2017-10-17T13:52:03Z</time>
      </trkpt>
      <trkpt lat="46.01011" lon="6.81616">
        <ele>1727.63</ele>
        <time>2017-10-17T13:52:04Z</time>
      </trkpt>
      <trkpt lat="46.01016" lon="6.81609">
        <ele>1725.22</ele>
        <time>2017-10-17T13:52:08Z</time>
      </trkpt>
      <trkpt lat="46.01017" lon="6.81607">
        <ele>1724.26</ele>
        <time>2017-10-17T13:52:09Z</time>
      </trkpt>
      <trkpt lat="46.01017" lon="6.81605">
        <ele>1723.78</ele>
        <time>2017-10-17T13:52:10Z</time>
      </trkpt>
      <trkpt lat="46.01019" lon="6.81598">
        <ele>1721.86</ele>
        <time>2017-10-17T13:52:13Z</time>
      </trkpt>
      <trkpt lat="46.0102" lon="6.81596">
        <ele>1721.38</ele>
        <time>2017-10-17T13:52:14Z</time>
      </trkpt>
      <trkpt lat="46.01022" lon="6.81595">
        <ele>1720.9</ele>
        <time>2017-10-17T13:52:15Z</time>
      </trkpt>
      <trkpt lat="46.01023" lon="6.81593">
        <ele>1720.42</ele>
        <time>2017-10-17T13:52:16Z</time>
      </trkpt>
      <trkpt lat="46.01025" lon="6.81592">
        <ele>1719.46</ele>
        <time>2017-10-17T13:52:17Z</time>
      </trkpt>
      <trkpt lat="46.01032" lon="6.81589">
        <ele>1717.05</ele>
        <time>2017-10-17T13:52:22Z</time>
      </trkpt>
      <trkpt lat="46.01032" lon="6.81591">
        <ele>1716.57</ele>
        <time>2017-10-17T13:52:23Z</time>
      </trkpt>
      <trkpt lat="46.01032" lon="6.81592">
        <ele>1716.57</ele>
        <time>2017-10-17T13:52:24Z</time>
      </trkpt>
      <trkpt lat="46.01035" lon="6.81599">
        <ele>1713.21</ele>
        <time>2017-10-17T13:52:34Z</time>
      </trkpt>
      <trkpt lat="46.01036" lon="6.81599">
        <ele>1711.76</ele>
        <time>2017-10-17T13:52:35Z</time>
      </trkpt>
      <trkpt lat="46.01041" lon="6.81594">
        <ele>1708.4</ele>
        <time>2017-10-17T13:52:39Z</time>
      </trkpt>
      <trkpt lat="46.01044" lon="6.81593">
        <ele>1707.44</ele>
        <time>2017-10-17T13:52:41Z</time>
      </trkpt>
      <trkpt lat="46.01044" lon="6.81594">
        <ele>1706.96</ele>
        <time>2017-10-17T13:52:42Z</time>
      </trkpt>
      <trkpt lat="46.01044" lon="6.81596">
        <ele>1706.48</ele>
        <time>2017-10-17T13:52:43Z</time>
      </trkpt>
      <trkpt lat="46.01045" lon="6.81597">
        <ele>1706</ele>
        <time>2017-10-17T13:52:44Z</time>
      </trkpt>
      <trkpt lat="46.01046" lon="6.81597">
        <ele>1705.04</ele>
        <time>2017-10-17T13:52:45Z</time>
      </trkpt>
      <trkpt lat="46.01047" lon="6.81596">
        <ele>1704.55</ele>
        <time>2017-10-17T13:52:46Z</time>
      </trkpt>
      <trkpt lat="46.01047" lon="6.81595">
        <ele>1703.59</ele>
        <time>2017-10-17T13:52:47Z</time>
      </trkpt>
      <trkpt lat="46.01048" lon="6.81593">
        <ele>1703.11</ele>
        <time>2017-10-17T13:52:48Z</time>
      </trkpt>
      <trkpt lat="46.0105" lon="6.81593">
        <ele>1702.63</ele>
        <time>2017-10-17T13:52:49Z</time>
      </trkpt>
      <trkpt lat="46.0105" lon="6.81591">
        <ele>1702.15</ele>
        <time>2017-10-17T13:52:50Z</time>
      </trkpt>
      <trkpt lat="46.01051" lon="6.81589">
        <ele>1701.19</ele>
        <time>2017-10-17T13:52:51Z</time>
      </trkpt>
      <trkpt lat="46.01052" lon="6.81587">
        <ele>1700.23</ele>
        <time>2017-10-17T13:52:52Z</time>
      </trkpt>
      <trkpt lat="46.01053" lon="6.81584">
        <ele>1699.75</ele>
        <time>2017-10-17T13:52:53Z</time>
      </trkpt>
      <trkpt lat="46.01054" lon="6.81582">
        <ele>1698.79</ele>
        <time>2017-10-17T13:52:54Z</time>
      </trkpt>
      <trkpt lat="46.01055" lon="6.81568">
        <ele>1695.42</ele>
        <time>2017-10-17T13:53:01Z</time>
      </trkpt>
      <trkpt lat="46.01052" lon="6.81559">
        <ele>1692.54</ele>
        <time>2017-10-17T13:53:05Z</time>
      </trkpt>
      <trkpt lat="46.01052" lon="6.81557">
        <ele>1692.06</ele>
        <time>2017-10-17T13:53:06Z</time>
      </trkpt>
      <trkpt lat="46.01052" lon="6.81552">
        <ele>1690.62</ele>
        <time>2017-10-17T13:53:08Z</time>
      </trkpt>
      <trkpt lat="46.01051" lon="6.81549">
        <ele>1689.65</ele>
        <time>2017-10-17T13:53:09Z</time>
      </trkpt>
      <trkpt lat="46.01051" lon="6.81547">
        <ele>1689.17</ele>
        <time>2017-10-17T13:53:10Z</time>
      </trkpt>
      <trkpt lat="46.01051" lon="6.81545">
        <ele>1688.69</ele>
        <time>2017-10-17T13:53:11Z</time>
      </trkpt>
      <trkpt lat="46.01052" lon="6.81544">
        <ele>1688.21</ele>
        <time>2017-10-17T13:53:12Z</time>
      </trkpt>
      <trkpt lat="46.01052" lon="6.81542">
        <ele>1687.73</ele>
        <time>2017-10-17T13:53:13Z</time>
      </trkpt>
      <trkpt lat="46.01053" lon="6.81539">
        <ele>1686.77</ele>
        <time>2017-10-17T13:53:14Z</time>
      </trkpt>
      <trkpt lat="46.01054" lon="6.81536">
        <ele>1686.29</ele>
        <time>2017-10-17T13:53:15Z</time>
      </trkpt>
      <trkpt lat="46.01058" lon="6.81508">
        <ele>1684.37</ele>
        <time>2017-10-17T13:53:26Z</time>
      </trkpt>
      <trkpt lat="46.01059" lon="6.81505">
        <ele>1683.41</ele>
        <time>2017-10-17T13:53:27Z</time>
      </trkpt>
      <trkpt lat="46.0106" lon="6.81504">
        <ele>1681.48</ele>
        <time>2017-10-17T13:53:28Z</time>
      </trkpt>
      <trkpt lat="46.01062" lon="6.81504">
        <ele>1679.56</ele>
        <time>2017-10-17T13:53:29Z</time>
      </trkpt>
      <trkpt lat="46.01062" lon="6.81504">
        <ele>1678.6</ele>
        <time>2017-10-17T13:53:33Z</time>
      </trkpt>
      <trkpt lat="46.01058" lon="6.81499">
        <ele>1676.2</ele>
        <time>2017-10-17T13:53:42Z</time>
      </trkpt>
      <trkpt lat="46.01058" lon="6.81498">
        <ele>1675.72</ele>
        <time>2017-10-17T13:53:43Z</time>
      </trkpt>
      <trkpt lat="46.01057" lon="6.81497">
        <ele>1674.75</ele>
        <time>2017-10-17T13:53:44Z</time>
      </trkpt>
      <trkpt lat="46.0106" lon="6.81494">
        <ele>1673.31</ele>
        <time>2017-10-17T13:53:47Z</time>
      </trkpt>
      <trkpt lat="46.01061" lon="6.81493">
        <ele>1672.83</ele>
        <time>2017-10-17T13:53:48Z</time>
      </trkpt>
      <trkpt lat="46.01063" lon="6.81492">
        <ele>1671.87</ele>
        <time>2017-10-17T13:53:49Z</time>
      </trkpt>
      <trkpt lat="46.01064" lon="6.8149">
        <ele>1670.43</ele>
        <time>2017-10-17T13:53:52Z</time>
      </trkpt>
      <trkpt lat="46.01064" lon="6.81489">
        <ele>1669.95</ele>
        <time>2017-10-17T13:53:53Z</time>
      </trkpt>
      <trkpt lat="46.01062" lon="6.81485">
        <ele>1668.02</ele>
        <time>2017-10-17T13:53:56Z</time>
      </trkpt>
      <trkpt lat="46.01063" lon="6.81483">
        <ele>1667.54</ele>
        <time>2017-10-17T13:53:57Z</time>
      </trkpt>
      <trkpt lat="46.01064" lon="6.81481">
        <ele>1666.58</ele>
        <time>2017-10-17T13:53:58Z</time>
      </trkpt>
      <trkpt lat="46.01065" lon="6.8148">
        <ele>1665.62</ele>
        <time>2017-10-17T13:53:59Z</time>
      </trkpt>
      <trkpt lat="46.01067" lon="6.81479">
        <ele>1664.66</ele>
        <time>2017-10-17T13:54:00Z</time>
      </trkpt>
      <trkpt lat="46.01068" lon="6.81478">
        <ele>1664.18</ele>
        <time>2017-10-17T13:54:01Z</time>
      </trkpt>
      <trkpt lat="46.01069" lon="6.81478">
        <ele>1663.7</ele>
        <time>2017-10-17T13:54:02Z</time>
      </trkpt>
      <trkpt lat="46.0107" lon="6.81477">
        <ele>1663.22</ele>
        <time>2017-10-17T13:54:03Z</time>
      </trkpt>
      <trkpt lat="46.01076" lon="6.81476">
        <ele>1660.81</ele>
        <time>2017-10-17T13:54:07Z</time>
      </trkpt>
      <trkpt lat="46.01079" lon="6.81474">
        <ele>1659.85</ele>
        <time>2017-10-17T13:54:10Z</time>
      </trkpt>
      <trkpt lat="46.01079" lon="6.81472">
        <ele>1658.89</ele>
        <time>2017-10-17T13:54:12Z</time>
      </trkpt>
      <trkpt lat="46.01077" lon="6.81471">
        <ele>1657.93</ele>
        <time>2017-10-17T13:54:13Z</time>
      </trkpt>
      <trkpt lat="46.01076" lon="6.81469">
        <ele>1656.49</ele>
        <time>2017-10-17T13:54:14Z</time>
      </trkpt>
      <trkpt lat="46.01069" lon="6.81464">
        <ele>1653.12</ele>
        <time>2017-10-17T13:54:18Z</time>
      </trkpt>
      <trkpt lat="46.01061" lon="6.81454">
        <ele>1650.24</ele>
        <time>2017-10-17T13:54:23Z</time>
      </trkpt>
      <trkpt lat="46.01058" lon="6.81452">
        <ele>1650.24</ele>
        <time>2017-10-17T13:54:25Z</time>
      </trkpt>
      <trkpt lat="46.01057" lon="6.81453">
        <ele>1650.24</ele>
        <time>2017-10-17T13:54:26Z</time>
      </trkpt>
      <trkpt lat="46.01053" lon="6.81461">
        <ele>1646.88</ele>
        <time>2017-10-17T13:54:36Z</time>
      </trkpt>
      <trkpt lat="46.01045" lon="6.81469">
        <ele>1644.47</ele>
        <time>2017-10-17T13:54:42Z</time>
      </trkpt>
      <trkpt lat="46.01044" lon="6.8147">
        <ele>1643.99</ele>
        <time>2017-10-17T13:54:43Z</time>
      </trkpt>
      <trkpt lat="46.01043" lon="6.8147">
        <ele>1643.99</ele>
        <time>2017-10-17T13:54:44Z</time>
      </trkpt>
      <trkpt lat="46.01041" lon="6.81469">
        <ele>1643.51</ele>
        <time>2017-10-17T13:54:45Z</time>
      </trkpt>
      <trkpt lat="46.0104" lon="6.81468">
        <ele>1643.03</ele>
        <time>2017-10-17T13:54:46Z</time>
      </trkpt>
      <trkpt lat="46.01039" lon="6.81468">
        <ele>1642.55</ele>
        <time>2017-10-17T13:54:47Z</time>
      </trkpt>
      <trkpt lat="46.01033" lon="6.81463">
        <ele>1639.67</ele>
        <time>2017-10-17T13:54:53Z</time>
      </trkpt>
      <trkpt lat="46.01023" lon="6.81457">
        <ele>1637.26</ele>
        <time>2017-10-17T13:54:58Z</time>
      </trkpt>
      <trkpt lat="46.01023" lon="6.81455">
        <ele>1636.78</ele>
        <time>2017-10-17T13:54:59Z</time>
      </trkpt>
      <trkpt lat="46.01023" lon="6.81455">
        <ele>1635.82</ele>
        <time>2017-10-17T13:55:01Z</time>
      </trkpt>
      <trkpt lat="46.01022" lon="6.81454">
        <ele>1635.34</ele>
        <time>2017-10-17T13:55:02Z</time>
      </trkpt>
      <trkpt lat="46.01022" lon="6.81452">
        <ele>1634.86</ele>
        <time>2017-10-17T13:55:03Z</time>
      </trkpt>
      <trkpt lat="46.01023" lon="6.81451">
        <ele>1634.38</ele>
        <time>2017-10-17T13:55:04Z</time>
      </trkpt>
      <trkpt lat="46.01024" lon="6.8145">
        <ele>1634.38</ele>
        <time>2017-10-17T13:55:05Z</time>
      </trkpt>
      <trkpt lat="46.01025" lon="6.81449">
        <ele>1634.38</ele>
        <time>2017-10-17T13:55:06Z</time>
      </trkpt>
      <trkpt lat="46.0103" lon="6.81444">
        <ele>1630.53</ele>
        <time>2017-10-17T13:55:10Z</time>
      </trkpt>
      <trkpt lat="46.01033" lon="6.81441">
        <ele>1628.13</ele>
        <time>2017-10-17T13:55:13Z</time>
      </trkpt>
      <trkpt lat="46.01034" lon="6.81439">
        <ele>1627.17</ele>
        <time>2017-10-17T13:55:14Z</time>
      </trkpt>
      <trkpt lat="46.01035" lon="6.81437">
        <ele>1627.17</ele>
        <time>2017-10-17T13:55:15Z</time>
      </trkpt>
      <trkpt lat="46.01036" lon="6.81434">
        <ele>1626.69</ele>
        <time>2017-10-17T13:55:16Z</time>
      </trkpt>
      <trkpt lat="46.01037" lon="6.81433">
        <ele>1626.21</ele>
        <time>2017-10-17T13:55:17Z</time>
      </trkpt>
      <trkpt lat="46.01037" lon="6.81431">
        <ele>1625.73</ele>
        <time>2017-10-17T13:55:18Z</time>
      </trkpt>
      <trkpt lat="46.01038" lon="6.8143">
        <ele>1625.25</ele>
        <time>2017-10-17T13:55:19Z</time>
      </trkpt>
      <trkpt lat="46.01039" lon="6.81429">
        <ele>1625.25</ele>
        <time>2017-10-17T13:55:20Z</time>
      </trkpt>
      <trkpt lat="46.01047" lon="6.81421">
        <ele>1622.36</ele>
        <time>2017-10-17T13:55:25Z</time>
      </trkpt>
      <trkpt lat="46.01053" lon="6.81418">
        <ele>1620.44</ele>
        <time>2017-10-17T13:55:28Z</time>
      </trkpt>
      <trkpt lat="46.0106" lon="6.81407">
        <ele>1617.56</ele>
        <time>2017-10-17T13:55:35Z</time>
      </trkpt>
      <trkpt lat="46.01069" lon="6.81396">
        <ele>1614.19</ele>
        <time>2017-10-17T13:55:41Z</time>
      </trkpt>
      <trkpt lat="46.0107" lon="6.81396">
        <ele>1614.19</ele>
        <time>2017-10-17T13:55:42Z</time>
      </trkpt>
      <trkpt lat="46.01071" lon="6.81396">
        <ele>1613.71</ele>
        <time>2017-10-17T13:55:43Z</time>
      </trkpt>
      <trkpt lat="46.01077" lon="6.81382">
        <ele>1610.35</ele>
        <time>2017-10-17T13:55:49Z</time>
      </trkpt>
      <trkpt lat="46.01078" lon="6.81378">
        <ele>1609.86</ele>
        <time>2017-10-17T13:55:51Z</time>
      </trkpt>
      <trkpt lat="46.01078" lon="6.81375">
        <ele>1608.9</ele>
        <time>2017-10-17T13:55:53Z</time>
      </trkpt>
      <trkpt lat="46.01078" lon="6.81373">
        <ele>1608.42</ele>
        <time>2017-10-17T13:55:54Z</time>
      </trkpt>
      <trkpt lat="46.01078" lon="6.81371">
        <ele>1607.94</ele>
        <time>2017-10-17T13:55:55Z</time>
      </trkpt>
      <trkpt lat="46.01077" lon="6.81369">
        <ele>1606.98</ele>
        <time>2017-10-17T13:55:56Z</time>
      </trkpt>
      <trkpt lat="46.01077" lon="6.81367">
        <ele>1606.5</ele>
        <time>2017-10-17T13:55:57Z</time>
      </trkpt>
      <trkpt lat="46.01077" lon="6.81365">
        <ele>1606.02</ele>
        <time>2017-10-17T13:55:58Z</time>
      </trkpt>
      <trkpt lat="46.01077" lon="6.81364">
        <ele>1605.54</ele>
        <time>2017-10-17T13:55:59Z</time>
      </trkpt>
      <trkpt lat="46.01076" lon="6.81363">
        <ele>1604.58</ele>
        <time>2017-10-17T13:56:00Z</time>
      </trkpt>
      <trkpt lat="46.01076" lon="6.81361">
        <ele>1604.58</ele>
        <time>2017-10-17T13:56:01Z</time>
      </trkpt>
      <trkpt lat="46.01076" lon="6.81359">
        <ele>1604.1</ele>
        <time>2017-10-17T13:56:02Z</time>
      </trkpt>
      <trkpt lat="46.01077" lon="6.81359">
        <ele>1603.62</ele>
        <time>2017-10-17T13:56:03Z</time>
      </trkpt>
      <trkpt lat="46.01078" lon="6.81358">
        <ele>1603.62</ele>
        <time>2017-10-17T13:56:04Z</time>
      </trkpt>
      <trkpt lat="46.01077" lon="6.81356">
        <ele>1602.17</ele>
        <time>2017-10-17T13:56:06Z</time>
      </trkpt>
      <trkpt lat="46.01078" lon="6.81354">
        <ele>1601.69</ele>
        <time>2017-10-17T13:56:07Z</time>
      </trkpt>
      <trkpt lat="46.01079" lon="6.81353">
        <ele>1601.21</ele>
        <time>2017-10-17T13:56:08Z</time>
      </trkpt>
      <trkpt lat="46.0108" lon="6.81353">
        <ele>1600.25</ele>
        <time>2017-10-17T13:56:09Z</time>
      </trkpt>
      <trkpt lat="46.01081" lon="6.81352">
        <ele>1599.77</ele>
        <time>2017-10-17T13:56:10Z</time>
      </trkpt>
      <trkpt lat="46.01081" lon="6.81352">
        <ele>1599.77</ele>
        <time>2017-10-17T13:56:11Z</time>
      </trkpt>
      <trkpt lat="46.01082" lon="6.81351">
        <ele>1599.29</ele>
        <time>2017-10-17T13:56:12Z</time>
      </trkpt>
      <trkpt lat="46.01084" lon="6.8135">
        <ele>1598.81</ele>
        <time>2017-10-17T13:56:13Z</time>
      </trkpt>
      <trkpt lat="46.01084" lon="6.8135">
        <ele>1597.85</ele>
        <time>2017-10-17T13:56:14Z</time>
      </trkpt>
      <trkpt lat="46.01085" lon="6.81349">
        <ele>1597.37</ele>
        <time>2017-10-17T13:56:15Z</time>
      </trkpt>
      <trkpt lat="46.01085" lon="6.81347">
        <ele>1596.41</ele>
        <time>2017-10-17T13:56:16Z</time>
      </trkpt>
      <trkpt lat="46.01085" lon="6.81345">
        <ele>1595.93</ele>
        <time>2017-10-17T13:56:17Z</time>
      </trkpt>
      <trkpt lat="46.01084" lon="6.81344">
        <ele>1594.96</ele>
        <time>2017-10-17T13:56:18Z</time>
      </trkpt>
      <trkpt lat="46.01084" lon="6.81343">
        <ele>1594</ele>
        <time>2017-10-17T13:56:19Z</time>
      </trkpt>
      <trkpt lat="46.01085" lon="6.81341">
        <ele>1593.52</ele>
        <time>2017-10-17T13:56:21Z</time>
      </trkpt>
      <trkpt lat="46.01086" lon="6.81339">
        <ele>1592.08</ele>
        <time>2017-10-17T13:56:24Z</time>
      </trkpt>
      <trkpt lat="46.01085" lon="6.81335">
        <ele>1590.64</ele>
        <time>2017-10-17T13:56:27Z</time>
      </trkpt>
      <trkpt lat="46.01084" lon="6.81333">
        <ele>1589.68</ele>
        <time>2017-10-17T13:56:28Z</time>
      </trkpt>
      <trkpt lat="46.01084" lon="6.81332">
        <ele>1589.2</ele>
        <time>2017-10-17T13:56:29Z</time>
      </trkpt>
      <trkpt lat="46.01085" lon="6.81332">
        <ele>1588.72</ele>
        <time>2017-10-17T13:56:30Z</time>
      </trkpt>
      <trkpt lat="46.0109" lon="6.8133">
        <ele>1586.31</ele>
        <time>2017-10-17T13:56:36Z</time>
      </trkpt>
      <trkpt lat="46.01091" lon="6.8133">
        <ele>1585.83</ele>
        <time>2017-10-17T13:56:37Z</time>
      </trkpt>
      <trkpt lat="46.01092" lon="6.81329">
        <ele>1584.39</ele>
        <time>2017-10-17T13:56:38Z</time>
      </trkpt>
      <trkpt lat="46.01093" lon="6.81329">
        <ele>1583.91</ele>
        <time>2017-10-17T13:56:39Z</time>
      </trkpt>
      <trkpt lat="46.01094" lon="6.81329">
        <ele>1583.43</ele>
        <time>2017-10-17T13:56:40Z</time>
      </trkpt>
      <trkpt lat="46.01097" lon="6.81328">
        <ele>1582.95</ele>
        <time>2017-10-17T13:56:41Z</time>
      </trkpt>
      <trkpt lat="46.01098" lon="6.81327">
        <ele>1582.47</ele>
        <time>2017-10-17T13:56:42Z</time>
      </trkpt>
      <trkpt lat="46.01099" lon="6.81325">
        <ele>1581.51</ele>
        <time>2017-10-17T13:56:43Z</time>
      </trkpt>
      <trkpt lat="46.011" lon="6.81323">
        <ele>1580.54</ele>
        <time>2017-10-17T13:56:44Z</time>
      </trkpt>
      <trkpt lat="46.01103" lon="6.8132">
        <ele>1579.1</ele>
        <time>2017-10-17T13:56:46Z</time>
      </trkpt>
      <trkpt lat="46.01106" lon="6.81318">
        <ele>1578.14</ele>
        <time>2017-10-17T13:56:48Z</time>
      </trkpt>
      <trkpt lat="46.01107" lon="6.81316">
        <ele>1577.66</ele>
        <time>2017-10-17T13:56:49Z</time>
      </trkpt>
      <trkpt lat="46.01108" lon="6.81315">
        <ele>1577.18</ele>
        <time>2017-10-17T13:56:50Z</time>
      </trkpt>
      <trkpt lat="46.01109" lon="6.81314">
        <ele>1576.7</ele>
        <time>2017-10-17T13:56:51Z</time>
      </trkpt>
      <trkpt lat="46.01111" lon="6.81312">
        <ele>1576.22</ele>
        <time>2017-10-17T13:56:52Z</time>
      </trkpt>
      <trkpt lat="46.01112" lon="6.8131">
        <ele>1575.26</ele>
        <time>2017-10-17T13:56:53Z</time>
      </trkpt>
      <trkpt lat="46.01112" lon="6.81308">
        <ele>1574.78</ele>
        <time>2017-10-17T13:56:54Z</time>
      </trkpt>
      <trkpt lat="46.01113" lon="6.81305">
        <ele>1574.3</ele>
        <time>2017-10-17T13:56:55Z</time>
      </trkpt>
      <trkpt lat="46.01115" lon="6.81302">
        <ele>1573.82</ele>
        <time>2017-10-17T13:56:56Z</time>
      </trkpt>
      <trkpt lat="46.01117" lon="6.81298">
        <ele>1573.33</ele>
        <time>2017-10-17T13:56:57Z</time>
      </trkpt>
      <trkpt lat="46.01117" lon="6.81297">
        <ele>1573.33</ele>
        <time>2017-10-17T13:56:58Z</time>
      </trkpt>
      <trkpt lat="46.01117" lon="6.81296">
        <ele>1573.33</ele>
        <time>2017-10-17T13:56:59Z</time>
      </trkpt>
      <trkpt lat="46.01117" lon="6.81294">
        <ele>1573.82</ele>
        <time>2017-10-17T13:57:00Z</time>
      </trkpt>
      <trkpt lat="46.01117" lon="6.81292">
        <ele>1573.82</ele>
        <time>2017-10-17T13:57:01Z</time>
      </trkpt>
      <trkpt lat="46.01119" lon="6.81291">
        <ele>1573.82</ele>
        <time>2017-10-17T13:57:02Z</time>
      </trkpt>
      <trkpt lat="46.0112" lon="6.81288">
        <ele>1572.85</ele>
        <time>2017-10-17T13:57:07Z</time>
      </trkpt>
      <trkpt lat="46.01121" lon="6.81287">
        <ele>1572.37</ele>
        <time>2017-10-17T13:57:08Z</time>
      </trkpt>
      <trkpt lat="46.01129" lon="6.81278">
        <ele>1569.01</ele>
        <time>2017-10-17T13:57:15Z</time>
      </trkpt>
      <trkpt lat="46.01131" lon="6.81277">
        <ele>1568.53</ele>
        <time>2017-10-17T13:57:16Z</time>
      </trkpt>
      <trkpt lat="46.01132" lon="6.81276">
        <ele>1568.05</ele>
        <time>2017-10-17T13:57:17Z</time>
      </trkpt>
      <trkpt lat="46.01134" lon="6.81276">
        <ele>1567.57</ele>
        <time>2017-10-17T13:57:18Z</time>
      </trkpt>
      <trkpt lat="46.01134" lon="6.81277">
        <ele>1567.57</ele>
        <time>2017-10-17T13:57:19Z</time>
      </trkpt>
      <trkpt lat="46.01137" lon="6.81275">
        <ele>1565.64</ele>
        <time>2017-10-17T13:57:23Z</time>
      </trkpt>
      <trkpt lat="46.01137" lon="6.81273">
        <ele>1565.16</ele>
        <time>2017-10-17T13:57:24Z</time>
      </trkpt>
      <trkpt lat="46.01138" lon="6.81272">
        <ele>1564.68</ele>
        <time>2017-10-17T13:57:25Z</time>
      </trkpt>
      <trkpt lat="46.01138" lon="6.81269">
        <ele>1563.72</ele>
        <time>2017-10-17T13:57:26Z</time>
      </trkpt>
      <trkpt lat="46.01138" lon="6.81267">
        <ele>1563.24</ele>
        <time>2017-10-17T13:57:27Z</time>
      </trkpt>
      <trkpt lat="46.01139" lon="6.81263">
        <ele>1562.28</ele>
        <time>2017-10-17T13:57:29Z</time>
      </trkpt>
      <trkpt lat="46.01141" lon="6.81256">
        <ele>1560.36</ele>
        <time>2017-10-17T13:57:33Z</time>
      </trkpt>
      <trkpt lat="46.01142" lon="6.81255">
        <ele>1559.88</ele>
        <time>2017-10-17T13:57:34Z</time>
      </trkpt>
      <trkpt lat="46.01142" lon="6.81253">
        <ele>1559.4</ele>
        <time>2017-10-17T13:57:35Z</time>
      </trkpt>
      <trkpt lat="46.01143" lon="6.81251">
        <ele>1558.43</ele>
        <time>2017-10-17T13:57:36Z</time>
      </trkpt>
      <trkpt lat="46.01143" lon="6.81249">
        <ele>1558.43</ele>
        <time>2017-10-17T13:57:37Z</time>
      </trkpt>
      <trkpt lat="46.01144" lon="6.81248">
        <ele>1557.47</ele>
        <time>2017-10-17T13:57:38Z</time>
      </trkpt>
      <trkpt lat="46.01145" lon="6.81247">
        <ele>1556.51</ele>
        <time>2017-10-17T13:57:39Z</time>
      </trkpt>
      <trkpt lat="46.01145" lon="6.81245">
        <ele>1556.03</ele>
        <time>2017-10-17T13:57:40Z</time>
      </trkpt>
      <trkpt lat="46.01146" lon="6.81244">
        <ele>1556.03</ele>
        <time>2017-10-17T13:57:41Z</time>
      </trkpt>
      <trkpt lat="46.01148" lon="6.81242">
        <ele>1555.55</ele>
        <time>2017-10-17T13:57:42Z</time>
      </trkpt>
      <trkpt lat="46.01151" lon="6.81238">
        <ele>1552.19</ele>
        <time>2017-10-17T13:57:46Z</time>
      </trkpt>
      <trkpt lat="46.0115" lon="6.81237">
        <ele>1551.71</ele>
        <time>2017-10-17T13:57:47Z</time>
      </trkpt>
      <trkpt lat="46.01151" lon="6.81235">
        <ele>1551.22</ele>
        <time>2017-10-17T13:57:48Z</time>
      </trkpt>
      <trkpt lat="46.01152" lon="6.81234">
        <ele>1550.74</ele>
        <time>2017-10-17T13:57:49Z</time>
      </trkpt>
      <trkpt lat="46.01152" lon="6.81233">
        <ele>1549.78</ele>
        <time>2017-10-17T13:57:50Z</time>
      </trkpt>
      <trkpt lat="46.01154" lon="6.81232">
        <ele>1549.78</ele>
        <time>2017-10-17T13:57:51Z</time>
      </trkpt>
      <trkpt lat="46.01155" lon="6.81232">
        <ele>1548.82</ele>
        <time>2017-10-17T13:57:52Z</time>
      </trkpt>
      <trkpt lat="46.01156" lon="6.81231">
        <ele>1548.34</ele>
        <time>2017-10-17T13:57:54Z</time>
      </trkpt>
      <trkpt lat="46.01158" lon="6.81229">
        <ele>1547.38</ele>
        <time>2017-10-17T13:57:55Z</time>
      </trkpt>
      <trkpt lat="46.01158" lon="6.81228">
        <ele>1546.9</ele>
        <time>2017-10-17T13:57:56Z</time>
      </trkpt>
      <trkpt lat="46.01158" lon="6.81227">
        <ele>1546.42</ele>
        <time>2017-10-17T13:57:57Z</time>
      </trkpt>
      <trkpt lat="46.01159" lon="6.81225">
        <ele>1546.42</ele>
        <time>2017-10-17T13:57:58Z</time>
      </trkpt>
      <trkpt lat="46.0116" lon="6.81224">
        <ele>1545.46</ele>
        <time>2017-10-17T13:57:59Z</time>
      </trkpt>
      <trkpt lat="46.01161" lon="6.81223">
        <ele>1544.98</ele>
        <time>2017-10-17T13:58:00Z</time>
      </trkpt>
      <trkpt lat="46.01161" lon="6.81221">
        <ele>1544.5</ele>
        <time>2017-10-17T13:58:01Z</time>
      </trkpt>
      <trkpt lat="46.01162" lon="6.8122">
        <ele>1544.01</ele>
        <time>2017-10-17T13:58:02Z</time>
      </trkpt>
      <trkpt lat="46.01164" lon="6.81218">
        <ele>1543.05</ele>
        <time>2017-10-17T13:58:03Z</time>
      </trkpt>
      <trkpt lat="46.01165" lon="6.81217">
        <ele>1542.57</ele>
        <time>2017-10-17T13:58:04Z</time>
      </trkpt>
      <trkpt lat="46.01167" lon="6.81216">
        <ele>1541.61</ele>
        <time>2017-10-17T13:58:05Z</time>
      </trkpt>
      <trkpt lat="46.0117" lon="6.81211">
        <ele>1539.21</ele>
        <time>2017-10-17T13:58:08Z</time>
      </trkpt>
      <trkpt lat="46.0117" lon="6.81209">
        <ele>1539.21</ele>
        <time>2017-10-17T13:58:09Z</time>
      </trkpt>
      <trkpt lat="46.0117" lon="6.81207">
        <ele>1538.25</ele>
        <time>2017-10-17T13:58:10Z</time>
      </trkpt>
      <trkpt lat="46.01171" lon="6.81206">
        <ele>1537.77</ele>
        <time>2017-10-17T13:58:11Z</time>
      </trkpt>
      <trkpt lat="46.01171" lon="6.81203">
        <ele>1536.8</ele>
        <time>2017-10-17T13:58:12Z</time>
      </trkpt>
      <trkpt lat="46.01172" lon="6.81201">
        <ele>1536.32</ele>
        <time>2017-10-17T13:58:13Z</time>
      </trkpt>
      <trkpt lat="46.01173" lon="6.81195">
        <ele>1535.36</ele>
        <time>2017-10-17T13:58:15Z</time>
      </trkpt>
      <trkpt lat="46.01174" lon="6.81193">
        <ele>1534.4</ele>
        <time>2017-10-17T13:58:16Z</time>
      </trkpt>
      <trkpt lat="46.01176" lon="6.81191">
        <ele>1533.44</ele>
        <time>2017-10-17T13:58:17Z</time>
      </trkpt>
      <trkpt lat="46.01177" lon="6.8119">
        <ele>1532.96</ele>
        <time>2017-10-17T13:58:18Z</time>
      </trkpt>
      <trkpt lat="46.01177" lon="6.81188">
        <ele>1532</ele>
        <time>2017-10-17T13:58:19Z</time>
      </trkpt>
      <trkpt lat="46.01179" lon="6.81186">
        <ele>1531.52</ele>
        <time>2017-10-17T13:58:20Z</time>
      </trkpt>
      <trkpt lat="46.0118" lon="6.81185">
        <ele>1531.04</ele>
        <time>2017-10-17T13:58:21Z</time>
      </trkpt>
      <trkpt lat="46.01181" lon="6.81184">
        <ele>1530.56</ele>
        <time>2017-10-17T13:58:22Z</time>
      </trkpt>
      <trkpt lat="46.01181" lon="6.81183">
        <ele>1530.08</ele>
        <time>2017-10-17T13:58:23Z</time>
      </trkpt>
      <trkpt lat="46.0118" lon="6.81181">
        <ele>1529.11</ele>
        <time>2017-10-17T13:58:24Z</time>
      </trkpt>
      <trkpt lat="46.01179" lon="6.8118">
        <ele>1528.63</ele>
        <time>2017-10-17T13:58:25Z</time>
      </trkpt>
      <trkpt lat="46.01179" lon="6.81178">
        <ele>1528.15</ele>
        <time>2017-10-17T13:58:26Z</time>
      </trkpt>
      <trkpt lat="46.01179" lon="6.81177">
        <ele>1527.67</ele>
        <time>2017-10-17T13:58:27Z</time>
      </trkpt>
      <trkpt lat="46.0118" lon="6.81175">
        <ele>1527.19</ele>
        <time>2017-10-17T13:58:28Z</time>
      </trkpt>
      <trkpt lat="46.01181" lon="6.81175">
        <ele>1526.71</ele>
        <time>2017-10-17T13:58:29Z</time>
      </trkpt>
      <trkpt lat="46.01183" lon="6.81174">
        <ele>1526.23</ele>
        <time>2017-10-17T13:58:30Z</time>
      </trkpt>
      <trkpt lat="46.01184" lon="6.81174">
        <ele>1525.75</ele>
        <time>2017-10-17T13:58:31Z</time>
      </trkpt>
      <trkpt lat="46.01185" lon="6.81173">
        <ele>1524.79</ele>
        <time>2017-10-17T13:58:33Z</time>
      </trkpt>
      <trkpt lat="46.01186" lon="6.81167">
        <ele>1522.39</ele>
        <time>2017-10-17T13:58:49Z</time>
      </trkpt>
      <trkpt lat="46.01187" lon="6.81167">
        <ele>1521.42</ele>
        <time>2017-10-17T13:58:50Z</time>
      </trkpt>
      <trkpt lat="46.01188" lon="6.81167">
        <ele>1520.46</ele>
        <time>2017-10-17T13:58:51Z</time>
      </trkpt>
      <trkpt lat="46.01189" lon="6.81166">
        <ele>1519.98</ele>
        <time>2017-10-17T13:58:52Z</time>
      </trkpt>
      <trkpt lat="46.01191" lon="6.81166">
        <ele>1519.5</ele>
        <time>2017-10-17T13:58:53Z</time>
      </trkpt>
      <trkpt lat="46.01192" lon="6.81165">
        <ele>1519.02</ele>
        <time>2017-10-17T13:58:54Z</time>
      </trkpt>
      <trkpt lat="46.01196" lon="6.8116">
        <ele>1516.62</ele>
        <time>2017-10-17T13:59:03Z</time>
      </trkpt>
      <trkpt lat="46.01197" lon="6.81159">
        <ele>1516.62</ele>
        <time>2017-10-17T13:59:04Z</time>
      </trkpt>
      <trkpt lat="46.01197" lon="6.81157">
        <ele>1516.14</ele>
        <time>2017-10-17T13:59:05Z</time>
      </trkpt>
      <trkpt lat="46.01198" lon="6.81156">
        <ele>1516.14</ele>
        <time>2017-10-17T13:59:06Z</time>
      </trkpt>
      <trkpt lat="46.01199" lon="6.81155">
        <ele>1516.14</ele>
        <time>2017-10-17T13:59:07Z</time>
      </trkpt>
      <trkpt lat="46.012" lon="6.81153">
        <ele>1516.14</ele>
        <time>2017-10-17T13:59:08Z</time>
      </trkpt>
      <trkpt lat="46.01202" lon="6.81152">
        <ele>1515.66</ele>
        <time>2017-10-17T13:59:09Z</time>
      </trkpt>
      <trkpt lat="46.01203" lon="6.81151">
        <ele>1515.66</ele>
        <time>2017-10-17T13:59:10Z</time>
      </trkpt>
      <trkpt lat="46.01204" lon="6.8115">
        <ele>1516.14</ele>
        <time>2017-10-17T13:59:11Z</time>
      </trkpt>
      <trkpt lat="46.0121" lon="6.81146">
        <ele>1515.66</ele>
        <time>2017-10-17T13:59:14Z</time>
      </trkpt>
      <trkpt lat="46.01211" lon="6.81144">
        <ele>1515.18</ele>
        <time>2017-10-17T13:59:15Z</time>
      </trkpt>
      <trkpt lat="46.01212" lon="6.81142">
        <ele>1515.18</ele>
        <time>2017-10-17T13:59:16Z</time>
      </trkpt>
      <trkpt lat="46.01214" lon="6.81141">
        <ele>1515.66</ele>
        <time>2017-10-17T13:59:17Z</time>
      </trkpt>
      <trkpt lat="46.01215" lon="6.81139">
        <ele>1515.66</ele>
        <time>2017-10-17T13:59:18Z</time>
      </trkpt>
      <trkpt lat="46.01217" lon="6.81138">
        <ele>1515.66</ele>
        <time>2017-10-17T13:59:19Z</time>
      </trkpt>
      <trkpt lat="46.01218" lon="6.81137">
        <ele>1515.18</ele>
        <time>2017-10-17T13:59:20Z</time>
      </trkpt>
      <trkpt lat="46.01219" lon="6.81136">
        <ele>1514.69</ele>
        <time>2017-10-17T13:59:21Z</time>
      </trkpt>
      <trkpt lat="46.0123" lon="6.81128">
        <ele>1511.81</ele>
        <time>2017-10-17T13:59:27Z</time>
      </trkpt>
      <trkpt lat="46.01242" lon="6.81121">
        <ele>1508.45</ele>
        <time>2017-10-17T13:59:33Z</time>
      </trkpt>
      <trkpt lat="46.01261" lon="6.8111">
        <ele>1506.04</ele>
        <time>2017-10-17T13:59:41Z</time>
      </trkpt>
      <trkpt lat="46.0128" lon="6.81108">
        <ele>1505.08</ele>
        <time>2017-10-17T13:59:49Z</time>
      </trkpt>
      <trkpt lat="46.01287" lon="6.81105">
        <ele>1506.04</ele>
        <time>2017-10-17T13:59:54Z</time>
      </trkpt>
      <trkpt lat="46.01301" lon="6.81106">
        <ele>1503.16</ele>
        <time>2017-10-17T14:00:00Z</time>
      </trkpt>
      <trkpt lat="46.01313" lon="6.81104">
        <ele>1499.79</ele>
        <time>2017-10-17T14:00:06Z</time>
      </trkpt>
      <trkpt lat="46.01321" lon="6.81101">
        <ele>1496.91</ele>
        <time>2017-10-17T14:00:11Z</time>
      </trkpt>
      <trkpt lat="46.01332" lon="6.81096">
        <ele>1493.55</ele>
        <time>2017-10-17T14:00:17Z</time>
      </trkpt>
      <trkpt lat="46.01333" lon="6.81094">
        <ele>1492.58</ele>
        <time>2017-10-17T14:00:18Z</time>
      </trkpt>
      <trkpt lat="46.01335" lon="6.81093">
        <ele>1492.58</ele>
        <time>2017-10-17T14:00:19Z</time>
      </trkpt>
      <trkpt lat="46.01338" lon="6.81092">
        <ele>1492.1</ele>
        <time>2017-10-17T14:00:20Z</time>
      </trkpt>
      <trkpt lat="46.0134" lon="6.8109">
        <ele>1491.62</ele>
        <time>2017-10-17T14:00:21Z</time>
      </trkpt>
      <trkpt lat="46.01343" lon="6.81088">
        <ele>1490.66</ele>
        <time>2017-10-17T14:00:22Z</time>
      </trkpt>
      <trkpt lat="46.01345" lon="6.81086">
        <ele>1490.18</ele>
        <time>2017-10-17T14:00:23Z</time>
      </trkpt>
      <trkpt lat="46.01348" lon="6.81084">
        <ele>1489.7</ele>
        <time>2017-10-17T14:00:24Z</time>
      </trkpt>
      <trkpt lat="46.0135" lon="6.81083">
        <ele>1489.22</ele>
        <time>2017-10-17T14:00:25Z</time>
      </trkpt>
      <trkpt lat="46.01355" lon="6.8108">
        <ele>1488.26</ele>
        <time>2017-10-17T14:00:27Z</time>
      </trkpt>
      <trkpt lat="46.01372" lon="6.81073">
        <ele>1484.41</ele>
        <time>2017-10-17T14:00:36Z</time>
      </trkpt>
      <trkpt lat="46.0138" lon="6.81067">
        <ele>1481.53</ele>
        <time>2017-10-17T14:00:41Z</time>
      </trkpt>
      <trkpt lat="46.01382" lon="6.81067">
        <ele>1481.05</ele>
        <time>2017-10-17T14:00:42Z</time>
      </trkpt>
      <trkpt lat="46.01383" lon="6.81067">
        <ele>1480.57</ele>
        <time>2017-10-17T14:00:43Z</time>
      </trkpt>
      <trkpt lat="46.01385" lon="6.81067">
        <ele>1480.57</ele>
        <time>2017-10-17T14:00:44Z</time>
      </trkpt>
      <trkpt lat="46.01385" lon="6.81065">
        <ele>1479.61</ele>
        <time>2017-10-17T14:00:45Z</time>
      </trkpt>
      <trkpt lat="46.01387" lon="6.81064">
        <ele>1479.61</ele>
        <time>2017-10-17T14:00:46Z</time>
      </trkpt>
      <trkpt lat="46.01389" lon="6.81063">
        <ele>1478.65</ele>
        <time>2017-10-17T14:00:47Z</time>
      </trkpt>
      <trkpt lat="46.01391" lon="6.81062">
        <ele>1478.16</ele>
        <time>2017-10-17T14:00:48Z</time>
      </trkpt>
      <trkpt lat="46.01405" lon="6.81054">
        <ele>1476.24</ele>
        <time>2017-10-17T14:00:54Z</time>
      </trkpt>
      <trkpt lat="46.01406" lon="6.81051">
        <ele>1476.24</ele>
        <time>2017-10-17T14:00:55Z</time>
      </trkpt>
      <trkpt lat="46.01407" lon="6.81049">
        <ele>1476.24</ele>
        <time>2017-10-17T14:00:56Z</time>
      </trkpt>
      <trkpt lat="46.0142" lon="6.81033">
        <ele>1472.88</ele>
        <time>2017-10-17T14:01:06Z</time>
      </trkpt>
      <trkpt lat="46.01421" lon="6.81035">
        <ele>1472.4</ele>
        <time>2017-10-17T14:01:07Z</time>
      </trkpt>
      <trkpt lat="46.01422" lon="6.81037">
        <ele>1471.44</ele>
        <time>2017-10-17T14:01:09Z</time>
      </trkpt>
      <trkpt lat="46.01423" lon="6.81036">
        <ele>1470.95</ele>
        <time>2017-10-17T14:01:10Z</time>
      </trkpt>
      <trkpt lat="46.01425" lon="6.81036">
        <ele>1469.99</ele>
        <time>2017-10-17T14:01:11Z</time>
      </trkpt>
      <trkpt lat="46.01426" lon="6.81037">
        <ele>1469.51</ele>
        <time>2017-10-17T14:01:12Z</time>
      </trkpt>
      <trkpt lat="46.01427" lon="6.81038">
        <ele>1469.03</ele>
        <time>2017-10-17T14:01:13Z</time>
      </trkpt>
      <trkpt lat="46.01429" lon="6.81037">
        <ele>1468.55</ele>
        <time>2017-10-17T14:01:14Z</time>
      </trkpt>
      <trkpt lat="46.01431" lon="6.81036">
        <ele>1468.07</ele>
        <time>2017-10-17T14:01:15Z</time>
      </trkpt>
      <trkpt lat="46.01435" lon="6.81032">
        <ele>1466.63</ele>
        <time>2017-10-17T14:01:18Z</time>
      </trkpt>
      <trkpt lat="46.01437" lon="6.81032">
        <ele>1466.15</ele>
        <time>2017-10-17T14:01:19Z</time>
      </trkpt>
      <trkpt lat="46.01439" lon="6.81031">
        <ele>1465.67</ele>
        <time>2017-10-17T14:01:20Z</time>
      </trkpt>
      <trkpt lat="46.01441" lon="6.8103">
        <ele>1465.19</ele>
        <time>2017-10-17T14:01:21Z</time>
      </trkpt>
      <trkpt lat="46.01442" lon="6.81028">
        <ele>1464.23</ele>
        <time>2017-10-17T14:01:22Z</time>
      </trkpt>
      <trkpt lat="46.01444" lon="6.81026">
        <ele>1463.74</ele>
        <time>2017-10-17T14:01:23Z</time>
      </trkpt>
      <trkpt lat="46.01445" lon="6.81023">
        <ele>1463.26</ele>
        <time>2017-10-17T14:01:24Z</time>
      </trkpt>
      <trkpt lat="46.01446" lon="6.8102">
        <ele>1462.78</ele>
        <time>2017-10-17T14:01:25Z</time>
      </trkpt>
      <trkpt lat="46.01447" lon="6.81016">
        <ele>1462.3</ele>
        <time>2017-10-17T14:01:26Z</time>
      </trkpt>
      <trkpt lat="46.01449" lon="6.81013">
        <ele>1461.82</ele>
        <time>2017-10-17T14:01:27Z</time>
      </trkpt>
      <trkpt lat="46.01459" lon="6.80989">
        <ele>1457.98</ele>
        <time>2017-10-17T14:01:35Z</time>
      </trkpt>
      <trkpt lat="46.0147" lon="6.80975">
        <ele>1455.09</ele>
        <time>2017-10-17T14:01:43Z</time>
      </trkpt>
      <trkpt lat="46.01468" lon="6.80969">
        <ele>1453.65</ele>
        <time>2017-10-17T14:01:46Z</time>
      </trkpt>
      <trkpt lat="46.01469" lon="6.80966">
        <ele>1453.17</ele>
        <time>2017-10-17T14:01:47Z</time>
      </trkpt>
      <trkpt lat="46.01471" lon="6.80964">
        <ele>1453.17</ele>
        <time>2017-10-17T14:01:48Z</time>
      </trkpt>
      <trkpt lat="46.01472" lon="6.80962">
        <ele>1452.69</ele>
        <time>2017-10-17T14:01:49Z</time>
      </trkpt>
      <trkpt lat="46.01475" lon="6.8096">
        <ele>1452.21</ele>
        <time>2017-10-17T14:01:50Z</time>
      </trkpt>
      <trkpt lat="46.01477" lon="6.80959">
        <ele>1452.21</ele>
        <time>2017-10-17T14:01:51Z</time>
      </trkpt>
      <trkpt lat="46.01484" lon="6.80951">
        <ele>1450.77</ele>
        <time>2017-10-17T14:01:54Z</time>
      </trkpt>
      <trkpt lat="46.01495" lon="6.80937">
        <ele>1447.4</ele>
        <time>2017-10-17T14:02:00Z</time>
      </trkpt>
      <trkpt lat="46.01508" lon="6.80913">
        <ele>1445</ele>
        <time>2017-10-17T14:02:09Z</time>
      </trkpt>
      <trkpt lat="46.01508" lon="6.80907">
        <ele>1444.52</ele>
        <time>2017-10-17T14:02:11Z</time>
      </trkpt>
      <trkpt lat="46.01508" lon="6.80903">
        <ele>1444.04</ele>
        <time>2017-10-17T14:02:12Z</time>
      </trkpt>
      <trkpt lat="46.01508" lon="6.80896">
        <ele>1443.08</ele>
        <time>2017-10-17T14:02:14Z</time>
      </trkpt>
      <trkpt lat="46.0151" lon="6.80894">
        <ele>1443.08</ele>
        <time>2017-10-17T14:02:15Z</time>
      </trkpt>
      <trkpt lat="46.01513" lon="6.80893">
        <ele>1443.08</ele>
        <time>2017-10-17T14:02:16Z</time>
      </trkpt>
      <trkpt lat="46.01515" lon="6.80891">
        <ele>1443.08</ele>
        <time>2017-10-17T14:02:17Z</time>
      </trkpt>
      <trkpt lat="46.01517" lon="6.80889">
        <ele>1442.6</ele>
        <time>2017-10-17T14:02:18Z</time>
      </trkpt>
      <trkpt lat="46.01519" lon="6.80885">
        <ele>1442.6</ele>
        <time>2017-10-17T14:02:19Z</time>
      </trkpt>
      <trkpt lat="46.01521" lon="6.80882">
        <ele>1442.6</ele>
        <time>2017-10-17T14:02:20Z</time>
      </trkpt>
      <trkpt lat="46.01523" lon="6.8088">
        <ele>1442.11</ele>
        <time>2017-10-17T14:02:21Z</time>
      </trkpt>
      <trkpt lat="46.01539" lon="6.80859">
        <ele>1442.11</ele>
        <time>2017-10-17T14:02:29Z</time>
      </trkpt>
      <trkpt lat="46.01541" lon="6.80859">
        <ele>1441.63</ele>
        <time>2017-10-17T14:02:30Z</time>
      </trkpt>
      <trkpt lat="46.01542" lon="6.80859">
        <ele>1441.63</ele>
        <time>2017-10-17T14:02:31Z</time>
      </trkpt>
      <trkpt lat="46.01544" lon="6.80859">
        <ele>1441.63</ele>
        <time>2017-10-17T14:02:32Z</time>
      </trkpt>
      <trkpt lat="46.01547" lon="6.80858">
        <ele>1441.63</ele>
        <time>2017-10-17T14:02:33Z</time>
      </trkpt>
      <trkpt lat="46.01549" lon="6.80856">
        <ele>1441.63</ele>
        <time>2017-10-17T14:02:34Z</time>
      </trkpt>
      <trkpt lat="46.01551" lon="6.80857">
        <ele>1441.63</ele>
        <time>2017-10-17T14:02:35Z</time>
      </trkpt>
      <trkpt lat="46.01552" lon="6.80856">
        <ele>1442.11</ele>
        <time>2017-10-17T14:02:36Z</time>
      </trkpt>
      <trkpt lat="46.01553" lon="6.80855">
        <ele>1442.11</ele>
        <time>2017-10-17T14:02:37Z</time>
      </trkpt>
      <trkpt lat="46.01568" lon="6.80849">
        <ele>1443.56</ele>
        <time>2017-10-17T14:02:45Z</time>
      </trkpt>
      <trkpt lat="46.01571" lon="6.80846">
        <ele>1443.56</ele>
        <time>2017-10-17T14:02:46Z</time>
      </trkpt>
      <trkpt lat="46.01572" lon="6.80846">
        <ele>1444.04</ele>
        <time>2017-10-17T14:02:47Z</time>
      </trkpt>
      <trkpt lat="46.01575" lon="6.80844">
        <ele>1444.04</ele>
        <time>2017-10-17T14:02:48Z</time>
      </trkpt>
      <trkpt lat="46.01577" lon="6.80842">
        <ele>1444.04</ele>
        <time>2017-10-17T14:02:49Z</time>
      </trkpt>
      <trkpt lat="46.01579" lon="6.80842">
        <ele>1444.04</ele>
        <time>2017-10-17T14:02:50Z</time>
      </trkpt>
      <trkpt lat="46.01588" lon="6.80837">
        <ele>1443.08</ele>
        <time>2017-10-17T14:02:55Z</time>
      </trkpt>
      <trkpt lat="46.0159" lon="6.80838">
        <ele>1442.6</ele>
        <time>2017-10-17T14:02:56Z</time>
      </trkpt>
      <trkpt lat="46.01591" lon="6.80841">
        <ele>1442.6</ele>
        <time>2017-10-17T14:02:57Z</time>
      </trkpt>
      <trkpt lat="46.01591" lon="6.80843">
        <ele>1442.6</ele>
        <time>2017-10-17T14:02:58Z</time>
      </trkpt>
      <trkpt lat="46.01592" lon="6.80845">
        <ele>1442.6</ele>
        <time>2017-10-17T14:02:59Z</time>
      </trkpt>
      <trkpt lat="46.01594" lon="6.80847">
        <ele>1442.6</ele>
        <time>2017-10-17T14:03:00Z</time>
      </trkpt>
      <trkpt lat="46.01594" lon="6.80848">
        <ele>1442.6</ele>
        <time>2017-10-17T14:03:01Z</time>
      </trkpt>
      <trkpt lat="46.01595" lon="6.80849">
        <ele>1443.08</ele>
        <time>2017-10-17T14:03:02Z</time>
      </trkpt>
      <trkpt lat="46.01596" lon="6.8085">
        <ele>1443.08</ele>
        <time>2017-10-17T14:03:03Z</time>
      </trkpt>
      <trkpt lat="46.01596" lon="6.80851">
        <ele>1442.6</ele>
        <time>2017-10-17T14:03:04Z</time>
      </trkpt>
      <trkpt lat="46.01597" lon="6.80857">
        <ele>1442.6</ele>
        <time>2017-10-17T14:03:09Z</time>
      </trkpt>
      <trkpt lat="46.01597" lon="6.80869">
        <ele>1442.11</ele>
        <time>2017-10-17T14:03:28Z</time>
      </trkpt>
      <trkpt lat="46.01599" lon="6.80871">
        <ele>1442.11</ele>
        <time>2017-10-17T14:03:42Z</time>
      </trkpt>
      <trkpt lat="46.01603" lon="6.80875">
        <ele>1440.67</ele>
        <time>2017-10-17T14:03:47Z</time>
      </trkpt>
      <trkpt lat="46.01615" lon="6.80886">
        <ele>1437.79</ele>
        <time>2017-10-17T14:04:00Z</time>
      </trkpt>
      <trkpt lat="46.01628" lon="6.80891">
        <ele>1434.42</ele>
        <time>2017-10-17T14:04:12Z</time>
      </trkpt>
      <trkpt lat="46.01637" lon="6.80894">
        <ele>1432.02</ele>
        <time>2017-10-17T14:04:18Z</time>
      </trkpt>
      <trkpt lat="46.01639" lon="6.80895">
        <ele>1432.02</ele>
        <time>2017-10-17T14:04:19Z</time>
      </trkpt>
      <trkpt lat="46.01646" lon="6.80906">
        <ele>1428.18</ele>
        <time>2017-10-17T14:04:26Z</time>
      </trkpt>
      <trkpt lat="46.01659" lon="6.80908">
        <ele>1424.81</ele>
        <time>2017-10-17T14:04:32Z</time>
      </trkpt>
      <trkpt lat="46.01671" lon="6.80911">
        <ele>1421.45</ele>
        <time>2017-10-17T14:04:38Z</time>
      </trkpt>
      <trkpt lat="46.01679" lon="6.80912">
        <ele>1419.52</ele>
        <time>2017-10-17T14:04:42Z</time>
      </trkpt>
      <trkpt lat="46.01691" lon="6.8091">
        <ele>1416.64</ele>
        <time>2017-10-17T14:04:50Z</time>
      </trkpt>
      <trkpt lat="46.01697" lon="6.80911">
        <ele>1414.72</ele>
        <time>2017-10-17T14:04:54Z</time>
      </trkpt>
      <trkpt lat="46.01698" lon="6.80912">
        <ele>1414.24</ele>
        <time>2017-10-17T14:04:55Z</time>
      </trkpt>
      <trkpt lat="46.01699" lon="6.80912">
        <ele>1413.76</ele>
        <time>2017-10-17T14:04:56Z</time>
      </trkpt>
      <trkpt lat="46.01709" lon="6.80913">
        <ele>1410.87</ele>
        <time>2017-10-17T14:05:03Z</time>
      </trkpt>
      <trkpt lat="46.0171" lon="6.80913">
        <ele>1410.39</ele>
        <time>2017-10-17T14:05:04Z</time>
      </trkpt>
      <trkpt lat="46.01712" lon="6.80914">
        <ele>1409.91</ele>
        <time>2017-10-17T14:05:05Z</time>
      </trkpt>
      <trkpt lat="46.01715" lon="6.80917">
        <ele>1408.47</ele>
        <time>2017-10-17T14:05:08Z</time>
      </trkpt>
      <trkpt lat="46.01716" lon="6.80918">
        <ele>1407.99</ele>
        <time>2017-10-17T14:05:09Z</time>
      </trkpt>
      <trkpt lat="46.01718" lon="6.80918">
        <ele>1407.51</ele>
        <time>2017-10-17T14:05:10Z</time>
      </trkpt>
      <trkpt lat="46.0172" lon="6.80918">
        <ele>1407.03</ele>
        <time>2017-10-17T14:05:11Z</time>
      </trkpt>
      <trkpt lat="46.01722" lon="6.80918">
        <ele>1406.55</ele>
        <time>2017-10-17T14:05:12Z</time>
      </trkpt>
      <trkpt lat="46.01724" lon="6.80919">
        <ele>1406.55</ele>
        <time>2017-10-17T14:05:13Z</time>
      </trkpt>
      <trkpt lat="46.01726" lon="6.80919">
        <ele>1406.07</ele>
        <time>2017-10-17T14:05:14Z</time>
      </trkpt>
      <trkpt lat="46.01737" lon="6.8092">
        <ele>1403.66</ele>
        <time>2017-10-17T14:05:19Z</time>
      </trkpt>
      <trkpt lat="46.01739" lon="6.80919">
        <ele>1403.18</ele>
        <time>2017-10-17T14:05:20Z</time>
      </trkpt>
      <trkpt lat="46.01748" lon="6.8092">
        <ele>1399.82</ele>
        <time>2017-10-17T14:05:25Z</time>
      </trkpt>
      <trkpt lat="46.01756" lon="6.80921">
        <ele>1396.45</ele>
        <time>2017-10-17T14:05:30Z</time>
      </trkpt>
      <trkpt lat="46.01756" lon="6.80923">
        <ele>1395.97</ele>
        <time>2017-10-17T14:05:31Z</time>
      </trkpt>
      <trkpt lat="46.01756" lon="6.80925">
        <ele>1395.01</ele>
        <time>2017-10-17T14:05:32Z</time>
      </trkpt>
      <trkpt lat="46.01755" lon="6.80926">
        <ele>1394.53</ele>
        <time>2017-10-17T14:05:33Z</time>
      </trkpt>
      <trkpt lat="46.01754" lon="6.80926">
        <ele>1394.05</ele>
        <time>2017-10-17T14:05:34Z</time>
      </trkpt>
      <trkpt lat="46.01752" lon="6.80928">
        <ele>1393.57</ele>
        <time>2017-10-17T14:05:35Z</time>
      </trkpt>
      <trkpt lat="46.0175" lon="6.8093">
        <ele>1393.09</ele>
        <time>2017-10-17T14:05:36Z</time>
      </trkpt>
      <trkpt lat="46.01748" lon="6.80931">
        <ele>1392.61</ele>
        <time>2017-10-17T14:05:37Z</time>
      </trkpt>
      <trkpt lat="46.01746" lon="6.80933">
        <ele>1392.13</ele>
        <time>2017-10-17T14:05:38Z</time>
      </trkpt>
      <trkpt lat="46.01744" lon="6.80934">
        <ele>1391.17</ele>
        <time>2017-10-17T14:05:39Z</time>
      </trkpt>
      <trkpt lat="46.01727" lon="6.80943">
        <ele>1388.76</ele>
        <time>2017-10-17T14:05:48Z</time>
      </trkpt>
      <trkpt lat="46.01725" lon="6.80946">
        <ele>1388.76</ele>
        <time>2017-10-17T14:05:49Z</time>
      </trkpt>
      <trkpt lat="46.01724" lon="6.8095">
        <ele>1388.76</ele>
        <time>2017-10-17T14:05:50Z</time>
      </trkpt>
      <trkpt lat="46.01724" lon="6.80954">
        <ele>1388.76</ele>
        <time>2017-10-17T14:05:51Z</time>
      </trkpt>
      <trkpt lat="46.01723" lon="6.80957">
        <ele>1388.76</ele>
        <time>2017-10-17T14:05:52Z</time>
      </trkpt>
      <trkpt lat="46.01723" lon="6.8096">
        <ele>1388.76</ele>
        <time>2017-10-17T14:05:53Z</time>
      </trkpt>
      <trkpt lat="46.01724" lon="6.80965">
        <ele>1388.76</ele>
        <time>2017-10-17T14:05:54Z</time>
      </trkpt>
      <trkpt lat="46.01724" lon="6.80969">
        <ele>1388.76</ele>
        <time>2017-10-17T14:05:55Z</time>
      </trkpt>
      <trkpt lat="46.01732" lon="6.80992">
        <ele>1390.68</ele>
        <time>2017-10-17T14:06:00Z</time>
      </trkpt>
      <trkpt lat="46.01734" lon="6.80993">
        <ele>1391.17</ele>
        <time>2017-10-17T14:06:01Z</time>
      </trkpt>
      <trkpt lat="46.01754" lon="6.80999">
        <ele>1392.61</ele>
        <time>2017-10-17T14:06:10Z</time>
      </trkpt>
      <trkpt lat="46.01775" lon="6.80991">
        <ele>1394.53</ele>
        <time>2017-10-17T14:06:20Z</time>
      </trkpt>
      <trkpt lat="46.01797" lon="6.80989">
        <ele>1396.45</ele>
        <time>2017-10-17T14:06:30Z</time>
      </trkpt>
      <trkpt lat="46.01801" lon="6.80987">
        <ele>1397.41</ele>
        <time>2017-10-17T14:06:32Z</time>
      </trkpt>
      <trkpt lat="46.01808" lon="6.80982">
        <ele>1397.89</ele>
        <time>2017-10-17T14:06:36Z</time>
      </trkpt>
      <trkpt lat="46.0181" lon="6.80982">
        <ele>1397.89</ele>
        <time>2017-10-17T14:06:37Z</time>
      </trkpt>
      <trkpt lat="46.0183" lon="6.80977">
        <ele>1400.3</ele>
        <time>2017-10-17T14:06:47Z</time>
      </trkpt>
      <trkpt lat="46.01851" lon="6.8097">
        <ele>1401.26</ele>
        <time>2017-10-17T14:06:56Z</time>
      </trkpt>
      <trkpt lat="46.01872" lon="6.80966">
        <ele>1401.74</ele>
        <time>2017-10-17T14:07:05Z</time>
      </trkpt>
      <trkpt lat="46.01876" lon="6.8097">
        <ele>1401.26</ele>
        <time>2017-10-17T14:07:07Z</time>
      </trkpt>
      <trkpt lat="46.01877" lon="6.80973">
        <ele>1400.78</ele>
        <time>2017-10-17T14:07:08Z</time>
      </trkpt>
      <trkpt lat="46.01877" lon="6.80977">
        <ele>1400.78</ele>
        <time>2017-10-17T14:07:09Z</time>
      </trkpt>
      <trkpt lat="46.01872" lon="6.81005">
        <ele>1397.89</ele>
        <time>2017-10-17T14:07:16Z</time>
      </trkpt>
      <trkpt lat="46.01866" lon="6.81037">
        <ele>1397.89</ele>
        <time>2017-10-17T14:07:25Z</time>
      </trkpt>
      <trkpt lat="46.01868" lon="6.81041">
        <ele>1398.37</ele>
        <time>2017-10-17T14:07:27Z</time>
      </trkpt>
      <trkpt lat="46.0187" lon="6.81044">
        <ele>1398.37</ele>
        <time>2017-10-17T14:07:29Z</time>
      </trkpt>
      <trkpt lat="46.01872" lon="6.81044">
        <ele>1398.37</ele>
        <time>2017-10-17T14:07:30Z</time>
      </trkpt>
      <trkpt lat="46.01873" lon="6.81043">
        <ele>1398.86</ele>
        <time>2017-10-17T14:07:31Z</time>
      </trkpt>
      <trkpt lat="46.01875" lon="6.81041">
        <ele>1398.86</ele>
        <time>2017-10-17T14:07:32Z</time>
      </trkpt>
      <trkpt lat="46.01877" lon="6.81038">
        <ele>1398.86</ele>
        <time>2017-10-17T14:07:33Z</time>
      </trkpt>
      <trkpt lat="46.01879" lon="6.81035">
        <ele>1398.37</ele>
        <time>2017-10-17T14:07:34Z</time>
      </trkpt>
      <trkpt lat="46.01881" lon="6.81033">
        <ele>1398.37</ele>
        <time>2017-10-17T14:07:35Z</time>
      </trkpt>
      <trkpt lat="46.01883" lon="6.81031">
        <ele>1397.89</ele>
        <time>2017-10-17T14:07:36Z</time>
      </trkpt>
      <trkpt lat="46.01886" lon="6.8103">
        <ele>1397.41</ele>
        <time>2017-10-17T14:07:37Z</time>
      </trkpt>
      <trkpt lat="46.01888" lon="6.81029">
        <ele>1397.41</ele>
        <time>2017-10-17T14:07:38Z</time>
      </trkpt>
      <trkpt lat="46.01891" lon="6.81028">
        <ele>1397.41</ele>
        <time>2017-10-17T14:07:39Z</time>
      </trkpt>
      <trkpt lat="46.01893" lon="6.81027">
        <ele>1396.93</ele>
        <time>2017-10-17T14:07:40Z</time>
      </trkpt>
      <trkpt lat="46.01896" lon="6.81028">
        <ele>1396.93</ele>
        <time>2017-10-17T14:07:41Z</time>
      </trkpt>
      <trkpt lat="46.01899" lon="6.81027">
        <ele>1396.45</ele>
        <time>2017-10-17T14:07:42Z</time>
      </trkpt>
      <trkpt lat="46.01901" lon="6.81027">
        <ele>1396.45</ele>
        <time>2017-10-17T14:07:43Z</time>
      </trkpt>
      <trkpt lat="46.01904" lon="6.81027">
        <ele>1396.45</ele>
        <time>2017-10-17T14:07:44Z</time>
      </trkpt>
      <trkpt lat="46.01907" lon="6.81027">
        <ele>1395.97</ele>
        <time>2017-10-17T14:07:45Z</time>
      </trkpt>
      <trkpt lat="46.01929" lon="6.81024">
        <ele>1395.49</ele>
        <time>2017-10-17T14:07:54Z</time>
      </trkpt>
      <trkpt lat="46.0195" lon="6.81027">
        <ele>1393.57</ele>
        <time>2017-10-17T14:08:03Z</time>
      </trkpt>
      <trkpt lat="46.01972" lon="6.81033">
        <ele>1390.68</ele>
        <time>2017-10-17T14:08:12Z</time>
      </trkpt>
      <trkpt lat="46.01996" lon="6.81037">
        <ele>1387.8</ele>
        <time>2017-10-17T14:08:20Z</time>
      </trkpt>
      <trkpt lat="46.02022" lon="6.81042">
        <ele>1385.88</ele>
        <time>2017-10-17T14:08:28Z</time>
      </trkpt>
      <trkpt lat="46.02043" lon="6.81049">
        <ele>1383.96</ele>
        <time>2017-10-17T14:08:35Z</time>
      </trkpt>
      <trkpt lat="46.02062" lon="6.81061">
        <ele>1382.03</ele>
        <time>2017-10-17T14:08:43Z</time>
      </trkpt>
      <trkpt lat="46.02062" lon="6.81088">
        <ele>1379.63</ele>
        <time>2017-10-17T14:08:50Z</time>
      </trkpt>
      <trkpt lat="46.02051" lon="6.81113">
        <ele>1380.59</ele>
        <time>2017-10-17T14:08:58Z</time>
      </trkpt>
      <trkpt lat="46.02048" lon="6.81118">
        <ele>1380.59</ele>
        <time>2017-10-17T14:09:00Z</time>
      </trkpt>
      <trkpt lat="46.02049" lon="6.8112">
        <ele>1381.07</ele>
        <time>2017-10-17T14:09:01Z</time>
      </trkpt>
      <trkpt lat="46.0205" lon="6.8112">
        <ele>1381.07</ele>
        <time>2017-10-17T14:09:02Z</time>
      </trkpt>
      <trkpt lat="46.02052" lon="6.81119">
        <ele>1381.07</ele>
        <time>2017-10-17T14:09:03Z</time>
      </trkpt>
      <trkpt lat="46.02054" lon="6.81118">
        <ele>1381.07</ele>
        <time>2017-10-17T14:09:04Z</time>
      </trkpt>
      <trkpt lat="46.02057" lon="6.81116">
        <ele>1381.07</ele>
        <time>2017-10-17T14:09:05Z</time>
      </trkpt>
      <trkpt lat="46.02077" lon="6.81095">
        <ele>1377.71</ele>
        <time>2017-10-17T14:09:13Z</time>
      </trkpt>
      <trkpt lat="46.02096" lon="6.81076">
        <ele>1376.26</ele>
        <time>2017-10-17T14:09:20Z</time>
      </trkpt>
      <trkpt lat="46.02115" lon="6.81058">
        <ele>1375.78</ele>
        <time>2017-10-17T14:09:28Z</time>
      </trkpt>
      <trkpt lat="46.0212" lon="6.81056">
        <ele>1375.3</ele>
        <time>2017-10-17T14:09:30Z</time>
      </trkpt>
      <trkpt lat="46.02124" lon="6.81056">
        <ele>1375.3</ele>
        <time>2017-10-17T14:09:31Z</time>
      </trkpt>
      <trkpt lat="46.02126" lon="6.81057">
        <ele>1374.82</ele>
        <time>2017-10-17T14:09:32Z</time>
      </trkpt>
      <trkpt lat="46.02129" lon="6.81059">
        <ele>1374.82</ele>
        <time>2017-10-17T14:09:33Z</time>
      </trkpt>
      <trkpt lat="46.02131" lon="6.81062">
        <ele>1374.34</ele>
        <time>2017-10-17T14:09:34Z</time>
      </trkpt>
      <trkpt lat="46.02134" lon="6.81065">
        <ele>1373.86</ele>
        <time>2017-10-17T14:09:35Z</time>
      </trkpt>
      <trkpt lat="46.02144" lon="6.81074">
        <ele>1372.42</ele>
        <time>2017-10-17T14:09:40Z</time>
      </trkpt>
      <trkpt lat="46.02146" lon="6.81074">
        <ele>1371.94</ele>
        <time>2017-10-17T14:09:41Z</time>
      </trkpt>
      <trkpt lat="46.02148" lon="6.81072">
        <ele>1371.46</ele>
        <time>2017-10-17T14:09:42Z</time>
      </trkpt>
      <trkpt lat="46.0215" lon="6.81069">
        <ele>1370.98</ele>
        <time>2017-10-17T14:09:43Z</time>
      </trkpt>
      <trkpt lat="46.02152" lon="6.81066">
        <ele>1370.98</ele>
        <time>2017-10-17T14:09:44Z</time>
      </trkpt>
      <trkpt lat="46.02153" lon="6.81063">
        <ele>1370.5</ele>
        <time>2017-10-17T14:09:45Z</time>
      </trkpt>
      <trkpt lat="46.02155" lon="6.8106">
        <ele>1370.02</ele>
        <time>2017-10-17T14:09:46Z</time>
      </trkpt>
      <trkpt lat="46.02158" lon="6.81037">
        <ele>1368.09</ele>
        <time>2017-10-17T14:09:53Z</time>
      </trkpt>
      <trkpt lat="46.02157" lon="6.81034">
        <ele>1367.61</ele>
        <time>2017-10-17T14:09:54Z</time>
      </trkpt>
      <trkpt lat="46.02155" lon="6.81032">
        <ele>1367.61</ele>
        <time>2017-10-17T14:09:55Z</time>
      </trkpt>
      <trkpt lat="46.02142" lon="6.81022">
        <ele>1365.21</ele>
        <time>2017-10-17T14:10:01Z</time>
      </trkpt>
      <trkpt lat="46.02141" lon="6.81018">
        <ele>1364.73</ele>
        <time>2017-10-17T14:10:02Z</time>
      </trkpt>
      <trkpt lat="46.02141" lon="6.81014">
        <ele>1364.73</ele>
        <time>2017-10-17T14:10:03Z</time>
      </trkpt>
      <trkpt lat="46.02142" lon="6.81011">
        <ele>1364.25</ele>
        <time>2017-10-17T14:10:04Z</time>
      </trkpt>
      <trkpt lat="46.02145" lon="6.8101">
        <ele>1364.25</ele>
        <time>2017-10-17T14:10:05Z</time>
      </trkpt>
      <trkpt lat="46.02147" lon="6.8101">
        <ele>1363.77</ele>
        <time>2017-10-17T14:10:06Z</time>
      </trkpt>
      <trkpt lat="46.02151" lon="6.81011">
        <ele>1363.77</ele>
        <time>2017-10-17T14:10:07Z</time>
      </trkpt>
      <trkpt lat="46.02171" lon="6.81007">
        <ele>1361.84</ele>
        <time>2017-10-17T14:10:14Z</time>
      </trkpt>
      <trkpt lat="46.02178" lon="6.80982">
        <ele>1359.44</ele>
        <time>2017-10-17T14:10:21Z</time>
      </trkpt>
      <trkpt lat="46.02176" lon="6.80979">
        <ele>1359.44</ele>
        <time>2017-10-17T14:10:22Z</time>
      </trkpt>
      <trkpt lat="46.02174" lon="6.80977">
        <ele>1358.96</ele>
        <time>2017-10-17T14:10:23Z</time>
      </trkpt>
      <trkpt lat="46.02171" lon="6.80975">
        <ele>1358.48</ele>
        <time>2017-10-17T14:10:24Z</time>
      </trkpt>
      <trkpt lat="46.02168" lon="6.80974">
        <ele>1358.48</ele>
        <time>2017-10-17T14:10:25Z</time>
      </trkpt>
      <trkpt lat="46.02149" lon="6.80966">
        <ele>1356.56</ele>
        <time>2017-10-17T14:10:33Z</time>
      </trkpt>
      <trkpt lat="46.02135" lon="6.80987">
        <ele>1354.15</ele>
        <time>2017-10-17T14:10:41Z</time>
      </trkpt>
      <trkpt lat="46.02122" lon="6.80999">
        <ele>1352.71</ele>
        <time>2017-10-17T14:10:47Z</time>
      </trkpt>
      <trkpt lat="46.0212" lon="6.80999">
        <ele>1352.23</ele>
        <time>2017-10-17T14:10:48Z</time>
      </trkpt>
      <trkpt lat="46.02119" lon="6.80997">
        <ele>1352.23</ele>
        <time>2017-10-17T14:10:49Z</time>
      </trkpt>
      <trkpt lat="46.02118" lon="6.80994">
        <ele>1352.71</ele>
        <time>2017-10-17T14:10:50Z</time>
      </trkpt>
      <trkpt lat="46.02117" lon="6.80992">
        <ele>1352.71</ele>
        <time>2017-10-17T14:10:51Z</time>
      </trkpt>
      <trkpt lat="46.02117" lon="6.80989">
        <ele>1352.71</ele>
        <time>2017-10-17T14:10:52Z</time>
      </trkpt>
      <trkpt lat="46.02117" lon="6.80985">
        <ele>1352.23</ele>
        <time>2017-10-17T14:10:53Z</time>
      </trkpt>
      <trkpt lat="46.02116" lon="6.80981">
        <ele>1351.75</ele>
        <time>2017-10-17T14:10:54Z</time>
      </trkpt>
      <trkpt lat="46.02117" lon="6.80965">
        <ele>1350.31</ele>
        <time>2017-10-17T14:10:58Z</time>
      </trkpt>
      <trkpt lat="46.02115" lon="6.80953">
        <ele>1349.35</ele>
        <time>2017-10-17T14:11:01Z</time>
      </trkpt>
      <trkpt lat="46.02116" lon="6.8095">
        <ele>1348.87</ele>
        <time>2017-10-17T14:11:02Z</time>
      </trkpt>
      <trkpt lat="46.02118" lon="6.8092">
        <ele>1347.43</ele>
        <time>2017-10-17T14:11:10Z</time>
      </trkpt>
      <trkpt lat="46.02122" lon="6.80891">
        <ele>1345.02</ele>
        <time>2017-10-17T14:11:18Z</time>
      </trkpt>
      <trkpt lat="46.02121" lon="6.80879">
        <ele>1343.58</ele>
        <time>2017-10-17T14:11:21Z</time>
      </trkpt>
      <trkpt lat="46.02114" lon="6.80863">
        <ele>1342.14</ele>
        <time>2017-10-17T14:11:26Z</time>
      </trkpt>
      <trkpt lat="46.02092" lon="6.80857">
        <ele>1339.25</ele>
        <time>2017-10-17T14:11:34Z</time>
      </trkpt>
      <trkpt lat="46.02072" lon="6.80844">
        <ele>1337.33</ele>
        <time>2017-10-17T14:11:42Z</time>
      </trkpt>
      <trkpt lat="46.02064" lon="6.80841">
        <ele>1336.37</ele>
        <time>2017-10-17T14:11:45Z</time>
      </trkpt>
      <trkpt lat="46.02063" lon="6.80839">
        <ele>1336.37</ele>
        <time>2017-10-17T14:11:46Z</time>
      </trkpt>
      <trkpt lat="46.02062" lon="6.80836">
        <ele>1335.89</ele>
        <time>2017-10-17T14:11:47Z</time>
      </trkpt>
      <trkpt lat="46.02063" lon="6.80835">
        <ele>1335.89</ele>
        <time>2017-10-17T14:11:48Z</time>
      </trkpt>
      <trkpt lat="46.02065" lon="6.80836">
        <ele>1335.41</ele>
        <time>2017-10-17T14:11:49Z</time>
      </trkpt>
      <trkpt lat="46.02068" lon="6.80837">
        <ele>1335.41</ele>
        <time>2017-10-17T14:11:50Z</time>
      </trkpt>
      <trkpt lat="46.0207" lon="6.80838">
        <ele>1334.93</ele>
        <time>2017-10-17T14:11:51Z</time>
      </trkpt>
      <trkpt lat="46.02073" lon="6.8084">
        <ele>1334.45</ele>
        <time>2017-10-17T14:11:52Z</time>
      </trkpt>
      <trkpt lat="46.02075" lon="6.80841">
        <ele>1333.97</ele>
        <time>2017-10-17T14:11:53Z</time>
      </trkpt>
      <trkpt lat="46.02077" lon="6.80842">
        <ele>1333.97</ele>
        <time>2017-10-17T14:11:54Z</time>
      </trkpt>
      <trkpt lat="46.0208" lon="6.80842">
        <ele>1333.49</ele>
        <time>2017-10-17T14:11:55Z</time>
      </trkpt>
      <trkpt lat="46.02094" lon="6.80844">
        <ele>1331.56</ele>
        <time>2017-10-17T14:12:00Z</time>
      </trkpt>
      <trkpt lat="46.02102" lon="6.80841">
        <ele>1330.6</ele>
        <time>2017-10-17T14:12:03Z</time>
      </trkpt>
      <trkpt lat="46.02103" lon="6.80838">
        <ele>1329.64</ele>
        <time>2017-10-17T14:12:04Z</time>
      </trkpt>
      <trkpt lat="46.02104" lon="6.80834">
        <ele>1329.16</ele>
        <time>2017-10-17T14:12:05Z</time>
      </trkpt>
      <trkpt lat="46.02103" lon="6.80831">
        <ele>1328.68</ele>
        <time>2017-10-17T14:12:06Z</time>
      </trkpt>
      <trkpt lat="46.02101" lon="6.8083">
        <ele>1328.2</ele>
        <time>2017-10-17T14:12:07Z</time>
      </trkpt>
      <trkpt lat="46.02099" lon="6.80829">
        <ele>1328.2</ele>
        <time>2017-10-17T14:12:08Z</time>
      </trkpt>
      <trkpt lat="46.02097" lon="6.80828">
        <ele>1327.72</ele>
        <time>2017-10-17T14:12:09Z</time>
      </trkpt>
      <trkpt lat="46.02094" lon="6.80827">
        <ele>1327.24</ele>
        <time>2017-10-17T14:12:10Z</time>
      </trkpt>
      <trkpt lat="46.02082" lon="6.8082">
        <ele>1326.76</ele>
        <time>2017-10-17T14:12:15Z</time>
      </trkpt>
      <trkpt lat="46.02082" lon="6.80818">
        <ele>1325.8</ele>
        <time>2017-10-17T14:12:16Z</time>
      </trkpt>
      <trkpt lat="46.02083" lon="6.80815">
        <ele>1325.8</ele>
        <time>2017-10-17T14:12:17Z</time>
      </trkpt>
      <trkpt lat="46.02084" lon="6.80813">
        <ele>1325.31</ele>
        <time>2017-10-17T14:12:18Z</time>
      </trkpt>
      <trkpt lat="46.02086" lon="6.80812">
        <ele>1324.83</ele>
        <time>2017-10-17T14:12:19Z</time>
      </trkpt>
      <trkpt lat="46.02088" lon="6.80812">
        <ele>1324.83</ele>
        <time>2017-10-17T14:12:20Z</time>
      </trkpt>
      <trkpt lat="46.0209" lon="6.80812">
        <ele>1324.35</ele>
        <time>2017-10-17T14:12:21Z</time>
      </trkpt>
      <trkpt lat="46.02092" lon="6.80813">
        <ele>1323.87</ele>
        <time>2017-10-17T14:12:22Z</time>
      </trkpt>
      <trkpt lat="46.02111" lon="6.80819">
        <ele>1321.47</ele>
        <time>2017-10-17T14:12:30Z</time>
      </trkpt>
      <trkpt lat="46.02121" lon="6.80819">
        <ele>1320.03</ele>
        <time>2017-10-17T14:12:35Z</time>
      </trkpt>
      <trkpt lat="46.02122" lon="6.80816">
        <ele>1320.03</ele>
        <time>2017-10-17T14:12:36Z</time>
      </trkpt>
      <trkpt lat="46.02122" lon="6.80813">
        <ele>1319.55</ele>
        <time>2017-10-17T14:12:37Z</time>
      </trkpt>
      <trkpt lat="46.02121" lon="6.80811">
        <ele>1319.07</ele>
        <time>2017-10-17T14:12:38Z</time>
      </trkpt>
      <trkpt lat="46.02119" lon="6.8081">
        <ele>1318.59</ele>
        <time>2017-10-17T14:12:39Z</time>
      </trkpt>
      <trkpt lat="46.02117" lon="6.80809">
        <ele>1318.59</ele>
        <time>2017-10-17T14:12:40Z</time>
      </trkpt>
      <trkpt lat="46.02103" lon="6.80798">
        <ele>1315.22</ele>
        <time>2017-10-17T14:12:47Z</time>
      </trkpt>
      <trkpt lat="46.02103" lon="6.80795">
        <ele>1314.74</ele>
        <time>2017-10-17T14:12:48Z</time>
      </trkpt>
      <trkpt lat="46.02104" lon="6.80793">
        <ele>1314.74</ele>
        <time>2017-10-17T14:12:49Z</time>
      </trkpt>
      <trkpt lat="46.02105" lon="6.80791">
        <ele>1314.26</ele>
        <time>2017-10-17T14:12:50Z</time>
      </trkpt>
      <trkpt lat="46.02108" lon="6.8079">
        <ele>1313.78</ele>
        <time>2017-10-17T14:12:51Z</time>
      </trkpt>
      <trkpt lat="46.0211" lon="6.8079">
        <ele>1313.3</ele>
        <time>2017-10-17T14:12:52Z</time>
      </trkpt>
      <trkpt lat="46.02112" lon="6.8079">
        <ele>1313.3</ele>
        <time>2017-10-17T14:12:53Z</time>
      </trkpt>
      <trkpt lat="46.02128" lon="6.8079">
        <ele>1310.41</ele>
        <time>2017-10-17T14:13:00Z</time>
      </trkpt>
      <trkpt lat="46.02131" lon="6.80788">
        <ele>1310.41</ele>
        <time>2017-10-17T14:13:01Z</time>
      </trkpt>
      <trkpt lat="46.02133" lon="6.80786">
        <ele>1310.41</ele>
        <time>2017-10-17T14:13:02Z</time>
      </trkpt>
      <trkpt lat="46.02135" lon="6.80784">
        <ele>1309.93</ele>
        <time>2017-10-17T14:13:03Z</time>
      </trkpt>
      <trkpt lat="46.02137" lon="6.80782">
        <ele>1309.45</ele>
        <time>2017-10-17T14:13:04Z</time>
      </trkpt>
      <trkpt lat="46.02153" lon="6.80777">
        <ele>1306.57</ele>
        <time>2017-10-17T14:13:10Z</time>
      </trkpt>
      <trkpt lat="46.02163" lon="6.80779">
        <ele>1304.65</ele>
        <time>2017-10-17T14:13:14Z</time>
      </trkpt>
      <trkpt lat="46.02164" lon="6.80778">
        <ele>1304.17</ele>
        <time>2017-10-17T14:13:15Z</time>
      </trkpt>
      <trkpt lat="46.02165" lon="6.80776">
        <ele>1303.69</ele>
        <time>2017-10-17T14:13:16Z</time>
      </trkpt>
      <trkpt lat="46.02164" lon="6.80773">
        <ele>1303.2</ele>
        <time>2017-10-17T14:13:17Z</time>
      </trkpt>
      <trkpt lat="46.02162" lon="6.80773">
        <ele>1302.72</ele>
        <time>2017-10-17T14:13:18Z</time>
      </trkpt>
      <trkpt lat="46.0216" lon="6.80772">
        <ele>1301.76</ele>
        <time>2017-10-17T14:13:19Z</time>
      </trkpt>
      <trkpt lat="46.02158" lon="6.80772">
        <ele>1301.76</ele>
        <time>2017-10-17T14:13:20Z</time>
      </trkpt>
      <trkpt lat="46.02147" lon="6.80764">
        <ele>1298.4</ele>
        <time>2017-10-17T14:13:26Z</time>
      </trkpt>
      <trkpt lat="46.02147" lon="6.80761">
        <ele>1297.92</ele>
        <time>2017-10-17T14:13:27Z</time>
      </trkpt>
      <trkpt lat="46.02148" lon="6.80759">
        <ele>1297.44</ele>
        <time>2017-10-17T14:13:28Z</time>
      </trkpt>
      <trkpt lat="46.02149" lon="6.80758">
        <ele>1297.44</ele>
        <time>2017-10-17T14:13:29Z</time>
      </trkpt>
      <trkpt lat="46.02151" lon="6.80758">
        <ele>1296.96</ele>
        <time>2017-10-17T14:13:30Z</time>
      </trkpt>
      <trkpt lat="46.02153" lon="6.80757">
        <ele>1296.48</ele>
        <time>2017-10-17T14:13:31Z</time>
      </trkpt>
      <trkpt lat="46.02156" lon="6.80757">
        <ele>1295.99</ele>
        <time>2017-10-17T14:13:32Z</time>
      </trkpt>
      <trkpt lat="46.02174" lon="6.80751">
        <ele>1293.11</ele>
        <time>2017-10-17T14:13:39Z</time>
      </trkpt>
      <trkpt lat="46.0219" lon="6.80736">
        <ele>1289.75</ele>
        <time>2017-10-17T14:13:46Z</time>
      </trkpt>
      <trkpt lat="46.02205" lon="6.80715">
        <ele>1286.38</ele>
        <time>2017-10-17T14:13:53Z</time>
      </trkpt>
      <trkpt lat="46.02208" lon="6.80715">
        <ele>1285.9</ele>
        <time>2017-10-17T14:13:54Z</time>
      </trkpt>
      <trkpt lat="46.02211" lon="6.80716">
        <ele>1285.42</ele>
        <time>2017-10-17T14:13:55Z</time>
      </trkpt>
      <trkpt lat="46.02226" lon="6.8072">
        <ele>1282.54</ele>
        <time>2017-10-17T14:14:00Z</time>
      </trkpt>
      <trkpt lat="46.0223" lon="6.80718">
        <ele>1282.06</ele>
        <time>2017-10-17T14:14:01Z</time>
      </trkpt>
      <trkpt lat="46.02232" lon="6.80714">
        <ele>1281.57</ele>
        <time>2017-10-17T14:14:02Z</time>
      </trkpt>
      <trkpt lat="46.02233" lon="6.8071">
        <ele>1281.57</ele>
        <time>2017-10-17T14:14:03Z</time>
      </trkpt>
      <trkpt lat="46.02235" lon="6.80705">
        <ele>1281.57</ele>
        <time>2017-10-17T14:14:04Z</time>
      </trkpt>
      <trkpt lat="46.02236" lon="6.80701">
        <ele>1281.09</ele>
        <time>2017-10-17T14:14:05Z</time>
      </trkpt>
      <trkpt lat="46.02237" lon="6.80696">
        <ele>1280.61</ele>
        <time>2017-10-17T14:14:06Z</time>
      </trkpt>
      <trkpt lat="46.02238" lon="6.80692">
        <ele>1280.61</ele>
        <time>2017-10-17T14:14:07Z</time>
      </trkpt>
      <trkpt lat="46.02239" lon="6.80687">
        <ele>1280.61</ele>
        <time>2017-10-17T14:14:08Z</time>
      </trkpt>
      <trkpt lat="46.02241" lon="6.80678">
        <ele>1280.13</ele>
        <time>2017-10-17T14:14:10Z</time>
      </trkpt>
      <trkpt lat="46.0224" lon="6.80674">
        <ele>1280.13</ele>
        <time>2017-10-17T14:14:11Z</time>
      </trkpt>
      <trkpt lat="46.02239" lon="6.8067">
        <ele>1280.61</ele>
        <time>2017-10-17T14:14:12Z</time>
      </trkpt>
      <trkpt lat="46.02238" lon="6.80666">
        <ele>1280.61</ele>
        <time>2017-10-17T14:14:13Z</time>
      </trkpt>
      <trkpt lat="46.02237" lon="6.80662">
        <ele>1280.13</ele>
        <time>2017-10-17T14:14:14Z</time>
      </trkpt>
      <trkpt lat="46.02235" lon="6.80658">
        <ele>1280.13</ele>
        <time>2017-10-17T14:14:15Z</time>
      </trkpt>
      <trkpt lat="46.02233" lon="6.80655">
        <ele>1280.13</ele>
        <time>2017-10-17T14:14:16Z</time>
      </trkpt>
      <trkpt lat="46.02235" lon="6.80625">
        <ele>1279.17</ele>
        <time>2017-10-17T14:14:23Z</time>
      </trkpt>
      <trkpt lat="46.02237" lon="6.80616">
        <ele>1278.21</ele>
        <time>2017-10-17T14:14:25Z</time>
      </trkpt>
      <trkpt lat="46.02246" lon="6.8059">
        <ele>1278.21</ele>
        <time>2017-10-17T14:14:33Z</time>
      </trkpt>
      <trkpt lat="46.02248" lon="6.80588">
        <ele>1278.21</ele>
        <time>2017-10-17T14:14:34Z</time>
      </trkpt>
      <trkpt lat="46.0225" lon="6.80586">
        <ele>1278.21</ele>
        <time>2017-10-17T14:14:35Z</time>
      </trkpt>
      <trkpt lat="46.02252" lon="6.80583">
        <ele>1277.73</ele>
        <time>2017-10-17T14:14:36Z</time>
      </trkpt>
      <trkpt lat="46.02255" lon="6.8058">
        <ele>1277.73</ele>
        <time>2017-10-17T14:14:37Z</time>
      </trkpt>
      <trkpt lat="46.02257" lon="6.80577">
        <ele>1277.25</ele>
        <time>2017-10-17T14:14:38Z</time>
      </trkpt>
      <trkpt lat="46.02262" lon="6.80567">
        <ele>1277.25</ele>
        <time>2017-10-17T14:14:41Z</time>
      </trkpt>
      <trkpt lat="46.02262" lon="6.80533">
        <ele>1277.73</ele>
        <time>2017-10-17T14:14:50Z</time>
      </trkpt>
      <trkpt lat="46.0226" lon="6.80502">
        <ele>1276.77</ele>
        <time>2017-10-17T14:14:58Z</time>
      </trkpt>
      <trkpt lat="46.02276" lon="6.8048">
        <ele>1278.21</ele>
        <time>2017-10-17T14:15:08Z</time>
      </trkpt>
      <trkpt lat="46.02288" lon="6.80455">
        <ele>1279.65</ele>
        <time>2017-10-17T14:15:18Z</time>
      </trkpt>
      <trkpt lat="46.02288" lon="6.80447">
        <ele>1279.65</ele>
        <time>2017-10-17T14:15:20Z</time>
      </trkpt>
      <trkpt lat="46.02287" lon="6.80443">
        <ele>1279.65</ele>
        <time>2017-10-17T14:15:21Z</time>
      </trkpt>
      <trkpt lat="46.02286" lon="6.80429">
        <ele>1279.17</ele>
        <time>2017-10-17T14:15:25Z</time>
      </trkpt>
      <trkpt lat="46.02286" lon="6.804">
        <ele>1279.17</ele>
        <time>2017-10-17T14:15:34Z</time>
      </trkpt>
      <trkpt lat="46.02275" lon="6.80369">
        <ele>1281.09</ele>
        <time>2017-10-17T14:15:44Z</time>
      </trkpt>
      <trkpt lat="46.02268" lon="6.80338">
        <ele>1282.54</ele>
        <time>2017-10-17T14:15:54Z</time>
      </trkpt>
      <trkpt lat="46.02265" lon="6.8032">
        <ele>1283.98</ele>
        <time>2017-10-17T14:16:00Z</time>
      </trkpt>
      <trkpt lat="46.02264" lon="6.80317">
        <ele>1283.98</ele>
        <time>2017-10-17T14:16:01Z</time>
      </trkpt>
      <trkpt lat="46.02263" lon="6.80314">
        <ele>1283.98</ele>
        <time>2017-10-17T14:16:02Z</time>
      </trkpt>
      <trkpt lat="46.02261" lon="6.80311">
        <ele>1284.46</ele>
        <time>2017-10-17T14:16:03Z</time>
      </trkpt>
      <trkpt lat="46.0226" lon="6.80308">
        <ele>1284.46</ele>
        <time>2017-10-17T14:16:04Z</time>
      </trkpt>
      <trkpt lat="46.02259" lon="6.80305">
        <ele>1284.46</ele>
        <time>2017-10-17T14:16:05Z</time>
      </trkpt>
      <trkpt lat="46.02258" lon="6.80302">
        <ele>1284.46</ele>
        <time>2017-10-17T14:16:06Z</time>
      </trkpt>
      <trkpt lat="46.02258" lon="6.80299">
        <ele>1284.46</ele>
        <time>2017-10-17T14:16:07Z</time>
      </trkpt>
      <trkpt lat="46.02257" lon="6.80295">
        <ele>1284.46</ele>
        <time>2017-10-17T14:16:08Z</time>
      </trkpt>
      <trkpt lat="46.02258" lon="6.80292">
        <ele>1284.46</ele>
        <time>2017-10-17T14:16:09Z</time>
      </trkpt>
      <trkpt lat="46.02258" lon="6.80288">
        <ele>1283.98</ele>
        <time>2017-10-17T14:16:10Z</time>
      </trkpt>
      <trkpt lat="46.02258" lon="6.80285">
        <ele>1283.98</ele>
        <time>2017-10-17T14:16:11Z</time>
      </trkpt>
      <trkpt lat="46.02258" lon="6.80271">
        <ele>1283.02</ele>
        <time>2017-10-17T14:16:15Z</time>
      </trkpt>
      <trkpt lat="46.02258" lon="6.80267">
        <ele>1283.02</ele>
        <time>2017-10-17T14:16:16Z</time>
      </trkpt>
      <trkpt lat="46.02258" lon="6.80263">
        <ele>1283.02</ele>
        <time>2017-10-17T14:16:17Z</time>
      </trkpt>
      <trkpt lat="46.02255" lon="6.80231">
        <ele>1282.54</ele>
        <time>2017-10-17T14:16:25Z</time>
      </trkpt>
      <trkpt lat="46.02257" lon="6.80202">
        <ele>1282.54</ele>
        <time>2017-10-17T14:16:33Z</time>
      </trkpt>
      <trkpt lat="46.02257" lon="6.80174">
        <ele>1283.02</ele>
        <time>2017-10-17T14:16:41Z</time>
      </trkpt>
      <trkpt lat="46.02259" lon="6.80157">
        <ele>1283.02</ele>
        <time>2017-10-17T14:16:46Z</time>
      </trkpt>
      <trkpt lat="46.0226" lon="6.80154">
        <ele>1283.02</ele>
        <time>2017-10-17T14:16:47Z</time>
      </trkpt>
      <trkpt lat="46.02271" lon="6.80124">
        <ele>1283.5</ele>
        <time>2017-10-17T14:16:56Z</time>
      </trkpt>
      <trkpt lat="46.0228" lon="6.80094">
        <ele>1285.42</ele>
        <time>2017-10-17T14:17:05Z</time>
      </trkpt>
      <trkpt lat="46.02281" lon="6.80091">
        <ele>1285.42</ele>
        <time>2017-10-17T14:17:06Z</time>
      </trkpt>
      <trkpt lat="46.0228" lon="6.80086">
        <ele>1285.42</ele>
        <time>2017-10-17T14:17:07Z</time>
      </trkpt>
      <trkpt lat="46.02279" lon="6.80083">
        <ele>1285.42</ele>
        <time>2017-10-17T14:17:08Z</time>
      </trkpt>
      <trkpt lat="46.02278" lon="6.8008">
        <ele>1285.9</ele>
        <time>2017-10-17T14:17:09Z</time>
      </trkpt>
      <trkpt lat="46.02276" lon="6.80077">
        <ele>1285.9</ele>
        <time>2017-10-17T14:17:10Z</time>
      </trkpt>
      <trkpt lat="46.02275" lon="6.80075">
        <ele>1286.38</ele>
        <time>2017-10-17T14:17:11Z</time>
      </trkpt>
      <trkpt lat="46.02273" lon="6.80073">
        <ele>1286.38</ele>
        <time>2017-10-17T14:17:12Z</time>
      </trkpt>
      <trkpt lat="46.02272" lon="6.80071">
        <ele>1286.38</ele>
        <time>2017-10-17T14:17:13Z</time>
      </trkpt>
      <trkpt lat="46.0227" lon="6.80068">
        <ele>1286.86</ele>
        <time>2017-10-17T14:17:14Z</time>
      </trkpt>
      <trkpt lat="46.02269" lon="6.80066">
        <ele>1286.86</ele>
        <time>2017-10-17T14:17:15Z</time>
      </trkpt>
      <trkpt lat="46.02268" lon="6.80064">
        <ele>1286.86</ele>
        <time>2017-10-17T14:17:16Z</time>
      </trkpt>
      <trkpt lat="46.02263" lon="6.80053">
        <ele>1286.38</ele>
        <time>2017-10-17T14:17:20Z</time>
      </trkpt>
      <trkpt lat="46.02263" lon="6.8005">
        <ele>1285.9</ele>
        <time>2017-10-17T14:17:21Z</time>
      </trkpt>
      <trkpt lat="46.02262" lon="6.80046">
        <ele>1285.9</ele>
        <time>2017-10-17T14:17:22Z</time>
      </trkpt>
      <trkpt lat="46.02258" lon="6.80022">
        <ele>1282.06</ele>
        <time>2017-10-17T14:17:30Z</time>
      </trkpt>
      <trkpt lat="46.02264" lon="6.80006">
        <ele>1279.17</ele>
        <time>2017-10-17T14:17:36Z</time>
      </trkpt>
      <trkpt lat="46.02272" lon="6.79985">
        <ele>1276.29</ele>
        <time>2017-10-17T14:17:43Z</time>
      </trkpt>
      <trkpt lat="46.02275" lon="6.79968">
        <ele>1272.92</ele>
        <time>2017-10-17T14:17:49Z</time>
      </trkpt>
      <trkpt lat="46.02274" lon="6.79946">
        <ele>1269.56</ele>
        <time>2017-10-17T14:17:55Z</time>
      </trkpt>
      <trkpt lat="46.02271" lon="6.79926">
        <ele>1266.19</ele>
        <time>2017-10-17T14:18:01Z</time>
      </trkpt>
      <trkpt lat="46.02272" lon="6.79923">
        <ele>1265.71</ele>
        <time>2017-10-17T14:18:02Z</time>
      </trkpt>
      <trkpt lat="46.02272" lon="6.79919">
        <ele>1265.23</ele>
        <time>2017-10-17T14:18:03Z</time>
      </trkpt>
      <trkpt lat="46.02278" lon="6.799">
        <ele>1261.87</ele>
        <time>2017-10-17T14:18:09Z</time>
      </trkpt>
      <trkpt lat="46.02292" lon="6.79878">
        <ele>1258.98</ele>
        <time>2017-10-17T14:18:16Z</time>
      </trkpt>
      <trkpt lat="46.02294" lon="6.79877">
        <ele>1258.5</ele>
        <time>2017-10-17T14:18:17Z</time>
      </trkpt>
      <trkpt lat="46.02309" lon="6.79877">
        <ele>1255.14</ele>
        <time>2017-10-17T14:18:23Z</time>
      </trkpt>
      <trkpt lat="46.02311" lon="6.79874">
        <ele>1254.18</ele>
        <time>2017-10-17T14:18:24Z</time>
      </trkpt>
      <trkpt lat="46.02312" lon="6.79869">
        <ele>1254.18</ele>
        <time>2017-10-17T14:18:25Z</time>
      </trkpt>
      <trkpt lat="46.02312" lon="6.79864">
        <ele>1254.18</ele>
        <time>2017-10-17T14:18:26Z</time>
      </trkpt>
      <trkpt lat="46.0231" lon="6.79859">
        <ele>1253.7</ele>
        <time>2017-10-17T14:18:27Z</time>
      </trkpt>
      <trkpt lat="46.02309" lon="6.79854">
        <ele>1253.22</ele>
        <time>2017-10-17T14:18:28Z</time>
      </trkpt>
      <trkpt lat="46.02308" lon="6.79849">
        <ele>1252.25</ele>
        <time>2017-10-17T14:18:29Z</time>
      </trkpt>
      <trkpt lat="46.02306" lon="6.79845">
        <ele>1251.77</ele>
        <time>2017-10-17T14:18:30Z</time>
      </trkpt>
      <trkpt lat="46.02299" lon="6.79816">
        <ele>1248.41</ele>
        <time>2017-10-17T14:18:37Z</time>
      </trkpt>
      <trkpt lat="46.02296" lon="6.79803">
        <ele>1246.97</ele>
        <time>2017-10-17T14:18:40Z</time>
      </trkpt>
      <trkpt lat="46.02295" lon="6.79789">
        <ele>1245.53</ele>
        <time>2017-10-17T14:18:43Z</time>
      </trkpt>
      <trkpt lat="46.02294" lon="6.79773">
        <ele>1243.6</ele>
        <time>2017-10-17T14:18:46Z</time>
      </trkpt>
      <trkpt lat="46.02294" lon="6.79743">
        <ele>1242.64</ele>
        <time>2017-10-17T14:18:53Z</time>
      </trkpt>
      <trkpt lat="46.02299" lon="6.79711">
        <ele>1242.16</ele>
        <time>2017-10-17T14:19:01Z</time>
      </trkpt>
      <trkpt lat="46.02295" lon="6.79679">
        <ele>1241.2</ele>
        <time>2017-10-17T14:19:09Z</time>
      </trkpt>
      <trkpt lat="46.02284" lon="6.79652">
        <ele>1240.72</ele>
        <time>2017-10-17T14:19:17Z</time>
      </trkpt>
      <trkpt lat="46.02282" lon="6.79623">
        <ele>1239.76</ele>
        <time>2017-10-17T14:19:25Z</time>
      </trkpt>
      <trkpt lat="46.02279" lon="6.79594">
        <ele>1238.32</ele>
        <time>2017-10-17T14:19:32Z</time>
      </trkpt>
      <trkpt lat="46.02281" lon="6.79573">
        <ele>1236.39</ele>
        <time>2017-10-17T14:19:37Z</time>
      </trkpt>
      <trkpt lat="46.02282" lon="6.79544">
        <ele>1234.95</ele>
        <time>2017-10-17T14:19:44Z</time>
      </trkpt>
      <trkpt lat="46.02284" lon="6.79515">
        <ele>1233.03</ele>
        <time>2017-10-17T14:19:51Z</time>
      </trkpt>
      <trkpt lat="46.02285" lon="6.79496">
        <ele>1230.14</ele>
        <time>2017-10-17T14:19:56Z</time>
      </trkpt>
      <trkpt lat="46.02285" lon="6.79493">
        <ele>1229.18</ele>
        <time>2017-10-17T14:19:57Z</time>
      </trkpt>
      <trkpt lat="46.02287" lon="6.79477">
        <ele>1226.3</ele>
        <time>2017-10-17T14:20:01Z</time>
      </trkpt>
      <trkpt lat="46.02289" lon="6.79473">
        <ele>1225.82</ele>
        <time>2017-10-17T14:20:02Z</time>
      </trkpt>
      <trkpt lat="46.02292" lon="6.79471">
        <ele>1224.86</ele>
        <time>2017-10-17T14:20:03Z</time>
      </trkpt>
      <trkpt lat="46.02301" lon="6.79458">
        <ele>1221.97</ele>
        <time>2017-10-17T14:20:07Z</time>
      </trkpt>
      <trkpt lat="46.023" lon="6.79452">
        <ele>1221.49</ele>
        <time>2017-10-17T14:20:08Z</time>
      </trkpt>
      <trkpt lat="46.02299" lon="6.79448">
        <ele>1221.01</ele>
        <time>2017-10-17T14:20:09Z</time>
      </trkpt>
      <trkpt lat="46.02298" lon="6.79443">
        <ele>1221.01</ele>
        <time>2017-10-17T14:20:10Z</time>
      </trkpt>
      <trkpt lat="46.02296" lon="6.79439">
        <ele>1220.53</ele>
        <time>2017-10-17T14:20:11Z</time>
      </trkpt>
      <trkpt lat="46.02294" lon="6.79436">
        <ele>1220.53</ele>
        <time>2017-10-17T14:20:12Z</time>
      </trkpt>
      <trkpt lat="46.02292" lon="6.79433">
        <ele>1220.05</ele>
        <time>2017-10-17T14:20:13Z</time>
      </trkpt>
      <trkpt lat="46.02286" lon="6.79416">
        <ele>1217.65</ele>
        <time>2017-10-17T14:20:19Z</time>
      </trkpt>
      <trkpt lat="46.02286" lon="6.79413">
        <ele>1216.69</ele>
        <time>2017-10-17T14:20:20Z</time>
      </trkpt>
      <trkpt lat="46.02285" lon="6.79411">
        <ele>1216.21</ele>
        <time>2017-10-17T14:20:21Z</time>
      </trkpt>
      <trkpt lat="46.02285" lon="6.79408">
        <ele>1215.72</ele>
        <time>2017-10-17T14:20:22Z</time>
      </trkpt>
      <trkpt lat="46.02284" lon="6.79405">
        <ele>1214.76</ele>
        <time>2017-10-17T14:20:23Z</time>
      </trkpt>
      <trkpt lat="46.02282" lon="6.79402">
        <ele>1214.28</ele>
        <time>2017-10-17T14:20:24Z</time>
      </trkpt>
      <trkpt lat="46.02282" lon="6.79398">
        <ele>1213.8</ele>
        <time>2017-10-17T14:20:25Z</time>
      </trkpt>
      <trkpt lat="46.02282" lon="6.79395">
        <ele>1212.84</ele>
        <time>2017-10-17T14:20:26Z</time>
      </trkpt>
      <trkpt lat="46.02281" lon="6.79391">
        <ele>1212.36</ele>
        <time>2017-10-17T14:20:27Z</time>
      </trkpt>
      <trkpt lat="46.02281" lon="6.79387">
        <ele>1211.4</ele>
        <time>2017-10-17T14:20:28Z</time>
      </trkpt>
      <trkpt lat="46.0228" lon="6.79384">
        <ele>1211.4</ele>
        <time>2017-10-17T14:20:29Z</time>
      </trkpt>
      <trkpt lat="46.0228" lon="6.7938">
        <ele>1210.92</ele>
        <time>2017-10-17T14:20:30Z</time>
      </trkpt>
      <trkpt lat="46.02281" lon="6.79376">
        <ele>1210.44</ele>
        <time>2017-10-17T14:20:31Z</time>
      </trkpt>
      <trkpt lat="46.02281" lon="6.79373">
        <ele>1209.96</ele>
        <time>2017-10-17T14:20:32Z</time>
      </trkpt>
      <trkpt lat="46.02281" lon="6.7937">
        <ele>1209.48</ele>
        <time>2017-10-17T14:20:33Z</time>
      </trkpt>
      <trkpt lat="46.02281" lon="6.79366">
        <ele>1209</ele>
        <time>2017-10-17T14:20:34Z</time>
      </trkpt>
      <trkpt lat="46.02282" lon="6.79362">
        <ele>1208.51</ele>
        <time>2017-10-17T14:20:35Z</time>
      </trkpt>
      <trkpt lat="46.02282" lon="6.79359">
        <ele>1208.03</ele>
        <time>2017-10-17T14:20:36Z</time>
      </trkpt>
      <trkpt lat="46.02289" lon="6.79346">
        <ele>1204.19</ele>
        <time>2017-10-17T14:20:41Z</time>
      </trkpt>
      <trkpt lat="46.02299" lon="6.79325">
        <ele>1200.82</ele>
        <time>2017-10-17T14:20:46Z</time>
      </trkpt>
      <trkpt lat="46.02313" lon="6.79293">
        <ele>1198.9</ele>
        <time>2017-10-17T14:20:53Z</time>
      </trkpt>
      <trkpt lat="46.02312" lon="6.7928">
        <ele>1198.42</ele>
        <time>2017-10-17T14:20:56Z</time>
      </trkpt>
      <trkpt lat="46.02311" lon="6.79276">
        <ele>1198.42</ele>
        <time>2017-10-17T14:20:57Z</time>
      </trkpt>
      <trkpt lat="46.02309" lon="6.79272">
        <ele>1198.42</ele>
        <time>2017-10-17T14:20:58Z</time>
      </trkpt>
      <trkpt lat="46.02307" lon="6.79268">
        <ele>1198.42</ele>
        <time>2017-10-17T14:20:59Z</time>
      </trkpt>
      <trkpt lat="46.02305" lon="6.79266">
        <ele>1197.94</ele>
        <time>2017-10-17T14:21:00Z</time>
      </trkpt>
      <trkpt lat="46.02303" lon="6.79263">
        <ele>1197.46</ele>
        <time>2017-10-17T14:21:01Z</time>
      </trkpt>
      <trkpt lat="46.02288" lon="6.79254">
        <ele>1194.09</ele>
        <time>2017-10-17T14:21:08Z</time>
      </trkpt>
      <trkpt lat="46.02277" lon="6.79252">
        <ele>1191.21</ele>
        <time>2017-10-17T14:21:14Z</time>
      </trkpt>
      <trkpt lat="46.02275" lon="6.79251">
        <ele>1190.25</ele>
        <time>2017-10-17T14:21:15Z</time>
      </trkpt>
      <trkpt lat="46.02273" lon="6.79249">
        <ele>1189.77</ele>
        <time>2017-10-17T14:21:16Z</time>
      </trkpt>
      <trkpt lat="46.02271" lon="6.79246">
        <ele>1188.81</ele>
        <time>2017-10-17T14:21:17Z</time>
      </trkpt>
      <trkpt lat="46.0227" lon="6.79243">
        <ele>1188.33</ele>
        <time>2017-10-17T14:21:18Z</time>
      </trkpt>
      <trkpt lat="46.02269" lon="6.7924">
        <ele>1187.37</ele>
        <time>2017-10-17T14:21:19Z</time>
      </trkpt>
      <trkpt lat="46.02268" lon="6.79238">
        <ele>1186.88</ele>
        <time>2017-10-17T14:21:20Z</time>
      </trkpt>
      <trkpt lat="46.02268" lon="6.79234">
        <ele>1186.4</ele>
        <time>2017-10-17T14:21:21Z</time>
      </trkpt>
      <trkpt lat="46.02268" lon="6.79231">
        <ele>1185.92</ele>
        <time>2017-10-17T14:21:22Z</time>
      </trkpt>
      <trkpt lat="46.02268" lon="6.79228">
        <ele>1184.96</ele>
        <time>2017-10-17T14:21:23Z</time>
      </trkpt>
      <trkpt lat="46.02268" lon="6.79225">
        <ele>1184.48</ele>
        <time>2017-10-17T14:21:24Z</time>
      </trkpt>
      <trkpt lat="46.02269" lon="6.79222">
        <ele>1184</ele>
        <time>2017-10-17T14:21:25Z</time>
      </trkpt>
      <trkpt lat="46.02269" lon="6.7922">
        <ele>1183.04</ele>
        <time>2017-10-17T14:21:26Z</time>
      </trkpt>
      <trkpt lat="46.02272" lon="6.7921">
        <ele>1181.6</ele>
        <time>2017-10-17T14:21:29Z</time>
      </trkpt>
      <trkpt lat="46.02272" lon="6.79189">
        <ele>1178.23</ele>
        <time>2017-10-17T14:21:35Z</time>
      </trkpt>
      <trkpt lat="46.02271" lon="6.79177">
        <ele>1176.31</ele>
        <time>2017-10-17T14:21:39Z</time>
      </trkpt>
      <trkpt lat="46.0227" lon="6.79165">
        <ele>1173.43</ele>
        <time>2017-10-17T14:21:43Z</time>
      </trkpt>
      <trkpt lat="46.02268" lon="6.79161">
        <ele>1172.95</ele>
        <time>2017-10-17T14:21:44Z</time>
      </trkpt>
      <trkpt lat="46.02268" lon="6.79158">
        <ele>1171.98</ele>
        <time>2017-10-17T14:21:45Z</time>
      </trkpt>
      <trkpt lat="46.02266" lon="6.79154">
        <ele>1171.02</ele>
        <time>2017-10-17T14:21:46Z</time>
      </trkpt>
      <trkpt lat="46.02266" lon="6.7915">
        <ele>1170.54</ele>
        <time>2017-10-17T14:21:47Z</time>
      </trkpt>
      <trkpt lat="46.02266" lon="6.79146">
        <ele>1170.06</ele>
        <time>2017-10-17T14:21:48Z</time>
      </trkpt>
      <trkpt lat="46.02265" lon="6.79142">
        <ele>1169.58</ele>
        <time>2017-10-17T14:21:49Z</time>
      </trkpt>
      <trkpt lat="46.02265" lon="6.79139">
        <ele>1168.62</ele>
        <time>2017-10-17T14:21:50Z</time>
      </trkpt>
      <trkpt lat="46.02263" lon="6.79124">
        <ele>1165.74</ele>
        <time>2017-10-17T14:21:54Z</time>
      </trkpt>
      <trkpt lat="46.02261" lon="6.79118">
        <ele>1164.77</ele>
        <time>2017-10-17T14:21:56Z</time>
      </trkpt>
      <trkpt lat="46.0226" lon="6.79115">
        <ele>1164.29</ele>
        <time>2017-10-17T14:21:57Z</time>
      </trkpt>
      <trkpt lat="46.02255" lon="6.79099">
        <ele>1160.45</ele>
        <time>2017-10-17T14:22:03Z</time>
      </trkpt>
      <trkpt lat="46.02255" lon="6.79087">
        <ele>1159.01</ele>
        <time>2017-10-17T14:22:06Z</time>
      </trkpt>
      <trkpt lat="46.02254" lon="6.79064">
        <ele>1155.64</ele>
        <time>2017-10-17T14:22:12Z</time>
      </trkpt>
      <trkpt lat="46.02254" lon="6.79043">
        <ele>1152.76</ele>
        <time>2017-10-17T14:22:17Z</time>
      </trkpt>
      <trkpt lat="46.02251" lon="6.79029">
        <ele>1150.84</ele>
        <time>2017-10-17T14:22:21Z</time>
      </trkpt>
      <trkpt lat="46.02253" lon="6.79015">
        <ele>1148.43</ele>
        <time>2017-10-17T14:22:25Z</time>
      </trkpt>
      <trkpt lat="46.02254" lon="6.79011">
        <ele>1147.95</ele>
        <time>2017-10-17T14:22:26Z</time>
      </trkpt>
      <trkpt lat="46.02256" lon="6.79008">
        <ele>1146.99</ele>
        <time>2017-10-17T14:22:27Z</time>
      </trkpt>
      <trkpt lat="46.02258" lon="6.79004">
        <ele>1146.03</ele>
        <time>2017-10-17T14:22:28Z</time>
      </trkpt>
      <trkpt lat="46.02259" lon="6.79001">
        <ele>1146.03</ele>
        <time>2017-10-17T14:22:29Z</time>
      </trkpt>
      <trkpt lat="46.02259" lon="6.78997">
        <ele>1145.07</ele>
        <time>2017-10-17T14:22:30Z</time>
      </trkpt>
      <trkpt lat="46.0226" lon="6.78994">
        <ele>1144.59</ele>
        <time>2017-10-17T14:22:31Z</time>
      </trkpt>
      <trkpt lat="46.0226" lon="6.7899">
        <ele>1144.59</ele>
        <time>2017-10-17T14:22:32Z</time>
      </trkpt>
      <trkpt lat="46.02259" lon="6.78986">
        <ele>1144.11</ele>
        <time>2017-10-17T14:22:33Z</time>
      </trkpt>
      <trkpt lat="46.02259" lon="6.78981">
        <ele>1143.63</ele>
        <time>2017-10-17T14:22:34Z</time>
      </trkpt>
      <trkpt lat="46.0226" lon="6.78977">
        <ele>1143.63</ele>
        <time>2017-10-17T14:22:35Z</time>
      </trkpt>
      <trkpt lat="46.02261" lon="6.78973">
        <ele>1143.14</ele>
        <time>2017-10-17T14:22:36Z</time>
      </trkpt>
      <trkpt lat="46.02261" lon="6.7897">
        <ele>1142.66</ele>
        <time>2017-10-17T14:22:37Z</time>
      </trkpt>
      <trkpt lat="46.02262" lon="6.78966">
        <ele>1142.18</ele>
        <time>2017-10-17T14:22:38Z</time>
      </trkpt>
      <trkpt lat="46.02263" lon="6.78963">
        <ele>1142.18</ele>
        <time>2017-10-17T14:22:39Z</time>
      </trkpt>
      <trkpt lat="46.02264" lon="6.78958">
        <ele>1141.7</ele>
        <time>2017-10-17T14:22:40Z</time>
      </trkpt>
      <trkpt lat="46.02262" lon="6.78951">
        <ele>1140.74</ele>
        <time>2017-10-17T14:22:41Z</time>
      </trkpt>
      <trkpt lat="46.02261" lon="6.78946">
        <ele>1140.74</ele>
        <time>2017-10-17T14:22:42Z</time>
      </trkpt>
      <trkpt lat="46.02261" lon="6.78941">
        <ele>1140.26</ele>
        <time>2017-10-17T14:22:43Z</time>
      </trkpt>
      <trkpt lat="46.0226" lon="6.78937">
        <ele>1139.78</ele>
        <time>2017-10-17T14:22:44Z</time>
      </trkpt>
      <trkpt lat="46.02259" lon="6.78932">
        <ele>1139.78</ele>
        <time>2017-10-17T14:22:45Z</time>
      </trkpt>
      <trkpt lat="46.02254" lon="6.78898">
        <ele>1137.86</ele>
        <time>2017-10-17T14:22:53Z</time>
      </trkpt>
      <trkpt lat="46.0225" lon="6.78868">
        <ele>1136.42</ele>
        <time>2017-10-17T14:23:01Z</time>
      </trkpt>
      <trkpt lat="46.02252" lon="6.78841">
        <ele>1133.53</ele>
        <time>2017-10-17T14:23:08Z</time>
      </trkpt>
      <trkpt lat="46.02259" lon="6.78815">
        <ele>1131.13</ele>
        <time>2017-10-17T14:23:15Z</time>
      </trkpt>
      <trkpt lat="46.02265" lon="6.78795">
        <ele>1127.76</ele>
        <time>2017-10-17T14:23:20Z</time>
      </trkpt>
      <trkpt lat="46.02281" lon="6.78773">
        <ele>1126.32</ele>
        <time>2017-10-17T14:23:27Z</time>
      </trkpt>
      <trkpt lat="46.02288" lon="6.78713">
        <ele>1124.88</ele>
        <time>2017-10-17T14:23:40Z</time>
      </trkpt>
      <trkpt lat="46.02294" lon="6.78682">
        <ele>1122</ele>
        <time>2017-10-17T14:23:46Z</time>
      </trkpt>
      <trkpt lat="46.02306" lon="6.78657">
        <ele>1118.63</ele>
        <time>2017-10-17T14:23:53Z</time>
      </trkpt>
      <trkpt lat="46.02309" lon="6.78652">
        <ele>1118.15</ele>
        <time>2017-10-17T14:23:55Z</time>
      </trkpt>
      <trkpt lat="46.02317" lon="6.7864">
        <ele>1116.23</ele>
        <time>2017-10-17T14:24:00Z</time>
      </trkpt>
      <trkpt lat="46.02322" lon="6.78633">
        <ele>1114.79</ele>
        <time>2017-10-17T14:24:03Z</time>
      </trkpt>
      <trkpt lat="46.02324" lon="6.7863">
        <ele>1114.31</ele>
        <time>2017-10-17T14:24:04Z</time>
      </trkpt>
      <trkpt lat="46.02327" lon="6.78627">
        <ele>1113.82</ele>
        <time>2017-10-17T14:24:05Z</time>
      </trkpt>
      <trkpt lat="46.02329" lon="6.78624">
        <ele>1113.34</ele>
        <time>2017-10-17T14:24:06Z</time>
      </trkpt>
      <trkpt lat="46.02331" lon="6.7862">
        <ele>1113.34</ele>
        <time>2017-10-17T14:24:07Z</time>
      </trkpt>
      <trkpt lat="46.02334" lon="6.78613">
        <ele>1113.34</ele>
        <time>2017-10-17T14:24:09Z</time>
      </trkpt>
      <trkpt lat="46.02336" lon="6.78609">
        <ele>1112.38</ele>
        <time>2017-10-17T14:24:10Z</time>
      </trkpt>
      <trkpt lat="46.02337" lon="6.78605">
        <ele>1111.42</ele>
        <time>2017-10-17T14:24:11Z</time>
      </trkpt>
      <trkpt lat="46.02339" lon="6.78601">
        <ele>1110.94</ele>
        <time>2017-10-17T14:24:12Z</time>
      </trkpt>
      <trkpt lat="46.02341" lon="6.78597">
        <ele>1110.46</ele>
        <time>2017-10-17T14:24:13Z</time>
      </trkpt>
      <trkpt lat="46.02355" lon="6.78569">
        <ele>1108.06</ele>
        <time>2017-10-17T14:24:20Z</time>
      </trkpt>
      <trkpt lat="46.0237" lon="6.78548">
        <ele>1106.61</ele>
        <time>2017-10-17T14:24:27Z</time>
      </trkpt>
      <trkpt lat="46.02385" lon="6.78524">
        <ele>1105.65</ele>
        <time>2017-10-17T14:24:35Z</time>
      </trkpt>
      <trkpt lat="46.02402" lon="6.78499">
        <ele>1104.21</ele>
        <time>2017-10-17T14:24:43Z</time>
      </trkpt>
      <trkpt lat="46.02418" lon="6.78476">
        <ele>1103.25</ele>
        <time>2017-10-17T14:24:50Z</time>
      </trkpt>
      <trkpt lat="46.02432" lon="6.78454">
        <ele>1102.29</ele>
        <time>2017-10-17T14:24:57Z</time>
      </trkpt>
      <trkpt lat="46.0245" lon="6.78434">
        <ele>1102.77</ele>
        <time>2017-10-17T14:25:05Z</time>
      </trkpt>
      <trkpt lat="46.02465" lon="6.78409">
        <ele>1100.85</ele>
        <time>2017-10-17T14:25:13Z</time>
      </trkpt>
      <trkpt lat="46.02482" lon="6.78391">
        <ele>1099.89</ele>
        <time>2017-10-17T14:25:21Z</time>
      </trkpt>
      <trkpt lat="46.02503" lon="6.78372">
        <ele>1098.92</ele>
        <time>2017-10-17T14:25:29Z</time>
      </trkpt>
      <trkpt lat="46.02505" lon="6.78368">
        <ele>1098.44</ele>
        <time>2017-10-17T14:25:30Z</time>
      </trkpt>
      <trkpt lat="46.02508" lon="6.78362">
        <ele>1098.44</ele>
        <time>2017-10-17T14:25:31Z</time>
      </trkpt>
      <trkpt lat="46.02526" lon="6.7833">
        <ele>1096.52</ele>
        <time>2017-10-17T14:25:38Z</time>
      </trkpt>
      <trkpt lat="46.02541" lon="6.78302">
        <ele>1097</ele>
        <time>2017-10-17T14:25:46Z</time>
      </trkpt>
      <trkpt lat="46.02549" lon="6.78273">
        <ele>1096.52</ele>
        <time>2017-10-17T14:25:55Z</time>
      </trkpt>
      <trkpt lat="46.02552" lon="6.78267">
        <ele>1096.04</ele>
        <time>2017-10-17T14:25:57Z</time>
      </trkpt>
      <trkpt lat="46.02554" lon="6.78264">
        <ele>1095.56</ele>
        <time>2017-10-17T14:25:58Z</time>
      </trkpt>
      <trkpt lat="46.02556" lon="6.78262">
        <ele>1095.08</ele>
        <time>2017-10-17T14:25:59Z</time>
      </trkpt>
      <trkpt lat="46.02558" lon="6.78258">
        <ele>1094.6</ele>
        <time>2017-10-17T14:26:00Z</time>
      </trkpt>
      <trkpt lat="46.0256" lon="6.78256">
        <ele>1093.64</ele>
        <time>2017-10-17T14:26:01Z</time>
      </trkpt>
      <trkpt lat="46.02562" lon="6.78253">
        <ele>1093.64</ele>
        <time>2017-10-17T14:26:02Z</time>
      </trkpt>
      <trkpt lat="46.02565" lon="6.78253">
        <ele>1093.16</ele>
        <time>2017-10-17T14:26:03Z</time>
      </trkpt>
      <trkpt lat="46.02568" lon="6.78251">
        <ele>1092.2</ele>
        <time>2017-10-17T14:26:04Z</time>
      </trkpt>
      <trkpt lat="46.0257" lon="6.78249">
        <ele>1091.71</ele>
        <time>2017-10-17T14:26:05Z</time>
      </trkpt>
      <trkpt lat="46.02587" lon="6.78227">
        <ele>1088.83</ele>
        <time>2017-10-17T14:26:12Z</time>
      </trkpt>
      <trkpt lat="46.02603" lon="6.78202">
        <ele>1085.47</ele>
        <time>2017-10-17T14:26:19Z</time>
      </trkpt>
      <trkpt lat="46.02615" lon="6.78171">
        <ele>1083.06</ele>
        <time>2017-10-17T14:26:25Z</time>
      </trkpt>
      <trkpt lat="46.02631" lon="6.78148">
        <ele>1082.58</ele>
        <time>2017-10-17T14:26:32Z</time>
      </trkpt>
      <trkpt lat="46.02651" lon="6.78133">
        <ele>1081.14</ele>
        <time>2017-10-17T14:26:39Z</time>
      </trkpt>
      <trkpt lat="46.0267" lon="6.78112">
        <ele>1079.22</ele>
        <time>2017-10-17T14:26:46Z</time>
      </trkpt>
      <trkpt lat="46.02687" lon="6.78091">
        <ele>1079.22</ele>
        <time>2017-10-17T14:26:53Z</time>
      </trkpt>
      <trkpt lat="46.02704" lon="6.78071">
        <ele>1079.22</ele>
        <time>2017-10-17T14:27:00Z</time>
      </trkpt>
      <trkpt lat="46.02722" lon="6.78056">
        <ele>1078.74</ele>
        <time>2017-10-17T14:27:07Z</time>
      </trkpt>
      <trkpt lat="46.02738" lon="6.78037">
        <ele>1077.78</ele>
        <time>2017-10-17T14:27:14Z</time>
      </trkpt>
      <trkpt lat="46.02756" lon="6.78019">
        <ele>1076.81</ele>
        <time>2017-10-17T14:27:21Z</time>
      </trkpt>
      <trkpt lat="46.02775" lon="6.78">
        <ele>1075.85</ele>
        <time>2017-10-17T14:27:29Z</time>
      </trkpt>
      <trkpt lat="46.0279" lon="6.7798">
        <ele>1075.85</ele>
        <time>2017-10-17T14:27:36Z</time>
      </trkpt>
      <trkpt lat="46.02806" lon="6.7796">
        <ele>1076.33</ele>
        <time>2017-10-17T14:27:43Z</time>
      </trkpt>
      <trkpt lat="46.02823" lon="6.7794">
        <ele>1077.29</ele>
        <time>2017-10-17T14:27:51Z</time>
      </trkpt>
      <trkpt lat="46.02838" lon="6.77921">
        <ele>1076.81</ele>
        <time>2017-10-17T14:27:59Z</time>
      </trkpt>
      <trkpt lat="46.02857" lon="6.77903">
        <ele>1076.33</ele>
        <time>2017-10-17T14:28:07Z</time>
      </trkpt>
      <trkpt lat="46.02875" lon="6.77881">
        <ele>1076.33</ele>
        <time>2017-10-17T14:28:15Z</time>
      </trkpt>
      <trkpt lat="46.02891" lon="6.7786">
        <ele>1076.81</ele>
        <time>2017-10-17T14:28:22Z</time>
      </trkpt>
      <trkpt lat="46.02905" lon="6.77834">
        <ele>1078.26</ele>
        <time>2017-10-17T14:28:31Z</time>
      </trkpt>
      <trkpt lat="46.0292" lon="6.77815">
        <ele>1080.18</ele>
        <time>2017-10-17T14:28:40Z</time>
      </trkpt>
      <trkpt lat="46.02925" lon="6.77811">
        <ele>1081.14</ele>
        <time>2017-10-17T14:28:44Z</time>
      </trkpt>
      <trkpt lat="46.02931" lon="6.77805">
        <ele>1081.62</ele>
        <time>2017-10-17T14:28:49Z</time>
      </trkpt>
      <trkpt lat="46.02932" lon="6.77804">
        <ele>1081.62</ele>
        <time>2017-10-17T14:28:51Z</time>
      </trkpt>
      <trkpt lat="46.02935" lon="6.77803">
        <ele>1081.62</ele>
        <time>2017-10-17T14:28:53Z</time>
      </trkpt>
      <trkpt lat="46.02936" lon="6.77803">
        <ele>1082.1</ele>
        <time>2017-10-17T14:28:54Z</time>
      </trkpt>
      <trkpt lat="46.02937" lon="6.77802">
        <ele>1082.1</ele>
        <time>2017-10-17T14:28:55Z</time>
      </trkpt>
      <trkpt lat="46.02945" lon="6.77797">
        <ele>1082.1</ele>
        <time>2017-10-17T14:29:02Z</time>
      </trkpt>
      <trkpt lat="46.02947" lon="6.77796">
        <ele>1082.1</ele>
        <time>2017-10-17T14:29:03Z</time>
      </trkpt>
      <trkpt lat="46.02948" lon="6.77795">
        <ele>1082.1</ele>
        <time>2017-10-17T14:29:04Z</time>
      </trkpt>
      <trkpt lat="46.02949" lon="6.77793">
        <ele>1082.58</ele>
        <time>2017-10-17T14:29:05Z</time>
      </trkpt>
      <trkpt lat="46.0295" lon="6.77793">
        <ele>1082.58</ele>
        <time>2017-10-17T14:29:06Z</time>
      </trkpt>
      <trkpt lat="46.02952" lon="6.77791">
        <ele>1082.58</ele>
        <time>2017-10-17T14:29:08Z</time>
      </trkpt>
      <trkpt lat="46.02966" lon="6.77789">
        <ele>1082.58</ele>
        <time>2017-10-17T14:29:17Z</time>
      </trkpt>
      <trkpt lat="46.02967" lon="6.77788">
        <ele>1082.58</ele>
        <time>2017-10-17T14:29:19Z</time>
      </trkpt>
      <trkpt lat="46.02969" lon="6.77788">
        <ele>1083.06</ele>
        <time>2017-10-17T14:29:20Z</time>
      </trkpt>
      <trkpt lat="46.0297" lon="6.77787">
        <ele>1083.06</ele>
        <time>2017-10-17T14:29:21Z</time>
      </trkpt>
      <trkpt lat="46.02974" lon="6.77788">
        <ele>1084.02</ele>
        <time>2017-10-17T14:29:24Z</time>
      </trkpt>
      <trkpt lat="46.02975" lon="6.77787">
        <ele>1084.02</ele>
        <time>2017-10-17T14:29:25Z</time>
      </trkpt>
      <trkpt lat="46.02977" lon="6.77787">
        <ele>1084.02</ele>
        <time>2017-10-17T14:29:26Z</time>
      </trkpt>
      <trkpt lat="46.03003" lon="6.77776">
        <ele>1083.54</ele>
        <time>2017-10-17T14:29:42Z</time>
      </trkpt>
      <trkpt lat="46.03019" lon="6.77762">
        <ele>1084.02</ele>
        <time>2017-10-17T14:29:53Z</time>
      </trkpt>
      <trkpt lat="46.03019" lon="6.7776">
        <ele>1084.02</ele>
        <time>2017-10-17T14:29:54Z</time>
      </trkpt>
      <trkpt lat="46.03021" lon="6.77758">
        <ele>1084.5</ele>
        <time>2017-10-17T14:29:55Z</time>
      </trkpt>
      <trkpt lat="46.03022" lon="6.77756">
        <ele>1084.99</ele>
        <time>2017-10-17T14:29:56Z</time>
      </trkpt>
      <trkpt lat="46.03023" lon="6.77755">
        <ele>1084.99</ele>
        <time>2017-10-17T14:29:57Z</time>
      </trkpt>
      <trkpt lat="46.03024" lon="6.77754">
        <ele>1084.99</ele>
        <time>2017-10-17T14:29:58Z</time>
      </trkpt>
      <trkpt lat="46.03025" lon="6.77754">
        <ele>1084.99</ele>
        <time>2017-10-17T14:29:59Z</time>
      </trkpt>
      <trkpt lat="46.03044" lon="6.77742">
        <ele>1086.43</ele>
        <time>2017-10-17T14:30:13Z</time>
      </trkpt>
      <trkpt lat="46.03069" lon="6.7773">
        <ele>1088.83</ele>
        <time>2017-10-17T14:30:24Z</time>
      </trkpt>
      <trkpt lat="46.03093" lon="6.77722">
        <ele>1090.75</ele>
        <time>2017-10-17T14:30:35Z</time>
      </trkpt>
      <trkpt lat="46.03114" lon="6.77702">
        <ele>1092.2</ele>
        <time>2017-10-17T14:30:46Z</time>
      </trkpt>
      <trkpt lat="46.03135" lon="6.77677">
        <ele>1093.16</ele>
        <time>2017-10-17T14:30:56Z</time>
      </trkpt>
      <trkpt lat="46.03148" lon="6.77656">
        <ele>1092.2</ele>
        <time>2017-10-17T14:31:04Z</time>
      </trkpt>
      <trkpt lat="46.03158" lon="6.77637">
        <ele>1089.31</ele>
        <time>2017-10-17T14:31:11Z</time>
      </trkpt>
      <trkpt lat="46.0317" lon="6.77635">
        <ele>1085.95</ele>
        <time>2017-10-17T14:31:18Z</time>
      </trkpt>
      <trkpt lat="46.03172" lon="6.77634">
        <ele>1085.47</ele>
        <time>2017-10-17T14:31:19Z</time>
      </trkpt>
      <trkpt lat="46.03174" lon="6.77633">
        <ele>1084.99</ele>
        <time>2017-10-17T14:31:20Z</time>
      </trkpt>
      <trkpt lat="46.03188" lon="6.77631">
        <ele>1081.62</ele>
        <time>2017-10-17T14:31:26Z</time>
      </trkpt>
      <trkpt lat="46.03194" lon="6.77632">
        <ele>1080.66</ele>
        <time>2017-10-17T14:31:28Z</time>
      </trkpt>
      <trkpt lat="46.03207" lon="6.77632">
        <ele>1077.78</ele>
        <time>2017-10-17T14:31:33Z</time>
      </trkpt>
      <trkpt lat="46.0322" lon="6.7763">
        <ele>1074.89</ele>
        <time>2017-10-17T14:31:38Z</time>
      </trkpt>
      <trkpt lat="46.03222" lon="6.77629">
        <ele>1074.41</ele>
        <time>2017-10-17T14:31:39Z</time>
      </trkpt>
      <trkpt lat="46.03229" lon="6.77628">
        <ele>1072.97</ele>
        <time>2017-10-17T14:31:42Z</time>
      </trkpt>
      <trkpt lat="46.0323" lon="6.77625">
        <ele>1072.97</ele>
        <time>2017-10-17T14:31:43Z</time>
      </trkpt>
      <trkpt lat="46.0323" lon="6.77623">
        <ele>1072.49</ele>
        <time>2017-10-17T14:31:44Z</time>
      </trkpt>
      <trkpt lat="46.03229" lon="6.77621">
        <ele>1072.49</ele>
        <time>2017-10-17T14:31:45Z</time>
      </trkpt>
      <trkpt lat="46.03227" lon="6.77619">
        <ele>1072.01</ele>
        <time>2017-10-17T14:31:46Z</time>
      </trkpt>
      <trkpt lat="46.03225" lon="6.77617">
        <ele>1071.53</ele>
        <time>2017-10-17T14:31:47Z</time>
      </trkpt>
      <trkpt lat="46.03219" lon="6.77609">
        <ele>1068.16</ele>
        <time>2017-10-17T14:31:52Z</time>
      </trkpt>
      <trkpt lat="46.03219" lon="6.77606">
        <ele>1067.68</ele>
        <time>2017-10-17T14:31:53Z</time>
      </trkpt>
      <trkpt lat="46.0322" lon="6.77602">
        <ele>1067.2</ele>
        <time>2017-10-17T14:31:54Z</time>
      </trkpt>
      <trkpt lat="46.03222" lon="6.77599">
        <ele>1066.72</ele>
        <time>2017-10-17T14:31:55Z</time>
      </trkpt>
      <trkpt lat="46.03224" lon="6.77597">
        <ele>1066.24</ele>
        <time>2017-10-17T14:31:56Z</time>
      </trkpt>
      <trkpt lat="46.03226" lon="6.77595">
        <ele>1065.76</ele>
        <time>2017-10-17T14:31:57Z</time>
      </trkpt>
      <trkpt lat="46.03228" lon="6.77595">
        <ele>1065.76</ele>
        <time>2017-10-17T14:31:58Z</time>
      </trkpt>
      <trkpt lat="46.03231" lon="6.77594">
        <ele>1065.28</ele>
        <time>2017-10-17T14:31:59Z</time>
      </trkpt>
      <trkpt lat="46.03233" lon="6.77595">
        <ele>1064.8</ele>
        <time>2017-10-17T14:32:00Z</time>
      </trkpt>
      <trkpt lat="46.03236" lon="6.77596">
        <ele>1063.84</ele>
        <time>2017-10-17T14:32:01Z</time>
      </trkpt>
      <trkpt lat="46.03249" lon="6.77607">
        <ele>1060.47</ele>
        <time>2017-10-17T14:32:07Z</time>
      </trkpt>
      <trkpt lat="46.03262" lon="6.77611">
        <ele>1057.59</ele>
        <time>2017-10-17T14:32:12Z</time>
      </trkpt>
      <trkpt lat="46.0328" lon="6.77614">
        <ele>1054.22</ele>
        <time>2017-10-17T14:32:19Z</time>
      </trkpt>
      <trkpt lat="46.03303" lon="6.77622">
        <ele>1051.34</ele>
        <time>2017-10-17T14:32:27Z</time>
      </trkpt>
      <trkpt lat="46.03325" lon="6.77633">
        <ele>1048.94</ele>
        <time>2017-10-17T14:32:35Z</time>
      </trkpt>
      <trkpt lat="46.03343" lon="6.77639">
        <ele>1045.57</ele>
        <time>2017-10-17T14:32:41Z</time>
      </trkpt>
      <trkpt lat="46.03358" lon="6.77649">
        <ele>1042.21</ele>
        <time>2017-10-17T14:32:46Z</time>
      </trkpt>
      <trkpt lat="46.03372" lon="6.77657">
        <ele>1038.84</ele>
        <time>2017-10-17T14:32:52Z</time>
      </trkpt>
      <trkpt lat="46.03393" lon="6.77658">
        <ele>1035.48</ele>
        <time>2017-10-17T14:32:58Z</time>
      </trkpt>
      <trkpt lat="46.03406" lon="6.77656">
        <ele>1034.04</ele>
        <time>2017-10-17T14:33:02Z</time>
      </trkpt>
      <trkpt lat="46.03421" lon="6.77663">
        <ele>1030.19</ele>
        <time>2017-10-17T14:33:08Z</time>
      </trkpt>
      <trkpt lat="46.0344" lon="6.77668">
        <ele>1026.83</ele>
        <time>2017-10-17T14:33:14Z</time>
      </trkpt>
      <trkpt lat="46.03444" lon="6.77666">
        <ele>1026.34</ele>
        <time>2017-10-17T14:33:15Z</time>
      </trkpt>
      <trkpt lat="46.03447" lon="6.77663">
        <ele>1025.38</ele>
        <time>2017-10-17T14:33:16Z</time>
      </trkpt>
      <trkpt lat="46.03449" lon="6.7766">
        <ele>1025.38</ele>
        <time>2017-10-17T14:33:17Z</time>
      </trkpt>
      <trkpt lat="46.03451" lon="6.77656">
        <ele>1024.9</ele>
        <time>2017-10-17T14:33:18Z</time>
      </trkpt>
      <trkpt lat="46.03453" lon="6.77654">
        <ele>1024.42</ele>
        <time>2017-10-17T14:33:19Z</time>
      </trkpt>
      <trkpt lat="46.03455" lon="6.77648">
        <ele>1023.46</ele>
        <time>2017-10-17T14:33:21Z</time>
      </trkpt>
      <trkpt lat="46.03463" lon="6.77637">
        <ele>1020.58</ele>
        <time>2017-10-17T14:33:26Z</time>
      </trkpt>
      <trkpt lat="46.03474" lon="6.77631">
        <ele>1017.21</ele>
        <time>2017-10-17T14:33:32Z</time>
      </trkpt>
      <trkpt lat="46.03487" lon="6.77627">
        <ele>1013.85</ele>
        <time>2017-10-17T14:33:38Z</time>
      </trkpt>
      <trkpt lat="46.03501" lon="6.77626">
        <ele>1010.48</ele>
        <time>2017-10-17T14:33:44Z</time>
      </trkpt>
      <trkpt lat="46.03511" lon="6.77624">
        <ele>1007.6</ele>
        <time>2017-10-17T14:33:48Z</time>
      </trkpt>
      <trkpt lat="46.03527" lon="6.77624">
        <ele>1004.23</ele>
        <time>2017-10-17T14:33:54Z</time>
      </trkpt>
      <trkpt lat="46.03542" lon="6.77623">
        <ele>1000.39</ele>
        <time>2017-10-17T14:34:00Z</time>
      </trkpt>
      <trkpt lat="46.0356" lon="6.77621">
        <ele>997.02</ele>
        <time>2017-10-17T14:34:07Z</time>
      </trkpt>
      <trkpt lat="46.03572" lon="6.77623">
        <ele>993.66</ele>
        <time>2017-10-17T14:34:14Z</time>
      </trkpt>
      <trkpt lat="46.03585" lon="6.77624">
        <ele>990.78</ele>
        <time>2017-10-17T14:34:19Z</time>
      </trkpt>
      <trkpt lat="46.036" lon="6.7762">
        <ele>987.41</ele>
        <time>2017-10-17T14:34:25Z</time>
      </trkpt>
      <trkpt lat="46.03613" lon="6.7761">
        <ele>984.05</ele>
        <time>2017-10-17T14:34:30Z</time>
      </trkpt>
      <trkpt lat="46.03627" lon="6.77599">
        <ele>980.68</ele>
        <time>2017-10-17T14:34:36Z</time>
      </trkpt>
      <trkpt lat="46.03636" lon="6.77588">
        <ele>977.8</ele>
        <time>2017-10-17T14:34:41Z</time>
      </trkpt>
      <trkpt lat="46.03637" lon="6.77585">
        <ele>976.84</ele>
        <time>2017-10-17T14:34:42Z</time>
      </trkpt>
      <trkpt lat="46.03638" lon="6.77583">
        <ele>976.36</ele>
        <time>2017-10-17T14:34:43Z</time>
      </trkpt>
      <trkpt lat="46.03649" lon="6.77572">
        <ele>972.99</ele>
        <time>2017-10-17T14:34:49Z</time>
      </trkpt>
      <trkpt lat="46.03662" lon="6.77564">
        <ele>969.63</ele>
        <time>2017-10-17T14:34:54Z</time>
      </trkpt>
      <trkpt lat="46.03668" lon="6.77561">
        <ele>968.18</ele>
        <time>2017-10-17T14:34:56Z</time>
      </trkpt>
      <trkpt lat="46.0367" lon="6.77559">
        <ele>968.18</ele>
        <time>2017-10-17T14:34:57Z</time>
      </trkpt>
      <trkpt lat="46.03673" lon="6.77557">
        <ele>967.22</ele>
        <time>2017-10-17T14:34:58Z</time>
      </trkpt>
      <trkpt lat="46.03675" lon="6.77555">
        <ele>966.74</ele>
        <time>2017-10-17T14:34:59Z</time>
      </trkpt>
      <trkpt lat="46.03677" lon="6.77553">
        <ele>965.78</ele>
        <time>2017-10-17T14:35:00Z</time>
      </trkpt>
      <trkpt lat="46.03679" lon="6.77552">
        <ele>964.82</ele>
        <time>2017-10-17T14:35:01Z</time>
      </trkpt>
      <trkpt lat="46.03681" lon="6.77549">
        <ele>963.86</ele>
        <time>2017-10-17T14:35:02Z</time>
      </trkpt>
      <trkpt lat="46.03684" lon="6.77548">
        <ele>963.38</ele>
        <time>2017-10-17T14:35:03Z</time>
      </trkpt>
      <trkpt lat="46.03686" lon="6.77547">
        <ele>962.42</ele>
        <time>2017-10-17T14:35:04Z</time>
      </trkpt>
      <trkpt lat="46.03688" lon="6.77547">
        <ele>962.42</ele>
        <time>2017-10-17T14:35:05Z</time>
      </trkpt>
      <trkpt lat="46.037" lon="6.77544">
        <ele>958.57</ele>
        <time>2017-10-17T14:35:10Z</time>
      </trkpt>
      <trkpt lat="46.03707" lon="6.77541">
        <ele>957.13</ele>
        <time>2017-10-17T14:35:13Z</time>
      </trkpt>
      <trkpt lat="46.03709" lon="6.7754">
        <ele>956.65</ele>
        <time>2017-10-17T14:35:14Z</time>
      </trkpt>
      <trkpt lat="46.0371" lon="6.7754">
        <ele>956.17</ele>
        <time>2017-10-17T14:35:15Z</time>
      </trkpt>
      <trkpt lat="46.03712" lon="6.77539">
        <ele>955.69</ele>
        <time>2017-10-17T14:35:16Z</time>
      </trkpt>
      <trkpt lat="46.03714" lon="6.77539">
        <ele>954.73</ele>
        <time>2017-10-17T14:35:17Z</time>
      </trkpt>
      <trkpt lat="46.03715" lon="6.77538">
        <ele>953.77</ele>
        <time>2017-10-17T14:35:18Z</time>
      </trkpt>
      <trkpt lat="46.03717" lon="6.77537">
        <ele>953.28</ele>
        <time>2017-10-17T14:35:19Z</time>
      </trkpt>
      <trkpt lat="46.03719" lon="6.77537">
        <ele>952.8</ele>
        <time>2017-10-17T14:35:20Z</time>
      </trkpt>
      <trkpt lat="46.03721" lon="6.77536">
        <ele>952.32</ele>
        <time>2017-10-17T14:35:21Z</time>
      </trkpt>
      <trkpt lat="46.03724" lon="6.77536">
        <ele>951.84</ele>
        <time>2017-10-17T14:35:22Z</time>
      </trkpt>
      <trkpt lat="46.03727" lon="6.77536">
        <ele>951.36</ele>
        <time>2017-10-17T14:35:23Z</time>
      </trkpt>
      <trkpt lat="46.0373" lon="6.77535">
        <ele>950.4</ele>
        <time>2017-10-17T14:35:24Z</time>
      </trkpt>
      <trkpt lat="46.03733" lon="6.77536">
        <ele>949.92</ele>
        <time>2017-10-17T14:35:25Z</time>
      </trkpt>
      <trkpt lat="46.03746" lon="6.77529">
        <ele>947.04</ele>
        <time>2017-10-17T14:35:31Z</time>
      </trkpt>
      <trkpt lat="46.03763" lon="6.77514">
        <ele>943.67</ele>
        <time>2017-10-17T14:35:37Z</time>
      </trkpt>
      <trkpt lat="46.03776" lon="6.77508">
        <ele>941.75</ele>
        <time>2017-10-17T14:35:41Z</time>
      </trkpt>
      <trkpt lat="46.03798" lon="6.77502">
        <ele>939.83</ele>
        <time>2017-10-17T14:35:48Z</time>
      </trkpt>
      <trkpt lat="46.03821" lon="6.77497">
        <ele>937.42</ele>
        <time>2017-10-17T14:35:55Z</time>
      </trkpt>
      <trkpt lat="46.03844" lon="6.77493">
        <ele>935.5</ele>
        <time>2017-10-17T14:36:01Z</time>
      </trkpt>
      <trkpt lat="46.03866" lon="6.77483">
        <ele>933.58</ele>
        <time>2017-10-17T14:36:08Z</time>
      </trkpt>
      <trkpt lat="46.03888" lon="6.77475">
        <ele>931.65</ele>
        <time>2017-10-17T14:36:15Z</time>
      </trkpt>
      <trkpt lat="46.03909" lon="6.77473">
        <ele>929.73</ele>
        <time>2017-10-17T14:36:22Z</time>
      </trkpt>
      <trkpt lat="46.0393" lon="6.77468">
        <ele>928.29</ele>
        <time>2017-10-17T14:36:28Z</time>
      </trkpt>
      <trkpt lat="46.03951" lon="6.7746">
        <ele>927.33</ele>
        <time>2017-10-17T14:36:34Z</time>
      </trkpt>
      <trkpt lat="46.03973" lon="6.77452">
        <ele>925.41</ele>
        <time>2017-10-17T14:36:41Z</time>
      </trkpt>
      <trkpt lat="46.03993" lon="6.7746">
        <ele>924.45</ele>
        <time>2017-10-17T14:36:47Z</time>
      </trkpt>
      <trkpt lat="46.04012" lon="6.77477">
        <ele>922.52</ele>
        <time>2017-10-17T14:36:54Z</time>
      </trkpt>
      <trkpt lat="46.04031" lon="6.77489">
        <ele>920.6</ele>
        <time>2017-10-17T14:37:00Z</time>
      </trkpt>
      <trkpt lat="46.04054" lon="6.77498">
        <ele>918.68</ele>
        <time>2017-10-17T14:37:07Z</time>
      </trkpt>
      <trkpt lat="46.04076" lon="6.77494">
        <ele>917.24</ele>
        <time>2017-10-17T14:37:15Z</time>
      </trkpt>
      <trkpt lat="46.04092" lon="6.77473">
        <ele>916.75</ele>
        <time>2017-10-17T14:37:22Z</time>
      </trkpt>
      <trkpt lat="46.04108" lon="6.77448">
        <ele>915.79</ele>
        <time>2017-10-17T14:37:29Z</time>
      </trkpt>
      <trkpt lat="46.04114" lon="6.77441">
        <ele>915.79</ele>
        <time>2017-10-17T14:37:33Z</time>
      </trkpt>
      <trkpt lat="46.04115" lon="6.7744">
        <ele>915.79</ele>
        <time>2017-10-17T14:37:34Z</time>
      </trkpt>
      <trkpt lat="46.04116" lon="6.77435">
        <ele>915.79</ele>
        <time>2017-10-17T14:37:37Z</time>
      </trkpt>
      <trkpt lat="46.04117" lon="6.77434">
        <ele>915.79</ele>
        <time>2017-10-17T14:37:38Z</time>
      </trkpt>
    </trkseg>
  </trk>
</gpx>